<?xml version='1.0' encoding='UTF-8' ?>
<gpx version="1.1" creator="S Health_0.2" n0:schemaLocation="http://www.topografix.com/GPX/1/1 http://www.topografix.com/GPX/1/1/gpx.xsd" xmlns="http://www.topografix.com/GPX/1/1" n1:xsi="http://www.w3.org/2001/XMLSchema-instance" n1:gpx1="http://www.topografix.com/GPX/1/0" n1:ogt10="http://gpstracker.android.sogeti.n1/GPX/1/0" xmlns:n0="xsi" xmlns:n1="xmlns">
  <metadate>2021-11-25T07:57:38Z</metadate>
  <trk>
    <name>Ferte-beauharnais.gpx</name>
    <trkseg>
      <trkpt lat="47.544914" lon="1.8489405">
        <ele>144.0</ele>
        <time>2021-11-25T07:57:38Z</time>
      </trkpt>
      <trkpt lat="47.544914" lon="1.8489405">
        <ele>144.0</ele>
        <time>2021-11-25T07:57:38Z</time>
      </trkpt>
      <trkpt lat="47.544914" lon="1.8489405">
        <ele>144.0</ele>
        <time>2021-11-25T07:57:40Z</time>
      </trkpt>
      <trkpt lat="47.544914" lon="1.8489405">
        <ele>144.0</ele>
        <time>2021-11-25T07:57:40Z</time>
      </trkpt>
      <trkpt lat="47.544914" lon="1.8489405">
        <ele>144.0</ele>
        <time>2021-11-25T07:57:42Z</time>
      </trkpt>
      <trkpt lat="47.544914" lon="1.8489405">
        <ele>144.0</ele>
        <time>2021-11-25T07:57:43Z</time>
      </trkpt>
      <trkpt lat="47.544914" lon="1.8489405">
        <ele>144.0</ele>
        <time>2021-11-25T07:57:44Z</time>
      </trkpt>
      <trkpt lat="47.544914" lon="1.8489476">
        <ele>141.0</ele>
        <time>2021-11-25T07:57:45Z</time>
      </trkpt>
      <trkpt lat="47.54491" lon="1.8489536">
        <ele>141.0</ele>
        <time>2021-11-25T07:57:46Z</time>
      </trkpt>
      <trkpt lat="47.544914" lon="1.848947">
        <ele>143.0</ele>
        <time>2021-11-25T07:57:48Z</time>
      </trkpt>
      <trkpt lat="47.544926" lon="1.8489553">
        <ele>145.0</ele>
        <time>2021-11-25T07:57:51Z</time>
      </trkpt>
      <trkpt lat="47.544933" lon="1.8489566">
        <ele>146.0</ele>
        <time>2021-11-25T07:57:53Z</time>
      </trkpt>
      <trkpt lat="47.54494" lon="1.8489524">
        <ele>147.0</ele>
        <time>2021-11-25T07:57:55Z</time>
      </trkpt>
      <trkpt lat="47.54495" lon="1.8489535">
        <ele>147.0</ele>
        <time>2021-11-25T07:57:56Z</time>
      </trkpt>
      <trkpt lat="47.544952" lon="1.8489561">
        <ele>148.0</ele>
        <time>2021-11-25T07:57:57Z</time>
      </trkpt>
      <trkpt lat="47.54496" lon="1.8489602">
        <ele>148.0</ele>
        <time>2021-11-25T07:57:58Z</time>
      </trkpt>
      <trkpt lat="47.544968" lon="1.8489562">
        <ele>149.0</ele>
        <time>2021-11-25T07:57:59Z</time>
      </trkpt>
      <trkpt lat="47.544994" lon="1.8489554">
        <ele>150.0</ele>
        <time>2021-11-25T07:58:01Z</time>
      </trkpt>
      <trkpt lat="47.54501" lon="1.8489431">
        <ele>150.0</ele>
        <time>2021-11-25T07:58:03Z</time>
      </trkpt>
      <trkpt lat="47.54501" lon="1.8489431">
        <ele>150.0</ele>
        <time>2021-11-25T07:58:03Z</time>
      </trkpt>
      <trkpt lat="47.545017" lon="1.8489377">
        <ele>150.0</ele>
        <time>2021-11-25T07:58:05Z</time>
      </trkpt>
      <trkpt lat="47.54503" lon="1.8489304">
        <ele>150.0</ele>
        <time>2021-11-25T07:58:06Z</time>
      </trkpt>
      <trkpt lat="47.545036" lon="1.848925">
        <ele>150.0</ele>
        <time>2021-11-25T07:58:07Z</time>
      </trkpt>
      <trkpt lat="47.54506" lon="1.8489124">
        <ele>150.0</ele>
        <time>2021-11-25T07:58:08Z</time>
      </trkpt>
      <trkpt lat="47.54508" lon="1.8488839">
        <ele>150.0</ele>
        <time>2021-11-25T07:58:10Z</time>
      </trkpt>
      <trkpt lat="47.54509" lon="1.8488575">
        <ele>150.0</ele>
        <time>2021-11-25T07:58:13Z</time>
      </trkpt>
      <trkpt lat="47.545094" lon="1.8488476">
        <ele>150.0</ele>
        <time>2021-11-25T07:58:14Z</time>
      </trkpt>
      <trkpt lat="47.545097" lon="1.8488356">
        <ele>150.0</ele>
        <time>2021-11-25T07:58:15Z</time>
      </trkpt>
      <trkpt lat="47.545105" lon="1.8488157">
        <ele>151.0</ele>
        <time>2021-11-25T07:58:16Z</time>
      </trkpt>
      <trkpt lat="47.54512" lon="1.8487681">
        <ele>151.0</ele>
        <time>2021-11-25T07:58:18Z</time>
      </trkpt>
      <trkpt lat="47.54513" lon="1.84874">
        <ele>151.0</ele>
        <time>2021-11-25T07:58:20Z</time>
      </trkpt>
      <trkpt lat="47.54513" lon="1.84874">
        <ele>151.0</ele>
        <time>2021-11-25T07:58:20Z</time>
      </trkpt>
      <trkpt lat="47.545155" lon="1.8487352">
        <ele>151.0</ele>
        <time>2021-11-25T07:58:22Z</time>
      </trkpt>
      <trkpt lat="47.545162" lon="1.8487389">
        <ele>150.0</ele>
        <time>2021-11-25T07:58:23Z</time>
      </trkpt>
      <trkpt lat="47.54517" lon="1.8487409">
        <ele>151.0</ele>
        <time>2021-11-25T07:58:24Z</time>
      </trkpt>
      <trkpt lat="47.54518" lon="1.8487438">
        <ele>150.0</ele>
        <time>2021-11-25T07:58:25Z</time>
      </trkpt>
      <trkpt lat="47.54519" lon="1.8487486">
        <ele>150.0</ele>
        <time>2021-11-25T07:58:26Z</time>
      </trkpt>
      <trkpt lat="47.545197" lon="1.8487525">
        <ele>150.0</ele>
        <time>2021-11-25T07:58:27Z</time>
      </trkpt>
      <trkpt lat="47.545204" lon="1.8487531">
        <ele>150.0</ele>
        <time>2021-11-25T07:58:28Z</time>
      </trkpt>
      <trkpt lat="47.545204" lon="1.8487531">
        <ele>150.0</ele>
        <time>2021-11-25T07:58:28Z</time>
      </trkpt>
      <trkpt lat="47.54521" lon="1.8487579">
        <ele>150.0</ele>
        <time>2021-11-25T07:58:30Z</time>
      </trkpt>
      <trkpt lat="47.545227" lon="1.848767">
        <ele>149.0</ele>
        <time>2021-11-25T07:58:31Z</time>
      </trkpt>
      <trkpt lat="47.545235" lon="1.8487737">
        <ele>149.0</ele>
        <time>2021-11-25T07:58:32Z</time>
      </trkpt>
      <trkpt lat="47.545246" lon="1.8487734">
        <ele>149.0</ele>
        <time>2021-11-25T07:58:33Z</time>
      </trkpt>
      <trkpt lat="47.545254" lon="1.848774">
        <ele>149.0</ele>
        <time>2021-11-25T07:58:34Z</time>
      </trkpt>
      <trkpt lat="47.545265" lon="1.8487785">
        <ele>149.0</ele>
        <time>2021-11-25T07:58:35Z</time>
      </trkpt>
      <trkpt lat="47.545273" lon="1.8487862">
        <ele>149.0</ele>
        <time>2021-11-25T07:58:36Z</time>
      </trkpt>
      <trkpt lat="47.545277" lon="1.8487953">
        <ele>149.0</ele>
        <time>2021-11-25T07:58:37Z</time>
      </trkpt>
      <trkpt lat="47.545284" lon="1.8487986">
        <ele>149.0</ele>
        <time>2021-11-25T07:58:38Z</time>
      </trkpt>
      <trkpt lat="47.54529" lon="1.8488059">
        <ele>150.0</ele>
        <time>2021-11-25T07:58:39Z</time>
      </trkpt>
      <trkpt lat="47.545307" lon="1.8488158">
        <ele>150.0</ele>
        <time>2021-11-25T07:58:40Z</time>
      </trkpt>
      <trkpt lat="47.54532" lon="1.8488245">
        <ele>151.0</ele>
        <time>2021-11-25T07:58:41Z</time>
      </trkpt>
      <trkpt lat="47.54533" lon="1.8488208">
        <ele>150.0</ele>
        <time>2021-11-25T07:58:43Z</time>
      </trkpt>
      <trkpt lat="47.54533" lon="1.8488208">
        <ele>150.0</ele>
        <time>2021-11-25T07:58:43Z</time>
      </trkpt>
      <trkpt lat="47.54533" lon="1.8488219">
        <ele>150.0</ele>
        <time>2021-11-25T07:58:45Z</time>
      </trkpt>
      <trkpt lat="47.54533" lon="1.8488258">
        <ele>150.0</ele>
        <time>2021-11-25T07:58:46Z</time>
      </trkpt>
      <trkpt lat="47.545338" lon="1.8488268">
        <ele>150.0</ele>
        <time>2021-11-25T07:58:47Z</time>
      </trkpt>
      <trkpt lat="47.545345" lon="1.8488245">
        <ele>150.0</ele>
        <time>2021-11-25T07:58:48Z</time>
      </trkpt>
      <trkpt lat="47.545357" lon="1.848822">
        <ele>150.0</ele>
        <time>2021-11-25T07:58:49Z</time>
      </trkpt>
      <trkpt lat="47.545376" lon="1.8488147">
        <ele>149.0</ele>
        <time>2021-11-25T07:58:50Z</time>
      </trkpt>
      <trkpt lat="47.54539" lon="1.8488142">
        <ele>148.0</ele>
        <time>2021-11-25T07:58:51Z</time>
      </trkpt>
      <trkpt lat="47.54541" lon="1.8488071">
        <ele>148.0</ele>
        <time>2021-11-25T07:58:52Z</time>
      </trkpt>
      <trkpt lat="47.545425" lon="1.8488015">
        <ele>147.0</ele>
        <time>2021-11-25T07:58:53Z</time>
      </trkpt>
      <trkpt lat="47.54544" lon="1.8487991">
        <ele>147.0</ele>
        <time>2021-11-25T07:58:54Z</time>
      </trkpt>
      <trkpt lat="47.545456" lon="1.8487985">
        <ele>146.0</ele>
        <time>2021-11-25T07:58:55Z</time>
      </trkpt>
      <trkpt lat="47.545467" lon="1.8487958">
        <ele>145.0</ele>
        <time>2021-11-25T07:58:56Z</time>
      </trkpt>
      <trkpt lat="47.545483" lon="1.8487959">
        <ele>145.0</ele>
        <time>2021-11-25T07:58:57Z</time>
      </trkpt>
      <trkpt lat="47.545483" lon="1.8487959">
        <ele>145.0</ele>
        <time>2021-11-25T07:58:57Z</time>
      </trkpt>
      <trkpt lat="47.545513" lon="1.8488002">
        <ele>144.0</ele>
        <time>2021-11-25T07:58:59Z</time>
      </trkpt>
      <trkpt lat="47.545513" lon="1.8488002">
        <ele>144.0</ele>
        <time>2021-11-25T07:58:59Z</time>
      </trkpt>
      <trkpt lat="47.54552" lon="1.8488122">
        <ele>144.0</ele>
        <time>2021-11-25T07:59:01Z</time>
      </trkpt>
      <trkpt lat="47.54552" lon="1.8488154">
        <ele>144.0</ele>
        <time>2021-11-25T07:59:02Z</time>
      </trkpt>
      <trkpt lat="47.54552" lon="1.8488201">
        <ele>143.0</ele>
        <time>2021-11-25T07:59:03Z</time>
      </trkpt>
      <trkpt lat="47.54553" lon="1.8488253">
        <ele>143.0</ele>
        <time>2021-11-25T07:59:04Z</time>
      </trkpt>
      <trkpt lat="47.54554" lon="1.8488348">
        <ele>143.0</ele>
        <time>2021-11-25T07:59:05Z</time>
      </trkpt>
      <trkpt lat="47.545547" lon="1.84884">
        <ele>143.0</ele>
        <time>2021-11-25T07:59:06Z</time>
      </trkpt>
      <trkpt lat="47.54556" lon="1.8488383">
        <ele>142.0</ele>
        <time>2021-11-25T07:59:07Z</time>
      </trkpt>
      <trkpt lat="47.545567" lon="1.8488379">
        <ele>142.0</ele>
        <time>2021-11-25T07:59:08Z</time>
      </trkpt>
      <trkpt lat="47.545578" lon="1.8488408">
        <ele>141.0</ele>
        <time>2021-11-25T07:59:09Z</time>
      </trkpt>
      <trkpt lat="47.545586" lon="1.8488442">
        <ele>141.0</ele>
        <time>2021-11-25T07:59:10Z</time>
      </trkpt>
      <trkpt lat="47.545593" lon="1.8488472">
        <ele>141.0</ele>
        <time>2021-11-25T07:59:11Z</time>
      </trkpt>
      <trkpt lat="47.5456" lon="1.8488472">
        <ele>141.0</ele>
        <time>2021-11-25T07:59:12Z</time>
      </trkpt>
      <trkpt lat="47.54561" lon="1.8488486">
        <ele>141.0</ele>
        <time>2021-11-25T07:59:13Z</time>
      </trkpt>
      <trkpt lat="47.545616" lon="1.8488519">
        <ele>141.0</ele>
        <time>2021-11-25T07:59:14Z</time>
      </trkpt>
      <trkpt lat="47.545628" lon="1.8488544">
        <ele>140.0</ele>
        <time>2021-11-25T07:59:15Z</time>
      </trkpt>
      <trkpt lat="47.545643" lon="1.8488528">
        <ele>139.0</ele>
        <time>2021-11-25T07:59:16Z</time>
      </trkpt>
      <trkpt lat="47.545654" lon="1.8488498">
        <ele>139.0</ele>
        <time>2021-11-25T07:59:17Z</time>
      </trkpt>
      <trkpt lat="47.545666" lon="1.8488476">
        <ele>139.0</ele>
        <time>2021-11-25T07:59:18Z</time>
      </trkpt>
      <trkpt lat="47.545677" lon="1.8488445">
        <ele>139.0</ele>
        <time>2021-11-25T07:59:19Z</time>
      </trkpt>
      <trkpt lat="47.545685" lon="1.8488429">
        <ele>138.0</ele>
        <time>2021-11-25T07:59:20Z</time>
      </trkpt>
      <trkpt lat="47.5457" lon="1.8488394">
        <ele>138.0</ele>
        <time>2021-11-25T07:59:21Z</time>
      </trkpt>
      <trkpt lat="47.54571" lon="1.848838">
        <ele>137.0</ele>
        <time>2021-11-25T07:59:22Z</time>
      </trkpt>
      <trkpt lat="47.545723" lon="1.8488476">
        <ele>136.0</ele>
        <time>2021-11-25T07:59:23Z</time>
      </trkpt>
      <trkpt lat="47.545734" lon="1.8488523">
        <ele>136.0</ele>
        <time>2021-11-25T07:59:24Z</time>
      </trkpt>
      <trkpt lat="47.545742" lon="1.8488576">
        <ele>136.0</ele>
        <time>2021-11-25T07:59:25Z</time>
      </trkpt>
      <trkpt lat="47.545753" lon="1.8488617">
        <ele>135.0</ele>
        <time>2021-11-25T07:59:26Z</time>
      </trkpt>
      <trkpt lat="47.545765" lon="1.8488637">
        <ele>135.0</ele>
        <time>2021-11-25T07:59:27Z</time>
      </trkpt>
      <trkpt lat="47.545776" lon="1.8488661">
        <ele>135.0</ele>
        <time>2021-11-25T07:59:28Z</time>
      </trkpt>
      <trkpt lat="47.545788" lon="1.8488688">
        <ele>135.0</ele>
        <time>2021-11-25T07:59:29Z</time>
      </trkpt>
      <trkpt lat="47.5458" lon="1.8488699">
        <ele>134.0</ele>
        <time>2021-11-25T07:59:30Z</time>
      </trkpt>
      <trkpt lat="47.54581" lon="1.8488756">
        <ele>134.0</ele>
        <time>2021-11-25T07:59:31Z</time>
      </trkpt>
      <trkpt lat="47.545822" lon="1.8488837">
        <ele>134.0</ele>
        <time>2021-11-25T07:59:32Z</time>
      </trkpt>
      <trkpt lat="47.545822" lon="1.8488837">
        <ele>134.0</ele>
        <time>2021-11-25T07:59:32Z</time>
      </trkpt>
      <trkpt lat="47.54585" lon="1.8488926">
        <ele>134.0</ele>
        <time>2021-11-25T07:59:34Z</time>
      </trkpt>
      <trkpt lat="47.545864" lon="1.8488948">
        <ele>134.0</ele>
        <time>2021-11-25T07:59:35Z</time>
      </trkpt>
      <trkpt lat="47.545876" lon="1.8488998">
        <ele>134.0</ele>
        <time>2021-11-25T07:59:36Z</time>
      </trkpt>
      <trkpt lat="47.545887" lon="1.848905">
        <ele>134.0</ele>
        <time>2021-11-25T07:59:37Z</time>
      </trkpt>
      <trkpt lat="47.545902" lon="1.8489093">
        <ele>133.0</ele>
        <time>2021-11-25T07:59:38Z</time>
      </trkpt>
      <trkpt lat="47.545918" lon="1.8489101">
        <ele>133.0</ele>
        <time>2021-11-25T07:59:39Z</time>
      </trkpt>
      <trkpt lat="47.545933" lon="1.8489141">
        <ele>133.0</ele>
        <time>2021-11-25T07:59:40Z</time>
      </trkpt>
      <trkpt lat="47.545944" lon="1.8489206">
        <ele>133.0</ele>
        <time>2021-11-25T07:59:41Z</time>
      </trkpt>
      <trkpt lat="47.54596" lon="1.8489275">
        <ele>133.0</ele>
        <time>2021-11-25T07:59:42Z</time>
      </trkpt>
      <trkpt lat="47.54597" lon="1.8489347">
        <ele>133.0</ele>
        <time>2021-11-25T07:59:43Z</time>
      </trkpt>
      <trkpt lat="47.545986" lon="1.8489412">
        <ele>133.0</ele>
        <time>2021-11-25T07:59:44Z</time>
      </trkpt>
      <trkpt lat="47.546" lon="1.8489473">
        <ele>133.0</ele>
        <time>2021-11-25T07:59:45Z</time>
      </trkpt>
      <trkpt lat="47.546017" lon="1.8489571">
        <ele>133.0</ele>
        <time>2021-11-25T07:59:46Z</time>
      </trkpt>
      <trkpt lat="47.54604" lon="1.8489662">
        <ele>134.0</ele>
        <time>2021-11-25T07:59:47Z</time>
      </trkpt>
      <trkpt lat="47.546078" lon="1.848971">
        <ele>136.0</ele>
        <time>2021-11-25T07:59:49Z</time>
      </trkpt>
      <trkpt lat="47.546112" lon="1.848986">
        <ele>136.0</ele>
        <time>2021-11-25T07:59:51Z</time>
      </trkpt>
      <trkpt lat="47.546143" lon="1.8490005">
        <ele>136.0</ele>
        <time>2021-11-25T07:59:53Z</time>
      </trkpt>
      <trkpt lat="47.546154" lon="1.8490105">
        <ele>135.0</ele>
        <time>2021-11-25T07:59:54Z</time>
      </trkpt>
      <trkpt lat="47.54617" lon="1.8490192">
        <ele>135.0</ele>
        <time>2021-11-25T07:59:55Z</time>
      </trkpt>
      <trkpt lat="47.54618" lon="1.8490306">
        <ele>135.0</ele>
        <time>2021-11-25T07:59:56Z</time>
      </trkpt>
      <trkpt lat="47.546192" lon="1.8490438">
        <ele>135.0</ele>
        <time>2021-11-25T07:59:57Z</time>
      </trkpt>
      <trkpt lat="47.5462" lon="1.8490565">
        <ele>135.0</ele>
        <time>2021-11-25T07:59:58Z</time>
      </trkpt>
      <trkpt lat="47.546215" lon="1.8490634">
        <ele>135.0</ele>
        <time>2021-11-25T07:59:59Z</time>
      </trkpt>
      <trkpt lat="47.546227" lon="1.8490722">
        <ele>135.0</ele>
        <time>2021-11-25T08:00:00Z</time>
      </trkpt>
      <trkpt lat="47.546238" lon="1.8490819">
        <ele>135.0</ele>
        <time>2021-11-25T08:00:01Z</time>
      </trkpt>
      <trkpt lat="47.54625" lon="1.8490924">
        <ele>136.0</ele>
        <time>2021-11-25T08:00:02Z</time>
      </trkpt>
      <trkpt lat="47.54626" lon="1.849104">
        <ele>136.0</ele>
        <time>2021-11-25T08:00:03Z</time>
      </trkpt>
      <trkpt lat="47.546276" lon="1.8491123">
        <ele>136.0</ele>
        <time>2021-11-25T08:00:04Z</time>
      </trkpt>
      <trkpt lat="47.54629" lon="1.8491237">
        <ele>136.0</ele>
        <time>2021-11-25T08:00:05Z</time>
      </trkpt>
      <trkpt lat="47.546303" lon="1.8491362">
        <ele>136.0</ele>
        <time>2021-11-25T08:00:06Z</time>
      </trkpt>
      <trkpt lat="47.546318" lon="1.8491495">
        <ele>136.0</ele>
        <time>2021-11-25T08:00:07Z</time>
      </trkpt>
      <trkpt lat="47.54633" lon="1.8491609">
        <ele>136.0</ele>
        <time>2021-11-25T08:00:08Z</time>
      </trkpt>
      <trkpt lat="47.546345" lon="1.8491733">
        <ele>137.0</ele>
        <time>2021-11-25T08:00:09Z</time>
      </trkpt>
      <trkpt lat="47.54636" lon="1.8491827">
        <ele>138.0</ele>
        <time>2021-11-25T08:00:10Z</time>
      </trkpt>
      <trkpt lat="47.546368" lon="1.8491932">
        <ele>138.0</ele>
        <time>2021-11-25T08:00:11Z</time>
      </trkpt>
      <trkpt lat="47.546383" lon="1.8491999">
        <ele>138.0</ele>
        <time>2021-11-25T08:00:12Z</time>
      </trkpt>
      <trkpt lat="47.546394" lon="1.8492099">
        <ele>138.0</ele>
        <time>2021-11-25T08:00:13Z</time>
      </trkpt>
      <trkpt lat="47.546406" lon="1.8492205">
        <ele>138.0</ele>
        <time>2021-11-25T08:00:14Z</time>
      </trkpt>
      <trkpt lat="47.54642" lon="1.8492266">
        <ele>138.0</ele>
        <time>2021-11-25T08:00:15Z</time>
      </trkpt>
      <trkpt lat="47.546432" lon="1.8492357">
        <ele>138.0</ele>
        <time>2021-11-25T08:00:16Z</time>
      </trkpt>
      <trkpt lat="47.546444" lon="1.849245">
        <ele>138.0</ele>
        <time>2021-11-25T08:00:17Z</time>
      </trkpt>
      <trkpt lat="47.54646" lon="1.8492527">
        <ele>138.0</ele>
        <time>2021-11-25T08:00:18Z</time>
      </trkpt>
      <trkpt lat="47.54647" lon="1.8492562">
        <ele>138.0</ele>
        <time>2021-11-25T08:00:19Z</time>
      </trkpt>
      <trkpt lat="47.546482" lon="1.849254">
        <ele>138.0</ele>
        <time>2021-11-25T08:00:20Z</time>
      </trkpt>
      <trkpt lat="47.546494" lon="1.849252">
        <ele>138.0</ele>
        <time>2021-11-25T08:00:21Z</time>
      </trkpt>
      <trkpt lat="47.54651" lon="1.849253">
        <ele>138.0</ele>
        <time>2021-11-25T08:00:22Z</time>
      </trkpt>
      <trkpt lat="47.546516" lon="1.849248">
        <ele>138.0</ele>
        <time>2021-11-25T08:00:23Z</time>
      </trkpt>
      <trkpt lat="47.546528" lon="1.8492377">
        <ele>138.0</ele>
        <time>2021-11-25T08:00:24Z</time>
      </trkpt>
      <trkpt lat="47.54654" lon="1.8492255">
        <ele>138.0</ele>
        <time>2021-11-25T08:00:25Z</time>
      </trkpt>
      <trkpt lat="47.546543" lon="1.8492192">
        <ele>139.0</ele>
        <time>2021-11-25T08:00:26Z</time>
      </trkpt>
      <trkpt lat="47.546555" lon="1.8492054">
        <ele>139.0</ele>
        <time>2021-11-25T08:00:27Z</time>
      </trkpt>
      <trkpt lat="47.546566" lon="1.8491876">
        <ele>139.0</ele>
        <time>2021-11-25T08:00:28Z</time>
      </trkpt>
      <trkpt lat="47.546574" lon="1.849173">
        <ele>140.0</ele>
        <time>2021-11-25T08:00:29Z</time>
      </trkpt>
      <trkpt lat="47.546577" lon="1.8491596">
        <ele>140.0</ele>
        <time>2021-11-25T08:00:30Z</time>
      </trkpt>
      <trkpt lat="47.54659" lon="1.8491491">
        <ele>141.0</ele>
        <time>2021-11-25T08:00:31Z</time>
      </trkpt>
      <trkpt lat="47.546593" lon="1.8491387">
        <ele>141.0</ele>
        <time>2021-11-25T08:00:32Z</time>
      </trkpt>
      <trkpt lat="47.546597" lon="1.8491347">
        <ele>142.0</ele>
        <time>2021-11-25T08:00:33Z</time>
      </trkpt>
      <trkpt lat="47.546597" lon="1.849132">
        <ele>141.0</ele>
        <time>2021-11-25T08:00:34Z</time>
      </trkpt>
      <trkpt lat="47.546604" lon="1.8491211">
        <ele>142.0</ele>
        <time>2021-11-25T08:00:35Z</time>
      </trkpt>
      <trkpt lat="47.546608" lon="1.8491122">
        <ele>142.0</ele>
        <time>2021-11-25T08:00:36Z</time>
      </trkpt>
      <trkpt lat="47.54661" lon="1.8490974">
        <ele>142.0</ele>
        <time>2021-11-25T08:00:37Z</time>
      </trkpt>
      <trkpt lat="47.54662" lon="1.84908">
        <ele>141.0</ele>
        <time>2021-11-25T08:00:38Z</time>
      </trkpt>
      <trkpt lat="47.546623" lon="1.8490621">
        <ele>141.0</ele>
        <time>2021-11-25T08:00:39Z</time>
      </trkpt>
      <trkpt lat="47.546623" lon="1.8490539">
        <ele>141.0</ele>
        <time>2021-11-25T08:00:40Z</time>
      </trkpt>
      <trkpt lat="47.54663" lon="1.8490442">
        <ele>142.0</ele>
        <time>2021-11-25T08:00:41Z</time>
      </trkpt>
      <trkpt lat="47.54664" lon="1.8490292">
        <ele>142.0</ele>
        <time>2021-11-25T08:00:42Z</time>
      </trkpt>
      <trkpt lat="47.546646" lon="1.849015">
        <ele>141.0</ele>
        <time>2021-11-25T08:00:43Z</time>
      </trkpt>
      <trkpt lat="47.54665" lon="1.849005">
        <ele>142.0</ele>
        <time>2021-11-25T08:00:44Z</time>
      </trkpt>
      <trkpt lat="47.546658" lon="1.848997">
        <ele>142.0</ele>
        <time>2021-11-25T08:00:45Z</time>
      </trkpt>
      <trkpt lat="47.546665" lon="1.8489845">
        <ele>142.0</ele>
        <time>2021-11-25T08:00:46Z</time>
      </trkpt>
      <trkpt lat="47.54667" lon="1.8489721">
        <ele>142.0</ele>
        <time>2021-11-25T08:00:47Z</time>
      </trkpt>
      <trkpt lat="47.54668" lon="1.848958">
        <ele>142.0</ele>
        <time>2021-11-25T08:00:48Z</time>
      </trkpt>
      <trkpt lat="47.546688" lon="1.8489445">
        <ele>142.0</ele>
        <time>2021-11-25T08:00:49Z</time>
      </trkpt>
      <trkpt lat="47.546696" lon="1.8489329">
        <ele>142.0</ele>
        <time>2021-11-25T08:00:50Z</time>
      </trkpt>
      <trkpt lat="47.546703" lon="1.8489219">
        <ele>142.0</ele>
        <time>2021-11-25T08:00:51Z</time>
      </trkpt>
      <trkpt lat="47.54671" lon="1.8489134">
        <ele>142.0</ele>
        <time>2021-11-25T08:00:52Z</time>
      </trkpt>
      <trkpt lat="47.546715" lon="1.8489043">
        <ele>142.0</ele>
        <time>2021-11-25T08:00:53Z</time>
      </trkpt>
      <trkpt lat="47.546722" lon="1.8488902">
        <ele>141.0</ele>
        <time>2021-11-25T08:00:54Z</time>
      </trkpt>
      <trkpt lat="47.54673" lon="1.848881">
        <ele>141.0</ele>
        <time>2021-11-25T08:00:55Z</time>
      </trkpt>
      <trkpt lat="47.546738" lon="1.8488694">
        <ele>141.0</ele>
        <time>2021-11-25T08:00:56Z</time>
      </trkpt>
      <trkpt lat="47.54674" lon="1.8488629">
        <ele>141.0</ele>
        <time>2021-11-25T08:00:57Z</time>
      </trkpt>
      <trkpt lat="47.54675" lon="1.8488563">
        <ele>141.0</ele>
        <time>2021-11-25T08:00:58Z</time>
      </trkpt>
      <trkpt lat="47.546757" lon="1.8488454">
        <ele>141.0</ele>
        <time>2021-11-25T08:00:59Z</time>
      </trkpt>
      <trkpt lat="47.54676" lon="1.8488363">
        <ele>141.0</ele>
        <time>2021-11-25T08:01:00Z</time>
      </trkpt>
      <trkpt lat="47.54677" lon="1.8488282">
        <ele>142.0</ele>
        <time>2021-11-25T08:01:01Z</time>
      </trkpt>
      <trkpt lat="47.546772" lon="1.8488201">
        <ele>142.0</ele>
        <time>2021-11-25T08:01:02Z</time>
      </trkpt>
      <trkpt lat="47.546776" lon="1.8488061">
        <ele>142.0</ele>
        <time>2021-11-25T08:01:03Z</time>
      </trkpt>
      <trkpt lat="47.54678" lon="1.8487997">
        <ele>142.0</ele>
        <time>2021-11-25T08:01:04Z</time>
      </trkpt>
      <trkpt lat="47.546787" lon="1.8487843">
        <ele>141.0</ele>
        <time>2021-11-25T08:01:05Z</time>
      </trkpt>
      <trkpt lat="47.546795" lon="1.848772">
        <ele>141.0</ele>
        <time>2021-11-25T08:01:06Z</time>
      </trkpt>
      <trkpt lat="47.5468" lon="1.8487608">
        <ele>141.0</ele>
        <time>2021-11-25T08:01:07Z</time>
      </trkpt>
      <trkpt lat="47.546803" lon="1.848752">
        <ele>142.0</ele>
        <time>2021-11-25T08:01:08Z</time>
      </trkpt>
      <trkpt lat="47.54681" lon="1.8487434">
        <ele>142.0</ele>
        <time>2021-11-25T08:01:09Z</time>
      </trkpt>
      <trkpt lat="47.546818" lon="1.8487238">
        <ele>142.0</ele>
        <time>2021-11-25T08:01:10Z</time>
      </trkpt>
      <trkpt lat="47.546825" lon="1.848707">
        <ele>142.0</ele>
        <time>2021-11-25T08:01:11Z</time>
      </trkpt>
      <trkpt lat="47.54683" lon="1.8486853">
        <ele>142.0</ele>
        <time>2021-11-25T08:01:12Z</time>
      </trkpt>
      <trkpt lat="47.546837" lon="1.848666">
        <ele>141.0</ele>
        <time>2021-11-25T08:01:13Z</time>
      </trkpt>
      <trkpt lat="47.546844" lon="1.8486478">
        <ele>141.0</ele>
        <time>2021-11-25T08:01:14Z</time>
      </trkpt>
      <trkpt lat="47.546856" lon="1.848632">
        <ele>141.0</ele>
        <time>2021-11-25T08:01:15Z</time>
      </trkpt>
      <trkpt lat="47.546864" lon="1.8486232">
        <ele>142.0</ele>
        <time>2021-11-25T08:01:16Z</time>
      </trkpt>
      <trkpt lat="47.54687" lon="1.8486141">
        <ele>141.0</ele>
        <time>2021-11-25T08:01:17Z</time>
      </trkpt>
      <trkpt lat="47.54688" lon="1.8486013">
        <ele>142.0</ele>
        <time>2021-11-25T08:01:18Z</time>
      </trkpt>
      <trkpt lat="47.546883" lon="1.8485874">
        <ele>141.0</ele>
        <time>2021-11-25T08:01:19Z</time>
      </trkpt>
      <trkpt lat="47.54689" lon="1.8485761">
        <ele>141.0</ele>
        <time>2021-11-25T08:01:20Z</time>
      </trkpt>
      <trkpt lat="47.546898" lon="1.8485619">
        <ele>141.0</ele>
        <time>2021-11-25T08:01:21Z</time>
      </trkpt>
      <trkpt lat="47.5469" lon="1.8485478">
        <ele>141.0</ele>
        <time>2021-11-25T08:01:22Z</time>
      </trkpt>
      <trkpt lat="47.546906" lon="1.8485405">
        <ele>141.0</ele>
        <time>2021-11-25T08:01:23Z</time>
      </trkpt>
      <trkpt lat="47.546913" lon="1.8485264">
        <ele>141.0</ele>
        <time>2021-11-25T08:01:24Z</time>
      </trkpt>
      <trkpt lat="47.546917" lon="1.8485115">
        <ele>141.0</ele>
        <time>2021-11-25T08:01:25Z</time>
      </trkpt>
      <trkpt lat="47.546925" lon="1.848499">
        <ele>141.0</ele>
        <time>2021-11-25T08:01:26Z</time>
      </trkpt>
      <trkpt lat="47.546932" lon="1.8484905">
        <ele>141.0</ele>
        <time>2021-11-25T08:01:27Z</time>
      </trkpt>
      <trkpt lat="47.54694" lon="1.8484755">
        <ele>140.0</ele>
        <time>2021-11-25T08:01:28Z</time>
      </trkpt>
      <trkpt lat="47.546947" lon="1.8484578">
        <ele>140.0</ele>
        <time>2021-11-25T08:01:29Z</time>
      </trkpt>
      <trkpt lat="47.54695" lon="1.8484426">
        <ele>140.0</ele>
        <time>2021-11-25T08:01:30Z</time>
      </trkpt>
      <trkpt lat="47.546955" lon="1.8484224">
        <ele>140.0</ele>
        <time>2021-11-25T08:01:31Z</time>
      </trkpt>
      <trkpt lat="47.54696" lon="1.848403">
        <ele>140.0</ele>
        <time>2021-11-25T08:01:32Z</time>
      </trkpt>
      <trkpt lat="47.546963" lon="1.8483906">
        <ele>140.0</ele>
        <time>2021-11-25T08:01:33Z</time>
      </trkpt>
      <trkpt lat="47.54697" lon="1.8483804">
        <ele>140.0</ele>
        <time>2021-11-25T08:01:34Z</time>
      </trkpt>
      <trkpt lat="47.546974" lon="1.848365">
        <ele>141.0</ele>
        <time>2021-11-25T08:01:35Z</time>
      </trkpt>
      <trkpt lat="47.546978" lon="1.8483477">
        <ele>141.0</ele>
        <time>2021-11-25T08:01:36Z</time>
      </trkpt>
      <trkpt lat="47.54698" lon="1.8483319">
        <ele>141.0</ele>
        <time>2021-11-25T08:01:37Z</time>
      </trkpt>
      <trkpt lat="47.546986" lon="1.8483212">
        <ele>140.0</ele>
        <time>2021-11-25T08:01:38Z</time>
      </trkpt>
      <trkpt lat="47.546993" lon="1.8483092">
        <ele>140.0</ele>
        <time>2021-11-25T08:01:39Z</time>
      </trkpt>
      <trkpt lat="47.546997" lon="1.8482957">
        <ele>140.0</ele>
        <time>2021-11-25T08:01:40Z</time>
      </trkpt>
      <trkpt lat="47.547" lon="1.8482796">
        <ele>140.0</ele>
        <time>2021-11-25T08:01:41Z</time>
      </trkpt>
      <trkpt lat="47.54701" lon="1.8482653">
        <ele>140.0</ele>
        <time>2021-11-25T08:01:42Z</time>
      </trkpt>
      <trkpt lat="47.547012" lon="1.8482443">
        <ele>140.0</ele>
        <time>2021-11-25T08:01:43Z</time>
      </trkpt>
      <trkpt lat="47.547016" lon="1.8482242">
        <ele>140.0</ele>
        <time>2021-11-25T08:01:44Z</time>
      </trkpt>
      <trkpt lat="47.547024" lon="1.8482064">
        <ele>139.0</ele>
        <time>2021-11-25T08:01:45Z</time>
      </trkpt>
      <trkpt lat="47.547028" lon="1.8481946">
        <ele>139.0</ele>
        <time>2021-11-25T08:01:46Z</time>
      </trkpt>
      <trkpt lat="47.547028" lon="1.8481748">
        <ele>139.0</ele>
        <time>2021-11-25T08:01:47Z</time>
      </trkpt>
      <trkpt lat="47.547035" lon="1.8481594">
        <ele>140.0</ele>
        <time>2021-11-25T08:01:48Z</time>
      </trkpt>
      <trkpt lat="47.54704" lon="1.8481472">
        <ele>140.0</ele>
        <time>2021-11-25T08:01:49Z</time>
      </trkpt>
      <trkpt lat="47.547043" lon="1.8481274">
        <ele>140.0</ele>
        <time>2021-11-25T08:01:50Z</time>
      </trkpt>
      <trkpt lat="47.54705" lon="1.8481125">
        <ele>140.0</ele>
        <time>2021-11-25T08:01:51Z</time>
      </trkpt>
      <trkpt lat="47.547054" lon="1.8480916">
        <ele>140.0</ele>
        <time>2021-11-25T08:01:52Z</time>
      </trkpt>
      <trkpt lat="47.54706" lon="1.8480699">
        <ele>140.0</ele>
        <time>2021-11-25T08:01:53Z</time>
      </trkpt>
      <trkpt lat="47.547062" lon="1.8480489">
        <ele>140.0</ele>
        <time>2021-11-25T08:01:54Z</time>
      </trkpt>
      <trkpt lat="47.547066" lon="1.8480282">
        <ele>140.0</ele>
        <time>2021-11-25T08:01:55Z</time>
      </trkpt>
      <trkpt lat="47.54707" lon="1.8480066">
        <ele>140.0</ele>
        <time>2021-11-25T08:01:56Z</time>
      </trkpt>
      <trkpt lat="47.547073" lon="1.8479879">
        <ele>139.0</ele>
        <time>2021-11-25T08:01:57Z</time>
      </trkpt>
      <trkpt lat="47.547073" lon="1.8479735">
        <ele>140.0</ele>
        <time>2021-11-25T08:01:58Z</time>
      </trkpt>
      <trkpt lat="47.547073" lon="1.847952">
        <ele>139.0</ele>
        <time>2021-11-25T08:01:59Z</time>
      </trkpt>
      <trkpt lat="47.547077" lon="1.8479352">
        <ele>140.0</ele>
        <time>2021-11-25T08:02:00Z</time>
      </trkpt>
      <trkpt lat="47.54708" lon="1.847914">
        <ele>140.0</ele>
        <time>2021-11-25T08:02:01Z</time>
      </trkpt>
      <trkpt lat="47.54709" lon="1.8479004">
        <ele>140.0</ele>
        <time>2021-11-25T08:02:02Z</time>
      </trkpt>
      <trkpt lat="47.547092" lon="1.8478818">
        <ele>140.0</ele>
        <time>2021-11-25T08:02:03Z</time>
      </trkpt>
      <trkpt lat="47.547096" lon="1.8478632">
        <ele>140.0</ele>
        <time>2021-11-25T08:02:04Z</time>
      </trkpt>
      <trkpt lat="47.547096" lon="1.8478438">
        <ele>140.0</ele>
        <time>2021-11-25T08:02:05Z</time>
      </trkpt>
      <trkpt lat="47.547092" lon="1.8478225">
        <ele>139.0</ele>
        <time>2021-11-25T08:02:06Z</time>
      </trkpt>
      <trkpt lat="47.547096" lon="1.8477957">
        <ele>139.0</ele>
        <time>2021-11-25T08:02:07Z</time>
      </trkpt>
      <trkpt lat="47.5471" lon="1.847762">
        <ele>139.0</ele>
        <time>2021-11-25T08:02:08Z</time>
      </trkpt>
      <trkpt lat="47.547104" lon="1.8477384">
        <ele>139.0</ele>
        <time>2021-11-25T08:02:09Z</time>
      </trkpt>
      <trkpt lat="47.547108" lon="1.8477178">
        <ele>139.0</ele>
        <time>2021-11-25T08:02:10Z</time>
      </trkpt>
      <trkpt lat="47.547108" lon="1.847698">
        <ele>140.0</ele>
        <time>2021-11-25T08:02:11Z</time>
      </trkpt>
      <trkpt lat="47.54711" lon="1.8476793">
        <ele>140.0</ele>
        <time>2021-11-25T08:02:12Z</time>
      </trkpt>
      <trkpt lat="47.547108" lon="1.8476626">
        <ele>140.0</ele>
        <time>2021-11-25T08:02:13Z</time>
      </trkpt>
      <trkpt lat="47.54711" lon="1.8476421">
        <ele>140.0</ele>
        <time>2021-11-25T08:02:14Z</time>
      </trkpt>
      <trkpt lat="47.54711" lon="1.847618">
        <ele>141.0</ele>
        <time>2021-11-25T08:02:15Z</time>
      </trkpt>
      <trkpt lat="47.54711" lon="1.8475966">
        <ele>141.0</ele>
        <time>2021-11-25T08:02:16Z</time>
      </trkpt>
      <trkpt lat="47.547115" lon="1.8475735">
        <ele>141.0</ele>
        <time>2021-11-25T08:02:17Z</time>
      </trkpt>
      <trkpt lat="47.547115" lon="1.8475517">
        <ele>141.0</ele>
        <time>2021-11-25T08:02:18Z</time>
      </trkpt>
      <trkpt lat="47.54712" lon="1.8475266">
        <ele>141.0</ele>
        <time>2021-11-25T08:02:19Z</time>
      </trkpt>
      <trkpt lat="47.54712" lon="1.847503">
        <ele>141.0</ele>
        <time>2021-11-25T08:02:20Z</time>
      </trkpt>
      <trkpt lat="47.547115" lon="1.8474796">
        <ele>141.0</ele>
        <time>2021-11-25T08:02:21Z</time>
      </trkpt>
      <trkpt lat="47.547115" lon="1.8474576">
        <ele>142.0</ele>
        <time>2021-11-25T08:02:22Z</time>
      </trkpt>
      <trkpt lat="47.547115" lon="1.8474393">
        <ele>142.0</ele>
        <time>2021-11-25T08:02:23Z</time>
      </trkpt>
      <trkpt lat="47.547115" lon="1.8474222">
        <ele>141.0</ele>
        <time>2021-11-25T08:02:24Z</time>
      </trkpt>
      <trkpt lat="47.547115" lon="1.847404">
        <ele>141.0</ele>
        <time>2021-11-25T08:02:25Z</time>
      </trkpt>
      <trkpt lat="47.54712" lon="1.8473815">
        <ele>142.0</ele>
        <time>2021-11-25T08:02:26Z</time>
      </trkpt>
      <trkpt lat="47.547123" lon="1.8473613">
        <ele>142.0</ele>
        <time>2021-11-25T08:02:27Z</time>
      </trkpt>
      <trkpt lat="47.547127" lon="1.8473413">
        <ele>142.0</ele>
        <time>2021-11-25T08:02:28Z</time>
      </trkpt>
      <trkpt lat="47.54713" lon="1.8473191">
        <ele>142.0</ele>
        <time>2021-11-25T08:02:29Z</time>
      </trkpt>
      <trkpt lat="47.547134" lon="1.8472992">
        <ele>142.0</ele>
        <time>2021-11-25T08:02:30Z</time>
      </trkpt>
      <trkpt lat="47.547134" lon="1.8472798">
        <ele>142.0</ele>
        <time>2021-11-25T08:02:31Z</time>
      </trkpt>
      <trkpt lat="47.547134" lon="1.8472596">
        <ele>142.0</ele>
        <time>2021-11-25T08:02:32Z</time>
      </trkpt>
      <trkpt lat="47.547134" lon="1.8472391">
        <ele>143.0</ele>
        <time>2021-11-25T08:02:33Z</time>
      </trkpt>
      <trkpt lat="47.54714" lon="1.8472198">
        <ele>143.0</ele>
        <time>2021-11-25T08:02:34Z</time>
      </trkpt>
      <trkpt lat="47.547142" lon="1.8471986">
        <ele>143.0</ele>
        <time>2021-11-25T08:02:35Z</time>
      </trkpt>
      <trkpt lat="47.547146" lon="1.847174">
        <ele>143.0</ele>
        <time>2021-11-25T08:02:36Z</time>
      </trkpt>
      <trkpt lat="47.54715" lon="1.84715">
        <ele>144.0</ele>
        <time>2021-11-25T08:02:37Z</time>
      </trkpt>
      <trkpt lat="47.547153" lon="1.8471287">
        <ele>144.0</ele>
        <time>2021-11-25T08:02:38Z</time>
      </trkpt>
      <trkpt lat="47.547153" lon="1.8471135">
        <ele>144.0</ele>
        <time>2021-11-25T08:02:39Z</time>
      </trkpt>
      <trkpt lat="47.547157" lon="1.8470936">
        <ele>145.0</ele>
        <time>2021-11-25T08:02:40Z</time>
      </trkpt>
      <trkpt lat="47.54716" lon="1.8470769">
        <ele>145.0</ele>
        <time>2021-11-25T08:02:41Z</time>
      </trkpt>
      <trkpt lat="47.54717" lon="1.8470578">
        <ele>145.0</ele>
        <time>2021-11-25T08:02:42Z</time>
      </trkpt>
      <trkpt lat="47.547173" lon="1.847046">
        <ele>145.0</ele>
        <time>2021-11-25T08:02:43Z</time>
      </trkpt>
      <trkpt lat="47.547176" lon="1.8470294">
        <ele>145.0</ele>
        <time>2021-11-25T08:02:44Z</time>
      </trkpt>
      <trkpt lat="47.547184" lon="1.8470094">
        <ele>144.0</ele>
        <time>2021-11-25T08:02:45Z</time>
      </trkpt>
      <trkpt lat="47.54719" lon="1.8469956">
        <ele>145.0</ele>
        <time>2021-11-25T08:02:46Z</time>
      </trkpt>
      <trkpt lat="47.54719" lon="1.8469825">
        <ele>144.0</ele>
        <time>2021-11-25T08:02:47Z</time>
      </trkpt>
      <trkpt lat="47.54719" lon="1.8469628">
        <ele>144.0</ele>
        <time>2021-11-25T08:02:48Z</time>
      </trkpt>
      <trkpt lat="47.547188" lon="1.8469446">
        <ele>144.0</ele>
        <time>2021-11-25T08:02:49Z</time>
      </trkpt>
      <trkpt lat="47.547188" lon="1.8469288">
        <ele>144.0</ele>
        <time>2021-11-25T08:02:50Z</time>
      </trkpt>
      <trkpt lat="47.547188" lon="1.8469094">
        <ele>144.0</ele>
        <time>2021-11-25T08:02:51Z</time>
      </trkpt>
      <trkpt lat="47.547188" lon="1.8468882">
        <ele>143.0</ele>
        <time>2021-11-25T08:02:52Z</time>
      </trkpt>
      <trkpt lat="47.547188" lon="1.8468738">
        <ele>143.0</ele>
        <time>2021-11-25T08:02:53Z</time>
      </trkpt>
      <trkpt lat="47.547188" lon="1.8468552">
        <ele>143.0</ele>
        <time>2021-11-25T08:02:54Z</time>
      </trkpt>
      <trkpt lat="47.547188" lon="1.846836">
        <ele>142.0</ele>
        <time>2021-11-25T08:02:55Z</time>
      </trkpt>
      <trkpt lat="47.547188" lon="1.8468153">
        <ele>142.0</ele>
        <time>2021-11-25T08:02:56Z</time>
      </trkpt>
      <trkpt lat="47.54719" lon="1.8467965">
        <ele>142.0</ele>
        <time>2021-11-25T08:02:57Z</time>
      </trkpt>
      <trkpt lat="47.547195" lon="1.8467783">
        <ele>142.0</ele>
        <time>2021-11-25T08:02:58Z</time>
      </trkpt>
      <trkpt lat="47.547203" lon="1.8467598">
        <ele>142.0</ele>
        <time>2021-11-25T08:02:59Z</time>
      </trkpt>
      <trkpt lat="47.547207" lon="1.8467474">
        <ele>142.0</ele>
        <time>2021-11-25T08:03:00Z</time>
      </trkpt>
      <trkpt lat="47.54721" lon="1.846732">
        <ele>142.0</ele>
        <time>2021-11-25T08:03:01Z</time>
      </trkpt>
      <trkpt lat="47.54722" lon="1.8467149">
        <ele>142.0</ele>
        <time>2021-11-25T08:03:02Z</time>
      </trkpt>
      <trkpt lat="47.54722" lon="1.8466979">
        <ele>142.0</ele>
        <time>2021-11-25T08:03:03Z</time>
      </trkpt>
      <trkpt lat="47.547222" lon="1.8466825">
        <ele>142.0</ele>
        <time>2021-11-25T08:03:04Z</time>
      </trkpt>
      <trkpt lat="47.547222" lon="1.8466666">
        <ele>141.0</ele>
        <time>2021-11-25T08:03:05Z</time>
      </trkpt>
      <trkpt lat="47.547226" lon="1.8466506">
        <ele>141.0</ele>
        <time>2021-11-25T08:03:06Z</time>
      </trkpt>
      <trkpt lat="47.547222" lon="1.8466327">
        <ele>141.0</ele>
        <time>2021-11-25T08:03:07Z</time>
      </trkpt>
      <trkpt lat="47.54723" lon="1.84662">
        <ele>141.0</ele>
        <time>2021-11-25T08:03:08Z</time>
      </trkpt>
      <trkpt lat="47.54723" lon="1.8465996">
        <ele>140.0</ele>
        <time>2021-11-25T08:03:09Z</time>
      </trkpt>
      <trkpt lat="47.54723" lon="1.8465835">
        <ele>141.0</ele>
        <time>2021-11-25T08:03:10Z</time>
      </trkpt>
      <trkpt lat="47.54723" lon="1.8465636">
        <ele>141.0</ele>
        <time>2021-11-25T08:03:11Z</time>
      </trkpt>
      <trkpt lat="47.54723" lon="1.8465449">
        <ele>141.0</ele>
        <time>2021-11-25T08:03:12Z</time>
      </trkpt>
      <trkpt lat="47.54723" lon="1.8465232">
        <ele>141.0</ele>
        <time>2021-11-25T08:03:13Z</time>
      </trkpt>
      <trkpt lat="47.54723" lon="1.846504">
        <ele>140.0</ele>
        <time>2021-11-25T08:03:14Z</time>
      </trkpt>
      <trkpt lat="47.547234" lon="1.8464894">
        <ele>141.0</ele>
        <time>2021-11-25T08:03:15Z</time>
      </trkpt>
      <trkpt lat="47.547237" lon="1.8464712">
        <ele>140.0</ele>
        <time>2021-11-25T08:03:16Z</time>
      </trkpt>
      <trkpt lat="47.54724" lon="1.8464478">
        <ele>140.0</ele>
        <time>2021-11-25T08:03:17Z</time>
      </trkpt>
      <trkpt lat="47.54725" lon="1.8464248">
        <ele>140.0</ele>
        <time>2021-11-25T08:03:18Z</time>
      </trkpt>
      <trkpt lat="47.547253" lon="1.8464026">
        <ele>139.0</ele>
        <time>2021-11-25T08:03:19Z</time>
      </trkpt>
      <trkpt lat="47.547256" lon="1.8463799">
        <ele>140.0</ele>
        <time>2021-11-25T08:03:20Z</time>
      </trkpt>
      <trkpt lat="47.54726" lon="1.8463572">
        <ele>140.0</ele>
        <time>2021-11-25T08:03:21Z</time>
      </trkpt>
      <trkpt lat="47.547264" lon="1.8463397">
        <ele>140.0</ele>
        <time>2021-11-25T08:03:22Z</time>
      </trkpt>
      <trkpt lat="47.547268" lon="1.8463205">
        <ele>140.0</ele>
        <time>2021-11-25T08:03:23Z</time>
      </trkpt>
      <trkpt lat="47.547268" lon="1.8462958">
        <ele>139.0</ele>
        <time>2021-11-25T08:03:24Z</time>
      </trkpt>
      <trkpt lat="47.547268" lon="1.8462777">
        <ele>139.0</ele>
        <time>2021-11-25T08:03:25Z</time>
      </trkpt>
      <trkpt lat="47.547268" lon="1.8462597">
        <ele>139.0</ele>
        <time>2021-11-25T08:03:26Z</time>
      </trkpt>
      <trkpt lat="47.547268" lon="1.8462404">
        <ele>139.0</ele>
        <time>2021-11-25T08:03:27Z</time>
      </trkpt>
      <trkpt lat="47.54727" lon="1.846223">
        <ele>139.0</ele>
        <time>2021-11-25T08:03:28Z</time>
      </trkpt>
      <trkpt lat="47.54727" lon="1.8462027">
        <ele>139.0</ele>
        <time>2021-11-25T08:03:29Z</time>
      </trkpt>
      <trkpt lat="47.54727" lon="1.8461863">
        <ele>139.0</ele>
        <time>2021-11-25T08:03:30Z</time>
      </trkpt>
      <trkpt lat="47.54727" lon="1.8461666">
        <ele>139.0</ele>
        <time>2021-11-25T08:03:31Z</time>
      </trkpt>
      <trkpt lat="47.54727" lon="1.8461462">
        <ele>139.0</ele>
        <time>2021-11-25T08:03:32Z</time>
      </trkpt>
      <trkpt lat="47.547276" lon="1.8461279">
        <ele>139.0</ele>
        <time>2021-11-25T08:03:33Z</time>
      </trkpt>
      <trkpt lat="47.547276" lon="1.8461084">
        <ele>139.0</ele>
        <time>2021-11-25T08:03:34Z</time>
      </trkpt>
      <trkpt lat="47.547276" lon="1.8460926">
        <ele>140.0</ele>
        <time>2021-11-25T08:03:35Z</time>
      </trkpt>
      <trkpt lat="47.547276" lon="1.846074">
        <ele>140.0</ele>
        <time>2021-11-25T08:03:36Z</time>
      </trkpt>
      <trkpt lat="47.547276" lon="1.8460534">
        <ele>140.0</ele>
        <time>2021-11-25T08:03:37Z</time>
      </trkpt>
      <trkpt lat="47.547276" lon="1.8460332">
        <ele>140.0</ele>
        <time>2021-11-25T08:03:38Z</time>
      </trkpt>
      <trkpt lat="47.547276" lon="1.8460155">
        <ele>140.0</ele>
        <time>2021-11-25T08:03:39Z</time>
      </trkpt>
      <trkpt lat="47.54728" lon="1.8459957">
        <ele>141.0</ele>
        <time>2021-11-25T08:03:40Z</time>
      </trkpt>
      <trkpt lat="47.54728" lon="1.8459789">
        <ele>141.0</ele>
        <time>2021-11-25T08:03:41Z</time>
      </trkpt>
      <trkpt lat="47.547283" lon="1.8459609">
        <ele>141.0</ele>
        <time>2021-11-25T08:03:42Z</time>
      </trkpt>
      <trkpt lat="47.547287" lon="1.8459394">
        <ele>141.0</ele>
        <time>2021-11-25T08:03:43Z</time>
      </trkpt>
      <trkpt lat="47.547287" lon="1.8459156">
        <ele>141.0</ele>
        <time>2021-11-25T08:03:44Z</time>
      </trkpt>
      <trkpt lat="47.547287" lon="1.8458989">
        <ele>140.0</ele>
        <time>2021-11-25T08:03:45Z</time>
      </trkpt>
      <trkpt lat="47.547283" lon="1.8458798">
        <ele>140.0</ele>
        <time>2021-11-25T08:03:46Z</time>
      </trkpt>
      <trkpt lat="47.547283" lon="1.8458607">
        <ele>140.0</ele>
        <time>2021-11-25T08:03:47Z</time>
      </trkpt>
      <trkpt lat="47.54728" lon="1.8458402">
        <ele>140.0</ele>
        <time>2021-11-25T08:03:48Z</time>
      </trkpt>
      <trkpt lat="47.54728" lon="1.8458256">
        <ele>140.0</ele>
        <time>2021-11-25T08:03:49Z</time>
      </trkpt>
      <trkpt lat="47.54728" lon="1.8458103">
        <ele>140.0</ele>
        <time>2021-11-25T08:03:50Z</time>
      </trkpt>
      <trkpt lat="47.547276" lon="1.8457893">
        <ele>140.0</ele>
        <time>2021-11-25T08:03:51Z</time>
      </trkpt>
      <trkpt lat="47.54727" lon="1.8457716">
        <ele>140.0</ele>
        <time>2021-11-25T08:03:52Z</time>
      </trkpt>
      <trkpt lat="47.547268" lon="1.8457552">
        <ele>140.0</ele>
        <time>2021-11-25T08:03:53Z</time>
      </trkpt>
      <trkpt lat="47.547268" lon="1.8457363">
        <ele>140.0</ele>
        <time>2021-11-25T08:03:54Z</time>
      </trkpt>
      <trkpt lat="47.547268" lon="1.8457171">
        <ele>141.0</ele>
        <time>2021-11-25T08:03:55Z</time>
      </trkpt>
      <trkpt lat="47.54726" lon="1.845697">
        <ele>141.0</ele>
        <time>2021-11-25T08:03:56Z</time>
      </trkpt>
      <trkpt lat="47.54726" lon="1.8456807">
        <ele>141.0</ele>
        <time>2021-11-25T08:03:57Z</time>
      </trkpt>
      <trkpt lat="47.547253" lon="1.8456643">
        <ele>141.0</ele>
        <time>2021-11-25T08:03:58Z</time>
      </trkpt>
      <trkpt lat="47.54725" lon="1.8456479">
        <ele>141.0</ele>
        <time>2021-11-25T08:03:59Z</time>
      </trkpt>
      <trkpt lat="47.547245" lon="1.8456279">
        <ele>141.0</ele>
        <time>2021-11-25T08:04:00Z</time>
      </trkpt>
      <trkpt lat="47.54724" lon="1.8456066">
        <ele>141.0</ele>
        <time>2021-11-25T08:04:01Z</time>
      </trkpt>
      <trkpt lat="47.547237" lon="1.8455869">
        <ele>141.0</ele>
        <time>2021-11-25T08:04:02Z</time>
      </trkpt>
      <trkpt lat="47.547234" lon="1.8455653">
        <ele>140.0</ele>
        <time>2021-11-25T08:04:03Z</time>
      </trkpt>
      <trkpt lat="47.547234" lon="1.8455474">
        <ele>140.0</ele>
        <time>2021-11-25T08:04:04Z</time>
      </trkpt>
      <trkpt lat="47.54723" lon="1.8455305">
        <ele>141.0</ele>
        <time>2021-11-25T08:04:05Z</time>
      </trkpt>
      <trkpt lat="47.54723" lon="1.8455107">
        <ele>141.0</ele>
        <time>2021-11-25T08:04:06Z</time>
      </trkpt>
      <trkpt lat="47.547226" lon="1.8454921">
        <ele>141.0</ele>
        <time>2021-11-25T08:04:07Z</time>
      </trkpt>
      <trkpt lat="47.54723" lon="1.8454725">
        <ele>141.0</ele>
        <time>2021-11-25T08:04:08Z</time>
      </trkpt>
      <trkpt lat="47.547226" lon="1.8454548">
        <ele>142.0</ele>
        <time>2021-11-25T08:04:09Z</time>
      </trkpt>
      <trkpt lat="47.547226" lon="1.845434">
        <ele>142.0</ele>
        <time>2021-11-25T08:04:10Z</time>
      </trkpt>
      <trkpt lat="47.547226" lon="1.8454121">
        <ele>142.0</ele>
        <time>2021-11-25T08:04:11Z</time>
      </trkpt>
      <trkpt lat="47.547226" lon="1.8453946">
        <ele>142.0</ele>
        <time>2021-11-25T08:04:12Z</time>
      </trkpt>
      <trkpt lat="47.547222" lon="1.8453766">
        <ele>142.0</ele>
        <time>2021-11-25T08:04:13Z</time>
      </trkpt>
      <trkpt lat="47.547222" lon="1.8453587">
        <ele>142.0</ele>
        <time>2021-11-25T08:04:14Z</time>
      </trkpt>
      <trkpt lat="47.547215" lon="1.8453406">
        <ele>143.0</ele>
        <time>2021-11-25T08:04:15Z</time>
      </trkpt>
      <trkpt lat="47.547215" lon="1.8453223">
        <ele>143.0</ele>
        <time>2021-11-25T08:04:16Z</time>
      </trkpt>
      <trkpt lat="47.54721" lon="1.8453044">
        <ele>143.0</ele>
        <time>2021-11-25T08:04:17Z</time>
      </trkpt>
      <trkpt lat="47.547207" lon="1.8452876">
        <ele>143.0</ele>
        <time>2021-11-25T08:04:18Z</time>
      </trkpt>
      <trkpt lat="47.547203" lon="1.8452687">
        <ele>143.0</ele>
        <time>2021-11-25T08:04:19Z</time>
      </trkpt>
      <trkpt lat="47.547203" lon="1.8452497">
        <ele>143.0</ele>
        <time>2021-11-25T08:04:20Z</time>
      </trkpt>
      <trkpt lat="47.5472" lon="1.8452305">
        <ele>144.0</ele>
        <time>2021-11-25T08:04:21Z</time>
      </trkpt>
      <trkpt lat="47.547195" lon="1.8452134">
        <ele>144.0</ele>
        <time>2021-11-25T08:04:22Z</time>
      </trkpt>
      <trkpt lat="47.54719" lon="1.8451992">
        <ele>144.0</ele>
        <time>2021-11-25T08:04:23Z</time>
      </trkpt>
      <trkpt lat="47.547188" lon="1.8451784">
        <ele>144.0</ele>
        <time>2021-11-25T08:04:24Z</time>
      </trkpt>
      <trkpt lat="47.547188" lon="1.8451598">
        <ele>144.0</ele>
        <time>2021-11-25T08:04:25Z</time>
      </trkpt>
      <trkpt lat="47.547188" lon="1.8451408">
        <ele>145.0</ele>
        <time>2021-11-25T08:04:26Z</time>
      </trkpt>
      <trkpt lat="47.547184" lon="1.845119">
        <ele>145.0</ele>
        <time>2021-11-25T08:04:27Z</time>
      </trkpt>
      <trkpt lat="47.547176" lon="1.8450997">
        <ele>145.0</ele>
        <time>2021-11-25T08:04:28Z</time>
      </trkpt>
      <trkpt lat="47.547176" lon="1.845081">
        <ele>146.0</ele>
        <time>2021-11-25T08:04:29Z</time>
      </trkpt>
      <trkpt lat="47.547173" lon="1.845068">
        <ele>146.0</ele>
        <time>2021-11-25T08:04:30Z</time>
      </trkpt>
      <trkpt lat="47.547173" lon="1.845058">
        <ele>147.0</ele>
        <time>2021-11-25T08:04:31Z</time>
      </trkpt>
      <trkpt lat="47.54717" lon="1.845047">
        <ele>147.0</ele>
        <time>2021-11-25T08:04:32Z</time>
      </trkpt>
      <trkpt lat="47.547165" lon="1.8450316">
        <ele>147.0</ele>
        <time>2021-11-25T08:04:33Z</time>
      </trkpt>
      <trkpt lat="47.54716" lon="1.8450149">
        <ele>147.0</ele>
        <time>2021-11-25T08:04:34Z</time>
      </trkpt>
      <trkpt lat="47.547157" lon="1.8450031">
        <ele>148.0</ele>
        <time>2021-11-25T08:04:35Z</time>
      </trkpt>
      <trkpt lat="47.547153" lon="1.8449895">
        <ele>147.0</ele>
        <time>2021-11-25T08:04:36Z</time>
      </trkpt>
      <trkpt lat="47.54715" lon="1.8449765">
        <ele>148.0</ele>
        <time>2021-11-25T08:04:37Z</time>
      </trkpt>
      <trkpt lat="47.547146" lon="1.8449622">
        <ele>148.0</ele>
        <time>2021-11-25T08:04:38Z</time>
      </trkpt>
      <trkpt lat="47.547146" lon="1.8449469">
        <ele>148.0</ele>
        <time>2021-11-25T08:04:39Z</time>
      </trkpt>
      <trkpt lat="47.54714" lon="1.8449279">
        <ele>148.0</ele>
        <time>2021-11-25T08:04:40Z</time>
      </trkpt>
      <trkpt lat="47.547134" lon="1.8449116">
        <ele>148.0</ele>
        <time>2021-11-25T08:04:41Z</time>
      </trkpt>
      <trkpt lat="47.54713" lon="1.8448955">
        <ele>148.0</ele>
        <time>2021-11-25T08:04:42Z</time>
      </trkpt>
      <trkpt lat="47.54713" lon="1.8448799">
        <ele>148.0</ele>
        <time>2021-11-25T08:04:43Z</time>
      </trkpt>
      <trkpt lat="47.547127" lon="1.8448608">
        <ele>148.0</ele>
        <time>2021-11-25T08:04:44Z</time>
      </trkpt>
      <trkpt lat="47.547123" lon="1.8448418">
        <ele>147.0</ele>
        <time>2021-11-25T08:04:45Z</time>
      </trkpt>
      <trkpt lat="47.54712" lon="1.8448278">
        <ele>147.0</ele>
        <time>2021-11-25T08:04:46Z</time>
      </trkpt>
      <trkpt lat="47.547115" lon="1.8448149">
        <ele>147.0</ele>
        <time>2021-11-25T08:04:47Z</time>
      </trkpt>
      <trkpt lat="47.547108" lon="1.8447963">
        <ele>146.0</ele>
        <time>2021-11-25T08:04:48Z</time>
      </trkpt>
      <trkpt lat="47.547096" lon="1.8447767">
        <ele>146.0</ele>
        <time>2021-11-25T08:04:49Z</time>
      </trkpt>
      <trkpt lat="47.547085" lon="1.8447611">
        <ele>145.0</ele>
        <time>2021-11-25T08:04:50Z</time>
      </trkpt>
      <trkpt lat="47.54708" lon="1.8447437">
        <ele>145.0</ele>
        <time>2021-11-25T08:04:51Z</time>
      </trkpt>
      <trkpt lat="47.547073" lon="1.8447267">
        <ele>145.0</ele>
        <time>2021-11-25T08:04:52Z</time>
      </trkpt>
      <trkpt lat="47.54707" lon="1.8447078">
        <ele>145.0</ele>
        <time>2021-11-25T08:04:53Z</time>
      </trkpt>
      <trkpt lat="47.547062" lon="1.8446883">
        <ele>144.0</ele>
        <time>2021-11-25T08:04:54Z</time>
      </trkpt>
      <trkpt lat="47.547054" lon="1.8446689">
        <ele>144.0</ele>
        <time>2021-11-25T08:04:55Z</time>
      </trkpt>
      <trkpt lat="47.547047" lon="1.8446522">
        <ele>144.0</ele>
        <time>2021-11-25T08:04:56Z</time>
      </trkpt>
      <trkpt lat="47.54704" lon="1.8446326">
        <ele>144.0</ele>
        <time>2021-11-25T08:04:57Z</time>
      </trkpt>
      <trkpt lat="47.547035" lon="1.8446138">
        <ele>144.0</ele>
        <time>2021-11-25T08:04:58Z</time>
      </trkpt>
      <trkpt lat="47.547028" lon="1.8445909">
        <ele>144.0</ele>
        <time>2021-11-25T08:04:59Z</time>
      </trkpt>
      <trkpt lat="47.547028" lon="1.844575">
        <ele>144.0</ele>
        <time>2021-11-25T08:05:00Z</time>
      </trkpt>
      <trkpt lat="47.547024" lon="1.8445598">
        <ele>144.0</ele>
        <time>2021-11-25T08:05:01Z</time>
      </trkpt>
      <trkpt lat="47.547024" lon="1.8445368">
        <ele>144.0</ele>
        <time>2021-11-25T08:05:02Z</time>
      </trkpt>
      <trkpt lat="47.54702" lon="1.8445153">
        <ele>144.0</ele>
        <time>2021-11-25T08:05:03Z</time>
      </trkpt>
      <trkpt lat="47.547016" lon="1.8445007">
        <ele>145.0</ele>
        <time>2021-11-25T08:05:04Z</time>
      </trkpt>
      <trkpt lat="47.547016" lon="1.844482">
        <ele>145.0</ele>
        <time>2021-11-25T08:05:05Z</time>
      </trkpt>
      <trkpt lat="47.547012" lon="1.8444648">
        <ele>145.0</ele>
        <time>2021-11-25T08:05:06Z</time>
      </trkpt>
      <trkpt lat="47.547012" lon="1.8444451">
        <ele>145.0</ele>
        <time>2021-11-25T08:05:07Z</time>
      </trkpt>
      <trkpt lat="47.54701" lon="1.8444256">
        <ele>145.0</ele>
        <time>2021-11-25T08:05:08Z</time>
      </trkpt>
      <trkpt lat="47.547005" lon="1.8444073">
        <ele>144.0</ele>
        <time>2021-11-25T08:05:09Z</time>
      </trkpt>
      <trkpt lat="47.547" lon="1.8443887">
        <ele>145.0</ele>
        <time>2021-11-25T08:05:10Z</time>
      </trkpt>
      <trkpt lat="47.547" lon="1.844372">
        <ele>145.0</ele>
        <time>2021-11-25T08:05:11Z</time>
      </trkpt>
      <trkpt lat="47.546997" lon="1.8443545">
        <ele>145.0</ele>
        <time>2021-11-25T08:05:12Z</time>
      </trkpt>
      <trkpt lat="47.546993" lon="1.844339">
        <ele>145.0</ele>
        <time>2021-11-25T08:05:13Z</time>
      </trkpt>
      <trkpt lat="47.54699" lon="1.8443209">
        <ele>145.0</ele>
        <time>2021-11-25T08:05:14Z</time>
      </trkpt>
      <trkpt lat="47.546986" lon="1.8443025">
        <ele>145.0</ele>
        <time>2021-11-25T08:05:15Z</time>
      </trkpt>
      <trkpt lat="47.546986" lon="1.8442845">
        <ele>146.0</ele>
        <time>2021-11-25T08:05:16Z</time>
      </trkpt>
      <trkpt lat="47.54698" lon="1.844269">
        <ele>146.0</ele>
        <time>2021-11-25T08:05:17Z</time>
      </trkpt>
      <trkpt lat="47.546978" lon="1.8442525">
        <ele>146.0</ele>
        <time>2021-11-25T08:05:18Z</time>
      </trkpt>
      <trkpt lat="47.546978" lon="1.8442339">
        <ele>146.0</ele>
        <time>2021-11-25T08:05:19Z</time>
      </trkpt>
      <trkpt lat="47.546974" lon="1.8442144">
        <ele>146.0</ele>
        <time>2021-11-25T08:05:20Z</time>
      </trkpt>
      <trkpt lat="47.54697" lon="1.8441956">
        <ele>146.0</ele>
        <time>2021-11-25T08:05:21Z</time>
      </trkpt>
      <trkpt lat="47.546967" lon="1.8441792">
        <ele>146.0</ele>
        <time>2021-11-25T08:05:22Z</time>
      </trkpt>
      <trkpt lat="47.54696" lon="1.8441651">
        <ele>146.0</ele>
        <time>2021-11-25T08:05:23Z</time>
      </trkpt>
      <trkpt lat="47.546955" lon="1.8441523">
        <ele>146.0</ele>
        <time>2021-11-25T08:05:24Z</time>
      </trkpt>
      <trkpt lat="47.54695" lon="1.8441352">
        <ele>146.0</ele>
        <time>2021-11-25T08:05:25Z</time>
      </trkpt>
      <trkpt lat="47.546944" lon="1.8441213">
        <ele>147.0</ele>
        <time>2021-11-25T08:05:26Z</time>
      </trkpt>
      <trkpt lat="47.54694" lon="1.844105">
        <ele>147.0</ele>
        <time>2021-11-25T08:05:27Z</time>
      </trkpt>
      <trkpt lat="47.546936" lon="1.8440882">
        <ele>147.0</ele>
        <time>2021-11-25T08:05:28Z</time>
      </trkpt>
      <trkpt lat="47.54693" lon="1.8440716">
        <ele>147.0</ele>
        <time>2021-11-25T08:05:29Z</time>
      </trkpt>
      <trkpt lat="47.546925" lon="1.8440558">
        <ele>148.0</ele>
        <time>2021-11-25T08:05:30Z</time>
      </trkpt>
      <trkpt lat="47.54692" lon="1.8440387">
        <ele>148.0</ele>
        <time>2021-11-25T08:05:31Z</time>
      </trkpt>
      <trkpt lat="47.546917" lon="1.8440217">
        <ele>148.0</ele>
        <time>2021-11-25T08:05:32Z</time>
      </trkpt>
      <trkpt lat="47.546913" lon="1.8440028">
        <ele>147.0</ele>
        <time>2021-11-25T08:05:33Z</time>
      </trkpt>
      <trkpt lat="47.546913" lon="1.8439786">
        <ele>147.0</ele>
        <time>2021-11-25T08:05:34Z</time>
      </trkpt>
      <trkpt lat="47.54691" lon="1.8439634">
        <ele>147.0</ele>
        <time>2021-11-25T08:05:35Z</time>
      </trkpt>
      <trkpt lat="47.54691" lon="1.8439451">
        <ele>147.0</ele>
        <time>2021-11-25T08:05:36Z</time>
      </trkpt>
      <trkpt lat="47.546906" lon="1.843927">
        <ele>147.0</ele>
        <time>2021-11-25T08:05:37Z</time>
      </trkpt>
      <trkpt lat="47.5469" lon="1.8439113">
        <ele>146.0</ele>
        <time>2021-11-25T08:05:38Z</time>
      </trkpt>
      <trkpt lat="47.546898" lon="1.8438953">
        <ele>147.0</ele>
        <time>2021-11-25T08:05:39Z</time>
      </trkpt>
      <trkpt lat="47.54689" lon="1.8438736">
        <ele>147.0</ele>
        <time>2021-11-25T08:05:40Z</time>
      </trkpt>
      <trkpt lat="47.546886" lon="1.8438573">
        <ele>147.0</ele>
        <time>2021-11-25T08:05:41Z</time>
      </trkpt>
      <trkpt lat="47.54688" lon="1.843841">
        <ele>147.0</ele>
        <time>2021-11-25T08:05:42Z</time>
      </trkpt>
      <trkpt lat="47.54688" lon="1.8438243">
        <ele>147.0</ele>
        <time>2021-11-25T08:05:43Z</time>
      </trkpt>
      <trkpt lat="47.546875" lon="1.8438065">
        <ele>147.0</ele>
        <time>2021-11-25T08:05:44Z</time>
      </trkpt>
      <trkpt lat="47.54687" lon="1.8437915">
        <ele>147.0</ele>
        <time>2021-11-25T08:05:45Z</time>
      </trkpt>
      <trkpt lat="47.546867" lon="1.843775">
        <ele>147.0</ele>
        <time>2021-11-25T08:05:46Z</time>
      </trkpt>
      <trkpt lat="47.54686" lon="1.8437604">
        <ele>147.0</ele>
        <time>2021-11-25T08:05:47Z</time>
      </trkpt>
      <trkpt lat="47.546856" lon="1.8437431">
        <ele>147.0</ele>
        <time>2021-11-25T08:05:48Z</time>
      </trkpt>
      <trkpt lat="47.54685" lon="1.8437246">
        <ele>148.0</ele>
        <time>2021-11-25T08:05:49Z</time>
      </trkpt>
      <trkpt lat="47.546844" lon="1.8437082">
        <ele>147.0</ele>
        <time>2021-11-25T08:05:50Z</time>
      </trkpt>
      <trkpt lat="47.546837" lon="1.8436905">
        <ele>147.0</ele>
        <time>2021-11-25T08:05:51Z</time>
      </trkpt>
      <trkpt lat="47.546833" lon="1.8436749">
        <ele>148.0</ele>
        <time>2021-11-25T08:05:52Z</time>
      </trkpt>
      <trkpt lat="47.546825" lon="1.843658">
        <ele>148.0</ele>
        <time>2021-11-25T08:05:53Z</time>
      </trkpt>
      <trkpt lat="47.54682" lon="1.8436435">
        <ele>148.0</ele>
        <time>2021-11-25T08:05:54Z</time>
      </trkpt>
      <trkpt lat="47.546814" lon="1.843627">
        <ele>148.0</ele>
        <time>2021-11-25T08:05:55Z</time>
      </trkpt>
      <trkpt lat="47.54681" lon="1.8436168">
        <ele>148.0</ele>
        <time>2021-11-25T08:05:56Z</time>
      </trkpt>
      <trkpt lat="47.546803" lon="1.8436064">
        <ele>148.0</ele>
        <time>2021-11-25T08:05:57Z</time>
      </trkpt>
      <trkpt lat="47.5468" lon="1.8435905">
        <ele>147.0</ele>
        <time>2021-11-25T08:05:58Z</time>
      </trkpt>
      <trkpt lat="47.546795" lon="1.843575">
        <ele>148.0</ele>
        <time>2021-11-25T08:05:59Z</time>
      </trkpt>
      <trkpt lat="47.546787" lon="1.8435565">
        <ele>148.0</ele>
        <time>2021-11-25T08:06:00Z</time>
      </trkpt>
      <trkpt lat="47.546783" lon="1.8435426">
        <ele>148.0</ele>
        <time>2021-11-25T08:06:01Z</time>
      </trkpt>
      <trkpt lat="47.54678" lon="1.843522">
        <ele>148.0</ele>
        <time>2021-11-25T08:06:02Z</time>
      </trkpt>
      <trkpt lat="47.546772" lon="1.8435073">
        <ele>148.0</ele>
        <time>2021-11-25T08:06:03Z</time>
      </trkpt>
      <trkpt lat="47.546772" lon="1.8434889">
        <ele>148.0</ele>
        <time>2021-11-25T08:06:04Z</time>
      </trkpt>
      <trkpt lat="47.546764" lon="1.8434683">
        <ele>148.0</ele>
        <time>2021-11-25T08:06:05Z</time>
      </trkpt>
      <trkpt lat="47.54676" lon="1.8434515">
        <ele>147.0</ele>
        <time>2021-11-25T08:06:06Z</time>
      </trkpt>
      <trkpt lat="47.546757" lon="1.8434337">
        <ele>148.0</ele>
        <time>2021-11-25T08:06:07Z</time>
      </trkpt>
      <trkpt lat="47.546753" lon="1.8434188">
        <ele>148.0</ele>
        <time>2021-11-25T08:06:08Z</time>
      </trkpt>
      <trkpt lat="47.54675" lon="1.8434017">
        <ele>148.0</ele>
        <time>2021-11-25T08:06:09Z</time>
      </trkpt>
      <trkpt lat="47.54674" lon="1.843387">
        <ele>148.0</ele>
        <time>2021-11-25T08:06:10Z</time>
      </trkpt>
      <trkpt lat="47.546738" lon="1.8433734">
        <ele>148.0</ele>
        <time>2021-11-25T08:06:11Z</time>
      </trkpt>
      <trkpt lat="47.546734" lon="1.8433592">
        <ele>148.0</ele>
        <time>2021-11-25T08:06:12Z</time>
      </trkpt>
      <trkpt lat="47.54673" lon="1.8433462">
        <ele>148.0</ele>
        <time>2021-11-25T08:06:13Z</time>
      </trkpt>
      <trkpt lat="47.546726" lon="1.8433273">
        <ele>148.0</ele>
        <time>2021-11-25T08:06:14Z</time>
      </trkpt>
      <trkpt lat="47.546722" lon="1.8433062">
        <ele>148.0</ele>
        <time>2021-11-25T08:06:15Z</time>
      </trkpt>
      <trkpt lat="47.54672" lon="1.8432853">
        <ele>147.0</ele>
        <time>2021-11-25T08:06:16Z</time>
      </trkpt>
      <trkpt lat="47.54671" lon="1.8432709">
        <ele>147.0</ele>
        <time>2021-11-25T08:06:17Z</time>
      </trkpt>
      <trkpt lat="47.546707" lon="1.8432554">
        <ele>147.0</ele>
        <time>2021-11-25T08:06:18Z</time>
      </trkpt>
      <trkpt lat="47.5467" lon="1.8432417">
        <ele>147.0</ele>
        <time>2021-11-25T08:06:19Z</time>
      </trkpt>
      <trkpt lat="47.546696" lon="1.8432295">
        <ele>148.0</ele>
        <time>2021-11-25T08:06:20Z</time>
      </trkpt>
      <trkpt lat="47.546688" lon="1.8432184">
        <ele>148.0</ele>
        <time>2021-11-25T08:06:21Z</time>
      </trkpt>
      <trkpt lat="47.546684" lon="1.8432024">
        <ele>148.0</ele>
        <time>2021-11-25T08:06:22Z</time>
      </trkpt>
      <trkpt lat="47.54668" lon="1.8431852">
        <ele>149.0</ele>
        <time>2021-11-25T08:06:23Z</time>
      </trkpt>
      <trkpt lat="47.546673" lon="1.8431702">
        <ele>149.0</ele>
        <time>2021-11-25T08:06:24Z</time>
      </trkpt>
      <trkpt lat="47.546665" lon="1.8431519">
        <ele>149.0</ele>
        <time>2021-11-25T08:06:25Z</time>
      </trkpt>
      <trkpt lat="47.546665" lon="1.8431363">
        <ele>149.0</ele>
        <time>2021-11-25T08:06:26Z</time>
      </trkpt>
      <trkpt lat="47.54666" lon="1.8431219">
        <ele>149.0</ele>
        <time>2021-11-25T08:06:27Z</time>
      </trkpt>
      <trkpt lat="47.546658" lon="1.8431054">
        <ele>149.0</ele>
        <time>2021-11-25T08:06:28Z</time>
      </trkpt>
      <trkpt lat="47.54665" lon="1.8430915">
        <ele>149.0</ele>
        <time>2021-11-25T08:06:29Z</time>
      </trkpt>
      <trkpt lat="47.546646" lon="1.8430755">
        <ele>149.0</ele>
        <time>2021-11-25T08:06:30Z</time>
      </trkpt>
      <trkpt lat="47.546642" lon="1.8430612">
        <ele>149.0</ele>
        <time>2021-11-25T08:06:31Z</time>
      </trkpt>
      <trkpt lat="47.54664" lon="1.843044">
        <ele>149.0</ele>
        <time>2021-11-25T08:06:32Z</time>
      </trkpt>
      <trkpt lat="47.54663" lon="1.8430253">
        <ele>150.0</ele>
        <time>2021-11-25T08:06:33Z</time>
      </trkpt>
      <trkpt lat="47.546623" lon="1.8430066">
        <ele>150.0</ele>
        <time>2021-11-25T08:06:34Z</time>
      </trkpt>
      <trkpt lat="47.54662" lon="1.842992">
        <ele>150.0</ele>
        <time>2021-11-25T08:06:35Z</time>
      </trkpt>
      <trkpt lat="47.546616" lon="1.8429773">
        <ele>151.0</ele>
        <time>2021-11-25T08:06:36Z</time>
      </trkpt>
      <trkpt lat="47.546608" lon="1.8429621">
        <ele>151.0</ele>
        <time>2021-11-25T08:06:37Z</time>
      </trkpt>
      <trkpt lat="47.546604" lon="1.8429451">
        <ele>151.0</ele>
        <time>2021-11-25T08:06:38Z</time>
      </trkpt>
      <trkpt lat="47.546593" lon="1.8429259">
        <ele>152.0</ele>
        <time>2021-11-25T08:06:39Z</time>
      </trkpt>
      <trkpt lat="47.54659" lon="1.8429075">
        <ele>152.0</ele>
        <time>2021-11-25T08:06:40Z</time>
      </trkpt>
      <trkpt lat="47.54658" lon="1.8428884">
        <ele>152.0</ele>
        <time>2021-11-25T08:06:41Z</time>
      </trkpt>
      <trkpt lat="47.54657" lon="1.8428677">
        <ele>152.0</ele>
        <time>2021-11-25T08:06:42Z</time>
      </trkpt>
      <trkpt lat="47.546566" lon="1.8428475">
        <ele>152.0</ele>
        <time>2021-11-25T08:06:43Z</time>
      </trkpt>
      <trkpt lat="47.546562" lon="1.8428298">
        <ele>152.0</ele>
        <time>2021-11-25T08:06:44Z</time>
      </trkpt>
      <trkpt lat="47.54656" lon="1.8428103">
        <ele>151.0</ele>
        <time>2021-11-25T08:06:45Z</time>
      </trkpt>
      <trkpt lat="47.546555" lon="1.8427943">
        <ele>151.0</ele>
        <time>2021-11-25T08:06:46Z</time>
      </trkpt>
      <trkpt lat="47.54655" lon="1.8427827">
        <ele>151.0</ele>
        <time>2021-11-25T08:06:47Z</time>
      </trkpt>
      <trkpt lat="47.546543" lon="1.8427683">
        <ele>151.0</ele>
        <time>2021-11-25T08:06:48Z</time>
      </trkpt>
      <trkpt lat="47.54654" lon="1.842758">
        <ele>151.0</ele>
        <time>2021-11-25T08:06:49Z</time>
      </trkpt>
      <trkpt lat="47.546535" lon="1.8427441">
        <ele>151.0</ele>
        <time>2021-11-25T08:06:50Z</time>
      </trkpt>
      <trkpt lat="47.546535" lon="1.8427267">
        <ele>151.0</ele>
        <time>2021-11-25T08:06:51Z</time>
      </trkpt>
      <trkpt lat="47.546528" lon="1.8427128">
        <ele>151.0</ele>
        <time>2021-11-25T08:06:52Z</time>
      </trkpt>
      <trkpt lat="47.54652" lon="1.842697">
        <ele>151.0</ele>
        <time>2021-11-25T08:06:53Z</time>
      </trkpt>
      <trkpt lat="47.546516" lon="1.8426831">
        <ele>151.0</ele>
        <time>2021-11-25T08:06:54Z</time>
      </trkpt>
      <trkpt lat="47.54651" lon="1.8426692">
        <ele>150.0</ele>
        <time>2021-11-25T08:06:55Z</time>
      </trkpt>
      <trkpt lat="47.546505" lon="1.8426538">
        <ele>151.0</ele>
        <time>2021-11-25T08:06:56Z</time>
      </trkpt>
      <trkpt lat="47.546497" lon="1.8426393">
        <ele>151.0</ele>
        <time>2021-11-25T08:06:57Z</time>
      </trkpt>
      <trkpt lat="47.54649" lon="1.8426245">
        <ele>151.0</ele>
        <time>2021-11-25T08:06:58Z</time>
      </trkpt>
      <trkpt lat="47.546486" lon="1.8426076">
        <ele>151.0</ele>
        <time>2021-11-25T08:06:59Z</time>
      </trkpt>
      <trkpt lat="47.546482" lon="1.8425908">
        <ele>151.0</ele>
        <time>2021-11-25T08:07:00Z</time>
      </trkpt>
      <trkpt lat="47.54648" lon="1.8425739">
        <ele>151.0</ele>
        <time>2021-11-25T08:07:01Z</time>
      </trkpt>
      <trkpt lat="47.546474" lon="1.8425597">
        <ele>151.0</ele>
        <time>2021-11-25T08:07:02Z</time>
      </trkpt>
      <trkpt lat="47.54647" lon="1.8425442">
        <ele>151.0</ele>
        <time>2021-11-25T08:07:03Z</time>
      </trkpt>
      <trkpt lat="47.546467" lon="1.8425287">
        <ele>151.0</ele>
        <time>2021-11-25T08:07:04Z</time>
      </trkpt>
      <trkpt lat="47.54646" lon="1.8425194">
        <ele>152.0</ele>
        <time>2021-11-25T08:07:05Z</time>
      </trkpt>
      <trkpt lat="47.546448" lon="1.8425052">
        <ele>152.0</ele>
        <time>2021-11-25T08:07:06Z</time>
      </trkpt>
      <trkpt lat="47.546444" lon="1.8424914">
        <ele>152.0</ele>
        <time>2021-11-25T08:07:07Z</time>
      </trkpt>
      <trkpt lat="47.54644" lon="1.8424844">
        <ele>151.0</ele>
        <time>2021-11-25T08:07:08Z</time>
      </trkpt>
      <trkpt lat="47.546432" lon="1.8424714">
        <ele>151.0</ele>
        <time>2021-11-25T08:07:09Z</time>
      </trkpt>
      <trkpt lat="47.546425" lon="1.8424543">
        <ele>151.0</ele>
        <time>2021-11-25T08:07:10Z</time>
      </trkpt>
      <trkpt lat="47.546417" lon="1.8424412">
        <ele>151.0</ele>
        <time>2021-11-25T08:07:11Z</time>
      </trkpt>
      <trkpt lat="47.54641" lon="1.8424292">
        <ele>151.0</ele>
        <time>2021-11-25T08:07:12Z</time>
      </trkpt>
      <trkpt lat="47.546402" lon="1.8424085">
        <ele>151.0</ele>
        <time>2021-11-25T08:07:13Z</time>
      </trkpt>
      <trkpt lat="47.5464" lon="1.8423938">
        <ele>151.0</ele>
        <time>2021-11-25T08:07:14Z</time>
      </trkpt>
      <trkpt lat="47.546394" lon="1.8423824">
        <ele>151.0</ele>
        <time>2021-11-25T08:07:15Z</time>
      </trkpt>
      <trkpt lat="47.546387" lon="1.8423674">
        <ele>151.0</ele>
        <time>2021-11-25T08:07:16Z</time>
      </trkpt>
      <trkpt lat="47.546383" lon="1.8423537">
        <ele>151.0</ele>
        <time>2021-11-25T08:07:17Z</time>
      </trkpt>
      <trkpt lat="47.546375" lon="1.8423429">
        <ele>151.0</ele>
        <time>2021-11-25T08:07:18Z</time>
      </trkpt>
      <trkpt lat="47.546368" lon="1.8423249">
        <ele>151.0</ele>
        <time>2021-11-25T08:07:19Z</time>
      </trkpt>
      <trkpt lat="47.54636" lon="1.8423098">
        <ele>151.0</ele>
        <time>2021-11-25T08:07:20Z</time>
      </trkpt>
      <trkpt lat="47.546352" lon="1.8422983">
        <ele>151.0</ele>
        <time>2021-11-25T08:07:21Z</time>
      </trkpt>
      <trkpt lat="47.546345" lon="1.842284">
        <ele>151.0</ele>
        <time>2021-11-25T08:07:22Z</time>
      </trkpt>
      <trkpt lat="47.546345" lon="1.8422706">
        <ele>150.0</ele>
        <time>2021-11-25T08:07:23Z</time>
      </trkpt>
      <trkpt lat="47.546337" lon="1.8422554">
        <ele>151.0</ele>
        <time>2021-11-25T08:07:24Z</time>
      </trkpt>
      <trkpt lat="47.546333" lon="1.84224">
        <ele>150.0</ele>
        <time>2021-11-25T08:07:25Z</time>
      </trkpt>
      <trkpt lat="47.546333" lon="1.8422246">
        <ele>151.0</ele>
        <time>2021-11-25T08:07:26Z</time>
      </trkpt>
      <trkpt lat="47.546333" lon="1.8422099">
        <ele>150.0</ele>
        <time>2021-11-25T08:07:27Z</time>
      </trkpt>
      <trkpt lat="47.546326" lon="1.8421938">
        <ele>150.0</ele>
        <time>2021-11-25T08:07:28Z</time>
      </trkpt>
      <trkpt lat="47.54632" lon="1.8421757">
        <ele>150.0</ele>
        <time>2021-11-25T08:07:29Z</time>
      </trkpt>
      <trkpt lat="47.546318" lon="1.8421571">
        <ele>149.0</ele>
        <time>2021-11-25T08:07:30Z</time>
      </trkpt>
      <trkpt lat="47.546314" lon="1.842136">
        <ele>150.0</ele>
        <time>2021-11-25T08:07:31Z</time>
      </trkpt>
      <trkpt lat="47.54631" lon="1.8421167">
        <ele>150.0</ele>
        <time>2021-11-25T08:07:32Z</time>
      </trkpt>
      <trkpt lat="47.546307" lon="1.8420999">
        <ele>150.0</ele>
        <time>2021-11-25T08:07:33Z</time>
      </trkpt>
      <trkpt lat="47.5463" lon="1.8420793">
        <ele>150.0</ele>
        <time>2021-11-25T08:07:34Z</time>
      </trkpt>
      <trkpt lat="47.546295" lon="1.8420634">
        <ele>149.0</ele>
        <time>2021-11-25T08:07:35Z</time>
      </trkpt>
      <trkpt lat="47.546288" lon="1.8420482">
        <ele>149.0</ele>
        <time>2021-11-25T08:07:36Z</time>
      </trkpt>
      <trkpt lat="47.546284" lon="1.8420261">
        <ele>149.0</ele>
        <time>2021-11-25T08:07:37Z</time>
      </trkpt>
      <trkpt lat="47.546276" lon="1.8420069">
        <ele>149.0</ele>
        <time>2021-11-25T08:07:38Z</time>
      </trkpt>
      <trkpt lat="47.546272" lon="1.8419886">
        <ele>148.0</ele>
        <time>2021-11-25T08:07:39Z</time>
      </trkpt>
      <trkpt lat="47.54627" lon="1.8419772">
        <ele>147.0</ele>
        <time>2021-11-25T08:07:40Z</time>
      </trkpt>
      <trkpt lat="47.546265" lon="1.8419607">
        <ele>147.0</ele>
        <time>2021-11-25T08:07:41Z</time>
      </trkpt>
      <trkpt lat="47.54626" lon="1.841944">
        <ele>147.0</ele>
        <time>2021-11-25T08:07:42Z</time>
      </trkpt>
      <trkpt lat="47.54626" lon="1.8419273">
        <ele>147.0</ele>
        <time>2021-11-25T08:07:43Z</time>
      </trkpt>
      <trkpt lat="47.546253" lon="1.8419129">
        <ele>147.0</ele>
        <time>2021-11-25T08:07:44Z</time>
      </trkpt>
      <trkpt lat="47.54625" lon="1.841898">
        <ele>147.0</ele>
        <time>2021-11-25T08:07:45Z</time>
      </trkpt>
      <trkpt lat="47.546238" lon="1.8418813">
        <ele>146.0</ele>
        <time>2021-11-25T08:07:46Z</time>
      </trkpt>
      <trkpt lat="47.54623" lon="1.8418685">
        <ele>147.0</ele>
        <time>2021-11-25T08:07:47Z</time>
      </trkpt>
      <trkpt lat="47.546227" lon="1.8418564">
        <ele>147.0</ele>
        <time>2021-11-25T08:07:48Z</time>
      </trkpt>
      <trkpt lat="47.546223" lon="1.8418484">
        <ele>146.0</ele>
        <time>2021-11-25T08:07:49Z</time>
      </trkpt>
      <trkpt lat="47.54622" lon="1.8418375">
        <ele>146.0</ele>
        <time>2021-11-25T08:07:50Z</time>
      </trkpt>
      <trkpt lat="47.54621" lon="1.8418219">
        <ele>147.0</ele>
        <time>2021-11-25T08:07:51Z</time>
      </trkpt>
      <trkpt lat="47.546207" lon="1.8418078">
        <ele>147.0</ele>
        <time>2021-11-25T08:07:52Z</time>
      </trkpt>
      <trkpt lat="47.546204" lon="1.8417923">
        <ele>147.0</ele>
        <time>2021-11-25T08:07:53Z</time>
      </trkpt>
      <trkpt lat="47.546196" lon="1.8417771">
        <ele>147.0</ele>
        <time>2021-11-25T08:07:54Z</time>
      </trkpt>
      <trkpt lat="47.54619" lon="1.8417616">
        <ele>147.0</ele>
        <time>2021-11-25T08:07:56Z</time>
      </trkpt>
      <trkpt lat="47.54618" lon="1.8417429">
        <ele>147.0</ele>
        <time>2021-11-25T08:07:57Z</time>
      </trkpt>
      <trkpt lat="47.54618" lon="1.8417273">
        <ele>147.0</ele>
        <time>2021-11-25T08:07:58Z</time>
      </trkpt>
      <trkpt lat="47.546173" lon="1.8417135">
        <ele>147.0</ele>
        <time>2021-11-25T08:07:59Z</time>
      </trkpt>
      <trkpt lat="47.54617" lon="1.8416971">
        <ele>147.0</ele>
        <time>2021-11-25T08:08:00Z</time>
      </trkpt>
      <trkpt lat="47.54616" lon="1.8416821">
        <ele>147.0</ele>
        <time>2021-11-25T08:08:01Z</time>
      </trkpt>
      <trkpt lat="47.546158" lon="1.8416684">
        <ele>147.0</ele>
        <time>2021-11-25T08:08:02Z</time>
      </trkpt>
      <trkpt lat="47.54615" lon="1.8416494">
        <ele>147.0</ele>
        <time>2021-11-25T08:08:03Z</time>
      </trkpt>
      <trkpt lat="47.546146" lon="1.8416331">
        <ele>147.0</ele>
        <time>2021-11-25T08:08:04Z</time>
      </trkpt>
      <trkpt lat="47.546143" lon="1.8416181">
        <ele>146.0</ele>
        <time>2021-11-25T08:08:05Z</time>
      </trkpt>
      <trkpt lat="47.54614" lon="1.841607">
        <ele>146.0</ele>
        <time>2021-11-25T08:08:06Z</time>
      </trkpt>
      <trkpt lat="47.54614" lon="1.841593">
        <ele>146.0</ele>
        <time>2021-11-25T08:08:07Z</time>
      </trkpt>
      <trkpt lat="47.546135" lon="1.8415804">
        <ele>146.0</ele>
        <time>2021-11-25T08:08:08Z</time>
      </trkpt>
      <trkpt lat="47.54613" lon="1.8415701">
        <ele>145.0</ele>
        <time>2021-11-25T08:08:09Z</time>
      </trkpt>
      <trkpt lat="47.546127" lon="1.8415581">
        <ele>145.0</ele>
        <time>2021-11-25T08:08:10Z</time>
      </trkpt>
      <trkpt lat="47.546127" lon="1.8415419">
        <ele>145.0</ele>
        <time>2021-11-25T08:08:11Z</time>
      </trkpt>
      <trkpt lat="47.546127" lon="1.8415419">
        <ele>145.0</ele>
        <time>2021-11-25T08:08:12Z</time>
      </trkpt>
      <trkpt lat="47.546127" lon="1.8415419">
        <ele>145.0</ele>
        <time>2021-11-25T08:08:13Z</time>
      </trkpt>
      <trkpt lat="47.546124" lon="1.8415078">
        <ele>146.0</ele>
        <time>2021-11-25T08:08:14Z</time>
      </trkpt>
      <trkpt lat="47.54612" lon="1.8414925">
        <ele>146.0</ele>
        <time>2021-11-25T08:08:15Z</time>
      </trkpt>
      <trkpt lat="47.546116" lon="1.8414714">
        <ele>146.0</ele>
        <time>2021-11-25T08:08:16Z</time>
      </trkpt>
      <trkpt lat="47.546112" lon="1.8414569">
        <ele>146.0</ele>
        <time>2021-11-25T08:08:17Z</time>
      </trkpt>
      <trkpt lat="47.546104" lon="1.8414452">
        <ele>146.0</ele>
        <time>2021-11-25T08:08:18Z</time>
      </trkpt>
      <trkpt lat="47.5461" lon="1.8414307">
        <ele>146.0</ele>
        <time>2021-11-25T08:08:19Z</time>
      </trkpt>
      <trkpt lat="47.5461" lon="1.8414123">
        <ele>145.0</ele>
        <time>2021-11-25T08:08:20Z</time>
      </trkpt>
      <trkpt lat="47.546097" lon="1.8413973">
        <ele>145.0</ele>
        <time>2021-11-25T08:08:21Z</time>
      </trkpt>
      <trkpt lat="47.54609" lon="1.8413814">
        <ele>145.0</ele>
        <time>2021-11-25T08:08:22Z</time>
      </trkpt>
      <trkpt lat="47.546085" lon="1.841366">
        <ele>145.0</ele>
        <time>2021-11-25T08:08:23Z</time>
      </trkpt>
      <trkpt lat="47.54608" lon="1.8413498">
        <ele>145.0</ele>
        <time>2021-11-25T08:08:24Z</time>
      </trkpt>
      <trkpt lat="47.546074" lon="1.8413339">
        <ele>145.0</ele>
        <time>2021-11-25T08:08:25Z</time>
      </trkpt>
      <trkpt lat="47.54607" lon="1.8413234">
        <ele>145.0</ele>
        <time>2021-11-25T08:08:26Z</time>
      </trkpt>
      <trkpt lat="47.546062" lon="1.8413109">
        <ele>145.0</ele>
        <time>2021-11-25T08:08:27Z</time>
      </trkpt>
      <trkpt lat="47.546055" lon="1.8412939">
        <ele>145.0</ele>
        <time>2021-11-25T08:08:28Z</time>
      </trkpt>
      <trkpt lat="47.54604" lon="1.8412775">
        <ele>144.0</ele>
        <time>2021-11-25T08:08:29Z</time>
      </trkpt>
      <trkpt lat="47.54603" lon="1.8412627">
        <ele>144.0</ele>
        <time>2021-11-25T08:08:30Z</time>
      </trkpt>
      <trkpt lat="47.546024" lon="1.841255">
        <ele>143.0</ele>
        <time>2021-11-25T08:08:31Z</time>
      </trkpt>
      <trkpt lat="47.546017" lon="1.8412421">
        <ele>143.0</ele>
        <time>2021-11-25T08:08:32Z</time>
      </trkpt>
      <trkpt lat="47.546013" lon="1.8412263">
        <ele>143.0</ele>
        <time>2021-11-25T08:08:33Z</time>
      </trkpt>
      <trkpt lat="47.54601" lon="1.841209">
        <ele>143.0</ele>
        <time>2021-11-25T08:08:34Z</time>
      </trkpt>
      <trkpt lat="47.546" lon="1.8411909">
        <ele>143.0</ele>
        <time>2021-11-25T08:08:35Z</time>
      </trkpt>
      <trkpt lat="47.545998" lon="1.8411746">
        <ele>143.0</ele>
        <time>2021-11-25T08:08:36Z</time>
      </trkpt>
      <trkpt lat="47.545998" lon="1.841161">
        <ele>144.0</ele>
        <time>2021-11-25T08:08:37Z</time>
      </trkpt>
      <trkpt lat="47.545994" lon="1.8411471">
        <ele>144.0</ele>
        <time>2021-11-25T08:08:38Z</time>
      </trkpt>
      <trkpt lat="47.54599" lon="1.8411298">
        <ele>144.0</ele>
        <time>2021-11-25T08:08:39Z</time>
      </trkpt>
      <trkpt lat="47.54599" lon="1.8411162">
        <ele>144.0</ele>
        <time>2021-11-25T08:08:40Z</time>
      </trkpt>
      <trkpt lat="47.545986" lon="1.8411006">
        <ele>145.0</ele>
        <time>2021-11-25T08:08:41Z</time>
      </trkpt>
      <trkpt lat="47.545982" lon="1.8410883">
        <ele>144.0</ele>
        <time>2021-11-25T08:08:42Z</time>
      </trkpt>
      <trkpt lat="47.54598" lon="1.841069">
        <ele>144.0</ele>
        <time>2021-11-25T08:08:43Z</time>
      </trkpt>
      <trkpt lat="47.54598" lon="1.8410509">
        <ele>144.0</ele>
        <time>2021-11-25T08:08:44Z</time>
      </trkpt>
      <trkpt lat="47.545975" lon="1.8410374">
        <ele>144.0</ele>
        <time>2021-11-25T08:08:45Z</time>
      </trkpt>
      <trkpt lat="47.54597" lon="1.8410195">
        <ele>144.0</ele>
        <time>2021-11-25T08:08:46Z</time>
      </trkpt>
      <trkpt lat="47.545963" lon="1.8410038">
        <ele>144.0</ele>
        <time>2021-11-25T08:08:47Z</time>
      </trkpt>
      <trkpt lat="47.54596" lon="1.8409897">
        <ele>143.0</ele>
        <time>2021-11-25T08:08:48Z</time>
      </trkpt>
      <trkpt lat="47.545956" lon="1.8409772">
        <ele>143.0</ele>
        <time>2021-11-25T08:08:49Z</time>
      </trkpt>
      <trkpt lat="47.54596" lon="1.8409649">
        <ele>143.0</ele>
        <time>2021-11-25T08:08:50Z</time>
      </trkpt>
      <trkpt lat="47.54595" lon="1.8409538">
        <ele>143.0</ele>
        <time>2021-11-25T08:08:51Z</time>
      </trkpt>
      <trkpt lat="47.545944" lon="1.8409398">
        <ele>143.0</ele>
        <time>2021-11-25T08:08:52Z</time>
      </trkpt>
      <trkpt lat="47.545937" lon="1.8409225">
        <ele>143.0</ele>
        <time>2021-11-25T08:08:53Z</time>
      </trkpt>
      <trkpt lat="47.545933" lon="1.8409042">
        <ele>143.0</ele>
        <time>2021-11-25T08:08:54Z</time>
      </trkpt>
      <trkpt lat="47.54593" lon="1.8408843">
        <ele>143.0</ele>
        <time>2021-11-25T08:08:55Z</time>
      </trkpt>
      <trkpt lat="47.54592" lon="1.8408656">
        <ele>143.0</ele>
        <time>2021-11-25T08:08:56Z</time>
      </trkpt>
      <trkpt lat="47.545918" lon="1.8408531">
        <ele>143.0</ele>
        <time>2021-11-25T08:08:57Z</time>
      </trkpt>
      <trkpt lat="47.545914" lon="1.8408369">
        <ele>142.0</ele>
        <time>2021-11-25T08:08:58Z</time>
      </trkpt>
      <trkpt lat="47.545906" lon="1.8408206">
        <ele>142.0</ele>
        <time>2021-11-25T08:08:59Z</time>
      </trkpt>
      <trkpt lat="47.545902" lon="1.8408073">
        <ele>142.0</ele>
        <time>2021-11-25T08:09:00Z</time>
      </trkpt>
      <trkpt lat="47.5459" lon="1.8407923">
        <ele>142.0</ele>
        <time>2021-11-25T08:09:01Z</time>
      </trkpt>
      <trkpt lat="47.54589" lon="1.8407712">
        <ele>142.0</ele>
        <time>2021-11-25T08:09:02Z</time>
      </trkpt>
      <trkpt lat="47.545887" lon="1.8407587">
        <ele>142.0</ele>
        <time>2021-11-25T08:09:03Z</time>
      </trkpt>
      <trkpt lat="47.54588" lon="1.8407485">
        <ele>142.0</ele>
        <time>2021-11-25T08:09:04Z</time>
      </trkpt>
      <trkpt lat="47.54587" lon="1.8407387">
        <ele>141.0</ele>
        <time>2021-11-25T08:09:05Z</time>
      </trkpt>
      <trkpt lat="47.545868" lon="1.8407203">
        <ele>141.0</ele>
        <time>2021-11-25T08:09:06Z</time>
      </trkpt>
      <trkpt lat="47.54586" lon="1.8407029">
        <ele>140.0</ele>
        <time>2021-11-25T08:09:07Z</time>
      </trkpt>
      <trkpt lat="47.545853" lon="1.8406852">
        <ele>139.0</ele>
        <time>2021-11-25T08:09:08Z</time>
      </trkpt>
      <trkpt lat="47.545853" lon="1.8406717">
        <ele>139.0</ele>
        <time>2021-11-25T08:09:09Z</time>
      </trkpt>
      <trkpt lat="47.545853" lon="1.8406575">
        <ele>139.0</ele>
        <time>2021-11-25T08:09:10Z</time>
      </trkpt>
      <trkpt lat="47.54585" lon="1.8406459">
        <ele>139.0</ele>
        <time>2021-11-25T08:09:11Z</time>
      </trkpt>
      <trkpt lat="47.545845" lon="1.8406367">
        <ele>139.0</ele>
        <time>2021-11-25T08:09:12Z</time>
      </trkpt>
      <trkpt lat="47.54584" lon="1.840624">
        <ele>138.0</ele>
        <time>2021-11-25T08:09:13Z</time>
      </trkpt>
      <trkpt lat="47.545837" lon="1.8406106">
        <ele>138.0</ele>
        <time>2021-11-25T08:09:14Z</time>
      </trkpt>
      <trkpt lat="47.545834" lon="1.8405967">
        <ele>137.0</ele>
        <time>2021-11-25T08:09:15Z</time>
      </trkpt>
      <trkpt lat="47.54583" lon="1.8405792">
        <ele>137.0</ele>
        <time>2021-11-25T08:09:16Z</time>
      </trkpt>
      <trkpt lat="47.545826" lon="1.8405633">
        <ele>137.0</ele>
        <time>2021-11-25T08:09:17Z</time>
      </trkpt>
      <trkpt lat="47.545822" lon="1.8405439">
        <ele>137.0</ele>
        <time>2021-11-25T08:09:18Z</time>
      </trkpt>
      <trkpt lat="47.54582" lon="1.8405272">
        <ele>137.0</ele>
        <time>2021-11-25T08:09:19Z</time>
      </trkpt>
      <trkpt lat="47.545815" lon="1.8405107">
        <ele>138.0</ele>
        <time>2021-11-25T08:09:20Z</time>
      </trkpt>
      <trkpt lat="47.545807" lon="1.8404899">
        <ele>138.0</ele>
        <time>2021-11-25T08:09:21Z</time>
      </trkpt>
      <trkpt lat="47.545807" lon="1.8404707">
        <ele>138.0</ele>
        <time>2021-11-25T08:09:22Z</time>
      </trkpt>
      <trkpt lat="47.545803" lon="1.8404566">
        <ele>138.0</ele>
        <time>2021-11-25T08:09:23Z</time>
      </trkpt>
      <trkpt lat="47.545803" lon="1.8404416">
        <ele>137.0</ele>
        <time>2021-11-25T08:09:24Z</time>
      </trkpt>
      <trkpt lat="47.5458" lon="1.8404244">
        <ele>137.0</ele>
        <time>2021-11-25T08:09:25Z</time>
      </trkpt>
      <trkpt lat="47.5458" lon="1.8404038">
        <ele>137.0</ele>
        <time>2021-11-25T08:09:26Z</time>
      </trkpt>
      <trkpt lat="47.545795" lon="1.8403833">
        <ele>137.0</ele>
        <time>2021-11-25T08:09:27Z</time>
      </trkpt>
      <trkpt lat="47.545795" lon="1.8403685">
        <ele>137.0</ele>
        <time>2021-11-25T08:09:28Z</time>
      </trkpt>
      <trkpt lat="47.54579" lon="1.8403512">
        <ele>137.0</ele>
        <time>2021-11-25T08:09:29Z</time>
      </trkpt>
      <trkpt lat="47.54579" lon="1.840336">
        <ele>137.0</ele>
        <time>2021-11-25T08:09:30Z</time>
      </trkpt>
      <trkpt lat="47.54579" lon="1.8403172">
        <ele>137.0</ele>
        <time>2021-11-25T08:09:31Z</time>
      </trkpt>
      <trkpt lat="47.545788" lon="1.8403039">
        <ele>137.0</ele>
        <time>2021-11-25T08:09:32Z</time>
      </trkpt>
      <trkpt lat="47.545784" lon="1.8402926">
        <ele>137.0</ele>
        <time>2021-11-25T08:09:33Z</time>
      </trkpt>
      <trkpt lat="47.54578" lon="1.8402804">
        <ele>136.0</ele>
        <time>2021-11-25T08:09:34Z</time>
      </trkpt>
      <trkpt lat="47.54578" lon="1.8402652">
        <ele>136.0</ele>
        <time>2021-11-25T08:09:35Z</time>
      </trkpt>
      <trkpt lat="47.545776" lon="1.8402506">
        <ele>137.0</ele>
        <time>2021-11-25T08:09:36Z</time>
      </trkpt>
      <trkpt lat="47.545773" lon="1.8402355">
        <ele>137.0</ele>
        <time>2021-11-25T08:09:37Z</time>
      </trkpt>
      <trkpt lat="47.54577" lon="1.840222">
        <ele>137.0</ele>
        <time>2021-11-25T08:09:38Z</time>
      </trkpt>
      <trkpt lat="47.545765" lon="1.8402091">
        <ele>136.0</ele>
        <time>2021-11-25T08:09:39Z</time>
      </trkpt>
      <trkpt lat="47.54576" lon="1.8401974">
        <ele>136.0</ele>
        <time>2021-11-25T08:09:40Z</time>
      </trkpt>
      <trkpt lat="47.545753" lon="1.8401796">
        <ele>136.0</ele>
        <time>2021-11-25T08:09:41Z</time>
      </trkpt>
      <trkpt lat="47.545746" lon="1.8401663">
        <ele>135.0</ele>
        <time>2021-11-25T08:09:42Z</time>
      </trkpt>
      <trkpt lat="47.545742" lon="1.840157">
        <ele>135.0</ele>
        <time>2021-11-25T08:09:43Z</time>
      </trkpt>
      <trkpt lat="47.545734" lon="1.8401448">
        <ele>135.0</ele>
        <time>2021-11-25T08:09:44Z</time>
      </trkpt>
      <trkpt lat="47.54573" lon="1.8401288">
        <ele>134.0</ele>
        <time>2021-11-25T08:09:45Z</time>
      </trkpt>
      <trkpt lat="47.545727" lon="1.8401169">
        <ele>133.0</ele>
        <time>2021-11-25T08:09:46Z</time>
      </trkpt>
      <trkpt lat="47.54572" lon="1.840105">
        <ele>133.0</ele>
        <time>2021-11-25T08:09:47Z</time>
      </trkpt>
      <trkpt lat="47.545715" lon="1.8400955">
        <ele>132.0</ele>
        <time>2021-11-25T08:09:48Z</time>
      </trkpt>
      <trkpt lat="47.54571" lon="1.8400813">
        <ele>132.0</ele>
        <time>2021-11-25T08:09:49Z</time>
      </trkpt>
      <trkpt lat="47.545704" lon="1.840065">
        <ele>132.0</ele>
        <time>2021-11-25T08:09:50Z</time>
      </trkpt>
      <trkpt lat="47.545696" lon="1.8400507">
        <ele>131.0</ele>
        <time>2021-11-25T08:09:51Z</time>
      </trkpt>
      <trkpt lat="47.545692" lon="1.8400294">
        <ele>131.0</ele>
        <time>2021-11-25T08:09:52Z</time>
      </trkpt>
      <trkpt lat="47.54569" lon="1.840009">
        <ele>131.0</ele>
        <time>2021-11-25T08:09:53Z</time>
      </trkpt>
      <trkpt lat="47.545685" lon="1.8399917">
        <ele>131.0</ele>
        <time>2021-11-25T08:09:54Z</time>
      </trkpt>
      <trkpt lat="47.54568" lon="1.8399768">
        <ele>130.0</ele>
        <time>2021-11-25T08:09:55Z</time>
      </trkpt>
      <trkpt lat="47.54568" lon="1.8399619">
        <ele>130.0</ele>
        <time>2021-11-25T08:09:56Z</time>
      </trkpt>
      <trkpt lat="47.545677" lon="1.839942">
        <ele>130.0</ele>
        <time>2021-11-25T08:09:57Z</time>
      </trkpt>
      <trkpt lat="47.545677" lon="1.8399267">
        <ele>129.0</ele>
        <time>2021-11-25T08:09:58Z</time>
      </trkpt>
      <trkpt lat="47.545677" lon="1.8399076">
        <ele>130.0</ele>
        <time>2021-11-25T08:09:59Z</time>
      </trkpt>
      <trkpt lat="47.545677" lon="1.8398948">
        <ele>130.0</ele>
        <time>2021-11-25T08:10:00Z</time>
      </trkpt>
      <trkpt lat="47.545677" lon="1.8398789">
        <ele>130.0</ele>
        <time>2021-11-25T08:10:01Z</time>
      </trkpt>
      <trkpt lat="47.545677" lon="1.8398643">
        <ele>129.0</ele>
        <time>2021-11-25T08:10:02Z</time>
      </trkpt>
      <trkpt lat="47.545677" lon="1.8398643">
        <ele>129.0</ele>
        <time>2021-11-25T08:10:03Z</time>
      </trkpt>
      <trkpt lat="47.545677" lon="1.8398367">
        <ele>129.0</ele>
        <time>2021-11-25T08:10:04Z</time>
      </trkpt>
      <trkpt lat="47.54568" lon="1.8398231">
        <ele>129.0</ele>
        <time>2021-11-25T08:10:05Z</time>
      </trkpt>
      <trkpt lat="47.545677" lon="1.8398049">
        <ele>129.0</ele>
        <time>2021-11-25T08:10:06Z</time>
      </trkpt>
      <trkpt lat="47.545677" lon="1.8397868">
        <ele>129.0</ele>
        <time>2021-11-25T08:10:07Z</time>
      </trkpt>
      <trkpt lat="47.545673" lon="1.8397678">
        <ele>129.0</ele>
        <time>2021-11-25T08:10:08Z</time>
      </trkpt>
      <trkpt lat="47.54567" lon="1.8397491">
        <ele>129.0</ele>
        <time>2021-11-25T08:10:09Z</time>
      </trkpt>
      <trkpt lat="47.545666" lon="1.8397315">
        <ele>128.0</ele>
        <time>2021-11-25T08:10:10Z</time>
      </trkpt>
      <trkpt lat="47.545662" lon="1.8397101">
        <ele>128.0</ele>
        <time>2021-11-25T08:10:11Z</time>
      </trkpt>
      <trkpt lat="47.545662" lon="1.8396909">
        <ele>128.0</ele>
        <time>2021-11-25T08:10:12Z</time>
      </trkpt>
      <trkpt lat="47.54566" lon="1.839672">
        <ele>128.0</ele>
        <time>2021-11-25T08:10:13Z</time>
      </trkpt>
      <trkpt lat="47.54566" lon="1.8396424">
        <ele>128.0</ele>
        <time>2021-11-25T08:10:14Z</time>
      </trkpt>
      <trkpt lat="47.545654" lon="1.8396229">
        <ele>127.0</ele>
        <time>2021-11-25T08:10:15Z</time>
      </trkpt>
      <trkpt lat="47.54565" lon="1.8396052">
        <ele>127.0</ele>
        <time>2021-11-25T08:10:16Z</time>
      </trkpt>
      <trkpt lat="47.545643" lon="1.8395886">
        <ele>127.0</ele>
        <time>2021-11-25T08:10:17Z</time>
      </trkpt>
      <trkpt lat="47.54564" lon="1.8395703">
        <ele>128.0</ele>
        <time>2021-11-25T08:10:18Z</time>
      </trkpt>
      <trkpt lat="47.54563" lon="1.8395503">
        <ele>128.0</ele>
        <time>2021-11-25T08:10:19Z</time>
      </trkpt>
      <trkpt lat="47.54563" lon="1.839534">
        <ele>128.0</ele>
        <time>2021-11-25T08:10:20Z</time>
      </trkpt>
      <trkpt lat="47.545624" lon="1.8395162">
        <ele>128.0</ele>
        <time>2021-11-25T08:10:21Z</time>
      </trkpt>
      <trkpt lat="47.54562" lon="1.8395034">
        <ele>128.0</ele>
        <time>2021-11-25T08:10:22Z</time>
      </trkpt>
      <trkpt lat="47.54562" lon="1.8394928">
        <ele>129.0</ele>
        <time>2021-11-25T08:10:23Z</time>
      </trkpt>
      <trkpt lat="47.54562" lon="1.8394928">
        <ele>129.0</ele>
        <time>2021-11-25T08:10:24Z</time>
      </trkpt>
      <trkpt lat="47.54562" lon="1.8394928">
        <ele>129.0</ele>
        <time>2021-11-25T08:10:25Z</time>
      </trkpt>
      <trkpt lat="47.54561" lon="1.8394605">
        <ele>130.0</ele>
        <time>2021-11-25T08:10:26Z</time>
      </trkpt>
      <trkpt lat="47.545605" lon="1.8394419">
        <ele>130.0</ele>
        <time>2021-11-25T08:10:27Z</time>
      </trkpt>
      <trkpt lat="47.545605" lon="1.8394282">
        <ele>131.0</ele>
        <time>2021-11-25T08:10:28Z</time>
      </trkpt>
      <trkpt lat="47.5456" lon="1.8394123">
        <ele>131.0</ele>
        <time>2021-11-25T08:10:29Z</time>
      </trkpt>
      <trkpt lat="47.545597" lon="1.839401">
        <ele>131.0</ele>
        <time>2021-11-25T08:10:30Z</time>
      </trkpt>
      <trkpt lat="47.54559" lon="1.8393807">
        <ele>131.0</ele>
        <time>2021-11-25T08:10:31Z</time>
      </trkpt>
      <trkpt lat="47.545586" lon="1.8393577">
        <ele>131.0</ele>
        <time>2021-11-25T08:10:32Z</time>
      </trkpt>
      <trkpt lat="47.545578" lon="1.8393371">
        <ele>131.0</ele>
        <time>2021-11-25T08:10:33Z</time>
      </trkpt>
      <trkpt lat="47.54557" lon="1.8393203">
        <ele>131.0</ele>
        <time>2021-11-25T08:10:34Z</time>
      </trkpt>
      <trkpt lat="47.545567" lon="1.8393036">
        <ele>131.0</ele>
        <time>2021-11-25T08:10:35Z</time>
      </trkpt>
      <trkpt lat="47.545563" lon="1.8392853">
        <ele>131.0</ele>
        <time>2021-11-25T08:10:36Z</time>
      </trkpt>
      <trkpt lat="47.54556" lon="1.8392668">
        <ele>131.0</ele>
        <time>2021-11-25T08:10:37Z</time>
      </trkpt>
      <trkpt lat="47.54555" lon="1.8392469">
        <ele>130.0</ele>
        <time>2021-11-25T08:10:38Z</time>
      </trkpt>
      <trkpt lat="47.545544" lon="1.8392321">
        <ele>130.0</ele>
        <time>2021-11-25T08:10:39Z</time>
      </trkpt>
      <trkpt lat="47.54554" lon="1.8392146">
        <ele>130.0</ele>
        <time>2021-11-25T08:10:40Z</time>
      </trkpt>
      <trkpt lat="47.545532" lon="1.839197">
        <ele>130.0</ele>
        <time>2021-11-25T08:10:41Z</time>
      </trkpt>
      <trkpt lat="47.54553" lon="1.8391764">
        <ele>131.0</ele>
        <time>2021-11-25T08:10:42Z</time>
      </trkpt>
      <trkpt lat="47.545525" lon="1.8391598">
        <ele>131.0</ele>
        <time>2021-11-25T08:10:43Z</time>
      </trkpt>
      <trkpt lat="47.54552" lon="1.8391395">
        <ele>131.0</ele>
        <time>2021-11-25T08:10:44Z</time>
      </trkpt>
      <trkpt lat="47.54551" lon="1.8391235">
        <ele>132.0</ele>
        <time>2021-11-25T08:10:45Z</time>
      </trkpt>
      <trkpt lat="47.5455" lon="1.8391056">
        <ele>133.0</ele>
        <time>2021-11-25T08:10:46Z</time>
      </trkpt>
      <trkpt lat="47.545494" lon="1.8390805">
        <ele>133.0</ele>
        <time>2021-11-25T08:10:47Z</time>
      </trkpt>
      <trkpt lat="47.545486" lon="1.8390536">
        <ele>134.0</ele>
        <time>2021-11-25T08:10:48Z</time>
      </trkpt>
      <trkpt lat="47.54548" lon="1.8390344">
        <ele>134.0</ele>
        <time>2021-11-25T08:10:49Z</time>
      </trkpt>
      <trkpt lat="47.545475" lon="1.8390186">
        <ele>134.0</ele>
        <time>2021-11-25T08:10:50Z</time>
      </trkpt>
      <trkpt lat="47.54547" lon="1.8390013">
        <ele>135.0</ele>
        <time>2021-11-25T08:10:51Z</time>
      </trkpt>
      <trkpt lat="47.54547" lon="1.8389863">
        <ele>135.0</ele>
        <time>2021-11-25T08:10:52Z</time>
      </trkpt>
      <trkpt lat="47.545467" lon="1.8389679">
        <ele>134.0</ele>
        <time>2021-11-25T08:10:53Z</time>
      </trkpt>
      <trkpt lat="47.54546" lon="1.838952">
        <ele>134.0</ele>
        <time>2021-11-25T08:10:54Z</time>
      </trkpt>
      <trkpt lat="47.545456" lon="1.8389351">
        <ele>134.0</ele>
        <time>2021-11-25T08:10:55Z</time>
      </trkpt>
      <trkpt lat="47.545452" lon="1.8389188">
        <ele>134.0</ele>
        <time>2021-11-25T08:10:56Z</time>
      </trkpt>
      <trkpt lat="47.54545" lon="1.8388984">
        <ele>134.0</ele>
        <time>2021-11-25T08:10:57Z</time>
      </trkpt>
      <trkpt lat="47.545444" lon="1.8388792">
        <ele>134.0</ele>
        <time>2021-11-25T08:10:58Z</time>
      </trkpt>
      <trkpt lat="47.54544" lon="1.8388662">
        <ele>134.0</ele>
        <time>2021-11-25T08:10:59Z</time>
      </trkpt>
      <trkpt lat="47.545437" lon="1.8388487">
        <ele>134.0</ele>
        <time>2021-11-25T08:11:00Z</time>
      </trkpt>
      <trkpt lat="47.54543" lon="1.8388379">
        <ele>133.0</ele>
        <time>2021-11-25T08:11:01Z</time>
      </trkpt>
      <trkpt lat="47.545425" lon="1.8388267">
        <ele>133.0</ele>
        <time>2021-11-25T08:11:02Z</time>
      </trkpt>
      <trkpt lat="47.54542" lon="1.8388095">
        <ele>132.0</ele>
        <time>2021-11-25T08:11:03Z</time>
      </trkpt>
      <trkpt lat="47.545414" lon="1.8387926">
        <ele>132.0</ele>
        <time>2021-11-25T08:11:04Z</time>
      </trkpt>
      <trkpt lat="47.545406" lon="1.8387741">
        <ele>132.0</ele>
        <time>2021-11-25T08:11:05Z</time>
      </trkpt>
      <trkpt lat="47.5454" lon="1.8387575">
        <ele>132.0</ele>
        <time>2021-11-25T08:11:06Z</time>
      </trkpt>
      <trkpt lat="47.545395" lon="1.8387383">
        <ele>132.0</ele>
        <time>2021-11-25T08:11:07Z</time>
      </trkpt>
      <trkpt lat="47.545387" lon="1.8387233">
        <ele>132.0</ele>
        <time>2021-11-25T08:11:08Z</time>
      </trkpt>
      <trkpt lat="47.545376" lon="1.8387061">
        <ele>132.0</ele>
        <time>2021-11-25T08:11:09Z</time>
      </trkpt>
      <trkpt lat="47.545372" lon="1.8386811">
        <ele>132.0</ele>
        <time>2021-11-25T08:11:10Z</time>
      </trkpt>
      <trkpt lat="47.545364" lon="1.8386571">
        <ele>132.0</ele>
        <time>2021-11-25T08:11:11Z</time>
      </trkpt>
      <trkpt lat="47.545357" lon="1.8386374">
        <ele>132.0</ele>
        <time>2021-11-25T08:11:12Z</time>
      </trkpt>
      <trkpt lat="47.545353" lon="1.8386159">
        <ele>132.0</ele>
        <time>2021-11-25T08:11:13Z</time>
      </trkpt>
      <trkpt lat="47.545345" lon="1.8385965">
        <ele>132.0</ele>
        <time>2021-11-25T08:11:14Z</time>
      </trkpt>
      <trkpt lat="47.54534" lon="1.8385781">
        <ele>133.0</ele>
        <time>2021-11-25T08:11:15Z</time>
      </trkpt>
      <trkpt lat="47.545338" lon="1.8385651">
        <ele>133.0</ele>
        <time>2021-11-25T08:11:16Z</time>
      </trkpt>
      <trkpt lat="47.545334" lon="1.8385538">
        <ele>132.0</ele>
        <time>2021-11-25T08:11:17Z</time>
      </trkpt>
      <trkpt lat="47.545326" lon="1.8385446">
        <ele>132.0</ele>
        <time>2021-11-25T08:11:18Z</time>
      </trkpt>
      <trkpt lat="47.545322" lon="1.8385305">
        <ele>132.0</ele>
        <time>2021-11-25T08:11:19Z</time>
      </trkpt>
      <trkpt lat="47.545315" lon="1.8385158">
        <ele>132.0</ele>
        <time>2021-11-25T08:11:20Z</time>
      </trkpt>
      <trkpt lat="47.545307" lon="1.8385004">
        <ele>132.0</ele>
        <time>2021-11-25T08:11:21Z</time>
      </trkpt>
      <trkpt lat="47.5453" lon="1.8384866">
        <ele>131.0</ele>
        <time>2021-11-25T08:11:22Z</time>
      </trkpt>
      <trkpt lat="47.545296" lon="1.8384689">
        <ele>131.0</ele>
        <time>2021-11-25T08:11:23Z</time>
      </trkpt>
      <trkpt lat="47.545284" lon="1.8384453">
        <ele>132.0</ele>
        <time>2021-11-25T08:11:24Z</time>
      </trkpt>
      <trkpt lat="47.545273" lon="1.8384254">
        <ele>132.0</ele>
        <time>2021-11-25T08:11:25Z</time>
      </trkpt>
      <trkpt lat="47.54527" lon="1.8384084">
        <ele>133.0</ele>
        <time>2021-11-25T08:11:26Z</time>
      </trkpt>
      <trkpt lat="47.545265" lon="1.8383869">
        <ele>132.0</ele>
        <time>2021-11-25T08:11:27Z</time>
      </trkpt>
      <trkpt lat="47.54526" lon="1.8383653">
        <ele>132.0</ele>
        <time>2021-11-25T08:11:28Z</time>
      </trkpt>
      <trkpt lat="47.545254" lon="1.8383467">
        <ele>133.0</ele>
        <time>2021-11-25T08:11:29Z</time>
      </trkpt>
      <trkpt lat="47.54525" lon="1.8383284">
        <ele>133.0</ele>
        <time>2021-11-25T08:11:30Z</time>
      </trkpt>
      <trkpt lat="47.545246" lon="1.8383127">
        <ele>133.0</ele>
        <time>2021-11-25T08:11:31Z</time>
      </trkpt>
      <trkpt lat="47.545242" lon="1.8382919">
        <ele>133.0</ele>
        <time>2021-11-25T08:11:32Z</time>
      </trkpt>
      <trkpt lat="47.54524" lon="1.8382709">
        <ele>134.0</ele>
        <time>2021-11-25T08:11:33Z</time>
      </trkpt>
      <trkpt lat="47.545227" lon="1.8382502">
        <ele>134.0</ele>
        <time>2021-11-25T08:11:34Z</time>
      </trkpt>
      <trkpt lat="47.545227" lon="1.8382297">
        <ele>134.0</ele>
        <time>2021-11-25T08:11:35Z</time>
      </trkpt>
      <trkpt lat="47.545223" lon="1.8382151">
        <ele>134.0</ele>
        <time>2021-11-25T08:11:36Z</time>
      </trkpt>
      <trkpt lat="47.54522" lon="1.8381981">
        <ele>134.0</ele>
        <time>2021-11-25T08:11:37Z</time>
      </trkpt>
      <trkpt lat="47.54522" lon="1.8381832">
        <ele>134.0</ele>
        <time>2021-11-25T08:11:38Z</time>
      </trkpt>
      <trkpt lat="47.54521" lon="1.8381646">
        <ele>134.0</ele>
        <time>2021-11-25T08:11:39Z</time>
      </trkpt>
      <trkpt lat="47.545208" lon="1.8381456">
        <ele>135.0</ele>
        <time>2021-11-25T08:11:40Z</time>
      </trkpt>
      <trkpt lat="47.5452" lon="1.8381248">
        <ele>135.0</ele>
        <time>2021-11-25T08:11:41Z</time>
      </trkpt>
      <trkpt lat="47.545197" lon="1.8381058">
        <ele>135.0</ele>
        <time>2021-11-25T08:11:42Z</time>
      </trkpt>
      <trkpt lat="47.54519" lon="1.8380867">
        <ele>135.0</ele>
        <time>2021-11-25T08:11:43Z</time>
      </trkpt>
      <trkpt lat="47.54518" lon="1.8380655">
        <ele>135.0</ele>
        <time>2021-11-25T08:11:44Z</time>
      </trkpt>
      <trkpt lat="47.545174" lon="1.838046">
        <ele>136.0</ele>
        <time>2021-11-25T08:11:45Z</time>
      </trkpt>
      <trkpt lat="47.545162" lon="1.8380315">
        <ele>135.0</ele>
        <time>2021-11-25T08:11:46Z</time>
      </trkpt>
      <trkpt lat="47.545155" lon="1.8380157">
        <ele>135.0</ele>
        <time>2021-11-25T08:11:47Z</time>
      </trkpt>
      <trkpt lat="47.545147" lon="1.8379983">
        <ele>135.0</ele>
        <time>2021-11-25T08:11:48Z</time>
      </trkpt>
      <trkpt lat="47.54514" lon="1.8379797">
        <ele>135.0</ele>
        <time>2021-11-25T08:11:49Z</time>
      </trkpt>
      <trkpt lat="47.545135" lon="1.8379654">
        <ele>135.0</ele>
        <time>2021-11-25T08:11:50Z</time>
      </trkpt>
      <trkpt lat="47.54513" lon="1.8379495">
        <ele>136.0</ele>
        <time>2021-11-25T08:11:51Z</time>
      </trkpt>
      <trkpt lat="47.545124" lon="1.8379304">
        <ele>136.0</ele>
        <time>2021-11-25T08:11:52Z</time>
      </trkpt>
      <trkpt lat="47.54512" lon="1.837918">
        <ele>136.0</ele>
        <time>2021-11-25T08:11:53Z</time>
      </trkpt>
      <trkpt lat="47.54511" lon="1.8379003">
        <ele>137.0</ele>
        <time>2021-11-25T08:11:54Z</time>
      </trkpt>
      <trkpt lat="47.5451" lon="1.8378861">
        <ele>137.0</ele>
        <time>2021-11-25T08:11:55Z</time>
      </trkpt>
      <trkpt lat="47.545094" lon="1.837868">
        <ele>137.0</ele>
        <time>2021-11-25T08:11:56Z</time>
      </trkpt>
      <trkpt lat="47.545086" lon="1.8378488">
        <ele>137.0</ele>
        <time>2021-11-25T08:11:57Z</time>
      </trkpt>
      <trkpt lat="47.545074" lon="1.8378317">
        <ele>137.0</ele>
        <time>2021-11-25T08:11:58Z</time>
      </trkpt>
      <trkpt lat="47.545067" lon="1.8378156">
        <ele>137.0</ele>
        <time>2021-11-25T08:11:59Z</time>
      </trkpt>
      <trkpt lat="47.54506" lon="1.8377973">
        <ele>137.0</ele>
        <time>2021-11-25T08:12:00Z</time>
      </trkpt>
      <trkpt lat="47.54505" lon="1.83778">
        <ele>137.0</ele>
        <time>2021-11-25T08:12:01Z</time>
      </trkpt>
      <trkpt lat="47.545044" lon="1.8377643">
        <ele>137.0</ele>
        <time>2021-11-25T08:12:02Z</time>
      </trkpt>
      <trkpt lat="47.545036" lon="1.8377504">
        <ele>137.0</ele>
        <time>2021-11-25T08:12:03Z</time>
      </trkpt>
      <trkpt lat="47.54503" lon="1.8377361">
        <ele>138.0</ele>
        <time>2021-11-25T08:12:04Z</time>
      </trkpt>
      <trkpt lat="47.54502" lon="1.837724">
        <ele>137.0</ele>
        <time>2021-11-25T08:12:05Z</time>
      </trkpt>
      <trkpt lat="47.545017" lon="1.837708">
        <ele>138.0</ele>
        <time>2021-11-25T08:12:06Z</time>
      </trkpt>
      <trkpt lat="47.54501" lon="1.8376935">
        <ele>138.0</ele>
        <time>2021-11-25T08:12:07Z</time>
      </trkpt>
      <trkpt lat="47.545" lon="1.8376762">
        <ele>139.0</ele>
        <time>2021-11-25T08:12:08Z</time>
      </trkpt>
      <trkpt lat="47.54499" lon="1.8376547">
        <ele>139.0</ele>
        <time>2021-11-25T08:12:09Z</time>
      </trkpt>
      <trkpt lat="47.544983" lon="1.8376366">
        <ele>139.0</ele>
        <time>2021-11-25T08:12:10Z</time>
      </trkpt>
      <trkpt lat="47.544975" lon="1.8376199">
        <ele>139.0</ele>
        <time>2021-11-25T08:12:11Z</time>
      </trkpt>
      <trkpt lat="47.544968" lon="1.8376024">
        <ele>139.0</ele>
        <time>2021-11-25T08:12:12Z</time>
      </trkpt>
      <trkpt lat="47.54496" lon="1.837583">
        <ele>139.0</ele>
        <time>2021-11-25T08:12:13Z</time>
      </trkpt>
      <trkpt lat="47.544956" lon="1.837567">
        <ele>139.0</ele>
        <time>2021-11-25T08:12:14Z</time>
      </trkpt>
      <trkpt lat="47.544945" lon="1.8375493">
        <ele>139.0</ele>
        <time>2021-11-25T08:12:15Z</time>
      </trkpt>
      <trkpt lat="47.544937" lon="1.8375326">
        <ele>139.0</ele>
        <time>2021-11-25T08:12:16Z</time>
      </trkpt>
      <trkpt lat="47.54493" lon="1.8375157">
        <ele>139.0</ele>
        <time>2021-11-25T08:12:17Z</time>
      </trkpt>
      <trkpt lat="47.544918" lon="1.8375026">
        <ele>139.0</ele>
        <time>2021-11-25T08:12:18Z</time>
      </trkpt>
      <trkpt lat="47.54491" lon="1.8374875">
        <ele>139.0</ele>
        <time>2021-11-25T08:12:19Z</time>
      </trkpt>
      <trkpt lat="47.544903" lon="1.837467">
        <ele>139.0</ele>
        <time>2021-11-25T08:12:20Z</time>
      </trkpt>
      <trkpt lat="47.544895" lon="1.8374516">
        <ele>139.0</ele>
        <time>2021-11-25T08:12:21Z</time>
      </trkpt>
      <trkpt lat="47.544888" lon="1.8374373">
        <ele>139.0</ele>
        <time>2021-11-25T08:12:22Z</time>
      </trkpt>
      <trkpt lat="47.544884" lon="1.8374226">
        <ele>138.0</ele>
        <time>2021-11-25T08:12:23Z</time>
      </trkpt>
      <trkpt lat="47.544876" lon="1.8374075">
        <ele>138.0</ele>
        <time>2021-11-25T08:12:24Z</time>
      </trkpt>
      <trkpt lat="47.544872" lon="1.8373942">
        <ele>138.0</ele>
        <time>2021-11-25T08:12:25Z</time>
      </trkpt>
      <trkpt lat="47.544865" lon="1.8373797">
        <ele>138.0</ele>
        <time>2021-11-25T08:12:26Z</time>
      </trkpt>
      <trkpt lat="47.544857" lon="1.8373698">
        <ele>138.0</ele>
        <time>2021-11-25T08:12:27Z</time>
      </trkpt>
      <trkpt lat="47.544846" lon="1.8373572">
        <ele>138.0</ele>
        <time>2021-11-25T08:12:28Z</time>
      </trkpt>
      <trkpt lat="47.54484" lon="1.8373438">
        <ele>138.0</ele>
        <time>2021-11-25T08:12:29Z</time>
      </trkpt>
      <trkpt lat="47.544834" lon="1.8373265">
        <ele>138.0</ele>
        <time>2021-11-25T08:12:30Z</time>
      </trkpt>
      <trkpt lat="47.544827" lon="1.8373147">
        <ele>138.0</ele>
        <time>2021-11-25T08:12:31Z</time>
      </trkpt>
      <trkpt lat="47.54482" lon="1.8373003">
        <ele>137.0</ele>
        <time>2021-11-25T08:12:32Z</time>
      </trkpt>
      <trkpt lat="47.54481" lon="1.8372908">
        <ele>137.0</ele>
        <time>2021-11-25T08:12:33Z</time>
      </trkpt>
      <trkpt lat="47.5448" lon="1.8372786">
        <ele>137.0</ele>
        <time>2021-11-25T08:12:34Z</time>
      </trkpt>
      <trkpt lat="47.544796" lon="1.8372631">
        <ele>137.0</ele>
        <time>2021-11-25T08:12:35Z</time>
      </trkpt>
      <trkpt lat="47.54479" lon="1.8372471">
        <ele>137.0</ele>
        <time>2021-11-25T08:12:36Z</time>
      </trkpt>
      <trkpt lat="47.54478" lon="1.8372328">
        <ele>137.0</ele>
        <time>2021-11-25T08:12:37Z</time>
      </trkpt>
      <trkpt lat="47.544773" lon="1.837222">
        <ele>136.0</ele>
        <time>2021-11-25T08:12:38Z</time>
      </trkpt>
      <trkpt lat="47.54477" lon="1.8372105">
        <ele>136.0</ele>
        <time>2021-11-25T08:12:39Z</time>
      </trkpt>
      <trkpt lat="47.544765" lon="1.8371994">
        <ele>136.0</ele>
        <time>2021-11-25T08:12:40Z</time>
      </trkpt>
      <trkpt lat="47.544758" lon="1.8371781">
        <ele>136.0</ele>
        <time>2021-11-25T08:12:41Z</time>
      </trkpt>
      <trkpt lat="47.54475" lon="1.8371601">
        <ele>137.0</ele>
        <time>2021-11-25T08:12:42Z</time>
      </trkpt>
      <trkpt lat="47.54474" lon="1.8371459">
        <ele>137.0</ele>
        <time>2021-11-25T08:12:43Z</time>
      </trkpt>
      <trkpt lat="47.54473" lon="1.8371344">
        <ele>137.0</ele>
        <time>2021-11-25T08:12:44Z</time>
      </trkpt>
      <trkpt lat="47.544727" lon="1.837122">
        <ele>137.0</ele>
        <time>2021-11-25T08:12:45Z</time>
      </trkpt>
      <trkpt lat="47.54472" lon="1.8371102">
        <ele>137.0</ele>
        <time>2021-11-25T08:12:46Z</time>
      </trkpt>
      <trkpt lat="47.544712" lon="1.8370929">
        <ele>137.0</ele>
        <time>2021-11-25T08:12:47Z</time>
      </trkpt>
      <trkpt lat="47.544704" lon="1.8370808">
        <ele>137.0</ele>
        <time>2021-11-25T08:12:48Z</time>
      </trkpt>
      <trkpt lat="47.544697" lon="1.8370688">
        <ele>137.0</ele>
        <time>2021-11-25T08:12:49Z</time>
      </trkpt>
      <trkpt lat="47.544685" lon="1.8370548">
        <ele>137.0</ele>
        <time>2021-11-25T08:12:50Z</time>
      </trkpt>
      <trkpt lat="47.544674" lon="1.837044">
        <ele>137.0</ele>
        <time>2021-11-25T08:12:51Z</time>
      </trkpt>
      <trkpt lat="47.544666" lon="1.8370261">
        <ele>137.0</ele>
        <time>2021-11-25T08:12:52Z</time>
      </trkpt>
      <trkpt lat="47.544655" lon="1.8370101">
        <ele>137.0</ele>
        <time>2021-11-25T08:12:53Z</time>
      </trkpt>
      <trkpt lat="47.544647" lon="1.8369937">
        <ele>137.0</ele>
        <time>2021-11-25T08:12:54Z</time>
      </trkpt>
      <trkpt lat="47.54464" lon="1.8369782">
        <ele>136.0</ele>
        <time>2021-11-25T08:12:55Z</time>
      </trkpt>
      <trkpt lat="47.54463" lon="1.8369637">
        <ele>136.0</ele>
        <time>2021-11-25T08:12:56Z</time>
      </trkpt>
      <trkpt lat="47.544624" lon="1.836946">
        <ele>136.0</ele>
        <time>2021-11-25T08:12:57Z</time>
      </trkpt>
      <trkpt lat="47.544613" lon="1.8369288">
        <ele>137.0</ele>
        <time>2021-11-25T08:12:58Z</time>
      </trkpt>
      <trkpt lat="47.544605" lon="1.836913">
        <ele>136.0</ele>
        <time>2021-11-25T08:12:59Z</time>
      </trkpt>
      <trkpt lat="47.544594" lon="1.8368999">
        <ele>136.0</ele>
        <time>2021-11-25T08:13:00Z</time>
      </trkpt>
      <trkpt lat="47.544582" lon="1.8368852">
        <ele>136.0</ele>
        <time>2021-11-25T08:13:01Z</time>
      </trkpt>
      <trkpt lat="47.544575" lon="1.8368692">
        <ele>136.0</ele>
        <time>2021-11-25T08:13:02Z</time>
      </trkpt>
      <trkpt lat="47.544567" lon="1.8368565">
        <ele>136.0</ele>
        <time>2021-11-25T08:13:03Z</time>
      </trkpt>
      <trkpt lat="47.54456" lon="1.836843">
        <ele>136.0</ele>
        <time>2021-11-25T08:13:04Z</time>
      </trkpt>
      <trkpt lat="47.54455" lon="1.836832">
        <ele>136.0</ele>
        <time>2021-11-25T08:13:05Z</time>
      </trkpt>
      <trkpt lat="47.544548" lon="1.8368206">
        <ele>137.0</ele>
        <time>2021-11-25T08:13:06Z</time>
      </trkpt>
      <trkpt lat="47.544537" lon="1.8368075">
        <ele>136.0</ele>
        <time>2021-11-25T08:13:07Z</time>
      </trkpt>
      <trkpt lat="47.54453" lon="1.8367935">
        <ele>136.0</ele>
        <time>2021-11-25T08:13:08Z</time>
      </trkpt>
      <trkpt lat="47.54452" lon="1.8367788">
        <ele>136.0</ele>
        <time>2021-11-25T08:13:09Z</time>
      </trkpt>
      <trkpt lat="47.54451" lon="1.8367628">
        <ele>136.0</ele>
        <time>2021-11-25T08:13:10Z</time>
      </trkpt>
      <trkpt lat="47.5445" lon="1.8367459">
        <ele>136.0</ele>
        <time>2021-11-25T08:13:11Z</time>
      </trkpt>
      <trkpt lat="47.54449" lon="1.8367325">
        <ele>136.0</ele>
        <time>2021-11-25T08:13:12Z</time>
      </trkpt>
      <trkpt lat="47.544483" lon="1.8367181">
        <ele>136.0</ele>
        <time>2021-11-25T08:13:13Z</time>
      </trkpt>
      <trkpt lat="47.544476" lon="1.8367054">
        <ele>136.0</ele>
        <time>2021-11-25T08:13:14Z</time>
      </trkpt>
      <trkpt lat="47.544468" lon="1.8366908">
        <ele>135.0</ele>
        <time>2021-11-25T08:13:15Z</time>
      </trkpt>
      <trkpt lat="47.54446" lon="1.8366724">
        <ele>135.0</ele>
        <time>2021-11-25T08:13:16Z</time>
      </trkpt>
      <trkpt lat="47.544453" lon="1.836652">
        <ele>134.0</ele>
        <time>2021-11-25T08:13:17Z</time>
      </trkpt>
      <trkpt lat="47.544445" lon="1.8366334">
        <ele>134.0</ele>
        <time>2021-11-25T08:13:18Z</time>
      </trkpt>
      <trkpt lat="47.544437" lon="1.8366157">
        <ele>134.0</ele>
        <time>2021-11-25T08:13:19Z</time>
      </trkpt>
      <trkpt lat="47.54443" lon="1.8365943">
        <ele>135.0</ele>
        <time>2021-11-25T08:13:20Z</time>
      </trkpt>
      <trkpt lat="47.544422" lon="1.8365761">
        <ele>135.0</ele>
        <time>2021-11-25T08:13:21Z</time>
      </trkpt>
      <trkpt lat="47.544415" lon="1.8365577">
        <ele>135.0</ele>
        <time>2021-11-25T08:13:22Z</time>
      </trkpt>
      <trkpt lat="47.544407" lon="1.8365431">
        <ele>135.0</ele>
        <time>2021-11-25T08:13:23Z</time>
      </trkpt>
      <trkpt lat="47.5444" lon="1.836526">
        <ele>136.0</ele>
        <time>2021-11-25T08:13:24Z</time>
      </trkpt>
      <trkpt lat="47.54439" lon="1.8365093">
        <ele>136.0</ele>
        <time>2021-11-25T08:13:25Z</time>
      </trkpt>
      <trkpt lat="47.544384" lon="1.8364935">
        <ele>137.0</ele>
        <time>2021-11-25T08:13:26Z</time>
      </trkpt>
      <trkpt lat="47.544376" lon="1.8364757">
        <ele>137.0</ele>
        <time>2021-11-25T08:13:27Z</time>
      </trkpt>
      <trkpt lat="47.54437" lon="1.8364624">
        <ele>137.0</ele>
        <time>2021-11-25T08:13:28Z</time>
      </trkpt>
      <trkpt lat="47.544357" lon="1.8364451">
        <ele>136.0</ele>
        <time>2021-11-25T08:13:29Z</time>
      </trkpt>
      <trkpt lat="47.54435" lon="1.8364297">
        <ele>136.0</ele>
        <time>2021-11-25T08:13:30Z</time>
      </trkpt>
      <trkpt lat="47.54434" lon="1.8364133">
        <ele>136.0</ele>
        <time>2021-11-25T08:13:31Z</time>
      </trkpt>
      <trkpt lat="47.54433" lon="1.8363963">
        <ele>136.0</ele>
        <time>2021-11-25T08:13:32Z</time>
      </trkpt>
      <trkpt lat="47.544327" lon="1.8363801">
        <ele>135.0</ele>
        <time>2021-11-25T08:13:33Z</time>
      </trkpt>
      <trkpt lat="47.544323" lon="1.8363686">
        <ele>135.0</ele>
        <time>2021-11-25T08:13:34Z</time>
      </trkpt>
      <trkpt lat="47.544315" lon="1.8363594">
        <ele>136.0</ele>
        <time>2021-11-25T08:13:35Z</time>
      </trkpt>
      <trkpt lat="47.544308" lon="1.8363457">
        <ele>137.0</ele>
        <time>2021-11-25T08:13:36Z</time>
      </trkpt>
      <trkpt lat="47.5443" lon="1.8363252">
        <ele>137.0</ele>
        <time>2021-11-25T08:13:37Z</time>
      </trkpt>
      <trkpt lat="47.544292" lon="1.8363132">
        <ele>137.0</ele>
        <time>2021-11-25T08:13:38Z</time>
      </trkpt>
      <trkpt lat="47.544285" lon="1.8363034">
        <ele>137.0</ele>
        <time>2021-11-25T08:13:39Z</time>
      </trkpt>
      <trkpt lat="47.544273" lon="1.8362924">
        <ele>137.0</ele>
        <time>2021-11-25T08:13:40Z</time>
      </trkpt>
      <trkpt lat="47.54427" lon="1.8362848">
        <ele>137.0</ele>
        <time>2021-11-25T08:13:41Z</time>
      </trkpt>
      <trkpt lat="47.54426" lon="1.8362734">
        <ele>136.0</ele>
        <time>2021-11-25T08:13:42Z</time>
      </trkpt>
      <trkpt lat="47.54425" lon="1.8362632">
        <ele>136.0</ele>
        <time>2021-11-25T08:13:43Z</time>
      </trkpt>
      <trkpt lat="47.544247" lon="1.8362492">
        <ele>136.0</ele>
        <time>2021-11-25T08:13:44Z</time>
      </trkpt>
      <trkpt lat="47.54424" lon="1.8362334">
        <ele>136.0</ele>
        <time>2021-11-25T08:13:45Z</time>
      </trkpt>
      <trkpt lat="47.544228" lon="1.8362164">
        <ele>136.0</ele>
        <time>2021-11-25T08:13:46Z</time>
      </trkpt>
      <trkpt lat="47.544216" lon="1.8361993">
        <ele>137.0</ele>
        <time>2021-11-25T08:13:47Z</time>
      </trkpt>
      <trkpt lat="47.544205" lon="1.8361849">
        <ele>137.0</ele>
        <time>2021-11-25T08:13:48Z</time>
      </trkpt>
      <trkpt lat="47.544197" lon="1.8361682">
        <ele>137.0</ele>
        <time>2021-11-25T08:13:49Z</time>
      </trkpt>
      <trkpt lat="47.544193" lon="1.8361523">
        <ele>137.0</ele>
        <time>2021-11-25T08:13:50Z</time>
      </trkpt>
      <trkpt lat="47.544186" lon="1.8361396">
        <ele>137.0</ele>
        <time>2021-11-25T08:13:51Z</time>
      </trkpt>
      <trkpt lat="47.544178" lon="1.836124">
        <ele>137.0</ele>
        <time>2021-11-25T08:13:52Z</time>
      </trkpt>
      <trkpt lat="47.54417" lon="1.8361115">
        <ele>137.0</ele>
        <time>2021-11-25T08:13:53Z</time>
      </trkpt>
      <trkpt lat="47.544163" lon="1.8360986">
        <ele>137.0</ele>
        <time>2021-11-25T08:13:54Z</time>
      </trkpt>
      <trkpt lat="47.544155" lon="1.8360858">
        <ele>136.0</ele>
        <time>2021-11-25T08:13:55Z</time>
      </trkpt>
      <trkpt lat="47.544147" lon="1.8360708">
        <ele>136.0</ele>
        <time>2021-11-25T08:13:56Z</time>
      </trkpt>
      <trkpt lat="47.54414" lon="1.8360538">
        <ele>136.0</ele>
        <time>2021-11-25T08:13:57Z</time>
      </trkpt>
      <trkpt lat="47.544132" lon="1.8360362">
        <ele>137.0</ele>
        <time>2021-11-25T08:13:58Z</time>
      </trkpt>
      <trkpt lat="47.544125" lon="1.8360226">
        <ele>137.0</ele>
        <time>2021-11-25T08:13:59Z</time>
      </trkpt>
      <trkpt lat="47.544113" lon="1.8360096">
        <ele>138.0</ele>
        <time>2021-11-25T08:14:00Z</time>
      </trkpt>
      <trkpt lat="47.544106" lon="1.8359962">
        <ele>138.0</ele>
        <time>2021-11-25T08:14:01Z</time>
      </trkpt>
      <trkpt lat="47.544094" lon="1.8359829">
        <ele>137.0</ele>
        <time>2021-11-25T08:14:02Z</time>
      </trkpt>
      <trkpt lat="47.544086" lon="1.8359684">
        <ele>137.0</ele>
        <time>2021-11-25T08:14:03Z</time>
      </trkpt>
      <trkpt lat="47.544075" lon="1.8359528">
        <ele>137.0</ele>
        <time>2021-11-25T08:14:04Z</time>
      </trkpt>
      <trkpt lat="47.544067" lon="1.835933">
        <ele>137.0</ele>
        <time>2021-11-25T08:14:05Z</time>
      </trkpt>
      <trkpt lat="47.54406" lon="1.8359171">
        <ele>136.0</ele>
        <time>2021-11-25T08:14:06Z</time>
      </trkpt>
      <trkpt lat="47.544052" lon="1.835901">
        <ele>136.0</ele>
        <time>2021-11-25T08:14:07Z</time>
      </trkpt>
      <trkpt lat="47.544044" lon="1.8358839">
        <ele>136.0</ele>
        <time>2021-11-25T08:14:08Z</time>
      </trkpt>
      <trkpt lat="47.54404" lon="1.8358727">
        <ele>136.0</ele>
        <time>2021-11-25T08:14:09Z</time>
      </trkpt>
      <trkpt lat="47.544033" lon="1.8358622">
        <ele>135.0</ele>
        <time>2021-11-25T08:14:10Z</time>
      </trkpt>
      <trkpt lat="47.54403" lon="1.8358513">
        <ele>135.0</ele>
        <time>2021-11-25T08:14:11Z</time>
      </trkpt>
      <trkpt lat="47.544018" lon="1.8358415">
        <ele>134.0</ele>
        <time>2021-11-25T08:14:12Z</time>
      </trkpt>
      <trkpt lat="47.544014" lon="1.835832">
        <ele>134.0</ele>
        <time>2021-11-25T08:14:13Z</time>
      </trkpt>
      <trkpt lat="47.544006" lon="1.8358217">
        <ele>134.0</ele>
        <time>2021-11-25T08:14:14Z</time>
      </trkpt>
      <trkpt lat="47.544" lon="1.8358096">
        <ele>134.0</ele>
        <time>2021-11-25T08:14:15Z</time>
      </trkpt>
      <trkpt lat="47.54399" lon="1.8357961">
        <ele>134.0</ele>
        <time>2021-11-25T08:14:16Z</time>
      </trkpt>
      <trkpt lat="47.543987" lon="1.8357764">
        <ele>135.0</ele>
        <time>2021-11-25T08:14:17Z</time>
      </trkpt>
      <trkpt lat="47.54398" lon="1.8357517">
        <ele>135.0</ele>
        <time>2021-11-25T08:14:18Z</time>
      </trkpt>
      <trkpt lat="47.543972" lon="1.8357339">
        <ele>135.0</ele>
        <time>2021-11-25T08:14:19Z</time>
      </trkpt>
      <trkpt lat="47.54396" lon="1.8357153">
        <ele>135.0</ele>
        <time>2021-11-25T08:14:20Z</time>
      </trkpt>
      <trkpt lat="47.54395" lon="1.8356951">
        <ele>136.0</ele>
        <time>2021-11-25T08:14:21Z</time>
      </trkpt>
      <trkpt lat="47.54394" lon="1.8356798">
        <ele>136.0</ele>
        <time>2021-11-25T08:14:22Z</time>
      </trkpt>
      <trkpt lat="47.543934" lon="1.835668">
        <ele>136.0</ele>
        <time>2021-11-25T08:14:23Z</time>
      </trkpt>
      <trkpt lat="47.54393" lon="1.8356582">
        <ele>136.0</ele>
        <time>2021-11-25T08:14:24Z</time>
      </trkpt>
      <trkpt lat="47.543922" lon="1.8356458">
        <ele>136.0</ele>
        <time>2021-11-25T08:14:25Z</time>
      </trkpt>
      <trkpt lat="47.54392" lon="1.8356327">
        <ele>135.0</ele>
        <time>2021-11-25T08:14:26Z</time>
      </trkpt>
      <trkpt lat="47.54391" lon="1.8356175">
        <ele>135.0</ele>
        <time>2021-11-25T08:14:27Z</time>
      </trkpt>
      <trkpt lat="47.5439" lon="1.8356024">
        <ele>136.0</ele>
        <time>2021-11-25T08:14:28Z</time>
      </trkpt>
      <trkpt lat="47.543884" lon="1.8355885">
        <ele>136.0</ele>
        <time>2021-11-25T08:14:29Z</time>
      </trkpt>
      <trkpt lat="47.543873" lon="1.8355721">
        <ele>137.0</ele>
        <time>2021-11-25T08:14:30Z</time>
      </trkpt>
      <trkpt lat="47.543865" lon="1.8355603">
        <ele>136.0</ele>
        <time>2021-11-25T08:14:31Z</time>
      </trkpt>
      <trkpt lat="47.543858" lon="1.8355519">
        <ele>136.0</ele>
        <time>2021-11-25T08:14:32Z</time>
      </trkpt>
      <trkpt lat="47.543846" lon="1.8355368">
        <ele>136.0</ele>
        <time>2021-11-25T08:14:33Z</time>
      </trkpt>
      <trkpt lat="47.54384" lon="1.8355261">
        <ele>135.0</ele>
        <time>2021-11-25T08:14:34Z</time>
      </trkpt>
      <trkpt lat="47.54383" lon="1.8355128">
        <ele>135.0</ele>
        <time>2021-11-25T08:14:35Z</time>
      </trkpt>
      <trkpt lat="47.543823" lon="1.8355005">
        <ele>135.0</ele>
        <time>2021-11-25T08:14:36Z</time>
      </trkpt>
      <trkpt lat="47.54381" lon="1.8354883">
        <ele>135.0</ele>
        <time>2021-11-25T08:14:37Z</time>
      </trkpt>
      <trkpt lat="47.543797" lon="1.8354697">
        <ele>135.0</ele>
        <time>2021-11-25T08:14:38Z</time>
      </trkpt>
      <trkpt lat="47.54379" lon="1.8354532">
        <ele>134.0</ele>
        <time>2021-11-25T08:14:39Z</time>
      </trkpt>
      <trkpt lat="47.543777" lon="1.8354322">
        <ele>135.0</ele>
        <time>2021-11-25T08:14:40Z</time>
      </trkpt>
      <trkpt lat="47.543766" lon="1.8354169">
        <ele>135.0</ele>
        <time>2021-11-25T08:14:41Z</time>
      </trkpt>
      <trkpt lat="47.543755" lon="1.8353965">
        <ele>135.0</ele>
        <time>2021-11-25T08:14:42Z</time>
      </trkpt>
      <trkpt lat="47.543743" lon="1.8353821">
        <ele>135.0</ele>
        <time>2021-11-25T08:14:43Z</time>
      </trkpt>
      <trkpt lat="47.543736" lon="1.8353664">
        <ele>135.0</ele>
        <time>2021-11-25T08:14:44Z</time>
      </trkpt>
      <trkpt lat="47.543728" lon="1.835353">
        <ele>135.0</ele>
        <time>2021-11-25T08:14:45Z</time>
      </trkpt>
      <trkpt lat="47.54372" lon="1.8353399">
        <ele>134.0</ele>
        <time>2021-11-25T08:14:46Z</time>
      </trkpt>
      <trkpt lat="47.543713" lon="1.8353304">
        <ele>134.0</ele>
        <time>2021-11-25T08:14:47Z</time>
      </trkpt>
      <trkpt lat="47.5437" lon="1.8353225">
        <ele>134.0</ele>
        <time>2021-11-25T08:14:48Z</time>
      </trkpt>
      <trkpt lat="47.543694" lon="1.8353121">
        <ele>134.0</ele>
        <time>2021-11-25T08:14:49Z</time>
      </trkpt>
      <trkpt lat="47.543686" lon="1.8352971">
        <ele>134.0</ele>
        <time>2021-11-25T08:14:50Z</time>
      </trkpt>
      <trkpt lat="47.543674" lon="1.8352834">
        <ele>134.0</ele>
        <time>2021-11-25T08:14:51Z</time>
      </trkpt>
      <trkpt lat="47.543663" lon="1.8352771">
        <ele>134.0</ele>
        <time>2021-11-25T08:14:52Z</time>
      </trkpt>
      <trkpt lat="47.54365" lon="1.8352689">
        <ele>134.0</ele>
        <time>2021-11-25T08:14:53Z</time>
      </trkpt>
      <trkpt lat="47.543644" lon="1.8352591">
        <ele>134.0</ele>
        <time>2021-11-25T08:14:54Z</time>
      </trkpt>
      <trkpt lat="47.54363" lon="1.835244">
        <ele>135.0</ele>
        <time>2021-11-25T08:14:55Z</time>
      </trkpt>
      <trkpt lat="47.54362" lon="1.8352411">
        <ele>135.0</ele>
        <time>2021-11-25T08:14:56Z</time>
      </trkpt>
      <trkpt lat="47.54361" lon="1.8352348">
        <ele>135.0</ele>
        <time>2021-11-25T08:14:57Z</time>
      </trkpt>
      <trkpt lat="47.5436" lon="1.8352238">
        <ele>136.0</ele>
        <time>2021-11-25T08:14:58Z</time>
      </trkpt>
      <trkpt lat="47.543587" lon="1.8352172">
        <ele>136.0</ele>
        <time>2021-11-25T08:14:59Z</time>
      </trkpt>
      <trkpt lat="47.543583" lon="1.8352098">
        <ele>136.0</ele>
        <time>2021-11-25T08:15:00Z</time>
      </trkpt>
      <trkpt lat="47.54358" lon="1.8352019">
        <ele>136.0</ele>
        <time>2021-11-25T08:15:01Z</time>
      </trkpt>
      <trkpt lat="47.54358" lon="1.8352019">
        <ele>136.0</ele>
        <time>2021-11-25T08:15:02Z</time>
      </trkpt>
      <trkpt lat="47.54358" lon="1.8352019">
        <ele>136.0</ele>
        <time>2021-11-25T08:15:03Z</time>
      </trkpt>
      <trkpt lat="47.543568" lon="1.8351767">
        <ele>137.0</ele>
        <time>2021-11-25T08:15:04Z</time>
      </trkpt>
      <trkpt lat="47.54356" lon="1.8351622">
        <ele>137.0</ele>
        <time>2021-11-25T08:15:05Z</time>
      </trkpt>
      <trkpt lat="47.543556" lon="1.8351481">
        <ele>137.0</ele>
        <time>2021-11-25T08:15:06Z</time>
      </trkpt>
      <trkpt lat="47.54355" lon="1.8351325">
        <ele>136.0</ele>
        <time>2021-11-25T08:15:07Z</time>
      </trkpt>
      <trkpt lat="47.54355" lon="1.8351325">
        <ele>136.0</ele>
        <time>2021-11-25T08:15:08Z</time>
      </trkpt>
      <trkpt lat="47.54355" lon="1.8351325">
        <ele>136.0</ele>
        <time>2021-11-25T08:15:09Z</time>
      </trkpt>
      <trkpt lat="47.54353" lon="1.8350992">
        <ele>137.0</ele>
        <time>2021-11-25T08:15:10Z</time>
      </trkpt>
      <trkpt lat="47.54352" lon="1.83509">
        <ele>138.0</ele>
        <time>2021-11-25T08:15:11Z</time>
      </trkpt>
      <trkpt lat="47.54351" lon="1.8350755">
        <ele>138.0</ele>
        <time>2021-11-25T08:15:12Z</time>
      </trkpt>
      <trkpt lat="47.5435" lon="1.8350548">
        <ele>138.0</ele>
        <time>2021-11-25T08:15:13Z</time>
      </trkpt>
      <trkpt lat="47.54349" lon="1.8350383">
        <ele>138.0</ele>
        <time>2021-11-25T08:15:14Z</time>
      </trkpt>
      <trkpt lat="47.543484" lon="1.8350227">
        <ele>138.0</ele>
        <time>2021-11-25T08:15:15Z</time>
      </trkpt>
      <trkpt lat="47.543476" lon="1.8350064">
        <ele>138.0</ele>
        <time>2021-11-25T08:15:16Z</time>
      </trkpt>
      <trkpt lat="47.54347" lon="1.834992">
        <ele>138.0</ele>
        <time>2021-11-25T08:15:17Z</time>
      </trkpt>
      <trkpt lat="47.54346" lon="1.8349787">
        <ele>138.0</ele>
        <time>2021-11-25T08:15:18Z</time>
      </trkpt>
      <trkpt lat="47.543457" lon="1.8349644">
        <ele>138.0</ele>
        <time>2021-11-25T08:15:19Z</time>
      </trkpt>
      <trkpt lat="47.54345" lon="1.8349546">
        <ele>137.0</ele>
        <time>2021-11-25T08:15:20Z</time>
      </trkpt>
      <trkpt lat="47.54344" lon="1.8349442">
        <ele>137.0</ele>
        <time>2021-11-25T08:15:21Z</time>
      </trkpt>
      <trkpt lat="47.54343" lon="1.8349336">
        <ele>137.0</ele>
        <time>2021-11-25T08:15:22Z</time>
      </trkpt>
      <trkpt lat="47.543423" lon="1.8349245">
        <ele>137.0</ele>
        <time>2021-11-25T08:15:23Z</time>
      </trkpt>
      <trkpt lat="47.543415" lon="1.8349131">
        <ele>136.0</ele>
        <time>2021-11-25T08:15:24Z</time>
      </trkpt>
      <trkpt lat="47.543407" lon="1.8348991">
        <ele>136.0</ele>
        <time>2021-11-25T08:15:25Z</time>
      </trkpt>
      <trkpt lat="47.5434" lon="1.8348866">
        <ele>136.0</ele>
        <time>2021-11-25T08:15:26Z</time>
      </trkpt>
      <trkpt lat="47.54339" lon="1.8348726">
        <ele>136.0</ele>
        <time>2021-11-25T08:15:27Z</time>
      </trkpt>
      <trkpt lat="47.54338" lon="1.8348598">
        <ele>136.0</ele>
        <time>2021-11-25T08:15:28Z</time>
      </trkpt>
      <trkpt lat="47.54337" lon="1.8348482">
        <ele>136.0</ele>
        <time>2021-11-25T08:15:29Z</time>
      </trkpt>
      <trkpt lat="47.54336" lon="1.8348312">
        <ele>136.0</ele>
        <time>2021-11-25T08:15:30Z</time>
      </trkpt>
      <trkpt lat="47.543354" lon="1.8348147">
        <ele>136.0</ele>
        <time>2021-11-25T08:15:31Z</time>
      </trkpt>
      <trkpt lat="47.543346" lon="1.8348017">
        <ele>136.0</ele>
        <time>2021-11-25T08:15:32Z</time>
      </trkpt>
      <trkpt lat="47.543335" lon="1.8347893">
        <ele>136.0</ele>
        <time>2021-11-25T08:15:33Z</time>
      </trkpt>
      <trkpt lat="47.543327" lon="1.8347814">
        <ele>136.0</ele>
        <time>2021-11-25T08:15:34Z</time>
      </trkpt>
      <trkpt lat="47.54332" lon="1.8347683">
        <ele>136.0</ele>
        <time>2021-11-25T08:15:35Z</time>
      </trkpt>
      <trkpt lat="47.54331" lon="1.8347577">
        <ele>136.0</ele>
        <time>2021-11-25T08:15:36Z</time>
      </trkpt>
      <trkpt lat="47.543297" lon="1.8347477">
        <ele>136.0</ele>
        <time>2021-11-25T08:15:37Z</time>
      </trkpt>
      <trkpt lat="47.54329" lon="1.8347331">
        <ele>136.0</ele>
        <time>2021-11-25T08:15:38Z</time>
      </trkpt>
      <trkpt lat="47.543278" lon="1.8347226">
        <ele>136.0</ele>
        <time>2021-11-25T08:15:39Z</time>
      </trkpt>
      <trkpt lat="47.543266" lon="1.8347133">
        <ele>137.0</ele>
        <time>2021-11-25T08:15:40Z</time>
      </trkpt>
      <trkpt lat="47.543255" lon="1.8346994">
        <ele>137.0</ele>
        <time>2021-11-25T08:15:41Z</time>
      </trkpt>
      <trkpt lat="47.543247" lon="1.8346865">
        <ele>137.0</ele>
        <time>2021-11-25T08:15:42Z</time>
      </trkpt>
      <trkpt lat="47.543236" lon="1.8346756">
        <ele>136.0</ele>
        <time>2021-11-25T08:15:43Z</time>
      </trkpt>
      <trkpt lat="47.54322" lon="1.8346629">
        <ele>136.0</ele>
        <time>2021-11-25T08:15:44Z</time>
      </trkpt>
      <trkpt lat="47.543213" lon="1.8346504">
        <ele>136.0</ele>
        <time>2021-11-25T08:15:45Z</time>
      </trkpt>
      <trkpt lat="47.543205" lon="1.8346406">
        <ele>136.0</ele>
        <time>2021-11-25T08:15:46Z</time>
      </trkpt>
      <trkpt lat="47.543194" lon="1.8346297">
        <ele>136.0</ele>
        <time>2021-11-25T08:15:47Z</time>
      </trkpt>
      <trkpt lat="47.543182" lon="1.8346181">
        <ele>136.0</ele>
        <time>2021-11-25T08:15:48Z</time>
      </trkpt>
      <trkpt lat="47.54317" lon="1.8346076">
        <ele>136.0</ele>
        <time>2021-11-25T08:15:49Z</time>
      </trkpt>
      <trkpt lat="47.54316" lon="1.8345925">
        <ele>136.0</ele>
        <time>2021-11-25T08:15:50Z</time>
      </trkpt>
      <trkpt lat="47.543148" lon="1.8345767">
        <ele>137.0</ele>
        <time>2021-11-25T08:15:51Z</time>
      </trkpt>
      <trkpt lat="47.543133" lon="1.8345634">
        <ele>137.0</ele>
        <time>2021-11-25T08:15:52Z</time>
      </trkpt>
      <trkpt lat="47.54312" lon="1.8345428">
        <ele>137.0</ele>
        <time>2021-11-25T08:15:53Z</time>
      </trkpt>
      <trkpt lat="47.543106" lon="1.8345318">
        <ele>137.0</ele>
        <time>2021-11-25T08:15:54Z</time>
      </trkpt>
      <trkpt lat="47.543095" lon="1.8345122">
        <ele>137.0</ele>
        <time>2021-11-25T08:15:55Z</time>
      </trkpt>
      <trkpt lat="47.543083" lon="1.8344967">
        <ele>137.0</ele>
        <time>2021-11-25T08:15:56Z</time>
      </trkpt>
      <trkpt lat="47.54307" lon="1.8344854">
        <ele>137.0</ele>
        <time>2021-11-25T08:15:57Z</time>
      </trkpt>
      <trkpt lat="47.54306" lon="1.8344767">
        <ele>137.0</ele>
        <time>2021-11-25T08:15:58Z</time>
      </trkpt>
      <trkpt lat="47.54305" lon="1.8344641">
        <ele>137.0</ele>
        <time>2021-11-25T08:15:59Z</time>
      </trkpt>
      <trkpt lat="47.543037" lon="1.8344526">
        <ele>138.0</ele>
        <time>2021-11-25T08:16:00Z</time>
      </trkpt>
      <trkpt lat="47.54303" lon="1.8344445">
        <ele>138.0</ele>
        <time>2021-11-25T08:16:01Z</time>
      </trkpt>
      <trkpt lat="47.54302" lon="1.8344352">
        <ele>138.0</ele>
        <time>2021-11-25T08:16:02Z</time>
      </trkpt>
      <trkpt lat="47.543015" lon="1.8344222">
        <ele>138.0</ele>
        <time>2021-11-25T08:16:03Z</time>
      </trkpt>
      <trkpt lat="47.543007" lon="1.8344089">
        <ele>138.0</ele>
        <time>2021-11-25T08:16:04Z</time>
      </trkpt>
      <trkpt lat="47.542995" lon="1.834395">
        <ele>138.0</ele>
        <time>2021-11-25T08:16:05Z</time>
      </trkpt>
      <trkpt lat="47.542984" lon="1.8343779">
        <ele>138.0</ele>
        <time>2021-11-25T08:16:06Z</time>
      </trkpt>
      <trkpt lat="47.542973" lon="1.8343632">
        <ele>138.0</ele>
        <time>2021-11-25T08:16:07Z</time>
      </trkpt>
      <trkpt lat="47.54296" lon="1.834351">
        <ele>138.0</ele>
        <time>2021-11-25T08:16:08Z</time>
      </trkpt>
      <trkpt lat="47.542953" lon="1.8343364">
        <ele>138.0</ele>
        <time>2021-11-25T08:16:09Z</time>
      </trkpt>
      <trkpt lat="47.542946" lon="1.8343239">
        <ele>138.0</ele>
        <time>2021-11-25T08:16:10Z</time>
      </trkpt>
      <trkpt lat="47.54294" lon="1.8343095">
        <ele>137.0</ele>
        <time>2021-11-25T08:16:11Z</time>
      </trkpt>
      <trkpt lat="47.542927" lon="1.8342983">
        <ele>138.0</ele>
        <time>2021-11-25T08:16:12Z</time>
      </trkpt>
      <trkpt lat="47.54292" lon="1.8342857">
        <ele>138.0</ele>
        <time>2021-11-25T08:16:13Z</time>
      </trkpt>
      <trkpt lat="47.54291" lon="1.8342681">
        <ele>138.0</ele>
        <time>2021-11-25T08:16:14Z</time>
      </trkpt>
      <trkpt lat="47.542908" lon="1.83426">
        <ele>137.0</ele>
        <time>2021-11-25T08:16:15Z</time>
      </trkpt>
      <trkpt lat="47.5429" lon="1.8342506">
        <ele>137.0</ele>
        <time>2021-11-25T08:16:16Z</time>
      </trkpt>
      <trkpt lat="47.542892" lon="1.8342363">
        <ele>137.0</ele>
        <time>2021-11-25T08:16:17Z</time>
      </trkpt>
      <trkpt lat="47.542885" lon="1.8342209">
        <ele>138.0</ele>
        <time>2021-11-25T08:16:18Z</time>
      </trkpt>
      <trkpt lat="47.542873" lon="1.8342034">
        <ele>138.0</ele>
        <time>2021-11-25T08:16:19Z</time>
      </trkpt>
      <trkpt lat="47.542862" lon="1.8341868">
        <ele>138.0</ele>
        <time>2021-11-25T08:16:20Z</time>
      </trkpt>
      <trkpt lat="47.542847" lon="1.8341697">
        <ele>138.0</ele>
        <time>2021-11-25T08:16:21Z</time>
      </trkpt>
      <trkpt lat="47.54284" lon="1.8341604">
        <ele>139.0</ele>
        <time>2021-11-25T08:16:22Z</time>
      </trkpt>
      <trkpt lat="47.54283" lon="1.8341467">
        <ele>139.0</ele>
        <time>2021-11-25T08:16:23Z</time>
      </trkpt>
      <trkpt lat="47.542824" lon="1.8341365">
        <ele>138.0</ele>
        <time>2021-11-25T08:16:24Z</time>
      </trkpt>
      <trkpt lat="47.542816" lon="1.8341266">
        <ele>138.0</ele>
        <time>2021-11-25T08:16:25Z</time>
      </trkpt>
      <trkpt lat="47.54281" lon="1.8341168">
        <ele>137.0</ele>
        <time>2021-11-25T08:16:26Z</time>
      </trkpt>
      <trkpt lat="47.54281" lon="1.8341168">
        <ele>137.0</ele>
        <time>2021-11-25T08:16:27Z</time>
      </trkpt>
      <trkpt lat="47.542797" lon="1.8340913">
        <ele>137.0</ele>
        <time>2021-11-25T08:16:28Z</time>
      </trkpt>
      <trkpt lat="47.542793" lon="1.8340802">
        <ele>137.0</ele>
        <time>2021-11-25T08:16:29Z</time>
      </trkpt>
      <trkpt lat="47.54278" lon="1.8340647">
        <ele>137.0</ele>
        <time>2021-11-25T08:16:30Z</time>
      </trkpt>
      <trkpt lat="47.54277" lon="1.8340532">
        <ele>137.0</ele>
        <time>2021-11-25T08:16:31Z</time>
      </trkpt>
      <trkpt lat="47.542763" lon="1.8340408">
        <ele>136.0</ele>
        <time>2021-11-25T08:16:32Z</time>
      </trkpt>
      <trkpt lat="47.54275" lon="1.8340284">
        <ele>136.0</ele>
        <time>2021-11-25T08:16:33Z</time>
      </trkpt>
      <trkpt lat="47.54274" lon="1.8340145">
        <ele>136.0</ele>
        <time>2021-11-25T08:16:34Z</time>
      </trkpt>
      <trkpt lat="47.542732" lon="1.8339993">
        <ele>135.0</ele>
        <time>2021-11-25T08:16:35Z</time>
      </trkpt>
      <trkpt lat="47.542725" lon="1.8339863">
        <ele>135.0</ele>
        <time>2021-11-25T08:16:36Z</time>
      </trkpt>
      <trkpt lat="47.542713" lon="1.8339756">
        <ele>135.0</ele>
        <time>2021-11-25T08:16:37Z</time>
      </trkpt>
      <trkpt lat="47.542706" lon="1.8339676">
        <ele>136.0</ele>
        <time>2021-11-25T08:16:38Z</time>
      </trkpt>
      <trkpt lat="47.542694" lon="1.8339564">
        <ele>135.0</ele>
        <time>2021-11-25T08:16:39Z</time>
      </trkpt>
      <trkpt lat="47.542686" lon="1.8339431">
        <ele>135.0</ele>
        <time>2021-11-25T08:16:40Z</time>
      </trkpt>
      <trkpt lat="47.54268" lon="1.8339337">
        <ele>135.0</ele>
        <time>2021-11-25T08:16:41Z</time>
      </trkpt>
      <trkpt lat="47.542667" lon="1.8339243">
        <ele>134.0</ele>
        <time>2021-11-25T08:16:42Z</time>
      </trkpt>
      <trkpt lat="47.54266" lon="1.8339139">
        <ele>134.0</ele>
        <time>2021-11-25T08:16:43Z</time>
      </trkpt>
      <trkpt lat="47.54265" lon="1.833903">
        <ele>134.0</ele>
        <time>2021-11-25T08:16:44Z</time>
      </trkpt>
      <trkpt lat="47.54264" lon="1.8338901">
        <ele>134.0</ele>
        <time>2021-11-25T08:16:45Z</time>
      </trkpt>
      <trkpt lat="47.542633" lon="1.8338776">
        <ele>134.0</ele>
        <time>2021-11-25T08:16:46Z</time>
      </trkpt>
      <trkpt lat="47.54263" lon="1.8338643">
        <ele>134.0</ele>
        <time>2021-11-25T08:16:47Z</time>
      </trkpt>
      <trkpt lat="47.542618" lon="1.8338509">
        <ele>134.0</ele>
        <time>2021-11-25T08:16:48Z</time>
      </trkpt>
      <trkpt lat="47.54261" lon="1.8338445">
        <ele>135.0</ele>
        <time>2021-11-25T08:16:49Z</time>
      </trkpt>
      <trkpt lat="47.542606" lon="1.8338344">
        <ele>135.0</ele>
        <time>2021-11-25T08:16:50Z</time>
      </trkpt>
      <trkpt lat="47.5426" lon="1.8338234">
        <ele>135.0</ele>
        <time>2021-11-25T08:16:51Z</time>
      </trkpt>
      <trkpt lat="47.542587" lon="1.833815">
        <ele>135.0</ele>
        <time>2021-11-25T08:16:52Z</time>
      </trkpt>
      <trkpt lat="47.542576" lon="1.8337992">
        <ele>135.0</ele>
        <time>2021-11-25T08:16:53Z</time>
      </trkpt>
      <trkpt lat="47.542564" lon="1.8337907">
        <ele>136.0</ele>
        <time>2021-11-25T08:16:54Z</time>
      </trkpt>
      <trkpt lat="47.54256" lon="1.8337818">
        <ele>136.0</ele>
        <time>2021-11-25T08:16:55Z</time>
      </trkpt>
      <trkpt lat="47.542553" lon="1.8337718">
        <ele>136.0</ele>
        <time>2021-11-25T08:16:56Z</time>
      </trkpt>
      <trkpt lat="47.542545" lon="1.8337579">
        <ele>136.0</ele>
        <time>2021-11-25T08:16:57Z</time>
      </trkpt>
      <trkpt lat="47.542538" lon="1.8337454">
        <ele>136.0</ele>
        <time>2021-11-25T08:16:58Z</time>
      </trkpt>
      <trkpt lat="47.54253" lon="1.8337333">
        <ele>136.0</ele>
        <time>2021-11-25T08:16:59Z</time>
      </trkpt>
      <trkpt lat="47.54252" lon="1.833719">
        <ele>136.0</ele>
        <time>2021-11-25T08:17:00Z</time>
      </trkpt>
      <trkpt lat="47.542507" lon="1.8337067">
        <ele>136.0</ele>
        <time>2021-11-25T08:17:01Z</time>
      </trkpt>
      <trkpt lat="47.5425" lon="1.8336952">
        <ele>136.0</ele>
        <time>2021-11-25T08:17:02Z</time>
      </trkpt>
      <trkpt lat="47.54249" lon="1.8336831">
        <ele>136.0</ele>
        <time>2021-11-25T08:17:03Z</time>
      </trkpt>
      <trkpt lat="47.542477" lon="1.8336668">
        <ele>136.0</ele>
        <time>2021-11-25T08:17:04Z</time>
      </trkpt>
      <trkpt lat="47.54247" lon="1.8336523">
        <ele>136.0</ele>
        <time>2021-11-25T08:17:05Z</time>
      </trkpt>
      <trkpt lat="47.54246" lon="1.8336382">
        <ele>136.0</ele>
        <time>2021-11-25T08:17:06Z</time>
      </trkpt>
      <trkpt lat="47.54245" lon="1.8336192">
        <ele>136.0</ele>
        <time>2021-11-25T08:17:07Z</time>
      </trkpt>
      <trkpt lat="47.542435" lon="1.8336036">
        <ele>136.0</ele>
        <time>2021-11-25T08:17:08Z</time>
      </trkpt>
      <trkpt lat="47.542427" lon="1.8335901">
        <ele>136.0</ele>
        <time>2021-11-25T08:17:09Z</time>
      </trkpt>
      <trkpt lat="47.54242" lon="1.8335749">
        <ele>135.0</ele>
        <time>2021-11-25T08:17:10Z</time>
      </trkpt>
      <trkpt lat="47.54241" lon="1.8335555">
        <ele>135.0</ele>
        <time>2021-11-25T08:17:11Z</time>
      </trkpt>
      <trkpt lat="47.542404" lon="1.8335404">
        <ele>135.0</ele>
        <time>2021-11-25T08:17:12Z</time>
      </trkpt>
      <trkpt lat="47.542393" lon="1.8335235">
        <ele>134.0</ele>
        <time>2021-11-25T08:17:13Z</time>
      </trkpt>
      <trkpt lat="47.542385" lon="1.8335072">
        <ele>134.0</ele>
        <time>2021-11-25T08:17:14Z</time>
      </trkpt>
      <trkpt lat="47.54238" lon="1.8334888">
        <ele>134.0</ele>
        <time>2021-11-25T08:17:15Z</time>
      </trkpt>
      <trkpt lat="47.542374" lon="1.8334719">
        <ele>134.0</ele>
        <time>2021-11-25T08:17:16Z</time>
      </trkpt>
      <trkpt lat="47.542366" lon="1.8334566">
        <ele>134.0</ele>
        <time>2021-11-25T08:17:17Z</time>
      </trkpt>
      <trkpt lat="47.542362" lon="1.8334428">
        <ele>134.0</ele>
        <time>2021-11-25T08:17:18Z</time>
      </trkpt>
      <trkpt lat="47.542355" lon="1.833429">
        <ele>133.0</ele>
        <time>2021-11-25T08:17:19Z</time>
      </trkpt>
      <trkpt lat="47.54235" lon="1.8334161">
        <ele>133.0</ele>
        <time>2021-11-25T08:17:20Z</time>
      </trkpt>
      <trkpt lat="47.542343" lon="1.8334035">
        <ele>133.0</ele>
        <time>2021-11-25T08:17:21Z</time>
      </trkpt>
      <trkpt lat="47.542343" lon="1.8334035">
        <ele>133.0</ele>
        <time>2021-11-25T08:17:22Z</time>
      </trkpt>
      <trkpt lat="47.54233" lon="1.8333789">
        <ele>132.0</ele>
        <time>2021-11-25T08:17:23Z</time>
      </trkpt>
      <trkpt lat="47.542324" lon="1.8333628">
        <ele>132.0</ele>
        <time>2021-11-25T08:17:24Z</time>
      </trkpt>
      <trkpt lat="47.542316" lon="1.833346">
        <ele>132.0</ele>
        <time>2021-11-25T08:17:25Z</time>
      </trkpt>
      <trkpt lat="47.54231" lon="1.8333304">
        <ele>132.0</ele>
        <time>2021-11-25T08:17:26Z</time>
      </trkpt>
      <trkpt lat="47.5423" lon="1.8333116">
        <ele>132.0</ele>
        <time>2021-11-25T08:17:27Z</time>
      </trkpt>
      <trkpt lat="47.542294" lon="1.8332944">
        <ele>132.0</ele>
        <time>2021-11-25T08:17:28Z</time>
      </trkpt>
      <trkpt lat="47.54229" lon="1.8332782">
        <ele>131.0</ele>
        <time>2021-11-25T08:17:29Z</time>
      </trkpt>
      <trkpt lat="47.542282" lon="1.8332626">
        <ele>131.0</ele>
        <time>2021-11-25T08:17:30Z</time>
      </trkpt>
      <trkpt lat="47.542274" lon="1.8332491">
        <ele>131.0</ele>
        <time>2021-11-25T08:17:31Z</time>
      </trkpt>
      <trkpt lat="47.54227" lon="1.833232">
        <ele>131.0</ele>
        <time>2021-11-25T08:17:32Z</time>
      </trkpt>
      <trkpt lat="47.542267" lon="1.8332115">
        <ele>131.0</ele>
        <time>2021-11-25T08:17:33Z</time>
      </trkpt>
      <trkpt lat="47.542263" lon="1.8331937">
        <ele>131.0</ele>
        <time>2021-11-25T08:17:34Z</time>
      </trkpt>
      <trkpt lat="47.54226" lon="1.8331723">
        <ele>131.0</ele>
        <time>2021-11-25T08:17:35Z</time>
      </trkpt>
      <trkpt lat="47.542255" lon="1.8331528">
        <ele>131.0</ele>
        <time>2021-11-25T08:17:36Z</time>
      </trkpt>
      <trkpt lat="47.54225" lon="1.8331342">
        <ele>131.0</ele>
        <time>2021-11-25T08:17:37Z</time>
      </trkpt>
      <trkpt lat="47.542248" lon="1.8331139">
        <ele>131.0</ele>
        <time>2021-11-25T08:17:38Z</time>
      </trkpt>
      <trkpt lat="47.54224" lon="1.8330928">
        <ele>131.0</ele>
        <time>2021-11-25T08:17:39Z</time>
      </trkpt>
      <trkpt lat="47.542236" lon="1.8330678">
        <ele>131.0</ele>
        <time>2021-11-25T08:17:40Z</time>
      </trkpt>
      <trkpt lat="47.54223" lon="1.8330463">
        <ele>131.0</ele>
        <time>2021-11-25T08:17:41Z</time>
      </trkpt>
      <trkpt lat="47.542225" lon="1.8330263">
        <ele>132.0</ele>
        <time>2021-11-25T08:17:42Z</time>
      </trkpt>
      <trkpt lat="47.542217" lon="1.8330034">
        <ele>132.0</ele>
        <time>2021-11-25T08:17:43Z</time>
      </trkpt>
      <trkpt lat="47.542213" lon="1.832989">
        <ele>133.0</ele>
        <time>2021-11-25T08:17:44Z</time>
      </trkpt>
      <trkpt lat="47.54221" lon="1.8329768">
        <ele>133.0</ele>
        <time>2021-11-25T08:17:45Z</time>
      </trkpt>
      <trkpt lat="47.542202" lon="1.8329601">
        <ele>133.0</ele>
        <time>2021-11-25T08:17:46Z</time>
      </trkpt>
      <trkpt lat="47.5422" lon="1.8329413">
        <ele>134.0</ele>
        <time>2021-11-25T08:17:47Z</time>
      </trkpt>
      <trkpt lat="47.54219" lon="1.8329215">
        <ele>133.0</ele>
        <time>2021-11-25T08:17:48Z</time>
      </trkpt>
      <trkpt lat="47.542187" lon="1.8329029">
        <ele>133.0</ele>
        <time>2021-11-25T08:17:49Z</time>
      </trkpt>
      <trkpt lat="47.542183" lon="1.8328838">
        <ele>133.0</ele>
        <time>2021-11-25T08:17:50Z</time>
      </trkpt>
      <trkpt lat="47.54218" lon="1.832872">
        <ele>133.0</ele>
        <time>2021-11-25T08:17:51Z</time>
      </trkpt>
      <trkpt lat="47.54217" lon="1.8328629">
        <ele>133.0</ele>
        <time>2021-11-25T08:17:52Z</time>
      </trkpt>
      <trkpt lat="47.542168" lon="1.832851">
        <ele>132.0</ele>
        <time>2021-11-25T08:17:53Z</time>
      </trkpt>
      <trkpt lat="47.542164" lon="1.8328408">
        <ele>132.0</ele>
        <time>2021-11-25T08:17:54Z</time>
      </trkpt>
      <trkpt lat="47.542164" lon="1.8328288">
        <ele>132.0</ele>
        <time>2021-11-25T08:17:55Z</time>
      </trkpt>
      <trkpt lat="47.54216" lon="1.832816">
        <ele>132.0</ele>
        <time>2021-11-25T08:17:56Z</time>
      </trkpt>
      <trkpt lat="47.54216" lon="1.832816">
        <ele>132.0</ele>
        <time>2021-11-25T08:17:57Z</time>
      </trkpt>
      <trkpt lat="47.54216" lon="1.832816">
        <ele>132.0</ele>
        <time>2021-11-25T08:17:58Z</time>
      </trkpt>
      <trkpt lat="47.54216" lon="1.8327807">
        <ele>130.0</ele>
        <time>2021-11-25T08:17:59Z</time>
      </trkpt>
      <trkpt lat="47.542156" lon="1.8327687">
        <ele>130.0</ele>
        <time>2021-11-25T08:18:00Z</time>
      </trkpt>
      <trkpt lat="47.542152" lon="1.8327565">
        <ele>130.0</ele>
        <time>2021-11-25T08:18:01Z</time>
      </trkpt>
      <trkpt lat="47.54215" lon="1.8327423">
        <ele>130.0</ele>
        <time>2021-11-25T08:18:02Z</time>
      </trkpt>
      <trkpt lat="47.54215" lon="1.8327293">
        <ele>129.0</ele>
        <time>2021-11-25T08:18:03Z</time>
      </trkpt>
      <trkpt lat="47.54215" lon="1.8327156">
        <ele>129.0</ele>
        <time>2021-11-25T08:18:04Z</time>
      </trkpt>
      <trkpt lat="47.54215" lon="1.8327019">
        <ele>129.0</ele>
        <time>2021-11-25T08:18:05Z</time>
      </trkpt>
      <trkpt lat="47.54214" lon="1.8326911">
        <ele>129.0</ele>
        <time>2021-11-25T08:18:06Z</time>
      </trkpt>
      <trkpt lat="47.542137" lon="1.8326793">
        <ele>128.0</ele>
        <time>2021-11-25T08:18:07Z</time>
      </trkpt>
      <trkpt lat="47.542133" lon="1.8326647">
        <ele>128.0</ele>
        <time>2021-11-25T08:18:08Z</time>
      </trkpt>
      <trkpt lat="47.542133" lon="1.8326494">
        <ele>128.0</ele>
        <time>2021-11-25T08:18:09Z</time>
      </trkpt>
      <trkpt lat="47.54213" lon="1.8326328">
        <ele>128.0</ele>
        <time>2021-11-25T08:18:10Z</time>
      </trkpt>
      <trkpt lat="47.54212" lon="1.8326178">
        <ele>128.0</ele>
        <time>2021-11-25T08:18:11Z</time>
      </trkpt>
      <trkpt lat="47.542118" lon="1.8326051">
        <ele>128.0</ele>
        <time>2021-11-25T08:18:12Z</time>
      </trkpt>
      <trkpt lat="47.542114" lon="1.8325895">
        <ele>128.0</ele>
        <time>2021-11-25T08:18:13Z</time>
      </trkpt>
      <trkpt lat="47.54211" lon="1.8325737">
        <ele>128.0</ele>
        <time>2021-11-25T08:18:14Z</time>
      </trkpt>
      <trkpt lat="47.542107" lon="1.8325497">
        <ele>128.0</ele>
        <time>2021-11-25T08:18:15Z</time>
      </trkpt>
      <trkpt lat="47.542103" lon="1.8325243">
        <ele>128.0</ele>
        <time>2021-11-25T08:18:16Z</time>
      </trkpt>
      <trkpt lat="47.5421" lon="1.8325093">
        <ele>128.0</ele>
        <time>2021-11-25T08:18:17Z</time>
      </trkpt>
      <trkpt lat="47.542095" lon="1.8324939">
        <ele>128.0</ele>
        <time>2021-11-25T08:18:18Z</time>
      </trkpt>
      <trkpt lat="47.542095" lon="1.832475">
        <ele>127.0</ele>
        <time>2021-11-25T08:18:19Z</time>
      </trkpt>
      <trkpt lat="47.54209" lon="1.8324559">
        <ele>127.0</ele>
        <time>2021-11-25T08:18:20Z</time>
      </trkpt>
      <trkpt lat="47.542084" lon="1.8324387">
        <ele>127.0</ele>
        <time>2021-11-25T08:18:21Z</time>
      </trkpt>
      <trkpt lat="47.542084" lon="1.8324176">
        <ele>127.0</ele>
        <time>2021-11-25T08:18:22Z</time>
      </trkpt>
      <trkpt lat="47.54208" lon="1.8324001">
        <ele>127.0</ele>
        <time>2021-11-25T08:18:23Z</time>
      </trkpt>
      <trkpt lat="47.542084" lon="1.832384">
        <ele>127.0</ele>
        <time>2021-11-25T08:18:24Z</time>
      </trkpt>
      <trkpt lat="47.54208" lon="1.832367">
        <ele>127.0</ele>
        <time>2021-11-25T08:18:25Z</time>
      </trkpt>
      <trkpt lat="47.542076" lon="1.832352">
        <ele>127.0</ele>
        <time>2021-11-25T08:18:26Z</time>
      </trkpt>
      <trkpt lat="47.542076" lon="1.8323343">
        <ele>128.0</ele>
        <time>2021-11-25T08:18:27Z</time>
      </trkpt>
      <trkpt lat="47.542072" lon="1.8323094">
        <ele>127.0</ele>
        <time>2021-11-25T08:18:28Z</time>
      </trkpt>
      <trkpt lat="47.54207" lon="1.8322846">
        <ele>128.0</ele>
        <time>2021-11-25T08:18:29Z</time>
      </trkpt>
      <trkpt lat="47.54207" lon="1.8322656">
        <ele>128.0</ele>
        <time>2021-11-25T08:18:30Z</time>
      </trkpt>
      <trkpt lat="47.542065" lon="1.8322428">
        <ele>129.0</ele>
        <time>2021-11-25T08:18:31Z</time>
      </trkpt>
      <trkpt lat="47.54206" lon="1.8322221">
        <ele>129.0</ele>
        <time>2021-11-25T08:18:32Z</time>
      </trkpt>
      <trkpt lat="47.54206" lon="1.8322006">
        <ele>130.0</ele>
        <time>2021-11-25T08:18:33Z</time>
      </trkpt>
      <trkpt lat="47.542057" lon="1.8321811">
        <ele>130.0</ele>
        <time>2021-11-25T08:18:34Z</time>
      </trkpt>
      <trkpt lat="47.542057" lon="1.8321657">
        <ele>129.0</ele>
        <time>2021-11-25T08:18:35Z</time>
      </trkpt>
      <trkpt lat="47.542057" lon="1.83215">
        <ele>129.0</ele>
        <time>2021-11-25T08:18:36Z</time>
      </trkpt>
      <trkpt lat="47.542057" lon="1.8321272">
        <ele>129.0</ele>
        <time>2021-11-25T08:18:37Z</time>
      </trkpt>
      <trkpt lat="47.542053" lon="1.8321075">
        <ele>128.0</ele>
        <time>2021-11-25T08:18:38Z</time>
      </trkpt>
      <trkpt lat="47.54205" lon="1.8320901">
        <ele>128.0</ele>
        <time>2021-11-25T08:18:39Z</time>
      </trkpt>
      <trkpt lat="47.542046" lon="1.8320738">
        <ele>128.0</ele>
        <time>2021-11-25T08:18:40Z</time>
      </trkpt>
      <trkpt lat="47.54204" lon="1.8320545">
        <ele>128.0</ele>
        <time>2021-11-25T08:18:41Z</time>
      </trkpt>
      <trkpt lat="47.542038" lon="1.8320324">
        <ele>128.0</ele>
        <time>2021-11-25T08:18:42Z</time>
      </trkpt>
      <trkpt lat="47.542034" lon="1.8320141">
        <ele>128.0</ele>
        <time>2021-11-25T08:18:43Z</time>
      </trkpt>
      <trkpt lat="47.54203" lon="1.8319982">
        <ele>129.0</ele>
        <time>2021-11-25T08:18:44Z</time>
      </trkpt>
      <trkpt lat="47.542027" lon="1.83198">
        <ele>128.0</ele>
        <time>2021-11-25T08:18:45Z</time>
      </trkpt>
      <trkpt lat="47.542023" lon="1.8319662">
        <ele>129.0</ele>
        <time>2021-11-25T08:18:46Z</time>
      </trkpt>
      <trkpt lat="47.54202" lon="1.8319491">
        <ele>129.0</ele>
        <time>2021-11-25T08:18:47Z</time>
      </trkpt>
      <trkpt lat="47.54201" lon="1.8319311">
        <ele>129.0</ele>
        <time>2021-11-25T08:18:48Z</time>
      </trkpt>
      <trkpt lat="47.54201" lon="1.831913">
        <ele>129.0</ele>
        <time>2021-11-25T08:18:49Z</time>
      </trkpt>
      <trkpt lat="47.542007" lon="1.831894">
        <ele>129.0</ele>
        <time>2021-11-25T08:18:50Z</time>
      </trkpt>
      <trkpt lat="47.542" lon="1.8318772">
        <ele>129.0</ele>
        <time>2021-11-25T08:18:51Z</time>
      </trkpt>
      <trkpt lat="47.541996" lon="1.8318664">
        <ele>129.0</ele>
        <time>2021-11-25T08:18:52Z</time>
      </trkpt>
      <trkpt lat="47.541996" lon="1.8318508">
        <ele>129.0</ele>
        <time>2021-11-25T08:18:53Z</time>
      </trkpt>
      <trkpt lat="47.541996" lon="1.8318384">
        <ele>129.0</ele>
        <time>2021-11-25T08:18:54Z</time>
      </trkpt>
      <trkpt lat="47.541992" lon="1.8318233">
        <ele>129.0</ele>
        <time>2021-11-25T08:18:55Z</time>
      </trkpt>
      <trkpt lat="47.54199" lon="1.8318094">
        <ele>129.0</ele>
        <time>2021-11-25T08:18:56Z</time>
      </trkpt>
      <trkpt lat="47.541992" lon="1.8317943">
        <ele>129.0</ele>
        <time>2021-11-25T08:18:57Z</time>
      </trkpt>
      <trkpt lat="47.54199" lon="1.8317797">
        <ele>128.0</ele>
        <time>2021-11-25T08:18:58Z</time>
      </trkpt>
      <trkpt lat="47.54199" lon="1.8317634">
        <ele>128.0</ele>
        <time>2021-11-25T08:18:59Z</time>
      </trkpt>
      <trkpt lat="47.541985" lon="1.831741">
        <ele>128.0</ele>
        <time>2021-11-25T08:19:00Z</time>
      </trkpt>
      <trkpt lat="47.54198" lon="1.8317151">
        <ele>128.0</ele>
        <time>2021-11-25T08:19:01Z</time>
      </trkpt>
      <trkpt lat="47.541977" lon="1.8316989">
        <ele>128.0</ele>
        <time>2021-11-25T08:19:02Z</time>
      </trkpt>
      <trkpt lat="47.541973" lon="1.8316804">
        <ele>128.0</ele>
        <time>2021-11-25T08:19:03Z</time>
      </trkpt>
      <trkpt lat="47.541973" lon="1.8316635">
        <ele>128.0</ele>
        <time>2021-11-25T08:19:04Z</time>
      </trkpt>
      <trkpt lat="47.54197" lon="1.8316456">
        <ele>128.0</ele>
        <time>2021-11-25T08:19:05Z</time>
      </trkpt>
      <trkpt lat="47.541965" lon="1.8316307">
        <ele>127.0</ele>
        <time>2021-11-25T08:19:06Z</time>
      </trkpt>
      <trkpt lat="47.54196" lon="1.8316135">
        <ele>127.0</ele>
        <time>2021-11-25T08:19:07Z</time>
      </trkpt>
      <trkpt lat="47.54196" lon="1.8315971">
        <ele>127.0</ele>
        <time>2021-11-25T08:19:08Z</time>
      </trkpt>
      <trkpt lat="47.541954" lon="1.8315773">
        <ele>127.0</ele>
        <time>2021-11-25T08:19:09Z</time>
      </trkpt>
      <trkpt lat="47.54195" lon="1.8315626">
        <ele>127.0</ele>
        <time>2021-11-25T08:19:10Z</time>
      </trkpt>
      <trkpt lat="47.54195" lon="1.8315626">
        <ele>127.0</ele>
        <time>2021-11-25T08:19:11Z</time>
      </trkpt>
      <trkpt lat="47.541943" lon="1.8315376">
        <ele>126.0</ele>
        <time>2021-11-25T08:19:12Z</time>
      </trkpt>
      <trkpt lat="47.54194" lon="1.8315187">
        <ele>126.0</ele>
        <time>2021-11-25T08:19:13Z</time>
      </trkpt>
      <trkpt lat="47.541935" lon="1.8315">
        <ele>125.0</ele>
        <time>2021-11-25T08:19:14Z</time>
      </trkpt>
      <trkpt lat="47.54193" lon="1.8314816">
        <ele>125.0</ele>
        <time>2021-11-25T08:19:15Z</time>
      </trkpt>
      <trkpt lat="47.541924" lon="1.831463">
        <ele>125.0</ele>
        <time>2021-11-25T08:19:16Z</time>
      </trkpt>
      <trkpt lat="47.541924" lon="1.8314456">
        <ele>125.0</ele>
        <time>2021-11-25T08:19:17Z</time>
      </trkpt>
      <trkpt lat="47.541916" lon="1.8314289">
        <ele>125.0</ele>
        <time>2021-11-25T08:19:18Z</time>
      </trkpt>
      <trkpt lat="47.54191" lon="1.8314122">
        <ele>125.0</ele>
        <time>2021-11-25T08:19:19Z</time>
      </trkpt>
      <trkpt lat="47.541904" lon="1.8313893">
        <ele>125.0</ele>
        <time>2021-11-25T08:19:20Z</time>
      </trkpt>
      <trkpt lat="47.5419" lon="1.8313727">
        <ele>125.0</ele>
        <time>2021-11-25T08:19:21Z</time>
      </trkpt>
      <trkpt lat="47.541897" lon="1.8313538">
        <ele>125.0</ele>
        <time>2021-11-25T08:19:22Z</time>
      </trkpt>
      <trkpt lat="47.541893" lon="1.8313388">
        <ele>126.0</ele>
        <time>2021-11-25T08:19:23Z</time>
      </trkpt>
      <trkpt lat="47.541893" lon="1.8313239">
        <ele>126.0</ele>
        <time>2021-11-25T08:19:24Z</time>
      </trkpt>
      <trkpt lat="47.54189" lon="1.8313055">
        <ele>126.0</ele>
        <time>2021-11-25T08:19:25Z</time>
      </trkpt>
      <trkpt lat="47.541885" lon="1.8312808">
        <ele>126.0</ele>
        <time>2021-11-25T08:19:26Z</time>
      </trkpt>
      <trkpt lat="47.54188" lon="1.8312639">
        <ele>126.0</ele>
        <time>2021-11-25T08:19:27Z</time>
      </trkpt>
      <trkpt lat="47.541878" lon="1.8312482">
        <ele>127.0</ele>
        <time>2021-11-25T08:19:28Z</time>
      </trkpt>
      <trkpt lat="47.541874" lon="1.8312275">
        <ele>128.0</ele>
        <time>2021-11-25T08:19:29Z</time>
      </trkpt>
      <trkpt lat="47.54187" lon="1.8312092">
        <ele>127.0</ele>
        <time>2021-11-25T08:19:30Z</time>
      </trkpt>
      <trkpt lat="47.541866" lon="1.8311894">
        <ele>127.0</ele>
        <time>2021-11-25T08:19:31Z</time>
      </trkpt>
      <trkpt lat="47.541866" lon="1.8311769">
        <ele>127.0</ele>
        <time>2021-11-25T08:19:32Z</time>
      </trkpt>
      <trkpt lat="47.541866" lon="1.8311623">
        <ele>127.0</ele>
        <time>2021-11-25T08:19:33Z</time>
      </trkpt>
      <trkpt lat="47.541866" lon="1.831146">
        <ele>127.0</ele>
        <time>2021-11-25T08:19:34Z</time>
      </trkpt>
      <trkpt lat="47.541866" lon="1.8311291">
        <ele>127.0</ele>
        <time>2021-11-25T08:19:35Z</time>
      </trkpt>
      <trkpt lat="47.541862" lon="1.8311124">
        <ele>127.0</ele>
        <time>2021-11-25T08:19:36Z</time>
      </trkpt>
      <trkpt lat="47.541862" lon="1.8310974">
        <ele>127.0</ele>
        <time>2021-11-25T08:19:37Z</time>
      </trkpt>
      <trkpt lat="47.54186" lon="1.8310771">
        <ele>127.0</ele>
        <time>2021-11-25T08:19:38Z</time>
      </trkpt>
      <trkpt lat="47.54186" lon="1.8310596">
        <ele>127.0</ele>
        <time>2021-11-25T08:19:39Z</time>
      </trkpt>
      <trkpt lat="47.54186" lon="1.8310449">
        <ele>126.0</ele>
        <time>2021-11-25T08:19:40Z</time>
      </trkpt>
      <trkpt lat="47.541855" lon="1.8310272">
        <ele>126.0</ele>
        <time>2021-11-25T08:19:41Z</time>
      </trkpt>
      <trkpt lat="47.541855" lon="1.8310124">
        <ele>126.0</ele>
        <time>2021-11-25T08:19:42Z</time>
      </trkpt>
      <trkpt lat="47.54185" lon="1.8309954">
        <ele>125.0</ele>
        <time>2021-11-25T08:19:43Z</time>
      </trkpt>
      <trkpt lat="47.54185" lon="1.8309786">
        <ele>125.0</ele>
        <time>2021-11-25T08:19:44Z</time>
      </trkpt>
      <trkpt lat="47.541847" lon="1.8309658">
        <ele>126.0</ele>
        <time>2021-11-25T08:19:45Z</time>
      </trkpt>
      <trkpt lat="47.541847" lon="1.8309509">
        <ele>125.0</ele>
        <time>2021-11-25T08:19:46Z</time>
      </trkpt>
      <trkpt lat="47.541847" lon="1.8309376">
        <ele>125.0</ele>
        <time>2021-11-25T08:19:47Z</time>
      </trkpt>
      <trkpt lat="47.541843" lon="1.8309196">
        <ele>126.0</ele>
        <time>2021-11-25T08:19:48Z</time>
      </trkpt>
      <trkpt lat="47.54184" lon="1.8308953">
        <ele>127.0</ele>
        <time>2021-11-25T08:19:49Z</time>
      </trkpt>
      <trkpt lat="47.54184" lon="1.8308808">
        <ele>127.0</ele>
        <time>2021-11-25T08:19:50Z</time>
      </trkpt>
      <trkpt lat="47.54184" lon="1.8308687">
        <ele>127.0</ele>
        <time>2021-11-25T08:19:51Z</time>
      </trkpt>
      <trkpt lat="47.541832" lon="1.830856">
        <ele>126.0</ele>
        <time>2021-11-25T08:19:52Z</time>
      </trkpt>
      <trkpt lat="47.541832" lon="1.8308436">
        <ele>126.0</ele>
        <time>2021-11-25T08:19:53Z</time>
      </trkpt>
      <trkpt lat="47.541832" lon="1.8308306">
        <ele>126.0</ele>
        <time>2021-11-25T08:19:54Z</time>
      </trkpt>
      <trkpt lat="47.54183" lon="1.8308156">
        <ele>126.0</ele>
        <time>2021-11-25T08:19:55Z</time>
      </trkpt>
      <trkpt lat="47.541824" lon="1.8308015">
        <ele>126.0</ele>
        <time>2021-11-25T08:19:56Z</time>
      </trkpt>
      <trkpt lat="47.54182" lon="1.8307836">
        <ele>126.0</ele>
        <time>2021-11-25T08:19:57Z</time>
      </trkpt>
      <trkpt lat="47.541817" lon="1.8307694">
        <ele>127.0</ele>
        <time>2021-11-25T08:19:58Z</time>
      </trkpt>
      <trkpt lat="47.541817" lon="1.8307544">
        <ele>126.0</ele>
        <time>2021-11-25T08:19:59Z</time>
      </trkpt>
      <trkpt lat="47.541813" lon="1.830738">
        <ele>126.0</ele>
        <time>2021-11-25T08:20:00Z</time>
      </trkpt>
      <trkpt lat="47.541813" lon="1.8307177">
        <ele>126.0</ele>
        <time>2021-11-25T08:20:01Z</time>
      </trkpt>
      <trkpt lat="47.541817" lon="1.8306967">
        <ele>126.0</ele>
        <time>2021-11-25T08:20:02Z</time>
      </trkpt>
      <trkpt lat="47.541813" lon="1.8306794">
        <ele>125.0</ele>
        <time>2021-11-25T08:20:03Z</time>
      </trkpt>
      <trkpt lat="47.54181" lon="1.8306631">
        <ele>125.0</ele>
        <time>2021-11-25T08:20:04Z</time>
      </trkpt>
      <trkpt lat="47.54181" lon="1.8306453">
        <ele>125.0</ele>
        <time>2021-11-25T08:20:05Z</time>
      </trkpt>
      <trkpt lat="47.5418" lon="1.8306267">
        <ele>125.0</ele>
        <time>2021-11-25T08:20:06Z</time>
      </trkpt>
      <trkpt lat="47.541798" lon="1.8306148">
        <ele>125.0</ele>
        <time>2021-11-25T08:20:07Z</time>
      </trkpt>
      <trkpt lat="47.541798" lon="1.8306022">
        <ele>124.0</ele>
        <time>2021-11-25T08:20:08Z</time>
      </trkpt>
      <trkpt lat="47.541798" lon="1.8305856">
        <ele>124.0</ele>
        <time>2021-11-25T08:20:09Z</time>
      </trkpt>
      <trkpt lat="47.541794" lon="1.830571">
        <ele>124.0</ele>
        <time>2021-11-25T08:20:10Z</time>
      </trkpt>
      <trkpt lat="47.54179" lon="1.8305527">
        <ele>124.0</ele>
        <time>2021-11-25T08:20:11Z</time>
      </trkpt>
      <trkpt lat="47.54179" lon="1.8305366">
        <ele>124.0</ele>
        <time>2021-11-25T08:20:12Z</time>
      </trkpt>
      <trkpt lat="47.541786" lon="1.8305205">
        <ele>125.0</ele>
        <time>2021-11-25T08:20:13Z</time>
      </trkpt>
      <trkpt lat="47.541786" lon="1.8305002">
        <ele>124.0</ele>
        <time>2021-11-25T08:20:14Z</time>
      </trkpt>
      <trkpt lat="47.541786" lon="1.830481">
        <ele>124.0</ele>
        <time>2021-11-25T08:20:15Z</time>
      </trkpt>
      <trkpt lat="47.541782" lon="1.8304585">
        <ele>124.0</ele>
        <time>2021-11-25T08:20:16Z</time>
      </trkpt>
      <trkpt lat="47.54178" lon="1.8304354">
        <ele>124.0</ele>
        <time>2021-11-25T08:20:17Z</time>
      </trkpt>
      <trkpt lat="47.54178" lon="1.8304156">
        <ele>124.0</ele>
        <time>2021-11-25T08:20:18Z</time>
      </trkpt>
      <trkpt lat="47.541775" lon="1.8303971">
        <ele>124.0</ele>
        <time>2021-11-25T08:20:19Z</time>
      </trkpt>
      <trkpt lat="47.54177" lon="1.8303769">
        <ele>123.0</ele>
        <time>2021-11-25T08:20:20Z</time>
      </trkpt>
      <trkpt lat="47.541767" lon="1.830354">
        <ele>123.0</ele>
        <time>2021-11-25T08:20:21Z</time>
      </trkpt>
      <trkpt lat="47.54177" lon="1.8303365">
        <ele>123.0</ele>
        <time>2021-11-25T08:20:22Z</time>
      </trkpt>
      <trkpt lat="47.541767" lon="1.8303181">
        <ele>123.0</ele>
        <time>2021-11-25T08:20:23Z</time>
      </trkpt>
      <trkpt lat="47.541767" lon="1.8303015">
        <ele>123.0</ele>
        <time>2021-11-25T08:20:24Z</time>
      </trkpt>
      <trkpt lat="47.541763" lon="1.8302832">
        <ele>123.0</ele>
        <time>2021-11-25T08:20:25Z</time>
      </trkpt>
      <trkpt lat="47.54176" lon="1.8302683">
        <ele>124.0</ele>
        <time>2021-11-25T08:20:26Z</time>
      </trkpt>
      <trkpt lat="47.54176" lon="1.8302501">
        <ele>124.0</ele>
        <time>2021-11-25T08:20:27Z</time>
      </trkpt>
      <trkpt lat="47.54175" lon="1.8302335">
        <ele>124.0</ele>
        <time>2021-11-25T08:20:28Z</time>
      </trkpt>
      <trkpt lat="47.541748" lon="1.8302149">
        <ele>124.0</ele>
        <time>2021-11-25T08:20:29Z</time>
      </trkpt>
      <trkpt lat="47.54174" lon="1.8301888">
        <ele>124.0</ele>
        <time>2021-11-25T08:20:30Z</time>
      </trkpt>
      <trkpt lat="47.541733" lon="1.8301656">
        <ele>125.0</ele>
        <time>2021-11-25T08:20:31Z</time>
      </trkpt>
      <trkpt lat="47.54173" lon="1.8301477">
        <ele>125.0</ele>
        <time>2021-11-25T08:20:32Z</time>
      </trkpt>
      <trkpt lat="47.541725" lon="1.8301276">
        <ele>125.0</ele>
        <time>2021-11-25T08:20:33Z</time>
      </trkpt>
      <trkpt lat="47.54172" lon="1.830113">
        <ele>125.0</ele>
        <time>2021-11-25T08:20:34Z</time>
      </trkpt>
      <trkpt lat="47.54171" lon="1.8300992">
        <ele>126.0</ele>
        <time>2021-11-25T08:20:35Z</time>
      </trkpt>
      <trkpt lat="47.541706" lon="1.8300781">
        <ele>126.0</ele>
        <time>2021-11-25T08:20:36Z</time>
      </trkpt>
      <trkpt lat="47.541702" lon="1.8300555">
        <ele>127.0</ele>
        <time>2021-11-25T08:20:37Z</time>
      </trkpt>
      <trkpt lat="47.541702" lon="1.8300351">
        <ele>127.0</ele>
        <time>2021-11-25T08:20:38Z</time>
      </trkpt>
      <trkpt lat="47.5417" lon="1.8300166">
        <ele>127.0</ele>
        <time>2021-11-25T08:20:39Z</time>
      </trkpt>
      <trkpt lat="47.5417" lon="1.8299979">
        <ele>126.0</ele>
        <time>2021-11-25T08:20:40Z</time>
      </trkpt>
      <trkpt lat="47.541695" lon="1.82998">
        <ele>126.0</ele>
        <time>2021-11-25T08:20:41Z</time>
      </trkpt>
      <trkpt lat="47.541695" lon="1.8299615">
        <ele>126.0</ele>
        <time>2021-11-25T08:20:42Z</time>
      </trkpt>
      <trkpt lat="47.54169" lon="1.829942">
        <ele>126.0</ele>
        <time>2021-11-25T08:20:43Z</time>
      </trkpt>
      <trkpt lat="47.54169" lon="1.8299217">
        <ele>127.0</ele>
        <time>2021-11-25T08:20:44Z</time>
      </trkpt>
      <trkpt lat="47.54169" lon="1.8299017">
        <ele>127.0</ele>
        <time>2021-11-25T08:20:45Z</time>
      </trkpt>
      <trkpt lat="47.541687" lon="1.8298805">
        <ele>128.0</ele>
        <time>2021-11-25T08:20:46Z</time>
      </trkpt>
      <trkpt lat="47.541683" lon="1.8298615">
        <ele>128.0</ele>
        <time>2021-11-25T08:20:47Z</time>
      </trkpt>
      <trkpt lat="47.541683" lon="1.8298438">
        <ele>128.0</ele>
        <time>2021-11-25T08:20:48Z</time>
      </trkpt>
      <trkpt lat="47.54168" lon="1.829822">
        <ele>128.0</ele>
        <time>2021-11-25T08:20:49Z</time>
      </trkpt>
      <trkpt lat="47.541676" lon="1.8297983">
        <ele>129.0</ele>
        <time>2021-11-25T08:20:50Z</time>
      </trkpt>
      <trkpt lat="47.541676" lon="1.8297764">
        <ele>129.0</ele>
        <time>2021-11-25T08:20:51Z</time>
      </trkpt>
      <trkpt lat="47.541668" lon="1.8297514">
        <ele>129.0</ele>
        <time>2021-11-25T08:20:52Z</time>
      </trkpt>
      <trkpt lat="47.541664" lon="1.8297263">
        <ele>130.0</ele>
        <time>2021-11-25T08:20:53Z</time>
      </trkpt>
      <trkpt lat="47.54166" lon="1.829704">
        <ele>130.0</ele>
        <time>2021-11-25T08:20:54Z</time>
      </trkpt>
      <trkpt lat="47.541656" lon="1.8296865">
        <ele>131.0</ele>
        <time>2021-11-25T08:20:55Z</time>
      </trkpt>
      <trkpt lat="47.541653" lon="1.829669">
        <ele>131.0</ele>
        <time>2021-11-25T08:20:56Z</time>
      </trkpt>
      <trkpt lat="47.54165" lon="1.8296483">
        <ele>131.0</ele>
        <time>2021-11-25T08:20:57Z</time>
      </trkpt>
      <trkpt lat="47.54165" lon="1.8296311">
        <ele>130.0</ele>
        <time>2021-11-25T08:20:58Z</time>
      </trkpt>
      <trkpt lat="47.541645" lon="1.8296149">
        <ele>130.0</ele>
        <time>2021-11-25T08:20:59Z</time>
      </trkpt>
      <trkpt lat="47.541645" lon="1.8295981">
        <ele>130.0</ele>
        <time>2021-11-25T08:21:00Z</time>
      </trkpt>
      <trkpt lat="47.541637" lon="1.829575">
        <ele>130.0</ele>
        <time>2021-11-25T08:21:01Z</time>
      </trkpt>
      <trkpt lat="47.541637" lon="1.8295556">
        <ele>130.0</ele>
        <time>2021-11-25T08:21:02Z</time>
      </trkpt>
      <trkpt lat="47.541634" lon="1.8295425">
        <ele>131.0</ele>
        <time>2021-11-25T08:21:03Z</time>
      </trkpt>
      <trkpt lat="47.541637" lon="1.8295271">
        <ele>131.0</ele>
        <time>2021-11-25T08:21:04Z</time>
      </trkpt>
      <trkpt lat="47.541637" lon="1.8295144">
        <ele>131.0</ele>
        <time>2021-11-25T08:21:05Z</time>
      </trkpt>
      <trkpt lat="47.541634" lon="1.8295014">
        <ele>131.0</ele>
        <time>2021-11-25T08:21:06Z</time>
      </trkpt>
      <trkpt lat="47.541634" lon="1.8294823">
        <ele>131.0</ele>
        <time>2021-11-25T08:21:07Z</time>
      </trkpt>
      <trkpt lat="47.54163" lon="1.8294615">
        <ele>131.0</ele>
        <time>2021-11-25T08:21:08Z</time>
      </trkpt>
      <trkpt lat="47.541626" lon="1.8294457">
        <ele>132.0</ele>
        <time>2021-11-25T08:21:09Z</time>
      </trkpt>
      <trkpt lat="47.541622" lon="1.8294297">
        <ele>132.0</ele>
        <time>2021-11-25T08:21:10Z</time>
      </trkpt>
      <trkpt lat="47.54162" lon="1.8294163">
        <ele>132.0</ele>
        <time>2021-11-25T08:21:11Z</time>
      </trkpt>
      <trkpt lat="47.54162" lon="1.8294028">
        <ele>133.0</ele>
        <time>2021-11-25T08:21:12Z</time>
      </trkpt>
      <trkpt lat="47.541615" lon="1.8293875">
        <ele>133.0</ele>
        <time>2021-11-25T08:21:13Z</time>
      </trkpt>
      <trkpt lat="47.54161" lon="1.8293728">
        <ele>134.0</ele>
        <time>2021-11-25T08:21:14Z</time>
      </trkpt>
      <trkpt lat="47.541607" lon="1.8293544">
        <ele>134.0</ele>
        <time>2021-11-25T08:21:15Z</time>
      </trkpt>
      <trkpt lat="47.541603" lon="1.829337">
        <ele>134.0</ele>
        <time>2021-11-25T08:21:16Z</time>
      </trkpt>
      <trkpt lat="47.5416" lon="1.82932">
        <ele>134.0</ele>
        <time>2021-11-25T08:21:17Z</time>
      </trkpt>
      <trkpt lat="47.541595" lon="1.8293065">
        <ele>134.0</ele>
        <time>2021-11-25T08:21:18Z</time>
      </trkpt>
      <trkpt lat="47.541595" lon="1.829295">
        <ele>134.0</ele>
        <time>2021-11-25T08:21:19Z</time>
      </trkpt>
      <trkpt lat="47.541595" lon="1.8292832">
        <ele>134.0</ele>
        <time>2021-11-25T08:21:20Z</time>
      </trkpt>
      <trkpt lat="47.541595" lon="1.8292673">
        <ele>133.0</ele>
        <time>2021-11-25T08:21:21Z</time>
      </trkpt>
      <trkpt lat="47.54159" lon="1.8292534">
        <ele>133.0</ele>
        <time>2021-11-25T08:21:22Z</time>
      </trkpt>
      <trkpt lat="47.54159" lon="1.8292384">
        <ele>133.0</ele>
        <time>2021-11-25T08:21:23Z</time>
      </trkpt>
      <trkpt lat="47.54159" lon="1.8292199">
        <ele>132.0</ele>
        <time>2021-11-25T08:21:24Z</time>
      </trkpt>
      <trkpt lat="47.54159" lon="1.829204">
        <ele>132.0</ele>
        <time>2021-11-25T08:21:25Z</time>
      </trkpt>
      <trkpt lat="47.54159" lon="1.829186">
        <ele>132.0</ele>
        <time>2021-11-25T08:21:26Z</time>
      </trkpt>
      <trkpt lat="47.541588" lon="1.8291701">
        <ele>132.0</ele>
        <time>2021-11-25T08:21:27Z</time>
      </trkpt>
      <trkpt lat="47.541584" lon="1.8291519">
        <ele>132.0</ele>
        <time>2021-11-25T08:21:28Z</time>
      </trkpt>
      <trkpt lat="47.54158" lon="1.82914">
        <ele>131.0</ele>
        <time>2021-11-25T08:21:29Z</time>
      </trkpt>
      <trkpt lat="47.54158" lon="1.8291202">
        <ele>132.0</ele>
        <time>2021-11-25T08:21:30Z</time>
      </trkpt>
      <trkpt lat="47.541576" lon="1.8290993">
        <ele>131.0</ele>
        <time>2021-11-25T08:21:31Z</time>
      </trkpt>
      <trkpt lat="47.541573" lon="1.8290733">
        <ele>131.0</ele>
        <time>2021-11-25T08:21:32Z</time>
      </trkpt>
      <trkpt lat="47.54157" lon="1.8290476">
        <ele>131.0</ele>
        <time>2021-11-25T08:21:33Z</time>
      </trkpt>
      <trkpt lat="47.541565" lon="1.8290306">
        <ele>130.0</ele>
        <time>2021-11-25T08:21:34Z</time>
      </trkpt>
      <trkpt lat="47.541565" lon="1.8290052">
        <ele>130.0</ele>
        <time>2021-11-25T08:21:35Z</time>
      </trkpt>
      <trkpt lat="47.54156" lon="1.8289844">
        <ele>130.0</ele>
        <time>2021-11-25T08:21:36Z</time>
      </trkpt>
      <trkpt lat="47.541557" lon="1.828966">
        <ele>130.0</ele>
        <time>2021-11-25T08:21:37Z</time>
      </trkpt>
      <trkpt lat="47.541557" lon="1.8289421">
        <ele>131.0</ele>
        <time>2021-11-25T08:21:38Z</time>
      </trkpt>
      <trkpt lat="47.541553" lon="1.8289237">
        <ele>130.0</ele>
        <time>2021-11-25T08:21:39Z</time>
      </trkpt>
      <trkpt lat="47.54155" lon="1.8289053">
        <ele>131.0</ele>
        <time>2021-11-25T08:21:40Z</time>
      </trkpt>
      <trkpt lat="47.541546" lon="1.8288854">
        <ele>131.0</ele>
        <time>2021-11-25T08:21:41Z</time>
      </trkpt>
      <trkpt lat="47.54154" lon="1.8288668">
        <ele>130.0</ele>
        <time>2021-11-25T08:21:42Z</time>
      </trkpt>
      <trkpt lat="47.54153" lon="1.8288496">
        <ele>130.0</ele>
        <time>2021-11-25T08:21:43Z</time>
      </trkpt>
      <trkpt lat="47.541527" lon="1.8288293">
        <ele>130.0</ele>
        <time>2021-11-25T08:21:44Z</time>
      </trkpt>
      <trkpt lat="47.541523" lon="1.8288122">
        <ele>130.0</ele>
        <time>2021-11-25T08:21:45Z</time>
      </trkpt>
      <trkpt lat="47.541523" lon="1.8287957">
        <ele>130.0</ele>
        <time>2021-11-25T08:21:46Z</time>
      </trkpt>
      <trkpt lat="47.541515" lon="1.8287783">
        <ele>131.0</ele>
        <time>2021-11-25T08:21:47Z</time>
      </trkpt>
      <trkpt lat="47.54151" lon="1.8287582">
        <ele>130.0</ele>
        <time>2021-11-25T08:21:48Z</time>
      </trkpt>
      <trkpt lat="47.541508" lon="1.8287382">
        <ele>131.0</ele>
        <time>2021-11-25T08:21:49Z</time>
      </trkpt>
      <trkpt lat="47.541504" lon="1.8287196">
        <ele>130.0</ele>
        <time>2021-11-25T08:21:50Z</time>
      </trkpt>
      <trkpt lat="47.5415" lon="1.828702">
        <ele>131.0</ele>
        <time>2021-11-25T08:21:51Z</time>
      </trkpt>
      <trkpt lat="47.5415" lon="1.8286846">
        <ele>132.0</ele>
        <time>2021-11-25T08:21:52Z</time>
      </trkpt>
      <trkpt lat="47.541496" lon="1.8286659">
        <ele>132.0</ele>
        <time>2021-11-25T08:21:53Z</time>
      </trkpt>
      <trkpt lat="47.541492" lon="1.8286489">
        <ele>132.0</ele>
        <time>2021-11-25T08:21:54Z</time>
      </trkpt>
      <trkpt lat="47.54149" lon="1.8286331">
        <ele>132.0</ele>
        <time>2021-11-25T08:21:55Z</time>
      </trkpt>
      <trkpt lat="47.541485" lon="1.8286114">
        <ele>132.0</ele>
        <time>2021-11-25T08:21:56Z</time>
      </trkpt>
      <trkpt lat="47.54148" lon="1.8285986">
        <ele>132.0</ele>
        <time>2021-11-25T08:21:57Z</time>
      </trkpt>
      <trkpt lat="47.541477" lon="1.8285813">
        <ele>133.0</ele>
        <time>2021-11-25T08:21:58Z</time>
      </trkpt>
      <trkpt lat="47.541473" lon="1.8285639">
        <ele>133.0</ele>
        <time>2021-11-25T08:21:59Z</time>
      </trkpt>
      <trkpt lat="47.541473" lon="1.8285507">
        <ele>133.0</ele>
        <time>2021-11-25T08:22:00Z</time>
      </trkpt>
      <trkpt lat="47.54147" lon="1.8285319">
        <ele>133.0</ele>
        <time>2021-11-25T08:22:01Z</time>
      </trkpt>
      <trkpt lat="47.541466" lon="1.8285102">
        <ele>133.0</ele>
        <time>2021-11-25T08:22:02Z</time>
      </trkpt>
      <trkpt lat="47.541462" lon="1.8284941">
        <ele>133.0</ele>
        <time>2021-11-25T08:22:03Z</time>
      </trkpt>
      <trkpt lat="47.541454" lon="1.8284776">
        <ele>133.0</ele>
        <time>2021-11-25T08:22:04Z</time>
      </trkpt>
      <trkpt lat="47.54145" lon="1.8284609">
        <ele>133.0</ele>
        <time>2021-11-25T08:22:05Z</time>
      </trkpt>
      <trkpt lat="47.541447" lon="1.8284451">
        <ele>133.0</ele>
        <time>2021-11-25T08:22:06Z</time>
      </trkpt>
      <trkpt lat="47.541443" lon="1.8284271">
        <ele>133.0</ele>
        <time>2021-11-25T08:22:07Z</time>
      </trkpt>
      <trkpt lat="47.54144" lon="1.8284065">
        <ele>133.0</ele>
        <time>2021-11-25T08:22:08Z</time>
      </trkpt>
      <trkpt lat="47.54144" lon="1.8283886">
        <ele>134.0</ele>
        <time>2021-11-25T08:22:09Z</time>
      </trkpt>
      <trkpt lat="47.541443" lon="1.8283697">
        <ele>134.0</ele>
        <time>2021-11-25T08:22:10Z</time>
      </trkpt>
      <trkpt lat="47.54144" lon="1.8283556">
        <ele>134.0</ele>
        <time>2021-11-25T08:22:11Z</time>
      </trkpt>
      <trkpt lat="47.541435" lon="1.8283398">
        <ele>134.0</ele>
        <time>2021-11-25T08:22:12Z</time>
      </trkpt>
      <trkpt lat="47.541435" lon="1.8283254">
        <ele>134.0</ele>
        <time>2021-11-25T08:22:13Z</time>
      </trkpt>
      <trkpt lat="47.54143" lon="1.8283118">
        <ele>134.0</ele>
        <time>2021-11-25T08:22:14Z</time>
      </trkpt>
      <trkpt lat="47.541428" lon="1.8282952">
        <ele>134.0</ele>
        <time>2021-11-25T08:22:15Z</time>
      </trkpt>
      <trkpt lat="47.541424" lon="1.8282737">
        <ele>134.0</ele>
        <time>2021-11-25T08:22:16Z</time>
      </trkpt>
      <trkpt lat="47.54142" lon="1.8282545">
        <ele>134.0</ele>
        <time>2021-11-25T08:22:17Z</time>
      </trkpt>
      <trkpt lat="47.541412" lon="1.8282415">
        <ele>134.0</ele>
        <time>2021-11-25T08:22:18Z</time>
      </trkpt>
      <trkpt lat="47.54141" lon="1.8282286">
        <ele>134.0</ele>
        <time>2021-11-25T08:22:19Z</time>
      </trkpt>
      <trkpt lat="47.541405" lon="1.8282144">
        <ele>135.0</ele>
        <time>2021-11-25T08:22:20Z</time>
      </trkpt>
      <trkpt lat="47.5414" lon="1.8281997">
        <ele>136.0</ele>
        <time>2021-11-25T08:22:21Z</time>
      </trkpt>
      <trkpt lat="47.541397" lon="1.8281791">
        <ele>136.0</ele>
        <time>2021-11-25T08:22:22Z</time>
      </trkpt>
      <trkpt lat="47.541393" lon="1.828159">
        <ele>136.0</ele>
        <time>2021-11-25T08:22:23Z</time>
      </trkpt>
      <trkpt lat="47.54139" lon="1.8281434">
        <ele>137.0</ele>
        <time>2021-11-25T08:22:24Z</time>
      </trkpt>
      <trkpt lat="47.541386" lon="1.8281249">
        <ele>137.0</ele>
        <time>2021-11-25T08:22:25Z</time>
      </trkpt>
      <trkpt lat="47.541378" lon="1.8281049">
        <ele>137.0</ele>
        <time>2021-11-25T08:22:26Z</time>
      </trkpt>
      <trkpt lat="47.541374" lon="1.8280888">
        <ele>137.0</ele>
        <time>2021-11-25T08:22:27Z</time>
      </trkpt>
      <trkpt lat="47.541367" lon="1.8280749">
        <ele>138.0</ele>
        <time>2021-11-25T08:22:28Z</time>
      </trkpt>
      <trkpt lat="47.541367" lon="1.8280617">
        <ele>138.0</ele>
        <time>2021-11-25T08:22:29Z</time>
      </trkpt>
      <trkpt lat="47.541363" lon="1.8280393">
        <ele>138.0</ele>
        <time>2021-11-25T08:22:30Z</time>
      </trkpt>
      <trkpt lat="47.541363" lon="1.8280222">
        <ele>138.0</ele>
        <time>2021-11-25T08:22:31Z</time>
      </trkpt>
      <trkpt lat="47.541363" lon="1.8280058">
        <ele>137.0</ele>
        <time>2021-11-25T08:22:32Z</time>
      </trkpt>
      <trkpt lat="47.54136" lon="1.8279934">
        <ele>137.0</ele>
        <time>2021-11-25T08:22:33Z</time>
      </trkpt>
      <trkpt lat="47.54136" lon="1.8279796">
        <ele>137.0</ele>
        <time>2021-11-25T08:22:34Z</time>
      </trkpt>
      <trkpt lat="47.541355" lon="1.8279631">
        <ele>137.0</ele>
        <time>2021-11-25T08:22:35Z</time>
      </trkpt>
      <trkpt lat="47.54135" lon="1.8279469">
        <ele>137.0</ele>
        <time>2021-11-25T08:22:36Z</time>
      </trkpt>
      <trkpt lat="47.541344" lon="1.8279303">
        <ele>137.0</ele>
        <time>2021-11-25T08:22:37Z</time>
      </trkpt>
      <trkpt lat="47.54134" lon="1.8279176">
        <ele>137.0</ele>
        <time>2021-11-25T08:22:38Z</time>
      </trkpt>
      <trkpt lat="47.541336" lon="1.8278991">
        <ele>137.0</ele>
        <time>2021-11-25T08:22:39Z</time>
      </trkpt>
      <trkpt lat="47.54133" lon="1.8278776">
        <ele>137.0</ele>
        <time>2021-11-25T08:22:40Z</time>
      </trkpt>
      <trkpt lat="47.54132" lon="1.827855">
        <ele>137.0</ele>
        <time>2021-11-25T08:22:41Z</time>
      </trkpt>
      <trkpt lat="47.54131" lon="1.8278325">
        <ele>138.0</ele>
        <time>2021-11-25T08:22:42Z</time>
      </trkpt>
      <trkpt lat="47.541306" lon="1.8278155">
        <ele>138.0</ele>
        <time>2021-11-25T08:22:43Z</time>
      </trkpt>
      <trkpt lat="47.5413" lon="1.8277991">
        <ele>138.0</ele>
        <time>2021-11-25T08:22:44Z</time>
      </trkpt>
      <trkpt lat="47.541298" lon="1.8277842">
        <ele>137.0</ele>
        <time>2021-11-25T08:22:45Z</time>
      </trkpt>
      <trkpt lat="47.541294" lon="1.8277748">
        <ele>138.0</ele>
        <time>2021-11-25T08:22:46Z</time>
      </trkpt>
      <trkpt lat="47.541294" lon="1.8277638">
        <ele>138.0</ele>
        <time>2021-11-25T08:22:47Z</time>
      </trkpt>
      <trkpt lat="47.54129" lon="1.8277501">
        <ele>137.0</ele>
        <time>2021-11-25T08:22:48Z</time>
      </trkpt>
      <trkpt lat="47.541286" lon="1.8277334">
        <ele>137.0</ele>
        <time>2021-11-25T08:22:49Z</time>
      </trkpt>
      <trkpt lat="47.541286" lon="1.8277173">
        <ele>137.0</ele>
        <time>2021-11-25T08:22:50Z</time>
      </trkpt>
      <trkpt lat="47.54128" lon="1.8277011">
        <ele>137.0</ele>
        <time>2021-11-25T08:22:51Z</time>
      </trkpt>
      <trkpt lat="47.54128" lon="1.8276845">
        <ele>137.0</ele>
        <time>2021-11-25T08:22:52Z</time>
      </trkpt>
      <trkpt lat="47.54127" lon="1.8276701">
        <ele>137.0</ele>
        <time>2021-11-25T08:22:53Z</time>
      </trkpt>
      <trkpt lat="47.54127" lon="1.827655">
        <ele>138.0</ele>
        <time>2021-11-25T08:22:54Z</time>
      </trkpt>
      <trkpt lat="47.54127" lon="1.827636">
        <ele>137.0</ele>
        <time>2021-11-25T08:22:55Z</time>
      </trkpt>
      <trkpt lat="47.54127" lon="1.82762">
        <ele>138.0</ele>
        <time>2021-11-25T08:22:56Z</time>
      </trkpt>
      <trkpt lat="47.54127" lon="1.8276085">
        <ele>138.0</ele>
        <time>2021-11-25T08:22:57Z</time>
      </trkpt>
      <trkpt lat="47.541267" lon="1.8275981">
        <ele>137.0</ele>
        <time>2021-11-25T08:22:58Z</time>
      </trkpt>
      <trkpt lat="47.541267" lon="1.8275806">
        <ele>137.0</ele>
        <time>2021-11-25T08:22:59Z</time>
      </trkpt>
      <trkpt lat="47.541264" lon="1.8275621">
        <ele>137.0</ele>
        <time>2021-11-25T08:23:00Z</time>
      </trkpt>
      <trkpt lat="47.54126" lon="1.8275435">
        <ele>138.0</ele>
        <time>2021-11-25T08:23:01Z</time>
      </trkpt>
      <trkpt lat="47.541256" lon="1.8275262">
        <ele>137.0</ele>
        <time>2021-11-25T08:23:02Z</time>
      </trkpt>
      <trkpt lat="47.541256" lon="1.8275086">
        <ele>137.0</ele>
        <time>2021-11-25T08:23:03Z</time>
      </trkpt>
      <trkpt lat="47.541256" lon="1.827493">
        <ele>137.0</ele>
        <time>2021-11-25T08:23:04Z</time>
      </trkpt>
      <trkpt lat="47.541252" lon="1.8274747">
        <ele>137.0</ele>
        <time>2021-11-25T08:23:05Z</time>
      </trkpt>
      <trkpt lat="47.541252" lon="1.8274555">
        <ele>137.0</ele>
        <time>2021-11-25T08:23:06Z</time>
      </trkpt>
      <trkpt lat="47.54125" lon="1.8274332">
        <ele>137.0</ele>
        <time>2021-11-25T08:23:07Z</time>
      </trkpt>
      <trkpt lat="47.541245" lon="1.8274131">
        <ele>137.0</ele>
        <time>2021-11-25T08:23:08Z</time>
      </trkpt>
      <trkpt lat="47.54124" lon="1.8273927">
        <ele>137.0</ele>
        <time>2021-11-25T08:23:09Z</time>
      </trkpt>
      <trkpt lat="47.54124" lon="1.8273759">
        <ele>137.0</ele>
        <time>2021-11-25T08:23:10Z</time>
      </trkpt>
      <trkpt lat="47.541237" lon="1.8273538">
        <ele>136.0</ele>
        <time>2021-11-25T08:23:11Z</time>
      </trkpt>
      <trkpt lat="47.541233" lon="1.8273306">
        <ele>136.0</ele>
        <time>2021-11-25T08:23:12Z</time>
      </trkpt>
      <trkpt lat="47.54123" lon="1.8273144">
        <ele>136.0</ele>
        <time>2021-11-25T08:23:13Z</time>
      </trkpt>
      <trkpt lat="47.54123" lon="1.827295">
        <ele>136.0</ele>
        <time>2021-11-25T08:23:14Z</time>
      </trkpt>
      <trkpt lat="47.541225" lon="1.8272765">
        <ele>135.0</ele>
        <time>2021-11-25T08:23:15Z</time>
      </trkpt>
      <trkpt lat="47.541225" lon="1.8272593">
        <ele>135.0</ele>
        <time>2021-11-25T08:23:16Z</time>
      </trkpt>
      <trkpt lat="47.54122" lon="1.8272425">
        <ele>135.0</ele>
        <time>2021-11-25T08:23:17Z</time>
      </trkpt>
      <trkpt lat="47.541218" lon="1.8272207">
        <ele>135.0</ele>
        <time>2021-11-25T08:23:18Z</time>
      </trkpt>
      <trkpt lat="47.541218" lon="1.8272005">
        <ele>135.0</ele>
        <time>2021-11-25T08:23:19Z</time>
      </trkpt>
      <trkpt lat="47.541218" lon="1.827183">
        <ele>135.0</ele>
        <time>2021-11-25T08:23:20Z</time>
      </trkpt>
      <trkpt lat="47.541218" lon="1.8271587">
        <ele>135.0</ele>
        <time>2021-11-25T08:23:21Z</time>
      </trkpt>
      <trkpt lat="47.541214" lon="1.8271405">
        <ele>135.0</ele>
        <time>2021-11-25T08:23:22Z</time>
      </trkpt>
      <trkpt lat="47.541214" lon="1.827124">
        <ele>136.0</ele>
        <time>2021-11-25T08:23:23Z</time>
      </trkpt>
      <trkpt lat="47.541214" lon="1.8271068">
        <ele>136.0</ele>
        <time>2021-11-25T08:23:24Z</time>
      </trkpt>
      <trkpt lat="47.541214" lon="1.827091">
        <ele>136.0</ele>
        <time>2021-11-25T08:23:25Z</time>
      </trkpt>
      <trkpt lat="47.54121" lon="1.8270744">
        <ele>136.0</ele>
        <time>2021-11-25T08:23:26Z</time>
      </trkpt>
      <trkpt lat="47.54121" lon="1.8270632">
        <ele>136.0</ele>
        <time>2021-11-25T08:23:27Z</time>
      </trkpt>
      <trkpt lat="47.54121" lon="1.8270522">
        <ele>136.0</ele>
        <time>2021-11-25T08:23:28Z</time>
      </trkpt>
      <trkpt lat="47.54121" lon="1.8270347">
        <ele>136.0</ele>
        <time>2021-11-25T08:23:29Z</time>
      </trkpt>
      <trkpt lat="47.54121" lon="1.8270161">
        <ele>136.0</ele>
        <time>2021-11-25T08:23:30Z</time>
      </trkpt>
      <trkpt lat="47.541203" lon="1.8269928">
        <ele>136.0</ele>
        <time>2021-11-25T08:23:31Z</time>
      </trkpt>
      <trkpt lat="47.5412" lon="1.8269731">
        <ele>136.0</ele>
        <time>2021-11-25T08:23:32Z</time>
      </trkpt>
      <trkpt lat="47.541195" lon="1.8269552">
        <ele>136.0</ele>
        <time>2021-11-25T08:23:33Z</time>
      </trkpt>
      <trkpt lat="47.54119" lon="1.8269385">
        <ele>136.0</ele>
        <time>2021-11-25T08:23:34Z</time>
      </trkpt>
      <trkpt lat="47.54119" lon="1.8269238">
        <ele>136.0</ele>
        <time>2021-11-25T08:23:35Z</time>
      </trkpt>
      <trkpt lat="47.54119" lon="1.8269094">
        <ele>136.0</ele>
        <time>2021-11-25T08:23:36Z</time>
      </trkpt>
      <trkpt lat="47.54119" lon="1.8268944">
        <ele>136.0</ele>
        <time>2021-11-25T08:23:37Z</time>
      </trkpt>
      <trkpt lat="47.541187" lon="1.8268831">
        <ele>136.0</ele>
        <time>2021-11-25T08:23:38Z</time>
      </trkpt>
      <trkpt lat="47.541187" lon="1.8268754">
        <ele>136.0</ele>
        <time>2021-11-25T08:23:39Z</time>
      </trkpt>
      <trkpt lat="47.541187" lon="1.8268642">
        <ele>136.0</ele>
        <time>2021-11-25T08:23:40Z</time>
      </trkpt>
      <trkpt lat="47.541183" lon="1.8268507">
        <ele>136.0</ele>
        <time>2021-11-25T08:23:41Z</time>
      </trkpt>
      <trkpt lat="47.541176" lon="1.826829">
        <ele>136.0</ele>
        <time>2021-11-25T08:23:42Z</time>
      </trkpt>
      <trkpt lat="47.541172" lon="1.8268098">
        <ele>137.0</ele>
        <time>2021-11-25T08:23:43Z</time>
      </trkpt>
      <trkpt lat="47.54117" lon="1.8267927">
        <ele>137.0</ele>
        <time>2021-11-25T08:23:44Z</time>
      </trkpt>
      <trkpt lat="47.54117" lon="1.8267746">
        <ele>137.0</ele>
        <time>2021-11-25T08:23:45Z</time>
      </trkpt>
      <trkpt lat="47.541164" lon="1.8267586">
        <ele>137.0</ele>
        <time>2021-11-25T08:23:46Z</time>
      </trkpt>
      <trkpt lat="47.54116" lon="1.826742">
        <ele>136.0</ele>
        <time>2021-11-25T08:23:47Z</time>
      </trkpt>
      <trkpt lat="47.541157" lon="1.8267239">
        <ele>137.0</ele>
        <time>2021-11-25T08:23:48Z</time>
      </trkpt>
      <trkpt lat="47.541153" lon="1.8267066">
        <ele>137.0</ele>
        <time>2021-11-25T08:23:49Z</time>
      </trkpt>
      <trkpt lat="47.54115" lon="1.82669">
        <ele>137.0</ele>
        <time>2021-11-25T08:23:50Z</time>
      </trkpt>
      <trkpt lat="47.541145" lon="1.8266703">
        <ele>137.0</ele>
        <time>2021-11-25T08:23:51Z</time>
      </trkpt>
      <trkpt lat="47.54114" lon="1.8266487">
        <ele>137.0</ele>
        <time>2021-11-25T08:23:52Z</time>
      </trkpt>
      <trkpt lat="47.541134" lon="1.8266287">
        <ele>137.0</ele>
        <time>2021-11-25T08:23:53Z</time>
      </trkpt>
      <trkpt lat="47.54113" lon="1.826608">
        <ele>137.0</ele>
        <time>2021-11-25T08:23:54Z</time>
      </trkpt>
      <trkpt lat="47.541122" lon="1.826587">
        <ele>137.0</ele>
        <time>2021-11-25T08:23:55Z</time>
      </trkpt>
      <trkpt lat="47.54112" lon="1.8265723">
        <ele>137.0</ele>
        <time>2021-11-25T08:23:56Z</time>
      </trkpt>
      <trkpt lat="47.54111" lon="1.8265703">
        <ele>137.0</ele>
        <time>2021-11-25T08:23:57Z</time>
      </trkpt>
      <trkpt lat="47.541107" lon="1.8265622">
        <ele>138.0</ele>
        <time>2021-11-25T08:23:58Z</time>
      </trkpt>
      <trkpt lat="47.541107" lon="1.8265487">
        <ele>138.0</ele>
        <time>2021-11-25T08:23:59Z</time>
      </trkpt>
      <trkpt lat="47.541107" lon="1.826541">
        <ele>139.0</ele>
        <time>2021-11-25T08:24:00Z</time>
      </trkpt>
      <trkpt lat="47.541107" lon="1.826541">
        <ele>139.0</ele>
        <time>2021-11-25T08:24:00Z</time>
      </trkpt>
    </trkseg>
    <trkseg>
      <trkpt lat="47.541107" lon="1.826541">
        <ele>139.0</ele>
        <time>2021-11-25T08:24:00Z</time>
      </trkpt>
      <trkpt lat="47.541077" lon="1.8264781">
        <ele>145.0</ele>
        <time>2021-11-25T08:25:20Z</time>
      </trkpt>
      <trkpt lat="47.54107" lon="1.8264618">
        <ele>145.0</ele>
        <time>2021-11-25T08:25:21Z</time>
      </trkpt>
      <trkpt lat="47.541065" lon="1.8264465">
        <ele>145.0</ele>
        <time>2021-11-25T08:25:22Z</time>
      </trkpt>
      <trkpt lat="47.54106" lon="1.8264359">
        <ele>145.0</ele>
        <time>2021-11-25T08:25:23Z</time>
      </trkpt>
      <trkpt lat="47.541058" lon="1.8264244">
        <ele>145.0</ele>
        <time>2021-11-25T08:25:24Z</time>
      </trkpt>
      <trkpt lat="47.541058" lon="1.8264133">
        <ele>145.0</ele>
        <time>2021-11-25T08:25:25Z</time>
      </trkpt>
      <trkpt lat="47.541058" lon="1.8264025">
        <ele>145.0</ele>
        <time>2021-11-25T08:25:26Z</time>
      </trkpt>
      <trkpt lat="47.541058" lon="1.8263891">
        <ele>145.0</ele>
        <time>2021-11-25T08:25:27Z</time>
      </trkpt>
      <trkpt lat="47.541058" lon="1.8263768">
        <ele>145.0</ele>
        <time>2021-11-25T08:25:28Z</time>
      </trkpt>
      <trkpt lat="47.541058" lon="1.8263634">
        <ele>145.0</ele>
        <time>2021-11-25T08:25:29Z</time>
      </trkpt>
      <trkpt lat="47.541054" lon="1.8263445">
        <ele>145.0</ele>
        <time>2021-11-25T08:25:30Z</time>
      </trkpt>
      <trkpt lat="47.541054" lon="1.826323">
        <ele>145.0</ele>
        <time>2021-11-25T08:25:31Z</time>
      </trkpt>
      <trkpt lat="47.541054" lon="1.8263047">
        <ele>145.0</ele>
        <time>2021-11-25T08:25:32Z</time>
      </trkpt>
      <trkpt lat="47.54105" lon="1.8262901">
        <ele>145.0</ele>
        <time>2021-11-25T08:25:33Z</time>
      </trkpt>
      <trkpt lat="47.54105" lon="1.8262745">
        <ele>145.0</ele>
        <time>2021-11-25T08:25:34Z</time>
      </trkpt>
      <trkpt lat="47.541054" lon="1.8262546">
        <ele>145.0</ele>
        <time>2021-11-25T08:25:35Z</time>
      </trkpt>
      <trkpt lat="47.54105" lon="1.8262403">
        <ele>145.0</ele>
        <time>2021-11-25T08:25:36Z</time>
      </trkpt>
      <trkpt lat="47.541046" lon="1.826225">
        <ele>145.0</ele>
        <time>2021-11-25T08:25:37Z</time>
      </trkpt>
      <trkpt lat="47.541046" lon="1.8262084">
        <ele>144.0</ele>
        <time>2021-11-25T08:25:38Z</time>
      </trkpt>
      <trkpt lat="47.541042" lon="1.8261932">
        <ele>144.0</ele>
        <time>2021-11-25T08:25:39Z</time>
      </trkpt>
      <trkpt lat="47.541042" lon="1.8261769">
        <ele>144.0</ele>
        <time>2021-11-25T08:25:40Z</time>
      </trkpt>
      <trkpt lat="47.541042" lon="1.8261564">
        <ele>144.0</ele>
        <time>2021-11-25T08:25:41Z</time>
      </trkpt>
      <trkpt lat="47.541042" lon="1.8261381">
        <ele>144.0</ele>
        <time>2021-11-25T08:25:42Z</time>
      </trkpt>
      <trkpt lat="47.54104" lon="1.82612">
        <ele>144.0</ele>
        <time>2021-11-25T08:25:43Z</time>
      </trkpt>
      <trkpt lat="47.541042" lon="1.8261067">
        <ele>143.0</ele>
        <time>2021-11-25T08:25:44Z</time>
      </trkpt>
      <trkpt lat="47.541042" lon="1.8260907">
        <ele>143.0</ele>
        <time>2021-11-25T08:25:45Z</time>
      </trkpt>
      <trkpt lat="47.54104" lon="1.826073">
        <ele>143.0</ele>
        <time>2021-11-25T08:25:46Z</time>
      </trkpt>
      <trkpt lat="47.54104" lon="1.826052">
        <ele>142.0</ele>
        <time>2021-11-25T08:25:47Z</time>
      </trkpt>
      <trkpt lat="47.541035" lon="1.8260266">
        <ele>143.0</ele>
        <time>2021-11-25T08:25:48Z</time>
      </trkpt>
      <trkpt lat="47.54103" lon="1.8260027">
        <ele>143.0</ele>
        <time>2021-11-25T08:25:49Z</time>
      </trkpt>
      <trkpt lat="47.54103" lon="1.8259805">
        <ele>143.0</ele>
        <time>2021-11-25T08:25:50Z</time>
      </trkpt>
      <trkpt lat="47.541027" lon="1.8259606">
        <ele>143.0</ele>
        <time>2021-11-25T08:25:51Z</time>
      </trkpt>
      <trkpt lat="47.541027" lon="1.8259435">
        <ele>142.0</ele>
        <time>2021-11-25T08:25:52Z</time>
      </trkpt>
      <trkpt lat="47.541023" lon="1.8259271">
        <ele>143.0</ele>
        <time>2021-11-25T08:25:53Z</time>
      </trkpt>
      <trkpt lat="47.54102" lon="1.8259072">
        <ele>142.0</ele>
        <time>2021-11-25T08:25:54Z</time>
      </trkpt>
      <trkpt lat="47.54102" lon="1.825891">
        <ele>142.0</ele>
        <time>2021-11-25T08:25:55Z</time>
      </trkpt>
      <trkpt lat="47.541016" lon="1.8258731">
        <ele>141.0</ele>
        <time>2021-11-25T08:25:56Z</time>
      </trkpt>
      <trkpt lat="47.541016" lon="1.8258535">
        <ele>141.0</ele>
        <time>2021-11-25T08:25:57Z</time>
      </trkpt>
      <trkpt lat="47.54101" lon="1.8258399">
        <ele>141.0</ele>
        <time>2021-11-25T08:25:58Z</time>
      </trkpt>
      <trkpt lat="47.54101" lon="1.8258244">
        <ele>141.0</ele>
        <time>2021-11-25T08:25:59Z</time>
      </trkpt>
      <trkpt lat="47.541008" lon="1.8258052">
        <ele>141.0</ele>
        <time>2021-11-25T08:26:00Z</time>
      </trkpt>
      <trkpt lat="47.541004" lon="1.8257889">
        <ele>141.0</ele>
        <time>2021-11-25T08:26:01Z</time>
      </trkpt>
      <trkpt lat="47.541004" lon="1.8257732">
        <ele>140.0</ele>
        <time>2021-11-25T08:26:02Z</time>
      </trkpt>
      <trkpt lat="47.541004" lon="1.8257612">
        <ele>141.0</ele>
        <time>2021-11-25T08:26:03Z</time>
      </trkpt>
      <trkpt lat="47.541" lon="1.825748">
        <ele>141.0</ele>
        <time>2021-11-25T08:26:04Z</time>
      </trkpt>
      <trkpt lat="47.540997" lon="1.8257295">
        <ele>140.0</ele>
        <time>2021-11-25T08:26:05Z</time>
      </trkpt>
      <trkpt lat="47.540993" lon="1.8257116">
        <ele>140.0</ele>
        <time>2021-11-25T08:26:06Z</time>
      </trkpt>
      <trkpt lat="47.540993" lon="1.8256952">
        <ele>140.0</ele>
        <time>2021-11-25T08:26:07Z</time>
      </trkpt>
      <trkpt lat="47.540985" lon="1.8256812">
        <ele>140.0</ele>
        <time>2021-11-25T08:26:08Z</time>
      </trkpt>
      <trkpt lat="47.54098" lon="1.8256698">
        <ele>139.0</ele>
        <time>2021-11-25T08:26:09Z</time>
      </trkpt>
      <trkpt lat="47.540977" lon="1.8256584">
        <ele>139.0</ele>
        <time>2021-11-25T08:26:10Z</time>
      </trkpt>
      <trkpt lat="47.54097" lon="1.8256451">
        <ele>138.0</ele>
        <time>2021-11-25T08:26:11Z</time>
      </trkpt>
      <trkpt lat="47.54097" lon="1.8256451">
        <ele>138.0</ele>
        <time>2021-11-25T08:26:12Z</time>
      </trkpt>
      <trkpt lat="47.54097" lon="1.8256451">
        <ele>138.0</ele>
        <time>2021-11-25T08:26:13Z</time>
      </trkpt>
      <trkpt lat="47.54097" lon="1.8256096">
        <ele>137.0</ele>
        <time>2021-11-25T08:26:14Z</time>
      </trkpt>
      <trkpt lat="47.540966" lon="1.8255938">
        <ele>137.0</ele>
        <time>2021-11-25T08:26:15Z</time>
      </trkpt>
      <trkpt lat="47.54096" lon="1.8255771">
        <ele>137.0</ele>
        <time>2021-11-25T08:26:16Z</time>
      </trkpt>
      <trkpt lat="47.54096" lon="1.8255618">
        <ele>137.0</ele>
        <time>2021-11-25T08:26:17Z</time>
      </trkpt>
      <trkpt lat="47.540955" lon="1.8255444">
        <ele>136.0</ele>
        <time>2021-11-25T08:26:18Z</time>
      </trkpt>
      <trkpt lat="47.54095" lon="1.8255285">
        <ele>136.0</ele>
        <time>2021-11-25T08:26:19Z</time>
      </trkpt>
      <trkpt lat="47.540947" lon="1.825513">
        <ele>136.0</ele>
        <time>2021-11-25T08:26:20Z</time>
      </trkpt>
      <trkpt lat="47.540947" lon="1.8254998">
        <ele>136.0</ele>
        <time>2021-11-25T08:26:21Z</time>
      </trkpt>
      <trkpt lat="47.540943" lon="1.8254831">
        <ele>136.0</ele>
        <time>2021-11-25T08:26:22Z</time>
      </trkpt>
      <trkpt lat="47.54094" lon="1.8254645">
        <ele>135.0</ele>
        <time>2021-11-25T08:26:23Z</time>
      </trkpt>
      <trkpt lat="47.54094" lon="1.8254492">
        <ele>135.0</ele>
        <time>2021-11-25T08:26:24Z</time>
      </trkpt>
      <trkpt lat="47.540936" lon="1.8254318">
        <ele>135.0</ele>
        <time>2021-11-25T08:26:25Z</time>
      </trkpt>
      <trkpt lat="47.540936" lon="1.8254155">
        <ele>134.0</ele>
        <time>2021-11-25T08:26:26Z</time>
      </trkpt>
      <trkpt lat="47.54093" lon="1.8253942">
        <ele>134.0</ele>
        <time>2021-11-25T08:26:27Z</time>
      </trkpt>
      <trkpt lat="47.540924" lon="1.8253766">
        <ele>134.0</ele>
        <time>2021-11-25T08:26:28Z</time>
      </trkpt>
      <trkpt lat="47.54092" lon="1.8253651">
        <ele>134.0</ele>
        <time>2021-11-25T08:26:29Z</time>
      </trkpt>
      <trkpt lat="47.540916" lon="1.8253524">
        <ele>134.0</ele>
        <time>2021-11-25T08:26:30Z</time>
      </trkpt>
      <trkpt lat="47.540913" lon="1.825339">
        <ele>134.0</ele>
        <time>2021-11-25T08:26:31Z</time>
      </trkpt>
      <trkpt lat="47.54091" lon="1.8253222">
        <ele>134.0</ele>
        <time>2021-11-25T08:26:32Z</time>
      </trkpt>
      <trkpt lat="47.54091" lon="1.8253077">
        <ele>134.0</ele>
        <time>2021-11-25T08:26:33Z</time>
      </trkpt>
      <trkpt lat="47.54091" lon="1.8252923">
        <ele>134.0</ele>
        <time>2021-11-25T08:26:34Z</time>
      </trkpt>
      <trkpt lat="47.540905" lon="1.8252773">
        <ele>133.0</ele>
        <time>2021-11-25T08:26:35Z</time>
      </trkpt>
      <trkpt lat="47.5409" lon="1.825258">
        <ele>133.0</ele>
        <time>2021-11-25T08:26:36Z</time>
      </trkpt>
      <trkpt lat="47.540897" lon="1.8252438">
        <ele>132.0</ele>
        <time>2021-11-25T08:26:37Z</time>
      </trkpt>
      <trkpt lat="47.540894" lon="1.8252304">
        <ele>132.0</ele>
        <time>2021-11-25T08:26:38Z</time>
      </trkpt>
      <trkpt lat="47.54089" lon="1.825207">
        <ele>132.0</ele>
        <time>2021-11-25T08:26:39Z</time>
      </trkpt>
      <trkpt lat="47.54089" lon="1.8251926">
        <ele>132.0</ele>
        <time>2021-11-25T08:26:40Z</time>
      </trkpt>
      <trkpt lat="47.540886" lon="1.8251808">
        <ele>132.0</ele>
        <time>2021-11-25T08:26:41Z</time>
      </trkpt>
      <trkpt lat="47.540882" lon="1.8251704">
        <ele>132.0</ele>
        <time>2021-11-25T08:26:42Z</time>
      </trkpt>
      <trkpt lat="47.540882" lon="1.8251554">
        <ele>131.0</ele>
        <time>2021-11-25T08:26:43Z</time>
      </trkpt>
      <trkpt lat="47.54088" lon="1.8251367">
        <ele>131.0</ele>
        <time>2021-11-25T08:26:44Z</time>
      </trkpt>
      <trkpt lat="47.540874" lon="1.8251164">
        <ele>131.0</ele>
        <time>2021-11-25T08:26:45Z</time>
      </trkpt>
      <trkpt lat="47.54087" lon="1.8251024">
        <ele>131.0</ele>
        <time>2021-11-25T08:26:46Z</time>
      </trkpt>
      <trkpt lat="47.540863" lon="1.8250805">
        <ele>131.0</ele>
        <time>2021-11-25T08:26:47Z</time>
      </trkpt>
      <trkpt lat="47.540863" lon="1.825063">
        <ele>131.0</ele>
        <time>2021-11-25T08:26:48Z</time>
      </trkpt>
      <trkpt lat="47.54086" lon="1.8250473">
        <ele>131.0</ele>
        <time>2021-11-25T08:26:49Z</time>
      </trkpt>
      <trkpt lat="47.54086" lon="1.8250299">
        <ele>131.0</ele>
        <time>2021-11-25T08:26:50Z</time>
      </trkpt>
      <trkpt lat="47.540855" lon="1.825015">
        <ele>131.0</ele>
        <time>2021-11-25T08:26:51Z</time>
      </trkpt>
      <trkpt lat="47.540848" lon="1.8250035">
        <ele>130.0</ele>
        <time>2021-11-25T08:26:52Z</time>
      </trkpt>
      <trkpt lat="47.540844" lon="1.8249898">
        <ele>130.0</ele>
        <time>2021-11-25T08:26:53Z</time>
      </trkpt>
      <trkpt lat="47.540836" lon="1.8249695">
        <ele>130.0</ele>
        <time>2021-11-25T08:26:54Z</time>
      </trkpt>
      <trkpt lat="47.540833" lon="1.8249507">
        <ele>130.0</ele>
        <time>2021-11-25T08:26:55Z</time>
      </trkpt>
      <trkpt lat="47.54083" lon="1.8249367">
        <ele>130.0</ele>
        <time>2021-11-25T08:26:56Z</time>
      </trkpt>
      <trkpt lat="47.54083" lon="1.824927">
        <ele>130.0</ele>
        <time>2021-11-25T08:26:57Z</time>
      </trkpt>
      <trkpt lat="47.540825" lon="1.8249145">
        <ele>130.0</ele>
        <time>2021-11-25T08:26:58Z</time>
      </trkpt>
      <trkpt lat="47.54082" lon="1.8249022">
        <ele>129.0</ele>
        <time>2021-11-25T08:26:59Z</time>
      </trkpt>
      <trkpt lat="47.540817" lon="1.8248862">
        <ele>129.0</ele>
        <time>2021-11-25T08:27:00Z</time>
      </trkpt>
      <trkpt lat="47.540817" lon="1.8248655">
        <ele>129.0</ele>
        <time>2021-11-25T08:27:01Z</time>
      </trkpt>
      <trkpt lat="47.540813" lon="1.824848">
        <ele>129.0</ele>
        <time>2021-11-25T08:27:02Z</time>
      </trkpt>
      <trkpt lat="47.540806" lon="1.8248338">
        <ele>129.0</ele>
        <time>2021-11-25T08:27:03Z</time>
      </trkpt>
      <trkpt lat="47.540802" lon="1.8248228">
        <ele>129.0</ele>
        <time>2021-11-25T08:27:04Z</time>
      </trkpt>
      <trkpt lat="47.5408" lon="1.8248065">
        <ele>129.0</ele>
        <time>2021-11-25T08:27:05Z</time>
      </trkpt>
      <trkpt lat="47.5408" lon="1.8247918">
        <ele>129.0</ele>
        <time>2021-11-25T08:27:06Z</time>
      </trkpt>
      <trkpt lat="47.5408" lon="1.8247744">
        <ele>129.0</ele>
        <time>2021-11-25T08:27:07Z</time>
      </trkpt>
      <trkpt lat="47.540794" lon="1.8247575">
        <ele>129.0</ele>
        <time>2021-11-25T08:27:08Z</time>
      </trkpt>
      <trkpt lat="47.54079" lon="1.8247403">
        <ele>129.0</ele>
        <time>2021-11-25T08:27:09Z</time>
      </trkpt>
      <trkpt lat="47.54079" lon="1.8247223">
        <ele>129.0</ele>
        <time>2021-11-25T08:27:10Z</time>
      </trkpt>
      <trkpt lat="47.540787" lon="1.8247055">
        <ele>129.0</ele>
        <time>2021-11-25T08:27:11Z</time>
      </trkpt>
      <trkpt lat="47.540787" lon="1.8246878">
        <ele>129.0</ele>
        <time>2021-11-25T08:27:12Z</time>
      </trkpt>
      <trkpt lat="47.540787" lon="1.824667">
        <ele>129.0</ele>
        <time>2021-11-25T08:27:13Z</time>
      </trkpt>
      <trkpt lat="47.54079" lon="1.8246462">
        <ele>128.0</ele>
        <time>2021-11-25T08:27:14Z</time>
      </trkpt>
      <trkpt lat="47.540794" lon="1.8246257">
        <ele>128.0</ele>
        <time>2021-11-25T08:27:15Z</time>
      </trkpt>
      <trkpt lat="47.54079" lon="1.8246087">
        <ele>128.0</ele>
        <time>2021-11-25T08:27:16Z</time>
      </trkpt>
      <trkpt lat="47.540787" lon="1.8245918">
        <ele>128.0</ele>
        <time>2021-11-25T08:27:17Z</time>
      </trkpt>
      <trkpt lat="47.540787" lon="1.8245735">
        <ele>128.0</ele>
        <time>2021-11-25T08:27:18Z</time>
      </trkpt>
      <trkpt lat="47.540783" lon="1.824551">
        <ele>128.0</ele>
        <time>2021-11-25T08:27:19Z</time>
      </trkpt>
      <trkpt lat="47.540783" lon="1.8245324">
        <ele>127.0</ele>
        <time>2021-11-25T08:27:20Z</time>
      </trkpt>
      <trkpt lat="47.54078" lon="1.8245099">
        <ele>127.0</ele>
        <time>2021-11-25T08:27:21Z</time>
      </trkpt>
      <trkpt lat="47.540775" lon="1.8244842">
        <ele>127.0</ele>
        <time>2021-11-25T08:27:22Z</time>
      </trkpt>
      <trkpt lat="47.54077" lon="1.824467">
        <ele>127.0</ele>
        <time>2021-11-25T08:27:23Z</time>
      </trkpt>
      <trkpt lat="47.540768" lon="1.8244516">
        <ele>127.0</ele>
        <time>2021-11-25T08:27:24Z</time>
      </trkpt>
      <trkpt lat="47.540768" lon="1.8244382">
        <ele>127.0</ele>
        <time>2021-11-25T08:27:25Z</time>
      </trkpt>
      <trkpt lat="47.540764" lon="1.8244213">
        <ele>127.0</ele>
        <time>2021-11-25T08:27:26Z</time>
      </trkpt>
      <trkpt lat="47.54076" lon="1.8244036">
        <ele>127.0</ele>
        <time>2021-11-25T08:27:27Z</time>
      </trkpt>
      <trkpt lat="47.540752" lon="1.824384">
        <ele>127.0</ele>
        <time>2021-11-25T08:27:28Z</time>
      </trkpt>
      <trkpt lat="47.54075" lon="1.8243657">
        <ele>127.0</ele>
        <time>2021-11-25T08:27:29Z</time>
      </trkpt>
      <trkpt lat="47.540745" lon="1.8243511">
        <ele>127.0</ele>
        <time>2021-11-25T08:27:30Z</time>
      </trkpt>
      <trkpt lat="47.540745" lon="1.8243312">
        <ele>127.0</ele>
        <time>2021-11-25T08:27:31Z</time>
      </trkpt>
      <trkpt lat="47.54074" lon="1.8243078">
        <ele>127.0</ele>
        <time>2021-11-25T08:27:32Z</time>
      </trkpt>
      <trkpt lat="47.540737" lon="1.8242877">
        <ele>127.0</ele>
        <time>2021-11-25T08:27:33Z</time>
      </trkpt>
      <trkpt lat="47.540733" lon="1.8242714">
        <ele>127.0</ele>
        <time>2021-11-25T08:27:34Z</time>
      </trkpt>
      <trkpt lat="47.54073" lon="1.8242594">
        <ele>126.0</ele>
        <time>2021-11-25T08:27:35Z</time>
      </trkpt>
      <trkpt lat="47.540726" lon="1.824241">
        <ele>126.0</ele>
        <time>2021-11-25T08:27:36Z</time>
      </trkpt>
      <trkpt lat="47.54072" lon="1.8242235">
        <ele>126.0</ele>
        <time>2021-11-25T08:27:37Z</time>
      </trkpt>
      <trkpt lat="47.54072" lon="1.82421">
        <ele>126.0</ele>
        <time>2021-11-25T08:27:38Z</time>
      </trkpt>
      <trkpt lat="47.540718" lon="1.8241959">
        <ele>126.0</ele>
        <time>2021-11-25T08:27:39Z</time>
      </trkpt>
      <trkpt lat="47.540718" lon="1.8241761">
        <ele>126.0</ele>
        <time>2021-11-25T08:27:40Z</time>
      </trkpt>
      <trkpt lat="47.540714" lon="1.8241564">
        <ele>125.0</ele>
        <time>2021-11-25T08:27:41Z</time>
      </trkpt>
      <trkpt lat="47.54071" lon="1.8241372">
        <ele>125.0</ele>
        <time>2021-11-25T08:27:42Z</time>
      </trkpt>
      <trkpt lat="47.540707" lon="1.8241181">
        <ele>125.0</ele>
        <time>2021-11-25T08:27:43Z</time>
      </trkpt>
      <trkpt lat="47.540703" lon="1.8240945">
        <ele>125.0</ele>
        <time>2021-11-25T08:27:44Z</time>
      </trkpt>
      <trkpt lat="47.5407" lon="1.8240746">
        <ele>125.0</ele>
        <time>2021-11-25T08:27:45Z</time>
      </trkpt>
      <trkpt lat="47.540695" lon="1.8240539">
        <ele>125.0</ele>
        <time>2021-11-25T08:27:46Z</time>
      </trkpt>
      <trkpt lat="47.54069" lon="1.8240329">
        <ele>125.0</ele>
        <time>2021-11-25T08:27:47Z</time>
      </trkpt>
      <trkpt lat="47.540688" lon="1.8240138">
        <ele>124.0</ele>
        <time>2021-11-25T08:27:48Z</time>
      </trkpt>
      <trkpt lat="47.540684" lon="1.8239938">
        <ele>124.0</ele>
        <time>2021-11-25T08:27:49Z</time>
      </trkpt>
      <trkpt lat="47.540684" lon="1.8239765">
        <ele>124.0</ele>
        <time>2021-11-25T08:27:50Z</time>
      </trkpt>
      <trkpt lat="47.54068" lon="1.8239545">
        <ele>124.0</ele>
        <time>2021-11-25T08:27:51Z</time>
      </trkpt>
      <trkpt lat="47.54068" lon="1.8239372">
        <ele>124.0</ele>
        <time>2021-11-25T08:27:52Z</time>
      </trkpt>
      <trkpt lat="47.540676" lon="1.8239144">
        <ele>124.0</ele>
        <time>2021-11-25T08:27:53Z</time>
      </trkpt>
      <trkpt lat="47.540672" lon="1.823893">
        <ele>124.0</ele>
        <time>2021-11-25T08:27:54Z</time>
      </trkpt>
      <trkpt lat="47.54067" lon="1.8238697">
        <ele>124.0</ele>
        <time>2021-11-25T08:27:55Z</time>
      </trkpt>
      <trkpt lat="47.540672" lon="1.8238517">
        <ele>123.0</ele>
        <time>2021-11-25T08:27:56Z</time>
      </trkpt>
      <trkpt lat="47.540672" lon="1.8238276">
        <ele>124.0</ele>
        <time>2021-11-25T08:27:57Z</time>
      </trkpt>
      <trkpt lat="47.540672" lon="1.8238051">
        <ele>124.0</ele>
        <time>2021-11-25T08:27:58Z</time>
      </trkpt>
      <trkpt lat="47.54067" lon="1.8237809">
        <ele>124.0</ele>
        <time>2021-11-25T08:27:59Z</time>
      </trkpt>
      <trkpt lat="47.54067" lon="1.8237565">
        <ele>124.0</ele>
        <time>2021-11-25T08:28:00Z</time>
      </trkpt>
      <trkpt lat="47.54067" lon="1.8237394">
        <ele>124.0</ele>
        <time>2021-11-25T08:28:01Z</time>
      </trkpt>
      <trkpt lat="47.540665" lon="1.8237269">
        <ele>125.0</ele>
        <time>2021-11-25T08:28:02Z</time>
      </trkpt>
      <trkpt lat="47.540665" lon="1.8237119">
        <ele>126.0</ele>
        <time>2021-11-25T08:28:03Z</time>
      </trkpt>
      <trkpt lat="47.540665" lon="1.8236965">
        <ele>126.0</ele>
        <time>2021-11-25T08:28:04Z</time>
      </trkpt>
      <trkpt lat="47.54067" lon="1.823686">
        <ele>125.0</ele>
        <time>2021-11-25T08:28:05Z</time>
      </trkpt>
      <trkpt lat="47.54067" lon="1.8236713">
        <ele>126.0</ele>
        <time>2021-11-25T08:28:06Z</time>
      </trkpt>
      <trkpt lat="47.540665" lon="1.8236535">
        <ele>126.0</ele>
        <time>2021-11-25T08:28:07Z</time>
      </trkpt>
      <trkpt lat="47.540665" lon="1.8236402">
        <ele>126.0</ele>
        <time>2021-11-25T08:28:08Z</time>
      </trkpt>
      <trkpt lat="47.54066" lon="1.8236269">
        <ele>126.0</ele>
        <time>2021-11-25T08:28:09Z</time>
      </trkpt>
      <trkpt lat="47.54066" lon="1.8236105">
        <ele>125.0</ele>
        <time>2021-11-25T08:28:10Z</time>
      </trkpt>
      <trkpt lat="47.540672" lon="1.8235749">
        <ele>125.0</ele>
        <time>2021-11-25T08:28:11Z</time>
      </trkpt>
      <trkpt lat="47.540672" lon="1.8235749">
        <ele>125.0</ele>
        <time>2021-11-25T08:28:11Z</time>
      </trkpt>
      <trkpt lat="47.540676" lon="1.8235531">
        <ele>125.0</ele>
        <time>2021-11-25T08:28:13Z</time>
      </trkpt>
      <trkpt lat="47.54068" lon="1.8235328">
        <ele>125.0</ele>
        <time>2021-11-25T08:28:14Z</time>
      </trkpt>
      <trkpt lat="47.540684" lon="1.823511">
        <ele>125.0</ele>
        <time>2021-11-25T08:28:15Z</time>
      </trkpt>
      <trkpt lat="47.540684" lon="1.8234923">
        <ele>124.0</ele>
        <time>2021-11-25T08:28:16Z</time>
      </trkpt>
      <trkpt lat="47.540684" lon="1.8234758">
        <ele>124.0</ele>
        <time>2021-11-25T08:28:17Z</time>
      </trkpt>
      <trkpt lat="47.540684" lon="1.8234578">
        <ele>124.0</ele>
        <time>2021-11-25T08:28:18Z</time>
      </trkpt>
      <trkpt lat="47.540684" lon="1.823441">
        <ele>124.0</ele>
        <time>2021-11-25T08:28:19Z</time>
      </trkpt>
      <trkpt lat="47.54068" lon="1.8234242">
        <ele>124.0</ele>
        <time>2021-11-25T08:28:20Z</time>
      </trkpt>
      <trkpt lat="47.54068" lon="1.8234091">
        <ele>124.0</ele>
        <time>2021-11-25T08:28:21Z</time>
      </trkpt>
      <trkpt lat="47.54068" lon="1.8233907">
        <ele>124.0</ele>
        <time>2021-11-25T08:28:22Z</time>
      </trkpt>
      <trkpt lat="47.54068" lon="1.8233734">
        <ele>124.0</ele>
        <time>2021-11-25T08:28:23Z</time>
      </trkpt>
      <trkpt lat="47.540676" lon="1.8233529">
        <ele>124.0</ele>
        <time>2021-11-25T08:28:24Z</time>
      </trkpt>
      <trkpt lat="47.540672" lon="1.8233315">
        <ele>123.0</ele>
        <time>2021-11-25T08:28:25Z</time>
      </trkpt>
      <trkpt lat="47.540672" lon="1.8233134">
        <ele>123.0</ele>
        <time>2021-11-25T08:28:26Z</time>
      </trkpt>
      <trkpt lat="47.540672" lon="1.8232983">
        <ele>124.0</ele>
        <time>2021-11-25T08:28:27Z</time>
      </trkpt>
      <trkpt lat="47.540676" lon="1.8232815">
        <ele>124.0</ele>
        <time>2021-11-25T08:28:28Z</time>
      </trkpt>
      <trkpt lat="47.54068" lon="1.8232671">
        <ele>124.0</ele>
        <time>2021-11-25T08:28:29Z</time>
      </trkpt>
      <trkpt lat="47.54068" lon="1.8232524">
        <ele>124.0</ele>
        <time>2021-11-25T08:28:30Z</time>
      </trkpt>
      <trkpt lat="47.54068" lon="1.8232362">
        <ele>124.0</ele>
        <time>2021-11-25T08:28:31Z</time>
      </trkpt>
      <trkpt lat="47.54068" lon="1.8232169">
        <ele>123.0</ele>
        <time>2021-11-25T08:28:32Z</time>
      </trkpt>
      <trkpt lat="47.54068" lon="1.8232005">
        <ele>123.0</ele>
        <time>2021-11-25T08:28:33Z</time>
      </trkpt>
      <trkpt lat="47.54068" lon="1.8231803">
        <ele>123.0</ele>
        <time>2021-11-25T08:28:34Z</time>
      </trkpt>
      <trkpt lat="47.54068" lon="1.8231477">
        <ele>123.0</ele>
        <time>2021-11-25T08:28:35Z</time>
      </trkpt>
      <trkpt lat="47.54068" lon="1.8231477">
        <ele>123.0</ele>
        <time>2021-11-25T08:28:35Z</time>
      </trkpt>
      <trkpt lat="47.54068" lon="1.8231298">
        <ele>123.0</ele>
        <time>2021-11-25T08:28:37Z</time>
      </trkpt>
      <trkpt lat="47.540676" lon="1.823111">
        <ele>122.0</ele>
        <time>2021-11-25T08:28:38Z</time>
      </trkpt>
      <trkpt lat="47.540672" lon="1.8230901">
        <ele>122.0</ele>
        <time>2021-11-25T08:28:39Z</time>
      </trkpt>
      <trkpt lat="47.54067" lon="1.8230504">
        <ele>122.0</ele>
        <time>2021-11-25T08:28:40Z</time>
      </trkpt>
      <trkpt lat="47.54067" lon="1.8230504">
        <ele>122.0</ele>
        <time>2021-11-25T08:28:40Z</time>
      </trkpt>
      <trkpt lat="47.540665" lon="1.8230271">
        <ele>122.0</ele>
        <time>2021-11-25T08:28:42Z</time>
      </trkpt>
      <trkpt lat="47.54067" lon="1.8230058">
        <ele>122.0</ele>
        <time>2021-11-25T08:28:43Z</time>
      </trkpt>
      <trkpt lat="47.54067" lon="1.822988">
        <ele>122.0</ele>
        <time>2021-11-25T08:28:44Z</time>
      </trkpt>
      <trkpt lat="47.54067" lon="1.8229713">
        <ele>121.0</ele>
        <time>2021-11-25T08:28:45Z</time>
      </trkpt>
      <trkpt lat="47.54067" lon="1.8229495">
        <ele>121.0</ele>
        <time>2021-11-25T08:28:46Z</time>
      </trkpt>
      <trkpt lat="47.540665" lon="1.8229334">
        <ele>121.0</ele>
        <time>2021-11-25T08:28:47Z</time>
      </trkpt>
      <trkpt lat="47.540665" lon="1.8229144">
        <ele>121.0</ele>
        <time>2021-11-25T08:28:48Z</time>
      </trkpt>
      <trkpt lat="47.540665" lon="1.82289">
        <ele>121.0</ele>
        <time>2021-11-25T08:28:49Z</time>
      </trkpt>
      <trkpt lat="47.54066" lon="1.8228674">
        <ele>121.0</ele>
        <time>2021-11-25T08:28:50Z</time>
      </trkpt>
      <trkpt lat="47.540657" lon="1.8228436">
        <ele>121.0</ele>
        <time>2021-11-25T08:28:51Z</time>
      </trkpt>
      <trkpt lat="47.540653" lon="1.8228221">
        <ele>121.0</ele>
        <time>2021-11-25T08:28:52Z</time>
      </trkpt>
      <trkpt lat="47.540653" lon="1.8227971">
        <ele>121.0</ele>
        <time>2021-11-25T08:28:53Z</time>
      </trkpt>
      <trkpt lat="47.54065" lon="1.8227751">
        <ele>121.0</ele>
        <time>2021-11-25T08:28:54Z</time>
      </trkpt>
      <trkpt lat="47.540646" lon="1.8227508">
        <ele>121.0</ele>
        <time>2021-11-25T08:28:55Z</time>
      </trkpt>
      <trkpt lat="47.540646" lon="1.8227301">
        <ele>121.0</ele>
        <time>2021-11-25T08:28:56Z</time>
      </trkpt>
      <trkpt lat="47.540646" lon="1.8227125">
        <ele>121.0</ele>
        <time>2021-11-25T08:28:57Z</time>
      </trkpt>
      <trkpt lat="47.540646" lon="1.8226972">
        <ele>121.0</ele>
        <time>2021-11-25T08:28:58Z</time>
      </trkpt>
      <trkpt lat="47.540646" lon="1.822681">
        <ele>121.0</ele>
        <time>2021-11-25T08:28:59Z</time>
      </trkpt>
      <trkpt lat="47.54064" lon="1.8226639">
        <ele>122.0</ele>
        <time>2021-11-25T08:29:00Z</time>
      </trkpt>
      <trkpt lat="47.540638" lon="1.8226451">
        <ele>122.0</ele>
        <time>2021-11-25T08:29:01Z</time>
      </trkpt>
      <trkpt lat="47.540634" lon="1.8226216">
        <ele>122.0</ele>
        <time>2021-11-25T08:29:02Z</time>
      </trkpt>
      <trkpt lat="47.54063" lon="1.8225869">
        <ele>122.0</ele>
        <time>2021-11-25T08:29:03Z</time>
      </trkpt>
      <trkpt lat="47.540627" lon="1.8225685">
        <ele>122.0</ele>
        <time>2021-11-25T08:29:04Z</time>
      </trkpt>
      <trkpt lat="47.540627" lon="1.8225685">
        <ele>122.0</ele>
        <time>2021-11-25T08:29:04Z</time>
      </trkpt>
      <trkpt lat="47.54062" lon="1.8225468">
        <ele>122.0</ele>
        <time>2021-11-25T08:29:06Z</time>
      </trkpt>
      <trkpt lat="47.540615" lon="1.8225323">
        <ele>122.0</ele>
        <time>2021-11-25T08:29:07Z</time>
      </trkpt>
      <trkpt lat="47.54061" lon="1.8225186">
        <ele>123.0</ele>
        <time>2021-11-25T08:29:08Z</time>
      </trkpt>
      <trkpt lat="47.540607" lon="1.8225034">
        <ele>123.0</ele>
        <time>2021-11-25T08:29:09Z</time>
      </trkpt>
      <trkpt lat="47.540604" lon="1.8224795">
        <ele>123.0</ele>
        <time>2021-11-25T08:29:10Z</time>
      </trkpt>
      <trkpt lat="47.5406" lon="1.8224584">
        <ele>124.0</ele>
        <time>2021-11-25T08:29:11Z</time>
      </trkpt>
      <trkpt lat="47.540592" lon="1.8224334">
        <ele>124.0</ele>
        <time>2021-11-25T08:29:12Z</time>
      </trkpt>
      <trkpt lat="47.540585" lon="1.8224162">
        <ele>124.0</ele>
        <time>2021-11-25T08:29:13Z</time>
      </trkpt>
      <trkpt lat="47.54058" lon="1.8223997">
        <ele>125.0</ele>
        <time>2021-11-25T08:29:14Z</time>
      </trkpt>
      <trkpt lat="47.540577" lon="1.822382">
        <ele>125.0</ele>
        <time>2021-11-25T08:29:15Z</time>
      </trkpt>
      <trkpt lat="47.540577" lon="1.8223629">
        <ele>125.0</ele>
        <time>2021-11-25T08:29:16Z</time>
      </trkpt>
      <trkpt lat="47.540573" lon="1.8223419">
        <ele>125.0</ele>
        <time>2021-11-25T08:29:17Z</time>
      </trkpt>
      <trkpt lat="47.54057" lon="1.8223224">
        <ele>125.0</ele>
        <time>2021-11-25T08:29:18Z</time>
      </trkpt>
      <trkpt lat="47.54057" lon="1.8223038">
        <ele>125.0</ele>
        <time>2021-11-25T08:29:19Z</time>
      </trkpt>
      <trkpt lat="47.540565" lon="1.8222862">
        <ele>126.0</ele>
        <time>2021-11-25T08:29:20Z</time>
      </trkpt>
      <trkpt lat="47.54057" lon="1.8222672">
        <ele>126.0</ele>
        <time>2021-11-25T08:29:21Z</time>
      </trkpt>
      <trkpt lat="47.540565" lon="1.82225">
        <ele>126.0</ele>
        <time>2021-11-25T08:29:22Z</time>
      </trkpt>
      <trkpt lat="47.54056" lon="1.8222306">
        <ele>127.0</ele>
        <time>2021-11-25T08:29:23Z</time>
      </trkpt>
      <trkpt lat="47.540554" lon="1.8221965">
        <ele>128.0</ele>
        <time>2021-11-25T08:29:24Z</time>
      </trkpt>
      <trkpt lat="47.540554" lon="1.8221965">
        <ele>128.0</ele>
        <time>2021-11-25T08:29:24Z</time>
      </trkpt>
      <trkpt lat="47.54054" lon="1.822157">
        <ele>128.0</ele>
        <time>2021-11-25T08:29:26Z</time>
      </trkpt>
      <trkpt lat="47.54054" lon="1.822157">
        <ele>128.0</ele>
        <time>2021-11-25T08:29:26Z</time>
      </trkpt>
      <trkpt lat="47.54053" lon="1.8221437">
        <ele>128.0</ele>
        <time>2021-11-25T08:29:28Z</time>
      </trkpt>
      <trkpt lat="47.540527" lon="1.8221288">
        <ele>127.0</ele>
        <time>2021-11-25T08:29:29Z</time>
      </trkpt>
      <trkpt lat="47.54052" lon="1.8220918">
        <ele>127.0</ele>
        <time>2021-11-25T08:29:30Z</time>
      </trkpt>
      <trkpt lat="47.54052" lon="1.8220918">
        <ele>127.0</ele>
        <time>2021-11-25T08:29:30Z</time>
      </trkpt>
      <trkpt lat="47.540512" lon="1.8220478">
        <ele>127.0</ele>
        <time>2021-11-25T08:29:32Z</time>
      </trkpt>
      <trkpt lat="47.540512" lon="1.8220266">
        <ele>127.0</ele>
        <time>2021-11-25T08:29:33Z</time>
      </trkpt>
      <trkpt lat="47.540512" lon="1.822007">
        <ele>126.0</ele>
        <time>2021-11-25T08:29:34Z</time>
      </trkpt>
      <trkpt lat="47.540512" lon="1.822007">
        <ele>126.0</ele>
        <time>2021-11-25T08:29:34Z</time>
      </trkpt>
      <trkpt lat="47.54051" lon="1.821988">
        <ele>126.0</ele>
        <time>2021-11-25T08:29:36Z</time>
      </trkpt>
      <trkpt lat="47.540504" lon="1.8219706">
        <ele>126.0</ele>
        <time>2021-11-25T08:29:37Z</time>
      </trkpt>
      <trkpt lat="47.5405" lon="1.8219321">
        <ele>126.0</ele>
        <time>2021-11-25T08:29:38Z</time>
      </trkpt>
      <trkpt lat="47.540497" lon="1.8219088">
        <ele>126.0</ele>
        <time>2021-11-25T08:29:39Z</time>
      </trkpt>
      <trkpt lat="47.540493" lon="1.8218887">
        <ele>126.0</ele>
        <time>2021-11-25T08:29:40Z</time>
      </trkpt>
      <trkpt lat="47.540493" lon="1.8218887">
        <ele>126.0</ele>
        <time>2021-11-25T08:29:40Z</time>
      </trkpt>
      <trkpt lat="47.540485" lon="1.8218488">
        <ele>127.0</ele>
        <time>2021-11-25T08:29:42Z</time>
      </trkpt>
      <trkpt lat="47.540485" lon="1.8218488">
        <ele>127.0</ele>
        <time>2021-11-25T08:29:42Z</time>
      </trkpt>
      <trkpt lat="47.54048" lon="1.821831">
        <ele>127.0</ele>
        <time>2021-11-25T08:29:44Z</time>
      </trkpt>
      <trkpt lat="47.540478" lon="1.8217936">
        <ele>128.0</ele>
        <time>2021-11-25T08:29:45Z</time>
      </trkpt>
      <trkpt lat="47.540478" lon="1.8217936">
        <ele>128.0</ele>
        <time>2021-11-25T08:29:45Z</time>
      </trkpt>
      <trkpt lat="47.540478" lon="1.8217746">
        <ele>128.0</ele>
        <time>2021-11-25T08:29:47Z</time>
      </trkpt>
      <trkpt lat="47.540474" lon="1.821752">
        <ele>128.0</ele>
        <time>2021-11-25T08:29:48Z</time>
      </trkpt>
      <trkpt lat="47.54047" lon="1.8217299">
        <ele>128.0</ele>
        <time>2021-11-25T08:29:49Z</time>
      </trkpt>
      <trkpt lat="47.54046" lon="1.8216915">
        <ele>127.0</ele>
        <time>2021-11-25T08:29:50Z</time>
      </trkpt>
      <trkpt lat="47.540455" lon="1.8216722">
        <ele>128.0</ele>
        <time>2021-11-25T08:29:51Z</time>
      </trkpt>
      <trkpt lat="47.54045" lon="1.8216549">
        <ele>128.0</ele>
        <time>2021-11-25T08:29:52Z</time>
      </trkpt>
      <trkpt lat="47.540447" lon="1.8216373">
        <ele>128.0</ele>
        <time>2021-11-25T08:29:53Z</time>
      </trkpt>
      <trkpt lat="47.540447" lon="1.8216208">
        <ele>128.0</ele>
        <time>2021-11-25T08:29:54Z</time>
      </trkpt>
      <trkpt lat="47.54044" lon="1.8216085">
        <ele>127.0</ele>
        <time>2021-11-25T08:29:55Z</time>
      </trkpt>
      <trkpt lat="47.540436" lon="1.8215976">
        <ele>127.0</ele>
        <time>2021-11-25T08:29:56Z</time>
      </trkpt>
      <trkpt lat="47.540432" lon="1.821588">
        <ele>127.0</ele>
        <time>2021-11-25T08:29:57Z</time>
      </trkpt>
      <trkpt lat="47.540432" lon="1.8215768">
        <ele>127.0</ele>
        <time>2021-11-25T08:29:58Z</time>
      </trkpt>
      <trkpt lat="47.54043" lon="1.8215604">
        <ele>127.0</ele>
        <time>2021-11-25T08:29:59Z</time>
      </trkpt>
      <trkpt lat="47.54043" lon="1.8215604">
        <ele>127.0</ele>
        <time>2021-11-25T08:29:59Z</time>
      </trkpt>
      <trkpt lat="47.54042" lon="1.8215264">
        <ele>127.0</ele>
        <time>2021-11-25T08:30:01Z</time>
      </trkpt>
      <trkpt lat="47.540417" lon="1.8215078">
        <ele>127.0</ele>
        <time>2021-11-25T08:30:02Z</time>
      </trkpt>
      <trkpt lat="47.54041" lon="1.8214896">
        <ele>127.0</ele>
        <time>2021-11-25T08:30:03Z</time>
      </trkpt>
      <trkpt lat="47.540405" lon="1.821468">
        <ele>127.0</ele>
        <time>2021-11-25T08:30:04Z</time>
      </trkpt>
      <trkpt lat="47.540398" lon="1.8214474">
        <ele>128.0</ele>
        <time>2021-11-25T08:30:05Z</time>
      </trkpt>
      <trkpt lat="47.54039" lon="1.8214264">
        <ele>127.0</ele>
        <time>2021-11-25T08:30:06Z</time>
      </trkpt>
      <trkpt lat="47.540386" lon="1.8214049">
        <ele>127.0</ele>
        <time>2021-11-25T08:30:07Z</time>
      </trkpt>
      <trkpt lat="47.540386" lon="1.8213831">
        <ele>127.0</ele>
        <time>2021-11-25T08:30:08Z</time>
      </trkpt>
      <trkpt lat="47.540375" lon="1.8213549">
        <ele>128.0</ele>
        <time>2021-11-25T08:30:09Z</time>
      </trkpt>
      <trkpt lat="47.540367" lon="1.821341">
        <ele>128.0</ele>
        <time>2021-11-25T08:30:10Z</time>
      </trkpt>
      <trkpt lat="47.540363" lon="1.8213248">
        <ele>128.0</ele>
        <time>2021-11-25T08:30:11Z</time>
      </trkpt>
      <trkpt lat="47.54036" lon="1.8213074">
        <ele>129.0</ele>
        <time>2021-11-25T08:30:12Z</time>
      </trkpt>
      <trkpt lat="47.54035" lon="1.82129">
        <ele>129.0</ele>
        <time>2021-11-25T08:30:13Z</time>
      </trkpt>
      <trkpt lat="47.540344" lon="1.82127">
        <ele>129.0</ele>
        <time>2021-11-25T08:30:14Z</time>
      </trkpt>
      <trkpt lat="47.540337" lon="1.8212475">
        <ele>129.0</ele>
        <time>2021-11-25T08:30:15Z</time>
      </trkpt>
      <trkpt lat="47.54033" lon="1.8212293">
        <ele>129.0</ele>
        <time>2021-11-25T08:30:16Z</time>
      </trkpt>
      <trkpt lat="47.54033" lon="1.8212293">
        <ele>129.0</ele>
        <time>2021-11-25T08:30:16Z</time>
      </trkpt>
      <trkpt lat="47.540318" lon="1.8211932">
        <ele>129.0</ele>
        <time>2021-11-25T08:30:18Z</time>
      </trkpt>
      <trkpt lat="47.54031" lon="1.8211752">
        <ele>129.0</ele>
        <time>2021-11-25T08:30:19Z</time>
      </trkpt>
      <trkpt lat="47.540306" lon="1.8211641">
        <ele>129.0</ele>
        <time>2021-11-25T08:30:20Z</time>
      </trkpt>
      <trkpt lat="47.5403" lon="1.8211501">
        <ele>129.0</ele>
        <time>2021-11-25T08:30:21Z</time>
      </trkpt>
      <trkpt lat="47.540295" lon="1.8211292">
        <ele>129.0</ele>
        <time>2021-11-25T08:30:22Z</time>
      </trkpt>
      <trkpt lat="47.540287" lon="1.8211131">
        <ele>129.0</ele>
        <time>2021-11-25T08:30:23Z</time>
      </trkpt>
      <trkpt lat="47.54028" lon="1.8210965">
        <ele>129.0</ele>
        <time>2021-11-25T08:30:24Z</time>
      </trkpt>
      <trkpt lat="47.540276" lon="1.8210814">
        <ele>129.0</ele>
        <time>2021-11-25T08:30:25Z</time>
      </trkpt>
      <trkpt lat="47.54027" lon="1.8210659">
        <ele>129.0</ele>
        <time>2021-11-25T08:30:26Z</time>
      </trkpt>
      <trkpt lat="47.540268" lon="1.8210474">
        <ele>129.0</ele>
        <time>2021-11-25T08:30:27Z</time>
      </trkpt>
      <trkpt lat="47.540268" lon="1.8210317">
        <ele>129.0</ele>
        <time>2021-11-25T08:30:28Z</time>
      </trkpt>
      <trkpt lat="47.540264" lon="1.8210185">
        <ele>129.0</ele>
        <time>2021-11-25T08:30:29Z</time>
      </trkpt>
      <trkpt lat="47.540257" lon="1.8209993">
        <ele>129.0</ele>
        <time>2021-11-25T08:30:30Z</time>
      </trkpt>
      <trkpt lat="47.54025" lon="1.8209798">
        <ele>130.0</ele>
        <time>2021-11-25T08:30:31Z</time>
      </trkpt>
      <trkpt lat="47.54024" lon="1.8209594">
        <ele>131.0</ele>
        <time>2021-11-25T08:30:32Z</time>
      </trkpt>
      <trkpt lat="47.540237" lon="1.8209459">
        <ele>131.0</ele>
        <time>2021-11-25T08:30:33Z</time>
      </trkpt>
      <trkpt lat="47.540234" lon="1.8209293">
        <ele>131.0</ele>
        <time>2021-11-25T08:30:34Z</time>
      </trkpt>
      <trkpt lat="47.540226" lon="1.8209126">
        <ele>131.0</ele>
        <time>2021-11-25T08:30:35Z</time>
      </trkpt>
      <trkpt lat="47.54022" lon="1.8209001">
        <ele>131.0</ele>
        <time>2021-11-25T08:30:36Z</time>
      </trkpt>
      <trkpt lat="47.54021" lon="1.8208851">
        <ele>131.0</ele>
        <time>2021-11-25T08:30:37Z</time>
      </trkpt>
      <trkpt lat="47.540203" lon="1.8208712">
        <ele>131.0</ele>
        <time>2021-11-25T08:30:38Z</time>
      </trkpt>
      <trkpt lat="47.54019" lon="1.8208541">
        <ele>131.0</ele>
        <time>2021-11-25T08:30:39Z</time>
      </trkpt>
      <trkpt lat="47.540184" lon="1.8208437">
        <ele>131.0</ele>
        <time>2021-11-25T08:30:40Z</time>
      </trkpt>
      <trkpt lat="47.540176" lon="1.8208333">
        <ele>131.0</ele>
        <time>2021-11-25T08:30:41Z</time>
      </trkpt>
      <trkpt lat="47.540173" lon="1.8208177">
        <ele>131.0</ele>
        <time>2021-11-25T08:30:42Z</time>
      </trkpt>
      <trkpt lat="47.540173" lon="1.8208061">
        <ele>131.0</ele>
        <time>2021-11-25T08:30:43Z</time>
      </trkpt>
      <trkpt lat="47.540173" lon="1.820793">
        <ele>131.0</ele>
        <time>2021-11-25T08:30:44Z</time>
      </trkpt>
      <trkpt lat="47.540165" lon="1.820777">
        <ele>131.0</ele>
        <time>2021-11-25T08:30:45Z</time>
      </trkpt>
      <trkpt lat="47.54016" lon="1.8207597">
        <ele>131.0</ele>
        <time>2021-11-25T08:30:46Z</time>
      </trkpt>
      <trkpt lat="47.540157" lon="1.8207419">
        <ele>131.0</ele>
        <time>2021-11-25T08:30:47Z</time>
      </trkpt>
      <trkpt lat="47.540154" lon="1.8207227">
        <ele>131.0</ele>
        <time>2021-11-25T08:30:48Z</time>
      </trkpt>
      <trkpt lat="47.540146" lon="1.8207037">
        <ele>131.0</ele>
        <time>2021-11-25T08:30:49Z</time>
      </trkpt>
      <trkpt lat="47.540142" lon="1.8206841">
        <ele>131.0</ele>
        <time>2021-11-25T08:30:50Z</time>
      </trkpt>
      <trkpt lat="47.540134" lon="1.8206656">
        <ele>131.0</ele>
        <time>2021-11-25T08:30:51Z</time>
      </trkpt>
      <trkpt lat="47.54013" lon="1.8206482">
        <ele>131.0</ele>
        <time>2021-11-25T08:30:52Z</time>
      </trkpt>
      <trkpt lat="47.540127" lon="1.8206333">
        <ele>131.0</ele>
        <time>2021-11-25T08:30:53Z</time>
      </trkpt>
      <trkpt lat="47.540127" lon="1.8206184">
        <ele>131.0</ele>
        <time>2021-11-25T08:30:54Z</time>
      </trkpt>
      <trkpt lat="47.54012" lon="1.8206056">
        <ele>131.0</ele>
        <time>2021-11-25T08:30:55Z</time>
      </trkpt>
      <trkpt lat="47.540115" lon="1.8205893">
        <ele>131.0</ele>
        <time>2021-11-25T08:30:56Z</time>
      </trkpt>
      <trkpt lat="47.540108" lon="1.8205755">
        <ele>130.0</ele>
        <time>2021-11-25T08:30:57Z</time>
      </trkpt>
      <trkpt lat="47.5401" lon="1.8205602">
        <ele>130.0</ele>
        <time>2021-11-25T08:30:58Z</time>
      </trkpt>
      <trkpt lat="47.540092" lon="1.8205445">
        <ele>130.0</ele>
        <time>2021-11-25T08:30:59Z</time>
      </trkpt>
      <trkpt lat="47.54009" lon="1.8205329">
        <ele>130.0</ele>
        <time>2021-11-25T08:31:00Z</time>
      </trkpt>
      <trkpt lat="47.540085" lon="1.8205165">
        <ele>131.0</ele>
        <time>2021-11-25T08:31:01Z</time>
      </trkpt>
      <trkpt lat="47.540077" lon="1.8204992">
        <ele>131.0</ele>
        <time>2021-11-25T08:31:02Z</time>
      </trkpt>
      <trkpt lat="47.540073" lon="1.8204819">
        <ele>130.0</ele>
        <time>2021-11-25T08:31:03Z</time>
      </trkpt>
      <trkpt lat="47.54007" lon="1.8204634">
        <ele>130.0</ele>
        <time>2021-11-25T08:31:04Z</time>
      </trkpt>
      <trkpt lat="47.540062" lon="1.8204466">
        <ele>130.0</ele>
        <time>2021-11-25T08:31:05Z</time>
      </trkpt>
      <trkpt lat="47.54006" lon="1.820432">
        <ele>130.0</ele>
        <time>2021-11-25T08:31:06Z</time>
      </trkpt>
      <trkpt lat="47.54005" lon="1.8204181">
        <ele>130.0</ele>
        <time>2021-11-25T08:31:07Z</time>
      </trkpt>
      <trkpt lat="47.540047" lon="1.8204024">
        <ele>130.0</ele>
        <time>2021-11-25T08:31:08Z</time>
      </trkpt>
      <trkpt lat="47.540043" lon="1.8203846">
        <ele>130.0</ele>
        <time>2021-11-25T08:31:09Z</time>
      </trkpt>
      <trkpt lat="47.54004" lon="1.8203654">
        <ele>130.0</ele>
        <time>2021-11-25T08:31:10Z</time>
      </trkpt>
      <trkpt lat="47.54004" lon="1.8203493">
        <ele>130.0</ele>
        <time>2021-11-25T08:31:11Z</time>
      </trkpt>
      <trkpt lat="47.540035" lon="1.8203319">
        <ele>130.0</ele>
        <time>2021-11-25T08:31:12Z</time>
      </trkpt>
      <trkpt lat="47.540035" lon="1.8203151">
        <ele>130.0</ele>
        <time>2021-11-25T08:31:13Z</time>
      </trkpt>
      <trkpt lat="47.540028" lon="1.820295">
        <ele>130.0</ele>
        <time>2021-11-25T08:31:14Z</time>
      </trkpt>
      <trkpt lat="47.540024" lon="1.8202765">
        <ele>130.0</ele>
        <time>2021-11-25T08:31:15Z</time>
      </trkpt>
      <trkpt lat="47.540024" lon="1.8202561">
        <ele>130.0</ele>
        <time>2021-11-25T08:31:16Z</time>
      </trkpt>
      <trkpt lat="47.54002" lon="1.8202361">
        <ele>130.0</ele>
        <time>2021-11-25T08:31:17Z</time>
      </trkpt>
      <trkpt lat="47.54002" lon="1.8202146">
        <ele>130.0</ele>
        <time>2021-11-25T08:31:18Z</time>
      </trkpt>
      <trkpt lat="47.540016" lon="1.8201926">
        <ele>130.0</ele>
        <time>2021-11-25T08:31:19Z</time>
      </trkpt>
      <trkpt lat="47.540012" lon="1.8201779">
        <ele>130.0</ele>
        <time>2021-11-25T08:31:20Z</time>
      </trkpt>
      <trkpt lat="47.54001" lon="1.8201607">
        <ele>130.0</ele>
        <time>2021-11-25T08:31:21Z</time>
      </trkpt>
      <trkpt lat="47.540005" lon="1.8201449">
        <ele>130.0</ele>
        <time>2021-11-25T08:31:22Z</time>
      </trkpt>
      <trkpt lat="47.540005" lon="1.8201249">
        <ele>130.0</ele>
        <time>2021-11-25T08:31:23Z</time>
      </trkpt>
      <trkpt lat="47.540005" lon="1.8201053">
        <ele>130.0</ele>
        <time>2021-11-25T08:31:24Z</time>
      </trkpt>
      <trkpt lat="47.539997" lon="1.8200878">
        <ele>130.0</ele>
        <time>2021-11-25T08:31:25Z</time>
      </trkpt>
      <trkpt lat="47.539993" lon="1.8200682">
        <ele>130.0</ele>
        <time>2021-11-25T08:31:26Z</time>
      </trkpt>
      <trkpt lat="47.539986" lon="1.8200526">
        <ele>130.0</ele>
        <time>2021-11-25T08:31:27Z</time>
      </trkpt>
      <trkpt lat="47.53998" lon="1.8200374">
        <ele>130.0</ele>
        <time>2021-11-25T08:31:28Z</time>
      </trkpt>
      <trkpt lat="47.539978" lon="1.8200201">
        <ele>130.0</ele>
        <time>2021-11-25T08:31:29Z</time>
      </trkpt>
      <trkpt lat="47.539974" lon="1.8200035">
        <ele>130.0</ele>
        <time>2021-11-25T08:31:30Z</time>
      </trkpt>
      <trkpt lat="47.539967" lon="1.8199857">
        <ele>130.0</ele>
        <time>2021-11-25T08:31:31Z</time>
      </trkpt>
      <trkpt lat="47.53996" lon="1.8199669">
        <ele>130.0</ele>
        <time>2021-11-25T08:31:32Z</time>
      </trkpt>
      <trkpt lat="47.53996" lon="1.8199499">
        <ele>130.0</ele>
        <time>2021-11-25T08:31:33Z</time>
      </trkpt>
      <trkpt lat="47.53995" lon="1.8199354">
        <ele>130.0</ele>
        <time>2021-11-25T08:31:34Z</time>
      </trkpt>
      <trkpt lat="47.539948" lon="1.8199201">
        <ele>130.0</ele>
        <time>2021-11-25T08:31:35Z</time>
      </trkpt>
      <trkpt lat="47.539944" lon="1.8199064">
        <ele>130.0</ele>
        <time>2021-11-25T08:31:36Z</time>
      </trkpt>
      <trkpt lat="47.539936" lon="1.8198956">
        <ele>130.0</ele>
        <time>2021-11-25T08:31:37Z</time>
      </trkpt>
      <trkpt lat="47.53993" lon="1.8198843">
        <ele>130.0</ele>
        <time>2021-11-25T08:31:38Z</time>
      </trkpt>
      <trkpt lat="47.539917" lon="1.819867">
        <ele>131.0</ele>
        <time>2021-11-25T08:31:39Z</time>
      </trkpt>
      <trkpt lat="47.53991" lon="1.8198524">
        <ele>130.0</ele>
        <time>2021-11-25T08:31:40Z</time>
      </trkpt>
      <trkpt lat="47.5399" lon="1.819837">
        <ele>130.0</ele>
        <time>2021-11-25T08:31:41Z</time>
      </trkpt>
      <trkpt lat="47.539894" lon="1.8198198">
        <ele>130.0</ele>
        <time>2021-11-25T08:31:42Z</time>
      </trkpt>
      <trkpt lat="47.539886" lon="1.8198036">
        <ele>131.0</ele>
        <time>2021-11-25T08:31:43Z</time>
      </trkpt>
      <trkpt lat="47.539883" lon="1.8197867">
        <ele>131.0</ele>
        <time>2021-11-25T08:31:44Z</time>
      </trkpt>
      <trkpt lat="47.539875" lon="1.8197725">
        <ele>131.0</ele>
        <time>2021-11-25T08:31:45Z</time>
      </trkpt>
      <trkpt lat="47.539864" lon="1.819757">
        <ele>131.0</ele>
        <time>2021-11-25T08:31:46Z</time>
      </trkpt>
      <trkpt lat="47.53986" lon="1.819742">
        <ele>131.0</ele>
        <time>2021-11-25T08:31:47Z</time>
      </trkpt>
      <trkpt lat="47.539852" lon="1.8197293">
        <ele>131.0</ele>
        <time>2021-11-25T08:31:48Z</time>
      </trkpt>
      <trkpt lat="47.53985" lon="1.8197161">
        <ele>131.0</ele>
        <time>2021-11-25T08:31:49Z</time>
      </trkpt>
      <trkpt lat="47.53984" lon="1.8197012">
        <ele>131.0</ele>
        <time>2021-11-25T08:31:50Z</time>
      </trkpt>
      <trkpt lat="47.539833" lon="1.8196845">
        <ele>131.0</ele>
        <time>2021-11-25T08:31:51Z</time>
      </trkpt>
      <trkpt lat="47.539825" lon="1.8196685">
        <ele>131.0</ele>
        <time>2021-11-25T08:31:52Z</time>
      </trkpt>
      <trkpt lat="47.539818" lon="1.8196476">
        <ele>131.0</ele>
        <time>2021-11-25T08:31:53Z</time>
      </trkpt>
      <trkpt lat="47.539814" lon="1.8196305">
        <ele>131.0</ele>
        <time>2021-11-25T08:31:54Z</time>
      </trkpt>
      <trkpt lat="47.53981" lon="1.8196117">
        <ele>131.0</ele>
        <time>2021-11-25T08:31:55Z</time>
      </trkpt>
      <trkpt lat="47.539806" lon="1.8195951">
        <ele>131.0</ele>
        <time>2021-11-25T08:31:56Z</time>
      </trkpt>
      <trkpt lat="47.5398" lon="1.8195797">
        <ele>131.0</ele>
        <time>2021-11-25T08:31:57Z</time>
      </trkpt>
      <trkpt lat="47.539795" lon="1.819561">
        <ele>131.0</ele>
        <time>2021-11-25T08:31:58Z</time>
      </trkpt>
      <trkpt lat="47.539787" lon="1.8195449">
        <ele>131.0</ele>
        <time>2021-11-25T08:31:59Z</time>
      </trkpt>
      <trkpt lat="47.53978" lon="1.8195304">
        <ele>131.0</ele>
        <time>2021-11-25T08:32:00Z</time>
      </trkpt>
      <trkpt lat="47.539776" lon="1.81952">
        <ele>131.0</ele>
        <time>2021-11-25T08:32:01Z</time>
      </trkpt>
      <trkpt lat="47.539764" lon="1.8195049">
        <ele>131.0</ele>
        <time>2021-11-25T08:32:02Z</time>
      </trkpt>
      <trkpt lat="47.539764" lon="1.8194913">
        <ele>130.0</ele>
        <time>2021-11-25T08:32:03Z</time>
      </trkpt>
      <trkpt lat="47.53976" lon="1.8194728">
        <ele>130.0</ele>
        <time>2021-11-25T08:32:04Z</time>
      </trkpt>
      <trkpt lat="47.53976" lon="1.8194582">
        <ele>130.0</ele>
        <time>2021-11-25T08:32:05Z</time>
      </trkpt>
      <trkpt lat="47.539757" lon="1.8194431">
        <ele>130.0</ele>
        <time>2021-11-25T08:32:06Z</time>
      </trkpt>
      <trkpt lat="47.539753" lon="1.8194263">
        <ele>130.0</ele>
        <time>2021-11-25T08:32:07Z</time>
      </trkpt>
      <trkpt lat="47.539745" lon="1.8194048">
        <ele>131.0</ele>
        <time>2021-11-25T08:32:08Z</time>
      </trkpt>
      <trkpt lat="47.539738" lon="1.8193833">
        <ele>131.0</ele>
        <time>2021-11-25T08:32:09Z</time>
      </trkpt>
      <trkpt lat="47.539734" lon="1.8193682">
        <ele>131.0</ele>
        <time>2021-11-25T08:32:10Z</time>
      </trkpt>
      <trkpt lat="47.539734" lon="1.8193524">
        <ele>131.0</ele>
        <time>2021-11-25T08:32:11Z</time>
      </trkpt>
      <trkpt lat="47.53973" lon="1.8193352">
        <ele>131.0</ele>
        <time>2021-11-25T08:32:12Z</time>
      </trkpt>
      <trkpt lat="47.539726" lon="1.8193227">
        <ele>131.0</ele>
        <time>2021-11-25T08:32:13Z</time>
      </trkpt>
      <trkpt lat="47.539722" lon="1.8193077">
        <ele>131.0</ele>
        <time>2021-11-25T08:32:14Z</time>
      </trkpt>
      <trkpt lat="47.53972" lon="1.8192934">
        <ele>131.0</ele>
        <time>2021-11-25T08:32:15Z</time>
      </trkpt>
      <trkpt lat="47.539715" lon="1.8192769">
        <ele>131.0</ele>
        <time>2021-11-25T08:32:16Z</time>
      </trkpt>
      <trkpt lat="47.53971" lon="1.8192573">
        <ele>130.0</ele>
        <time>2021-11-25T08:32:17Z</time>
      </trkpt>
      <trkpt lat="47.539715" lon="1.819233">
        <ele>130.0</ele>
        <time>2021-11-25T08:32:18Z</time>
      </trkpt>
      <trkpt lat="47.53971" lon="1.8192128">
        <ele>130.0</ele>
        <time>2021-11-25T08:32:19Z</time>
      </trkpt>
      <trkpt lat="47.53971" lon="1.8191928">
        <ele>130.0</ele>
        <time>2021-11-25T08:32:20Z</time>
      </trkpt>
      <trkpt lat="47.53971" lon="1.8191731">
        <ele>130.0</ele>
        <time>2021-11-25T08:32:21Z</time>
      </trkpt>
      <trkpt lat="47.539703" lon="1.8191541">
        <ele>130.0</ele>
        <time>2021-11-25T08:32:22Z</time>
      </trkpt>
      <trkpt lat="47.5397" lon="1.819131">
        <ele>130.0</ele>
        <time>2021-11-25T08:32:23Z</time>
      </trkpt>
      <trkpt lat="47.539696" lon="1.8191106">
        <ele>130.0</ele>
        <time>2021-11-25T08:32:24Z</time>
      </trkpt>
      <trkpt lat="47.539692" lon="1.8190919">
        <ele>130.0</ele>
        <time>2021-11-25T08:32:25Z</time>
      </trkpt>
      <trkpt lat="47.539684" lon="1.8190707">
        <ele>130.0</ele>
        <time>2021-11-25T08:32:26Z</time>
      </trkpt>
      <trkpt lat="47.53968" lon="1.8190517">
        <ele>130.0</ele>
        <time>2021-11-25T08:32:27Z</time>
      </trkpt>
      <trkpt lat="47.539677" lon="1.81904">
        <ele>131.0</ele>
        <time>2021-11-25T08:32:28Z</time>
      </trkpt>
      <trkpt lat="47.539673" lon="1.8190191">
        <ele>131.0</ele>
        <time>2021-11-25T08:32:29Z</time>
      </trkpt>
      <trkpt lat="47.539665" lon="1.8189956">
        <ele>132.0</ele>
        <time>2021-11-25T08:32:30Z</time>
      </trkpt>
      <trkpt lat="47.53966" lon="1.8189713">
        <ele>132.0</ele>
        <time>2021-11-25T08:32:31Z</time>
      </trkpt>
      <trkpt lat="47.539654" lon="1.8189474">
        <ele>132.0</ele>
        <time>2021-11-25T08:32:32Z</time>
      </trkpt>
      <trkpt lat="47.53965" lon="1.8189254">
        <ele>132.0</ele>
        <time>2021-11-25T08:32:33Z</time>
      </trkpt>
      <trkpt lat="47.539642" lon="1.8189098">
        <ele>132.0</ele>
        <time>2021-11-25T08:32:34Z</time>
      </trkpt>
      <trkpt lat="47.539635" lon="1.8188918">
        <ele>132.0</ele>
        <time>2021-11-25T08:32:35Z</time>
      </trkpt>
      <trkpt lat="47.53963" lon="1.8188772">
        <ele>132.0</ele>
        <time>2021-11-25T08:32:36Z</time>
      </trkpt>
      <trkpt lat="47.539627" lon="1.8188561">
        <ele>133.0</ele>
        <time>2021-11-25T08:32:37Z</time>
      </trkpt>
      <trkpt lat="47.539623" lon="1.8188386">
        <ele>133.0</ele>
        <time>2021-11-25T08:32:38Z</time>
      </trkpt>
      <trkpt lat="47.539616" lon="1.8188199">
        <ele>133.0</ele>
        <time>2021-11-25T08:32:39Z</time>
      </trkpt>
      <trkpt lat="47.53961" lon="1.818803">
        <ele>133.0</ele>
        <time>2021-11-25T08:32:40Z</time>
      </trkpt>
      <trkpt lat="47.539608" lon="1.8187844">
        <ele>133.0</ele>
        <time>2021-11-25T08:32:41Z</time>
      </trkpt>
      <trkpt lat="47.539608" lon="1.8187641">
        <ele>133.0</ele>
        <time>2021-11-25T08:32:42Z</time>
      </trkpt>
      <trkpt lat="47.539604" lon="1.8187466">
        <ele>133.0</ele>
        <time>2021-11-25T08:32:43Z</time>
      </trkpt>
      <trkpt lat="47.539597" lon="1.8187262">
        <ele>133.0</ele>
        <time>2021-11-25T08:32:44Z</time>
      </trkpt>
      <trkpt lat="47.539593" lon="1.818709">
        <ele>133.0</ele>
        <time>2021-11-25T08:32:45Z</time>
      </trkpt>
      <trkpt lat="47.53959" lon="1.8186841">
        <ele>134.0</ele>
        <time>2021-11-25T08:32:46Z</time>
      </trkpt>
      <trkpt lat="47.53958" lon="1.8186666">
        <ele>135.0</ele>
        <time>2021-11-25T08:32:47Z</time>
      </trkpt>
      <trkpt lat="47.539574" lon="1.8186494">
        <ele>135.0</ele>
        <time>2021-11-25T08:32:48Z</time>
      </trkpt>
      <trkpt lat="47.539566" lon="1.8186258">
        <ele>135.0</ele>
        <time>2021-11-25T08:32:49Z</time>
      </trkpt>
      <trkpt lat="47.539562" lon="1.8186053">
        <ele>135.0</ele>
        <time>2021-11-25T08:32:50Z</time>
      </trkpt>
      <trkpt lat="47.53956" lon="1.8185836">
        <ele>135.0</ele>
        <time>2021-11-25T08:32:51Z</time>
      </trkpt>
      <trkpt lat="47.53956" lon="1.8185616">
        <ele>135.0</ele>
        <time>2021-11-25T08:32:52Z</time>
      </trkpt>
      <trkpt lat="47.53955" lon="1.8185405">
        <ele>135.0</ele>
        <time>2021-11-25T08:32:53Z</time>
      </trkpt>
      <trkpt lat="47.539547" lon="1.8185203">
        <ele>136.0</ele>
        <time>2021-11-25T08:32:54Z</time>
      </trkpt>
      <trkpt lat="47.539547" lon="1.8184985">
        <ele>136.0</ele>
        <time>2021-11-25T08:32:55Z</time>
      </trkpt>
      <trkpt lat="47.539543" lon="1.8184763">
        <ele>137.0</ele>
        <time>2021-11-25T08:32:56Z</time>
      </trkpt>
      <trkpt lat="47.539536" lon="1.8184534">
        <ele>137.0</ele>
        <time>2021-11-25T08:32:57Z</time>
      </trkpt>
      <trkpt lat="47.53953" lon="1.8184328">
        <ele>137.0</ele>
        <time>2021-11-25T08:32:58Z</time>
      </trkpt>
      <trkpt lat="47.539524" lon="1.8184143">
        <ele>138.0</ele>
        <time>2021-11-25T08:32:59Z</time>
      </trkpt>
      <trkpt lat="47.539513" lon="1.818396">
        <ele>138.0</ele>
        <time>2021-11-25T08:33:00Z</time>
      </trkpt>
      <trkpt lat="47.539505" lon="1.8183788">
        <ele>139.0</ele>
        <time>2021-11-25T08:33:01Z</time>
      </trkpt>
      <trkpt lat="47.539497" lon="1.818358">
        <ele>139.0</ele>
        <time>2021-11-25T08:33:02Z</time>
      </trkpt>
      <trkpt lat="47.539494" lon="1.8183397">
        <ele>139.0</ele>
        <time>2021-11-25T08:33:03Z</time>
      </trkpt>
      <trkpt lat="47.53949" lon="1.8183178">
        <ele>139.0</ele>
        <time>2021-11-25T08:33:04Z</time>
      </trkpt>
      <trkpt lat="47.539482" lon="1.818298">
        <ele>139.0</ele>
        <time>2021-11-25T08:33:05Z</time>
      </trkpt>
      <trkpt lat="47.53948" lon="1.8182784">
        <ele>139.0</ele>
        <time>2021-11-25T08:33:06Z</time>
      </trkpt>
      <trkpt lat="47.539474" lon="1.818261">
        <ele>139.0</ele>
        <time>2021-11-25T08:33:07Z</time>
      </trkpt>
      <trkpt lat="47.53947" lon="1.8182361">
        <ele>140.0</ele>
        <time>2021-11-25T08:33:08Z</time>
      </trkpt>
      <trkpt lat="47.539467" lon="1.8182175">
        <ele>140.0</ele>
        <time>2021-11-25T08:33:09Z</time>
      </trkpt>
      <trkpt lat="47.53946" lon="1.8181959">
        <ele>139.0</ele>
        <time>2021-11-25T08:33:10Z</time>
      </trkpt>
      <trkpt lat="47.539455" lon="1.8181734">
        <ele>139.0</ele>
        <time>2021-11-25T08:33:11Z</time>
      </trkpt>
      <trkpt lat="47.539448" lon="1.8181485">
        <ele>139.0</ele>
        <time>2021-11-25T08:33:12Z</time>
      </trkpt>
      <trkpt lat="47.53944" lon="1.8181252">
        <ele>139.0</ele>
        <time>2021-11-25T08:33:13Z</time>
      </trkpt>
      <trkpt lat="47.539433" lon="1.8181019">
        <ele>140.0</ele>
        <time>2021-11-25T08:33:14Z</time>
      </trkpt>
      <trkpt lat="47.539425" lon="1.8180792">
        <ele>140.0</ele>
        <time>2021-11-25T08:33:15Z</time>
      </trkpt>
      <trkpt lat="47.539413" lon="1.8180641">
        <ele>141.0</ele>
        <time>2021-11-25T08:33:16Z</time>
      </trkpt>
      <trkpt lat="47.539406" lon="1.8180426">
        <ele>141.0</ele>
        <time>2021-11-25T08:33:17Z</time>
      </trkpt>
      <trkpt lat="47.539402" lon="1.8180195">
        <ele>141.0</ele>
        <time>2021-11-25T08:33:18Z</time>
      </trkpt>
      <trkpt lat="47.539394" lon="1.8179967">
        <ele>142.0</ele>
        <time>2021-11-25T08:33:19Z</time>
      </trkpt>
      <trkpt lat="47.539394" lon="1.8179708">
        <ele>142.0</ele>
        <time>2021-11-25T08:33:20Z</time>
      </trkpt>
      <trkpt lat="47.539387" lon="1.8179471">
        <ele>142.0</ele>
        <time>2021-11-25T08:33:21Z</time>
      </trkpt>
      <trkpt lat="47.53938" lon="1.8179344">
        <ele>142.0</ele>
        <time>2021-11-25T08:33:22Z</time>
      </trkpt>
      <trkpt lat="47.539375" lon="1.8179194">
        <ele>142.0</ele>
        <time>2021-11-25T08:33:23Z</time>
      </trkpt>
      <trkpt lat="47.539368" lon="1.8179">
        <ele>142.0</ele>
        <time>2021-11-25T08:33:24Z</time>
      </trkpt>
      <trkpt lat="47.53936" lon="1.8178809">
        <ele>142.0</ele>
        <time>2021-11-25T08:33:25Z</time>
      </trkpt>
      <trkpt lat="47.539352" lon="1.8178604">
        <ele>143.0</ele>
        <time>2021-11-25T08:33:26Z</time>
      </trkpt>
      <trkpt lat="47.539345" lon="1.8178405">
        <ele>143.0</ele>
        <time>2021-11-25T08:33:27Z</time>
      </trkpt>
      <trkpt lat="47.53934" lon="1.8178229">
        <ele>143.0</ele>
        <time>2021-11-25T08:33:28Z</time>
      </trkpt>
      <trkpt lat="47.53933" lon="1.817806">
        <ele>143.0</ele>
        <time>2021-11-25T08:33:29Z</time>
      </trkpt>
      <trkpt lat="47.53932" lon="1.8177874">
        <ele>143.0</ele>
        <time>2021-11-25T08:33:30Z</time>
      </trkpt>
      <trkpt lat="47.539318" lon="1.8177699">
        <ele>143.0</ele>
        <time>2021-11-25T08:33:31Z</time>
      </trkpt>
      <trkpt lat="47.53931" lon="1.8177552">
        <ele>143.0</ele>
        <time>2021-11-25T08:33:32Z</time>
      </trkpt>
      <trkpt lat="47.539307" lon="1.817742">
        <ele>144.0</ele>
        <time>2021-11-25T08:33:33Z</time>
      </trkpt>
      <trkpt lat="47.539303" lon="1.817727">
        <ele>144.0</ele>
        <time>2021-11-25T08:33:34Z</time>
      </trkpt>
      <trkpt lat="47.5393" lon="1.8177078">
        <ele>143.0</ele>
        <time>2021-11-25T08:33:35Z</time>
      </trkpt>
      <trkpt lat="47.539295" lon="1.8176894">
        <ele>143.0</ele>
        <time>2021-11-25T08:33:36Z</time>
      </trkpt>
      <trkpt lat="47.539288" lon="1.8176697">
        <ele>143.0</ele>
        <time>2021-11-25T08:33:37Z</time>
      </trkpt>
      <trkpt lat="47.53928" lon="1.8176514">
        <ele>143.0</ele>
        <time>2021-11-25T08:33:38Z</time>
      </trkpt>
      <trkpt lat="47.539276" lon="1.8176321">
        <ele>143.0</ele>
        <time>2021-11-25T08:33:39Z</time>
      </trkpt>
      <trkpt lat="47.53927" lon="1.8176154">
        <ele>143.0</ele>
        <time>2021-11-25T08:33:40Z</time>
      </trkpt>
      <trkpt lat="47.53926" lon="1.8176006">
        <ele>143.0</ele>
        <time>2021-11-25T08:33:41Z</time>
      </trkpt>
      <trkpt lat="47.539257" lon="1.8175821">
        <ele>143.0</ele>
        <time>2021-11-25T08:33:42Z</time>
      </trkpt>
      <trkpt lat="47.53925" lon="1.8175623">
        <ele>143.0</ele>
        <time>2021-11-25T08:33:43Z</time>
      </trkpt>
      <trkpt lat="47.53925" lon="1.8175417">
        <ele>143.0</ele>
        <time>2021-11-25T08:33:44Z</time>
      </trkpt>
      <trkpt lat="47.539246" lon="1.817524">
        <ele>143.0</ele>
        <time>2021-11-25T08:33:45Z</time>
      </trkpt>
      <trkpt lat="47.539246" lon="1.8175017">
        <ele>143.0</ele>
        <time>2021-11-25T08:33:46Z</time>
      </trkpt>
      <trkpt lat="47.539238" lon="1.8174777">
        <ele>144.0</ele>
        <time>2021-11-25T08:33:47Z</time>
      </trkpt>
      <trkpt lat="47.539238" lon="1.817452">
        <ele>144.0</ele>
        <time>2021-11-25T08:33:48Z</time>
      </trkpt>
      <trkpt lat="47.539238" lon="1.8174317">
        <ele>144.0</ele>
        <time>2021-11-25T08:33:49Z</time>
      </trkpt>
      <trkpt lat="47.539238" lon="1.8174145">
        <ele>144.0</ele>
        <time>2021-11-25T08:33:50Z</time>
      </trkpt>
      <trkpt lat="47.539238" lon="1.8173993">
        <ele>144.0</ele>
        <time>2021-11-25T08:33:51Z</time>
      </trkpt>
      <trkpt lat="47.539234" lon="1.8173795">
        <ele>145.0</ele>
        <time>2021-11-25T08:33:52Z</time>
      </trkpt>
      <trkpt lat="47.53923" lon="1.8173614">
        <ele>145.0</ele>
        <time>2021-11-25T08:33:53Z</time>
      </trkpt>
      <trkpt lat="47.539227" lon="1.8173436">
        <ele>146.0</ele>
        <time>2021-11-25T08:33:54Z</time>
      </trkpt>
      <trkpt lat="47.539223" lon="1.8173244">
        <ele>146.0</ele>
        <time>2021-11-25T08:33:55Z</time>
      </trkpt>
      <trkpt lat="47.539215" lon="1.8173054">
        <ele>146.0</ele>
        <time>2021-11-25T08:33:56Z</time>
      </trkpt>
      <trkpt lat="47.53921" lon="1.8172845">
        <ele>147.0</ele>
        <time>2021-11-25T08:33:57Z</time>
      </trkpt>
      <trkpt lat="47.539204" lon="1.8172654">
        <ele>147.0</ele>
        <time>2021-11-25T08:33:58Z</time>
      </trkpt>
      <trkpt lat="47.539204" lon="1.8172483">
        <ele>148.0</ele>
        <time>2021-11-25T08:33:59Z</time>
      </trkpt>
      <trkpt lat="47.5392" lon="1.8172297">
        <ele>148.0</ele>
        <time>2021-11-25T08:34:00Z</time>
      </trkpt>
      <trkpt lat="47.539192" lon="1.817213">
        <ele>149.0</ele>
        <time>2021-11-25T08:34:01Z</time>
      </trkpt>
      <trkpt lat="47.539185" lon="1.8171972">
        <ele>150.0</ele>
        <time>2021-11-25T08:34:02Z</time>
      </trkpt>
      <trkpt lat="47.53918" lon="1.8171829">
        <ele>150.0</ele>
        <time>2021-11-25T08:34:03Z</time>
      </trkpt>
      <trkpt lat="47.539177" lon="1.817169">
        <ele>150.0</ele>
        <time>2021-11-25T08:34:04Z</time>
      </trkpt>
      <trkpt lat="47.539173" lon="1.8171507">
        <ele>150.0</ele>
        <time>2021-11-25T08:34:05Z</time>
      </trkpt>
      <trkpt lat="47.53917" lon="1.8171319">
        <ele>150.0</ele>
        <time>2021-11-25T08:34:06Z</time>
      </trkpt>
      <trkpt lat="47.53916" lon="1.8171158">
        <ele>150.0</ele>
        <time>2021-11-25T08:34:07Z</time>
      </trkpt>
      <trkpt lat="47.539154" lon="1.817099">
        <ele>150.0</ele>
        <time>2021-11-25T08:34:08Z</time>
      </trkpt>
      <trkpt lat="47.539154" lon="1.8170835">
        <ele>151.0</ele>
        <time>2021-11-25T08:34:09Z</time>
      </trkpt>
      <trkpt lat="47.53915" lon="1.8170638">
        <ele>151.0</ele>
        <time>2021-11-25T08:34:10Z</time>
      </trkpt>
      <trkpt lat="47.539143" lon="1.8170506">
        <ele>151.0</ele>
        <time>2021-11-25T08:34:11Z</time>
      </trkpt>
      <trkpt lat="47.53914" lon="1.8170353">
        <ele>151.0</ele>
        <time>2021-11-25T08:34:12Z</time>
      </trkpt>
      <trkpt lat="47.53913" lon="1.8170158">
        <ele>151.0</ele>
        <time>2021-11-25T08:34:13Z</time>
      </trkpt>
      <trkpt lat="47.539124" lon="1.8169997">
        <ele>151.0</ele>
        <time>2021-11-25T08:34:14Z</time>
      </trkpt>
      <trkpt lat="47.539116" lon="1.8169842">
        <ele>151.0</ele>
        <time>2021-11-25T08:34:15Z</time>
      </trkpt>
      <trkpt lat="47.53911" lon="1.8169729">
        <ele>151.0</ele>
        <time>2021-11-25T08:34:16Z</time>
      </trkpt>
      <trkpt lat="47.5391" lon="1.816961">
        <ele>152.0</ele>
        <time>2021-11-25T08:34:17Z</time>
      </trkpt>
      <trkpt lat="47.539097" lon="1.8169427">
        <ele>152.0</ele>
        <time>2021-11-25T08:34:18Z</time>
      </trkpt>
      <trkpt lat="47.539093" lon="1.8169254">
        <ele>152.0</ele>
        <time>2021-11-25T08:34:19Z</time>
      </trkpt>
      <trkpt lat="47.53909" lon="1.8169111">
        <ele>152.0</ele>
        <time>2021-11-25T08:34:20Z</time>
      </trkpt>
      <trkpt lat="47.539085" lon="1.8168994">
        <ele>153.0</ele>
        <time>2021-11-25T08:34:21Z</time>
      </trkpt>
      <trkpt lat="47.539078" lon="1.8168858">
        <ele>153.0</ele>
        <time>2021-11-25T08:34:22Z</time>
      </trkpt>
      <trkpt lat="47.539074" lon="1.8168697">
        <ele>153.0</ele>
        <time>2021-11-25T08:34:23Z</time>
      </trkpt>
      <trkpt lat="47.53907" lon="1.816857">
        <ele>153.0</ele>
        <time>2021-11-25T08:34:24Z</time>
      </trkpt>
      <trkpt lat="47.539066" lon="1.8168391">
        <ele>153.0</ele>
        <time>2021-11-25T08:34:25Z</time>
      </trkpt>
      <trkpt lat="47.53906" lon="1.8168244">
        <ele>153.0</ele>
        <time>2021-11-25T08:34:26Z</time>
      </trkpt>
      <trkpt lat="47.539055" lon="1.8168086">
        <ele>153.0</ele>
        <time>2021-11-25T08:34:27Z</time>
      </trkpt>
      <trkpt lat="47.53905" lon="1.8167908">
        <ele>154.0</ele>
        <time>2021-11-25T08:34:28Z</time>
      </trkpt>
      <trkpt lat="47.539043" lon="1.816769">
        <ele>154.0</ele>
        <time>2021-11-25T08:34:29Z</time>
      </trkpt>
      <trkpt lat="47.539043" lon="1.8167505">
        <ele>154.0</ele>
        <time>2021-11-25T08:34:30Z</time>
      </trkpt>
      <trkpt lat="47.53904" lon="1.8167292">
        <ele>154.0</ele>
        <time>2021-11-25T08:34:31Z</time>
      </trkpt>
      <trkpt lat="47.539036" lon="1.8167135">
        <ele>154.0</ele>
        <time>2021-11-25T08:34:32Z</time>
      </trkpt>
      <trkpt lat="47.53903" lon="1.8166991">
        <ele>153.0</ele>
        <time>2021-11-25T08:34:33Z</time>
      </trkpt>
      <trkpt lat="47.539024" lon="1.8166807">
        <ele>153.0</ele>
        <time>2021-11-25T08:34:34Z</time>
      </trkpt>
      <trkpt lat="47.53902" lon="1.8166641">
        <ele>153.0</ele>
        <time>2021-11-25T08:34:35Z</time>
      </trkpt>
      <trkpt lat="47.539017" lon="1.8166504">
        <ele>153.0</ele>
        <time>2021-11-25T08:34:36Z</time>
      </trkpt>
      <trkpt lat="47.539013" lon="1.8166312">
        <ele>153.0</ele>
        <time>2021-11-25T08:34:37Z</time>
      </trkpt>
      <trkpt lat="47.539" lon="1.8166149">
        <ele>153.0</ele>
        <time>2021-11-25T08:34:38Z</time>
      </trkpt>
      <trkpt lat="47.538994" lon="1.8165928">
        <ele>153.0</ele>
        <time>2021-11-25T08:34:39Z</time>
      </trkpt>
      <trkpt lat="47.53899" lon="1.8165765">
        <ele>153.0</ele>
        <time>2021-11-25T08:34:40Z</time>
      </trkpt>
      <trkpt lat="47.538982" lon="1.816561">
        <ele>153.0</ele>
        <time>2021-11-25T08:34:41Z</time>
      </trkpt>
      <trkpt lat="47.53898" lon="1.8165443">
        <ele>153.0</ele>
        <time>2021-11-25T08:34:42Z</time>
      </trkpt>
      <trkpt lat="47.53897" lon="1.8165276">
        <ele>153.0</ele>
        <time>2021-11-25T08:34:43Z</time>
      </trkpt>
      <trkpt lat="47.53897" lon="1.816507">
        <ele>153.0</ele>
        <time>2021-11-25T08:34:44Z</time>
      </trkpt>
      <trkpt lat="47.538967" lon="1.8164921">
        <ele>153.0</ele>
        <time>2021-11-25T08:34:45Z</time>
      </trkpt>
      <trkpt lat="47.538963" lon="1.8164796">
        <ele>152.0</ele>
        <time>2021-11-25T08:34:46Z</time>
      </trkpt>
      <trkpt lat="47.538956" lon="1.8164641">
        <ele>152.0</ele>
        <time>2021-11-25T08:34:47Z</time>
      </trkpt>
      <trkpt lat="47.53895" lon="1.8164462">
        <ele>153.0</ele>
        <time>2021-11-25T08:34:48Z</time>
      </trkpt>
      <trkpt lat="47.538948" lon="1.8164313">
        <ele>153.0</ele>
        <time>2021-11-25T08:34:49Z</time>
      </trkpt>
      <trkpt lat="47.538944" lon="1.8164172">
        <ele>153.0</ele>
        <time>2021-11-25T08:34:50Z</time>
      </trkpt>
      <trkpt lat="47.538944" lon="1.8164076">
        <ele>153.0</ele>
        <time>2021-11-25T08:34:51Z</time>
      </trkpt>
      <trkpt lat="47.53894" lon="1.8163941">
        <ele>153.0</ele>
        <time>2021-11-25T08:34:52Z</time>
      </trkpt>
      <trkpt lat="47.538937" lon="1.8163823">
        <ele>153.0</ele>
        <time>2021-11-25T08:34:53Z</time>
      </trkpt>
      <trkpt lat="47.538933" lon="1.8163699">
        <ele>152.0</ele>
        <time>2021-11-25T08:34:54Z</time>
      </trkpt>
      <trkpt lat="47.53893" lon="1.8163587">
        <ele>153.0</ele>
        <time>2021-11-25T08:34:55Z</time>
      </trkpt>
      <trkpt lat="47.538925" lon="1.8163449">
        <ele>152.0</ele>
        <time>2021-11-25T08:34:56Z</time>
      </trkpt>
      <trkpt lat="47.53892" lon="1.81633">
        <ele>152.0</ele>
        <time>2021-11-25T08:34:57Z</time>
      </trkpt>
      <trkpt lat="47.538918" lon="1.8163159">
        <ele>152.0</ele>
        <time>2021-11-25T08:34:58Z</time>
      </trkpt>
      <trkpt lat="47.538914" lon="1.8163003">
        <ele>152.0</ele>
        <time>2021-11-25T08:34:59Z</time>
      </trkpt>
      <trkpt lat="47.53891" lon="1.8162857">
        <ele>151.0</ele>
        <time>2021-11-25T08:35:00Z</time>
      </trkpt>
      <trkpt lat="47.538906" lon="1.8162631">
        <ele>151.0</ele>
        <time>2021-11-25T08:35:01Z</time>
      </trkpt>
      <trkpt lat="47.5389" lon="1.8162377">
        <ele>151.0</ele>
        <time>2021-11-25T08:35:02Z</time>
      </trkpt>
      <trkpt lat="47.538895" lon="1.8162198">
        <ele>151.0</ele>
        <time>2021-11-25T08:35:03Z</time>
      </trkpt>
      <trkpt lat="47.53889" lon="1.8162023">
        <ele>151.0</ele>
        <time>2021-11-25T08:35:04Z</time>
      </trkpt>
      <trkpt lat="47.53888" lon="1.8161848">
        <ele>151.0</ele>
        <time>2021-11-25T08:35:05Z</time>
      </trkpt>
      <trkpt lat="47.53887" lon="1.8161665">
        <ele>151.0</ele>
        <time>2021-11-25T08:35:06Z</time>
      </trkpt>
      <trkpt lat="47.538868" lon="1.8161451">
        <ele>152.0</ele>
        <time>2021-11-25T08:35:07Z</time>
      </trkpt>
      <trkpt lat="47.53886" lon="1.816129">
        <ele>152.0</ele>
        <time>2021-11-25T08:35:08Z</time>
      </trkpt>
      <trkpt lat="47.538857" lon="1.816111">
        <ele>152.0</ele>
        <time>2021-11-25T08:35:09Z</time>
      </trkpt>
      <trkpt lat="47.53885" lon="1.816094">
        <ele>152.0</ele>
        <time>2021-11-25T08:35:11Z</time>
      </trkpt>
      <trkpt lat="47.538845" lon="1.8160764">
        <ele>152.0</ele>
        <time>2021-11-25T08:35:12Z</time>
      </trkpt>
      <trkpt lat="47.538837" lon="1.8160623">
        <ele>152.0</ele>
        <time>2021-11-25T08:35:13Z</time>
      </trkpt>
      <trkpt lat="47.538834" lon="1.8160456">
        <ele>152.0</ele>
        <time>2021-11-25T08:35:14Z</time>
      </trkpt>
      <trkpt lat="47.53883" lon="1.816029">
        <ele>152.0</ele>
        <time>2021-11-25T08:35:15Z</time>
      </trkpt>
      <trkpt lat="47.538822" lon="1.8160129">
        <ele>152.0</ele>
        <time>2021-11-25T08:35:16Z</time>
      </trkpt>
      <trkpt lat="47.538815" lon="1.8159937">
        <ele>152.0</ele>
        <time>2021-11-25T08:35:17Z</time>
      </trkpt>
      <trkpt lat="47.538803" lon="1.8159761">
        <ele>152.0</ele>
        <time>2021-11-25T08:35:18Z</time>
      </trkpt>
      <trkpt lat="47.53879" lon="1.8159387">
        <ele>152.0</ele>
        <time>2021-11-25T08:35:20Z</time>
      </trkpt>
      <trkpt lat="47.538784" lon="1.8159184">
        <ele>152.0</ele>
        <time>2021-11-25T08:35:21Z</time>
      </trkpt>
      <trkpt lat="47.53878" lon="1.8158975">
        <ele>151.0</ele>
        <time>2021-11-25T08:35:22Z</time>
      </trkpt>
      <trkpt lat="47.538773" lon="1.8158822">
        <ele>151.0</ele>
        <time>2021-11-25T08:35:23Z</time>
      </trkpt>
      <trkpt lat="47.53877" lon="1.8158686">
        <ele>151.0</ele>
        <time>2021-11-25T08:35:24Z</time>
      </trkpt>
      <trkpt lat="47.538765" lon="1.8158557">
        <ele>151.0</ele>
        <time>2021-11-25T08:35:25Z</time>
      </trkpt>
      <trkpt lat="47.538765" lon="1.8158411">
        <ele>151.0</ele>
        <time>2021-11-25T08:35:26Z</time>
      </trkpt>
      <trkpt lat="47.538757" lon="1.8158234">
        <ele>151.0</ele>
        <time>2021-11-25T08:35:27Z</time>
      </trkpt>
      <trkpt lat="47.538754" lon="1.8158045">
        <ele>151.0</ele>
        <time>2021-11-25T08:35:28Z</time>
      </trkpt>
      <trkpt lat="47.53875" lon="1.8157859">
        <ele>151.0</ele>
        <time>2021-11-25T08:35:29Z</time>
      </trkpt>
      <trkpt lat="47.53875" lon="1.815768">
        <ele>151.0</ele>
        <time>2021-11-25T08:35:30Z</time>
      </trkpt>
      <trkpt lat="47.538746" lon="1.8157474">
        <ele>151.0</ele>
        <time>2021-11-25T08:35:31Z</time>
      </trkpt>
      <trkpt lat="47.538746" lon="1.8157272">
        <ele>151.0</ele>
        <time>2021-11-25T08:35:32Z</time>
      </trkpt>
      <trkpt lat="47.53874" lon="1.8157111">
        <ele>152.0</ele>
        <time>2021-11-25T08:35:33Z</time>
      </trkpt>
      <trkpt lat="47.538734" lon="1.8156959">
        <ele>152.0</ele>
        <time>2021-11-25T08:35:34Z</time>
      </trkpt>
      <trkpt lat="47.538727" lon="1.8156794">
        <ele>152.0</ele>
        <time>2021-11-25T08:35:35Z</time>
      </trkpt>
      <trkpt lat="47.538723" lon="1.8156643">
        <ele>152.0</ele>
        <time>2021-11-25T08:35:36Z</time>
      </trkpt>
      <trkpt lat="47.53872" lon="1.8156465">
        <ele>152.0</ele>
        <time>2021-11-25T08:35:37Z</time>
      </trkpt>
      <trkpt lat="47.53872" lon="1.8156334">
        <ele>152.0</ele>
        <time>2021-11-25T08:35:38Z</time>
      </trkpt>
      <trkpt lat="47.53871" lon="1.8156195">
        <ele>152.0</ele>
        <time>2021-11-25T08:35:39Z</time>
      </trkpt>
      <trkpt lat="47.538704" lon="1.8156013">
        <ele>152.0</ele>
        <time>2021-11-25T08:35:40Z</time>
      </trkpt>
      <trkpt lat="47.538696" lon="1.8155835">
        <ele>152.0</ele>
        <time>2021-11-25T08:35:41Z</time>
      </trkpt>
      <trkpt lat="47.538692" lon="1.8155745">
        <ele>152.0</ele>
        <time>2021-11-25T08:35:42Z</time>
      </trkpt>
      <trkpt lat="47.53869" lon="1.8155668">
        <ele>152.0</ele>
        <time>2021-11-25T08:35:43Z</time>
      </trkpt>
      <trkpt lat="47.53868" lon="1.8155546">
        <ele>151.0</ele>
        <time>2021-11-25T08:35:44Z</time>
      </trkpt>
      <trkpt lat="47.538677" lon="1.8155426">
        <ele>151.0</ele>
        <time>2021-11-25T08:35:45Z</time>
      </trkpt>
      <trkpt lat="47.53867" lon="1.815529">
        <ele>151.0</ele>
        <time>2021-11-25T08:35:46Z</time>
      </trkpt>
      <trkpt lat="47.538662" lon="1.8155144">
        <ele>151.0</ele>
        <time>2021-11-25T08:35:47Z</time>
      </trkpt>
      <trkpt lat="47.53866" lon="1.8155025">
        <ele>151.0</ele>
        <time>2021-11-25T08:35:48Z</time>
      </trkpt>
      <trkpt lat="47.53866" lon="1.8154924">
        <ele>150.0</ele>
        <time>2021-11-25T08:35:49Z</time>
      </trkpt>
      <trkpt lat="47.538654" lon="1.8154818">
        <ele>150.0</ele>
        <time>2021-11-25T08:35:50Z</time>
      </trkpt>
      <trkpt lat="47.53865" lon="1.8154634">
        <ele>149.0</ele>
        <time>2021-11-25T08:35:51Z</time>
      </trkpt>
      <trkpt lat="47.538643" lon="1.815445">
        <ele>149.0</ele>
        <time>2021-11-25T08:35:52Z</time>
      </trkpt>
      <trkpt lat="47.53864" lon="1.8154339">
        <ele>149.0</ele>
        <time>2021-11-25T08:35:53Z</time>
      </trkpt>
      <trkpt lat="47.53864" lon="1.8154238">
        <ele>149.0</ele>
        <time>2021-11-25T08:35:54Z</time>
      </trkpt>
      <trkpt lat="47.538635" lon="1.8154126">
        <ele>150.0</ele>
        <time>2021-11-25T08:35:55Z</time>
      </trkpt>
      <trkpt lat="47.53863" lon="1.8153965">
        <ele>149.0</ele>
        <time>2021-11-25T08:35:56Z</time>
      </trkpt>
      <trkpt lat="47.538628" lon="1.815381">
        <ele>149.0</ele>
        <time>2021-11-25T08:35:57Z</time>
      </trkpt>
      <trkpt lat="47.538624" lon="1.815365">
        <ele>149.0</ele>
        <time>2021-11-25T08:35:58Z</time>
      </trkpt>
      <trkpt lat="47.53862" lon="1.8153489">
        <ele>148.0</ele>
        <time>2021-11-25T08:35:59Z</time>
      </trkpt>
      <trkpt lat="47.538616" lon="1.8153311">
        <ele>148.0</ele>
        <time>2021-11-25T08:36:00Z</time>
      </trkpt>
      <trkpt lat="47.538612" lon="1.8153112">
        <ele>148.0</ele>
        <time>2021-11-25T08:36:01Z</time>
      </trkpt>
      <trkpt lat="47.53861" lon="1.8152915">
        <ele>148.0</ele>
        <time>2021-11-25T08:36:02Z</time>
      </trkpt>
      <trkpt lat="47.5386" lon="1.8152754">
        <ele>148.0</ele>
        <time>2021-11-25T08:36:03Z</time>
      </trkpt>
      <trkpt lat="47.538597" lon="1.815256">
        <ele>148.0</ele>
        <time>2021-11-25T08:36:04Z</time>
      </trkpt>
      <trkpt lat="47.538597" lon="1.815241">
        <ele>148.0</ele>
        <time>2021-11-25T08:36:05Z</time>
      </trkpt>
      <trkpt lat="47.538597" lon="1.8152272">
        <ele>147.0</ele>
        <time>2021-11-25T08:36:06Z</time>
      </trkpt>
      <trkpt lat="47.538593" lon="1.8152134">
        <ele>147.0</ele>
        <time>2021-11-25T08:36:07Z</time>
      </trkpt>
      <trkpt lat="47.53859" lon="1.8151994">
        <ele>147.0</ele>
        <time>2021-11-25T08:36:08Z</time>
      </trkpt>
      <trkpt lat="47.53858" lon="1.8151845">
        <ele>147.0</ele>
        <time>2021-11-25T08:36:09Z</time>
      </trkpt>
      <trkpt lat="47.538578" lon="1.8151718">
        <ele>148.0</ele>
        <time>2021-11-25T08:36:10Z</time>
      </trkpt>
      <trkpt lat="47.538574" lon="1.815161">
        <ele>148.0</ele>
        <time>2021-11-25T08:36:11Z</time>
      </trkpt>
      <trkpt lat="47.53857" lon="1.8151506">
        <ele>148.0</ele>
        <time>2021-11-25T08:36:12Z</time>
      </trkpt>
      <trkpt lat="47.538567" lon="1.815142">
        <ele>148.0</ele>
        <time>2021-11-25T08:36:13Z</time>
      </trkpt>
      <trkpt lat="47.538563" lon="1.8151295">
        <ele>148.0</ele>
        <time>2021-11-25T08:36:14Z</time>
      </trkpt>
      <trkpt lat="47.538563" lon="1.8151157">
        <ele>148.0</ele>
        <time>2021-11-25T08:36:15Z</time>
      </trkpt>
      <trkpt lat="47.53856" lon="1.8151019">
        <ele>147.0</ele>
        <time>2021-11-25T08:36:16Z</time>
      </trkpt>
      <trkpt lat="47.53856" lon="1.8150935">
        <ele>147.0</ele>
        <time>2021-11-25T08:36:17Z</time>
      </trkpt>
      <trkpt lat="47.53856" lon="1.8150829">
        <ele>147.0</ele>
        <time>2021-11-25T08:36:18Z</time>
      </trkpt>
      <trkpt lat="47.538563" lon="1.8150711">
        <ele>148.0</ele>
        <time>2021-11-25T08:36:19Z</time>
      </trkpt>
      <trkpt lat="47.53856" lon="1.8150648">
        <ele>149.0</ele>
        <time>2021-11-25T08:36:20Z</time>
      </trkpt>
      <trkpt lat="47.538563" lon="1.8150654">
        <ele>150.0</ele>
        <time>2021-11-25T08:36:21Z</time>
      </trkpt>
      <trkpt lat="47.53856" lon="1.8150653">
        <ele>150.0</ele>
        <time>2021-11-25T08:36:22Z</time>
      </trkpt>
      <trkpt lat="47.538555" lon="1.8150698">
        <ele>150.0</ele>
        <time>2021-11-25T08:36:23Z</time>
      </trkpt>
      <trkpt lat="47.538555" lon="1.8150698">
        <ele>150.0</ele>
        <time>2021-11-25T08:36:23Z</time>
      </trkpt>
    </trkseg>
    <trkseg>
      <trkpt lat="47.538555" lon="1.8150698">
        <ele>150.0</ele>
        <time>2021-11-25T08:36:23Z</time>
      </trkpt>
      <trkpt lat="47.538525" lon="1.8149648">
        <ele>151.0</ele>
        <time>2021-11-25T08:37:19Z</time>
      </trkpt>
      <trkpt lat="47.538517" lon="1.8149511">
        <ele>151.0</ele>
        <time>2021-11-25T08:37:20Z</time>
      </trkpt>
      <trkpt lat="47.538513" lon="1.8149378">
        <ele>150.0</ele>
        <time>2021-11-25T08:37:21Z</time>
      </trkpt>
      <trkpt lat="47.53851" lon="1.814928">
        <ele>150.0</ele>
        <time>2021-11-25T08:37:22Z</time>
      </trkpt>
      <trkpt lat="47.538506" lon="1.8149145">
        <ele>150.0</ele>
        <time>2021-11-25T08:37:23Z</time>
      </trkpt>
      <trkpt lat="47.5385" lon="1.8148937">
        <ele>149.0</ele>
        <time>2021-11-25T08:37:24Z</time>
      </trkpt>
      <trkpt lat="47.538494" lon="1.8148779">
        <ele>149.0</ele>
        <time>2021-11-25T08:37:25Z</time>
      </trkpt>
      <trkpt lat="47.53849" lon="1.814863">
        <ele>149.0</ele>
        <time>2021-11-25T08:37:26Z</time>
      </trkpt>
      <trkpt lat="47.538486" lon="1.8148556">
        <ele>149.0</ele>
        <time>2021-11-25T08:37:27Z</time>
      </trkpt>
      <trkpt lat="47.538483" lon="1.8148477">
        <ele>148.0</ele>
        <time>2021-11-25T08:37:28Z</time>
      </trkpt>
      <trkpt lat="47.53848" lon="1.814832">
        <ele>148.0</ele>
        <time>2021-11-25T08:37:29Z</time>
      </trkpt>
      <trkpt lat="47.538475" lon="1.8148173">
        <ele>148.0</ele>
        <time>2021-11-25T08:37:30Z</time>
      </trkpt>
      <trkpt lat="47.53847" lon="1.8148056">
        <ele>147.0</ele>
        <time>2021-11-25T08:37:31Z</time>
      </trkpt>
      <trkpt lat="47.538467" lon="1.8147943">
        <ele>147.0</ele>
        <time>2021-11-25T08:37:32Z</time>
      </trkpt>
      <trkpt lat="47.538464" lon="1.8147848">
        <ele>147.0</ele>
        <time>2021-11-25T08:37:33Z</time>
      </trkpt>
      <trkpt lat="47.53846" lon="1.8147707">
        <ele>147.0</ele>
        <time>2021-11-25T08:37:34Z</time>
      </trkpt>
      <trkpt lat="47.538452" lon="1.8147606">
        <ele>147.0</ele>
        <time>2021-11-25T08:37:35Z</time>
      </trkpt>
      <trkpt lat="47.538445" lon="1.8147486">
        <ele>147.0</ele>
        <time>2021-11-25T08:37:36Z</time>
      </trkpt>
      <trkpt lat="47.53844" lon="1.814732">
        <ele>146.0</ele>
        <time>2021-11-25T08:37:37Z</time>
      </trkpt>
      <trkpt lat="47.538437" lon="1.8147181">
        <ele>146.0</ele>
        <time>2021-11-25T08:37:38Z</time>
      </trkpt>
      <trkpt lat="47.538433" lon="1.8147023">
        <ele>146.0</ele>
        <time>2021-11-25T08:37:39Z</time>
      </trkpt>
      <trkpt lat="47.538433" lon="1.8146828">
        <ele>146.0</ele>
        <time>2021-11-25T08:37:40Z</time>
      </trkpt>
      <trkpt lat="47.53843" lon="1.8146704">
        <ele>146.0</ele>
        <time>2021-11-25T08:37:41Z</time>
      </trkpt>
      <trkpt lat="47.53842" lon="1.8146582">
        <ele>146.0</ele>
        <time>2021-11-25T08:37:42Z</time>
      </trkpt>
      <trkpt lat="47.538418" lon="1.8146441">
        <ele>146.0</ele>
        <time>2021-11-25T08:37:43Z</time>
      </trkpt>
      <trkpt lat="47.538414" lon="1.8146341">
        <ele>146.0</ele>
        <time>2021-11-25T08:37:44Z</time>
      </trkpt>
      <trkpt lat="47.538414" lon="1.8146259">
        <ele>146.0</ele>
        <time>2021-11-25T08:37:45Z</time>
      </trkpt>
      <trkpt lat="47.53841" lon="1.8146148">
        <ele>146.0</ele>
        <time>2021-11-25T08:37:46Z</time>
      </trkpt>
      <trkpt lat="47.538406" lon="1.8145998">
        <ele>146.0</ele>
        <time>2021-11-25T08:37:47Z</time>
      </trkpt>
      <trkpt lat="47.538403" lon="1.8145859">
        <ele>146.0</ele>
        <time>2021-11-25T08:37:48Z</time>
      </trkpt>
      <trkpt lat="47.5384" lon="1.8145744">
        <ele>146.0</ele>
        <time>2021-11-25T08:37:49Z</time>
      </trkpt>
      <trkpt lat="47.538395" lon="1.814564">
        <ele>147.0</ele>
        <time>2021-11-25T08:37:50Z</time>
      </trkpt>
      <trkpt lat="47.53839" lon="1.8145471">
        <ele>147.0</ele>
        <time>2021-11-25T08:37:51Z</time>
      </trkpt>
      <trkpt lat="47.538383" lon="1.8145329">
        <ele>147.0</ele>
        <time>2021-11-25T08:37:52Z</time>
      </trkpt>
      <trkpt lat="47.538383" lon="1.8145182">
        <ele>147.0</ele>
        <time>2021-11-25T08:37:53Z</time>
      </trkpt>
      <trkpt lat="47.53838" lon="1.8145068">
        <ele>147.0</ele>
        <time>2021-11-25T08:37:54Z</time>
      </trkpt>
      <trkpt lat="47.538376" lon="1.8144907">
        <ele>147.0</ele>
        <time>2021-11-25T08:37:55Z</time>
      </trkpt>
      <trkpt lat="47.53837" lon="1.8144745">
        <ele>147.0</ele>
        <time>2021-11-25T08:37:56Z</time>
      </trkpt>
      <trkpt lat="47.538364" lon="1.8144575">
        <ele>147.0</ele>
        <time>2021-11-25T08:37:57Z</time>
      </trkpt>
      <trkpt lat="47.538364" lon="1.8144406">
        <ele>147.0</ele>
        <time>2021-11-25T08:37:58Z</time>
      </trkpt>
      <trkpt lat="47.53836" lon="1.8144282">
        <ele>147.0</ele>
        <time>2021-11-25T08:37:59Z</time>
      </trkpt>
      <trkpt lat="47.538357" lon="1.8144152">
        <ele>148.0</ele>
        <time>2021-11-25T08:38:00Z</time>
      </trkpt>
      <trkpt lat="47.538353" lon="1.8144021">
        <ele>148.0</ele>
        <time>2021-11-25T08:38:01Z</time>
      </trkpt>
      <trkpt lat="47.538353" lon="1.8143861">
        <ele>148.0</ele>
        <time>2021-11-25T08:38:02Z</time>
      </trkpt>
      <trkpt lat="47.53835" lon="1.8143694">
        <ele>148.0</ele>
        <time>2021-11-25T08:38:03Z</time>
      </trkpt>
      <trkpt lat="47.538345" lon="1.8143584">
        <ele>148.0</ele>
        <time>2021-11-25T08:38:04Z</time>
      </trkpt>
      <trkpt lat="47.53834" lon="1.8143533">
        <ele>148.0</ele>
        <time>2021-11-25T08:38:05Z</time>
      </trkpt>
      <trkpt lat="47.538334" lon="1.814342">
        <ele>148.0</ele>
        <time>2021-11-25T08:38:06Z</time>
      </trkpt>
      <trkpt lat="47.53833" lon="1.814333">
        <ele>148.0</ele>
        <time>2021-11-25T08:38:07Z</time>
      </trkpt>
      <trkpt lat="47.538326" lon="1.8143202">
        <ele>148.0</ele>
        <time>2021-11-25T08:38:08Z</time>
      </trkpt>
      <trkpt lat="47.538326" lon="1.8143067">
        <ele>148.0</ele>
        <time>2021-11-25T08:38:09Z</time>
      </trkpt>
      <trkpt lat="47.538322" lon="1.81429">
        <ele>148.0</ele>
        <time>2021-11-25T08:38:10Z</time>
      </trkpt>
      <trkpt lat="47.53832" lon="1.814271">
        <ele>148.0</ele>
        <time>2021-11-25T08:38:11Z</time>
      </trkpt>
      <trkpt lat="47.53831" lon="1.8142532">
        <ele>148.0</ele>
        <time>2021-11-25T08:38:12Z</time>
      </trkpt>
      <trkpt lat="47.538307" lon="1.8142319">
        <ele>147.0</ele>
        <time>2021-11-25T08:38:13Z</time>
      </trkpt>
      <trkpt lat="47.538303" lon="1.8142116">
        <ele>147.0</ele>
        <time>2021-11-25T08:38:14Z</time>
      </trkpt>
      <trkpt lat="47.5383" lon="1.8141955">
        <ele>147.0</ele>
        <time>2021-11-25T08:38:15Z</time>
      </trkpt>
      <trkpt lat="47.538296" lon="1.814178">
        <ele>147.0</ele>
        <time>2021-11-25T08:38:16Z</time>
      </trkpt>
      <trkpt lat="47.538292" lon="1.8141629">
        <ele>146.0</ele>
        <time>2021-11-25T08:38:17Z</time>
      </trkpt>
      <trkpt lat="47.538292" lon="1.8141452">
        <ele>146.0</ele>
        <time>2021-11-25T08:38:18Z</time>
      </trkpt>
      <trkpt lat="47.53829" lon="1.8141315">
        <ele>146.0</ele>
        <time>2021-11-25T08:38:19Z</time>
      </trkpt>
      <trkpt lat="47.53828" lon="1.8141173">
        <ele>145.0</ele>
        <time>2021-11-25T08:38:20Z</time>
      </trkpt>
      <trkpt lat="47.53828" lon="1.8141024">
        <ele>145.0</ele>
        <time>2021-11-25T08:38:21Z</time>
      </trkpt>
      <trkpt lat="47.538277" lon="1.8140862">
        <ele>145.0</ele>
        <time>2021-11-25T08:38:22Z</time>
      </trkpt>
      <trkpt lat="47.538277" lon="1.8140705">
        <ele>146.0</ele>
        <time>2021-11-25T08:38:23Z</time>
      </trkpt>
      <trkpt lat="47.538273" lon="1.8140538">
        <ele>146.0</ele>
        <time>2021-11-25T08:38:24Z</time>
      </trkpt>
      <trkpt lat="47.538273" lon="1.8140396">
        <ele>146.0</ele>
        <time>2021-11-25T08:38:25Z</time>
      </trkpt>
      <trkpt lat="47.53828" lon="1.8140221">
        <ele>145.0</ele>
        <time>2021-11-25T08:38:26Z</time>
      </trkpt>
      <trkpt lat="47.538284" lon="1.8140106">
        <ele>145.0</ele>
        <time>2021-11-25T08:38:27Z</time>
      </trkpt>
      <trkpt lat="47.538292" lon="1.8139979">
        <ele>145.0</ele>
        <time>2021-11-25T08:38:28Z</time>
      </trkpt>
      <trkpt lat="47.5383" lon="1.8139853">
        <ele>145.0</ele>
        <time>2021-11-25T08:38:29Z</time>
      </trkpt>
      <trkpt lat="47.538307" lon="1.8139751">
        <ele>145.0</ele>
        <time>2021-11-25T08:38:30Z</time>
      </trkpt>
      <trkpt lat="47.53832" lon="1.8139663">
        <ele>144.0</ele>
        <time>2021-11-25T08:38:31Z</time>
      </trkpt>
      <trkpt lat="47.538326" lon="1.8139585">
        <ele>144.0</ele>
        <time>2021-11-25T08:38:32Z</time>
      </trkpt>
      <trkpt lat="47.538334" lon="1.8139482">
        <ele>144.0</ele>
        <time>2021-11-25T08:38:33Z</time>
      </trkpt>
      <trkpt lat="47.53834" lon="1.8139402">
        <ele>144.0</ele>
        <time>2021-11-25T08:38:34Z</time>
      </trkpt>
      <trkpt lat="47.53835" lon="1.8139336">
        <ele>144.0</ele>
        <time>2021-11-25T08:38:35Z</time>
      </trkpt>
      <trkpt lat="47.538357" lon="1.8139284">
        <ele>143.0</ele>
        <time>2021-11-25T08:38:36Z</time>
      </trkpt>
      <trkpt lat="47.538364" lon="1.8139257">
        <ele>143.0</ele>
        <time>2021-11-25T08:38:37Z</time>
      </trkpt>
      <trkpt lat="47.538376" lon="1.8139234">
        <ele>143.0</ele>
        <time>2021-11-25T08:38:38Z</time>
      </trkpt>
      <trkpt lat="47.538387" lon="1.8139223">
        <ele>143.0</ele>
        <time>2021-11-25T08:38:39Z</time>
      </trkpt>
      <trkpt lat="47.538395" lon="1.8139203">
        <ele>142.0</ele>
        <time>2021-11-25T08:38:40Z</time>
      </trkpt>
      <trkpt lat="47.538403" lon="1.8139186">
        <ele>142.0</ele>
        <time>2021-11-25T08:38:41Z</time>
      </trkpt>
      <trkpt lat="47.538414" lon="1.8139174">
        <ele>142.0</ele>
        <time>2021-11-25T08:38:42Z</time>
      </trkpt>
      <trkpt lat="47.538425" lon="1.8139145">
        <ele>142.0</ele>
        <time>2021-11-25T08:38:43Z</time>
      </trkpt>
      <trkpt lat="47.538433" lon="1.8139089">
        <ele>142.0</ele>
        <time>2021-11-25T08:38:44Z</time>
      </trkpt>
      <trkpt lat="47.538445" lon="1.8139044">
        <ele>142.0</ele>
        <time>2021-11-25T08:38:45Z</time>
      </trkpt>
      <trkpt lat="47.538452" lon="1.8138978">
        <ele>142.0</ele>
        <time>2021-11-25T08:38:46Z</time>
      </trkpt>
      <trkpt lat="47.538464" lon="1.8138924">
        <ele>142.0</ele>
        <time>2021-11-25T08:38:47Z</time>
      </trkpt>
      <trkpt lat="47.538475" lon="1.8138833">
        <ele>141.0</ele>
        <time>2021-11-25T08:38:48Z</time>
      </trkpt>
      <trkpt lat="47.538483" lon="1.8138728">
        <ele>141.0</ele>
        <time>2021-11-25T08:38:49Z</time>
      </trkpt>
      <trkpt lat="47.53849" lon="1.813866">
        <ele>141.0</ele>
        <time>2021-11-25T08:38:50Z</time>
      </trkpt>
      <trkpt lat="47.538498" lon="1.813864">
        <ele>141.0</ele>
        <time>2021-11-25T08:38:51Z</time>
      </trkpt>
      <trkpt lat="47.538506" lon="1.813863">
        <ele>141.0</ele>
        <time>2021-11-25T08:38:52Z</time>
      </trkpt>
      <trkpt lat="47.538517" lon="1.8138553">
        <ele>141.0</ele>
        <time>2021-11-25T08:38:53Z</time>
      </trkpt>
      <trkpt lat="47.53853" lon="1.8138456">
        <ele>141.0</ele>
        <time>2021-11-25T08:38:54Z</time>
      </trkpt>
      <trkpt lat="47.53854" lon="1.8138394">
        <ele>142.0</ele>
        <time>2021-11-25T08:38:55Z</time>
      </trkpt>
      <trkpt lat="47.538548" lon="1.8138361">
        <ele>142.0</ele>
        <time>2021-11-25T08:38:56Z</time>
      </trkpt>
      <trkpt lat="47.53856" lon="1.81383">
        <ele>142.0</ele>
        <time>2021-11-25T08:38:57Z</time>
      </trkpt>
      <trkpt lat="47.538567" lon="1.8138225">
        <ele>142.0</ele>
        <time>2021-11-25T08:38:58Z</time>
      </trkpt>
      <trkpt lat="47.538578" lon="1.8138155">
        <ele>142.0</ele>
        <time>2021-11-25T08:38:59Z</time>
      </trkpt>
      <trkpt lat="47.53859" lon="1.813807">
        <ele>141.0</ele>
        <time>2021-11-25T08:39:00Z</time>
      </trkpt>
      <trkpt lat="47.538597" lon="1.8137988">
        <ele>141.0</ele>
        <time>2021-11-25T08:39:01Z</time>
      </trkpt>
      <trkpt lat="47.5386" lon="1.8137844">
        <ele>141.0</ele>
        <time>2021-11-25T08:39:02Z</time>
      </trkpt>
      <trkpt lat="47.538612" lon="1.8137733">
        <ele>141.0</ele>
        <time>2021-11-25T08:39:03Z</time>
      </trkpt>
      <trkpt lat="47.53862" lon="1.813767">
        <ele>141.0</ele>
        <time>2021-11-25T08:39:04Z</time>
      </trkpt>
      <trkpt lat="47.538628" lon="1.8137594">
        <ele>141.0</ele>
        <time>2021-11-25T08:39:05Z</time>
      </trkpt>
      <trkpt lat="47.53864" lon="1.8137568">
        <ele>141.0</ele>
        <time>2021-11-25T08:39:06Z</time>
      </trkpt>
      <trkpt lat="47.538647" lon="1.8137524">
        <ele>141.0</ele>
        <time>2021-11-25T08:39:07Z</time>
      </trkpt>
      <trkpt lat="47.538654" lon="1.813746">
        <ele>142.0</ele>
        <time>2021-11-25T08:39:08Z</time>
      </trkpt>
      <trkpt lat="47.53866" lon="1.8137319">
        <ele>143.0</ele>
        <time>2021-11-25T08:39:09Z</time>
      </trkpt>
      <trkpt lat="47.538666" lon="1.8137202">
        <ele>145.0</ele>
        <time>2021-11-25T08:39:10Z</time>
      </trkpt>
      <trkpt lat="47.53867" lon="1.8137212">
        <ele>145.0</ele>
        <time>2021-11-25T08:39:11Z</time>
      </trkpt>
      <trkpt lat="47.538673" lon="1.8137261">
        <ele>145.0</ele>
        <time>2021-11-25T08:39:12Z</time>
      </trkpt>
      <trkpt lat="47.538677" lon="1.8137327">
        <ele>145.0</ele>
        <time>2021-11-25T08:39:13Z</time>
      </trkpt>
      <trkpt lat="47.538685" lon="1.8137401">
        <ele>146.0</ele>
        <time>2021-11-25T08:39:14Z</time>
      </trkpt>
      <trkpt lat="47.53869" lon="1.8137463">
        <ele>146.0</ele>
        <time>2021-11-25T08:39:15Z</time>
      </trkpt>
      <trkpt lat="47.538696" lon="1.8137544">
        <ele>147.0</ele>
        <time>2021-11-25T08:39:16Z</time>
      </trkpt>
      <trkpt lat="47.538704" lon="1.8137674">
        <ele>148.0</ele>
        <time>2021-11-25T08:39:17Z</time>
      </trkpt>
      <trkpt lat="47.538708" lon="1.8137808">
        <ele>148.0</ele>
        <time>2021-11-25T08:39:18Z</time>
      </trkpt>
      <trkpt lat="47.538715" lon="1.8137934">
        <ele>149.0</ele>
        <time>2021-11-25T08:39:19Z</time>
      </trkpt>
      <trkpt lat="47.53872" lon="1.8138037">
        <ele>149.0</ele>
        <time>2021-11-25T08:39:20Z</time>
      </trkpt>
      <trkpt lat="47.53872" lon="1.8138202">
        <ele>149.0</ele>
        <time>2021-11-25T08:39:21Z</time>
      </trkpt>
      <trkpt lat="47.538723" lon="1.813831">
        <ele>149.0</ele>
        <time>2021-11-25T08:39:22Z</time>
      </trkpt>
      <trkpt lat="47.53873" lon="1.8138425">
        <ele>149.0</ele>
        <time>2021-11-25T08:39:23Z</time>
      </trkpt>
      <trkpt lat="47.538734" lon="1.813857">
        <ele>149.0</ele>
        <time>2021-11-25T08:39:24Z</time>
      </trkpt>
      <trkpt lat="47.53874" lon="1.8138698">
        <ele>149.0</ele>
        <time>2021-11-25T08:39:25Z</time>
      </trkpt>
      <trkpt lat="47.53874" lon="1.8138866">
        <ele>149.0</ele>
        <time>2021-11-25T08:39:26Z</time>
      </trkpt>
      <trkpt lat="47.538742" lon="1.8139007">
        <ele>149.0</ele>
        <time>2021-11-25T08:39:27Z</time>
      </trkpt>
      <trkpt lat="47.538746" lon="1.8139137">
        <ele>149.0</ele>
        <time>2021-11-25T08:39:28Z</time>
      </trkpt>
      <trkpt lat="47.538754" lon="1.8139253">
        <ele>149.0</ele>
        <time>2021-11-25T08:39:29Z</time>
      </trkpt>
      <trkpt lat="47.538757" lon="1.8139381">
        <ele>150.0</ele>
        <time>2021-11-25T08:39:30Z</time>
      </trkpt>
      <trkpt lat="47.53876" lon="1.8139516">
        <ele>149.0</ele>
        <time>2021-11-25T08:39:31Z</time>
      </trkpt>
      <trkpt lat="47.538765" lon="1.8139594">
        <ele>149.0</ele>
        <time>2021-11-25T08:39:32Z</time>
      </trkpt>
      <trkpt lat="47.538773" lon="1.8139614">
        <ele>149.0</ele>
        <time>2021-11-25T08:39:33Z</time>
      </trkpt>
      <trkpt lat="47.538776" lon="1.8139673">
        <ele>150.0</ele>
        <time>2021-11-25T08:39:34Z</time>
      </trkpt>
      <trkpt lat="47.538784" lon="1.8139763">
        <ele>151.0</ele>
        <time>2021-11-25T08:39:35Z</time>
      </trkpt>
      <trkpt lat="47.53879" lon="1.8139905">
        <ele>151.0</ele>
        <time>2021-11-25T08:39:36Z</time>
      </trkpt>
      <trkpt lat="47.5388" lon="1.8140055">
        <ele>152.0</ele>
        <time>2021-11-25T08:39:37Z</time>
      </trkpt>
      <trkpt lat="47.538807" lon="1.814021">
        <ele>152.0</ele>
        <time>2021-11-25T08:39:38Z</time>
      </trkpt>
      <trkpt lat="47.538815" lon="1.8140393">
        <ele>153.0</ele>
        <time>2021-11-25T08:39:39Z</time>
      </trkpt>
      <trkpt lat="47.538822" lon="1.8140503">
        <ele>153.0</ele>
        <time>2021-11-25T08:39:40Z</time>
      </trkpt>
      <trkpt lat="47.538826" lon="1.8140658">
        <ele>153.0</ele>
        <time>2021-11-25T08:39:41Z</time>
      </trkpt>
      <trkpt lat="47.538834" lon="1.8140782">
        <ele>154.0</ele>
        <time>2021-11-25T08:39:42Z</time>
      </trkpt>
      <trkpt lat="47.538837" lon="1.8140925">
        <ele>154.0</ele>
        <time>2021-11-25T08:39:43Z</time>
      </trkpt>
      <trkpt lat="47.538845" lon="1.8141062">
        <ele>154.0</ele>
        <time>2021-11-25T08:39:44Z</time>
      </trkpt>
      <trkpt lat="47.538853" lon="1.8141218">
        <ele>155.0</ele>
        <time>2021-11-25T08:39:45Z</time>
      </trkpt>
      <trkpt lat="47.538857" lon="1.8141357">
        <ele>155.0</ele>
        <time>2021-11-25T08:39:46Z</time>
      </trkpt>
      <trkpt lat="47.538864" lon="1.8141485">
        <ele>154.0</ele>
        <time>2021-11-25T08:39:47Z</time>
      </trkpt>
      <trkpt lat="47.53887" lon="1.8141656">
        <ele>154.0</ele>
        <time>2021-11-25T08:39:48Z</time>
      </trkpt>
      <trkpt lat="47.53888" lon="1.81418">
        <ele>154.0</ele>
        <time>2021-11-25T08:39:49Z</time>
      </trkpt>
      <trkpt lat="47.538883" lon="1.8141907">
        <ele>154.0</ele>
        <time>2021-11-25T08:39:50Z</time>
      </trkpt>
      <trkpt lat="47.538887" lon="1.8142031">
        <ele>154.0</ele>
        <time>2021-11-25T08:39:51Z</time>
      </trkpt>
      <trkpt lat="47.53889" lon="1.8142135">
        <ele>154.0</ele>
        <time>2021-11-25T08:39:52Z</time>
      </trkpt>
      <trkpt lat="47.5389" lon="1.8142285">
        <ele>154.0</ele>
        <time>2021-11-25T08:39:53Z</time>
      </trkpt>
      <trkpt lat="47.538906" lon="1.8142421">
        <ele>154.0</ele>
        <time>2021-11-25T08:39:54Z</time>
      </trkpt>
      <trkpt lat="47.538914" lon="1.8142575">
        <ele>155.0</ele>
        <time>2021-11-25T08:39:55Z</time>
      </trkpt>
      <trkpt lat="47.53892" lon="1.8142724">
        <ele>155.0</ele>
        <time>2021-11-25T08:39:56Z</time>
      </trkpt>
      <trkpt lat="47.538925" lon="1.8142881">
        <ele>155.0</ele>
        <time>2021-11-25T08:39:57Z</time>
      </trkpt>
      <trkpt lat="47.53893" lon="1.8142992">
        <ele>155.0</ele>
        <time>2021-11-25T08:39:58Z</time>
      </trkpt>
      <trkpt lat="47.538933" lon="1.8143095">
        <ele>154.0</ele>
        <time>2021-11-25T08:39:59Z</time>
      </trkpt>
      <trkpt lat="47.538933" lon="1.8143218">
        <ele>154.0</ele>
        <time>2021-11-25T08:40:00Z</time>
      </trkpt>
      <trkpt lat="47.53894" lon="1.8143307">
        <ele>154.0</ele>
        <time>2021-11-25T08:40:01Z</time>
      </trkpt>
      <trkpt lat="47.538944" lon="1.8143412">
        <ele>153.0</ele>
        <time>2021-11-25T08:40:02Z</time>
      </trkpt>
      <trkpt lat="47.53895" lon="1.8143513">
        <ele>153.0</ele>
        <time>2021-11-25T08:40:03Z</time>
      </trkpt>
      <trkpt lat="47.53896" lon="1.8143632">
        <ele>154.0</ele>
        <time>2021-11-25T08:40:04Z</time>
      </trkpt>
      <trkpt lat="47.538967" lon="1.8143744">
        <ele>154.0</ele>
        <time>2021-11-25T08:40:05Z</time>
      </trkpt>
      <trkpt lat="47.538975" lon="1.8143891">
        <ele>154.0</ele>
        <time>2021-11-25T08:40:06Z</time>
      </trkpt>
      <trkpt lat="47.538982" lon="1.8143955">
        <ele>154.0</ele>
        <time>2021-11-25T08:40:07Z</time>
      </trkpt>
      <trkpt lat="47.538994" lon="1.8143988">
        <ele>154.0</ele>
        <time>2021-11-25T08:40:08Z</time>
      </trkpt>
      <trkpt lat="47.539005" lon="1.8144037">
        <ele>154.0</ele>
        <time>2021-11-25T08:40:09Z</time>
      </trkpt>
      <trkpt lat="47.539017" lon="1.8144097">
        <ele>154.0</ele>
        <time>2021-11-25T08:40:10Z</time>
      </trkpt>
      <trkpt lat="47.539024" lon="1.8144177">
        <ele>154.0</ele>
        <time>2021-11-25T08:40:11Z</time>
      </trkpt>
      <trkpt lat="47.539032" lon="1.8144209">
        <ele>154.0</ele>
        <time>2021-11-25T08:40:12Z</time>
      </trkpt>
      <trkpt lat="47.539047" lon="1.8144242">
        <ele>154.0</ele>
        <time>2021-11-25T08:40:13Z</time>
      </trkpt>
      <trkpt lat="47.539062" lon="1.814426">
        <ele>154.0</ele>
        <time>2021-11-25T08:40:14Z</time>
      </trkpt>
      <trkpt lat="47.539078" lon="1.8144269">
        <ele>154.0</ele>
        <time>2021-11-25T08:40:15Z</time>
      </trkpt>
      <trkpt lat="47.539093" lon="1.8144258">
        <ele>154.0</ele>
        <time>2021-11-25T08:40:16Z</time>
      </trkpt>
      <trkpt lat="47.53911" lon="1.8144314">
        <ele>154.0</ele>
        <time>2021-11-25T08:40:17Z</time>
      </trkpt>
      <trkpt lat="47.539124" lon="1.8144313">
        <ele>154.0</ele>
        <time>2021-11-25T08:40:18Z</time>
      </trkpt>
      <trkpt lat="47.539135" lon="1.8144312">
        <ele>154.0</ele>
        <time>2021-11-25T08:40:19Z</time>
      </trkpt>
      <trkpt lat="47.53915" lon="1.8144362">
        <ele>154.0</ele>
        <time>2021-11-25T08:40:20Z</time>
      </trkpt>
      <trkpt lat="47.53916" lon="1.8144397">
        <ele>154.0</ele>
        <time>2021-11-25T08:40:21Z</time>
      </trkpt>
      <trkpt lat="47.539177" lon="1.8144355">
        <ele>154.0</ele>
        <time>2021-11-25T08:40:22Z</time>
      </trkpt>
      <trkpt lat="47.53919" lon="1.8144324">
        <ele>153.0</ele>
        <time>2021-11-25T08:40:23Z</time>
      </trkpt>
      <trkpt lat="47.5392" lon="1.8144245">
        <ele>153.0</ele>
        <time>2021-11-25T08:40:24Z</time>
      </trkpt>
      <trkpt lat="47.53921" lon="1.8144196">
        <ele>153.0</ele>
        <time>2021-11-25T08:40:25Z</time>
      </trkpt>
      <trkpt lat="47.539223" lon="1.8144141">
        <ele>154.0</ele>
        <time>2021-11-25T08:40:26Z</time>
      </trkpt>
      <trkpt lat="47.539234" lon="1.8144094">
        <ele>154.0</ele>
        <time>2021-11-25T08:40:27Z</time>
      </trkpt>
      <trkpt lat="47.539246" lon="1.8143982">
        <ele>154.0</ele>
        <time>2021-11-25T08:40:28Z</time>
      </trkpt>
      <trkpt lat="47.539257" lon="1.8143865">
        <ele>155.0</ele>
        <time>2021-11-25T08:40:29Z</time>
      </trkpt>
      <trkpt lat="47.539265" lon="1.8143759">
        <ele>154.0</ele>
        <time>2021-11-25T08:40:30Z</time>
      </trkpt>
      <trkpt lat="47.539276" lon="1.8143694">
        <ele>154.0</ele>
        <time>2021-11-25T08:40:31Z</time>
      </trkpt>
      <trkpt lat="47.539288" lon="1.814366">
        <ele>154.0</ele>
        <time>2021-11-25T08:40:32Z</time>
      </trkpt>
      <trkpt lat="47.5393" lon="1.8143586">
        <ele>155.0</ele>
        <time>2021-11-25T08:40:33Z</time>
      </trkpt>
      <trkpt lat="47.539307" lon="1.8143504">
        <ele>155.0</ele>
        <time>2021-11-25T08:40:34Z</time>
      </trkpt>
      <trkpt lat="47.539314" lon="1.8143411">
        <ele>154.0</ele>
        <time>2021-11-25T08:40:35Z</time>
      </trkpt>
      <trkpt lat="47.53932" lon="1.8143314">
        <ele>154.0</ele>
        <time>2021-11-25T08:40:36Z</time>
      </trkpt>
      <trkpt lat="47.53933" lon="1.8143226">
        <ele>153.0</ele>
        <time>2021-11-25T08:40:37Z</time>
      </trkpt>
      <trkpt lat="47.539337" lon="1.8143164">
        <ele>153.0</ele>
        <time>2021-11-25T08:40:38Z</time>
      </trkpt>
      <trkpt lat="47.53934" lon="1.814304">
        <ele>153.0</ele>
        <time>2021-11-25T08:40:39Z</time>
      </trkpt>
      <trkpt lat="47.539352" lon="1.8142962">
        <ele>153.0</ele>
        <time>2021-11-25T08:40:40Z</time>
      </trkpt>
      <trkpt lat="47.53936" lon="1.814289">
        <ele>153.0</ele>
        <time>2021-11-25T08:40:41Z</time>
      </trkpt>
      <trkpt lat="47.539364" lon="1.8142762">
        <ele>153.0</ele>
        <time>2021-11-25T08:40:42Z</time>
      </trkpt>
      <trkpt lat="47.539368" lon="1.8142661">
        <ele>153.0</ele>
        <time>2021-11-25T08:40:43Z</time>
      </trkpt>
      <trkpt lat="47.539375" lon="1.8142551">
        <ele>153.0</ele>
        <time>2021-11-25T08:40:44Z</time>
      </trkpt>
      <trkpt lat="47.53938" lon="1.814246">
        <ele>153.0</ele>
        <time>2021-11-25T08:40:45Z</time>
      </trkpt>
      <trkpt lat="47.539387" lon="1.8142374">
        <ele>153.0</ele>
        <time>2021-11-25T08:40:46Z</time>
      </trkpt>
      <trkpt lat="47.539387" lon="1.8142294">
        <ele>153.0</ele>
        <time>2021-11-25T08:40:47Z</time>
      </trkpt>
      <trkpt lat="47.539394" lon="1.8142213">
        <ele>153.0</ele>
        <time>2021-11-25T08:40:48Z</time>
      </trkpt>
      <trkpt lat="47.539394" lon="1.8142096">
        <ele>153.0</ele>
        <time>2021-11-25T08:40:49Z</time>
      </trkpt>
      <trkpt lat="47.5394" lon="1.8141975">
        <ele>153.0</ele>
        <time>2021-11-25T08:40:50Z</time>
      </trkpt>
      <trkpt lat="47.539402" lon="1.8141874">
        <ele>153.0</ele>
        <time>2021-11-25T08:40:51Z</time>
      </trkpt>
      <trkpt lat="47.53941" lon="1.814181">
        <ele>152.0</ele>
        <time>2021-11-25T08:40:52Z</time>
      </trkpt>
      <trkpt lat="47.539413" lon="1.8141712">
        <ele>152.0</ele>
        <time>2021-11-25T08:40:53Z</time>
      </trkpt>
      <trkpt lat="47.539417" lon="1.8141599">
        <ele>151.0</ele>
        <time>2021-11-25T08:40:54Z</time>
      </trkpt>
      <trkpt lat="47.539425" lon="1.8141519">
        <ele>151.0</ele>
        <time>2021-11-25T08:40:55Z</time>
      </trkpt>
      <trkpt lat="47.539433" lon="1.8141464">
        <ele>150.0</ele>
        <time>2021-11-25T08:40:56Z</time>
      </trkpt>
      <trkpt lat="47.53944" lon="1.8141361">
        <ele>151.0</ele>
        <time>2021-11-25T08:40:57Z</time>
      </trkpt>
      <trkpt lat="47.539448" lon="1.814131">
        <ele>151.0</ele>
        <time>2021-11-25T08:40:58Z</time>
      </trkpt>
      <trkpt lat="47.53946" lon="1.8141243">
        <ele>151.0</ele>
        <time>2021-11-25T08:40:59Z</time>
      </trkpt>
      <trkpt lat="47.539467" lon="1.8141173">
        <ele>150.0</ele>
        <time>2021-11-25T08:41:00Z</time>
      </trkpt>
      <trkpt lat="47.539474" lon="1.814111">
        <ele>150.0</ele>
        <time>2021-11-25T08:41:01Z</time>
      </trkpt>
      <trkpt lat="47.539486" lon="1.814107">
        <ele>150.0</ele>
        <time>2021-11-25T08:41:02Z</time>
      </trkpt>
      <trkpt lat="47.539494" lon="1.8141011">
        <ele>150.0</ele>
        <time>2021-11-25T08:41:03Z</time>
      </trkpt>
      <trkpt lat="47.5395" lon="1.8140955">
        <ele>149.0</ele>
        <time>2021-11-25T08:41:04Z</time>
      </trkpt>
      <trkpt lat="47.53951" lon="1.8140893">
        <ele>149.0</ele>
        <time>2021-11-25T08:41:05Z</time>
      </trkpt>
      <trkpt lat="47.539516" lon="1.81408">
        <ele>149.0</ele>
        <time>2021-11-25T08:41:06Z</time>
      </trkpt>
      <trkpt lat="47.539524" lon="1.8140727">
        <ele>149.0</ele>
        <time>2021-11-25T08:41:07Z</time>
      </trkpt>
      <trkpt lat="47.539536" lon="1.814068">
        <ele>149.0</ele>
        <time>2021-11-25T08:41:08Z</time>
      </trkpt>
      <trkpt lat="47.539547" lon="1.8140631">
        <ele>149.0</ele>
        <time>2021-11-25T08:41:09Z</time>
      </trkpt>
      <trkpt lat="47.539555" lon="1.8140594">
        <ele>149.0</ele>
        <time>2021-11-25T08:41:10Z</time>
      </trkpt>
      <trkpt lat="47.539562" lon="1.8140565">
        <ele>149.0</ele>
        <time>2021-11-25T08:41:11Z</time>
      </trkpt>
      <trkpt lat="47.539574" lon="1.8140528">
        <ele>149.0</ele>
        <time>2021-11-25T08:41:12Z</time>
      </trkpt>
      <trkpt lat="47.539585" lon="1.8140483">
        <ele>149.0</ele>
        <time>2021-11-25T08:41:13Z</time>
      </trkpt>
      <trkpt lat="47.539597" lon="1.814044">
        <ele>149.0</ele>
        <time>2021-11-25T08:41:14Z</time>
      </trkpt>
      <trkpt lat="47.539608" lon="1.8140357">
        <ele>149.0</ele>
        <time>2021-11-25T08:41:15Z</time>
      </trkpt>
      <trkpt lat="47.53962" lon="1.8140346">
        <ele>149.0</ele>
        <time>2021-11-25T08:41:16Z</time>
      </trkpt>
      <trkpt lat="47.53963" lon="1.8140304">
        <ele>149.0</ele>
        <time>2021-11-25T08:41:17Z</time>
      </trkpt>
      <trkpt lat="47.539642" lon="1.8140258">
        <ele>149.0</ele>
        <time>2021-11-25T08:41:18Z</time>
      </trkpt>
      <trkpt lat="47.539654" lon="1.814024">
        <ele>148.0</ele>
        <time>2021-11-25T08:41:19Z</time>
      </trkpt>
      <trkpt lat="47.539665" lon="1.8140187">
        <ele>148.0</ele>
        <time>2021-11-25T08:41:20Z</time>
      </trkpt>
      <trkpt lat="47.539673" lon="1.8140132">
        <ele>148.0</ele>
        <time>2021-11-25T08:41:21Z</time>
      </trkpt>
      <trkpt lat="47.539684" lon="1.8140078">
        <ele>148.0</ele>
        <time>2021-11-25T08:41:22Z</time>
      </trkpt>
      <trkpt lat="47.539696" lon="1.8140018">
        <ele>148.0</ele>
        <time>2021-11-25T08:41:23Z</time>
      </trkpt>
      <trkpt lat="47.539703" lon="1.8139964">
        <ele>148.0</ele>
        <time>2021-11-25T08:41:24Z</time>
      </trkpt>
      <trkpt lat="47.539715" lon="1.8139895">
        <ele>148.0</ele>
        <time>2021-11-25T08:41:25Z</time>
      </trkpt>
      <trkpt lat="47.539722" lon="1.8139815">
        <ele>147.0</ele>
        <time>2021-11-25T08:41:26Z</time>
      </trkpt>
      <trkpt lat="47.53973" lon="1.8139769">
        <ele>147.0</ele>
        <time>2021-11-25T08:41:27Z</time>
      </trkpt>
      <trkpt lat="47.539738" lon="1.8139749">
        <ele>147.0</ele>
        <time>2021-11-25T08:41:28Z</time>
      </trkpt>
      <trkpt lat="47.53975" lon="1.813971">
        <ele>147.0</ele>
        <time>2021-11-25T08:41:29Z</time>
      </trkpt>
      <trkpt lat="47.539757" lon="1.8139644">
        <ele>147.0</ele>
        <time>2021-11-25T08:41:30Z</time>
      </trkpt>
      <trkpt lat="47.539764" lon="1.813954">
        <ele>146.0</ele>
        <time>2021-11-25T08:41:31Z</time>
      </trkpt>
      <trkpt lat="47.539772" lon="1.8139467">
        <ele>146.0</ele>
        <time>2021-11-25T08:41:32Z</time>
      </trkpt>
      <trkpt lat="47.539776" lon="1.8139417">
        <ele>145.0</ele>
        <time>2021-11-25T08:41:33Z</time>
      </trkpt>
      <trkpt lat="47.53978" lon="1.8139383">
        <ele>145.0</ele>
        <time>2021-11-25T08:41:34Z</time>
      </trkpt>
      <trkpt lat="47.539787" lon="1.8139304">
        <ele>145.0</ele>
        <time>2021-11-25T08:41:35Z</time>
      </trkpt>
      <trkpt lat="47.539795" lon="1.8139219">
        <ele>144.0</ele>
        <time>2021-11-25T08:41:36Z</time>
      </trkpt>
      <trkpt lat="47.539803" lon="1.8139154">
        <ele>144.0</ele>
        <time>2021-11-25T08:41:37Z</time>
      </trkpt>
      <trkpt lat="47.53981" lon="1.8139105">
        <ele>144.0</ele>
        <time>2021-11-25T08:41:38Z</time>
      </trkpt>
      <trkpt lat="47.539814" lon="1.8139024">
        <ele>143.0</ele>
        <time>2021-11-25T08:41:39Z</time>
      </trkpt>
      <trkpt lat="47.53982" lon="1.8138943">
        <ele>143.0</ele>
        <time>2021-11-25T08:41:40Z</time>
      </trkpt>
      <trkpt lat="47.53983" lon="1.8138863">
        <ele>143.0</ele>
        <time>2021-11-25T08:41:41Z</time>
      </trkpt>
      <trkpt lat="47.539837" lon="1.813877">
        <ele>142.0</ele>
        <time>2021-11-25T08:41:42Z</time>
      </trkpt>
      <trkpt lat="47.53984" lon="1.8138673">
        <ele>142.0</ele>
        <time>2021-11-25T08:41:43Z</time>
      </trkpt>
      <trkpt lat="47.539852" lon="1.8138493">
        <ele>143.0</ele>
        <time>2021-11-25T08:41:44Z</time>
      </trkpt>
      <trkpt lat="47.53986" lon="1.8138359">
        <ele>143.0</ele>
        <time>2021-11-25T08:41:45Z</time>
      </trkpt>
      <trkpt lat="47.53987" lon="1.8138251">
        <ele>143.0</ele>
        <time>2021-11-25T08:41:46Z</time>
      </trkpt>
      <trkpt lat="47.53988" lon="1.8138157">
        <ele>142.0</ele>
        <time>2021-11-25T08:41:47Z</time>
      </trkpt>
      <trkpt lat="47.53989" lon="1.8138051">
        <ele>142.0</ele>
        <time>2021-11-25T08:41:48Z</time>
      </trkpt>
      <trkpt lat="47.539898" lon="1.813791">
        <ele>142.0</ele>
        <time>2021-11-25T08:41:49Z</time>
      </trkpt>
      <trkpt lat="47.539906" lon="1.8137778">
        <ele>142.0</ele>
        <time>2021-11-25T08:41:50Z</time>
      </trkpt>
      <trkpt lat="47.539913" lon="1.8137659">
        <ele>142.0</ele>
        <time>2021-11-25T08:41:51Z</time>
      </trkpt>
      <trkpt lat="47.539925" lon="1.8137505">
        <ele>141.0</ele>
        <time>2021-11-25T08:41:52Z</time>
      </trkpt>
      <trkpt lat="47.539932" lon="1.8137352">
        <ele>141.0</ele>
        <time>2021-11-25T08:41:53Z</time>
      </trkpt>
      <trkpt lat="47.539944" lon="1.813724">
        <ele>141.0</ele>
        <time>2021-11-25T08:41:54Z</time>
      </trkpt>
      <trkpt lat="47.53995" lon="1.8137116">
        <ele>141.0</ele>
        <time>2021-11-25T08:41:55Z</time>
      </trkpt>
      <trkpt lat="47.53996" lon="1.813697">
        <ele>141.0</ele>
        <time>2021-11-25T08:41:56Z</time>
      </trkpt>
      <trkpt lat="47.539963" lon="1.8136854">
        <ele>140.0</ele>
        <time>2021-11-25T08:41:57Z</time>
      </trkpt>
      <trkpt lat="47.53997" lon="1.8136779">
        <ele>140.0</ele>
        <time>2021-11-25T08:41:58Z</time>
      </trkpt>
      <trkpt lat="47.539978" lon="1.81367">
        <ele>140.0</ele>
        <time>2021-11-25T08:41:59Z</time>
      </trkpt>
      <trkpt lat="47.539986" lon="1.813665">
        <ele>140.0</ele>
        <time>2021-11-25T08:42:00Z</time>
      </trkpt>
      <trkpt lat="47.539997" lon="1.8136579">
        <ele>139.0</ele>
        <time>2021-11-25T08:42:01Z</time>
      </trkpt>
      <trkpt lat="47.54" lon="1.8136483">
        <ele>139.0</ele>
        <time>2021-11-25T08:42:02Z</time>
      </trkpt>
      <trkpt lat="47.540005" lon="1.8136466">
        <ele>139.0</ele>
        <time>2021-11-25T08:42:03Z</time>
      </trkpt>
      <trkpt lat="47.540012" lon="1.8136413">
        <ele>139.0</ele>
        <time>2021-11-25T08:42:04Z</time>
      </trkpt>
      <trkpt lat="47.54002" lon="1.8136337">
        <ele>139.0</ele>
        <time>2021-11-25T08:42:05Z</time>
      </trkpt>
      <trkpt lat="47.540024" lon="1.8136245">
        <ele>138.0</ele>
        <time>2021-11-25T08:42:06Z</time>
      </trkpt>
      <trkpt lat="47.54003" lon="1.813621">
        <ele>138.0</ele>
        <time>2021-11-25T08:42:07Z</time>
      </trkpt>
      <trkpt lat="47.54003" lon="1.813621">
        <ele>138.0</ele>
        <time>2021-11-25T08:42:08Z</time>
      </trkpt>
      <trkpt lat="47.54003" lon="1.813621">
        <ele>138.0</ele>
        <time>2021-11-25T08:42:09Z</time>
      </trkpt>
      <trkpt lat="47.54005" lon="1.8136137">
        <ele>138.0</ele>
        <time>2021-11-25T08:42:10Z</time>
      </trkpt>
      <trkpt lat="47.54006" lon="1.8136094">
        <ele>138.0</ele>
        <time>2021-11-25T08:42:11Z</time>
      </trkpt>
      <trkpt lat="47.540066" lon="1.8136092">
        <ele>138.0</ele>
        <time>2021-11-25T08:42:12Z</time>
      </trkpt>
      <trkpt lat="47.540073" lon="1.8136132">
        <ele>138.0</ele>
        <time>2021-11-25T08:42:13Z</time>
      </trkpt>
      <trkpt lat="47.540077" lon="1.8136193">
        <ele>138.0</ele>
        <time>2021-11-25T08:42:14Z</time>
      </trkpt>
      <trkpt lat="47.540085" lon="1.8136238">
        <ele>138.0</ele>
        <time>2021-11-25T08:42:15Z</time>
      </trkpt>
      <trkpt lat="47.540092" lon="1.8136238">
        <ele>138.0</ele>
        <time>2021-11-25T08:42:16Z</time>
      </trkpt>
      <trkpt lat="47.5401" lon="1.8136266">
        <ele>138.0</ele>
        <time>2021-11-25T08:42:17Z</time>
      </trkpt>
      <trkpt lat="47.540108" lon="1.8135887">
        <ele>140.0</ele>
        <time>2021-11-25T08:42:18Z</time>
      </trkpt>
      <trkpt lat="47.54011" lon="1.8135906">
        <ele>140.0</ele>
        <time>2021-11-25T08:42:19Z</time>
      </trkpt>
      <trkpt lat="47.54012" lon="1.8135792">
        <ele>140.0</ele>
        <time>2021-11-25T08:42:20Z</time>
      </trkpt>
      <trkpt lat="47.540123" lon="1.8135647">
        <ele>141.0</ele>
        <time>2021-11-25T08:42:21Z</time>
      </trkpt>
      <trkpt lat="47.54013" lon="1.8135449">
        <ele>142.0</ele>
        <time>2021-11-25T08:42:22Z</time>
      </trkpt>
      <trkpt lat="47.54014" lon="1.813533">
        <ele>143.0</ele>
        <time>2021-11-25T08:42:23Z</time>
      </trkpt>
      <trkpt lat="47.540146" lon="1.8135283">
        <ele>144.0</ele>
        <time>2021-11-25T08:42:24Z</time>
      </trkpt>
      <trkpt lat="47.540154" lon="1.813519">
        <ele>145.0</ele>
        <time>2021-11-25T08:42:25Z</time>
      </trkpt>
      <trkpt lat="47.54016" lon="1.8135116">
        <ele>145.0</ele>
        <time>2021-11-25T08:42:26Z</time>
      </trkpt>
      <trkpt lat="47.540173" lon="1.8135101">
        <ele>146.0</ele>
        <time>2021-11-25T08:42:27Z</time>
      </trkpt>
      <trkpt lat="47.54018" lon="1.8135134">
        <ele>146.0</ele>
        <time>2021-11-25T08:42:28Z</time>
      </trkpt>
      <trkpt lat="47.540188" lon="1.8135172">
        <ele>146.0</ele>
        <time>2021-11-25T08:42:29Z</time>
      </trkpt>
      <trkpt lat="47.540195" lon="1.8135219">
        <ele>146.0</ele>
        <time>2021-11-25T08:42:30Z</time>
      </trkpt>
      <trkpt lat="47.540203" lon="1.8135248">
        <ele>146.0</ele>
        <time>2021-11-25T08:42:31Z</time>
      </trkpt>
      <trkpt lat="47.54021" lon="1.8135273">
        <ele>146.0</ele>
        <time>2021-11-25T08:42:32Z</time>
      </trkpt>
      <trkpt lat="47.54022" lon="1.8135314">
        <ele>146.0</ele>
        <time>2021-11-25T08:42:33Z</time>
      </trkpt>
      <trkpt lat="47.54023" lon="1.8135382">
        <ele>146.0</ele>
        <time>2021-11-25T08:42:34Z</time>
      </trkpt>
      <trkpt lat="47.540237" lon="1.8135452">
        <ele>145.0</ele>
        <time>2021-11-25T08:42:35Z</time>
      </trkpt>
      <trkpt lat="47.54025" lon="1.8135535">
        <ele>145.0</ele>
        <time>2021-11-25T08:42:36Z</time>
      </trkpt>
      <trkpt lat="47.540257" lon="1.8135613">
        <ele>145.0</ele>
        <time>2021-11-25T08:42:37Z</time>
      </trkpt>
      <trkpt lat="47.540264" lon="1.8135736">
        <ele>146.0</ele>
        <time>2021-11-25T08:42:38Z</time>
      </trkpt>
      <trkpt lat="47.54027" lon="1.8135848">
        <ele>146.0</ele>
        <time>2021-11-25T08:42:39Z</time>
      </trkpt>
      <trkpt lat="47.540276" lon="1.8135936">
        <ele>146.0</ele>
        <time>2021-11-25T08:42:40Z</time>
      </trkpt>
      <trkpt lat="47.540283" lon="1.8136103">
        <ele>146.0</ele>
        <time>2021-11-25T08:42:41Z</time>
      </trkpt>
      <trkpt lat="47.54029" lon="1.8136265">
        <ele>146.0</ele>
        <time>2021-11-25T08:42:42Z</time>
      </trkpt>
      <trkpt lat="47.540295" lon="1.8136413">
        <ele>146.0</ele>
        <time>2021-11-25T08:42:43Z</time>
      </trkpt>
      <trkpt lat="47.540306" lon="1.8136545">
        <ele>146.0</ele>
        <time>2021-11-25T08:42:44Z</time>
      </trkpt>
      <trkpt lat="47.54031" lon="1.8136667">
        <ele>147.0</ele>
        <time>2021-11-25T08:42:45Z</time>
      </trkpt>
      <trkpt lat="47.540314" lon="1.8136768">
        <ele>147.0</ele>
        <time>2021-11-25T08:42:46Z</time>
      </trkpt>
      <trkpt lat="47.54032" lon="1.813686">
        <ele>147.0</ele>
        <time>2021-11-25T08:42:47Z</time>
      </trkpt>
      <trkpt lat="47.54033" lon="1.8136913">
        <ele>147.0</ele>
        <time>2021-11-25T08:42:48Z</time>
      </trkpt>
      <trkpt lat="47.54034" lon="1.813697">
        <ele>147.0</ele>
        <time>2021-11-25T08:42:49Z</time>
      </trkpt>
      <trkpt lat="47.540348" lon="1.8137053">
        <ele>147.0</ele>
        <time>2021-11-25T08:42:50Z</time>
      </trkpt>
      <trkpt lat="47.540356" lon="1.8137112">
        <ele>148.0</ele>
        <time>2021-11-25T08:42:51Z</time>
      </trkpt>
      <trkpt lat="47.540367" lon="1.8137186">
        <ele>148.0</ele>
        <time>2021-11-25T08:42:52Z</time>
      </trkpt>
      <trkpt lat="47.54037" lon="1.8137237">
        <ele>148.0</ele>
        <time>2021-11-25T08:42:53Z</time>
      </trkpt>
      <trkpt lat="47.54038" lon="1.8137296">
        <ele>149.0</ele>
        <time>2021-11-25T08:42:54Z</time>
      </trkpt>
      <trkpt lat="47.54038" lon="1.8137296">
        <ele>149.0</ele>
        <time>2021-11-25T08:42:55Z</time>
      </trkpt>
      <trkpt lat="47.54038" lon="1.8137296">
        <ele>149.0</ele>
        <time>2021-11-25T08:42:56Z</time>
      </trkpt>
      <trkpt lat="47.54039" lon="1.8137562">
        <ele>149.0</ele>
        <time>2021-11-25T08:42:57Z</time>
      </trkpt>
      <trkpt lat="47.540394" lon="1.813763">
        <ele>149.0</ele>
        <time>2021-11-25T08:42:58Z</time>
      </trkpt>
      <trkpt lat="47.5404" lon="1.8137658">
        <ele>149.0</ele>
        <time>2021-11-25T08:42:59Z</time>
      </trkpt>
      <trkpt lat="47.540405" lon="1.8137677">
        <ele>148.0</ele>
        <time>2021-11-25T08:43:00Z</time>
      </trkpt>
      <trkpt lat="47.54041" lon="1.8137705">
        <ele>148.0</ele>
        <time>2021-11-25T08:43:01Z</time>
      </trkpt>
      <trkpt lat="47.540417" lon="1.8137717">
        <ele>148.0</ele>
        <time>2021-11-25T08:43:02Z</time>
      </trkpt>
      <trkpt lat="47.540424" lon="1.8137753">
        <ele>148.0</ele>
        <time>2021-11-25T08:43:03Z</time>
      </trkpt>
      <trkpt lat="47.540432" lon="1.813781">
        <ele>147.0</ele>
        <time>2021-11-25T08:43:04Z</time>
      </trkpt>
      <trkpt lat="47.540432" lon="1.813781">
        <ele>147.0</ele>
        <time>2021-11-25T08:43:05Z</time>
      </trkpt>
      <trkpt lat="47.540432" lon="1.813781">
        <ele>147.0</ele>
        <time>2021-11-25T08:43:06Z</time>
      </trkpt>
      <trkpt lat="47.540447" lon="1.813807">
        <ele>148.0</ele>
        <time>2021-11-25T08:43:07Z</time>
      </trkpt>
      <trkpt lat="47.540455" lon="1.8138173">
        <ele>148.0</ele>
        <time>2021-11-25T08:43:08Z</time>
      </trkpt>
      <trkpt lat="47.540462" lon="1.8138275">
        <ele>148.0</ele>
        <time>2021-11-25T08:43:09Z</time>
      </trkpt>
      <trkpt lat="47.54047" lon="1.8138372">
        <ele>148.0</ele>
        <time>2021-11-25T08:43:10Z</time>
      </trkpt>
      <trkpt lat="47.540478" lon="1.813846">
        <ele>148.0</ele>
        <time>2021-11-25T08:43:11Z</time>
      </trkpt>
      <trkpt lat="47.54048" lon="1.8138582">
        <ele>147.0</ele>
        <time>2021-11-25T08:43:12Z</time>
      </trkpt>
      <trkpt lat="47.540485" lon="1.8138738">
        <ele>147.0</ele>
        <time>2021-11-25T08:43:13Z</time>
      </trkpt>
      <trkpt lat="47.54049" lon="1.8138865">
        <ele>147.0</ele>
        <time>2021-11-25T08:43:14Z</time>
      </trkpt>
      <trkpt lat="47.540497" lon="1.8138968">
        <ele>147.0</ele>
        <time>2021-11-25T08:43:15Z</time>
      </trkpt>
      <trkpt lat="47.540504" lon="1.8139052">
        <ele>146.0</ele>
        <time>2021-11-25T08:43:16Z</time>
      </trkpt>
      <trkpt lat="47.540512" lon="1.8139135">
        <ele>147.0</ele>
        <time>2021-11-25T08:43:17Z</time>
      </trkpt>
      <trkpt lat="47.54052" lon="1.8139268">
        <ele>147.0</ele>
        <time>2021-11-25T08:43:18Z</time>
      </trkpt>
      <trkpt lat="47.540527" lon="1.8139387">
        <ele>147.0</ele>
        <time>2021-11-25T08:43:19Z</time>
      </trkpt>
      <trkpt lat="47.540535" lon="1.8139508">
        <ele>146.0</ele>
        <time>2021-11-25T08:43:20Z</time>
      </trkpt>
      <trkpt lat="47.540543" lon="1.8139629">
        <ele>146.0</ele>
        <time>2021-11-25T08:43:21Z</time>
      </trkpt>
      <trkpt lat="47.54055" lon="1.8139734">
        <ele>146.0</ele>
        <time>2021-11-25T08:43:22Z</time>
      </trkpt>
      <trkpt lat="47.54056" lon="1.8139849">
        <ele>145.0</ele>
        <time>2021-11-25T08:43:23Z</time>
      </trkpt>
      <trkpt lat="47.540573" lon="1.8139979">
        <ele>146.0</ele>
        <time>2021-11-25T08:43:24Z</time>
      </trkpt>
      <trkpt lat="47.54058" lon="1.8140106">
        <ele>146.0</ele>
        <time>2021-11-25T08:43:25Z</time>
      </trkpt>
      <trkpt lat="47.540592" lon="1.8140212">
        <ele>146.0</ele>
        <time>2021-11-25T08:43:26Z</time>
      </trkpt>
      <trkpt lat="47.5406" lon="1.8140326">
        <ele>146.0</ele>
        <time>2021-11-25T08:43:27Z</time>
      </trkpt>
      <trkpt lat="47.540607" lon="1.8140424">
        <ele>147.0</ele>
        <time>2021-11-25T08:43:28Z</time>
      </trkpt>
      <trkpt lat="47.540615" lon="1.8140535">
        <ele>147.0</ele>
        <time>2021-11-25T08:43:29Z</time>
      </trkpt>
      <trkpt lat="47.540627" lon="1.8140655">
        <ele>147.0</ele>
        <time>2021-11-25T08:43:30Z</time>
      </trkpt>
      <trkpt lat="47.54063" lon="1.8140789">
        <ele>147.0</ele>
        <time>2021-11-25T08:43:31Z</time>
      </trkpt>
      <trkpt lat="47.540638" lon="1.81409">
        <ele>147.0</ele>
        <time>2021-11-25T08:43:32Z</time>
      </trkpt>
      <trkpt lat="47.540638" lon="1.81409">
        <ele>147.0</ele>
        <time>2021-11-25T08:43:33Z</time>
      </trkpt>
      <trkpt lat="47.540638" lon="1.81409">
        <ele>147.0</ele>
        <time>2021-11-25T08:43:34Z</time>
      </trkpt>
      <trkpt lat="47.540653" lon="1.8141167">
        <ele>148.0</ele>
        <time>2021-11-25T08:43:35Z</time>
      </trkpt>
      <trkpt lat="47.540665" lon="1.8141255">
        <ele>147.0</ele>
        <time>2021-11-25T08:43:36Z</time>
      </trkpt>
      <trkpt lat="47.54067" lon="1.8141382">
        <ele>147.0</ele>
        <time>2021-11-25T08:43:37Z</time>
      </trkpt>
      <trkpt lat="47.540676" lon="1.8141441">
        <ele>147.0</ele>
        <time>2021-11-25T08:43:38Z</time>
      </trkpt>
      <trkpt lat="47.540688" lon="1.8141559">
        <ele>147.0</ele>
        <time>2021-11-25T08:43:39Z</time>
      </trkpt>
      <trkpt lat="47.540695" lon="1.8141667">
        <ele>147.0</ele>
        <time>2021-11-25T08:43:40Z</time>
      </trkpt>
      <trkpt lat="47.5407" lon="1.8141769">
        <ele>146.0</ele>
        <time>2021-11-25T08:43:41Z</time>
      </trkpt>
      <trkpt lat="47.540707" lon="1.8141879">
        <ele>146.0</ele>
        <time>2021-11-25T08:43:42Z</time>
      </trkpt>
      <trkpt lat="47.540718" lon="1.8141992">
        <ele>146.0</ele>
        <time>2021-11-25T08:43:43Z</time>
      </trkpt>
      <trkpt lat="47.540726" lon="1.8142098">
        <ele>146.0</ele>
        <time>2021-11-25T08:43:44Z</time>
      </trkpt>
      <trkpt lat="47.540733" lon="1.814218">
        <ele>146.0</ele>
        <time>2021-11-25T08:43:45Z</time>
      </trkpt>
      <trkpt lat="47.540745" lon="1.8142269">
        <ele>146.0</ele>
        <time>2021-11-25T08:43:46Z</time>
      </trkpt>
      <trkpt lat="47.540756" lon="1.8142351">
        <ele>146.0</ele>
        <time>2021-11-25T08:43:47Z</time>
      </trkpt>
      <trkpt lat="47.540764" lon="1.8142432">
        <ele>146.0</ele>
        <time>2021-11-25T08:43:48Z</time>
      </trkpt>
      <trkpt lat="47.54078" lon="1.8142561">
        <ele>147.0</ele>
        <time>2021-11-25T08:43:49Z</time>
      </trkpt>
      <trkpt lat="47.54079" lon="1.8142664">
        <ele>147.0</ele>
        <time>2021-11-25T08:43:50Z</time>
      </trkpt>
      <trkpt lat="47.5408" lon="1.8142779">
        <ele>147.0</ele>
        <time>2021-11-25T08:43:51Z</time>
      </trkpt>
      <trkpt lat="47.540802" lon="1.8142881">
        <ele>147.0</ele>
        <time>2021-11-25T08:43:52Z</time>
      </trkpt>
      <trkpt lat="47.54081" lon="1.8142984">
        <ele>147.0</ele>
        <time>2021-11-25T08:43:53Z</time>
      </trkpt>
      <trkpt lat="47.540813" lon="1.8143095">
        <ele>146.0</ele>
        <time>2021-11-25T08:43:54Z</time>
      </trkpt>
      <trkpt lat="47.54082" lon="1.8143247">
        <ele>146.0</ele>
        <time>2021-11-25T08:43:55Z</time>
      </trkpt>
      <trkpt lat="47.54083" lon="1.8143384">
        <ele>146.0</ele>
        <time>2021-11-25T08:43:56Z</time>
      </trkpt>
      <trkpt lat="47.540836" lon="1.8143523">
        <ele>146.0</ele>
        <time>2021-11-25T08:43:57Z</time>
      </trkpt>
      <trkpt lat="47.54085" lon="1.8143663">
        <ele>146.0</ele>
        <time>2021-11-25T08:43:58Z</time>
      </trkpt>
      <trkpt lat="47.54086" lon="1.8143771">
        <ele>146.0</ele>
        <time>2021-11-25T08:43:59Z</time>
      </trkpt>
      <trkpt lat="47.54087" lon="1.8143871">
        <ele>147.0</ele>
        <time>2021-11-25T08:44:00Z</time>
      </trkpt>
      <trkpt lat="47.540882" lon="1.8143997">
        <ele>147.0</ele>
        <time>2021-11-25T08:44:01Z</time>
      </trkpt>
      <trkpt lat="47.54089" lon="1.8144114">
        <ele>147.0</ele>
        <time>2021-11-25T08:44:02Z</time>
      </trkpt>
      <trkpt lat="47.5409" lon="1.8144218">
        <ele>147.0</ele>
        <time>2021-11-25T08:44:03Z</time>
      </trkpt>
      <trkpt lat="47.540913" lon="1.8144326">
        <ele>147.0</ele>
        <time>2021-11-25T08:44:04Z</time>
      </trkpt>
      <trkpt lat="47.540924" lon="1.814444">
        <ele>147.0</ele>
        <time>2021-11-25T08:44:05Z</time>
      </trkpt>
      <trkpt lat="47.540936" lon="1.8144532">
        <ele>147.0</ele>
        <time>2021-11-25T08:44:06Z</time>
      </trkpt>
      <trkpt lat="47.54095" lon="1.8144622">
        <ele>147.0</ele>
        <time>2021-11-25T08:44:07Z</time>
      </trkpt>
      <trkpt lat="47.540962" lon="1.8144724">
        <ele>147.0</ele>
        <time>2021-11-25T08:44:08Z</time>
      </trkpt>
      <trkpt lat="47.540974" lon="1.8144826">
        <ele>147.0</ele>
        <time>2021-11-25T08:44:09Z</time>
      </trkpt>
      <trkpt lat="47.54099" lon="1.8144916">
        <ele>147.0</ele>
        <time>2021-11-25T08:44:10Z</time>
      </trkpt>
      <trkpt lat="47.541" lon="1.8145016">
        <ele>147.0</ele>
        <time>2021-11-25T08:44:11Z</time>
      </trkpt>
      <trkpt lat="47.54101" lon="1.81451">
        <ele>147.0</ele>
        <time>2021-11-25T08:44:12Z</time>
      </trkpt>
      <trkpt lat="47.541027" lon="1.814518">
        <ele>148.0</ele>
        <time>2021-11-25T08:44:13Z</time>
      </trkpt>
      <trkpt lat="47.541035" lon="1.8145313">
        <ele>148.0</ele>
        <time>2021-11-25T08:44:14Z</time>
      </trkpt>
      <trkpt lat="47.541042" lon="1.8145392">
        <ele>148.0</ele>
        <time>2021-11-25T08:44:15Z</time>
      </trkpt>
      <trkpt lat="47.541054" lon="1.8145472">
        <ele>148.0</ele>
        <time>2021-11-25T08:44:16Z</time>
      </trkpt>
      <trkpt lat="47.54107" lon="1.8145586">
        <ele>148.0</ele>
        <time>2021-11-25T08:44:17Z</time>
      </trkpt>
      <trkpt lat="47.541084" lon="1.8145723">
        <ele>149.0</ele>
        <time>2021-11-25T08:44:18Z</time>
      </trkpt>
      <trkpt lat="47.541096" lon="1.8145881">
        <ele>149.0</ele>
        <time>2021-11-25T08:44:19Z</time>
      </trkpt>
      <trkpt lat="47.54111" lon="1.8145986">
        <ele>150.0</ele>
        <time>2021-11-25T08:44:20Z</time>
      </trkpt>
      <trkpt lat="47.541122" lon="1.8146124">
        <ele>151.0</ele>
        <time>2021-11-25T08:44:21Z</time>
      </trkpt>
      <trkpt lat="47.541134" lon="1.8146229">
        <ele>151.0</ele>
        <time>2021-11-25T08:44:22Z</time>
      </trkpt>
      <trkpt lat="47.541145" lon="1.8146366">
        <ele>151.0</ele>
        <time>2021-11-25T08:44:23Z</time>
      </trkpt>
      <trkpt lat="47.541153" lon="1.8146443">
        <ele>152.0</ele>
        <time>2021-11-25T08:44:24Z</time>
      </trkpt>
      <trkpt lat="47.541164" lon="1.8146524">
        <ele>152.0</ele>
        <time>2021-11-25T08:44:25Z</time>
      </trkpt>
      <trkpt lat="47.541172" lon="1.8146652">
        <ele>152.0</ele>
        <time>2021-11-25T08:44:26Z</time>
      </trkpt>
      <trkpt lat="47.541183" lon="1.8146781">
        <ele>152.0</ele>
        <time>2021-11-25T08:44:27Z</time>
      </trkpt>
      <trkpt lat="47.541195" lon="1.8146948">
        <ele>153.0</ele>
        <time>2021-11-25T08:44:28Z</time>
      </trkpt>
      <trkpt lat="47.541203" lon="1.8147141">
        <ele>153.0</ele>
        <time>2021-11-25T08:44:29Z</time>
      </trkpt>
      <trkpt lat="47.54121" lon="1.8147284">
        <ele>153.0</ele>
        <time>2021-11-25T08:44:30Z</time>
      </trkpt>
      <trkpt lat="47.541218" lon="1.814745">
        <ele>154.0</ele>
        <time>2021-11-25T08:44:31Z</time>
      </trkpt>
      <trkpt lat="47.54123" lon="1.8147571">
        <ele>154.0</ele>
        <time>2021-11-25T08:44:32Z</time>
      </trkpt>
      <trkpt lat="47.541237" lon="1.8147701">
        <ele>154.0</ele>
        <time>2021-11-25T08:44:33Z</time>
      </trkpt>
      <trkpt lat="47.54125" lon="1.8147844">
        <ele>155.0</ele>
        <time>2021-11-25T08:44:34Z</time>
      </trkpt>
      <trkpt lat="47.541256" lon="1.8148007">
        <ele>155.0</ele>
        <time>2021-11-25T08:44:35Z</time>
      </trkpt>
      <trkpt lat="47.54127" lon="1.8148198">
        <ele>155.0</ele>
        <time>2021-11-25T08:44:36Z</time>
      </trkpt>
      <trkpt lat="47.541286" lon="1.8148355">
        <ele>156.0</ele>
        <time>2021-11-25T08:44:37Z</time>
      </trkpt>
      <trkpt lat="47.541294" lon="1.8148462">
        <ele>156.0</ele>
        <time>2021-11-25T08:44:38Z</time>
      </trkpt>
      <trkpt lat="47.541306" lon="1.8148556">
        <ele>156.0</ele>
        <time>2021-11-25T08:44:39Z</time>
      </trkpt>
      <trkpt lat="47.541317" lon="1.8148623">
        <ele>157.0</ele>
        <time>2021-11-25T08:44:40Z</time>
      </trkpt>
      <trkpt lat="47.541325" lon="1.8148712">
        <ele>157.0</ele>
        <time>2021-11-25T08:44:41Z</time>
      </trkpt>
      <trkpt lat="47.541336" lon="1.8148812">
        <ele>157.0</ele>
        <time>2021-11-25T08:44:42Z</time>
      </trkpt>
      <trkpt lat="47.541344" lon="1.8148957">
        <ele>157.0</ele>
        <time>2021-11-25T08:44:43Z</time>
      </trkpt>
      <trkpt lat="47.541355" lon="1.8149091">
        <ele>158.0</ele>
        <time>2021-11-25T08:44:44Z</time>
      </trkpt>
      <trkpt lat="47.541363" lon="1.8149185">
        <ele>158.0</ele>
        <time>2021-11-25T08:44:45Z</time>
      </trkpt>
      <trkpt lat="47.541378" lon="1.8149307">
        <ele>158.0</ele>
        <time>2021-11-25T08:44:46Z</time>
      </trkpt>
      <trkpt lat="47.54139" lon="1.8149388">
        <ele>159.0</ele>
        <time>2021-11-25T08:44:47Z</time>
      </trkpt>
      <trkpt lat="47.5414" lon="1.8149476">
        <ele>159.0</ele>
        <time>2021-11-25T08:44:48Z</time>
      </trkpt>
      <trkpt lat="47.54141" lon="1.8149526">
        <ele>159.0</ele>
        <time>2021-11-25T08:44:49Z</time>
      </trkpt>
      <trkpt lat="47.54142" lon="1.8149612">
        <ele>159.0</ele>
        <time>2021-11-25T08:44:50Z</time>
      </trkpt>
      <trkpt lat="47.541428" lon="1.8149722">
        <ele>159.0</ele>
        <time>2021-11-25T08:44:51Z</time>
      </trkpt>
      <trkpt lat="47.541443" lon="1.8149846">
        <ele>160.0</ele>
        <time>2021-11-25T08:44:52Z</time>
      </trkpt>
      <trkpt lat="47.541454" lon="1.8149936">
        <ele>160.0</ele>
        <time>2021-11-25T08:44:53Z</time>
      </trkpt>
      <trkpt lat="47.54147" lon="1.8150011">
        <ele>160.0</ele>
        <time>2021-11-25T08:44:54Z</time>
      </trkpt>
      <trkpt lat="47.54148" lon="1.8150074">
        <ele>161.0</ele>
        <time>2021-11-25T08:44:55Z</time>
      </trkpt>
      <trkpt lat="47.541492" lon="1.8150167">
        <ele>161.0</ele>
        <time>2021-11-25T08:44:56Z</time>
      </trkpt>
      <trkpt lat="47.5415" lon="1.815028">
        <ele>161.0</ele>
        <time>2021-11-25T08:44:57Z</time>
      </trkpt>
      <trkpt lat="47.541515" lon="1.8150383">
        <ele>162.0</ele>
        <time>2021-11-25T08:44:58Z</time>
      </trkpt>
      <trkpt lat="47.541527" lon="1.8150473">
        <ele>162.0</ele>
        <time>2021-11-25T08:44:59Z</time>
      </trkpt>
      <trkpt lat="47.54154" lon="1.815053">
        <ele>163.0</ele>
        <time>2021-11-25T08:45:00Z</time>
      </trkpt>
      <trkpt lat="47.54155" lon="1.8150587">
        <ele>163.0</ele>
        <time>2021-11-25T08:45:01Z</time>
      </trkpt>
      <trkpt lat="47.541557" lon="1.8150676">
        <ele>163.0</ele>
        <time>2021-11-25T08:45:02Z</time>
      </trkpt>
      <trkpt lat="47.54157" lon="1.8150802">
        <ele>163.0</ele>
        <time>2021-11-25T08:45:03Z</time>
      </trkpt>
      <trkpt lat="47.541576" lon="1.8150939">
        <ele>162.0</ele>
        <time>2021-11-25T08:45:04Z</time>
      </trkpt>
      <trkpt lat="47.541584" lon="1.815111">
        <ele>161.0</ele>
        <time>2021-11-25T08:45:05Z</time>
      </trkpt>
      <trkpt lat="47.54159" lon="1.8151265">
        <ele>161.0</ele>
        <time>2021-11-25T08:45:06Z</time>
      </trkpt>
      <trkpt lat="47.541603" lon="1.8151363">
        <ele>161.0</ele>
        <time>2021-11-25T08:45:07Z</time>
      </trkpt>
      <trkpt lat="47.541615" lon="1.8151455">
        <ele>160.0</ele>
        <time>2021-11-25T08:45:08Z</time>
      </trkpt>
      <trkpt lat="47.541626" lon="1.8151561">
        <ele>160.0</ele>
        <time>2021-11-25T08:45:09Z</time>
      </trkpt>
      <trkpt lat="47.541634" lon="1.8151684">
        <ele>160.0</ele>
        <time>2021-11-25T08:45:10Z</time>
      </trkpt>
      <trkpt lat="47.54164" lon="1.8151805">
        <ele>160.0</ele>
        <time>2021-11-25T08:45:11Z</time>
      </trkpt>
      <trkpt lat="47.541653" lon="1.8151913">
        <ele>160.0</ele>
        <time>2021-11-25T08:45:12Z</time>
      </trkpt>
      <trkpt lat="47.541664" lon="1.8152063">
        <ele>161.0</ele>
        <time>2021-11-25T08:45:13Z</time>
      </trkpt>
      <trkpt lat="47.54167" lon="1.8152153">
        <ele>160.0</ele>
        <time>2021-11-25T08:45:14Z</time>
      </trkpt>
      <trkpt lat="47.541683" lon="1.8152256">
        <ele>160.0</ele>
        <time>2021-11-25T08:45:15Z</time>
      </trkpt>
      <trkpt lat="47.54169" lon="1.8152324">
        <ele>160.0</ele>
        <time>2021-11-25T08:45:16Z</time>
      </trkpt>
      <trkpt lat="47.541702" lon="1.8152398">
        <ele>160.0</ele>
        <time>2021-11-25T08:45:17Z</time>
      </trkpt>
      <trkpt lat="47.54171" lon="1.81525">
        <ele>160.0</ele>
        <time>2021-11-25T08:45:18Z</time>
      </trkpt>
      <trkpt lat="47.541714" lon="1.8152573">
        <ele>160.0</ele>
        <time>2021-11-25T08:45:19Z</time>
      </trkpt>
      <trkpt lat="47.54172" lon="1.8152655">
        <ele>159.0</ele>
        <time>2021-11-25T08:45:20Z</time>
      </trkpt>
      <trkpt lat="47.54173" lon="1.8152729">
        <ele>159.0</ele>
        <time>2021-11-25T08:45:21Z</time>
      </trkpt>
      <trkpt lat="47.54174" lon="1.8152804">
        <ele>160.0</ele>
        <time>2021-11-25T08:45:22Z</time>
      </trkpt>
      <trkpt lat="47.541748" lon="1.8152913">
        <ele>159.0</ele>
        <time>2021-11-25T08:45:23Z</time>
      </trkpt>
      <trkpt lat="47.541756" lon="1.8153046">
        <ele>160.0</ele>
        <time>2021-11-25T08:45:24Z</time>
      </trkpt>
      <trkpt lat="47.541767" lon="1.8153169">
        <ele>160.0</ele>
        <time>2021-11-25T08:45:25Z</time>
      </trkpt>
      <trkpt lat="47.541775" lon="1.815326">
        <ele>160.0</ele>
        <time>2021-11-25T08:45:26Z</time>
      </trkpt>
      <trkpt lat="47.541782" lon="1.8153362">
        <ele>160.0</ele>
        <time>2021-11-25T08:45:27Z</time>
      </trkpt>
      <trkpt lat="47.54179" lon="1.8153421">
        <ele>160.0</ele>
        <time>2021-11-25T08:45:28Z</time>
      </trkpt>
      <trkpt lat="47.541798" lon="1.8153505">
        <ele>160.0</ele>
        <time>2021-11-25T08:45:29Z</time>
      </trkpt>
      <trkpt lat="47.5418" lon="1.8153596">
        <ele>160.0</ele>
        <time>2021-11-25T08:45:30Z</time>
      </trkpt>
      <trkpt lat="47.541813" lon="1.8153672">
        <ele>159.0</ele>
        <time>2021-11-25T08:45:31Z</time>
      </trkpt>
      <trkpt lat="47.54182" lon="1.8153774">
        <ele>159.0</ele>
        <time>2021-11-25T08:45:32Z</time>
      </trkpt>
      <trkpt lat="47.54183" lon="1.8153867">
        <ele>159.0</ele>
        <time>2021-11-25T08:45:33Z</time>
      </trkpt>
      <trkpt lat="47.54184" lon="1.8153943">
        <ele>159.0</ele>
        <time>2021-11-25T08:45:34Z</time>
      </trkpt>
      <trkpt lat="47.54185" lon="1.8154023">
        <ele>159.0</ele>
        <time>2021-11-25T08:45:35Z</time>
      </trkpt>
      <trkpt lat="47.541862" lon="1.8154113">
        <ele>159.0</ele>
        <time>2021-11-25T08:45:36Z</time>
      </trkpt>
      <trkpt lat="47.54187" lon="1.8154216">
        <ele>159.0</ele>
        <time>2021-11-25T08:45:37Z</time>
      </trkpt>
      <trkpt lat="47.54188" lon="1.8154341">
        <ele>159.0</ele>
        <time>2021-11-25T08:45:38Z</time>
      </trkpt>
      <trkpt lat="47.541893" lon="1.8154447">
        <ele>159.0</ele>
        <time>2021-11-25T08:45:39Z</time>
      </trkpt>
      <trkpt lat="47.541904" lon="1.8154596">
        <ele>159.0</ele>
        <time>2021-11-25T08:45:40Z</time>
      </trkpt>
      <trkpt lat="47.541912" lon="1.8154693">
        <ele>159.0</ele>
        <time>2021-11-25T08:45:41Z</time>
      </trkpt>
      <trkpt lat="47.541924" lon="1.815477">
        <ele>159.0</ele>
        <time>2021-11-25T08:45:42Z</time>
      </trkpt>
      <trkpt lat="47.541935" lon="1.8154877">
        <ele>158.0</ele>
        <time>2021-11-25T08:45:43Z</time>
      </trkpt>
      <trkpt lat="47.541946" lon="1.8154985">
        <ele>158.0</ele>
        <time>2021-11-25T08:45:44Z</time>
      </trkpt>
      <trkpt lat="47.541954" lon="1.815509">
        <ele>158.0</ele>
        <time>2021-11-25T08:45:45Z</time>
      </trkpt>
      <trkpt lat="47.54196" lon="1.8155191">
        <ele>158.0</ele>
        <time>2021-11-25T08:45:46Z</time>
      </trkpt>
      <trkpt lat="47.54197" lon="1.815531">
        <ele>158.0</ele>
        <time>2021-11-25T08:45:47Z</time>
      </trkpt>
      <trkpt lat="47.541977" lon="1.8155403">
        <ele>157.0</ele>
        <time>2021-11-25T08:45:48Z</time>
      </trkpt>
      <trkpt lat="47.541985" lon="1.8155499">
        <ele>157.0</ele>
        <time>2021-11-25T08:45:49Z</time>
      </trkpt>
      <trkpt lat="47.54199" lon="1.8155608">
        <ele>157.0</ele>
        <time>2021-11-25T08:45:50Z</time>
      </trkpt>
      <trkpt lat="47.541996" lon="1.8155683">
        <ele>157.0</ele>
        <time>2021-11-25T08:45:51Z</time>
      </trkpt>
      <trkpt lat="47.542004" lon="1.8155779">
        <ele>157.0</ele>
        <time>2021-11-25T08:45:52Z</time>
      </trkpt>
      <trkpt lat="47.542015" lon="1.8155853">
        <ele>157.0</ele>
        <time>2021-11-25T08:45:53Z</time>
      </trkpt>
      <trkpt lat="47.542023" lon="1.8155947">
        <ele>157.0</ele>
        <time>2021-11-25T08:45:54Z</time>
      </trkpt>
      <trkpt lat="47.54203" lon="1.815611">
        <ele>156.0</ele>
        <time>2021-11-25T08:45:55Z</time>
      </trkpt>
      <trkpt lat="47.542046" lon="1.815621">
        <ele>156.0</ele>
        <time>2021-11-25T08:45:56Z</time>
      </trkpt>
      <trkpt lat="47.542053" lon="1.8156332">
        <ele>156.0</ele>
        <time>2021-11-25T08:45:57Z</time>
      </trkpt>
      <trkpt lat="47.54207" lon="1.8156478">
        <ele>156.0</ele>
        <time>2021-11-25T08:45:58Z</time>
      </trkpt>
      <trkpt lat="47.54208" lon="1.81566">
        <ele>156.0</ele>
        <time>2021-11-25T08:45:59Z</time>
      </trkpt>
      <trkpt lat="47.54209" lon="1.815668">
        <ele>156.0</ele>
        <time>2021-11-25T08:46:00Z</time>
      </trkpt>
      <trkpt lat="47.5421" lon="1.8156801">
        <ele>156.0</ele>
        <time>2021-11-25T08:46:01Z</time>
      </trkpt>
      <trkpt lat="47.542107" lon="1.8156924">
        <ele>156.0</ele>
        <time>2021-11-25T08:46:02Z</time>
      </trkpt>
      <trkpt lat="47.542118" lon="1.8157004">
        <ele>156.0</ele>
        <time>2021-11-25T08:46:03Z</time>
      </trkpt>
      <trkpt lat="47.542126" lon="1.8157114">
        <ele>156.0</ele>
        <time>2021-11-25T08:46:04Z</time>
      </trkpt>
      <trkpt lat="47.542137" lon="1.8157246">
        <ele>156.0</ele>
        <time>2021-11-25T08:46:05Z</time>
      </trkpt>
      <trkpt lat="47.54214" lon="1.8157346">
        <ele>156.0</ele>
        <time>2021-11-25T08:46:06Z</time>
      </trkpt>
      <trkpt lat="47.54215" lon="1.8157452">
        <ele>156.0</ele>
        <time>2021-11-25T08:46:07Z</time>
      </trkpt>
      <trkpt lat="47.542156" lon="1.8157554">
        <ele>156.0</ele>
        <time>2021-11-25T08:46:08Z</time>
      </trkpt>
      <trkpt lat="47.542164" lon="1.8157654">
        <ele>156.0</ele>
        <time>2021-11-25T08:46:09Z</time>
      </trkpt>
      <trkpt lat="47.54217" lon="1.815777">
        <ele>156.0</ele>
        <time>2021-11-25T08:46:10Z</time>
      </trkpt>
      <trkpt lat="47.542183" lon="1.815791">
        <ele>157.0</ele>
        <time>2021-11-25T08:46:11Z</time>
      </trkpt>
      <trkpt lat="47.54219" lon="1.8158065">
        <ele>157.0</ele>
        <time>2021-11-25T08:46:12Z</time>
      </trkpt>
      <trkpt lat="47.5422" lon="1.8158259">
        <ele>157.0</ele>
        <time>2021-11-25T08:46:13Z</time>
      </trkpt>
      <trkpt lat="47.542206" lon="1.815845">
        <ele>157.0</ele>
        <time>2021-11-25T08:46:14Z</time>
      </trkpt>
      <trkpt lat="47.54222" lon="1.8158584">
        <ele>157.0</ele>
        <time>2021-11-25T08:46:15Z</time>
      </trkpt>
      <trkpt lat="47.542233" lon="1.8158641">
        <ele>157.0</ele>
        <time>2021-11-25T08:46:16Z</time>
      </trkpt>
      <trkpt lat="47.54224" lon="1.8158768">
        <ele>157.0</ele>
        <time>2021-11-25T08:46:17Z</time>
      </trkpt>
      <trkpt lat="47.542255" lon="1.8158895">
        <ele>158.0</ele>
        <time>2021-11-25T08:46:18Z</time>
      </trkpt>
      <trkpt lat="47.542263" lon="1.8159012">
        <ele>159.0</ele>
        <time>2021-11-25T08:46:19Z</time>
      </trkpt>
      <trkpt lat="47.542274" lon="1.8159102">
        <ele>159.0</ele>
        <time>2021-11-25T08:46:20Z</time>
      </trkpt>
      <trkpt lat="47.542282" lon="1.8159205">
        <ele>159.0</ele>
        <time>2021-11-25T08:46:21Z</time>
      </trkpt>
      <trkpt lat="47.542294" lon="1.8159221">
        <ele>159.0</ele>
        <time>2021-11-25T08:46:22Z</time>
      </trkpt>
      <trkpt lat="47.542305" lon="1.8159262">
        <ele>159.0</ele>
        <time>2021-11-25T08:46:23Z</time>
      </trkpt>
      <trkpt lat="47.542313" lon="1.815935">
        <ele>159.0</ele>
        <time>2021-11-25T08:46:24Z</time>
      </trkpt>
      <trkpt lat="47.54232" lon="1.8159441">
        <ele>158.0</ele>
        <time>2021-11-25T08:46:25Z</time>
      </trkpt>
      <trkpt lat="47.54233" lon="1.8159599">
        <ele>158.0</ele>
        <time>2021-11-25T08:46:26Z</time>
      </trkpt>
      <trkpt lat="47.54234" lon="1.8159788">
        <ele>158.0</ele>
        <time>2021-11-25T08:46:27Z</time>
      </trkpt>
      <trkpt lat="47.542343" lon="1.8159901">
        <ele>158.0</ele>
        <time>2021-11-25T08:46:28Z</time>
      </trkpt>
      <trkpt lat="47.542347" lon="1.8159943">
        <ele>157.0</ele>
        <time>2021-11-25T08:46:29Z</time>
      </trkpt>
      <trkpt lat="47.54236" lon="1.8160017">
        <ele>157.0</ele>
        <time>2021-11-25T08:46:30Z</time>
      </trkpt>
      <trkpt lat="47.542366" lon="1.8160117">
        <ele>157.0</ele>
        <time>2021-11-25T08:46:31Z</time>
      </trkpt>
      <trkpt lat="47.542377" lon="1.8160217">
        <ele>157.0</ele>
        <time>2021-11-25T08:46:32Z</time>
      </trkpt>
      <trkpt lat="47.54239" lon="1.8160285">
        <ele>157.0</ele>
        <time>2021-11-25T08:46:33Z</time>
      </trkpt>
      <trkpt lat="47.5424" lon="1.8160375">
        <ele>157.0</ele>
        <time>2021-11-25T08:46:34Z</time>
      </trkpt>
      <trkpt lat="47.542408" lon="1.8160442">
        <ele>157.0</ele>
        <time>2021-11-25T08:46:35Z</time>
      </trkpt>
      <trkpt lat="47.542416" lon="1.8160564">
        <ele>157.0</ele>
        <time>2021-11-25T08:46:36Z</time>
      </trkpt>
      <trkpt lat="47.542423" lon="1.816068">
        <ele>157.0</ele>
        <time>2021-11-25T08:46:37Z</time>
      </trkpt>
      <trkpt lat="47.542435" lon="1.8160793">
        <ele>158.0</ele>
        <time>2021-11-25T08:46:38Z</time>
      </trkpt>
      <trkpt lat="47.542442" lon="1.816092">
        <ele>158.0</ele>
        <time>2021-11-25T08:46:39Z</time>
      </trkpt>
      <trkpt lat="47.54245" lon="1.8161021">
        <ele>158.0</ele>
        <time>2021-11-25T08:46:40Z</time>
      </trkpt>
      <trkpt lat="47.542458" lon="1.8161181">
        <ele>158.0</ele>
        <time>2021-11-25T08:46:41Z</time>
      </trkpt>
      <trkpt lat="47.542465" lon="1.8161297">
        <ele>158.0</ele>
        <time>2021-11-25T08:46:42Z</time>
      </trkpt>
      <trkpt lat="47.542473" lon="1.8161398">
        <ele>157.0</ele>
        <time>2021-11-25T08:46:43Z</time>
      </trkpt>
      <trkpt lat="47.54248" lon="1.8161472">
        <ele>157.0</ele>
        <time>2021-11-25T08:46:44Z</time>
      </trkpt>
      <trkpt lat="47.542492" lon="1.8161567">
        <ele>157.0</ele>
        <time>2021-11-25T08:46:45Z</time>
      </trkpt>
      <trkpt lat="47.5425" lon="1.816171">
        <ele>157.0</ele>
        <time>2021-11-25T08:46:46Z</time>
      </trkpt>
      <trkpt lat="47.54251" lon="1.816179">
        <ele>157.0</ele>
        <time>2021-11-25T08:46:47Z</time>
      </trkpt>
      <trkpt lat="47.54252" lon="1.8161895">
        <ele>157.0</ele>
        <time>2021-11-25T08:46:48Z</time>
      </trkpt>
      <trkpt lat="47.542526" lon="1.816199">
        <ele>157.0</ele>
        <time>2021-11-25T08:46:49Z</time>
      </trkpt>
      <trkpt lat="47.542534" lon="1.8162109">
        <ele>157.0</ele>
        <time>2021-11-25T08:46:50Z</time>
      </trkpt>
      <trkpt lat="47.542545" lon="1.8162243">
        <ele>157.0</ele>
        <time>2021-11-25T08:46:51Z</time>
      </trkpt>
      <trkpt lat="47.542553" lon="1.81624">
        <ele>156.0</ele>
        <time>2021-11-25T08:46:52Z</time>
      </trkpt>
      <trkpt lat="47.54256" lon="1.8162526">
        <ele>156.0</ele>
        <time>2021-11-25T08:46:53Z</time>
      </trkpt>
      <trkpt lat="47.542572" lon="1.8162624">
        <ele>156.0</ele>
        <time>2021-11-25T08:46:54Z</time>
      </trkpt>
      <trkpt lat="47.54258" lon="1.8162695">
        <ele>156.0</ele>
        <time>2021-11-25T08:46:55Z</time>
      </trkpt>
      <trkpt lat="47.542587" lon="1.8162798">
        <ele>156.0</ele>
        <time>2021-11-25T08:46:56Z</time>
      </trkpt>
      <trkpt lat="47.542595" lon="1.8162861">
        <ele>156.0</ele>
        <time>2021-11-25T08:46:57Z</time>
      </trkpt>
      <trkpt lat="47.542603" lon="1.8162959">
        <ele>155.0</ele>
        <time>2021-11-25T08:46:58Z</time>
      </trkpt>
      <trkpt lat="47.54261" lon="1.8162979">
        <ele>156.0</ele>
        <time>2021-11-25T08:46:59Z</time>
      </trkpt>
      <trkpt lat="47.54262" lon="1.8163046">
        <ele>156.0</ele>
        <time>2021-11-25T08:47:00Z</time>
      </trkpt>
      <trkpt lat="47.542625" lon="1.8163118">
        <ele>156.0</ele>
        <time>2021-11-25T08:47:01Z</time>
      </trkpt>
      <trkpt lat="47.542633" lon="1.8163195">
        <ele>155.0</ele>
        <time>2021-11-25T08:47:02Z</time>
      </trkpt>
      <trkpt lat="47.542645" lon="1.8163258">
        <ele>155.0</ele>
        <time>2021-11-25T08:47:03Z</time>
      </trkpt>
      <trkpt lat="47.54265" lon="1.8163339">
        <ele>155.0</ele>
        <time>2021-11-25T08:47:04Z</time>
      </trkpt>
      <trkpt lat="47.542656" lon="1.816337">
        <ele>155.0</ele>
        <time>2021-11-25T08:47:05Z</time>
      </trkpt>
      <trkpt lat="47.542664" lon="1.8163441">
        <ele>155.0</ele>
        <time>2021-11-25T08:47:06Z</time>
      </trkpt>
      <trkpt lat="47.542675" lon="1.8163501">
        <ele>155.0</ele>
        <time>2021-11-25T08:47:07Z</time>
      </trkpt>
      <trkpt lat="47.542686" lon="1.8163621">
        <ele>155.0</ele>
        <time>2021-11-25T08:47:08Z</time>
      </trkpt>
      <trkpt lat="47.542698" lon="1.8163741">
        <ele>155.0</ele>
        <time>2021-11-25T08:47:09Z</time>
      </trkpt>
      <trkpt lat="47.542706" lon="1.8163879">
        <ele>154.0</ele>
        <time>2021-11-25T08:47:10Z</time>
      </trkpt>
      <trkpt lat="47.542713" lon="1.8163989">
        <ele>154.0</ele>
        <time>2021-11-25T08:47:11Z</time>
      </trkpt>
      <trkpt lat="47.542725" lon="1.8164103">
        <ele>154.0</ele>
        <time>2021-11-25T08:47:12Z</time>
      </trkpt>
      <trkpt lat="47.542732" lon="1.8164239">
        <ele>154.0</ele>
        <time>2021-11-25T08:47:13Z</time>
      </trkpt>
      <trkpt lat="47.542744" lon="1.8164347">
        <ele>154.0</ele>
        <time>2021-11-25T08:47:14Z</time>
      </trkpt>
      <trkpt lat="47.542755" lon="1.8164487">
        <ele>154.0</ele>
        <time>2021-11-25T08:47:15Z</time>
      </trkpt>
      <trkpt lat="47.542767" lon="1.8164564">
        <ele>154.0</ele>
        <time>2021-11-25T08:47:16Z</time>
      </trkpt>
      <trkpt lat="47.542778" lon="1.81647">
        <ele>154.0</ele>
        <time>2021-11-25T08:47:17Z</time>
      </trkpt>
      <trkpt lat="47.54279" lon="1.8164836">
        <ele>154.0</ele>
        <time>2021-11-25T08:47:18Z</time>
      </trkpt>
      <trkpt lat="47.5428" lon="1.8164909">
        <ele>154.0</ele>
        <time>2021-11-25T08:47:19Z</time>
      </trkpt>
      <trkpt lat="47.542812" lon="1.816496">
        <ele>154.0</ele>
        <time>2021-11-25T08:47:20Z</time>
      </trkpt>
      <trkpt lat="47.54282" lon="1.8165071">
        <ele>154.0</ele>
        <time>2021-11-25T08:47:21Z</time>
      </trkpt>
      <trkpt lat="47.542824" lon="1.8165234">
        <ele>154.0</ele>
        <time>2021-11-25T08:47:22Z</time>
      </trkpt>
      <trkpt lat="47.542835" lon="1.816532">
        <ele>154.0</ele>
        <time>2021-11-25T08:47:23Z</time>
      </trkpt>
      <trkpt lat="47.542847" lon="1.8165361">
        <ele>154.0</ele>
        <time>2021-11-25T08:47:24Z</time>
      </trkpt>
      <trkpt lat="47.542854" lon="1.8165488">
        <ele>154.0</ele>
        <time>2021-11-25T08:47:25Z</time>
      </trkpt>
      <trkpt lat="47.542862" lon="1.8165579">
        <ele>154.0</ele>
        <time>2021-11-25T08:47:26Z</time>
      </trkpt>
      <trkpt lat="47.54287" lon="1.8165692">
        <ele>154.0</ele>
        <time>2021-11-25T08:47:27Z</time>
      </trkpt>
      <trkpt lat="47.542873" lon="1.81658">
        <ele>154.0</ele>
        <time>2021-11-25T08:47:28Z</time>
      </trkpt>
      <trkpt lat="47.54288" lon="1.8165905">
        <ele>154.0</ele>
        <time>2021-11-25T08:47:29Z</time>
      </trkpt>
      <trkpt lat="47.542896" lon="1.8165973">
        <ele>154.0</ele>
        <time>2021-11-25T08:47:30Z</time>
      </trkpt>
      <trkpt lat="47.542904" lon="1.8166056">
        <ele>154.0</ele>
        <time>2021-11-25T08:47:31Z</time>
      </trkpt>
      <trkpt lat="47.542904" lon="1.8166152">
        <ele>154.0</ele>
        <time>2021-11-25T08:47:32Z</time>
      </trkpt>
      <trkpt lat="47.542908" lon="1.8166249">
        <ele>153.0</ele>
        <time>2021-11-25T08:47:33Z</time>
      </trkpt>
      <trkpt lat="47.542915" lon="1.8166353">
        <ele>153.0</ele>
        <time>2021-11-25T08:47:34Z</time>
      </trkpt>
      <trkpt lat="47.542923" lon="1.8166522">
        <ele>154.0</ele>
        <time>2021-11-25T08:47:35Z</time>
      </trkpt>
      <trkpt lat="47.542934" lon="1.8166621">
        <ele>154.0</ele>
        <time>2021-11-25T08:47:36Z</time>
      </trkpt>
      <trkpt lat="47.542942" lon="1.8166741">
        <ele>154.0</ele>
        <time>2021-11-25T08:47:37Z</time>
      </trkpt>
      <trkpt lat="47.542946" lon="1.8166847">
        <ele>154.0</ele>
        <time>2021-11-25T08:47:38Z</time>
      </trkpt>
      <trkpt lat="47.542957" lon="1.8166943">
        <ele>154.0</ele>
        <time>2021-11-25T08:47:39Z</time>
      </trkpt>
      <trkpt lat="47.542965" lon="1.8167046">
        <ele>154.0</ele>
        <time>2021-11-25T08:47:40Z</time>
      </trkpt>
      <trkpt lat="47.542973" lon="1.8167161">
        <ele>154.0</ele>
        <time>2021-11-25T08:47:41Z</time>
      </trkpt>
      <trkpt lat="47.54298" lon="1.8167275">
        <ele>154.0</ele>
        <time>2021-11-25T08:47:42Z</time>
      </trkpt>
      <trkpt lat="47.542988" lon="1.8167351">
        <ele>154.0</ele>
        <time>2021-11-25T08:47:43Z</time>
      </trkpt>
      <trkpt lat="47.542995" lon="1.816745">
        <ele>154.0</ele>
        <time>2021-11-25T08:47:44Z</time>
      </trkpt>
      <trkpt lat="47.543003" lon="1.8167543">
        <ele>154.0</ele>
        <time>2021-11-25T08:47:45Z</time>
      </trkpt>
      <trkpt lat="47.543015" lon="1.8167597">
        <ele>154.0</ele>
        <time>2021-11-25T08:47:46Z</time>
      </trkpt>
      <trkpt lat="47.543022" lon="1.8167698">
        <ele>154.0</ele>
        <time>2021-11-25T08:47:47Z</time>
      </trkpt>
      <trkpt lat="47.543034" lon="1.8167828">
        <ele>154.0</ele>
        <time>2021-11-25T08:47:48Z</time>
      </trkpt>
      <trkpt lat="47.54304" lon="1.8167934">
        <ele>154.0</ele>
        <time>2021-11-25T08:47:49Z</time>
      </trkpt>
      <trkpt lat="47.543053" lon="1.8168032">
        <ele>153.0</ele>
        <time>2021-11-25T08:47:50Z</time>
      </trkpt>
      <trkpt lat="47.54306" lon="1.816819">
        <ele>153.0</ele>
        <time>2021-11-25T08:47:51Z</time>
      </trkpt>
      <trkpt lat="47.543068" lon="1.8168312">
        <ele>153.0</ele>
        <time>2021-11-25T08:47:52Z</time>
      </trkpt>
      <trkpt lat="47.543076" lon="1.8168417">
        <ele>153.0</ele>
        <time>2021-11-25T08:47:53Z</time>
      </trkpt>
      <trkpt lat="47.543087" lon="1.8168523">
        <ele>153.0</ele>
        <time>2021-11-25T08:47:54Z</time>
      </trkpt>
      <trkpt lat="47.543095" lon="1.816864">
        <ele>153.0</ele>
        <time>2021-11-25T08:47:55Z</time>
      </trkpt>
      <trkpt lat="47.543102" lon="1.8168703">
        <ele>153.0</ele>
        <time>2021-11-25T08:47:56Z</time>
      </trkpt>
      <trkpt lat="47.543114" lon="1.8168797">
        <ele>153.0</ele>
        <time>2021-11-25T08:47:57Z</time>
      </trkpt>
      <trkpt lat="47.54312" lon="1.8168895">
        <ele>153.0</ele>
        <time>2021-11-25T08:47:58Z</time>
      </trkpt>
      <trkpt lat="47.54313" lon="1.8168955">
        <ele>153.0</ele>
        <time>2021-11-25T08:47:59Z</time>
      </trkpt>
      <trkpt lat="47.543133" lon="1.8169043">
        <ele>153.0</ele>
        <time>2021-11-25T08:48:00Z</time>
      </trkpt>
      <trkpt lat="47.543144" lon="1.8169075">
        <ele>152.0</ele>
        <time>2021-11-25T08:48:01Z</time>
      </trkpt>
      <trkpt lat="47.543156" lon="1.8169184">
        <ele>152.0</ele>
        <time>2021-11-25T08:48:02Z</time>
      </trkpt>
      <trkpt lat="47.543163" lon="1.8169312">
        <ele>152.0</ele>
        <time>2021-11-25T08:48:03Z</time>
      </trkpt>
      <trkpt lat="47.543175" lon="1.8169448">
        <ele>153.0</ele>
        <time>2021-11-25T08:48:04Z</time>
      </trkpt>
      <trkpt lat="47.543182" lon="1.816953">
        <ele>153.0</ele>
        <time>2021-11-25T08:48:05Z</time>
      </trkpt>
      <trkpt lat="47.54319" lon="1.8169621">
        <ele>153.0</ele>
        <time>2021-11-25T08:48:06Z</time>
      </trkpt>
      <trkpt lat="47.5432" lon="1.8169698">
        <ele>154.0</ele>
        <time>2021-11-25T08:48:07Z</time>
      </trkpt>
      <trkpt lat="47.54321" lon="1.8169785">
        <ele>154.0</ele>
        <time>2021-11-25T08:48:08Z</time>
      </trkpt>
      <trkpt lat="47.543217" lon="1.8169886">
        <ele>153.0</ele>
        <time>2021-11-25T08:48:09Z</time>
      </trkpt>
      <trkpt lat="47.543224" lon="1.8169997">
        <ele>154.0</ele>
        <time>2021-11-25T08:48:10Z</time>
      </trkpt>
      <trkpt lat="47.543236" lon="1.8170066">
        <ele>153.0</ele>
        <time>2021-11-25T08:48:11Z</time>
      </trkpt>
      <trkpt lat="47.543243" lon="1.8170172">
        <ele>153.0</ele>
        <time>2021-11-25T08:48:12Z</time>
      </trkpt>
      <trkpt lat="47.543255" lon="1.817026">
        <ele>153.0</ele>
        <time>2021-11-25T08:48:13Z</time>
      </trkpt>
      <trkpt lat="47.543262" lon="1.8170378">
        <ele>153.0</ele>
        <time>2021-11-25T08:48:14Z</time>
      </trkpt>
      <trkpt lat="47.54327" lon="1.817052">
        <ele>153.0</ele>
        <time>2021-11-25T08:48:15Z</time>
      </trkpt>
      <trkpt lat="47.543274" lon="1.817064">
        <ele>153.0</ele>
        <time>2021-11-25T08:48:16Z</time>
      </trkpt>
      <trkpt lat="47.54328" lon="1.8170758">
        <ele>152.0</ele>
        <time>2021-11-25T08:48:17Z</time>
      </trkpt>
      <trkpt lat="47.543293" lon="1.817086">
        <ele>153.0</ele>
        <time>2021-11-25T08:48:18Z</time>
      </trkpt>
      <trkpt lat="47.5433" lon="1.8170936">
        <ele>153.0</ele>
        <time>2021-11-25T08:48:19Z</time>
      </trkpt>
      <trkpt lat="47.543312" lon="1.8171039">
        <ele>153.0</ele>
        <time>2021-11-25T08:48:20Z</time>
      </trkpt>
      <trkpt lat="47.54332" lon="1.8171166">
        <ele>153.0</ele>
        <time>2021-11-25T08:48:21Z</time>
      </trkpt>
      <trkpt lat="47.543327" lon="1.8171258">
        <ele>153.0</ele>
        <time>2021-11-25T08:48:22Z</time>
      </trkpt>
      <trkpt lat="47.543335" lon="1.8171352">
        <ele>152.0</ele>
        <time>2021-11-25T08:48:23Z</time>
      </trkpt>
      <trkpt lat="47.543343" lon="1.8171414">
        <ele>152.0</ele>
        <time>2021-11-25T08:48:24Z</time>
      </trkpt>
      <trkpt lat="47.54335" lon="1.8171488">
        <ele>152.0</ele>
        <time>2021-11-25T08:48:25Z</time>
      </trkpt>
      <trkpt lat="47.543354" lon="1.817158">
        <ele>152.0</ele>
        <time>2021-11-25T08:48:26Z</time>
      </trkpt>
      <trkpt lat="47.54336" lon="1.8171705">
        <ele>152.0</ele>
        <time>2021-11-25T08:48:27Z</time>
      </trkpt>
      <trkpt lat="47.54337" lon="1.8171834">
        <ele>152.0</ele>
        <time>2021-11-25T08:48:28Z</time>
      </trkpt>
      <trkpt lat="47.543377" lon="1.8171967">
        <ele>152.0</ele>
        <time>2021-11-25T08:48:29Z</time>
      </trkpt>
      <trkpt lat="47.54338" lon="1.8172072">
        <ele>151.0</ele>
        <time>2021-11-25T08:48:30Z</time>
      </trkpt>
      <trkpt lat="47.54339" lon="1.817217">
        <ele>152.0</ele>
        <time>2021-11-25T08:48:31Z</time>
      </trkpt>
      <trkpt lat="47.543396" lon="1.8172255">
        <ele>151.0</ele>
        <time>2021-11-25T08:48:32Z</time>
      </trkpt>
      <trkpt lat="47.5434" lon="1.817238">
        <ele>152.0</ele>
        <time>2021-11-25T08:48:33Z</time>
      </trkpt>
      <trkpt lat="47.543407" lon="1.8172455">
        <ele>151.0</ele>
        <time>2021-11-25T08:48:34Z</time>
      </trkpt>
      <trkpt lat="47.54342" lon="1.8172538">
        <ele>151.0</ele>
        <time>2021-11-25T08:48:35Z</time>
      </trkpt>
      <trkpt lat="47.543423" lon="1.8172649">
        <ele>151.0</ele>
        <time>2021-11-25T08:48:36Z</time>
      </trkpt>
      <trkpt lat="47.54343" lon="1.8172767">
        <ele>150.0</ele>
        <time>2021-11-25T08:48:37Z</time>
      </trkpt>
      <trkpt lat="47.54344" lon="1.8172851">
        <ele>150.0</ele>
        <time>2021-11-25T08:48:38Z</time>
      </trkpt>
      <trkpt lat="47.543453" lon="1.8172951">
        <ele>150.0</ele>
        <time>2021-11-25T08:48:39Z</time>
      </trkpt>
      <trkpt lat="47.54346" lon="1.8173034">
        <ele>150.0</ele>
        <time>2021-11-25T08:48:40Z</time>
      </trkpt>
      <trkpt lat="47.543472" lon="1.8173133">
        <ele>150.0</ele>
        <time>2021-11-25T08:48:41Z</time>
      </trkpt>
      <trkpt lat="47.54348" lon="1.8173244">
        <ele>150.0</ele>
        <time>2021-11-25T08:48:42Z</time>
      </trkpt>
      <trkpt lat="47.54349" lon="1.8173323">
        <ele>150.0</ele>
        <time>2021-11-25T08:48:43Z</time>
      </trkpt>
      <trkpt lat="47.54349" lon="1.8173329">
        <ele>149.0</ele>
        <time>2021-11-25T08:48:44Z</time>
      </trkpt>
      <trkpt lat="47.543495" lon="1.8173357">
        <ele>149.0</ele>
        <time>2021-11-25T08:48:45Z</time>
      </trkpt>
      <trkpt lat="47.5435" lon="1.8173422">
        <ele>149.0</ele>
        <time>2021-11-25T08:48:46Z</time>
      </trkpt>
      <trkpt lat="47.543507" lon="1.8173565">
        <ele>149.0</ele>
        <time>2021-11-25T08:48:47Z</time>
      </trkpt>
      <trkpt lat="47.54351" lon="1.817375">
        <ele>149.0</ele>
        <time>2021-11-25T08:48:48Z</time>
      </trkpt>
      <trkpt lat="47.543518" lon="1.8173947">
        <ele>149.0</ele>
        <time>2021-11-25T08:48:49Z</time>
      </trkpt>
      <trkpt lat="47.543526" lon="1.8174127">
        <ele>148.0</ele>
        <time>2021-11-25T08:48:50Z</time>
      </trkpt>
      <trkpt lat="47.543537" lon="1.817432">
        <ele>149.0</ele>
        <time>2021-11-25T08:48:51Z</time>
      </trkpt>
      <trkpt lat="47.543545" lon="1.8174489">
        <ele>149.0</ele>
        <time>2021-11-25T08:48:52Z</time>
      </trkpt>
      <trkpt lat="47.543556" lon="1.817464">
        <ele>148.0</ele>
        <time>2021-11-25T08:48:53Z</time>
      </trkpt>
      <trkpt lat="47.54356" lon="1.8174748">
        <ele>148.0</ele>
        <time>2021-11-25T08:48:54Z</time>
      </trkpt>
      <trkpt lat="47.54357" lon="1.8174888">
        <ele>148.0</ele>
        <time>2021-11-25T08:48:55Z</time>
      </trkpt>
      <trkpt lat="47.54358" lon="1.8175013">
        <ele>148.0</ele>
        <time>2021-11-25T08:48:56Z</time>
      </trkpt>
      <trkpt lat="47.543587" lon="1.8175193">
        <ele>148.0</ele>
        <time>2021-11-25T08:48:57Z</time>
      </trkpt>
      <trkpt lat="47.5436" lon="1.8175333">
        <ele>148.0</ele>
        <time>2021-11-25T08:48:58Z</time>
      </trkpt>
      <trkpt lat="47.543602" lon="1.8175473">
        <ele>148.0</ele>
        <time>2021-11-25T08:48:59Z</time>
      </trkpt>
      <trkpt lat="47.54361" lon="1.817565">
        <ele>148.0</ele>
        <time>2021-11-25T08:49:00Z</time>
      </trkpt>
      <trkpt lat="47.543617" lon="1.817578">
        <ele>148.0</ele>
        <time>2021-11-25T08:49:01Z</time>
      </trkpt>
      <trkpt lat="47.543625" lon="1.8175906">
        <ele>148.0</ele>
        <time>2021-11-25T08:49:02Z</time>
      </trkpt>
      <trkpt lat="47.543633" lon="1.8176019">
        <ele>148.0</ele>
        <time>2021-11-25T08:49:03Z</time>
      </trkpt>
      <trkpt lat="47.543644" lon="1.8176152">
        <ele>149.0</ele>
        <time>2021-11-25T08:49:04Z</time>
      </trkpt>
      <trkpt lat="47.54365" lon="1.8176275">
        <ele>149.0</ele>
        <time>2021-11-25T08:49:05Z</time>
      </trkpt>
      <trkpt lat="47.543663" lon="1.8176434">
        <ele>149.0</ele>
        <time>2021-11-25T08:49:06Z</time>
      </trkpt>
      <trkpt lat="47.54367" lon="1.8176583">
        <ele>148.0</ele>
        <time>2021-11-25T08:49:07Z</time>
      </trkpt>
      <trkpt lat="47.543682" lon="1.8176686">
        <ele>148.0</ele>
        <time>2021-11-25T08:49:08Z</time>
      </trkpt>
      <trkpt lat="47.543694" lon="1.8176837">
        <ele>148.0</ele>
        <time>2021-11-25T08:49:09Z</time>
      </trkpt>
      <trkpt lat="47.543697" lon="1.8176956">
        <ele>148.0</ele>
        <time>2021-11-25T08:49:10Z</time>
      </trkpt>
      <trkpt lat="47.543705" lon="1.8177067">
        <ele>148.0</ele>
        <time>2021-11-25T08:49:11Z</time>
      </trkpt>
      <trkpt lat="47.543713" lon="1.8177156">
        <ele>148.0</ele>
        <time>2021-11-25T08:49:12Z</time>
      </trkpt>
      <trkpt lat="47.543724" lon="1.8177259">
        <ele>148.0</ele>
        <time>2021-11-25T08:49:13Z</time>
      </trkpt>
      <trkpt lat="47.54373" lon="1.8177361">
        <ele>148.0</ele>
        <time>2021-11-25T08:49:14Z</time>
      </trkpt>
      <trkpt lat="47.54374" lon="1.8177463">
        <ele>148.0</ele>
        <time>2021-11-25T08:49:15Z</time>
      </trkpt>
      <trkpt lat="47.543743" lon="1.8177552">
        <ele>147.0</ele>
        <time>2021-11-25T08:49:16Z</time>
      </trkpt>
      <trkpt lat="47.543747" lon="1.8177629">
        <ele>148.0</ele>
        <time>2021-11-25T08:49:17Z</time>
      </trkpt>
      <trkpt lat="47.543747" lon="1.817762">
        <ele>147.0</ele>
        <time>2021-11-25T08:49:18Z</time>
      </trkpt>
      <trkpt lat="47.54375" lon="1.8177669">
        <ele>148.0</ele>
        <time>2021-11-25T08:49:19Z</time>
      </trkpt>
      <trkpt lat="47.54376" lon="1.8177757">
        <ele>148.0</ele>
        <time>2021-11-25T08:49:20Z</time>
      </trkpt>
      <trkpt lat="47.54377" lon="1.8177884">
        <ele>148.0</ele>
        <time>2021-11-25T08:49:21Z</time>
      </trkpt>
      <trkpt lat="47.543777" lon="1.8177983">
        <ele>148.0</ele>
        <time>2021-11-25T08:49:22Z</time>
      </trkpt>
      <trkpt lat="47.54379" lon="1.817809">
        <ele>149.0</ele>
        <time>2021-11-25T08:49:23Z</time>
      </trkpt>
      <trkpt lat="47.5438" lon="1.8178209">
        <ele>149.0</ele>
        <time>2021-11-25T08:49:24Z</time>
      </trkpt>
      <trkpt lat="47.54381" lon="1.8178289">
        <ele>149.0</ele>
        <time>2021-11-25T08:49:25Z</time>
      </trkpt>
      <trkpt lat="47.543816" lon="1.817835">
        <ele>149.0</ele>
        <time>2021-11-25T08:49:26Z</time>
      </trkpt>
      <trkpt lat="47.543823" lon="1.8178461">
        <ele>149.0</ele>
        <time>2021-11-25T08:49:27Z</time>
      </trkpt>
      <trkpt lat="47.54383" lon="1.8178586">
        <ele>148.0</ele>
        <time>2021-11-25T08:49:28Z</time>
      </trkpt>
      <trkpt lat="47.543835" lon="1.8178688">
        <ele>148.0</ele>
        <time>2021-11-25T08:49:29Z</time>
      </trkpt>
      <trkpt lat="47.543846" lon="1.8178784">
        <ele>148.0</ele>
        <time>2021-11-25T08:49:30Z</time>
      </trkpt>
      <trkpt lat="47.543854" lon="1.8178942">
        <ele>148.0</ele>
        <time>2021-11-25T08:49:31Z</time>
      </trkpt>
      <trkpt lat="47.54386" lon="1.8179121">
        <ele>148.0</ele>
        <time>2021-11-25T08:49:32Z</time>
      </trkpt>
      <trkpt lat="47.543865" lon="1.817926">
        <ele>148.0</ele>
        <time>2021-11-25T08:49:33Z</time>
      </trkpt>
      <trkpt lat="47.54387" lon="1.8179387">
        <ele>148.0</ele>
        <time>2021-11-25T08:49:34Z</time>
      </trkpt>
      <trkpt lat="47.543877" lon="1.8179492">
        <ele>149.0</ele>
        <time>2021-11-25T08:49:35Z</time>
      </trkpt>
      <trkpt lat="47.543884" lon="1.8179601">
        <ele>148.0</ele>
        <time>2021-11-25T08:49:36Z</time>
      </trkpt>
      <trkpt lat="47.54389" lon="1.8179669">
        <ele>148.0</ele>
        <time>2021-11-25T08:49:37Z</time>
      </trkpt>
      <trkpt lat="47.5439" lon="1.8179799">
        <ele>148.0</ele>
        <time>2021-11-25T08:49:38Z</time>
      </trkpt>
      <trkpt lat="47.543907" lon="1.8179876">
        <ele>149.0</ele>
        <time>2021-11-25T08:49:39Z</time>
      </trkpt>
      <trkpt lat="47.543915" lon="1.817995">
        <ele>148.0</ele>
        <time>2021-11-25T08:49:40Z</time>
      </trkpt>
      <trkpt lat="47.543926" lon="1.8180037">
        <ele>148.0</ele>
        <time>2021-11-25T08:49:41Z</time>
      </trkpt>
      <trkpt lat="47.543934" lon="1.8180183">
        <ele>148.0</ele>
        <time>2021-11-25T08:49:42Z</time>
      </trkpt>
      <trkpt lat="47.543945" lon="1.81803">
        <ele>147.0</ele>
        <time>2021-11-25T08:49:43Z</time>
      </trkpt>
      <trkpt lat="47.543957" lon="1.818044">
        <ele>148.0</ele>
        <time>2021-11-25T08:49:44Z</time>
      </trkpt>
      <trkpt lat="47.54397" lon="1.818055">
        <ele>148.0</ele>
        <time>2021-11-25T08:49:45Z</time>
      </trkpt>
      <trkpt lat="47.54398" lon="1.8180603">
        <ele>148.0</ele>
        <time>2021-11-25T08:49:46Z</time>
      </trkpt>
      <trkpt lat="47.54399" lon="1.8180686">
        <ele>147.0</ele>
        <time>2021-11-25T08:49:47Z</time>
      </trkpt>
      <trkpt lat="47.544" lon="1.818081">
        <ele>147.0</ele>
        <time>2021-11-25T08:49:48Z</time>
      </trkpt>
      <trkpt lat="47.544006" lon="1.8180932">
        <ele>147.0</ele>
        <time>2021-11-25T08:49:49Z</time>
      </trkpt>
      <trkpt lat="47.544018" lon="1.8181086">
        <ele>148.0</ele>
        <time>2021-11-25T08:49:50Z</time>
      </trkpt>
      <trkpt lat="47.544025" lon="1.8181175">
        <ele>148.0</ele>
        <time>2021-11-25T08:49:51Z</time>
      </trkpt>
      <trkpt lat="47.544033" lon="1.818128">
        <ele>148.0</ele>
        <time>2021-11-25T08:49:52Z</time>
      </trkpt>
      <trkpt lat="47.54404" lon="1.8181353">
        <ele>148.0</ele>
        <time>2021-11-25T08:49:53Z</time>
      </trkpt>
      <trkpt lat="47.54405" lon="1.8181429">
        <ele>148.0</ele>
        <time>2021-11-25T08:49:54Z</time>
      </trkpt>
      <trkpt lat="47.54406" lon="1.8181522">
        <ele>148.0</ele>
        <time>2021-11-25T08:49:55Z</time>
      </trkpt>
      <trkpt lat="47.54407" lon="1.8181632">
        <ele>148.0</ele>
        <time>2021-11-25T08:49:56Z</time>
      </trkpt>
      <trkpt lat="47.54408" lon="1.8181726">
        <ele>149.0</ele>
        <time>2021-11-25T08:49:57Z</time>
      </trkpt>
      <trkpt lat="47.544086" lon="1.8181852">
        <ele>149.0</ele>
        <time>2021-11-25T08:49:58Z</time>
      </trkpt>
      <trkpt lat="47.544098" lon="1.8181937">
        <ele>150.0</ele>
        <time>2021-11-25T08:49:59Z</time>
      </trkpt>
      <trkpt lat="47.5441" lon="1.8182">
        <ele>149.0</ele>
        <time>2021-11-25T08:50:00Z</time>
      </trkpt>
      <trkpt lat="47.54411" lon="1.8182085">
        <ele>149.0</ele>
        <time>2021-11-25T08:50:01Z</time>
      </trkpt>
      <trkpt lat="47.54412" lon="1.8182156">
        <ele>149.0</ele>
        <time>2021-11-25T08:50:02Z</time>
      </trkpt>
      <trkpt lat="47.54413" lon="1.8182274">
        <ele>149.0</ele>
        <time>2021-11-25T08:50:03Z</time>
      </trkpt>
      <trkpt lat="47.54414" lon="1.8182366">
        <ele>149.0</ele>
        <time>2021-11-25T08:50:04Z</time>
      </trkpt>
      <trkpt lat="47.544147" lon="1.8182461">
        <ele>148.0</ele>
        <time>2021-11-25T08:50:05Z</time>
      </trkpt>
      <trkpt lat="47.54416" lon="1.8182547">
        <ele>148.0</ele>
        <time>2021-11-25T08:50:06Z</time>
      </trkpt>
      <trkpt lat="47.544167" lon="1.8182684">
        <ele>148.0</ele>
        <time>2021-11-25T08:50:07Z</time>
      </trkpt>
      <trkpt lat="47.544174" lon="1.8182775">
        <ele>148.0</ele>
        <time>2021-11-25T08:50:08Z</time>
      </trkpt>
      <trkpt lat="47.54418" lon="1.8182896">
        <ele>148.0</ele>
        <time>2021-11-25T08:50:09Z</time>
      </trkpt>
      <trkpt lat="47.544193" lon="1.8183016">
        <ele>149.0</ele>
        <time>2021-11-25T08:50:10Z</time>
      </trkpt>
      <trkpt lat="47.54421" lon="1.8183105">
        <ele>149.0</ele>
        <time>2021-11-25T08:50:11Z</time>
      </trkpt>
      <trkpt lat="47.544216" lon="1.8183211">
        <ele>149.0</ele>
        <time>2021-11-25T08:50:12Z</time>
      </trkpt>
      <trkpt lat="47.544224" lon="1.818324">
        <ele>149.0</ele>
        <time>2021-11-25T08:50:13Z</time>
      </trkpt>
      <trkpt lat="47.54423" lon="1.8183304">
        <ele>149.0</ele>
        <time>2021-11-25T08:50:14Z</time>
      </trkpt>
      <trkpt lat="47.544243" lon="1.8183395">
        <ele>149.0</ele>
        <time>2021-11-25T08:50:15Z</time>
      </trkpt>
      <trkpt lat="47.544254" lon="1.8183521">
        <ele>149.0</ele>
        <time>2021-11-25T08:50:16Z</time>
      </trkpt>
      <trkpt lat="47.544266" lon="1.8183659">
        <ele>150.0</ele>
        <time>2021-11-25T08:50:17Z</time>
      </trkpt>
      <trkpt lat="47.544273" lon="1.8183746">
        <ele>150.0</ele>
        <time>2021-11-25T08:50:18Z</time>
      </trkpt>
      <trkpt lat="47.54428" lon="1.818384">
        <ele>150.0</ele>
        <time>2021-11-25T08:50:19Z</time>
      </trkpt>
      <trkpt lat="47.54428" lon="1.818384">
        <ele>150.0</ele>
        <time>2021-11-25T08:50:20Z</time>
      </trkpt>
      <trkpt lat="47.54428" lon="1.818384">
        <ele>150.0</ele>
        <time>2021-11-25T08:50:21Z</time>
      </trkpt>
      <trkpt lat="47.544292" lon="1.8183943">
        <ele>150.0</ele>
        <time>2021-11-25T08:50:22Z</time>
      </trkpt>
      <trkpt lat="47.544296" lon="1.8184011">
        <ele>150.0</ele>
        <time>2021-11-25T08:50:23Z</time>
      </trkpt>
      <trkpt lat="47.544308" lon="1.818408">
        <ele>150.0</ele>
        <time>2021-11-25T08:50:24Z</time>
      </trkpt>
      <trkpt lat="47.544315" lon="1.8184165">
        <ele>150.0</ele>
        <time>2021-11-25T08:50:25Z</time>
      </trkpt>
      <trkpt lat="47.544323" lon="1.8184255">
        <ele>150.0</ele>
        <time>2021-11-25T08:50:26Z</time>
      </trkpt>
      <trkpt lat="47.54433" lon="1.8184348">
        <ele>149.0</ele>
        <time>2021-11-25T08:50:27Z</time>
      </trkpt>
      <trkpt lat="47.544342" lon="1.818443">
        <ele>149.0</ele>
        <time>2021-11-25T08:50:28Z</time>
      </trkpt>
      <trkpt lat="47.544353" lon="1.818453">
        <ele>149.0</ele>
        <time>2021-11-25T08:50:29Z</time>
      </trkpt>
      <trkpt lat="47.544365" lon="1.818464">
        <ele>150.0</ele>
        <time>2021-11-25T08:50:30Z</time>
      </trkpt>
      <trkpt lat="47.544376" lon="1.8184738">
        <ele>150.0</ele>
        <time>2021-11-25T08:50:31Z</time>
      </trkpt>
      <trkpt lat="47.544388" lon="1.8184859">
        <ele>150.0</ele>
        <time>2021-11-25T08:50:32Z</time>
      </trkpt>
      <trkpt lat="47.5444" lon="1.8184986">
        <ele>150.0</ele>
        <time>2021-11-25T08:50:33Z</time>
      </trkpt>
      <trkpt lat="47.544407" lon="1.8185141">
        <ele>150.0</ele>
        <time>2021-11-25T08:50:34Z</time>
      </trkpt>
      <trkpt lat="47.54442" lon="1.8185251">
        <ele>150.0</ele>
        <time>2021-11-25T08:50:35Z</time>
      </trkpt>
      <trkpt lat="47.54443" lon="1.8185322">
        <ele>150.0</ele>
        <time>2021-11-25T08:50:36Z</time>
      </trkpt>
      <trkpt lat="47.54444" lon="1.8185471">
        <ele>151.0</ele>
        <time>2021-11-25T08:50:37Z</time>
      </trkpt>
      <trkpt lat="47.544453" lon="1.8185605">
        <ele>151.0</ele>
        <time>2021-11-25T08:50:38Z</time>
      </trkpt>
      <trkpt lat="47.54446" lon="1.8185756">
        <ele>152.0</ele>
        <time>2021-11-25T08:50:39Z</time>
      </trkpt>
      <trkpt lat="47.54447" lon="1.818587">
        <ele>152.0</ele>
        <time>2021-11-25T08:50:40Z</time>
      </trkpt>
      <trkpt lat="47.54448" lon="1.818598">
        <ele>152.0</ele>
        <time>2021-11-25T08:50:41Z</time>
      </trkpt>
      <trkpt lat="47.54448" lon="1.818598">
        <ele>152.0</ele>
        <time>2021-11-25T08:50:42Z</time>
      </trkpt>
      <trkpt lat="47.54448" lon="1.818598">
        <ele>152.0</ele>
        <time>2021-11-25T08:50:43Z</time>
      </trkpt>
      <trkpt lat="47.544502" lon="1.8186246">
        <ele>153.0</ele>
        <time>2021-11-25T08:50:44Z</time>
      </trkpt>
      <trkpt lat="47.54451" lon="1.8186318">
        <ele>153.0</ele>
        <time>2021-11-25T08:50:45Z</time>
      </trkpt>
      <trkpt lat="47.54452" lon="1.8186326">
        <ele>153.0</ele>
        <time>2021-11-25T08:50:46Z</time>
      </trkpt>
      <trkpt lat="47.54453" lon="1.8186367">
        <ele>153.0</ele>
        <time>2021-11-25T08:50:47Z</time>
      </trkpt>
      <trkpt lat="47.54453" lon="1.8186367">
        <ele>153.0</ele>
        <time>2021-11-25T08:50:48Z</time>
      </trkpt>
      <trkpt lat="47.54453" lon="1.8186367">
        <ele>153.0</ele>
        <time>2021-11-25T08:50:49Z</time>
      </trkpt>
      <trkpt lat="47.544548" lon="1.8186656">
        <ele>153.0</ele>
        <time>2021-11-25T08:50:50Z</time>
      </trkpt>
      <trkpt lat="47.544556" lon="1.8186744">
        <ele>153.0</ele>
        <time>2021-11-25T08:50:51Z</time>
      </trkpt>
      <trkpt lat="47.54456" lon="1.818686">
        <ele>153.0</ele>
        <time>2021-11-25T08:50:52Z</time>
      </trkpt>
      <trkpt lat="47.544567" lon="1.8186938">
        <ele>154.0</ele>
        <time>2021-11-25T08:50:53Z</time>
      </trkpt>
      <trkpt lat="47.544575" lon="1.8187032">
        <ele>154.0</ele>
        <time>2021-11-25T08:50:54Z</time>
      </trkpt>
      <trkpt lat="47.544582" lon="1.8187119">
        <ele>154.0</ele>
        <time>2021-11-25T08:50:55Z</time>
      </trkpt>
      <trkpt lat="47.54459" lon="1.818719">
        <ele>154.0</ele>
        <time>2021-11-25T08:50:56Z</time>
      </trkpt>
      <trkpt lat="47.544598" lon="1.8187296">
        <ele>154.0</ele>
        <time>2021-11-25T08:50:57Z</time>
      </trkpt>
      <trkpt lat="47.544605" lon="1.8187429">
        <ele>154.0</ele>
        <time>2021-11-25T08:50:58Z</time>
      </trkpt>
      <trkpt lat="47.544613" lon="1.8187588">
        <ele>155.0</ele>
        <time>2021-11-25T08:50:59Z</time>
      </trkpt>
      <trkpt lat="47.54462" lon="1.818767">
        <ele>155.0</ele>
        <time>2021-11-25T08:51:00Z</time>
      </trkpt>
      <trkpt lat="47.544624" lon="1.8187766">
        <ele>154.0</ele>
        <time>2021-11-25T08:51:01Z</time>
      </trkpt>
      <trkpt lat="47.544632" lon="1.8187858">
        <ele>154.0</ele>
        <time>2021-11-25T08:51:02Z</time>
      </trkpt>
      <trkpt lat="47.544643" lon="1.8187951">
        <ele>154.0</ele>
        <time>2021-11-25T08:51:03Z</time>
      </trkpt>
      <trkpt lat="47.54465" lon="1.8188015">
        <ele>154.0</ele>
        <time>2021-11-25T08:51:04Z</time>
      </trkpt>
      <trkpt lat="47.54465" lon="1.8188015">
        <ele>154.0</ele>
        <time>2021-11-25T08:51:05Z</time>
      </trkpt>
      <trkpt lat="47.54465" lon="1.8188015">
        <ele>154.0</ele>
        <time>2021-11-25T08:51:06Z</time>
      </trkpt>
      <trkpt lat="47.54467" lon="1.8188231">
        <ele>154.0</ele>
        <time>2021-11-25T08:51:07Z</time>
      </trkpt>
      <trkpt lat="47.544678" lon="1.8188324">
        <ele>154.0</ele>
        <time>2021-11-25T08:51:08Z</time>
      </trkpt>
      <trkpt lat="47.544685" lon="1.8188444">
        <ele>155.0</ele>
        <time>2021-11-25T08:51:09Z</time>
      </trkpt>
      <trkpt lat="47.54469" lon="1.818856">
        <ele>155.0</ele>
        <time>2021-11-25T08:51:10Z</time>
      </trkpt>
      <trkpt lat="47.544697" lon="1.8188694">
        <ele>155.0</ele>
        <time>2021-11-25T08:51:11Z</time>
      </trkpt>
      <trkpt lat="47.5447" lon="1.8188826">
        <ele>155.0</ele>
        <time>2021-11-25T08:51:12Z</time>
      </trkpt>
      <trkpt lat="47.544712" lon="1.8188941">
        <ele>156.0</ele>
        <time>2021-11-25T08:51:13Z</time>
      </trkpt>
      <trkpt lat="47.54472" lon="1.8189046">
        <ele>156.0</ele>
        <time>2021-11-25T08:51:14Z</time>
      </trkpt>
      <trkpt lat="47.54473" lon="1.8189142">
        <ele>157.0</ele>
        <time>2021-11-25T08:51:15Z</time>
      </trkpt>
      <trkpt lat="47.544746" lon="1.818929">
        <ele>157.0</ele>
        <time>2021-11-25T08:51:16Z</time>
      </trkpt>
      <trkpt lat="47.544758" lon="1.8189387">
        <ele>157.0</ele>
        <time>2021-11-25T08:51:17Z</time>
      </trkpt>
      <trkpt lat="47.54477" lon="1.8189465">
        <ele>157.0</ele>
        <time>2021-11-25T08:51:18Z</time>
      </trkpt>
      <trkpt lat="47.544777" lon="1.8189567">
        <ele>157.0</ele>
        <time>2021-11-25T08:51:19Z</time>
      </trkpt>
      <trkpt lat="47.54479" lon="1.8189689">
        <ele>157.0</ele>
        <time>2021-11-25T08:51:20Z</time>
      </trkpt>
      <trkpt lat="47.5448" lon="1.8189834">
        <ele>157.0</ele>
        <time>2021-11-25T08:51:21Z</time>
      </trkpt>
      <trkpt lat="47.54481" lon="1.8189967">
        <ele>158.0</ele>
        <time>2021-11-25T08:51:22Z</time>
      </trkpt>
      <trkpt lat="47.544823" lon="1.8190112">
        <ele>158.0</ele>
        <time>2021-11-25T08:51:23Z</time>
      </trkpt>
      <trkpt lat="47.544834" lon="1.8190234">
        <ele>158.0</ele>
        <time>2021-11-25T08:51:24Z</time>
      </trkpt>
      <trkpt lat="47.544838" lon="1.8190347">
        <ele>159.0</ele>
        <time>2021-11-25T08:51:25Z</time>
      </trkpt>
      <trkpt lat="47.544846" lon="1.8190492">
        <ele>158.0</ele>
        <time>2021-11-25T08:51:26Z</time>
      </trkpt>
      <trkpt lat="47.544853" lon="1.8190641">
        <ele>159.0</ele>
        <time>2021-11-25T08:51:27Z</time>
      </trkpt>
      <trkpt lat="47.544853" lon="1.8190641">
        <ele>159.0</ele>
        <time>2021-11-25T08:51:28Z</time>
      </trkpt>
      <trkpt lat="47.544853" lon="1.8190641">
        <ele>159.0</ele>
        <time>2021-11-25T08:51:29Z</time>
      </trkpt>
      <trkpt lat="47.544872" lon="1.819085">
        <ele>159.0</ele>
        <time>2021-11-25T08:51:30Z</time>
      </trkpt>
      <trkpt lat="47.544876" lon="1.8190917">
        <ele>159.0</ele>
        <time>2021-11-25T08:51:31Z</time>
      </trkpt>
      <trkpt lat="47.544884" lon="1.8191037">
        <ele>159.0</ele>
        <time>2021-11-25T08:51:32Z</time>
      </trkpt>
      <trkpt lat="47.54489" lon="1.8191144">
        <ele>160.0</ele>
        <time>2021-11-25T08:51:33Z</time>
      </trkpt>
      <trkpt lat="47.544903" lon="1.8191234">
        <ele>159.0</ele>
        <time>2021-11-25T08:51:34Z</time>
      </trkpt>
      <trkpt lat="47.544914" lon="1.8191324">
        <ele>159.0</ele>
        <time>2021-11-25T08:51:35Z</time>
      </trkpt>
      <trkpt lat="47.54492" lon="1.8191407">
        <ele>159.0</ele>
        <time>2021-11-25T08:51:36Z</time>
      </trkpt>
      <trkpt lat="47.54493" lon="1.8191423">
        <ele>159.0</ele>
        <time>2021-11-25T08:51:37Z</time>
      </trkpt>
      <trkpt lat="47.544933" lon="1.8191351">
        <ele>158.0</ele>
        <time>2021-11-25T08:51:38Z</time>
      </trkpt>
      <trkpt lat="47.544933" lon="1.8191353">
        <ele>158.0</ele>
        <time>2021-11-25T08:51:39Z</time>
      </trkpt>
      <trkpt lat="47.544933" lon="1.8191352">
        <ele>158.0</ele>
        <time>2021-11-25T08:51:40Z</time>
      </trkpt>
      <trkpt lat="47.544933" lon="1.8191352">
        <ele>158.0</ele>
        <time>2021-11-25T08:51:40Z</time>
      </trkpt>
    </trkseg>
    <trkseg>
      <trkpt lat="47.544933" lon="1.8191352">
        <ele>158.0</ele>
        <time>2021-11-25T08:51:40Z</time>
      </trkpt>
      <trkpt lat="47.54498" lon="1.819172">
        <ele>158.0</ele>
        <time>2021-11-25T08:51:47Z</time>
      </trkpt>
      <trkpt lat="47.544987" lon="1.8191795">
        <ele>158.0</ele>
        <time>2021-11-25T08:51:48Z</time>
      </trkpt>
      <trkpt lat="47.544987" lon="1.8191795">
        <ele>158.0</ele>
        <time>2021-11-25T08:51:49Z</time>
      </trkpt>
      <trkpt lat="47.544987" lon="1.8191795">
        <ele>158.0</ele>
        <time>2021-11-25T08:51:50Z</time>
      </trkpt>
      <trkpt lat="47.545006" lon="1.819199">
        <ele>158.0</ele>
        <time>2021-11-25T08:51:51Z</time>
      </trkpt>
      <trkpt lat="47.545017" lon="1.8192061">
        <ele>158.0</ele>
        <time>2021-11-25T08:51:52Z</time>
      </trkpt>
      <trkpt lat="47.54503" lon="1.8192139">
        <ele>158.0</ele>
        <time>2021-11-25T08:51:53Z</time>
      </trkpt>
      <trkpt lat="47.545036" lon="1.8192252">
        <ele>158.0</ele>
        <time>2021-11-25T08:51:54Z</time>
      </trkpt>
      <trkpt lat="47.545036" lon="1.8192346">
        <ele>157.0</ele>
        <time>2021-11-25T08:51:55Z</time>
      </trkpt>
      <trkpt lat="47.545036" lon="1.8192459">
        <ele>157.0</ele>
        <time>2021-11-25T08:51:56Z</time>
      </trkpt>
      <trkpt lat="47.545044" lon="1.8192514">
        <ele>157.0</ele>
        <time>2021-11-25T08:51:57Z</time>
      </trkpt>
      <trkpt lat="47.545055" lon="1.8192542">
        <ele>157.0</ele>
        <time>2021-11-25T08:51:58Z</time>
      </trkpt>
      <trkpt lat="47.545063" lon="1.8192606">
        <ele>157.0</ele>
        <time>2021-11-25T08:51:59Z</time>
      </trkpt>
      <trkpt lat="47.54508" lon="1.8192778">
        <ele>156.0</ele>
        <time>2021-11-25T08:52:00Z</time>
      </trkpt>
      <trkpt lat="47.54508" lon="1.8192778">
        <ele>156.0</ele>
        <time>2021-11-25T08:52:00Z</time>
      </trkpt>
      <trkpt lat="47.54509" lon="1.8192853">
        <ele>157.0</ele>
        <time>2021-11-25T08:52:02Z</time>
      </trkpt>
      <trkpt lat="47.545097" lon="1.8192925">
        <ele>157.0</ele>
        <time>2021-11-25T08:52:03Z</time>
      </trkpt>
      <trkpt lat="47.5451" lon="1.8192983">
        <ele>157.0</ele>
        <time>2021-11-25T08:52:04Z</time>
      </trkpt>
      <trkpt lat="47.54511" lon="1.8193045">
        <ele>157.0</ele>
        <time>2021-11-25T08:52:05Z</time>
      </trkpt>
      <trkpt lat="47.54511" lon="1.8193045">
        <ele>157.0</ele>
        <time>2021-11-25T08:52:06Z</time>
      </trkpt>
      <trkpt lat="47.54511" lon="1.8193045">
        <ele>157.0</ele>
        <time>2021-11-25T08:52:07Z</time>
      </trkpt>
      <trkpt lat="47.545128" lon="1.819327">
        <ele>157.0</ele>
        <time>2021-11-25T08:52:08Z</time>
      </trkpt>
      <trkpt lat="47.54513" lon="1.8193359">
        <ele>157.0</ele>
        <time>2021-11-25T08:52:09Z</time>
      </trkpt>
      <trkpt lat="47.545143" lon="1.8193495">
        <ele>157.0</ele>
        <time>2021-11-25T08:52:10Z</time>
      </trkpt>
      <trkpt lat="47.545166" lon="1.8193651">
        <ele>156.0</ele>
        <time>2021-11-25T08:52:11Z</time>
      </trkpt>
      <trkpt lat="47.545166" lon="1.8193651">
        <ele>156.0</ele>
        <time>2021-11-25T08:52:11Z</time>
      </trkpt>
      <trkpt lat="47.545174" lon="1.8193754">
        <ele>155.0</ele>
        <time>2021-11-25T08:52:13Z</time>
      </trkpt>
      <trkpt lat="47.54518" lon="1.8193808">
        <ele>155.0</ele>
        <time>2021-11-25T08:52:14Z</time>
      </trkpt>
      <trkpt lat="47.545193" lon="1.819386">
        <ele>155.0</ele>
        <time>2021-11-25T08:52:15Z</time>
      </trkpt>
      <trkpt lat="47.545204" lon="1.819392">
        <ele>155.0</ele>
        <time>2021-11-25T08:52:16Z</time>
      </trkpt>
      <trkpt lat="47.545216" lon="1.8193936">
        <ele>156.0</ele>
        <time>2021-11-25T08:52:17Z</time>
      </trkpt>
      <trkpt lat="47.545227" lon="1.8194004">
        <ele>156.0</ele>
        <time>2021-11-25T08:52:18Z</time>
      </trkpt>
      <trkpt lat="47.54524" lon="1.8194082">
        <ele>155.0</ele>
        <time>2021-11-25T08:52:19Z</time>
      </trkpt>
      <trkpt lat="47.54525" lon="1.8194183">
        <ele>155.0</ele>
        <time>2021-11-25T08:52:20Z</time>
      </trkpt>
      <trkpt lat="47.545265" lon="1.8194318">
        <ele>155.0</ele>
        <time>2021-11-25T08:52:21Z</time>
      </trkpt>
      <trkpt lat="47.545277" lon="1.8194424">
        <ele>155.0</ele>
        <time>2021-11-25T08:52:22Z</time>
      </trkpt>
      <trkpt lat="47.545303" lon="1.8194591">
        <ele>155.0</ele>
        <time>2021-11-25T08:52:23Z</time>
      </trkpt>
      <trkpt lat="47.545303" lon="1.8194591">
        <ele>155.0</ele>
        <time>2021-11-25T08:52:23Z</time>
      </trkpt>
      <trkpt lat="47.545303" lon="1.8194591">
        <ele>155.0</ele>
        <time>2021-11-25T08:52:25Z</time>
      </trkpt>
      <trkpt lat="47.545303" lon="1.8194591">
        <ele>155.0</ele>
        <time>2021-11-25T08:52:26Z</time>
      </trkpt>
      <trkpt lat="47.545326" lon="1.8194678">
        <ele>155.0</ele>
        <time>2021-11-25T08:52:27Z</time>
      </trkpt>
      <trkpt lat="47.545338" lon="1.8194777">
        <ele>155.0</ele>
        <time>2021-11-25T08:52:28Z</time>
      </trkpt>
      <trkpt lat="47.545345" lon="1.8194896">
        <ele>155.0</ele>
        <time>2021-11-25T08:52:29Z</time>
      </trkpt>
      <trkpt lat="47.54536" lon="1.819497">
        <ele>155.0</ele>
        <time>2021-11-25T08:52:30Z</time>
      </trkpt>
      <trkpt lat="47.545372" lon="1.8195105">
        <ele>155.0</ele>
        <time>2021-11-25T08:52:31Z</time>
      </trkpt>
      <trkpt lat="47.545387" lon="1.8195214">
        <ele>155.0</ele>
        <time>2021-11-25T08:52:32Z</time>
      </trkpt>
      <trkpt lat="47.545406" lon="1.819552">
        <ele>155.0</ele>
        <time>2021-11-25T08:52:33Z</time>
      </trkpt>
      <trkpt lat="47.545406" lon="1.819552">
        <ele>155.0</ele>
        <time>2021-11-25T08:52:33Z</time>
      </trkpt>
      <trkpt lat="47.545418" lon="1.8195596">
        <ele>155.0</ele>
        <time>2021-11-25T08:52:35Z</time>
      </trkpt>
      <trkpt lat="47.54543" lon="1.819565">
        <ele>155.0</ele>
        <time>2021-11-25T08:52:36Z</time>
      </trkpt>
      <trkpt lat="47.54544" lon="1.8195672">
        <ele>154.0</ele>
        <time>2021-11-25T08:52:37Z</time>
      </trkpt>
      <trkpt lat="47.545452" lon="1.8195714">
        <ele>154.0</ele>
        <time>2021-11-25T08:52:38Z</time>
      </trkpt>
      <trkpt lat="47.54546" lon="1.8195837">
        <ele>155.0</ele>
        <time>2021-11-25T08:52:39Z</time>
      </trkpt>
      <trkpt lat="47.54547" lon="1.8195926">
        <ele>154.0</ele>
        <time>2021-11-25T08:52:40Z</time>
      </trkpt>
      <trkpt lat="47.545483" lon="1.8195972">
        <ele>155.0</ele>
        <time>2021-11-25T08:52:41Z</time>
      </trkpt>
      <trkpt lat="47.54551" lon="1.8196119">
        <ele>154.0</ele>
        <time>2021-11-25T08:52:42Z</time>
      </trkpt>
      <trkpt lat="47.54551" lon="1.8196119">
        <ele>154.0</ele>
        <time>2021-11-25T08:52:42Z</time>
      </trkpt>
      <trkpt lat="47.54551" lon="1.8196119">
        <ele>154.0</ele>
        <time>2021-11-25T08:52:44Z</time>
      </trkpt>
      <trkpt lat="47.54551" lon="1.8196119">
        <ele>154.0</ele>
        <time>2021-11-25T08:52:45Z</time>
      </trkpt>
      <trkpt lat="47.545532" lon="1.8196288">
        <ele>154.0</ele>
        <time>2021-11-25T08:52:46Z</time>
      </trkpt>
      <trkpt lat="47.54554" lon="1.8196329">
        <ele>154.0</ele>
        <time>2021-11-25T08:52:47Z</time>
      </trkpt>
      <trkpt lat="47.54555" lon="1.8196352">
        <ele>154.0</ele>
        <time>2021-11-25T08:52:48Z</time>
      </trkpt>
      <trkpt lat="47.545563" lon="1.8196411">
        <ele>153.0</ele>
        <time>2021-11-25T08:52:49Z</time>
      </trkpt>
      <trkpt lat="47.545574" lon="1.8196514">
        <ele>153.0</ele>
        <time>2021-11-25T08:52:50Z</time>
      </trkpt>
      <trkpt lat="47.54558" lon="1.8196613">
        <ele>152.0</ele>
        <time>2021-11-25T08:52:51Z</time>
      </trkpt>
      <trkpt lat="47.54559" lon="1.8196696">
        <ele>153.0</ele>
        <time>2021-11-25T08:52:52Z</time>
      </trkpt>
      <trkpt lat="47.54559" lon="1.8196696">
        <ele>153.0</ele>
        <time>2021-11-25T08:52:53Z</time>
      </trkpt>
      <trkpt lat="47.545605" lon="1.8196881">
        <ele>154.0</ele>
        <time>2021-11-25T08:52:54Z</time>
      </trkpt>
      <trkpt lat="47.545616" lon="1.8196951">
        <ele>153.0</ele>
        <time>2021-11-25T08:52:55Z</time>
      </trkpt>
      <trkpt lat="47.545635" lon="1.8197042">
        <ele>154.0</ele>
        <time>2021-11-25T08:52:56Z</time>
      </trkpt>
      <trkpt lat="47.545647" lon="1.8197124">
        <ele>154.0</ele>
        <time>2021-11-25T08:52:57Z</time>
      </trkpt>
      <trkpt lat="47.545654" lon="1.8197199">
        <ele>154.0</ele>
        <time>2021-11-25T08:52:58Z</time>
      </trkpt>
      <trkpt lat="47.545662" lon="1.819727">
        <ele>154.0</ele>
        <time>2021-11-25T08:52:59Z</time>
      </trkpt>
      <trkpt lat="47.545666" lon="1.8197347">
        <ele>154.0</ele>
        <time>2021-11-25T08:53:00Z</time>
      </trkpt>
      <trkpt lat="47.545673" lon="1.8197415">
        <ele>154.0</ele>
        <time>2021-11-25T08:53:01Z</time>
      </trkpt>
      <trkpt lat="47.545673" lon="1.8197415">
        <ele>154.0</ele>
        <time>2021-11-25T08:53:02Z</time>
      </trkpt>
      <trkpt lat="47.545673" lon="1.8197415">
        <ele>154.0</ele>
        <time>2021-11-25T08:53:02Z</time>
      </trkpt>
      <trkpt lat="47.545696" lon="1.8197646">
        <ele>155.0</ele>
        <time>2021-11-25T08:53:04Z</time>
      </trkpt>
      <trkpt lat="47.54571" lon="1.819776">
        <ele>155.0</ele>
        <time>2021-11-25T08:53:05Z</time>
      </trkpt>
      <trkpt lat="47.545715" lon="1.8197843">
        <ele>155.0</ele>
        <time>2021-11-25T08:53:06Z</time>
      </trkpt>
      <trkpt lat="47.545727" lon="1.8197947">
        <ele>155.0</ele>
        <time>2021-11-25T08:53:07Z</time>
      </trkpt>
      <trkpt lat="47.545746" lon="1.8198069">
        <ele>155.0</ele>
        <time>2021-11-25T08:53:08Z</time>
      </trkpt>
      <trkpt lat="47.545746" lon="1.8198069">
        <ele>155.0</ele>
        <time>2021-11-25T08:53:08Z</time>
      </trkpt>
      <trkpt lat="47.545753" lon="1.819812">
        <ele>155.0</ele>
        <time>2021-11-25T08:53:10Z</time>
      </trkpt>
      <trkpt lat="47.54576" lon="1.8198185">
        <ele>154.0</ele>
        <time>2021-11-25T08:53:11Z</time>
      </trkpt>
      <trkpt lat="47.54577" lon="1.8198246">
        <ele>154.0</ele>
        <time>2021-11-25T08:53:12Z</time>
      </trkpt>
      <trkpt lat="47.54577" lon="1.8198246">
        <ele>154.0</ele>
        <time>2021-11-25T08:53:13Z</time>
      </trkpt>
      <trkpt lat="47.54577" lon="1.8198246">
        <ele>154.0</ele>
        <time>2021-11-25T08:53:14Z</time>
      </trkpt>
      <trkpt lat="47.545822" lon="1.8198367">
        <ele>152.0</ele>
        <time>2021-11-25T08:53:15Z</time>
      </trkpt>
      <trkpt lat="47.545822" lon="1.8198367">
        <ele>152.0</ele>
        <time>2021-11-25T08:53:15Z</time>
      </trkpt>
      <trkpt lat="47.545837" lon="1.819848">
        <ele>152.0</ele>
        <time>2021-11-25T08:53:17Z</time>
      </trkpt>
      <trkpt lat="47.545864" lon="1.8198639">
        <ele>151.0</ele>
        <time>2021-11-25T08:53:18Z</time>
      </trkpt>
      <trkpt lat="47.54588" lon="1.819875">
        <ele>151.0</ele>
        <time>2021-11-25T08:53:19Z</time>
      </trkpt>
      <trkpt lat="47.54588" lon="1.819875">
        <ele>151.0</ele>
        <time>2021-11-25T08:53:19Z</time>
      </trkpt>
      <trkpt lat="47.54588" lon="1.819875">
        <ele>151.0</ele>
        <time>2021-11-25T08:53:21Z</time>
      </trkpt>
      <trkpt lat="47.54588" lon="1.819875">
        <ele>151.0</ele>
        <time>2021-11-25T08:53:22Z</time>
      </trkpt>
      <trkpt lat="47.54591" lon="1.8198912">
        <ele>150.0</ele>
        <time>2021-11-25T08:53:23Z</time>
      </trkpt>
      <trkpt lat="47.545918" lon="1.8199012">
        <ele>150.0</ele>
        <time>2021-11-25T08:53:24Z</time>
      </trkpt>
      <trkpt lat="47.54593" lon="1.8199123">
        <ele>150.0</ele>
        <time>2021-11-25T08:53:25Z</time>
      </trkpt>
      <trkpt lat="47.545937" lon="1.8199233">
        <ele>150.0</ele>
        <time>2021-11-25T08:53:26Z</time>
      </trkpt>
      <trkpt lat="47.545963" lon="1.8199404">
        <ele>150.0</ele>
        <time>2021-11-25T08:53:27Z</time>
      </trkpt>
      <trkpt lat="47.545963" lon="1.8199404">
        <ele>150.0</ele>
        <time>2021-11-25T08:53:27Z</time>
      </trkpt>
      <trkpt lat="47.54599" lon="1.8199627">
        <ele>150.0</ele>
        <time>2021-11-25T08:53:29Z</time>
      </trkpt>
      <trkpt lat="47.54599" lon="1.8199627">
        <ele>150.0</ele>
        <time>2021-11-25T08:53:29Z</time>
      </trkpt>
      <trkpt lat="47.546005" lon="1.8199747">
        <ele>150.0</ele>
        <time>2021-11-25T08:53:31Z</time>
      </trkpt>
      <trkpt lat="47.54602" lon="1.8199838">
        <ele>150.0</ele>
        <time>2021-11-25T08:53:32Z</time>
      </trkpt>
      <trkpt lat="47.546047" lon="1.820013">
        <ele>151.0</ele>
        <time>2021-11-25T08:53:33Z</time>
      </trkpt>
      <trkpt lat="47.546062" lon="1.8200217">
        <ele>151.0</ele>
        <time>2021-11-25T08:53:34Z</time>
      </trkpt>
      <trkpt lat="47.546074" lon="1.8200316">
        <ele>151.0</ele>
        <time>2021-11-25T08:53:35Z</time>
      </trkpt>
      <trkpt lat="47.546085" lon="1.8200418">
        <ele>151.0</ele>
        <time>2021-11-25T08:53:36Z</time>
      </trkpt>
      <trkpt lat="47.546085" lon="1.8200418">
        <ele>151.0</ele>
        <time>2021-11-25T08:53:36Z</time>
      </trkpt>
      <trkpt lat="47.546093" lon="1.8200505">
        <ele>151.0</ele>
        <time>2021-11-25T08:53:38Z</time>
      </trkpt>
      <trkpt lat="47.54611" lon="1.8200599">
        <ele>151.0</ele>
        <time>2021-11-25T08:53:39Z</time>
      </trkpt>
      <trkpt lat="47.54612" lon="1.8200696">
        <ele>151.0</ele>
        <time>2021-11-25T08:53:40Z</time>
      </trkpt>
      <trkpt lat="47.54614" lon="1.8200858">
        <ele>152.0</ele>
        <time>2021-11-25T08:53:41Z</time>
      </trkpt>
      <trkpt lat="47.546146" lon="1.8200904">
        <ele>152.0</ele>
        <time>2021-11-25T08:53:42Z</time>
      </trkpt>
      <trkpt lat="47.546158" lon="1.8200992">
        <ele>152.0</ele>
        <time>2021-11-25T08:53:43Z</time>
      </trkpt>
      <trkpt lat="47.54617" lon="1.8201054">
        <ele>152.0</ele>
        <time>2021-11-25T08:53:44Z</time>
      </trkpt>
      <trkpt lat="47.54617" lon="1.8201054">
        <ele>152.0</ele>
        <time>2021-11-25T08:53:44Z</time>
      </trkpt>
      <trkpt lat="47.546196" lon="1.8201197">
        <ele>151.0</ele>
        <time>2021-11-25T08:53:46Z</time>
      </trkpt>
      <trkpt lat="47.54621" lon="1.8201356">
        <ele>152.0</ele>
        <time>2021-11-25T08:53:47Z</time>
      </trkpt>
      <trkpt lat="47.54621" lon="1.8201356">
        <ele>152.0</ele>
        <time>2021-11-25T08:53:47Z</time>
      </trkpt>
      <trkpt lat="47.54624" lon="1.8201587">
        <ele>151.0</ele>
        <time>2021-11-25T08:53:49Z</time>
      </trkpt>
      <trkpt lat="47.54625" lon="1.8201666">
        <ele>151.0</ele>
        <time>2021-11-25T08:53:50Z</time>
      </trkpt>
      <trkpt lat="47.54625" lon="1.8201666">
        <ele>151.0</ele>
        <time>2021-11-25T08:53:50Z</time>
      </trkpt>
      <trkpt lat="47.546276" lon="1.8201855">
        <ele>151.0</ele>
        <time>2021-11-25T08:53:52Z</time>
      </trkpt>
      <trkpt lat="47.546288" lon="1.8201929">
        <ele>150.0</ele>
        <time>2021-11-25T08:53:53Z</time>
      </trkpt>
      <trkpt lat="47.5463" lon="1.8202016">
        <ele>150.0</ele>
        <time>2021-11-25T08:53:54Z</time>
      </trkpt>
      <trkpt lat="47.5463" lon="1.8202016">
        <ele>150.0</ele>
        <time>2021-11-25T08:53:55Z</time>
      </trkpt>
      <trkpt lat="47.5463" lon="1.8202016">
        <ele>150.0</ele>
        <time>2021-11-25T08:53:56Z</time>
      </trkpt>
      <trkpt lat="47.54634" lon="1.8202235">
        <ele>150.0</ele>
        <time>2021-11-25T08:53:57Z</time>
      </trkpt>
      <trkpt lat="47.54636" lon="1.8202351">
        <ele>150.0</ele>
        <time>2021-11-25T08:53:58Z</time>
      </trkpt>
      <trkpt lat="47.54638" lon="1.820241">
        <ele>149.0</ele>
        <time>2021-11-25T08:53:59Z</time>
      </trkpt>
      <trkpt lat="47.546394" lon="1.820249">
        <ele>150.0</ele>
        <time>2021-11-25T08:54:00Z</time>
      </trkpt>
      <trkpt lat="47.54641" lon="1.8202547">
        <ele>150.0</ele>
        <time>2021-11-25T08:54:01Z</time>
      </trkpt>
      <trkpt lat="47.546425" lon="1.8202615">
        <ele>150.0</ele>
        <time>2021-11-25T08:54:02Z</time>
      </trkpt>
      <trkpt lat="47.54644" lon="1.8202686">
        <ele>150.0</ele>
        <time>2021-11-25T08:54:03Z</time>
      </trkpt>
      <trkpt lat="47.54645" lon="1.8202755">
        <ele>150.0</ele>
        <time>2021-11-25T08:54:04Z</time>
      </trkpt>
      <trkpt lat="47.546467" lon="1.820282">
        <ele>149.0</ele>
        <time>2021-11-25T08:54:05Z</time>
      </trkpt>
      <trkpt lat="47.54648" lon="1.8202909">
        <ele>150.0</ele>
        <time>2021-11-25T08:54:06Z</time>
      </trkpt>
      <trkpt lat="47.54649" lon="1.8203044">
        <ele>150.0</ele>
        <time>2021-11-25T08:54:07Z</time>
      </trkpt>
      <trkpt lat="47.54651" lon="1.8203154">
        <ele>150.0</ele>
        <time>2021-11-25T08:54:08Z</time>
      </trkpt>
      <trkpt lat="47.54652" lon="1.8203254">
        <ele>150.0</ele>
        <time>2021-11-25T08:54:09Z</time>
      </trkpt>
      <trkpt lat="47.54653" lon="1.8203347">
        <ele>151.0</ele>
        <time>2021-11-25T08:54:10Z</time>
      </trkpt>
      <trkpt lat="47.54654" lon="1.8203437">
        <ele>151.0</ele>
        <time>2021-11-25T08:54:11Z</time>
      </trkpt>
      <trkpt lat="47.546555" lon="1.8203502">
        <ele>151.0</ele>
        <time>2021-11-25T08:54:12Z</time>
      </trkpt>
      <trkpt lat="47.546566" lon="1.8203572">
        <ele>151.0</ele>
        <time>2021-11-25T08:54:13Z</time>
      </trkpt>
      <trkpt lat="47.54658" lon="1.8203652">
        <ele>151.0</ele>
        <time>2021-11-25T08:54:14Z</time>
      </trkpt>
      <trkpt lat="47.546593" lon="1.8203729">
        <ele>151.0</ele>
        <time>2021-11-25T08:54:15Z</time>
      </trkpt>
      <trkpt lat="47.546608" lon="1.8203801">
        <ele>151.0</ele>
        <time>2021-11-25T08:54:16Z</time>
      </trkpt>
      <trkpt lat="47.54662" lon="1.8203856">
        <ele>150.0</ele>
        <time>2021-11-25T08:54:17Z</time>
      </trkpt>
      <trkpt lat="47.54663" lon="1.8203908">
        <ele>150.0</ele>
        <time>2021-11-25T08:54:18Z</time>
      </trkpt>
      <trkpt lat="47.546642" lon="1.8203982">
        <ele>151.0</ele>
        <time>2021-11-25T08:54:19Z</time>
      </trkpt>
      <trkpt lat="47.54665" lon="1.8204067">
        <ele>150.0</ele>
        <time>2021-11-25T08:54:20Z</time>
      </trkpt>
      <trkpt lat="47.54666" lon="1.8204145">
        <ele>150.0</ele>
        <time>2021-11-25T08:54:21Z</time>
      </trkpt>
      <trkpt lat="47.54667" lon="1.8204224">
        <ele>150.0</ele>
        <time>2021-11-25T08:54:22Z</time>
      </trkpt>
      <trkpt lat="47.54668" lon="1.8204312">
        <ele>150.0</ele>
        <time>2021-11-25T08:54:23Z</time>
      </trkpt>
      <trkpt lat="47.54669" lon="1.8204374">
        <ele>151.0</ele>
        <time>2021-11-25T08:54:24Z</time>
      </trkpt>
      <trkpt lat="47.546696" lon="1.8204429">
        <ele>150.0</ele>
        <time>2021-11-25T08:54:25Z</time>
      </trkpt>
      <trkpt lat="47.546707" lon="1.8204451">
        <ele>150.0</ele>
        <time>2021-11-25T08:54:26Z</time>
      </trkpt>
      <trkpt lat="47.54672" lon="1.8204451">
        <ele>150.0</ele>
        <time>2021-11-25T08:54:27Z</time>
      </trkpt>
      <trkpt lat="47.54673" lon="1.8204492">
        <ele>150.0</ele>
        <time>2021-11-25T08:54:28Z</time>
      </trkpt>
      <trkpt lat="47.54674" lon="1.8204571">
        <ele>150.0</ele>
        <time>2021-11-25T08:54:29Z</time>
      </trkpt>
      <trkpt lat="47.546753" lon="1.8204594">
        <ele>150.0</ele>
        <time>2021-11-25T08:54:30Z</time>
      </trkpt>
      <trkpt lat="47.546753" lon="1.8204594">
        <ele>150.0</ele>
        <time>2021-11-25T08:54:30Z</time>
      </trkpt>
      <trkpt lat="47.546776" lon="1.8204658">
        <ele>151.0</ele>
        <time>2021-11-25T08:54:32Z</time>
      </trkpt>
      <trkpt lat="47.546787" lon="1.8204769">
        <ele>150.0</ele>
        <time>2021-11-25T08:54:33Z</time>
      </trkpt>
      <trkpt lat="47.5468" lon="1.8204852">
        <ele>150.0</ele>
        <time>2021-11-25T08:54:34Z</time>
      </trkpt>
      <trkpt lat="47.546814" lon="1.8204933">
        <ele>150.0</ele>
        <time>2021-11-25T08:54:35Z</time>
      </trkpt>
      <trkpt lat="47.54682" lon="1.8205004">
        <ele>150.0</ele>
        <time>2021-11-25T08:54:36Z</time>
      </trkpt>
      <trkpt lat="47.54684" lon="1.820508">
        <ele>150.0</ele>
        <time>2021-11-25T08:54:37Z</time>
      </trkpt>
      <trkpt lat="47.54686" lon="1.820519">
        <ele>151.0</ele>
        <time>2021-11-25T08:54:38Z</time>
      </trkpt>
      <trkpt lat="47.546875" lon="1.8205315">
        <ele>151.0</ele>
        <time>2021-11-25T08:54:39Z</time>
      </trkpt>
      <trkpt lat="47.54689" lon="1.8205452">
        <ele>151.0</ele>
        <time>2021-11-25T08:54:40Z</time>
      </trkpt>
      <trkpt lat="47.546898" lon="1.8205568">
        <ele>151.0</ele>
        <time>2021-11-25T08:54:41Z</time>
      </trkpt>
      <trkpt lat="47.546913" lon="1.8205659">
        <ele>151.0</ele>
        <time>2021-11-25T08:54:42Z</time>
      </trkpt>
      <trkpt lat="47.54692" lon="1.8205752">
        <ele>151.0</ele>
        <time>2021-11-25T08:54:43Z</time>
      </trkpt>
      <trkpt lat="47.546936" lon="1.8205861">
        <ele>151.0</ele>
        <time>2021-11-25T08:54:44Z</time>
      </trkpt>
      <trkpt lat="47.546947" lon="1.8205963">
        <ele>150.0</ele>
        <time>2021-11-25T08:54:45Z</time>
      </trkpt>
      <trkpt lat="47.54696" lon="1.8206074">
        <ele>150.0</ele>
        <time>2021-11-25T08:54:46Z</time>
      </trkpt>
      <trkpt lat="47.546974" lon="1.8206201">
        <ele>150.0</ele>
        <time>2021-11-25T08:54:47Z</time>
      </trkpt>
      <trkpt lat="47.54699" lon="1.820632">
        <ele>149.0</ele>
        <time>2021-11-25T08:54:48Z</time>
      </trkpt>
      <trkpt lat="47.547" lon="1.8206418">
        <ele>149.0</ele>
        <time>2021-11-25T08:54:49Z</time>
      </trkpt>
      <trkpt lat="47.547016" lon="1.820652">
        <ele>149.0</ele>
        <time>2021-11-25T08:54:50Z</time>
      </trkpt>
      <trkpt lat="47.54703" lon="1.8206602">
        <ele>149.0</ele>
        <time>2021-11-25T08:54:51Z</time>
      </trkpt>
      <trkpt lat="47.54704" lon="1.8206712">
        <ele>149.0</ele>
        <time>2021-11-25T08:54:52Z</time>
      </trkpt>
      <trkpt lat="47.54705" lon="1.8206848">
        <ele>149.0</ele>
        <time>2021-11-25T08:54:53Z</time>
      </trkpt>
      <trkpt lat="47.547062" lon="1.8206939">
        <ele>149.0</ele>
        <time>2021-11-25T08:54:54Z</time>
      </trkpt>
      <trkpt lat="47.547062" lon="1.8206939">
        <ele>149.0</ele>
        <time>2021-11-25T08:54:55Z</time>
      </trkpt>
      <trkpt lat="47.547062" lon="1.8206939">
        <ele>149.0</ele>
        <time>2021-11-25T08:54:56Z</time>
      </trkpt>
      <trkpt lat="47.547092" lon="1.8207129">
        <ele>149.0</ele>
        <time>2021-11-25T08:54:57Z</time>
      </trkpt>
      <trkpt lat="47.547104" lon="1.8207177">
        <ele>149.0</ele>
        <time>2021-11-25T08:54:58Z</time>
      </trkpt>
      <trkpt lat="47.54711" lon="1.8207226">
        <ele>148.0</ele>
        <time>2021-11-25T08:54:59Z</time>
      </trkpt>
      <trkpt lat="47.547127" lon="1.8207294">
        <ele>148.0</ele>
        <time>2021-11-25T08:55:00Z</time>
      </trkpt>
      <trkpt lat="47.547134" lon="1.8207337">
        <ele>148.0</ele>
        <time>2021-11-25T08:55:01Z</time>
      </trkpt>
      <trkpt lat="47.547146" lon="1.8207438">
        <ele>149.0</ele>
        <time>2021-11-25T08:55:02Z</time>
      </trkpt>
      <trkpt lat="47.547146" lon="1.8207438">
        <ele>149.0</ele>
        <time>2021-11-25T08:55:03Z</time>
      </trkpt>
      <trkpt lat="47.547146" lon="1.8207438">
        <ele>149.0</ele>
        <time>2021-11-25T08:55:04Z</time>
      </trkpt>
      <trkpt lat="47.547176" lon="1.8207632">
        <ele>148.0</ele>
        <time>2021-11-25T08:55:05Z</time>
      </trkpt>
      <trkpt lat="47.547188" lon="1.8207722">
        <ele>148.0</ele>
        <time>2021-11-25T08:55:06Z</time>
      </trkpt>
      <trkpt lat="47.5472" lon="1.8207783">
        <ele>149.0</ele>
        <time>2021-11-25T08:55:07Z</time>
      </trkpt>
      <trkpt lat="47.54721" lon="1.8207843">
        <ele>149.0</ele>
        <time>2021-11-25T08:55:08Z</time>
      </trkpt>
      <trkpt lat="47.547226" lon="1.8207883">
        <ele>149.0</ele>
        <time>2021-11-25T08:55:09Z</time>
      </trkpt>
      <trkpt lat="47.547237" lon="1.8207915">
        <ele>149.0</ele>
        <time>2021-11-25T08:55:10Z</time>
      </trkpt>
      <trkpt lat="47.54725" lon="1.8207986">
        <ele>150.0</ele>
        <time>2021-11-25T08:55:11Z</time>
      </trkpt>
      <trkpt lat="47.54726" lon="1.8208057">
        <ele>150.0</ele>
        <time>2021-11-25T08:55:12Z</time>
      </trkpt>
      <trkpt lat="47.54727" lon="1.8208127">
        <ele>151.0</ele>
        <time>2021-11-25T08:55:13Z</time>
      </trkpt>
      <trkpt lat="47.547287" lon="1.8208222">
        <ele>151.0</ele>
        <time>2021-11-25T08:55:14Z</time>
      </trkpt>
      <trkpt lat="47.5473" lon="1.8208284">
        <ele>151.0</ele>
        <time>2021-11-25T08:55:15Z</time>
      </trkpt>
      <trkpt lat="47.54731" lon="1.820836">
        <ele>151.0</ele>
        <time>2021-11-25T08:55:16Z</time>
      </trkpt>
      <trkpt lat="47.54732" lon="1.8208449">
        <ele>151.0</ele>
        <time>2021-11-25T08:55:17Z</time>
      </trkpt>
      <trkpt lat="47.547337" lon="1.8208556">
        <ele>152.0</ele>
        <time>2021-11-25T08:55:18Z</time>
      </trkpt>
      <trkpt lat="47.54735" lon="1.8208631">
        <ele>152.0</ele>
        <time>2021-11-25T08:55:19Z</time>
      </trkpt>
      <trkpt lat="47.547367" lon="1.8208747">
        <ele>152.0</ele>
        <time>2021-11-25T08:55:20Z</time>
      </trkpt>
      <trkpt lat="47.54738" lon="1.8208863">
        <ele>151.0</ele>
        <time>2021-11-25T08:55:21Z</time>
      </trkpt>
      <trkpt lat="47.547398" lon="1.8208957">
        <ele>151.0</ele>
        <time>2021-11-25T08:55:22Z</time>
      </trkpt>
      <trkpt lat="47.54741" lon="1.8209014">
        <ele>151.0</ele>
        <time>2021-11-25T08:55:23Z</time>
      </trkpt>
      <trkpt lat="47.547424" lon="1.8209056">
        <ele>151.0</ele>
        <time>2021-11-25T08:55:24Z</time>
      </trkpt>
      <trkpt lat="47.54744" lon="1.820917">
        <ele>152.0</ele>
        <time>2021-11-25T08:55:25Z</time>
      </trkpt>
      <trkpt lat="47.54746" lon="1.8209287">
        <ele>152.0</ele>
        <time>2021-11-25T08:55:26Z</time>
      </trkpt>
      <trkpt lat="47.54747" lon="1.8209364">
        <ele>152.0</ele>
        <time>2021-11-25T08:55:27Z</time>
      </trkpt>
      <trkpt lat="47.54748" lon="1.8209417">
        <ele>151.0</ele>
        <time>2021-11-25T08:55:28Z</time>
      </trkpt>
      <trkpt lat="47.547497" lon="1.820954">
        <ele>151.0</ele>
        <time>2021-11-25T08:55:29Z</time>
      </trkpt>
      <trkpt lat="47.54751" lon="1.8209641">
        <ele>152.0</ele>
        <time>2021-11-25T08:55:30Z</time>
      </trkpt>
      <trkpt lat="47.547523" lon="1.8209745">
        <ele>152.0</ele>
        <time>2021-11-25T08:55:31Z</time>
      </trkpt>
      <trkpt lat="47.547535" lon="1.820986">
        <ele>152.0</ele>
        <time>2021-11-25T08:55:32Z</time>
      </trkpt>
      <trkpt lat="47.547546" lon="1.8209993">
        <ele>152.0</ele>
        <time>2021-11-25T08:55:33Z</time>
      </trkpt>
      <trkpt lat="47.547558" lon="1.8210124">
        <ele>153.0</ele>
        <time>2021-11-25T08:55:34Z</time>
      </trkpt>
      <trkpt lat="47.54757" lon="1.8210242">
        <ele>153.0</ele>
        <time>2021-11-25T08:55:35Z</time>
      </trkpt>
      <trkpt lat="47.54758" lon="1.8210409">
        <ele>153.0</ele>
        <time>2021-11-25T08:55:36Z</time>
      </trkpt>
      <trkpt lat="47.54759" lon="1.8210535">
        <ele>153.0</ele>
        <time>2021-11-25T08:55:37Z</time>
      </trkpt>
      <trkpt lat="47.547604" lon="1.8210653">
        <ele>153.0</ele>
        <time>2021-11-25T08:55:38Z</time>
      </trkpt>
      <trkpt lat="47.54761" lon="1.8210766">
        <ele>153.0</ele>
        <time>2021-11-25T08:55:39Z</time>
      </trkpt>
      <trkpt lat="47.547623" lon="1.8210881">
        <ele>153.0</ele>
        <time>2021-11-25T08:55:40Z</time>
      </trkpt>
      <trkpt lat="47.547634" lon="1.8210973">
        <ele>153.0</ele>
        <time>2021-11-25T08:55:41Z</time>
      </trkpt>
      <trkpt lat="47.547646" lon="1.8211076">
        <ele>153.0</ele>
        <time>2021-11-25T08:55:42Z</time>
      </trkpt>
      <trkpt lat="47.54766" lon="1.8211187">
        <ele>154.0</ele>
        <time>2021-11-25T08:55:43Z</time>
      </trkpt>
      <trkpt lat="47.547676" lon="1.8211236">
        <ele>154.0</ele>
        <time>2021-11-25T08:55:44Z</time>
      </trkpt>
      <trkpt lat="47.547688" lon="1.8211317">
        <ele>155.0</ele>
        <time>2021-11-25T08:55:45Z</time>
      </trkpt>
      <trkpt lat="47.547703" lon="1.8211423">
        <ele>155.0</ele>
        <time>2021-11-25T08:55:46Z</time>
      </trkpt>
      <trkpt lat="47.54771" lon="1.8211484">
        <ele>155.0</ele>
        <time>2021-11-25T08:55:47Z</time>
      </trkpt>
      <trkpt lat="47.54772" lon="1.8211541">
        <ele>156.0</ele>
        <time>2021-11-25T08:55:48Z</time>
      </trkpt>
      <trkpt lat="47.547726" lon="1.8211557">
        <ele>156.0</ele>
        <time>2021-11-25T08:55:49Z</time>
      </trkpt>
      <trkpt lat="47.547737" lon="1.8211635">
        <ele>156.0</ele>
        <time>2021-11-25T08:55:50Z</time>
      </trkpt>
      <trkpt lat="47.547752" lon="1.8211719">
        <ele>156.0</ele>
        <time>2021-11-25T08:55:51Z</time>
      </trkpt>
      <trkpt lat="47.547764" lon="1.8211825">
        <ele>157.0</ele>
        <time>2021-11-25T08:55:52Z</time>
      </trkpt>
      <trkpt lat="47.547775" lon="1.8211926">
        <ele>157.0</ele>
        <time>2021-11-25T08:55:53Z</time>
      </trkpt>
      <trkpt lat="47.54779" lon="1.8212032">
        <ele>157.0</ele>
        <time>2021-11-25T08:55:54Z</time>
      </trkpt>
      <trkpt lat="47.547806" lon="1.8212153">
        <ele>157.0</ele>
        <time>2021-11-25T08:55:55Z</time>
      </trkpt>
      <trkpt lat="47.547813" lon="1.8212206">
        <ele>158.0</ele>
        <time>2021-11-25T08:55:56Z</time>
      </trkpt>
      <trkpt lat="47.54783" lon="1.8212258">
        <ele>158.0</ele>
        <time>2021-11-25T08:55:57Z</time>
      </trkpt>
      <trkpt lat="47.54784" lon="1.82123">
        <ele>158.0</ele>
        <time>2021-11-25T08:55:58Z</time>
      </trkpt>
      <trkpt lat="47.54785" lon="1.8212409">
        <ele>158.0</ele>
        <time>2021-11-25T08:55:59Z</time>
      </trkpt>
      <trkpt lat="47.547867" lon="1.8212506">
        <ele>158.0</ele>
        <time>2021-11-25T08:56:00Z</time>
      </trkpt>
      <trkpt lat="47.547882" lon="1.8212602">
        <ele>158.0</ele>
        <time>2021-11-25T08:56:01Z</time>
      </trkpt>
      <trkpt lat="47.547894" lon="1.8212681">
        <ele>158.0</ele>
        <time>2021-11-25T08:56:02Z</time>
      </trkpt>
      <trkpt lat="47.54791" lon="1.8212813">
        <ele>159.0</ele>
        <time>2021-11-25T08:56:03Z</time>
      </trkpt>
      <trkpt lat="47.547924" lon="1.8212931">
        <ele>159.0</ele>
        <time>2021-11-25T08:56:04Z</time>
      </trkpt>
      <trkpt lat="47.54794" lon="1.8213036">
        <ele>159.0</ele>
        <time>2021-11-25T08:56:05Z</time>
      </trkpt>
      <trkpt lat="47.54795" lon="1.8213143">
        <ele>160.0</ele>
        <time>2021-11-25T08:56:06Z</time>
      </trkpt>
      <trkpt lat="47.547966" lon="1.8213214">
        <ele>160.0</ele>
        <time>2021-11-25T08:56:07Z</time>
      </trkpt>
      <trkpt lat="47.54798" lon="1.8213303">
        <ele>160.0</ele>
        <time>2021-11-25T08:56:08Z</time>
      </trkpt>
      <trkpt lat="47.547997" lon="1.8213392">
        <ele>160.0</ele>
        <time>2021-11-25T08:56:09Z</time>
      </trkpt>
      <trkpt lat="47.548008" lon="1.8213502">
        <ele>160.0</ele>
        <time>2021-11-25T08:56:10Z</time>
      </trkpt>
      <trkpt lat="47.548023" lon="1.8213624">
        <ele>160.0</ele>
        <time>2021-11-25T08:56:11Z</time>
      </trkpt>
      <trkpt lat="47.548035" lon="1.8213724">
        <ele>160.0</ele>
        <time>2021-11-25T08:56:12Z</time>
      </trkpt>
      <trkpt lat="47.548046" lon="1.8213805">
        <ele>160.0</ele>
        <time>2021-11-25T08:56:13Z</time>
      </trkpt>
      <trkpt lat="47.548058" lon="1.8213899">
        <ele>160.0</ele>
        <time>2021-11-25T08:56:14Z</time>
      </trkpt>
      <trkpt lat="47.548065" lon="1.8213981">
        <ele>160.0</ele>
        <time>2021-11-25T08:56:15Z</time>
      </trkpt>
      <trkpt lat="47.548077" lon="1.8214068">
        <ele>160.0</ele>
        <time>2021-11-25T08:56:16Z</time>
      </trkpt>
      <trkpt lat="47.548084" lon="1.8214144">
        <ele>161.0</ele>
        <time>2021-11-25T08:56:17Z</time>
      </trkpt>
      <trkpt lat="47.548096" lon="1.8214236">
        <ele>161.0</ele>
        <time>2021-11-25T08:56:18Z</time>
      </trkpt>
      <trkpt lat="47.548103" lon="1.8214316">
        <ele>161.0</ele>
        <time>2021-11-25T08:56:19Z</time>
      </trkpt>
      <trkpt lat="47.548115" lon="1.8214422">
        <ele>162.0</ele>
        <time>2021-11-25T08:56:20Z</time>
      </trkpt>
      <trkpt lat="47.54813" lon="1.821449">
        <ele>162.0</ele>
        <time>2021-11-25T08:56:21Z</time>
      </trkpt>
      <trkpt lat="47.54814" lon="1.821457">
        <ele>162.0</ele>
        <time>2021-11-25T08:56:22Z</time>
      </trkpt>
      <trkpt lat="47.548153" lon="1.8214674">
        <ele>162.0</ele>
        <time>2021-11-25T08:56:23Z</time>
      </trkpt>
      <trkpt lat="47.548164" lon="1.8214794">
        <ele>162.0</ele>
        <time>2021-11-25T08:56:24Z</time>
      </trkpt>
      <trkpt lat="47.548176" lon="1.8214878">
        <ele>163.0</ele>
        <time>2021-11-25T08:56:25Z</time>
      </trkpt>
      <trkpt lat="47.54819" lon="1.8214931">
        <ele>163.0</ele>
        <time>2021-11-25T08:56:26Z</time>
      </trkpt>
      <trkpt lat="47.548203" lon="1.8215019">
        <ele>163.0</ele>
        <time>2021-11-25T08:56:27Z</time>
      </trkpt>
      <trkpt lat="47.548214" lon="1.8215055">
        <ele>163.0</ele>
        <time>2021-11-25T08:56:28Z</time>
      </trkpt>
      <trkpt lat="47.548225" lon="1.8215071">
        <ele>163.0</ele>
        <time>2021-11-25T08:56:29Z</time>
      </trkpt>
      <trkpt lat="47.548233" lon="1.8215108">
        <ele>163.0</ele>
        <time>2021-11-25T08:56:30Z</time>
      </trkpt>
      <trkpt lat="47.54825" lon="1.8215172">
        <ele>163.0</ele>
        <time>2021-11-25T08:56:31Z</time>
      </trkpt>
      <trkpt lat="47.54826" lon="1.8215264">
        <ele>163.0</ele>
        <time>2021-11-25T08:56:32Z</time>
      </trkpt>
      <trkpt lat="47.548264" lon="1.8215351">
        <ele>162.0</ele>
        <time>2021-11-25T08:56:33Z</time>
      </trkpt>
      <trkpt lat="47.548275" lon="1.821545">
        <ele>163.0</ele>
        <time>2021-11-25T08:56:34Z</time>
      </trkpt>
      <trkpt lat="47.548294" lon="1.8215642">
        <ele>162.0</ele>
        <time>2021-11-25T08:56:36Z</time>
      </trkpt>
      <trkpt lat="47.5483" lon="1.8215749">
        <ele>162.0</ele>
        <time>2021-11-25T08:56:37Z</time>
      </trkpt>
      <trkpt lat="47.548313" lon="1.8215849">
        <ele>162.0</ele>
        <time>2021-11-25T08:56:38Z</time>
      </trkpt>
      <trkpt lat="47.548325" lon="1.8215885">
        <ele>162.0</ele>
        <time>2021-11-25T08:56:39Z</time>
      </trkpt>
      <trkpt lat="47.548336" lon="1.8215921">
        <ele>162.0</ele>
        <time>2021-11-25T08:56:40Z</time>
      </trkpt>
      <trkpt lat="47.548347" lon="1.8215941">
        <ele>161.0</ele>
        <time>2021-11-25T08:56:41Z</time>
      </trkpt>
      <trkpt lat="47.54836" lon="1.8215961">
        <ele>162.0</ele>
        <time>2021-11-25T08:56:42Z</time>
      </trkpt>
      <trkpt lat="47.548378" lon="1.8215994">
        <ele>162.0</ele>
        <time>2021-11-25T08:56:43Z</time>
      </trkpt>
      <trkpt lat="47.54839" lon="1.8215986">
        <ele>162.0</ele>
        <time>2021-11-25T08:56:44Z</time>
      </trkpt>
      <trkpt lat="47.548397" lon="1.8216054">
        <ele>163.0</ele>
        <time>2021-11-25T08:56:45Z</time>
      </trkpt>
      <trkpt lat="47.548397" lon="1.8216069">
        <ele>162.0</ele>
        <time>2021-11-25T08:56:46Z</time>
      </trkpt>
      <trkpt lat="47.548405" lon="1.8216083">
        <ele>163.0</ele>
        <time>2021-11-25T08:56:47Z</time>
      </trkpt>
      <trkpt lat="47.548405" lon="1.8216083">
        <ele>163.0</ele>
        <time>2021-11-25T08:56:48Z</time>
      </trkpt>
      <trkpt lat="47.548416" lon="1.8216196">
        <ele>163.0</ele>
        <time>2021-11-25T08:56:49Z</time>
      </trkpt>
      <trkpt lat="47.548428" lon="1.821624">
        <ele>162.0</ele>
        <time>2021-11-25T08:56:50Z</time>
      </trkpt>
      <trkpt lat="47.54844" lon="1.8216281">
        <ele>162.0</ele>
        <time>2021-11-25T08:56:51Z</time>
      </trkpt>
      <trkpt lat="47.548454" lon="1.8216366">
        <ele>162.0</ele>
        <time>2021-11-25T08:56:52Z</time>
      </trkpt>
      <trkpt lat="47.548462" lon="1.8216444">
        <ele>161.0</ele>
        <time>2021-11-25T08:56:53Z</time>
      </trkpt>
      <trkpt lat="47.548473" lon="1.8216562">
        <ele>161.0</ele>
        <time>2021-11-25T08:56:54Z</time>
      </trkpt>
      <trkpt lat="47.548477" lon="1.8216643">
        <ele>161.0</ele>
        <time>2021-11-25T08:56:55Z</time>
      </trkpt>
      <trkpt lat="47.548485" lon="1.8216716">
        <ele>161.0</ele>
        <time>2021-11-25T08:56:56Z</time>
      </trkpt>
      <trkpt lat="47.54848" lon="1.8216797">
        <ele>162.0</ele>
        <time>2021-11-25T08:56:57Z</time>
      </trkpt>
      <trkpt lat="47.54848" lon="1.8216841">
        <ele>161.0</ele>
        <time>2021-11-25T08:56:58Z</time>
      </trkpt>
      <trkpt lat="47.54848" lon="1.8216826">
        <ele>160.0</ele>
        <time>2021-11-25T08:56:59Z</time>
      </trkpt>
      <trkpt lat="47.548473" lon="1.8216732">
        <ele>160.0</ele>
        <time>2021-11-25T08:57:00Z</time>
      </trkpt>
      <trkpt lat="47.548466" lon="1.8216698">
        <ele>159.0</ele>
        <time>2021-11-25T08:57:01Z</time>
      </trkpt>
      <trkpt lat="47.548454" lon="1.8216667">
        <ele>158.0</ele>
        <time>2021-11-25T08:57:02Z</time>
      </trkpt>
      <trkpt lat="47.548447" lon="1.8216636">
        <ele>158.0</ele>
        <time>2021-11-25T08:57:03Z</time>
      </trkpt>
      <trkpt lat="47.548435" lon="1.8216588">
        <ele>157.0</ele>
        <time>2021-11-25T08:57:04Z</time>
      </trkpt>
      <trkpt lat="47.548424" lon="1.821651">
        <ele>157.0</ele>
        <time>2021-11-25T08:57:05Z</time>
      </trkpt>
      <trkpt lat="47.54842" lon="1.8216397">
        <ele>157.0</ele>
        <time>2021-11-25T08:57:06Z</time>
      </trkpt>
      <trkpt lat="47.548412" lon="1.8216211">
        <ele>158.0</ele>
        <time>2021-11-25T08:57:07Z</time>
      </trkpt>
      <trkpt lat="47.5484" lon="1.8216034">
        <ele>157.0</ele>
        <time>2021-11-25T08:57:08Z</time>
      </trkpt>
      <trkpt lat="47.548393" lon="1.8215952">
        <ele>158.0</ele>
        <time>2021-11-25T08:57:09Z</time>
      </trkpt>
      <trkpt lat="47.54839" lon="1.8215915">
        <ele>158.0</ele>
        <time>2021-11-25T08:57:10Z</time>
      </trkpt>
      <trkpt lat="47.54839" lon="1.8215853">
        <ele>158.0</ele>
        <time>2021-11-25T08:57:11Z</time>
      </trkpt>
      <trkpt lat="47.548386" lon="1.8215815">
        <ele>158.0</ele>
        <time>2021-11-25T08:57:12Z</time>
      </trkpt>
      <trkpt lat="47.548386" lon="1.8215815">
        <ele>158.0</ele>
        <time>2021-11-25T08:57:13Z</time>
      </trkpt>
      <trkpt lat="47.548386" lon="1.8215815">
        <ele>158.0</ele>
        <time>2021-11-25T08:57:14Z</time>
      </trkpt>
      <trkpt lat="47.548386" lon="1.8215815">
        <ele>158.0</ele>
        <time>2021-11-25T08:57:15Z</time>
      </trkpt>
      <trkpt lat="47.548386" lon="1.8215815">
        <ele>158.0</ele>
        <time>2021-11-25T08:57:16Z</time>
      </trkpt>
      <trkpt lat="47.548386" lon="1.8215815">
        <ele>158.0</ele>
        <time>2021-11-25T08:57:17Z</time>
      </trkpt>
      <trkpt lat="47.548386" lon="1.8215815">
        <ele>158.0</ele>
        <time>2021-11-25T08:57:17Z</time>
      </trkpt>
    </trkseg>
    <trkseg>
      <trkpt lat="47.548386" lon="1.8215815">
        <ele>158.0</ele>
        <time>2021-11-25T08:57:17Z</time>
      </trkpt>
      <trkpt lat="47.54837" lon="1.8216206">
        <ele>157.0</ele>
        <time>2021-11-25T08:58:09Z</time>
      </trkpt>
      <trkpt lat="47.548386" lon="1.8216286">
        <ele>156.0</ele>
        <time>2021-11-25T08:58:10Z</time>
      </trkpt>
      <trkpt lat="47.5484" lon="1.8216395">
        <ele>157.0</ele>
        <time>2021-11-25T08:58:11Z</time>
      </trkpt>
      <trkpt lat="47.54842" lon="1.8216493">
        <ele>157.0</ele>
        <time>2021-11-25T08:58:12Z</time>
      </trkpt>
      <trkpt lat="47.548435" lon="1.8216565">
        <ele>157.0</ele>
        <time>2021-11-25T08:58:13Z</time>
      </trkpt>
      <trkpt lat="47.548443" lon="1.8216665">
        <ele>157.0</ele>
        <time>2021-11-25T08:58:14Z</time>
      </trkpt>
      <trkpt lat="47.548454" lon="1.821676">
        <ele>158.0</ele>
        <time>2021-11-25T08:58:15Z</time>
      </trkpt>
      <trkpt lat="47.548454" lon="1.8216767">
        <ele>158.0</ele>
        <time>2021-11-25T08:58:16Z</time>
      </trkpt>
      <trkpt lat="47.548454" lon="1.8216861">
        <ele>157.0</ele>
        <time>2021-11-25T08:58:17Z</time>
      </trkpt>
      <trkpt lat="47.54846" lon="1.8216895">
        <ele>158.0</ele>
        <time>2021-11-25T08:58:18Z</time>
      </trkpt>
      <trkpt lat="47.548462" lon="1.8216989">
        <ele>158.0</ele>
        <time>2021-11-25T08:58:19Z</time>
      </trkpt>
      <trkpt lat="47.548473" lon="1.821703">
        <ele>158.0</ele>
        <time>2021-11-25T08:58:20Z</time>
      </trkpt>
      <trkpt lat="47.548485" lon="1.821713">
        <ele>157.0</ele>
        <time>2021-11-25T08:58:21Z</time>
      </trkpt>
      <trkpt lat="47.548492" lon="1.8217251">
        <ele>157.0</ele>
        <time>2021-11-25T08:58:22Z</time>
      </trkpt>
      <trkpt lat="47.548508" lon="1.8217294">
        <ele>156.0</ele>
        <time>2021-11-25T08:58:23Z</time>
      </trkpt>
      <trkpt lat="47.54852" lon="1.8217291">
        <ele>156.0</ele>
        <time>2021-11-25T08:58:24Z</time>
      </trkpt>
      <trkpt lat="47.548527" lon="1.821728">
        <ele>157.0</ele>
        <time>2021-11-25T08:58:25Z</time>
      </trkpt>
      <trkpt lat="47.54854" lon="1.8217342">
        <ele>157.0</ele>
        <time>2021-11-25T08:58:26Z</time>
      </trkpt>
      <trkpt lat="47.54855" lon="1.8217388">
        <ele>157.0</ele>
        <time>2021-11-25T08:58:27Z</time>
      </trkpt>
      <trkpt lat="47.548557" lon="1.821745">
        <ele>156.0</ele>
        <time>2021-11-25T08:58:28Z</time>
      </trkpt>
      <trkpt lat="47.54857" lon="1.821752">
        <ele>156.0</ele>
        <time>2021-11-25T08:58:29Z</time>
      </trkpt>
      <trkpt lat="47.548576" lon="1.8217559">
        <ele>156.0</ele>
        <time>2021-11-25T08:58:30Z</time>
      </trkpt>
      <trkpt lat="47.54859" lon="1.8217605">
        <ele>156.0</ele>
        <time>2021-11-25T08:58:31Z</time>
      </trkpt>
      <trkpt lat="47.548607" lon="1.8217634">
        <ele>156.0</ele>
        <time>2021-11-25T08:58:32Z</time>
      </trkpt>
      <trkpt lat="47.54862" lon="1.8217682">
        <ele>156.0</ele>
        <time>2021-11-25T08:58:33Z</time>
      </trkpt>
      <trkpt lat="47.548626" lon="1.821768">
        <ele>156.0</ele>
        <time>2021-11-25T08:58:34Z</time>
      </trkpt>
      <trkpt lat="47.54863" lon="1.8217672">
        <ele>156.0</ele>
        <time>2021-11-25T08:58:35Z</time>
      </trkpt>
      <trkpt lat="47.54864" lon="1.8217689">
        <ele>156.0</ele>
        <time>2021-11-25T08:58:36Z</time>
      </trkpt>
      <trkpt lat="47.548645" lon="1.8217703">
        <ele>156.0</ele>
        <time>2021-11-25T08:58:37Z</time>
      </trkpt>
      <trkpt lat="47.548653" lon="1.8217772">
        <ele>156.0</ele>
        <time>2021-11-25T08:58:38Z</time>
      </trkpt>
      <trkpt lat="47.54866" lon="1.8217791">
        <ele>157.0</ele>
        <time>2021-11-25T08:58:39Z</time>
      </trkpt>
      <trkpt lat="47.548664" lon="1.821782">
        <ele>157.0</ele>
        <time>2021-11-25T08:58:40Z</time>
      </trkpt>
      <trkpt lat="47.548664" lon="1.821782">
        <ele>157.0</ele>
        <time>2021-11-25T08:58:41Z</time>
      </trkpt>
      <trkpt lat="47.548664" lon="1.821782">
        <ele>157.0</ele>
        <time>2021-11-25T08:58:41Z</time>
      </trkpt>
    </trkseg>
    <trkseg>
      <trkpt lat="47.548664" lon="1.821782">
        <ele>157.0</ele>
        <time>2021-11-25T08:58:41Z</time>
      </trkpt>
      <trkpt lat="47.548737" lon="1.8218967">
        <ele>165.0</ele>
        <time>2021-11-25T09:12:21Z</time>
      </trkpt>
      <trkpt lat="47.548737" lon="1.8218967">
        <ele>165.0</ele>
        <time>2021-11-25T09:12:22Z</time>
      </trkpt>
      <trkpt lat="47.548737" lon="1.8218967">
        <ele>165.0</ele>
        <time>2021-11-25T09:12:23Z</time>
      </trkpt>
      <trkpt lat="47.548748" lon="1.8219064">
        <ele>164.0</ele>
        <time>2021-11-25T09:12:24Z</time>
      </trkpt>
      <trkpt lat="47.548756" lon="1.8219098">
        <ele>165.0</ele>
        <time>2021-11-25T09:12:25Z</time>
      </trkpt>
      <trkpt lat="47.54876" lon="1.8219022">
        <ele>164.0</ele>
        <time>2021-11-25T09:12:26Z</time>
      </trkpt>
      <trkpt lat="47.54876" lon="1.8219022">
        <ele>164.0</ele>
        <time>2021-11-25T09:12:27Z</time>
      </trkpt>
      <trkpt lat="47.54876" lon="1.8219022">
        <ele>164.0</ele>
        <time>2021-11-25T09:12:28Z</time>
      </trkpt>
      <trkpt lat="47.54876" lon="1.8219022">
        <ele>164.0</ele>
        <time>2021-11-25T09:12:28Z</time>
      </trkpt>
    </trkseg>
    <trkseg>
      <trkpt lat="47.54876" lon="1.8219022">
        <ele>164.0</ele>
        <time>2021-11-25T09:12:28Z</time>
      </trkpt>
      <trkpt lat="47.548786" lon="1.8219414">
        <ele>163.0</ele>
        <time>2021-11-25T09:12:36Z</time>
      </trkpt>
      <trkpt lat="47.548794" lon="1.8219484">
        <ele>163.0</ele>
        <time>2021-11-25T09:12:37Z</time>
      </trkpt>
      <trkpt lat="47.548805" lon="1.8219517">
        <ele>163.0</ele>
        <time>2021-11-25T09:12:38Z</time>
      </trkpt>
      <trkpt lat="47.548813" lon="1.821955">
        <ele>163.0</ele>
        <time>2021-11-25T09:12:39Z</time>
      </trkpt>
      <trkpt lat="47.54882" lon="1.8219587">
        <ele>163.0</ele>
        <time>2021-11-25T09:12:40Z</time>
      </trkpt>
      <trkpt lat="47.548824" lon="1.8219621">
        <ele>163.0</ele>
        <time>2021-11-25T09:12:41Z</time>
      </trkpt>
      <trkpt lat="47.548824" lon="1.8219655">
        <ele>162.0</ele>
        <time>2021-11-25T09:12:42Z</time>
      </trkpt>
      <trkpt lat="47.548824" lon="1.8219655">
        <ele>162.0</ele>
        <time>2021-11-25T09:12:43Z</time>
      </trkpt>
      <trkpt lat="47.548836" lon="1.8219717">
        <ele>162.0</ele>
        <time>2021-11-25T09:12:44Z</time>
      </trkpt>
      <trkpt lat="47.54884" lon="1.821982">
        <ele>162.0</ele>
        <time>2021-11-25T09:12:45Z</time>
      </trkpt>
      <trkpt lat="47.548843" lon="1.8219874">
        <ele>162.0</ele>
        <time>2021-11-25T09:12:46Z</time>
      </trkpt>
      <trkpt lat="47.54885" lon="1.8219934">
        <ele>162.0</ele>
        <time>2021-11-25T09:12:47Z</time>
      </trkpt>
      <trkpt lat="47.54886" lon="1.8219993">
        <ele>162.0</ele>
        <time>2021-11-25T09:12:48Z</time>
      </trkpt>
      <trkpt lat="47.548866" lon="1.8220093">
        <ele>163.0</ele>
        <time>2021-11-25T09:12:49Z</time>
      </trkpt>
      <trkpt lat="47.54887" lon="1.8220206">
        <ele>163.0</ele>
        <time>2021-11-25T09:12:50Z</time>
      </trkpt>
      <trkpt lat="47.54888" lon="1.8220326">
        <ele>163.0</ele>
        <time>2021-11-25T09:12:51Z</time>
      </trkpt>
      <trkpt lat="47.548893" lon="1.8220373">
        <ele>163.0</ele>
        <time>2021-11-25T09:12:52Z</time>
      </trkpt>
      <trkpt lat="47.54891" lon="1.8220391">
        <ele>163.0</ele>
        <time>2021-11-25T09:12:53Z</time>
      </trkpt>
      <trkpt lat="47.548923" lon="1.8220445">
        <ele>163.0</ele>
        <time>2021-11-25T09:12:54Z</time>
      </trkpt>
      <trkpt lat="47.54894" lon="1.8220495">
        <ele>163.0</ele>
        <time>2021-11-25T09:12:55Z</time>
      </trkpt>
      <trkpt lat="47.54895" lon="1.822062">
        <ele>163.0</ele>
        <time>2021-11-25T09:12:56Z</time>
      </trkpt>
      <trkpt lat="47.54896" lon="1.822073">
        <ele>163.0</ele>
        <time>2021-11-25T09:12:57Z</time>
      </trkpt>
      <trkpt lat="47.548977" lon="1.8220843">
        <ele>164.0</ele>
        <time>2021-11-25T09:12:58Z</time>
      </trkpt>
      <trkpt lat="47.548985" lon="1.8220947">
        <ele>164.0</ele>
        <time>2021-11-25T09:12:59Z</time>
      </trkpt>
      <trkpt lat="47.548996" lon="1.8220961">
        <ele>163.0</ele>
        <time>2021-11-25T09:13:00Z</time>
      </trkpt>
      <trkpt lat="47.549004" lon="1.8221068">
        <ele>163.0</ele>
        <time>2021-11-25T09:13:01Z</time>
      </trkpt>
      <trkpt lat="47.549004" lon="1.8221148">
        <ele>163.0</ele>
        <time>2021-11-25T09:13:02Z</time>
      </trkpt>
      <trkpt lat="47.549004" lon="1.8221154">
        <ele>163.0</ele>
        <time>2021-11-25T09:13:03Z</time>
      </trkpt>
      <trkpt lat="47.549" lon="1.8221161">
        <ele>163.0</ele>
        <time>2021-11-25T09:13:04Z</time>
      </trkpt>
      <trkpt lat="47.549" lon="1.8221161">
        <ele>163.0</ele>
        <time>2021-11-25T09:13:05Z</time>
      </trkpt>
      <trkpt lat="47.549" lon="1.8221161">
        <ele>163.0</ele>
        <time>2021-11-25T09:13:05Z</time>
      </trkpt>
    </trkseg>
    <trkseg>
      <trkpt lat="47.549" lon="1.8221161">
        <ele>163.0</ele>
        <time>2021-11-25T09:13:05Z</time>
      </trkpt>
      <trkpt lat="47.549015" lon="1.8221705">
        <ele>161.0</ele>
        <time>2021-11-25T09:13:11Z</time>
      </trkpt>
      <trkpt lat="47.549026" lon="1.8221803">
        <ele>161.0</ele>
        <time>2021-11-25T09:13:12Z</time>
      </trkpt>
      <trkpt lat="47.549034" lon="1.8221927">
        <ele>161.0</ele>
        <time>2021-11-25T09:13:13Z</time>
      </trkpt>
      <trkpt lat="47.54904" lon="1.8222015">
        <ele>161.0</ele>
        <time>2021-11-25T09:13:14Z</time>
      </trkpt>
      <trkpt lat="47.549053" lon="1.8222096">
        <ele>161.0</ele>
        <time>2021-11-25T09:13:15Z</time>
      </trkpt>
      <trkpt lat="47.549065" lon="1.8222177">
        <ele>161.0</ele>
        <time>2021-11-25T09:13:16Z</time>
      </trkpt>
      <trkpt lat="47.549076" lon="1.8222306">
        <ele>160.0</ele>
        <time>2021-11-25T09:13:17Z</time>
      </trkpt>
      <trkpt lat="47.54909" lon="1.8222436">
        <ele>161.0</ele>
        <time>2021-11-25T09:13:18Z</time>
      </trkpt>
      <trkpt lat="47.549107" lon="1.8222561">
        <ele>161.0</ele>
        <time>2021-11-25T09:13:19Z</time>
      </trkpt>
      <trkpt lat="47.549118" lon="1.8222619">
        <ele>161.0</ele>
        <time>2021-11-25T09:13:20Z</time>
      </trkpt>
      <trkpt lat="47.54913" lon="1.8222712">
        <ele>161.0</ele>
        <time>2021-11-25T09:13:21Z</time>
      </trkpt>
      <trkpt lat="47.549145" lon="1.8222817">
        <ele>161.0</ele>
        <time>2021-11-25T09:13:22Z</time>
      </trkpt>
      <trkpt lat="47.549156" lon="1.8222926">
        <ele>162.0</ele>
        <time>2021-11-25T09:13:23Z</time>
      </trkpt>
      <trkpt lat="47.54917" lon="1.8222986">
        <ele>161.0</ele>
        <time>2021-11-25T09:13:24Z</time>
      </trkpt>
      <trkpt lat="47.549183" lon="1.8223104">
        <ele>161.0</ele>
        <time>2021-11-25T09:13:25Z</time>
      </trkpt>
      <trkpt lat="47.549194" lon="1.822317">
        <ele>161.0</ele>
        <time>2021-11-25T09:13:26Z</time>
      </trkpt>
      <trkpt lat="47.549206" lon="1.8223281">
        <ele>161.0</ele>
        <time>2021-11-25T09:13:27Z</time>
      </trkpt>
      <trkpt lat="47.549213" lon="1.8223407">
        <ele>161.0</ele>
        <time>2021-11-25T09:13:28Z</time>
      </trkpt>
      <trkpt lat="47.549225" lon="1.8223534">
        <ele>161.0</ele>
        <time>2021-11-25T09:13:29Z</time>
      </trkpt>
      <trkpt lat="47.54924" lon="1.8223647">
        <ele>161.0</ele>
        <time>2021-11-25T09:13:30Z</time>
      </trkpt>
      <trkpt lat="47.549248" lon="1.8223732">
        <ele>161.0</ele>
        <time>2021-11-25T09:13:31Z</time>
      </trkpt>
      <trkpt lat="47.54926" lon="1.8223783">
        <ele>161.0</ele>
        <time>2021-11-25T09:13:32Z</time>
      </trkpt>
      <trkpt lat="47.54927" lon="1.8223819">
        <ele>160.0</ele>
        <time>2021-11-25T09:13:33Z</time>
      </trkpt>
      <trkpt lat="47.549282" lon="1.8223933">
        <ele>160.0</ele>
        <time>2021-11-25T09:13:34Z</time>
      </trkpt>
      <trkpt lat="47.549297" lon="1.8224095">
        <ele>160.0</ele>
        <time>2021-11-25T09:13:35Z</time>
      </trkpt>
      <trkpt lat="47.549316" lon="1.8224243">
        <ele>160.0</ele>
        <time>2021-11-25T09:13:36Z</time>
      </trkpt>
      <trkpt lat="47.54933" lon="1.8224338">
        <ele>160.0</ele>
        <time>2021-11-25T09:13:37Z</time>
      </trkpt>
      <trkpt lat="47.549347" lon="1.8224425">
        <ele>160.0</ele>
        <time>2021-11-25T09:13:38Z</time>
      </trkpt>
      <trkpt lat="47.549362" lon="1.822449">
        <ele>160.0</ele>
        <time>2021-11-25T09:13:39Z</time>
      </trkpt>
      <trkpt lat="47.549374" lon="1.822455">
        <ele>160.0</ele>
        <time>2021-11-25T09:13:40Z</time>
      </trkpt>
      <trkpt lat="47.549385" lon="1.82246">
        <ele>160.0</ele>
        <time>2021-11-25T09:13:41Z</time>
      </trkpt>
      <trkpt lat="47.549397" lon="1.8224698">
        <ele>159.0</ele>
        <time>2021-11-25T09:13:42Z</time>
      </trkpt>
      <trkpt lat="47.549408" lon="1.8224722">
        <ele>159.0</ele>
        <time>2021-11-25T09:13:43Z</time>
      </trkpt>
      <trkpt lat="47.549423" lon="1.8224803">
        <ele>160.0</ele>
        <time>2021-11-25T09:13:44Z</time>
      </trkpt>
      <trkpt lat="47.54943" lon="1.8224847">
        <ele>159.0</ele>
        <time>2021-11-25T09:13:45Z</time>
      </trkpt>
      <trkpt lat="47.549446" lon="1.8224931">
        <ele>158.0</ele>
        <time>2021-11-25T09:13:46Z</time>
      </trkpt>
      <trkpt lat="47.549458" lon="1.8225087">
        <ele>159.0</ele>
        <time>2021-11-25T09:13:47Z</time>
      </trkpt>
      <trkpt lat="47.54947" lon="1.8225197">
        <ele>159.0</ele>
        <time>2021-11-25T09:13:48Z</time>
      </trkpt>
      <trkpt lat="47.549477" lon="1.8225335">
        <ele>159.0</ele>
        <time>2021-11-25T09:13:49Z</time>
      </trkpt>
      <trkpt lat="47.549484" lon="1.822544">
        <ele>159.0</ele>
        <time>2021-11-25T09:13:50Z</time>
      </trkpt>
      <trkpt lat="47.54949" lon="1.82255">
        <ele>159.0</ele>
        <time>2021-11-25T09:13:51Z</time>
      </trkpt>
      <trkpt lat="47.549507" lon="1.8225569">
        <ele>159.0</ele>
        <time>2021-11-25T09:13:52Z</time>
      </trkpt>
      <trkpt lat="47.54952" lon="1.8225621">
        <ele>160.0</ele>
        <time>2021-11-25T09:13:53Z</time>
      </trkpt>
      <trkpt lat="47.549534" lon="1.8225665">
        <ele>160.0</ele>
        <time>2021-11-25T09:13:54Z</time>
      </trkpt>
      <trkpt lat="47.54955" lon="1.8225718">
        <ele>160.0</ele>
        <time>2021-11-25T09:13:55Z</time>
      </trkpt>
      <trkpt lat="47.549564" lon="1.8225787">
        <ele>160.0</ele>
        <time>2021-11-25T09:13:56Z</time>
      </trkpt>
      <trkpt lat="47.54958" lon="1.8225888">
        <ele>160.0</ele>
        <time>2021-11-25T09:13:57Z</time>
      </trkpt>
      <trkpt lat="47.549595" lon="1.8225946">
        <ele>160.0</ele>
        <time>2021-11-25T09:13:58Z</time>
      </trkpt>
      <trkpt lat="47.54961" lon="1.8226049">
        <ele>161.0</ele>
        <time>2021-11-25T09:13:59Z</time>
      </trkpt>
      <trkpt lat="47.549625" lon="1.8226129">
        <ele>161.0</ele>
        <time>2021-11-25T09:14:00Z</time>
      </trkpt>
      <trkpt lat="47.549644" lon="1.8226169">
        <ele>160.0</ele>
        <time>2021-11-25T09:14:01Z</time>
      </trkpt>
      <trkpt lat="47.549664" lon="1.8226241">
        <ele>160.0</ele>
        <time>2021-11-25T09:14:02Z</time>
      </trkpt>
      <trkpt lat="47.54968" lon="1.8226358">
        <ele>160.0</ele>
        <time>2021-11-25T09:14:03Z</time>
      </trkpt>
      <trkpt lat="47.549686" lon="1.8226458">
        <ele>160.0</ele>
        <time>2021-11-25T09:14:04Z</time>
      </trkpt>
      <trkpt lat="47.549706" lon="1.8226521">
        <ele>160.0</ele>
        <time>2021-11-25T09:14:05Z</time>
      </trkpt>
      <trkpt lat="47.549725" lon="1.8226583">
        <ele>161.0</ele>
        <time>2021-11-25T09:14:06Z</time>
      </trkpt>
      <trkpt lat="47.549744" lon="1.8226638">
        <ele>160.0</ele>
        <time>2021-11-25T09:14:07Z</time>
      </trkpt>
      <trkpt lat="47.549767" lon="1.8226659">
        <ele>160.0</ele>
        <time>2021-11-25T09:14:08Z</time>
      </trkpt>
      <trkpt lat="47.54978" lon="1.8226726">
        <ele>160.0</ele>
        <time>2021-11-25T09:14:09Z</time>
      </trkpt>
      <trkpt lat="47.549797" lon="1.8226789">
        <ele>159.0</ele>
        <time>2021-11-25T09:14:10Z</time>
      </trkpt>
      <trkpt lat="47.549812" lon="1.8226879">
        <ele>159.0</ele>
        <time>2021-11-25T09:14:11Z</time>
      </trkpt>
      <trkpt lat="47.549828" lon="1.8226919">
        <ele>159.0</ele>
        <time>2021-11-25T09:14:12Z</time>
      </trkpt>
      <trkpt lat="47.54984" lon="1.8226968">
        <ele>159.0</ele>
        <time>2021-11-25T09:14:13Z</time>
      </trkpt>
      <trkpt lat="47.549854" lon="1.8227067">
        <ele>159.0</ele>
        <time>2021-11-25T09:14:14Z</time>
      </trkpt>
      <trkpt lat="47.54987" lon="1.8227097">
        <ele>159.0</ele>
        <time>2021-11-25T09:14:15Z</time>
      </trkpt>
      <trkpt lat="47.549885" lon="1.8227139">
        <ele>158.0</ele>
        <time>2021-11-25T09:14:16Z</time>
      </trkpt>
      <trkpt lat="47.549896" lon="1.8227211">
        <ele>159.0</ele>
        <time>2021-11-25T09:14:17Z</time>
      </trkpt>
      <trkpt lat="47.549904" lon="1.8227302">
        <ele>159.0</ele>
        <time>2021-11-25T09:14:18Z</time>
      </trkpt>
      <trkpt lat="47.54992" lon="1.8227396">
        <ele>159.0</ele>
        <time>2021-11-25T09:14:19Z</time>
      </trkpt>
      <trkpt lat="47.549934" lon="1.8227481">
        <ele>159.0</ele>
        <time>2021-11-25T09:14:20Z</time>
      </trkpt>
      <trkpt lat="47.549946" lon="1.8227574">
        <ele>159.0</ele>
        <time>2021-11-25T09:14:21Z</time>
      </trkpt>
      <trkpt lat="47.549957" lon="1.8227735">
        <ele>159.0</ele>
        <time>2021-11-25T09:14:22Z</time>
      </trkpt>
      <trkpt lat="47.54997" lon="1.8227847">
        <ele>159.0</ele>
        <time>2021-11-25T09:14:23Z</time>
      </trkpt>
      <trkpt lat="47.549984" lon="1.8228">
        <ele>158.0</ele>
        <time>2021-11-25T09:14:24Z</time>
      </trkpt>
      <trkpt lat="47.54999" lon="1.8228139">
        <ele>158.0</ele>
        <time>2021-11-25T09:14:25Z</time>
      </trkpt>
      <trkpt lat="47.550003" lon="1.8228254">
        <ele>158.0</ele>
        <time>2021-11-25T09:14:26Z</time>
      </trkpt>
      <trkpt lat="47.55002" lon="1.8228381">
        <ele>159.0</ele>
        <time>2021-11-25T09:14:27Z</time>
      </trkpt>
      <trkpt lat="47.550034" lon="1.8228465">
        <ele>159.0</ele>
        <time>2021-11-25T09:14:28Z</time>
      </trkpt>
      <trkpt lat="47.55005" lon="1.8228573">
        <ele>159.0</ele>
        <time>2021-11-25T09:14:29Z</time>
      </trkpt>
      <trkpt lat="47.550056" lon="1.8228608">
        <ele>160.0</ele>
        <time>2021-11-25T09:14:30Z</time>
      </trkpt>
      <trkpt lat="47.550068" lon="1.822869">
        <ele>160.0</ele>
        <time>2021-11-25T09:14:31Z</time>
      </trkpt>
      <trkpt lat="47.55008" lon="1.8228791">
        <ele>160.0</ele>
        <time>2021-11-25T09:14:32Z</time>
      </trkpt>
      <trkpt lat="47.550095" lon="1.822889">
        <ele>160.0</ele>
        <time>2021-11-25T09:14:33Z</time>
      </trkpt>
      <trkpt lat="47.55011" lon="1.8228997">
        <ele>161.0</ele>
        <time>2021-11-25T09:14:34Z</time>
      </trkpt>
      <trkpt lat="47.550125" lon="1.8229059">
        <ele>161.0</ele>
        <time>2021-11-25T09:14:35Z</time>
      </trkpt>
      <trkpt lat="47.550144" lon="1.8229103">
        <ele>161.0</ele>
        <time>2021-11-25T09:14:36Z</time>
      </trkpt>
      <trkpt lat="47.550156" lon="1.822919">
        <ele>161.0</ele>
        <time>2021-11-25T09:14:37Z</time>
      </trkpt>
      <trkpt lat="47.55017" lon="1.8229257">
        <ele>161.0</ele>
        <time>2021-11-25T09:14:38Z</time>
      </trkpt>
      <trkpt lat="47.55019" lon="1.8229299">
        <ele>161.0</ele>
        <time>2021-11-25T09:14:39Z</time>
      </trkpt>
      <trkpt lat="47.550205" lon="1.8229403">
        <ele>161.0</ele>
        <time>2021-11-25T09:14:40Z</time>
      </trkpt>
      <trkpt lat="47.550213" lon="1.8229517">
        <ele>161.0</ele>
        <time>2021-11-25T09:14:41Z</time>
      </trkpt>
      <trkpt lat="47.55022" lon="1.8229629">
        <ele>161.0</ele>
        <time>2021-11-25T09:14:42Z</time>
      </trkpt>
      <trkpt lat="47.550236" lon="1.8229717">
        <ele>161.0</ele>
        <time>2021-11-25T09:14:43Z</time>
      </trkpt>
      <trkpt lat="47.550243" lon="1.8229804">
        <ele>161.0</ele>
        <time>2021-11-25T09:14:44Z</time>
      </trkpt>
      <trkpt lat="47.550255" lon="1.8229873">
        <ele>161.0</ele>
        <time>2021-11-25T09:14:45Z</time>
      </trkpt>
      <trkpt lat="47.550266" lon="1.8229934">
        <ele>161.0</ele>
        <time>2021-11-25T09:14:46Z</time>
      </trkpt>
      <trkpt lat="47.550274" lon="1.823">
        <ele>160.0</ele>
        <time>2021-11-25T09:14:47Z</time>
      </trkpt>
      <trkpt lat="47.55028" lon="1.8230072">
        <ele>160.0</ele>
        <time>2021-11-25T09:14:48Z</time>
      </trkpt>
      <trkpt lat="47.550297" lon="1.8230169">
        <ele>160.0</ele>
        <time>2021-11-25T09:14:49Z</time>
      </trkpt>
      <trkpt lat="47.55031" lon="1.8230212">
        <ele>159.0</ele>
        <time>2021-11-25T09:14:50Z</time>
      </trkpt>
      <trkpt lat="47.550323" lon="1.8230245">
        <ele>159.0</ele>
        <time>2021-11-25T09:14:51Z</time>
      </trkpt>
      <trkpt lat="47.55034" lon="1.8230323">
        <ele>158.0</ele>
        <time>2021-11-25T09:14:52Z</time>
      </trkpt>
      <trkpt lat="47.55035" lon="1.8230395">
        <ele>158.0</ele>
        <time>2021-11-25T09:14:53Z</time>
      </trkpt>
      <trkpt lat="47.55036" lon="1.8230443">
        <ele>158.0</ele>
        <time>2021-11-25T09:14:54Z</time>
      </trkpt>
      <trkpt lat="47.55037" lon="1.8230525">
        <ele>158.0</ele>
        <time>2021-11-25T09:14:55Z</time>
      </trkpt>
      <trkpt lat="47.55038" lon="1.8230593">
        <ele>158.0</ele>
        <time>2021-11-25T09:14:56Z</time>
      </trkpt>
      <trkpt lat="47.550392" lon="1.8230734">
        <ele>158.0</ele>
        <time>2021-11-25T09:14:57Z</time>
      </trkpt>
      <trkpt lat="47.550404" lon="1.8230826">
        <ele>158.0</ele>
        <time>2021-11-25T09:14:58Z</time>
      </trkpt>
      <trkpt lat="47.550415" lon="1.823088">
        <ele>158.0</ele>
        <time>2021-11-25T09:14:59Z</time>
      </trkpt>
      <trkpt lat="47.550423" lon="1.8230873">
        <ele>158.0</ele>
        <time>2021-11-25T09:15:00Z</time>
      </trkpt>
      <trkpt lat="47.55043" lon="1.823087">
        <ele>157.0</ele>
        <time>2021-11-25T09:15:01Z</time>
      </trkpt>
      <trkpt lat="47.550438" lon="1.8230885">
        <ele>157.0</ele>
        <time>2021-11-25T09:15:02Z</time>
      </trkpt>
      <trkpt lat="47.55045" lon="1.8230911">
        <ele>157.0</ele>
        <time>2021-11-25T09:15:03Z</time>
      </trkpt>
      <trkpt lat="47.550453" lon="1.8230996">
        <ele>156.0</ele>
        <time>2021-11-25T09:15:04Z</time>
      </trkpt>
      <trkpt lat="47.550465" lon="1.823108">
        <ele>156.0</ele>
        <time>2021-11-25T09:15:05Z</time>
      </trkpt>
      <trkpt lat="47.550472" lon="1.8231125">
        <ele>156.0</ele>
        <time>2021-11-25T09:15:06Z</time>
      </trkpt>
      <trkpt lat="47.55048" lon="1.8231163">
        <ele>156.0</ele>
        <time>2021-11-25T09:15:07Z</time>
      </trkpt>
      <trkpt lat="47.550488" lon="1.8231184">
        <ele>156.0</ele>
        <time>2021-11-25T09:15:08Z</time>
      </trkpt>
      <trkpt lat="47.550495" lon="1.8231242">
        <ele>156.0</ele>
        <time>2021-11-25T09:15:09Z</time>
      </trkpt>
      <trkpt lat="47.5505" lon="1.8231314">
        <ele>156.0</ele>
        <time>2021-11-25T09:15:10Z</time>
      </trkpt>
      <trkpt lat="47.550507" lon="1.8231368">
        <ele>157.0</ele>
        <time>2021-11-25T09:15:11Z</time>
      </trkpt>
      <trkpt lat="47.550507" lon="1.8231368">
        <ele>157.0</ele>
        <time>2021-11-25T09:15:12Z</time>
      </trkpt>
      <trkpt lat="47.550507" lon="1.8231368">
        <ele>157.0</ele>
        <time>2021-11-25T09:15:13Z</time>
      </trkpt>
      <trkpt lat="47.550537" lon="1.8231565">
        <ele>156.0</ele>
        <time>2021-11-25T09:15:14Z</time>
      </trkpt>
      <trkpt lat="47.55055" lon="1.8231685">
        <ele>155.0</ele>
        <time>2021-11-25T09:15:15Z</time>
      </trkpt>
      <trkpt lat="47.550564" lon="1.8231889">
        <ele>155.0</ele>
        <time>2021-11-25T09:15:16Z</time>
      </trkpt>
      <trkpt lat="47.55058" lon="1.8232052">
        <ele>155.0</ele>
        <time>2021-11-25T09:15:17Z</time>
      </trkpt>
      <trkpt lat="47.550587" lon="1.8232182">
        <ele>154.0</ele>
        <time>2021-11-25T09:15:18Z</time>
      </trkpt>
      <trkpt lat="47.550602" lon="1.8232336">
        <ele>154.0</ele>
        <time>2021-11-25T09:15:19Z</time>
      </trkpt>
      <trkpt lat="47.55061" lon="1.8232462">
        <ele>154.0</ele>
        <time>2021-11-25T09:15:20Z</time>
      </trkpt>
      <trkpt lat="47.55062" lon="1.8232571">
        <ele>154.0</ele>
        <time>2021-11-25T09:15:21Z</time>
      </trkpt>
      <trkpt lat="47.550636" lon="1.823265">
        <ele>154.0</ele>
        <time>2021-11-25T09:15:22Z</time>
      </trkpt>
      <trkpt lat="47.550648" lon="1.8232754">
        <ele>154.0</ele>
        <time>2021-11-25T09:15:23Z</time>
      </trkpt>
      <trkpt lat="47.550655" lon="1.8232889">
        <ele>154.0</ele>
        <time>2021-11-25T09:15:24Z</time>
      </trkpt>
      <trkpt lat="47.55067" lon="1.8232989">
        <ele>153.0</ele>
        <time>2021-11-25T09:15:25Z</time>
      </trkpt>
      <trkpt lat="47.55068" lon="1.8233031">
        <ele>153.0</ele>
        <time>2021-11-25T09:15:26Z</time>
      </trkpt>
      <trkpt lat="47.550694" lon="1.823309">
        <ele>154.0</ele>
        <time>2021-11-25T09:15:27Z</time>
      </trkpt>
      <trkpt lat="47.550705" lon="1.8233154">
        <ele>153.0</ele>
        <time>2021-11-25T09:15:28Z</time>
      </trkpt>
      <trkpt lat="47.55072" lon="1.8233249">
        <ele>153.0</ele>
        <time>2021-11-25T09:15:29Z</time>
      </trkpt>
      <trkpt lat="47.550728" lon="1.8233322">
        <ele>153.0</ele>
        <time>2021-11-25T09:15:30Z</time>
      </trkpt>
      <trkpt lat="47.550743" lon="1.8233383">
        <ele>152.0</ele>
        <time>2021-11-25T09:15:31Z</time>
      </trkpt>
      <trkpt lat="47.55075" lon="1.8233488">
        <ele>152.0</ele>
        <time>2021-11-25T09:15:32Z</time>
      </trkpt>
      <trkpt lat="47.55077" lon="1.8233505">
        <ele>152.0</ele>
        <time>2021-11-25T09:15:33Z</time>
      </trkpt>
      <trkpt lat="47.55078" lon="1.8233588">
        <ele>152.0</ele>
        <time>2021-11-25T09:15:34Z</time>
      </trkpt>
      <trkpt lat="47.550793" lon="1.8233644">
        <ele>152.0</ele>
        <time>2021-11-25T09:15:35Z</time>
      </trkpt>
      <trkpt lat="47.550804" lon="1.8233691">
        <ele>151.0</ele>
        <time>2021-11-25T09:15:36Z</time>
      </trkpt>
      <trkpt lat="47.550823" lon="1.8233774">
        <ele>151.0</ele>
        <time>2021-11-25T09:15:37Z</time>
      </trkpt>
      <trkpt lat="47.55084" lon="1.8233821">
        <ele>151.0</ele>
        <time>2021-11-25T09:15:38Z</time>
      </trkpt>
      <trkpt lat="47.55085" lon="1.8233862">
        <ele>151.0</ele>
        <time>2021-11-25T09:15:39Z</time>
      </trkpt>
      <trkpt lat="47.55086" lon="1.8233856">
        <ele>151.0</ele>
        <time>2021-11-25T09:15:40Z</time>
      </trkpt>
      <trkpt lat="47.550865" lon="1.8233901">
        <ele>151.0</ele>
        <time>2021-11-25T09:15:41Z</time>
      </trkpt>
      <trkpt lat="47.550873" lon="1.823393">
        <ele>152.0</ele>
        <time>2021-11-25T09:15:42Z</time>
      </trkpt>
      <trkpt lat="47.55088" lon="1.8234055">
        <ele>152.0</ele>
        <time>2021-11-25T09:15:43Z</time>
      </trkpt>
      <trkpt lat="47.55088" lon="1.8234055">
        <ele>152.0</ele>
        <time>2021-11-25T09:15:44Z</time>
      </trkpt>
      <trkpt lat="47.55088" lon="1.8234055">
        <ele>152.0</ele>
        <time>2021-11-25T09:15:45Z</time>
      </trkpt>
      <trkpt lat="47.550903" lon="1.8234191">
        <ele>152.0</ele>
        <time>2021-11-25T09:15:46Z</time>
      </trkpt>
      <trkpt lat="47.550915" lon="1.8234246">
        <ele>152.0</ele>
        <time>2021-11-25T09:15:47Z</time>
      </trkpt>
      <trkpt lat="47.55092" lon="1.8234293">
        <ele>152.0</ele>
        <time>2021-11-25T09:15:48Z</time>
      </trkpt>
      <trkpt lat="47.550934" lon="1.8234357">
        <ele>153.0</ele>
        <time>2021-11-25T09:15:49Z</time>
      </trkpt>
      <trkpt lat="47.550945" lon="1.8234401">
        <ele>153.0</ele>
        <time>2021-11-25T09:15:50Z</time>
      </trkpt>
      <trkpt lat="47.550957" lon="1.8234428">
        <ele>153.0</ele>
        <time>2021-11-25T09:15:51Z</time>
      </trkpt>
      <trkpt lat="47.550964" lon="1.8234495">
        <ele>152.0</ele>
        <time>2021-11-25T09:15:52Z</time>
      </trkpt>
      <trkpt lat="47.550972" lon="1.8234563">
        <ele>153.0</ele>
        <time>2021-11-25T09:15:53Z</time>
      </trkpt>
      <trkpt lat="47.550983" lon="1.8234622">
        <ele>153.0</ele>
        <time>2021-11-25T09:15:54Z</time>
      </trkpt>
      <trkpt lat="47.550995" lon="1.8234694">
        <ele>153.0</ele>
        <time>2021-11-25T09:15:55Z</time>
      </trkpt>
      <trkpt lat="47.551003" lon="1.8234801">
        <ele>153.0</ele>
        <time>2021-11-25T09:15:56Z</time>
      </trkpt>
      <trkpt lat="47.55101" lon="1.8234925">
        <ele>153.0</ele>
        <time>2021-11-25T09:15:57Z</time>
      </trkpt>
      <trkpt lat="47.551018" lon="1.8234985">
        <ele>153.0</ele>
        <time>2021-11-25T09:15:58Z</time>
      </trkpt>
      <trkpt lat="47.55103" lon="1.8235084">
        <ele>153.0</ele>
        <time>2021-11-25T09:15:59Z</time>
      </trkpt>
      <trkpt lat="47.55104" lon="1.8235195">
        <ele>153.0</ele>
        <time>2021-11-25T09:16:00Z</time>
      </trkpt>
      <trkpt lat="47.551056" lon="1.8235292">
        <ele>153.0</ele>
        <time>2021-11-25T09:16:01Z</time>
      </trkpt>
      <trkpt lat="47.551067" lon="1.8235364">
        <ele>153.0</ele>
        <time>2021-11-25T09:16:02Z</time>
      </trkpt>
      <trkpt lat="47.55108" lon="1.823542">
        <ele>153.0</ele>
        <time>2021-11-25T09:16:03Z</time>
      </trkpt>
      <trkpt lat="47.55109" lon="1.823548">
        <ele>152.0</ele>
        <time>2021-11-25T09:16:04Z</time>
      </trkpt>
      <trkpt lat="47.5511" lon="1.8235549">
        <ele>152.0</ele>
        <time>2021-11-25T09:16:05Z</time>
      </trkpt>
      <trkpt lat="47.551117" lon="1.8235637">
        <ele>152.0</ele>
        <time>2021-11-25T09:16:06Z</time>
      </trkpt>
      <trkpt lat="47.551132" lon="1.8235798">
        <ele>152.0</ele>
        <time>2021-11-25T09:16:07Z</time>
      </trkpt>
      <trkpt lat="47.551147" lon="1.8235886">
        <ele>152.0</ele>
        <time>2021-11-25T09:16:08Z</time>
      </trkpt>
      <trkpt lat="47.551167" lon="1.8235928">
        <ele>152.0</ele>
        <time>2021-11-25T09:16:09Z</time>
      </trkpt>
      <trkpt lat="47.55118" lon="1.823602">
        <ele>152.0</ele>
        <time>2021-11-25T09:16:10Z</time>
      </trkpt>
      <trkpt lat="47.551197" lon="1.8236107">
        <ele>152.0</ele>
        <time>2021-11-25T09:16:11Z</time>
      </trkpt>
      <trkpt lat="47.55121" lon="1.823623">
        <ele>152.0</ele>
        <time>2021-11-25T09:16:12Z</time>
      </trkpt>
      <trkpt lat="47.551224" lon="1.823629">
        <ele>151.0</ele>
        <time>2021-11-25T09:16:13Z</time>
      </trkpt>
      <trkpt lat="47.551235" lon="1.8236302">
        <ele>151.0</ele>
        <time>2021-11-25T09:16:14Z</time>
      </trkpt>
      <trkpt lat="47.551247" lon="1.8236309">
        <ele>151.0</ele>
        <time>2021-11-25T09:16:15Z</time>
      </trkpt>
      <trkpt lat="47.551254" lon="1.8236346">
        <ele>151.0</ele>
        <time>2021-11-25T09:16:16Z</time>
      </trkpt>
      <trkpt lat="47.55127" lon="1.8236433">
        <ele>151.0</ele>
        <time>2021-11-25T09:16:17Z</time>
      </trkpt>
      <trkpt lat="47.551285" lon="1.8236527">
        <ele>151.0</ele>
        <time>2021-11-25T09:16:18Z</time>
      </trkpt>
      <trkpt lat="47.5513" lon="1.8236635">
        <ele>151.0</ele>
        <time>2021-11-25T09:16:19Z</time>
      </trkpt>
      <trkpt lat="47.551315" lon="1.8236719">
        <ele>151.0</ele>
        <time>2021-11-25T09:16:20Z</time>
      </trkpt>
      <trkpt lat="47.55133" lon="1.823688">
        <ele>151.0</ele>
        <time>2021-11-25T09:16:21Z</time>
      </trkpt>
      <trkpt lat="47.551346" lon="1.823699">
        <ele>151.0</ele>
        <time>2021-11-25T09:16:22Z</time>
      </trkpt>
      <trkpt lat="47.551357" lon="1.8237109">
        <ele>151.0</ele>
        <time>2021-11-25T09:16:23Z</time>
      </trkpt>
      <trkpt lat="47.55137" lon="1.8237196">
        <ele>151.0</ele>
        <time>2021-11-25T09:16:24Z</time>
      </trkpt>
      <trkpt lat="47.55138" lon="1.8237273">
        <ele>152.0</ele>
        <time>2021-11-25T09:16:25Z</time>
      </trkpt>
      <trkpt lat="47.551395" lon="1.8237334">
        <ele>152.0</ele>
        <time>2021-11-25T09:16:26Z</time>
      </trkpt>
      <trkpt lat="47.551403" lon="1.8237373">
        <ele>152.0</ele>
        <time>2021-11-25T09:16:27Z</time>
      </trkpt>
      <trkpt lat="47.551414" lon="1.8237432">
        <ele>152.0</ele>
        <time>2021-11-25T09:16:28Z</time>
      </trkpt>
      <trkpt lat="47.551426" lon="1.8237453">
        <ele>151.0</ele>
        <time>2021-11-25T09:16:29Z</time>
      </trkpt>
      <trkpt lat="47.551437" lon="1.823747">
        <ele>151.0</ele>
        <time>2021-11-25T09:16:30Z</time>
      </trkpt>
      <trkpt lat="47.551453" lon="1.8237505">
        <ele>152.0</ele>
        <time>2021-11-25T09:16:31Z</time>
      </trkpt>
      <trkpt lat="47.551464" lon="1.8237522">
        <ele>152.0</ele>
        <time>2021-11-25T09:16:32Z</time>
      </trkpt>
      <trkpt lat="47.551476" lon="1.8237518">
        <ele>152.0</ele>
        <time>2021-11-25T09:16:33Z</time>
      </trkpt>
      <trkpt lat="47.55149" lon="1.8237543">
        <ele>151.0</ele>
        <time>2021-11-25T09:16:34Z</time>
      </trkpt>
      <trkpt lat="47.551502" lon="1.8237485">
        <ele>151.0</ele>
        <time>2021-11-25T09:16:35Z</time>
      </trkpt>
      <trkpt lat="47.551514" lon="1.8237485">
        <ele>151.0</ele>
        <time>2021-11-25T09:16:36Z</time>
      </trkpt>
      <trkpt lat="47.551525" lon="1.8237467">
        <ele>151.0</ele>
        <time>2021-11-25T09:16:37Z</time>
      </trkpt>
      <trkpt lat="47.551533" lon="1.8237537">
        <ele>151.0</ele>
        <time>2021-11-25T09:16:38Z</time>
      </trkpt>
      <trkpt lat="47.551544" lon="1.8237592">
        <ele>151.0</ele>
        <time>2021-11-25T09:16:39Z</time>
      </trkpt>
      <trkpt lat="47.55155" lon="1.8237597">
        <ele>151.0</ele>
        <time>2021-11-25T09:16:40Z</time>
      </trkpt>
      <trkpt lat="47.551563" lon="1.823763">
        <ele>151.0</ele>
        <time>2021-11-25T09:16:41Z</time>
      </trkpt>
      <trkpt lat="47.551575" lon="1.8237659">
        <ele>151.0</ele>
        <time>2021-11-25T09:16:42Z</time>
      </trkpt>
      <trkpt lat="47.55159" lon="1.8237718">
        <ele>151.0</ele>
        <time>2021-11-25T09:16:43Z</time>
      </trkpt>
      <trkpt lat="47.5516" lon="1.8237689">
        <ele>151.0</ele>
        <time>2021-11-25T09:16:44Z</time>
      </trkpt>
      <trkpt lat="47.55161" lon="1.8237708">
        <ele>151.0</ele>
        <time>2021-11-25T09:16:45Z</time>
      </trkpt>
      <trkpt lat="47.55162" lon="1.8237776">
        <ele>151.0</ele>
        <time>2021-11-25T09:16:46Z</time>
      </trkpt>
      <trkpt lat="47.551636" lon="1.8237878">
        <ele>152.0</ele>
        <time>2021-11-25T09:16:47Z</time>
      </trkpt>
      <trkpt lat="47.55165" lon="1.8237917">
        <ele>152.0</ele>
        <time>2021-11-25T09:16:48Z</time>
      </trkpt>
      <trkpt lat="47.55166" lon="1.8237967">
        <ele>151.0</ele>
        <time>2021-11-25T09:16:49Z</time>
      </trkpt>
      <trkpt lat="47.55167" lon="1.823806">
        <ele>151.0</ele>
        <time>2021-11-25T09:16:50Z</time>
      </trkpt>
      <trkpt lat="47.551678" lon="1.8238109">
        <ele>151.0</ele>
        <time>2021-11-25T09:16:51Z</time>
      </trkpt>
      <trkpt lat="47.55169" lon="1.8238149">
        <ele>151.0</ele>
        <time>2021-11-25T09:16:52Z</time>
      </trkpt>
      <trkpt lat="47.551704" lon="1.8238176">
        <ele>151.0</ele>
        <time>2021-11-25T09:16:53Z</time>
      </trkpt>
      <trkpt lat="47.551716" lon="1.8238163">
        <ele>151.0</ele>
        <time>2021-11-25T09:16:54Z</time>
      </trkpt>
      <trkpt lat="47.55173" lon="1.8238188">
        <ele>151.0</ele>
        <time>2021-11-25T09:16:55Z</time>
      </trkpt>
      <trkpt lat="47.551743" lon="1.8238218">
        <ele>151.0</ele>
        <time>2021-11-25T09:16:56Z</time>
      </trkpt>
      <trkpt lat="47.551754" lon="1.8238245">
        <ele>150.0</ele>
        <time>2021-11-25T09:16:57Z</time>
      </trkpt>
      <trkpt lat="47.551765" lon="1.823828">
        <ele>150.0</ele>
        <time>2021-11-25T09:16:58Z</time>
      </trkpt>
      <trkpt lat="47.55178" lon="1.8238256">
        <ele>150.0</ele>
        <time>2021-11-25T09:16:59Z</time>
      </trkpt>
      <trkpt lat="47.551792" lon="1.8238249">
        <ele>151.0</ele>
        <time>2021-11-25T09:17:00Z</time>
      </trkpt>
      <trkpt lat="47.551804" lon="1.8238255">
        <ele>151.0</ele>
        <time>2021-11-25T09:17:01Z</time>
      </trkpt>
      <trkpt lat="47.55182" lon="1.823817">
        <ele>151.0</ele>
        <time>2021-11-25T09:17:02Z</time>
      </trkpt>
      <trkpt lat="47.55182" lon="1.8238168">
        <ele>151.0</ele>
        <time>2021-11-25T09:17:03Z</time>
      </trkpt>
      <trkpt lat="47.55183" lon="1.8238114">
        <ele>152.0</ele>
        <time>2021-11-25T09:17:04Z</time>
      </trkpt>
      <trkpt lat="47.551838" lon="1.8238153">
        <ele>150.0</ele>
        <time>2021-11-25T09:17:05Z</time>
      </trkpt>
      <trkpt lat="47.551853" lon="1.8238195">
        <ele>150.0</ele>
        <time>2021-11-25T09:17:06Z</time>
      </trkpt>
      <trkpt lat="47.55187" lon="1.8238248">
        <ele>150.0</ele>
        <time>2021-11-25T09:17:07Z</time>
      </trkpt>
      <trkpt lat="47.551884" lon="1.8238281">
        <ele>149.0</ele>
        <time>2021-11-25T09:17:08Z</time>
      </trkpt>
      <trkpt lat="47.5519" lon="1.8238367">
        <ele>150.0</ele>
        <time>2021-11-25T09:17:09Z</time>
      </trkpt>
      <trkpt lat="47.551907" lon="1.8238418">
        <ele>150.0</ele>
        <time>2021-11-25T09:17:10Z</time>
      </trkpt>
      <trkpt lat="47.551918" lon="1.8238418">
        <ele>151.0</ele>
        <time>2021-11-25T09:17:11Z</time>
      </trkpt>
      <trkpt lat="47.55193" lon="1.8238448">
        <ele>151.0</ele>
        <time>2021-11-25T09:17:12Z</time>
      </trkpt>
      <trkpt lat="47.551937" lon="1.8238482">
        <ele>152.0</ele>
        <time>2021-11-25T09:17:13Z</time>
      </trkpt>
      <trkpt lat="47.551945" lon="1.823854">
        <ele>152.0</ele>
        <time>2021-11-25T09:17:14Z</time>
      </trkpt>
      <trkpt lat="47.551952" lon="1.823859">
        <ele>152.0</ele>
        <time>2021-11-25T09:17:15Z</time>
      </trkpt>
      <trkpt lat="47.551968" lon="1.8238661">
        <ele>152.0</ele>
        <time>2021-11-25T09:17:16Z</time>
      </trkpt>
      <trkpt lat="47.55198" lon="1.8238755">
        <ele>152.0</ele>
        <time>2021-11-25T09:17:17Z</time>
      </trkpt>
      <trkpt lat="47.551987" lon="1.8238827">
        <ele>152.0</ele>
        <time>2021-11-25T09:17:18Z</time>
      </trkpt>
      <trkpt lat="47.551987" lon="1.8238828">
        <ele>152.0</ele>
        <time>2021-11-25T09:17:19Z</time>
      </trkpt>
      <trkpt lat="47.551987" lon="1.823883">
        <ele>152.0</ele>
        <time>2021-11-25T09:17:20Z</time>
      </trkpt>
      <trkpt lat="47.551987" lon="1.823883">
        <ele>152.0</ele>
        <time>2021-11-25T09:17:20Z</time>
      </trkpt>
    </trkseg>
    <trkseg>
      <trkpt lat="47.551987" lon="1.823883">
        <ele>152.0</ele>
        <time>2021-11-25T09:17:20Z</time>
      </trkpt>
      <trkpt lat="47.552036" lon="1.8239074">
        <ele>155.0</ele>
        <time>2021-11-25T09:17:32Z</time>
      </trkpt>
      <trkpt lat="47.552036" lon="1.82391">
        <ele>155.0</ele>
        <time>2021-11-25T09:17:33Z</time>
      </trkpt>
      <trkpt lat="47.552032" lon="1.8239049">
        <ele>155.0</ele>
        <time>2021-11-25T09:17:34Z</time>
      </trkpt>
      <trkpt lat="47.552032" lon="1.8239049">
        <ele>155.0</ele>
        <time>2021-11-25T09:17:34Z</time>
      </trkpt>
    </trkseg>
    <trkseg>
      <trkpt lat="47.552032" lon="1.8239049">
        <ele>155.0</ele>
        <time>2021-11-25T09:17:34Z</time>
      </trkpt>
      <trkpt lat="47.552082" lon="1.8239149">
        <ele>155.0</ele>
        <time>2021-11-25T09:17:53Z</time>
      </trkpt>
      <trkpt lat="47.55209" lon="1.8239192">
        <ele>155.0</ele>
        <time>2021-11-25T09:17:54Z</time>
      </trkpt>
      <trkpt lat="47.5521" lon="1.8239211">
        <ele>155.0</ele>
        <time>2021-11-25T09:17:55Z</time>
      </trkpt>
      <trkpt lat="47.55211" lon="1.8239194">
        <ele>154.0</ele>
        <time>2021-11-25T09:17:56Z</time>
      </trkpt>
      <trkpt lat="47.552113" lon="1.8239158">
        <ele>154.0</ele>
        <time>2021-11-25T09:17:57Z</time>
      </trkpt>
      <trkpt lat="47.552113" lon="1.8239169">
        <ele>154.0</ele>
        <time>2021-11-25T09:17:58Z</time>
      </trkpt>
      <trkpt lat="47.552113" lon="1.8239172">
        <ele>154.0</ele>
        <time>2021-11-25T09:17:59Z</time>
      </trkpt>
      <trkpt lat="47.552113" lon="1.8239172">
        <ele>154.0</ele>
        <time>2021-11-25T09:17:59Z</time>
      </trkpt>
    </trkseg>
    <trkseg>
      <trkpt lat="47.552113" lon="1.8239172">
        <ele>154.0</ele>
        <time>2021-11-25T09:17:59Z</time>
      </trkpt>
      <trkpt lat="47.552147" lon="1.8239456">
        <ele>152.0</ele>
        <time>2021-11-25T09:18:30Z</time>
      </trkpt>
      <trkpt lat="47.55216" lon="1.8239521">
        <ele>152.0</ele>
        <time>2021-11-25T09:18:31Z</time>
      </trkpt>
      <trkpt lat="47.552166" lon="1.8239586">
        <ele>152.0</ele>
        <time>2021-11-25T09:18:32Z</time>
      </trkpt>
      <trkpt lat="47.552174" lon="1.8239633">
        <ele>152.0</ele>
        <time>2021-11-25T09:18:33Z</time>
      </trkpt>
      <trkpt lat="47.552174" lon="1.8239672">
        <ele>152.0</ele>
        <time>2021-11-25T09:18:34Z</time>
      </trkpt>
      <trkpt lat="47.552177" lon="1.8239701">
        <ele>152.0</ele>
        <time>2021-11-25T09:18:35Z</time>
      </trkpt>
      <trkpt lat="47.552177" lon="1.8239703">
        <ele>152.0</ele>
        <time>2021-11-25T09:18:36Z</time>
      </trkpt>
      <trkpt lat="47.552177" lon="1.8239703">
        <ele>152.0</ele>
        <time>2021-11-25T09:18:36Z</time>
      </trkpt>
    </trkseg>
    <trkseg>
      <trkpt lat="47.552177" lon="1.8239703">
        <ele>152.0</ele>
        <time>2021-11-25T09:18:36Z</time>
      </trkpt>
      <trkpt lat="47.552235" lon="1.8239993">
        <ele>152.0</ele>
        <time>2021-11-25T09:18:44Z</time>
      </trkpt>
      <trkpt lat="47.552246" lon="1.8240104">
        <ele>152.0</ele>
        <time>2021-11-25T09:18:45Z</time>
      </trkpt>
      <trkpt lat="47.552258" lon="1.8240206">
        <ele>152.0</ele>
        <time>2021-11-25T09:18:46Z</time>
      </trkpt>
      <trkpt lat="47.552265" lon="1.8240297">
        <ele>152.0</ele>
        <time>2021-11-25T09:18:47Z</time>
      </trkpt>
      <trkpt lat="47.552277" lon="1.8240367">
        <ele>152.0</ele>
        <time>2021-11-25T09:18:48Z</time>
      </trkpt>
      <trkpt lat="47.552288" lon="1.8240395">
        <ele>152.0</ele>
        <time>2021-11-25T09:18:49Z</time>
      </trkpt>
      <trkpt lat="47.552296" lon="1.8240432">
        <ele>152.0</ele>
        <time>2021-11-25T09:18:50Z</time>
      </trkpt>
      <trkpt lat="47.552303" lon="1.8240522">
        <ele>152.0</ele>
        <time>2021-11-25T09:18:51Z</time>
      </trkpt>
      <trkpt lat="47.552315" lon="1.8240532">
        <ele>152.0</ele>
        <time>2021-11-25T09:18:52Z</time>
      </trkpt>
      <trkpt lat="47.55233" lon="1.824057">
        <ele>152.0</ele>
        <time>2021-11-25T09:18:53Z</time>
      </trkpt>
      <trkpt lat="47.552345" lon="1.824062">
        <ele>152.0</ele>
        <time>2021-11-25T09:18:54Z</time>
      </trkpt>
      <trkpt lat="47.55236" lon="1.8240608">
        <ele>152.0</ele>
        <time>2021-11-25T09:18:55Z</time>
      </trkpt>
      <trkpt lat="47.552372" lon="1.8240666">
        <ele>152.0</ele>
        <time>2021-11-25T09:18:56Z</time>
      </trkpt>
      <trkpt lat="47.552383" lon="1.8240753">
        <ele>152.0</ele>
        <time>2021-11-25T09:18:57Z</time>
      </trkpt>
      <trkpt lat="47.552395" lon="1.8240867">
        <ele>152.0</ele>
        <time>2021-11-25T09:18:58Z</time>
      </trkpt>
      <trkpt lat="47.55241" lon="1.8240968">
        <ele>152.0</ele>
        <time>2021-11-25T09:18:59Z</time>
      </trkpt>
      <trkpt lat="47.55242" lon="1.8241098">
        <ele>152.0</ele>
        <time>2021-11-25T09:19:00Z</time>
      </trkpt>
      <trkpt lat="47.552433" lon="1.8241197">
        <ele>152.0</ele>
        <time>2021-11-25T09:19:01Z</time>
      </trkpt>
      <trkpt lat="47.55244" lon="1.8241292">
        <ele>152.0</ele>
        <time>2021-11-25T09:19:02Z</time>
      </trkpt>
      <trkpt lat="47.552452" lon="1.8241409">
        <ele>151.0</ele>
        <time>2021-11-25T09:19:03Z</time>
      </trkpt>
      <trkpt lat="47.552464" lon="1.8241496">
        <ele>151.0</ele>
        <time>2021-11-25T09:19:04Z</time>
      </trkpt>
      <trkpt lat="47.552475" lon="1.8241601">
        <ele>151.0</ele>
        <time>2021-11-25T09:19:05Z</time>
      </trkpt>
      <trkpt lat="47.552486" lon="1.8241692">
        <ele>151.0</ele>
        <time>2021-11-25T09:19:06Z</time>
      </trkpt>
      <trkpt lat="47.552494" lon="1.8241841">
        <ele>151.0</ele>
        <time>2021-11-25T09:19:07Z</time>
      </trkpt>
      <trkpt lat="47.55251" lon="1.8241957">
        <ele>151.0</ele>
        <time>2021-11-25T09:19:08Z</time>
      </trkpt>
      <trkpt lat="47.55253" lon="1.8242072">
        <ele>151.0</ele>
        <time>2021-11-25T09:19:09Z</time>
      </trkpt>
      <trkpt lat="47.552544" lon="1.8242177">
        <ele>151.0</ele>
        <time>2021-11-25T09:19:10Z</time>
      </trkpt>
      <trkpt lat="47.55256" lon="1.8242297">
        <ele>151.0</ele>
        <time>2021-11-25T09:19:11Z</time>
      </trkpt>
      <trkpt lat="47.55257" lon="1.8242375">
        <ele>150.0</ele>
        <time>2021-11-25T09:19:12Z</time>
      </trkpt>
      <trkpt lat="47.552586" lon="1.8242495">
        <ele>151.0</ele>
        <time>2021-11-25T09:19:13Z</time>
      </trkpt>
      <trkpt lat="47.5526" lon="1.8242612">
        <ele>151.0</ele>
        <time>2021-11-25T09:19:14Z</time>
      </trkpt>
      <trkpt lat="47.55262" lon="1.8242731">
        <ele>151.0</ele>
        <time>2021-11-25T09:19:15Z</time>
      </trkpt>
      <trkpt lat="47.552635" lon="1.8242841">
        <ele>150.0</ele>
        <time>2021-11-25T09:19:16Z</time>
      </trkpt>
      <trkpt lat="47.55265" lon="1.8242973">
        <ele>150.0</ele>
        <time>2021-11-25T09:19:17Z</time>
      </trkpt>
      <trkpt lat="47.55266" lon="1.8243134">
        <ele>150.0</ele>
        <time>2021-11-25T09:19:18Z</time>
      </trkpt>
      <trkpt lat="47.55268" lon="1.8243324">
        <ele>151.0</ele>
        <time>2021-11-25T09:19:19Z</time>
      </trkpt>
      <trkpt lat="47.552696" lon="1.8243473">
        <ele>150.0</ele>
        <time>2021-11-25T09:19:20Z</time>
      </trkpt>
      <trkpt lat="47.552708" lon="1.8243561">
        <ele>150.0</ele>
        <time>2021-11-25T09:19:21Z</time>
      </trkpt>
      <trkpt lat="47.55272" lon="1.8243675">
        <ele>150.0</ele>
        <time>2021-11-25T09:19:22Z</time>
      </trkpt>
      <trkpt lat="47.55273" lon="1.8243725">
        <ele>150.0</ele>
        <time>2021-11-25T09:19:23Z</time>
      </trkpt>
      <trkpt lat="47.552746" lon="1.8243839">
        <ele>150.0</ele>
        <time>2021-11-25T09:19:24Z</time>
      </trkpt>
      <trkpt lat="47.552757" lon="1.8243997">
        <ele>150.0</ele>
        <time>2021-11-25T09:19:25Z</time>
      </trkpt>
      <trkpt lat="47.552773" lon="1.8244176">
        <ele>150.0</ele>
        <time>2021-11-25T09:19:26Z</time>
      </trkpt>
      <trkpt lat="47.552784" lon="1.8244308">
        <ele>150.0</ele>
        <time>2021-11-25T09:19:27Z</time>
      </trkpt>
      <trkpt lat="47.55279" lon="1.8244385">
        <ele>150.0</ele>
        <time>2021-11-25T09:19:28Z</time>
      </trkpt>
      <trkpt lat="47.552803" lon="1.8244534">
        <ele>149.0</ele>
        <time>2021-11-25T09:19:29Z</time>
      </trkpt>
      <trkpt lat="47.552814" lon="1.8244672">
        <ele>149.0</ele>
        <time>2021-11-25T09:19:30Z</time>
      </trkpt>
      <trkpt lat="47.55282" lon="1.8244827">
        <ele>149.0</ele>
        <time>2021-11-25T09:19:31Z</time>
      </trkpt>
      <trkpt lat="47.55283" lon="1.8244963">
        <ele>149.0</ele>
        <time>2021-11-25T09:19:32Z</time>
      </trkpt>
      <trkpt lat="47.55284" lon="1.824507">
        <ele>148.0</ele>
        <time>2021-11-25T09:19:33Z</time>
      </trkpt>
      <trkpt lat="47.552853" lon="1.8245186">
        <ele>148.0</ele>
        <time>2021-11-25T09:19:34Z</time>
      </trkpt>
      <trkpt lat="47.552864" lon="1.8245257">
        <ele>148.0</ele>
        <time>2021-11-25T09:19:35Z</time>
      </trkpt>
      <trkpt lat="47.55287" lon="1.8245368">
        <ele>148.0</ele>
        <time>2021-11-25T09:19:36Z</time>
      </trkpt>
      <trkpt lat="47.552883" lon="1.8245459">
        <ele>148.0</ele>
        <time>2021-11-25T09:19:37Z</time>
      </trkpt>
      <trkpt lat="47.55291" lon="1.8245678">
        <ele>148.0</ele>
        <time>2021-11-25T09:19:38Z</time>
      </trkpt>
      <trkpt lat="47.55291" lon="1.8245678">
        <ele>148.0</ele>
        <time>2021-11-25T09:19:38Z</time>
      </trkpt>
      <trkpt lat="47.552925" lon="1.8245798">
        <ele>148.0</ele>
        <time>2021-11-25T09:19:40Z</time>
      </trkpt>
      <trkpt lat="47.552937" lon="1.8245935">
        <ele>148.0</ele>
        <time>2021-11-25T09:19:41Z</time>
      </trkpt>
      <trkpt lat="47.552948" lon="1.8246056">
        <ele>148.0</ele>
        <time>2021-11-25T09:19:42Z</time>
      </trkpt>
      <trkpt lat="47.552963" lon="1.8246164">
        <ele>148.0</ele>
        <time>2021-11-25T09:19:43Z</time>
      </trkpt>
      <trkpt lat="47.55297" lon="1.8246343">
        <ele>148.0</ele>
        <time>2021-11-25T09:19:44Z</time>
      </trkpt>
      <trkpt lat="47.552982" lon="1.8246521">
        <ele>148.0</ele>
        <time>2021-11-25T09:19:45Z</time>
      </trkpt>
      <trkpt lat="47.55299" lon="1.8246685">
        <ele>148.0</ele>
        <time>2021-11-25T09:19:46Z</time>
      </trkpt>
      <trkpt lat="47.552998" lon="1.824681">
        <ele>147.0</ele>
        <time>2021-11-25T09:19:47Z</time>
      </trkpt>
      <trkpt lat="47.553005" lon="1.824693">
        <ele>147.0</ele>
        <time>2021-11-25T09:19:48Z</time>
      </trkpt>
      <trkpt lat="47.553017" lon="1.8247068">
        <ele>147.0</ele>
        <time>2021-11-25T09:19:49Z</time>
      </trkpt>
      <trkpt lat="47.55303" lon="1.8247162">
        <ele>147.0</ele>
        <time>2021-11-25T09:19:50Z</time>
      </trkpt>
      <trkpt lat="47.55304" lon="1.8247274">
        <ele>147.0</ele>
        <time>2021-11-25T09:19:51Z</time>
      </trkpt>
      <trkpt lat="47.55305" lon="1.8247391">
        <ele>146.0</ele>
        <time>2021-11-25T09:19:52Z</time>
      </trkpt>
      <trkpt lat="47.553066" lon="1.8247507">
        <ele>146.0</ele>
        <time>2021-11-25T09:19:53Z</time>
      </trkpt>
      <trkpt lat="47.55308" lon="1.8247617">
        <ele>146.0</ele>
        <time>2021-11-25T09:19:54Z</time>
      </trkpt>
      <trkpt lat="47.553097" lon="1.8247725">
        <ele>146.0</ele>
        <time>2021-11-25T09:19:55Z</time>
      </trkpt>
      <trkpt lat="47.55311" lon="1.8247845">
        <ele>146.0</ele>
        <time>2021-11-25T09:19:56Z</time>
      </trkpt>
      <trkpt lat="47.553123" lon="1.8248008">
        <ele>146.0</ele>
        <time>2021-11-25T09:19:57Z</time>
      </trkpt>
      <trkpt lat="47.553135" lon="1.8248156">
        <ele>146.0</ele>
        <time>2021-11-25T09:19:58Z</time>
      </trkpt>
      <trkpt lat="47.55315" lon="1.8248291">
        <ele>146.0</ele>
        <time>2021-11-25T09:19:59Z</time>
      </trkpt>
      <trkpt lat="47.55316" lon="1.8248466">
        <ele>146.0</ele>
        <time>2021-11-25T09:20:00Z</time>
      </trkpt>
      <trkpt lat="47.553173" lon="1.8248667">
        <ele>146.0</ele>
        <time>2021-11-25T09:20:01Z</time>
      </trkpt>
      <trkpt lat="47.553185" lon="1.8248806">
        <ele>146.0</ele>
        <time>2021-11-25T09:20:02Z</time>
      </trkpt>
      <trkpt lat="47.553207" lon="1.8249125">
        <ele>146.0</ele>
        <time>2021-11-25T09:20:03Z</time>
      </trkpt>
      <trkpt lat="47.553223" lon="1.8249298">
        <ele>146.0</ele>
        <time>2021-11-25T09:20:04Z</time>
      </trkpt>
      <trkpt lat="47.55323" lon="1.8249415">
        <ele>146.0</ele>
        <time>2021-11-25T09:20:05Z</time>
      </trkpt>
      <trkpt lat="47.55324" lon="1.8249545">
        <ele>146.0</ele>
        <time>2021-11-25T09:20:06Z</time>
      </trkpt>
      <trkpt lat="47.553253" lon="1.8249661">
        <ele>146.0</ele>
        <time>2021-11-25T09:20:07Z</time>
      </trkpt>
      <trkpt lat="47.553257" lon="1.8249755">
        <ele>146.0</ele>
        <time>2021-11-25T09:20:08Z</time>
      </trkpt>
      <trkpt lat="47.553265" lon="1.8249853">
        <ele>146.0</ele>
        <time>2021-11-25T09:20:09Z</time>
      </trkpt>
      <trkpt lat="47.553276" lon="1.8249964">
        <ele>146.0</ele>
        <time>2021-11-25T09:20:10Z</time>
      </trkpt>
      <trkpt lat="47.553284" lon="1.8250111">
        <ele>145.0</ele>
        <time>2021-11-25T09:20:11Z</time>
      </trkpt>
      <trkpt lat="47.553295" lon="1.8250254">
        <ele>145.0</ele>
        <time>2021-11-25T09:20:12Z</time>
      </trkpt>
      <trkpt lat="47.553307" lon="1.8250427">
        <ele>145.0</ele>
        <time>2021-11-25T09:20:13Z</time>
      </trkpt>
      <trkpt lat="47.553318" lon="1.8250577">
        <ele>145.0</ele>
        <time>2021-11-25T09:20:14Z</time>
      </trkpt>
      <trkpt lat="47.553326" lon="1.825069">
        <ele>145.0</ele>
        <time>2021-11-25T09:20:15Z</time>
      </trkpt>
      <trkpt lat="47.553337" lon="1.8250829">
        <ele>145.0</ele>
        <time>2021-11-25T09:20:16Z</time>
      </trkpt>
      <trkpt lat="47.553352" lon="1.8250985">
        <ele>145.0</ele>
        <time>2021-11-25T09:20:17Z</time>
      </trkpt>
      <trkpt lat="47.553364" lon="1.8251166">
        <ele>145.0</ele>
        <time>2021-11-25T09:20:18Z</time>
      </trkpt>
      <trkpt lat="47.55338" lon="1.8251318">
        <ele>145.0</ele>
        <time>2021-11-25T09:20:19Z</time>
      </trkpt>
      <trkpt lat="47.55339" lon="1.825145">
        <ele>145.0</ele>
        <time>2021-11-25T09:20:20Z</time>
      </trkpt>
      <trkpt lat="47.5534" lon="1.8251544">
        <ele>145.0</ele>
        <time>2021-11-25T09:20:21Z</time>
      </trkpt>
      <trkpt lat="47.553406" lon="1.825163">
        <ele>146.0</ele>
        <time>2021-11-25T09:20:22Z</time>
      </trkpt>
      <trkpt lat="47.553406" lon="1.825163">
        <ele>146.0</ele>
        <time>2021-11-25T09:20:22Z</time>
      </trkpt>
      <trkpt lat="47.55342" lon="1.8251821">
        <ele>146.0</ele>
        <time>2021-11-25T09:20:24Z</time>
      </trkpt>
      <trkpt lat="47.553432" lon="1.8251963">
        <ele>145.0</ele>
        <time>2021-11-25T09:20:25Z</time>
      </trkpt>
      <trkpt lat="47.553444" lon="1.8252101">
        <ele>145.0</ele>
        <time>2021-11-25T09:20:26Z</time>
      </trkpt>
      <trkpt lat="47.553455" lon="1.8252231">
        <ele>145.0</ele>
        <time>2021-11-25T09:20:27Z</time>
      </trkpt>
      <trkpt lat="47.553463" lon="1.8252391">
        <ele>146.0</ele>
        <time>2021-11-25T09:20:28Z</time>
      </trkpt>
      <trkpt lat="47.55347" lon="1.8252543">
        <ele>146.0</ele>
        <time>2021-11-25T09:20:29Z</time>
      </trkpt>
      <trkpt lat="47.55348" lon="1.8252696">
        <ele>145.0</ele>
        <time>2021-11-25T09:20:30Z</time>
      </trkpt>
      <trkpt lat="47.55349" lon="1.8252846">
        <ele>145.0</ele>
        <time>2021-11-25T09:20:31Z</time>
      </trkpt>
      <trkpt lat="47.5535" lon="1.8253052">
        <ele>145.0</ele>
        <time>2021-11-25T09:20:32Z</time>
      </trkpt>
      <trkpt lat="47.55351" lon="1.8253263">
        <ele>145.0</ele>
        <time>2021-11-25T09:20:33Z</time>
      </trkpt>
      <trkpt lat="47.553516" lon="1.8253438">
        <ele>145.0</ele>
        <time>2021-11-25T09:20:34Z</time>
      </trkpt>
      <trkpt lat="47.553516" lon="1.8253438">
        <ele>145.0</ele>
        <time>2021-11-25T09:20:34Z</time>
      </trkpt>
      <trkpt lat="47.553528" lon="1.8253616">
        <ele>145.0</ele>
        <time>2021-11-25T09:20:36Z</time>
      </trkpt>
      <trkpt lat="47.55354" lon="1.8253808">
        <ele>145.0</ele>
        <time>2021-11-25T09:20:37Z</time>
      </trkpt>
      <trkpt lat="47.553547" lon="1.8253928">
        <ele>144.0</ele>
        <time>2021-11-25T09:20:38Z</time>
      </trkpt>
      <trkpt lat="47.553566" lon="1.8254253">
        <ele>144.0</ele>
        <time>2021-11-25T09:20:39Z</time>
      </trkpt>
      <trkpt lat="47.553566" lon="1.8254253">
        <ele>144.0</ele>
        <time>2021-11-25T09:20:39Z</time>
      </trkpt>
      <trkpt lat="47.55358" lon="1.8254395">
        <ele>144.0</ele>
        <time>2021-11-25T09:20:41Z</time>
      </trkpt>
      <trkpt lat="47.553596" lon="1.8254787">
        <ele>144.0</ele>
        <time>2021-11-25T09:20:42Z</time>
      </trkpt>
      <trkpt lat="47.553596" lon="1.8254787">
        <ele>144.0</ele>
        <time>2021-11-25T09:20:42Z</time>
      </trkpt>
      <trkpt lat="47.553604" lon="1.825502">
        <ele>143.0</ele>
        <time>2021-11-25T09:20:44Z</time>
      </trkpt>
      <trkpt lat="47.55361" lon="1.825521">
        <ele>143.0</ele>
        <time>2021-11-25T09:20:45Z</time>
      </trkpt>
      <trkpt lat="47.55364" lon="1.8255688">
        <ele>143.0</ele>
        <time>2021-11-25T09:20:46Z</time>
      </trkpt>
      <trkpt lat="47.553642" lon="1.82559">
        <ele>142.0</ele>
        <time>2021-11-25T09:20:47Z</time>
      </trkpt>
      <trkpt lat="47.55365" lon="1.8256097">
        <ele>142.0</ele>
        <time>2021-11-25T09:20:48Z</time>
      </trkpt>
      <trkpt lat="47.55365" lon="1.8256097">
        <ele>142.0</ele>
        <time>2021-11-25T09:20:48Z</time>
      </trkpt>
      <trkpt lat="47.55367" lon="1.8256481">
        <ele>142.0</ele>
        <time>2021-11-25T09:20:50Z</time>
      </trkpt>
      <trkpt lat="47.55368" lon="1.8256713">
        <ele>142.0</ele>
        <time>2021-11-25T09:20:51Z</time>
      </trkpt>
      <trkpt lat="47.553688" lon="1.8256917">
        <ele>142.0</ele>
        <time>2021-11-25T09:20:52Z</time>
      </trkpt>
      <trkpt lat="47.55369" lon="1.8257115">
        <ele>142.0</ele>
        <time>2021-11-25T09:20:53Z</time>
      </trkpt>
      <trkpt lat="47.5537" lon="1.8257327">
        <ele>141.0</ele>
        <time>2021-11-25T09:20:54Z</time>
      </trkpt>
      <trkpt lat="47.553707" lon="1.8257502">
        <ele>141.0</ele>
        <time>2021-11-25T09:20:55Z</time>
      </trkpt>
      <trkpt lat="47.553715" lon="1.8257637">
        <ele>141.0</ele>
        <time>2021-11-25T09:20:56Z</time>
      </trkpt>
      <trkpt lat="47.553722" lon="1.8257716">
        <ele>142.0</ele>
        <time>2021-11-25T09:20:57Z</time>
      </trkpt>
      <trkpt lat="47.55373" lon="1.8257805">
        <ele>142.0</ele>
        <time>2021-11-25T09:20:58Z</time>
      </trkpt>
      <trkpt lat="47.55374" lon="1.8257895">
        <ele>141.0</ele>
        <time>2021-11-25T09:20:59Z</time>
      </trkpt>
      <trkpt lat="47.553753" lon="1.8258057">
        <ele>142.0</ele>
        <time>2021-11-25T09:21:00Z</time>
      </trkpt>
      <trkpt lat="47.553757" lon="1.8258227">
        <ele>141.0</ele>
        <time>2021-11-25T09:21:01Z</time>
      </trkpt>
      <trkpt lat="47.553757" lon="1.8258227">
        <ele>141.0</ele>
        <time>2021-11-25T09:21:01Z</time>
      </trkpt>
      <trkpt lat="47.55376" lon="1.8258383">
        <ele>141.0</ele>
        <time>2021-11-25T09:21:03Z</time>
      </trkpt>
      <trkpt lat="47.55377" lon="1.8258713">
        <ele>141.0</ele>
        <time>2021-11-25T09:21:04Z</time>
      </trkpt>
      <trkpt lat="47.55378" lon="1.8258948">
        <ele>140.0</ele>
        <time>2021-11-25T09:21:05Z</time>
      </trkpt>
      <trkpt lat="47.55378" lon="1.8258948">
        <ele>140.0</ele>
        <time>2021-11-25T09:21:05Z</time>
      </trkpt>
      <trkpt lat="47.553802" lon="1.8259307">
        <ele>141.0</ele>
        <time>2021-11-25T09:21:07Z</time>
      </trkpt>
      <trkpt lat="47.553802" lon="1.8259307">
        <ele>141.0</ele>
        <time>2021-11-25T09:21:07Z</time>
      </trkpt>
      <trkpt lat="47.553825" lon="1.8259774">
        <ele>141.0</ele>
        <time>2021-11-25T09:21:09Z</time>
      </trkpt>
      <trkpt lat="47.553833" lon="1.8259972">
        <ele>141.0</ele>
        <time>2021-11-25T09:21:10Z</time>
      </trkpt>
      <trkpt lat="47.55384" lon="1.8260161">
        <ele>142.0</ele>
        <time>2021-11-25T09:21:11Z</time>
      </trkpt>
      <trkpt lat="47.55385" lon="1.8260365">
        <ele>141.0</ele>
        <time>2021-11-25T09:21:12Z</time>
      </trkpt>
      <trkpt lat="47.553852" lon="1.8260537">
        <ele>141.0</ele>
        <time>2021-11-25T09:21:13Z</time>
      </trkpt>
      <trkpt lat="47.55386" lon="1.8260688">
        <ele>141.0</ele>
        <time>2021-11-25T09:21:14Z</time>
      </trkpt>
      <trkpt lat="47.553867" lon="1.8260907">
        <ele>141.0</ele>
        <time>2021-11-25T09:21:15Z</time>
      </trkpt>
      <trkpt lat="47.55387" lon="1.826116">
        <ele>141.0</ele>
        <time>2021-11-25T09:21:16Z</time>
      </trkpt>
      <trkpt lat="47.553883" lon="1.8261307">
        <ele>140.0</ele>
        <time>2021-11-25T09:21:17Z</time>
      </trkpt>
      <trkpt lat="47.55389" lon="1.8261478">
        <ele>140.0</ele>
        <time>2021-11-25T09:21:18Z</time>
      </trkpt>
      <trkpt lat="47.553898" lon="1.8261646">
        <ele>140.0</ele>
        <time>2021-11-25T09:21:19Z</time>
      </trkpt>
      <trkpt lat="47.55391" lon="1.8261788">
        <ele>139.0</ele>
        <time>2021-11-25T09:21:20Z</time>
      </trkpt>
      <trkpt lat="47.553917" lon="1.826196">
        <ele>139.0</ele>
        <time>2021-11-25T09:21:21Z</time>
      </trkpt>
      <trkpt lat="47.553925" lon="1.826211">
        <ele>139.0</ele>
        <time>2021-11-25T09:21:22Z</time>
      </trkpt>
      <trkpt lat="47.553936" lon="1.8262252">
        <ele>139.0</ele>
        <time>2021-11-25T09:21:23Z</time>
      </trkpt>
      <trkpt lat="47.553947" lon="1.8262421">
        <ele>139.0</ele>
        <time>2021-11-25T09:21:24Z</time>
      </trkpt>
      <trkpt lat="47.55395" lon="1.8262573">
        <ele>139.0</ele>
        <time>2021-11-25T09:21:25Z</time>
      </trkpt>
      <trkpt lat="47.553963" lon="1.8262788">
        <ele>139.0</ele>
        <time>2021-11-25T09:21:26Z</time>
      </trkpt>
      <trkpt lat="47.55397" lon="1.826297">
        <ele>140.0</ele>
        <time>2021-11-25T09:21:27Z</time>
      </trkpt>
      <trkpt lat="47.553978" lon="1.8263174">
        <ele>140.0</ele>
        <time>2021-11-25T09:21:28Z</time>
      </trkpt>
      <trkpt lat="47.55399" lon="1.8263378">
        <ele>139.0</ele>
        <time>2021-11-25T09:21:29Z</time>
      </trkpt>
      <trkpt lat="47.554" lon="1.8263572">
        <ele>140.0</ele>
        <time>2021-11-25T09:21:30Z</time>
      </trkpt>
      <trkpt lat="47.554012" lon="1.8263713">
        <ele>140.0</ele>
        <time>2021-11-25T09:21:31Z</time>
      </trkpt>
      <trkpt lat="47.554024" lon="1.8263905">
        <ele>140.0</ele>
        <time>2021-11-25T09:21:32Z</time>
      </trkpt>
      <trkpt lat="47.554035" lon="1.826412">
        <ele>140.0</ele>
        <time>2021-11-25T09:21:33Z</time>
      </trkpt>
      <trkpt lat="47.55405" lon="1.8264303">
        <ele>140.0</ele>
        <time>2021-11-25T09:21:34Z</time>
      </trkpt>
      <trkpt lat="47.55406" lon="1.8264477">
        <ele>141.0</ele>
        <time>2021-11-25T09:21:35Z</time>
      </trkpt>
      <trkpt lat="47.55407" lon="1.8264635">
        <ele>141.0</ele>
        <time>2021-11-25T09:21:36Z</time>
      </trkpt>
      <trkpt lat="47.55408" lon="1.8264799">
        <ele>141.0</ele>
        <time>2021-11-25T09:21:37Z</time>
      </trkpt>
      <trkpt lat="47.55409" lon="1.8264984">
        <ele>141.0</ele>
        <time>2021-11-25T09:21:38Z</time>
      </trkpt>
      <trkpt lat="47.554104" lon="1.8265125">
        <ele>141.0</ele>
        <time>2021-11-25T09:21:39Z</time>
      </trkpt>
      <trkpt lat="47.554115" lon="1.8265291">
        <ele>141.0</ele>
        <time>2021-11-25T09:21:40Z</time>
      </trkpt>
      <trkpt lat="47.554127" lon="1.8265452">
        <ele>141.0</ele>
        <time>2021-11-25T09:21:41Z</time>
      </trkpt>
      <trkpt lat="47.55414" lon="1.8265597">
        <ele>141.0</ele>
        <time>2021-11-25T09:21:42Z</time>
      </trkpt>
      <trkpt lat="47.55415" lon="1.826576">
        <ele>141.0</ele>
        <time>2021-11-25T09:21:43Z</time>
      </trkpt>
      <trkpt lat="47.554157" lon="1.8265947">
        <ele>142.0</ele>
        <time>2021-11-25T09:21:44Z</time>
      </trkpt>
      <trkpt lat="47.55417" lon="1.826611">
        <ele>141.0</ele>
        <time>2021-11-25T09:21:45Z</time>
      </trkpt>
      <trkpt lat="47.554184" lon="1.8266193">
        <ele>142.0</ele>
        <time>2021-11-25T09:21:46Z</time>
      </trkpt>
      <trkpt lat="47.554195" lon="1.8266287">
        <ele>142.0</ele>
        <time>2021-11-25T09:21:47Z</time>
      </trkpt>
      <trkpt lat="47.55421" lon="1.8266375">
        <ele>142.0</ele>
        <time>2021-11-25T09:21:48Z</time>
      </trkpt>
      <trkpt lat="47.554222" lon="1.826654">
        <ele>143.0</ele>
        <time>2021-11-25T09:21:49Z</time>
      </trkpt>
      <trkpt lat="47.554237" lon="1.8266693">
        <ele>143.0</ele>
        <time>2021-11-25T09:21:50Z</time>
      </trkpt>
      <trkpt lat="47.55425" lon="1.8266807">
        <ele>143.0</ele>
        <time>2021-11-25T09:21:51Z</time>
      </trkpt>
      <trkpt lat="47.554256" lon="1.826696">
        <ele>143.0</ele>
        <time>2021-11-25T09:21:52Z</time>
      </trkpt>
      <trkpt lat="47.554264" lon="1.8267183">
        <ele>143.0</ele>
        <time>2021-11-25T09:21:53Z</time>
      </trkpt>
      <trkpt lat="47.554276" lon="1.8267344">
        <ele>143.0</ele>
        <time>2021-11-25T09:21:54Z</time>
      </trkpt>
      <trkpt lat="47.554287" lon="1.8267477">
        <ele>143.0</ele>
        <time>2021-11-25T09:21:55Z</time>
      </trkpt>
      <trkpt lat="47.5543" lon="1.8267599">
        <ele>143.0</ele>
        <time>2021-11-25T09:21:56Z</time>
      </trkpt>
      <trkpt lat="47.55431" lon="1.8267798">
        <ele>143.0</ele>
        <time>2021-11-25T09:21:57Z</time>
      </trkpt>
      <trkpt lat="47.55432" lon="1.826797">
        <ele>143.0</ele>
        <time>2021-11-25T09:21:58Z</time>
      </trkpt>
      <trkpt lat="47.554337" lon="1.8268156">
        <ele>143.0</ele>
        <time>2021-11-25T09:21:59Z</time>
      </trkpt>
      <trkpt lat="47.554344" lon="1.8268335">
        <ele>143.0</ele>
        <time>2021-11-25T09:22:00Z</time>
      </trkpt>
      <trkpt lat="47.554356" lon="1.8268468">
        <ele>144.0</ele>
        <time>2021-11-25T09:22:01Z</time>
      </trkpt>
      <trkpt lat="47.554363" lon="1.8268645">
        <ele>144.0</ele>
        <time>2021-11-25T09:22:02Z</time>
      </trkpt>
      <trkpt lat="47.554375" lon="1.8268791">
        <ele>144.0</ele>
        <time>2021-11-25T09:22:03Z</time>
      </trkpt>
      <trkpt lat="47.554386" lon="1.8268945">
        <ele>144.0</ele>
        <time>2021-11-25T09:22:04Z</time>
      </trkpt>
      <trkpt lat="47.554394" lon="1.8269083">
        <ele>144.0</ele>
        <time>2021-11-25T09:22:05Z</time>
      </trkpt>
      <trkpt lat="47.554405" lon="1.8269213">
        <ele>144.0</ele>
        <time>2021-11-25T09:22:06Z</time>
      </trkpt>
      <trkpt lat="47.554413" lon="1.8269371">
        <ele>144.0</ele>
        <time>2021-11-25T09:22:07Z</time>
      </trkpt>
      <trkpt lat="47.554424" lon="1.8269551">
        <ele>144.0</ele>
        <time>2021-11-25T09:22:08Z</time>
      </trkpt>
      <trkpt lat="47.554436" lon="1.8269727">
        <ele>144.0</ele>
        <time>2021-11-25T09:22:09Z</time>
      </trkpt>
      <trkpt lat="47.554447" lon="1.8269926">
        <ele>145.0</ele>
        <time>2021-11-25T09:22:10Z</time>
      </trkpt>
      <trkpt lat="47.554455" lon="1.8270115">
        <ele>145.0</ele>
        <time>2021-11-25T09:22:11Z</time>
      </trkpt>
      <trkpt lat="47.554462" lon="1.8270295">
        <ele>145.0</ele>
        <time>2021-11-25T09:22:12Z</time>
      </trkpt>
      <trkpt lat="47.55447" lon="1.8270452">
        <ele>145.0</ele>
        <time>2021-11-25T09:22:13Z</time>
      </trkpt>
      <trkpt lat="47.55448" lon="1.8270606">
        <ele>145.0</ele>
        <time>2021-11-25T09:22:14Z</time>
      </trkpt>
      <trkpt lat="47.55449" lon="1.8270777">
        <ele>145.0</ele>
        <time>2021-11-25T09:22:15Z</time>
      </trkpt>
      <trkpt lat="47.554497" lon="1.8270924">
        <ele>145.0</ele>
        <time>2021-11-25T09:22:16Z</time>
      </trkpt>
      <trkpt lat="47.554504" lon="1.8271083">
        <ele>145.0</ele>
        <time>2021-11-25T09:22:17Z</time>
      </trkpt>
      <trkpt lat="47.554512" lon="1.8271269">
        <ele>146.0</ele>
        <time>2021-11-25T09:22:18Z</time>
      </trkpt>
      <trkpt lat="47.554523" lon="1.8271469">
        <ele>146.0</ele>
        <time>2021-11-25T09:22:19Z</time>
      </trkpt>
      <trkpt lat="47.55453" lon="1.8271636">
        <ele>146.0</ele>
        <time>2021-11-25T09:22:20Z</time>
      </trkpt>
      <trkpt lat="47.554543" lon="1.8271844">
        <ele>146.0</ele>
        <time>2021-11-25T09:22:21Z</time>
      </trkpt>
      <trkpt lat="47.554554" lon="1.8272059">
        <ele>146.0</ele>
        <time>2021-11-25T09:22:22Z</time>
      </trkpt>
      <trkpt lat="47.55456" lon="1.8272266">
        <ele>146.0</ele>
        <time>2021-11-25T09:22:23Z</time>
      </trkpt>
      <trkpt lat="47.55457" lon="1.827246">
        <ele>146.0</ele>
        <time>2021-11-25T09:22:24Z</time>
      </trkpt>
      <trkpt lat="47.554577" lon="1.8272616">
        <ele>147.0</ele>
        <time>2021-11-25T09:22:25Z</time>
      </trkpt>
      <trkpt lat="47.554585" lon="1.8272779">
        <ele>147.0</ele>
        <time>2021-11-25T09:22:26Z</time>
      </trkpt>
      <trkpt lat="47.554596" lon="1.8272879">
        <ele>147.0</ele>
        <time>2021-11-25T09:22:27Z</time>
      </trkpt>
      <trkpt lat="47.5546" lon="1.8273027">
        <ele>147.0</ele>
        <time>2021-11-25T09:22:28Z</time>
      </trkpt>
      <trkpt lat="47.554607" lon="1.8273128">
        <ele>147.0</ele>
        <time>2021-11-25T09:22:29Z</time>
      </trkpt>
      <trkpt lat="47.554615" lon="1.8273298">
        <ele>147.0</ele>
        <time>2021-11-25T09:22:30Z</time>
      </trkpt>
      <trkpt lat="47.554623" lon="1.8273476">
        <ele>147.0</ele>
        <time>2021-11-25T09:22:31Z</time>
      </trkpt>
      <trkpt lat="47.554634" lon="1.8273627">
        <ele>147.0</ele>
        <time>2021-11-25T09:22:32Z</time>
      </trkpt>
      <trkpt lat="47.55464" lon="1.8273787">
        <ele>147.0</ele>
        <time>2021-11-25T09:22:33Z</time>
      </trkpt>
      <trkpt lat="47.554653" lon="1.827398">
        <ele>147.0</ele>
        <time>2021-11-25T09:22:34Z</time>
      </trkpt>
      <trkpt lat="47.55466" lon="1.8274179">
        <ele>147.0</ele>
        <time>2021-11-25T09:22:35Z</time>
      </trkpt>
      <trkpt lat="47.554672" lon="1.8274387">
        <ele>146.0</ele>
        <time>2021-11-25T09:22:36Z</time>
      </trkpt>
      <trkpt lat="47.554676" lon="1.8274603">
        <ele>146.0</ele>
        <time>2021-11-25T09:22:37Z</time>
      </trkpt>
      <trkpt lat="47.554684" lon="1.8274795">
        <ele>146.0</ele>
        <time>2021-11-25T09:22:38Z</time>
      </trkpt>
      <trkpt lat="47.55469" lon="1.8274977">
        <ele>146.0</ele>
        <time>2021-11-25T09:22:39Z</time>
      </trkpt>
      <trkpt lat="47.5547" lon="1.8275139">
        <ele>146.0</ele>
        <time>2021-11-25T09:22:40Z</time>
      </trkpt>
      <trkpt lat="47.554707" lon="1.827532">
        <ele>146.0</ele>
        <time>2021-11-25T09:22:41Z</time>
      </trkpt>
      <trkpt lat="47.554714" lon="1.8275472">
        <ele>146.0</ele>
        <time>2021-11-25T09:22:42Z</time>
      </trkpt>
      <trkpt lat="47.554726" lon="1.8275639">
        <ele>146.0</ele>
        <time>2021-11-25T09:22:43Z</time>
      </trkpt>
      <trkpt lat="47.554737" lon="1.8275822">
        <ele>146.0</ele>
        <time>2021-11-25T09:22:44Z</time>
      </trkpt>
      <trkpt lat="47.55475" lon="1.8276027">
        <ele>146.0</ele>
        <time>2021-11-25T09:22:45Z</time>
      </trkpt>
      <trkpt lat="47.554756" lon="1.8276222">
        <ele>147.0</ele>
        <time>2021-11-25T09:22:46Z</time>
      </trkpt>
      <trkpt lat="47.554764" lon="1.8276416">
        <ele>147.0</ele>
        <time>2021-11-25T09:22:47Z</time>
      </trkpt>
      <trkpt lat="47.55477" lon="1.8276604">
        <ele>147.0</ele>
        <time>2021-11-25T09:22:48Z</time>
      </trkpt>
      <trkpt lat="47.55477" lon="1.8276796">
        <ele>147.0</ele>
        <time>2021-11-25T09:22:49Z</time>
      </trkpt>
      <trkpt lat="47.554775" lon="1.8276993">
        <ele>146.0</ele>
        <time>2021-11-25T09:22:50Z</time>
      </trkpt>
      <trkpt lat="47.554775" lon="1.8277203">
        <ele>146.0</ele>
        <time>2021-11-25T09:22:51Z</time>
      </trkpt>
      <trkpt lat="47.55478" lon="1.8277391">
        <ele>146.0</ele>
        <time>2021-11-25T09:22:52Z</time>
      </trkpt>
      <trkpt lat="47.554787" lon="1.827762">
        <ele>146.0</ele>
        <time>2021-11-25T09:22:53Z</time>
      </trkpt>
      <trkpt lat="47.554794" lon="1.8277831">
        <ele>146.0</ele>
        <time>2021-11-25T09:22:54Z</time>
      </trkpt>
      <trkpt lat="47.5548" lon="1.8278043">
        <ele>146.0</ele>
        <time>2021-11-25T09:22:55Z</time>
      </trkpt>
      <trkpt lat="47.554806" lon="1.8278284">
        <ele>146.0</ele>
        <time>2021-11-25T09:22:56Z</time>
      </trkpt>
      <trkpt lat="47.55481" lon="1.8278517">
        <ele>146.0</ele>
        <time>2021-11-25T09:22:57Z</time>
      </trkpt>
      <trkpt lat="47.554813" lon="1.8278679">
        <ele>146.0</ele>
        <time>2021-11-25T09:22:58Z</time>
      </trkpt>
      <trkpt lat="47.55482" lon="1.8278866">
        <ele>146.0</ele>
        <time>2021-11-25T09:22:59Z</time>
      </trkpt>
      <trkpt lat="47.55483" lon="1.8279047">
        <ele>146.0</ele>
        <time>2021-11-25T09:23:00Z</time>
      </trkpt>
      <trkpt lat="47.55484" lon="1.8279237">
        <ele>146.0</ele>
        <time>2021-11-25T09:23:01Z</time>
      </trkpt>
      <trkpt lat="47.554848" lon="1.8279443">
        <ele>146.0</ele>
        <time>2021-11-25T09:23:02Z</time>
      </trkpt>
      <trkpt lat="47.554855" lon="1.8279685">
        <ele>146.0</ele>
        <time>2021-11-25T09:23:03Z</time>
      </trkpt>
      <trkpt lat="47.554863" lon="1.827986">
        <ele>146.0</ele>
        <time>2021-11-25T09:23:04Z</time>
      </trkpt>
      <trkpt lat="47.55487" lon="1.8280019">
        <ele>146.0</ele>
        <time>2021-11-25T09:23:05Z</time>
      </trkpt>
      <trkpt lat="47.554882" lon="1.8280199">
        <ele>146.0</ele>
        <time>2021-11-25T09:23:06Z</time>
      </trkpt>
      <trkpt lat="47.55489" lon="1.8280408">
        <ele>145.0</ele>
        <time>2021-11-25T09:23:07Z</time>
      </trkpt>
      <trkpt lat="47.5549" lon="1.8280629">
        <ele>146.0</ele>
        <time>2021-11-25T09:23:08Z</time>
      </trkpt>
      <trkpt lat="47.55491" lon="1.828084">
        <ele>146.0</ele>
        <time>2021-11-25T09:23:09Z</time>
      </trkpt>
      <trkpt lat="47.554913" lon="1.8281009">
        <ele>146.0</ele>
        <time>2021-11-25T09:23:10Z</time>
      </trkpt>
      <trkpt lat="47.554916" lon="1.828119">
        <ele>146.0</ele>
        <time>2021-11-25T09:23:11Z</time>
      </trkpt>
      <trkpt lat="47.55492" lon="1.8281413">
        <ele>146.0</ele>
        <time>2021-11-25T09:23:12Z</time>
      </trkpt>
      <trkpt lat="47.554924" lon="1.8281599">
        <ele>146.0</ele>
        <time>2021-11-25T09:23:13Z</time>
      </trkpt>
      <trkpt lat="47.55493" lon="1.8281723">
        <ele>146.0</ele>
        <time>2021-11-25T09:23:14Z</time>
      </trkpt>
      <trkpt lat="47.55494" lon="1.8281872">
        <ele>146.0</ele>
        <time>2021-11-25T09:23:15Z</time>
      </trkpt>
      <trkpt lat="47.554947" lon="1.8282051">
        <ele>147.0</ele>
        <time>2021-11-25T09:23:16Z</time>
      </trkpt>
      <trkpt lat="47.554955" lon="1.828227">
        <ele>146.0</ele>
        <time>2021-11-25T09:23:17Z</time>
      </trkpt>
      <trkpt lat="47.554962" lon="1.8282497">
        <ele>146.0</ele>
        <time>2021-11-25T09:23:18Z</time>
      </trkpt>
      <trkpt lat="47.554974" lon="1.828271">
        <ele>146.0</ele>
        <time>2021-11-25T09:23:19Z</time>
      </trkpt>
      <trkpt lat="47.55498" lon="1.828288">
        <ele>146.0</ele>
        <time>2021-11-25T09:23:20Z</time>
      </trkpt>
      <trkpt lat="47.55499" lon="1.8283105">
        <ele>146.0</ele>
        <time>2021-11-25T09:23:21Z</time>
      </trkpt>
      <trkpt lat="47.554996" lon="1.8283318">
        <ele>145.0</ele>
        <time>2021-11-25T09:23:22Z</time>
      </trkpt>
      <trkpt lat="47.555004" lon="1.8283492">
        <ele>145.0</ele>
        <time>2021-11-25T09:23:23Z</time>
      </trkpt>
      <trkpt lat="47.555008" lon="1.8283675">
        <ele>146.0</ele>
        <time>2021-11-25T09:23:24Z</time>
      </trkpt>
      <trkpt lat="47.55501" lon="1.8283854">
        <ele>145.0</ele>
        <time>2021-11-25T09:23:25Z</time>
      </trkpt>
      <trkpt lat="47.55502" lon="1.8283983">
        <ele>145.0</ele>
        <time>2021-11-25T09:23:26Z</time>
      </trkpt>
      <trkpt lat="47.555023" lon="1.8284128">
        <ele>145.0</ele>
        <time>2021-11-25T09:23:27Z</time>
      </trkpt>
      <trkpt lat="47.555027" lon="1.8284305">
        <ele>145.0</ele>
        <time>2021-11-25T09:23:28Z</time>
      </trkpt>
      <trkpt lat="47.555035" lon="1.8284435">
        <ele>145.0</ele>
        <time>2021-11-25T09:23:29Z</time>
      </trkpt>
      <trkpt lat="47.555046" lon="1.8284595">
        <ele>145.0</ele>
        <time>2021-11-25T09:23:30Z</time>
      </trkpt>
      <trkpt lat="47.555058" lon="1.8284769">
        <ele>145.0</ele>
        <time>2021-11-25T09:23:31Z</time>
      </trkpt>
      <trkpt lat="47.55507" lon="1.8284923">
        <ele>145.0</ele>
        <time>2021-11-25T09:23:32Z</time>
      </trkpt>
      <trkpt lat="47.555084" lon="1.8285123">
        <ele>145.0</ele>
        <time>2021-11-25T09:23:33Z</time>
      </trkpt>
      <trkpt lat="47.55509" lon="1.828534">
        <ele>145.0</ele>
        <time>2021-11-25T09:23:34Z</time>
      </trkpt>
      <trkpt lat="47.5551" lon="1.8285503">
        <ele>145.0</ele>
        <time>2021-11-25T09:23:35Z</time>
      </trkpt>
      <trkpt lat="47.555107" lon="1.828562">
        <ele>145.0</ele>
        <time>2021-11-25T09:23:36Z</time>
      </trkpt>
      <trkpt lat="47.555115" lon="1.828579">
        <ele>145.0</ele>
        <time>2021-11-25T09:23:37Z</time>
      </trkpt>
      <trkpt lat="47.555115" lon="1.8285908">
        <ele>146.0</ele>
        <time>2021-11-25T09:23:38Z</time>
      </trkpt>
      <trkpt lat="47.555122" lon="1.8286077">
        <ele>145.0</ele>
        <time>2021-11-25T09:23:39Z</time>
      </trkpt>
      <trkpt lat="47.55513" lon="1.8286238">
        <ele>145.0</ele>
        <time>2021-11-25T09:23:40Z</time>
      </trkpt>
      <trkpt lat="47.555138" lon="1.828636">
        <ele>145.0</ele>
        <time>2021-11-25T09:23:41Z</time>
      </trkpt>
      <trkpt lat="47.55514" lon="1.828653">
        <ele>145.0</ele>
        <time>2021-11-25T09:23:42Z</time>
      </trkpt>
      <trkpt lat="47.555153" lon="1.8286676">
        <ele>145.0</ele>
        <time>2021-11-25T09:23:43Z</time>
      </trkpt>
      <trkpt lat="47.55517" lon="1.828681">
        <ele>145.0</ele>
        <time>2021-11-25T09:23:44Z</time>
      </trkpt>
      <trkpt lat="47.555176" lon="1.8286873">
        <ele>145.0</ele>
        <time>2021-11-25T09:23:45Z</time>
      </trkpt>
      <trkpt lat="47.555183" lon="1.8286986">
        <ele>145.0</ele>
        <time>2021-11-25T09:23:46Z</time>
      </trkpt>
      <trkpt lat="47.55519" lon="1.8287108">
        <ele>145.0</ele>
        <time>2021-11-25T09:23:47Z</time>
      </trkpt>
      <trkpt lat="47.5552" lon="1.8287224">
        <ele>145.0</ele>
        <time>2021-11-25T09:23:48Z</time>
      </trkpt>
      <trkpt lat="47.55521" lon="1.8287388">
        <ele>145.0</ele>
        <time>2021-11-25T09:23:49Z</time>
      </trkpt>
      <trkpt lat="47.55522" lon="1.8287531">
        <ele>145.0</ele>
        <time>2021-11-25T09:23:50Z</time>
      </trkpt>
      <trkpt lat="47.555233" lon="1.8287717">
        <ele>145.0</ele>
        <time>2021-11-25T09:23:51Z</time>
      </trkpt>
      <trkpt lat="47.555244" lon="1.8287859">
        <ele>146.0</ele>
        <time>2021-11-25T09:23:52Z</time>
      </trkpt>
      <trkpt lat="47.555252" lon="1.8288007">
        <ele>146.0</ele>
        <time>2021-11-25T09:23:53Z</time>
      </trkpt>
      <trkpt lat="47.55526" lon="1.8288213">
        <ele>146.0</ele>
        <time>2021-11-25T09:23:54Z</time>
      </trkpt>
      <trkpt lat="47.555267" lon="1.828835">
        <ele>145.0</ele>
        <time>2021-11-25T09:23:55Z</time>
      </trkpt>
      <trkpt lat="47.55528" lon="1.8288456">
        <ele>145.0</ele>
        <time>2021-11-25T09:23:56Z</time>
      </trkpt>
      <trkpt lat="47.555286" lon="1.8288625">
        <ele>145.0</ele>
        <time>2021-11-25T09:23:57Z</time>
      </trkpt>
      <trkpt lat="47.555294" lon="1.828881">
        <ele>145.0</ele>
        <time>2021-11-25T09:23:58Z</time>
      </trkpt>
      <trkpt lat="47.555305" lon="1.8289027">
        <ele>145.0</ele>
        <time>2021-11-25T09:23:59Z</time>
      </trkpt>
      <trkpt lat="47.55531" lon="1.8289174">
        <ele>144.0</ele>
        <time>2021-11-25T09:24:00Z</time>
      </trkpt>
      <trkpt lat="47.555313" lon="1.8289335">
        <ele>144.0</ele>
        <time>2021-11-25T09:24:01Z</time>
      </trkpt>
      <trkpt lat="47.555325" lon="1.8289526">
        <ele>144.0</ele>
        <time>2021-11-25T09:24:02Z</time>
      </trkpt>
      <trkpt lat="47.555332" lon="1.8289725">
        <ele>144.0</ele>
        <time>2021-11-25T09:24:03Z</time>
      </trkpt>
      <trkpt lat="47.555344" lon="1.828985">
        <ele>144.0</ele>
        <time>2021-11-25T09:24:04Z</time>
      </trkpt>
      <trkpt lat="47.555355" lon="1.8290007">
        <ele>144.0</ele>
        <time>2021-11-25T09:24:05Z</time>
      </trkpt>
      <trkpt lat="47.555367" lon="1.8290126">
        <ele>144.0</ele>
        <time>2021-11-25T09:24:06Z</time>
      </trkpt>
      <trkpt lat="47.555374" lon="1.829031">
        <ele>143.0</ele>
        <time>2021-11-25T09:24:07Z</time>
      </trkpt>
      <trkpt lat="47.55538" lon="1.8290514">
        <ele>143.0</ele>
        <time>2021-11-25T09:24:08Z</time>
      </trkpt>
      <trkpt lat="47.55539" lon="1.829075">
        <ele>143.0</ele>
        <time>2021-11-25T09:24:09Z</time>
      </trkpt>
      <trkpt lat="47.555397" lon="1.8290962">
        <ele>143.0</ele>
        <time>2021-11-25T09:24:10Z</time>
      </trkpt>
      <trkpt lat="47.5554" lon="1.8291183">
        <ele>143.0</ele>
        <time>2021-11-25T09:24:11Z</time>
      </trkpt>
      <trkpt lat="47.55541" lon="1.8291377">
        <ele>143.0</ele>
        <time>2021-11-25T09:24:12Z</time>
      </trkpt>
      <trkpt lat="47.555416" lon="1.8291574">
        <ele>143.0</ele>
        <time>2021-11-25T09:24:13Z</time>
      </trkpt>
      <trkpt lat="47.555428" lon="1.8291763">
        <ele>142.0</ele>
        <time>2021-11-25T09:24:14Z</time>
      </trkpt>
      <trkpt lat="47.555435" lon="1.8291936">
        <ele>142.0</ele>
        <time>2021-11-25T09:24:15Z</time>
      </trkpt>
      <trkpt lat="47.555447" lon="1.8292121">
        <ele>142.0</ele>
        <time>2021-11-25T09:24:16Z</time>
      </trkpt>
      <trkpt lat="47.555458" lon="1.8292274">
        <ele>142.0</ele>
        <time>2021-11-25T09:24:17Z</time>
      </trkpt>
      <trkpt lat="47.555466" lon="1.8292445">
        <ele>142.0</ele>
        <time>2021-11-25T09:24:18Z</time>
      </trkpt>
      <trkpt lat="47.555473" lon="1.8292582">
        <ele>142.0</ele>
        <time>2021-11-25T09:24:19Z</time>
      </trkpt>
      <trkpt lat="47.55548" lon="1.8292792">
        <ele>142.0</ele>
        <time>2021-11-25T09:24:20Z</time>
      </trkpt>
      <trkpt lat="47.555485" lon="1.829299">
        <ele>142.0</ele>
        <time>2021-11-25T09:24:21Z</time>
      </trkpt>
      <trkpt lat="47.555492" lon="1.8293153">
        <ele>142.0</ele>
        <time>2021-11-25T09:24:22Z</time>
      </trkpt>
      <trkpt lat="47.555504" lon="1.8293246">
        <ele>142.0</ele>
        <time>2021-11-25T09:24:23Z</time>
      </trkpt>
      <trkpt lat="47.555508" lon="1.8293387">
        <ele>142.0</ele>
        <time>2021-11-25T09:24:24Z</time>
      </trkpt>
      <trkpt lat="47.555515" lon="1.8293487">
        <ele>142.0</ele>
        <time>2021-11-25T09:24:25Z</time>
      </trkpt>
      <trkpt lat="47.555523" lon="1.8293622">
        <ele>142.0</ele>
        <time>2021-11-25T09:24:26Z</time>
      </trkpt>
      <trkpt lat="47.555527" lon="1.8293751">
        <ele>142.0</ele>
        <time>2021-11-25T09:24:27Z</time>
      </trkpt>
      <trkpt lat="47.555527" lon="1.8293893">
        <ele>142.0</ele>
        <time>2021-11-25T09:24:28Z</time>
      </trkpt>
      <trkpt lat="47.55553" lon="1.8294057">
        <ele>143.0</ele>
        <time>2021-11-25T09:24:29Z</time>
      </trkpt>
      <trkpt lat="47.555534" lon="1.829425">
        <ele>143.0</ele>
        <time>2021-11-25T09:24:30Z</time>
      </trkpt>
      <trkpt lat="47.555542" lon="1.8294412">
        <ele>143.0</ele>
        <time>2021-11-25T09:24:31Z</time>
      </trkpt>
      <trkpt lat="47.55555" lon="1.8294595">
        <ele>143.0</ele>
        <time>2021-11-25T09:24:32Z</time>
      </trkpt>
      <trkpt lat="47.555557" lon="1.8294796">
        <ele>143.0</ele>
        <time>2021-11-25T09:24:33Z</time>
      </trkpt>
      <trkpt lat="47.55556" lon="1.8294985">
        <ele>143.0</ele>
        <time>2021-11-25T09:24:34Z</time>
      </trkpt>
      <trkpt lat="47.55557" lon="1.8295118">
        <ele>143.0</ele>
        <time>2021-11-25T09:24:35Z</time>
      </trkpt>
      <trkpt lat="47.555573" lon="1.829527">
        <ele>143.0</ele>
        <time>2021-11-25T09:24:36Z</time>
      </trkpt>
      <trkpt lat="47.555576" lon="1.8295455">
        <ele>143.0</ele>
        <time>2021-11-25T09:24:37Z</time>
      </trkpt>
      <trkpt lat="47.555576" lon="1.8295654">
        <ele>143.0</ele>
        <time>2021-11-25T09:24:38Z</time>
      </trkpt>
      <trkpt lat="47.555584" lon="1.8295857">
        <ele>143.0</ele>
        <time>2021-11-25T09:24:39Z</time>
      </trkpt>
      <trkpt lat="47.55559" lon="1.8296049">
        <ele>143.0</ele>
        <time>2021-11-25T09:24:40Z</time>
      </trkpt>
      <trkpt lat="47.5556" lon="1.8296248">
        <ele>142.0</ele>
        <time>2021-11-25T09:24:41Z</time>
      </trkpt>
      <trkpt lat="47.555607" lon="1.8296447">
        <ele>142.0</ele>
        <time>2021-11-25T09:24:42Z</time>
      </trkpt>
      <trkpt lat="47.555614" lon="1.8296599">
        <ele>142.0</ele>
        <time>2021-11-25T09:24:43Z</time>
      </trkpt>
      <trkpt lat="47.55562" lon="1.8296716">
        <ele>142.0</ele>
        <time>2021-11-25T09:24:44Z</time>
      </trkpt>
      <trkpt lat="47.55562" lon="1.829685">
        <ele>142.0</ele>
        <time>2021-11-25T09:24:45Z</time>
      </trkpt>
      <trkpt lat="47.555622" lon="1.8297015">
        <ele>143.0</ele>
        <time>2021-11-25T09:24:46Z</time>
      </trkpt>
      <trkpt lat="47.555634" lon="1.8297185">
        <ele>142.0</ele>
        <time>2021-11-25T09:24:47Z</time>
      </trkpt>
      <trkpt lat="47.555645" lon="1.8297352">
        <ele>143.0</ele>
        <time>2021-11-25T09:24:48Z</time>
      </trkpt>
      <trkpt lat="47.55565" lon="1.829751">
        <ele>143.0</ele>
        <time>2021-11-25T09:24:49Z</time>
      </trkpt>
      <trkpt lat="47.555656" lon="1.8297671">
        <ele>144.0</ele>
        <time>2021-11-25T09:24:50Z</time>
      </trkpt>
      <trkpt lat="47.555664" lon="1.8297836">
        <ele>143.0</ele>
        <time>2021-11-25T09:24:51Z</time>
      </trkpt>
      <trkpt lat="47.555668" lon="1.829793">
        <ele>143.0</ele>
        <time>2021-11-25T09:24:52Z</time>
      </trkpt>
      <trkpt lat="47.555676" lon="1.8298037">
        <ele>143.0</ele>
        <time>2021-11-25T09:24:53Z</time>
      </trkpt>
      <trkpt lat="47.555683" lon="1.829814">
        <ele>143.0</ele>
        <time>2021-11-25T09:24:54Z</time>
      </trkpt>
      <trkpt lat="47.555695" lon="1.8298237">
        <ele>143.0</ele>
        <time>2021-11-25T09:24:55Z</time>
      </trkpt>
      <trkpt lat="47.5557" lon="1.8298413">
        <ele>143.0</ele>
        <time>2021-11-25T09:24:56Z</time>
      </trkpt>
      <trkpt lat="47.5557" lon="1.829854">
        <ele>143.0</ele>
        <time>2021-11-25T09:24:57Z</time>
      </trkpt>
      <trkpt lat="47.5557" lon="1.8298696">
        <ele>143.0</ele>
        <time>2021-11-25T09:24:58Z</time>
      </trkpt>
      <trkpt lat="47.555702" lon="1.8298877">
        <ele>143.0</ele>
        <time>2021-11-25T09:24:59Z</time>
      </trkpt>
      <trkpt lat="47.555702" lon="1.8299025">
        <ele>143.0</ele>
        <time>2021-11-25T09:25:00Z</time>
      </trkpt>
      <trkpt lat="47.555706" lon="1.8299149">
        <ele>143.0</ele>
        <time>2021-11-25T09:25:01Z</time>
      </trkpt>
      <trkpt lat="47.55571" lon="1.8299284">
        <ele>143.0</ele>
        <time>2021-11-25T09:25:02Z</time>
      </trkpt>
      <trkpt lat="47.555714" lon="1.82994">
        <ele>143.0</ele>
        <time>2021-11-25T09:25:03Z</time>
      </trkpt>
      <trkpt lat="47.55572" lon="1.8299576">
        <ele>143.0</ele>
        <time>2021-11-25T09:25:04Z</time>
      </trkpt>
      <trkpt lat="47.555733" lon="1.8299781">
        <ele>143.0</ele>
        <time>2021-11-25T09:25:05Z</time>
      </trkpt>
      <trkpt lat="47.55574" lon="1.829993">
        <ele>142.0</ele>
        <time>2021-11-25T09:25:06Z</time>
      </trkpt>
      <trkpt lat="47.555748" lon="1.8300096">
        <ele>142.0</ele>
        <time>2021-11-25T09:25:07Z</time>
      </trkpt>
      <trkpt lat="47.555756" lon="1.8300251">
        <ele>142.0</ele>
        <time>2021-11-25T09:25:08Z</time>
      </trkpt>
      <trkpt lat="47.555763" lon="1.8300436">
        <ele>143.0</ele>
        <time>2021-11-25T09:25:09Z</time>
      </trkpt>
      <trkpt lat="47.555767" lon="1.8300629">
        <ele>143.0</ele>
        <time>2021-11-25T09:25:10Z</time>
      </trkpt>
      <trkpt lat="47.55577" lon="1.8300738">
        <ele>143.0</ele>
        <time>2021-11-25T09:25:11Z</time>
      </trkpt>
      <trkpt lat="47.55577" lon="1.8300809">
        <ele>144.0</ele>
        <time>2021-11-25T09:25:12Z</time>
      </trkpt>
      <trkpt lat="47.555767" lon="1.8301004">
        <ele>144.0</ele>
        <time>2021-11-25T09:25:13Z</time>
      </trkpt>
      <trkpt lat="47.555763" lon="1.8301146">
        <ele>144.0</ele>
        <time>2021-11-25T09:25:14Z</time>
      </trkpt>
      <trkpt lat="47.555763" lon="1.8301275">
        <ele>144.0</ele>
        <time>2021-11-25T09:25:15Z</time>
      </trkpt>
      <trkpt lat="47.55577" lon="1.8301446">
        <ele>144.0</ele>
        <time>2021-11-25T09:25:16Z</time>
      </trkpt>
      <trkpt lat="47.55578" lon="1.8301634">
        <ele>144.0</ele>
        <time>2021-11-25T09:25:17Z</time>
      </trkpt>
      <trkpt lat="47.55579" lon="1.8301778">
        <ele>144.0</ele>
        <time>2021-11-25T09:25:18Z</time>
      </trkpt>
      <trkpt lat="47.555798" lon="1.830199">
        <ele>144.0</ele>
        <time>2021-11-25T09:25:19Z</time>
      </trkpt>
      <trkpt lat="47.555805" lon="1.8302158">
        <ele>144.0</ele>
        <time>2021-11-25T09:25:20Z</time>
      </trkpt>
      <trkpt lat="47.55581" lon="1.83023">
        <ele>144.0</ele>
        <time>2021-11-25T09:25:21Z</time>
      </trkpt>
      <trkpt lat="47.555813" lon="1.8302451">
        <ele>144.0</ele>
        <time>2021-11-25T09:25:22Z</time>
      </trkpt>
      <trkpt lat="47.555817" lon="1.8302552">
        <ele>144.0</ele>
        <time>2021-11-25T09:25:23Z</time>
      </trkpt>
      <trkpt lat="47.555824" lon="1.8302667">
        <ele>144.0</ele>
        <time>2021-11-25T09:25:24Z</time>
      </trkpt>
      <trkpt lat="47.555836" lon="1.8302807">
        <ele>144.0</ele>
        <time>2021-11-25T09:25:25Z</time>
      </trkpt>
      <trkpt lat="47.55584" lon="1.8302919">
        <ele>143.0</ele>
        <time>2021-11-25T09:25:26Z</time>
      </trkpt>
      <trkpt lat="47.55585" lon="1.8303002">
        <ele>144.0</ele>
        <time>2021-11-25T09:25:27Z</time>
      </trkpt>
      <trkpt lat="47.555866" lon="1.8303158">
        <ele>144.0</ele>
        <time>2021-11-25T09:25:28Z</time>
      </trkpt>
      <trkpt lat="47.555878" lon="1.8303269">
        <ele>144.0</ele>
        <time>2021-11-25T09:25:29Z</time>
      </trkpt>
      <trkpt lat="47.555897" lon="1.8303363">
        <ele>144.0</ele>
        <time>2021-11-25T09:25:30Z</time>
      </trkpt>
      <trkpt lat="47.555904" lon="1.8303497">
        <ele>145.0</ele>
        <time>2021-11-25T09:25:31Z</time>
      </trkpt>
      <trkpt lat="47.55592" lon="1.830362">
        <ele>145.0</ele>
        <time>2021-11-25T09:25:32Z</time>
      </trkpt>
      <trkpt lat="47.55593" lon="1.8303763">
        <ele>145.0</ele>
        <time>2021-11-25T09:25:33Z</time>
      </trkpt>
      <trkpt lat="47.555943" lon="1.8303893">
        <ele>144.0</ele>
        <time>2021-11-25T09:25:34Z</time>
      </trkpt>
      <trkpt lat="47.55595" lon="1.8304042">
        <ele>144.0</ele>
        <time>2021-11-25T09:25:35Z</time>
      </trkpt>
      <trkpt lat="47.555954" lon="1.8304231">
        <ele>144.0</ele>
        <time>2021-11-25T09:25:36Z</time>
      </trkpt>
      <trkpt lat="47.555958" lon="1.8304402">
        <ele>144.0</ele>
        <time>2021-11-25T09:25:37Z</time>
      </trkpt>
      <trkpt lat="47.55596" lon="1.8304489">
        <ele>144.0</ele>
        <time>2021-11-25T09:25:38Z</time>
      </trkpt>
      <trkpt lat="47.55597" lon="1.8304622">
        <ele>144.0</ele>
        <time>2021-11-25T09:25:39Z</time>
      </trkpt>
      <trkpt lat="47.555977" lon="1.830472">
        <ele>144.0</ele>
        <time>2021-11-25T09:25:40Z</time>
      </trkpt>
      <trkpt lat="47.55598" lon="1.8304842">
        <ele>144.0</ele>
        <time>2021-11-25T09:25:41Z</time>
      </trkpt>
      <trkpt lat="47.55599" lon="1.8304951">
        <ele>144.0</ele>
        <time>2021-11-25T09:25:42Z</time>
      </trkpt>
      <trkpt lat="47.555992" lon="1.8305095">
        <ele>144.0</ele>
        <time>2021-11-25T09:25:43Z</time>
      </trkpt>
      <trkpt lat="47.556004" lon="1.8305155">
        <ele>144.0</ele>
        <time>2021-11-25T09:25:44Z</time>
      </trkpt>
      <trkpt lat="47.55601" lon="1.830531">
        <ele>144.0</ele>
        <time>2021-11-25T09:25:45Z</time>
      </trkpt>
      <trkpt lat="47.55602" lon="1.8305422">
        <ele>143.0</ele>
        <time>2021-11-25T09:25:46Z</time>
      </trkpt>
      <trkpt lat="47.556026" lon="1.8305562">
        <ele>144.0</ele>
        <time>2021-11-25T09:25:47Z</time>
      </trkpt>
      <trkpt lat="47.556034" lon="1.8305689">
        <ele>144.0</ele>
        <time>2021-11-25T09:25:48Z</time>
      </trkpt>
      <trkpt lat="47.55604" lon="1.8305832">
        <ele>144.0</ele>
        <time>2021-11-25T09:25:49Z</time>
      </trkpt>
      <trkpt lat="47.556053" lon="1.8306001">
        <ele>143.0</ele>
        <time>2021-11-25T09:25:50Z</time>
      </trkpt>
      <trkpt lat="47.55607" lon="1.8306171">
        <ele>143.0</ele>
        <time>2021-11-25T09:25:51Z</time>
      </trkpt>
      <trkpt lat="47.55608" lon="1.8306354">
        <ele>143.0</ele>
        <time>2021-11-25T09:25:52Z</time>
      </trkpt>
      <trkpt lat="47.556087" lon="1.8306569">
        <ele>143.0</ele>
        <time>2021-11-25T09:25:53Z</time>
      </trkpt>
      <trkpt lat="47.5561" lon="1.830666">
        <ele>143.0</ele>
        <time>2021-11-25T09:25:54Z</time>
      </trkpt>
      <trkpt lat="47.556107" lon="1.8306782">
        <ele>143.0</ele>
        <time>2021-11-25T09:25:55Z</time>
      </trkpt>
      <trkpt lat="47.556114" lon="1.8306897">
        <ele>143.0</ele>
        <time>2021-11-25T09:25:56Z</time>
      </trkpt>
      <trkpt lat="47.55612" lon="1.8307006">
        <ele>143.0</ele>
        <time>2021-11-25T09:25:57Z</time>
      </trkpt>
      <trkpt lat="47.55613" lon="1.8307179">
        <ele>143.0</ele>
        <time>2021-11-25T09:25:58Z</time>
      </trkpt>
      <trkpt lat="47.55614" lon="1.8307348">
        <ele>143.0</ele>
        <time>2021-11-25T09:25:59Z</time>
      </trkpt>
      <trkpt lat="47.55615" lon="1.8307513">
        <ele>143.0</ele>
        <time>2021-11-25T09:26:00Z</time>
      </trkpt>
      <trkpt lat="47.556156" lon="1.8307644">
        <ele>143.0</ele>
        <time>2021-11-25T09:26:01Z</time>
      </trkpt>
      <trkpt lat="47.55616" lon="1.8307831">
        <ele>143.0</ele>
        <time>2021-11-25T09:26:02Z</time>
      </trkpt>
      <trkpt lat="47.556164" lon="1.8307978">
        <ele>143.0</ele>
        <time>2021-11-25T09:26:03Z</time>
      </trkpt>
      <trkpt lat="47.55617" lon="1.8308089">
        <ele>143.0</ele>
        <time>2021-11-25T09:26:04Z</time>
      </trkpt>
      <trkpt lat="47.556183" lon="1.8308237">
        <ele>142.0</ele>
        <time>2021-11-25T09:26:05Z</time>
      </trkpt>
      <trkpt lat="47.55619" lon="1.8308398">
        <ele>142.0</ele>
        <time>2021-11-25T09:26:06Z</time>
      </trkpt>
      <trkpt lat="47.5562" lon="1.8308526">
        <ele>143.0</ele>
        <time>2021-11-25T09:26:07Z</time>
      </trkpt>
      <trkpt lat="47.556206" lon="1.8308659">
        <ele>143.0</ele>
        <time>2021-11-25T09:26:08Z</time>
      </trkpt>
      <trkpt lat="47.556217" lon="1.8308794">
        <ele>143.0</ele>
        <time>2021-11-25T09:26:09Z</time>
      </trkpt>
      <trkpt lat="47.556225" lon="1.8308896">
        <ele>143.0</ele>
        <time>2021-11-25T09:26:10Z</time>
      </trkpt>
      <trkpt lat="47.55623" lon="1.8309042">
        <ele>143.0</ele>
        <time>2021-11-25T09:26:11Z</time>
      </trkpt>
      <trkpt lat="47.556232" lon="1.830921">
        <ele>142.0</ele>
        <time>2021-11-25T09:26:12Z</time>
      </trkpt>
      <trkpt lat="47.55624" lon="1.8309373">
        <ele>142.0</ele>
        <time>2021-11-25T09:26:13Z</time>
      </trkpt>
      <trkpt lat="47.556255" lon="1.8309538">
        <ele>141.0</ele>
        <time>2021-11-25T09:26:14Z</time>
      </trkpt>
      <trkpt lat="47.556267" lon="1.8309653">
        <ele>141.0</ele>
        <time>2021-11-25T09:26:15Z</time>
      </trkpt>
      <trkpt lat="47.556274" lon="1.8309811">
        <ele>142.0</ele>
        <time>2021-11-25T09:26:16Z</time>
      </trkpt>
      <trkpt lat="47.556286" lon="1.8309946">
        <ele>142.0</ele>
        <time>2021-11-25T09:26:17Z</time>
      </trkpt>
      <trkpt lat="47.556297" lon="1.8310082">
        <ele>142.0</ele>
        <time>2021-11-25T09:26:18Z</time>
      </trkpt>
      <trkpt lat="47.55631" lon="1.8310275">
        <ele>141.0</ele>
        <time>2021-11-25T09:26:19Z</time>
      </trkpt>
      <trkpt lat="47.556316" lon="1.831044">
        <ele>141.0</ele>
        <time>2021-11-25T09:26:20Z</time>
      </trkpt>
      <trkpt lat="47.556328" lon="1.8310597">
        <ele>141.0</ele>
        <time>2021-11-25T09:26:21Z</time>
      </trkpt>
      <trkpt lat="47.55633" lon="1.8310794">
        <ele>141.0</ele>
        <time>2021-11-25T09:26:22Z</time>
      </trkpt>
      <trkpt lat="47.556335" lon="1.831099">
        <ele>140.0</ele>
        <time>2021-11-25T09:26:23Z</time>
      </trkpt>
      <trkpt lat="47.55634" lon="1.8311169">
        <ele>140.0</ele>
        <time>2021-11-25T09:26:24Z</time>
      </trkpt>
      <trkpt lat="47.556347" lon="1.8311352">
        <ele>140.0</ele>
        <time>2021-11-25T09:26:25Z</time>
      </trkpt>
      <trkpt lat="47.55635" lon="1.8311521">
        <ele>140.0</ele>
        <time>2021-11-25T09:26:26Z</time>
      </trkpt>
      <trkpt lat="47.556355" lon="1.8311638">
        <ele>140.0</ele>
        <time>2021-11-25T09:26:27Z</time>
      </trkpt>
      <trkpt lat="47.556366" lon="1.8311772">
        <ele>141.0</ele>
        <time>2021-11-25T09:26:28Z</time>
      </trkpt>
      <trkpt lat="47.55637" lon="1.8311961">
        <ele>141.0</ele>
        <time>2021-11-25T09:26:29Z</time>
      </trkpt>
      <trkpt lat="47.556374" lon="1.831214">
        <ele>140.0</ele>
        <time>2021-11-25T09:26:30Z</time>
      </trkpt>
      <trkpt lat="47.556377" lon="1.8312272">
        <ele>140.0</ele>
        <time>2021-11-25T09:26:31Z</time>
      </trkpt>
      <trkpt lat="47.55638" lon="1.8312477">
        <ele>140.0</ele>
        <time>2021-11-25T09:26:32Z</time>
      </trkpt>
      <trkpt lat="47.556385" lon="1.8312721">
        <ele>140.0</ele>
        <time>2021-11-25T09:26:33Z</time>
      </trkpt>
      <trkpt lat="47.556393" lon="1.8312896">
        <ele>140.0</ele>
        <time>2021-11-25T09:26:34Z</time>
      </trkpt>
      <trkpt lat="47.556396" lon="1.8313066">
        <ele>140.0</ele>
        <time>2021-11-25T09:26:35Z</time>
      </trkpt>
      <trkpt lat="47.556393" lon="1.8313221">
        <ele>140.0</ele>
        <time>2021-11-25T09:26:36Z</time>
      </trkpt>
      <trkpt lat="47.55639" lon="1.8313336">
        <ele>140.0</ele>
        <time>2021-11-25T09:26:37Z</time>
      </trkpt>
      <trkpt lat="47.556385" lon="1.8313481">
        <ele>140.0</ele>
        <time>2021-11-25T09:26:38Z</time>
      </trkpt>
      <trkpt lat="47.556385" lon="1.8313663">
        <ele>140.0</ele>
        <time>2021-11-25T09:26:39Z</time>
      </trkpt>
      <trkpt lat="47.556385" lon="1.8313855">
        <ele>141.0</ele>
        <time>2021-11-25T09:26:40Z</time>
      </trkpt>
      <trkpt lat="47.556385" lon="1.8314084">
        <ele>141.0</ele>
        <time>2021-11-25T09:26:41Z</time>
      </trkpt>
      <trkpt lat="47.556385" lon="1.8314258">
        <ele>141.0</ele>
        <time>2021-11-25T09:26:42Z</time>
      </trkpt>
      <trkpt lat="47.556385" lon="1.8314419">
        <ele>140.0</ele>
        <time>2021-11-25T09:26:43Z</time>
      </trkpt>
      <trkpt lat="47.556393" lon="1.8314676">
        <ele>139.0</ele>
        <time>2021-11-25T09:26:44Z</time>
      </trkpt>
      <trkpt lat="47.55639" lon="1.8314853">
        <ele>139.0</ele>
        <time>2021-11-25T09:26:45Z</time>
      </trkpt>
      <trkpt lat="47.55639" lon="1.8315065">
        <ele>139.0</ele>
        <time>2021-11-25T09:26:46Z</time>
      </trkpt>
      <trkpt lat="47.556393" lon="1.8315245">
        <ele>138.0</ele>
        <time>2021-11-25T09:26:47Z</time>
      </trkpt>
      <trkpt lat="47.556393" lon="1.8315476">
        <ele>138.0</ele>
        <time>2021-11-25T09:26:48Z</time>
      </trkpt>
      <trkpt lat="47.556385" lon="1.8315665">
        <ele>138.0</ele>
        <time>2021-11-25T09:26:49Z</time>
      </trkpt>
      <trkpt lat="47.556385" lon="1.8315799">
        <ele>138.0</ele>
        <time>2021-11-25T09:26:50Z</time>
      </trkpt>
      <trkpt lat="47.55638" lon="1.8315923">
        <ele>138.0</ele>
        <time>2021-11-25T09:26:51Z</time>
      </trkpt>
      <trkpt lat="47.556374" lon="1.8316054">
        <ele>138.0</ele>
        <time>2021-11-25T09:26:52Z</time>
      </trkpt>
      <trkpt lat="47.556374" lon="1.8316251">
        <ele>138.0</ele>
        <time>2021-11-25T09:26:53Z</time>
      </trkpt>
      <trkpt lat="47.556374" lon="1.8316457">
        <ele>138.0</ele>
        <time>2021-11-25T09:26:54Z</time>
      </trkpt>
      <trkpt lat="47.556377" lon="1.8316631">
        <ele>138.0</ele>
        <time>2021-11-25T09:26:55Z</time>
      </trkpt>
      <trkpt lat="47.55638" lon="1.8316838">
        <ele>138.0</ele>
        <time>2021-11-25T09:26:56Z</time>
      </trkpt>
      <trkpt lat="47.55638" lon="1.8317051">
        <ele>138.0</ele>
        <time>2021-11-25T09:26:57Z</time>
      </trkpt>
      <trkpt lat="47.55638" lon="1.8317267">
        <ele>139.0</ele>
        <time>2021-11-25T09:26:58Z</time>
      </trkpt>
      <trkpt lat="47.55638" lon="1.831745">
        <ele>139.0</ele>
        <time>2021-11-25T09:26:59Z</time>
      </trkpt>
      <trkpt lat="47.556377" lon="1.8317664">
        <ele>140.0</ele>
        <time>2021-11-25T09:27:00Z</time>
      </trkpt>
      <trkpt lat="47.556377" lon="1.8317916">
        <ele>140.0</ele>
        <time>2021-11-25T09:27:01Z</time>
      </trkpt>
      <trkpt lat="47.556374" lon="1.8318089">
        <ele>140.0</ele>
        <time>2021-11-25T09:27:02Z</time>
      </trkpt>
      <trkpt lat="47.556377" lon="1.8318263">
        <ele>140.0</ele>
        <time>2021-11-25T09:27:03Z</time>
      </trkpt>
      <trkpt lat="47.55637" lon="1.8318388">
        <ele>140.0</ele>
        <time>2021-11-25T09:27:04Z</time>
      </trkpt>
      <trkpt lat="47.55637" lon="1.8318558">
        <ele>139.0</ele>
        <time>2021-11-25T09:27:05Z</time>
      </trkpt>
      <trkpt lat="47.556377" lon="1.8318764">
        <ele>140.0</ele>
        <time>2021-11-25T09:27:06Z</time>
      </trkpt>
      <trkpt lat="47.556374" lon="1.8318874">
        <ele>140.0</ele>
        <time>2021-11-25T09:27:07Z</time>
      </trkpt>
      <trkpt lat="47.556374" lon="1.8319013">
        <ele>139.0</ele>
        <time>2021-11-25T09:27:08Z</time>
      </trkpt>
      <trkpt lat="47.55637" lon="1.8319148">
        <ele>139.0</ele>
        <time>2021-11-25T09:27:09Z</time>
      </trkpt>
      <trkpt lat="47.556362" lon="1.8319252">
        <ele>139.0</ele>
        <time>2021-11-25T09:27:10Z</time>
      </trkpt>
      <trkpt lat="47.556362" lon="1.8319379">
        <ele>139.0</ele>
        <time>2021-11-25T09:27:11Z</time>
      </trkpt>
      <trkpt lat="47.55636" lon="1.831947">
        <ele>139.0</ele>
        <time>2021-11-25T09:27:12Z</time>
      </trkpt>
      <trkpt lat="47.55636" lon="1.8319588">
        <ele>139.0</ele>
        <time>2021-11-25T09:27:13Z</time>
      </trkpt>
      <trkpt lat="47.55636" lon="1.831972">
        <ele>139.0</ele>
        <time>2021-11-25T09:27:14Z</time>
      </trkpt>
      <trkpt lat="47.55636" lon="1.831989">
        <ele>139.0</ele>
        <time>2021-11-25T09:27:15Z</time>
      </trkpt>
      <trkpt lat="47.55636" lon="1.832004">
        <ele>139.0</ele>
        <time>2021-11-25T09:27:16Z</time>
      </trkpt>
      <trkpt lat="47.556362" lon="1.8320155">
        <ele>139.0</ele>
        <time>2021-11-25T09:27:17Z</time>
      </trkpt>
      <trkpt lat="47.55636" lon="1.8320265">
        <ele>138.0</ele>
        <time>2021-11-25T09:27:18Z</time>
      </trkpt>
      <trkpt lat="47.556362" lon="1.8320317">
        <ele>138.0</ele>
        <time>2021-11-25T09:27:19Z</time>
      </trkpt>
      <trkpt lat="47.556362" lon="1.8320317">
        <ele>138.0</ele>
        <time>2021-11-25T09:27:20Z</time>
      </trkpt>
      <trkpt lat="47.556362" lon="1.8320317">
        <ele>138.0</ele>
        <time>2021-11-25T09:27:21Z</time>
      </trkpt>
      <trkpt lat="47.556362" lon="1.8320317">
        <ele>138.0</ele>
        <time>2021-11-25T09:27:22Z</time>
      </trkpt>
      <trkpt lat="47.556362" lon="1.8320317">
        <ele>138.0</ele>
        <time>2021-11-25T09:27:22Z</time>
      </trkpt>
    </trkseg>
    <trkseg>
      <trkpt lat="47.556362" lon="1.8320317">
        <ele>138.0</ele>
        <time>2021-11-25T09:27:22Z</time>
      </trkpt>
      <trkpt lat="47.556377" lon="1.8321036">
        <ele>138.0</ele>
        <time>2021-11-25T09:28:12Z</time>
      </trkpt>
      <trkpt lat="47.556377" lon="1.8321036">
        <ele>138.0</ele>
        <time>2021-11-25T09:28:13Z</time>
      </trkpt>
      <trkpt lat="47.556377" lon="1.8321036">
        <ele>138.0</ele>
        <time>2021-11-25T09:28:14Z</time>
      </trkpt>
      <trkpt lat="47.55639" lon="1.8321282">
        <ele>139.0</ele>
        <time>2021-11-25T09:28:15Z</time>
      </trkpt>
      <trkpt lat="47.5564" lon="1.8321358">
        <ele>138.0</ele>
        <time>2021-11-25T09:28:16Z</time>
      </trkpt>
      <trkpt lat="47.556404" lon="1.8321406">
        <ele>138.0</ele>
        <time>2021-11-25T09:28:17Z</time>
      </trkpt>
      <trkpt lat="47.55641" lon="1.8321478">
        <ele>138.0</ele>
        <time>2021-11-25T09:28:18Z</time>
      </trkpt>
      <trkpt lat="47.556423" lon="1.8321581">
        <ele>138.0</ele>
        <time>2021-11-25T09:28:19Z</time>
      </trkpt>
      <trkpt lat="47.556435" lon="1.832163">
        <ele>139.0</ele>
        <time>2021-11-25T09:28:20Z</time>
      </trkpt>
      <trkpt lat="47.55644" lon="1.8321669">
        <ele>139.0</ele>
        <time>2021-11-25T09:28:21Z</time>
      </trkpt>
      <trkpt lat="47.556446" lon="1.8321693">
        <ele>138.0</ele>
        <time>2021-11-25T09:28:22Z</time>
      </trkpt>
      <trkpt lat="47.55645" lon="1.8321737">
        <ele>138.0</ele>
        <time>2021-11-25T09:28:23Z</time>
      </trkpt>
      <trkpt lat="47.556458" lon="1.8321805">
        <ele>138.0</ele>
        <time>2021-11-25T09:28:24Z</time>
      </trkpt>
      <trkpt lat="47.55646" lon="1.8321892">
        <ele>138.0</ele>
        <time>2021-11-25T09:28:25Z</time>
      </trkpt>
      <trkpt lat="47.556465" lon="1.8321944">
        <ele>138.0</ele>
        <time>2021-11-25T09:28:26Z</time>
      </trkpt>
      <trkpt lat="47.55647" lon="1.8321923">
        <ele>138.0</ele>
        <time>2021-11-25T09:28:27Z</time>
      </trkpt>
      <trkpt lat="47.55648" lon="1.8321997">
        <ele>138.0</ele>
        <time>2021-11-25T09:28:28Z</time>
      </trkpt>
      <trkpt lat="47.556484" lon="1.8322052">
        <ele>138.0</ele>
        <time>2021-11-25T09:28:29Z</time>
      </trkpt>
      <trkpt lat="47.556488" lon="1.8322036">
        <ele>138.0</ele>
        <time>2021-11-25T09:28:30Z</time>
      </trkpt>
      <trkpt lat="47.556496" lon="1.832207">
        <ele>139.0</ele>
        <time>2021-11-25T09:28:31Z</time>
      </trkpt>
      <trkpt lat="47.556503" lon="1.8322145">
        <ele>139.0</ele>
        <time>2021-11-25T09:28:32Z</time>
      </trkpt>
      <trkpt lat="47.55651" lon="1.8322251">
        <ele>139.0</ele>
        <time>2021-11-25T09:28:33Z</time>
      </trkpt>
      <trkpt lat="47.556522" lon="1.8322277">
        <ele>139.0</ele>
        <time>2021-11-25T09:28:34Z</time>
      </trkpt>
      <trkpt lat="47.55653" lon="1.8322219">
        <ele>139.0</ele>
        <time>2021-11-25T09:28:35Z</time>
      </trkpt>
      <trkpt lat="47.556534" lon="1.832219">
        <ele>140.0</ele>
        <time>2021-11-25T09:28:36Z</time>
      </trkpt>
      <trkpt lat="47.55654" lon="1.8322163">
        <ele>139.0</ele>
        <time>2021-11-25T09:28:37Z</time>
      </trkpt>
      <trkpt lat="47.556553" lon="1.8322151">
        <ele>139.0</ele>
        <time>2021-11-25T09:28:38Z</time>
      </trkpt>
      <trkpt lat="47.556564" lon="1.8322127">
        <ele>139.0</ele>
        <time>2021-11-25T09:28:39Z</time>
      </trkpt>
      <trkpt lat="47.556576" lon="1.8322126">
        <ele>139.0</ele>
        <time>2021-11-25T09:28:40Z</time>
      </trkpt>
      <trkpt lat="47.556583" lon="1.8322138">
        <ele>139.0</ele>
        <time>2021-11-25T09:28:41Z</time>
      </trkpt>
      <trkpt lat="47.556595" lon="1.8322165">
        <ele>139.0</ele>
        <time>2021-11-25T09:28:43Z</time>
      </trkpt>
      <trkpt lat="47.556602" lon="1.8322222">
        <ele>139.0</ele>
        <time>2021-11-25T09:28:44Z</time>
      </trkpt>
      <trkpt lat="47.55661" lon="1.8322276">
        <ele>140.0</ele>
        <time>2021-11-25T09:28:45Z</time>
      </trkpt>
      <trkpt lat="47.55661" lon="1.8322242">
        <ele>140.0</ele>
        <time>2021-11-25T09:28:46Z</time>
      </trkpt>
      <trkpt lat="47.55662" lon="1.8322226">
        <ele>140.0</ele>
        <time>2021-11-25T09:28:47Z</time>
      </trkpt>
      <trkpt lat="47.55663" lon="1.8322222">
        <ele>140.0</ele>
        <time>2021-11-25T09:28:48Z</time>
      </trkpt>
      <trkpt lat="47.55664" lon="1.8322247">
        <ele>140.0</ele>
        <time>2021-11-25T09:28:49Z</time>
      </trkpt>
      <trkpt lat="47.556652" lon="1.8322208">
        <ele>140.0</ele>
        <time>2021-11-25T09:28:50Z</time>
      </trkpt>
      <trkpt lat="47.556664" lon="1.8322169">
        <ele>140.0</ele>
        <time>2021-11-25T09:28:51Z</time>
      </trkpt>
      <trkpt lat="47.55667" lon="1.8322175">
        <ele>140.0</ele>
        <time>2021-11-25T09:28:52Z</time>
      </trkpt>
      <trkpt lat="47.556686" lon="1.8322172">
        <ele>140.0</ele>
        <time>2021-11-25T09:28:53Z</time>
      </trkpt>
      <trkpt lat="47.556698" lon="1.8322207">
        <ele>140.0</ele>
        <time>2021-11-25T09:28:54Z</time>
      </trkpt>
      <trkpt lat="47.556713" lon="1.8322259">
        <ele>140.0</ele>
        <time>2021-11-25T09:28:55Z</time>
      </trkpt>
      <trkpt lat="47.55673" lon="1.832229">
        <ele>140.0</ele>
        <time>2021-11-25T09:28:56Z</time>
      </trkpt>
      <trkpt lat="47.55674" lon="1.8322307">
        <ele>139.0</ele>
        <time>2021-11-25T09:28:57Z</time>
      </trkpt>
      <trkpt lat="47.55675" lon="1.8322281">
        <ele>139.0</ele>
        <time>2021-11-25T09:28:58Z</time>
      </trkpt>
      <trkpt lat="47.55676" lon="1.8322183">
        <ele>139.0</ele>
        <time>2021-11-25T09:28:59Z</time>
      </trkpt>
      <trkpt lat="47.55677" lon="1.8322152">
        <ele>139.0</ele>
        <time>2021-11-25T09:29:00Z</time>
      </trkpt>
      <trkpt lat="47.556778" lon="1.8322072">
        <ele>139.0</ele>
        <time>2021-11-25T09:29:01Z</time>
      </trkpt>
      <trkpt lat="47.556786" lon="1.8322086">
        <ele>139.0</ele>
        <time>2021-11-25T09:29:02Z</time>
      </trkpt>
      <trkpt lat="47.55679" lon="1.832207">
        <ele>139.0</ele>
        <time>2021-11-25T09:29:03Z</time>
      </trkpt>
      <trkpt lat="47.556797" lon="1.8322055">
        <ele>139.0</ele>
        <time>2021-11-25T09:29:04Z</time>
      </trkpt>
      <trkpt lat="47.556805" lon="1.8322098">
        <ele>139.0</ele>
        <time>2021-11-25T09:29:05Z</time>
      </trkpt>
      <trkpt lat="47.55681" lon="1.8322113">
        <ele>138.0</ele>
        <time>2021-11-25T09:29:06Z</time>
      </trkpt>
      <trkpt lat="47.556816" lon="1.8322095">
        <ele>138.0</ele>
        <time>2021-11-25T09:29:07Z</time>
      </trkpt>
      <trkpt lat="47.556828" lon="1.8322111">
        <ele>138.0</ele>
        <time>2021-11-25T09:29:08Z</time>
      </trkpt>
      <trkpt lat="47.55684" lon="1.832208">
        <ele>139.0</ele>
        <time>2021-11-25T09:29:09Z</time>
      </trkpt>
      <trkpt lat="47.55685" lon="1.8322091">
        <ele>139.0</ele>
        <time>2021-11-25T09:29:10Z</time>
      </trkpt>
      <trkpt lat="47.556858" lon="1.8322061">
        <ele>138.0</ele>
        <time>2021-11-25T09:29:11Z</time>
      </trkpt>
      <trkpt lat="47.55686" lon="1.8322066">
        <ele>138.0</ele>
        <time>2021-11-25T09:29:12Z</time>
      </trkpt>
      <trkpt lat="47.556873" lon="1.8322057">
        <ele>138.0</ele>
        <time>2021-11-25T09:29:13Z</time>
      </trkpt>
      <trkpt lat="47.556885" lon="1.8322024">
        <ele>138.0</ele>
        <time>2021-11-25T09:29:14Z</time>
      </trkpt>
      <trkpt lat="47.556896" lon="1.8321974">
        <ele>138.0</ele>
        <time>2021-11-25T09:29:15Z</time>
      </trkpt>
      <trkpt lat="47.556908" lon="1.832195">
        <ele>138.0</ele>
        <time>2021-11-25T09:29:16Z</time>
      </trkpt>
      <trkpt lat="47.55692" lon="1.8321946">
        <ele>138.0</ele>
        <time>2021-11-25T09:29:17Z</time>
      </trkpt>
      <trkpt lat="47.556927" lon="1.8321968">
        <ele>138.0</ele>
        <time>2021-11-25T09:29:18Z</time>
      </trkpt>
      <trkpt lat="47.55694" lon="1.8322004">
        <ele>138.0</ele>
        <time>2021-11-25T09:29:19Z</time>
      </trkpt>
      <trkpt lat="47.55695" lon="1.8322028">
        <ele>138.0</ele>
        <time>2021-11-25T09:29:20Z</time>
      </trkpt>
      <trkpt lat="47.556965" lon="1.8322068">
        <ele>138.0</ele>
        <time>2021-11-25T09:29:21Z</time>
      </trkpt>
      <trkpt lat="47.556976" lon="1.8322123">
        <ele>138.0</ele>
        <time>2021-11-25T09:29:22Z</time>
      </trkpt>
      <trkpt lat="47.556988" lon="1.8322147">
        <ele>138.0</ele>
        <time>2021-11-25T09:29:23Z</time>
      </trkpt>
      <trkpt lat="47.557" lon="1.8322065">
        <ele>138.0</ele>
        <time>2021-11-25T09:29:24Z</time>
      </trkpt>
      <trkpt lat="47.557007" lon="1.8322026">
        <ele>138.0</ele>
        <time>2021-11-25T09:29:25Z</time>
      </trkpt>
      <trkpt lat="47.55702" lon="1.832201">
        <ele>138.0</ele>
        <time>2021-11-25T09:29:26Z</time>
      </trkpt>
      <trkpt lat="47.557026" lon="1.8321952">
        <ele>137.0</ele>
        <time>2021-11-25T09:29:27Z</time>
      </trkpt>
      <trkpt lat="47.557037" lon="1.832188">
        <ele>137.0</ele>
        <time>2021-11-25T09:29:28Z</time>
      </trkpt>
      <trkpt lat="47.557045" lon="1.8321776">
        <ele>137.0</ele>
        <time>2021-11-25T09:29:29Z</time>
      </trkpt>
      <trkpt lat="47.557056" lon="1.832171">
        <ele>137.0</ele>
        <time>2021-11-25T09:29:30Z</time>
      </trkpt>
      <trkpt lat="47.557068" lon="1.8321688">
        <ele>137.0</ele>
        <time>2021-11-25T09:29:31Z</time>
      </trkpt>
      <trkpt lat="47.55708" lon="1.832167">
        <ele>137.0</ele>
        <time>2021-11-25T09:29:32Z</time>
      </trkpt>
      <trkpt lat="47.55709" lon="1.8321624">
        <ele>137.0</ele>
        <time>2021-11-25T09:29:33Z</time>
      </trkpt>
      <trkpt lat="47.5571" lon="1.8321553">
        <ele>137.0</ele>
        <time>2021-11-25T09:29:34Z</time>
      </trkpt>
      <trkpt lat="47.55711" lon="1.8321514">
        <ele>137.0</ele>
        <time>2021-11-25T09:29:35Z</time>
      </trkpt>
      <trkpt lat="47.55712" lon="1.8321452">
        <ele>137.0</ele>
        <time>2021-11-25T09:29:36Z</time>
      </trkpt>
      <trkpt lat="47.557125" lon="1.8321387">
        <ele>138.0</ele>
        <time>2021-11-25T09:29:37Z</time>
      </trkpt>
      <trkpt lat="47.557137" lon="1.8321344">
        <ele>137.0</ele>
        <time>2021-11-25T09:29:38Z</time>
      </trkpt>
      <trkpt lat="47.557148" lon="1.8321308">
        <ele>138.0</ele>
        <time>2021-11-25T09:29:39Z</time>
      </trkpt>
      <trkpt lat="47.557156" lon="1.8321307">
        <ele>138.0</ele>
        <time>2021-11-25T09:29:40Z</time>
      </trkpt>
      <trkpt lat="47.557163" lon="1.8321304">
        <ele>138.0</ele>
        <time>2021-11-25T09:29:41Z</time>
      </trkpt>
      <trkpt lat="47.557175" lon="1.8321228">
        <ele>139.0</ele>
        <time>2021-11-25T09:29:42Z</time>
      </trkpt>
      <trkpt lat="47.557186" lon="1.8321141">
        <ele>139.0</ele>
        <time>2021-11-25T09:29:43Z</time>
      </trkpt>
      <trkpt lat="47.557198" lon="1.8321123">
        <ele>139.0</ele>
        <time>2021-11-25T09:29:44Z</time>
      </trkpt>
      <trkpt lat="47.557205" lon="1.8321133">
        <ele>139.0</ele>
        <time>2021-11-25T09:29:45Z</time>
      </trkpt>
      <trkpt lat="47.55721" lon="1.8321162">
        <ele>139.0</ele>
        <time>2021-11-25T09:29:46Z</time>
      </trkpt>
      <trkpt lat="47.557217" lon="1.8321203">
        <ele>139.0</ele>
        <time>2021-11-25T09:29:47Z</time>
      </trkpt>
      <trkpt lat="47.557228" lon="1.8321214">
        <ele>139.0</ele>
        <time>2021-11-25T09:29:48Z</time>
      </trkpt>
      <trkpt lat="47.557236" lon="1.8321186">
        <ele>139.0</ele>
        <time>2021-11-25T09:29:49Z</time>
      </trkpt>
      <trkpt lat="47.557236" lon="1.8321146">
        <ele>139.0</ele>
        <time>2021-11-25T09:29:50Z</time>
      </trkpt>
      <trkpt lat="47.557247" lon="1.8321118">
        <ele>139.0</ele>
        <time>2021-11-25T09:29:51Z</time>
      </trkpt>
      <trkpt lat="47.55726" lon="1.8321022">
        <ele>138.0</ele>
        <time>2021-11-25T09:29:52Z</time>
      </trkpt>
      <trkpt lat="47.557278" lon="1.8320953">
        <ele>138.0</ele>
        <time>2021-11-25T09:29:53Z</time>
      </trkpt>
      <trkpt lat="47.55729" lon="1.8320885">
        <ele>138.0</ele>
        <time>2021-11-25T09:29:54Z</time>
      </trkpt>
      <trkpt lat="47.557297" lon="1.8320836">
        <ele>138.0</ele>
        <time>2021-11-25T09:29:55Z</time>
      </trkpt>
      <trkpt lat="47.55731" lon="1.8320795">
        <ele>138.0</ele>
        <time>2021-11-25T09:29:56Z</time>
      </trkpt>
      <trkpt lat="47.55732" lon="1.8320687">
        <ele>137.0</ele>
        <time>2021-11-25T09:29:57Z</time>
      </trkpt>
      <trkpt lat="47.557327" lon="1.8320607">
        <ele>137.0</ele>
        <time>2021-11-25T09:29:58Z</time>
      </trkpt>
      <trkpt lat="47.55734" lon="1.8320562">
        <ele>137.0</ele>
        <time>2021-11-25T09:29:59Z</time>
      </trkpt>
      <trkpt lat="47.55735" lon="1.8320518">
        <ele>137.0</ele>
        <time>2021-11-25T09:30:00Z</time>
      </trkpt>
      <trkpt lat="47.557358" lon="1.8320463">
        <ele>137.0</ele>
        <time>2021-11-25T09:30:01Z</time>
      </trkpt>
      <trkpt lat="47.557365" lon="1.8320453">
        <ele>138.0</ele>
        <time>2021-11-25T09:30:02Z</time>
      </trkpt>
      <trkpt lat="47.557377" lon="1.8320466">
        <ele>138.0</ele>
        <time>2021-11-25T09:30:03Z</time>
      </trkpt>
      <trkpt lat="47.557392" lon="1.8320469">
        <ele>137.0</ele>
        <time>2021-11-25T09:30:04Z</time>
      </trkpt>
      <trkpt lat="47.557407" lon="1.8320457">
        <ele>137.0</ele>
        <time>2021-11-25T09:30:05Z</time>
      </trkpt>
      <trkpt lat="47.55742" lon="1.8320435">
        <ele>137.0</ele>
        <time>2021-11-25T09:30:06Z</time>
      </trkpt>
      <trkpt lat="47.557434" lon="1.8320396">
        <ele>137.0</ele>
        <time>2021-11-25T09:30:07Z</time>
      </trkpt>
      <trkpt lat="47.557446" lon="1.8320328">
        <ele>138.0</ele>
        <time>2021-11-25T09:30:08Z</time>
      </trkpt>
      <trkpt lat="47.557453" lon="1.8320237">
        <ele>138.0</ele>
        <time>2021-11-25T09:30:09Z</time>
      </trkpt>
      <trkpt lat="47.55747" lon="1.8320191">
        <ele>138.0</ele>
        <time>2021-11-25T09:30:10Z</time>
      </trkpt>
      <trkpt lat="47.55748" lon="1.8320162">
        <ele>138.0</ele>
        <time>2021-11-25T09:30:11Z</time>
      </trkpt>
      <trkpt lat="47.55749" lon="1.8320161">
        <ele>138.0</ele>
        <time>2021-11-25T09:30:12Z</time>
      </trkpt>
      <trkpt lat="47.5575" lon="1.8320208">
        <ele>138.0</ele>
        <time>2021-11-25T09:30:13Z</time>
      </trkpt>
      <trkpt lat="47.557507" lon="1.8320212">
        <ele>138.0</ele>
        <time>2021-11-25T09:30:14Z</time>
      </trkpt>
      <trkpt lat="47.557518" lon="1.8320175">
        <ele>138.0</ele>
        <time>2021-11-25T09:30:15Z</time>
      </trkpt>
      <trkpt lat="47.557526" lon="1.8320128">
        <ele>138.0</ele>
        <time>2021-11-25T09:30:16Z</time>
      </trkpt>
      <trkpt lat="47.557533" lon="1.8320109">
        <ele>138.0</ele>
        <time>2021-11-25T09:30:17Z</time>
      </trkpt>
      <trkpt lat="47.55754" lon="1.8320097">
        <ele>138.0</ele>
        <time>2021-11-25T09:30:18Z</time>
      </trkpt>
      <trkpt lat="47.55755" lon="1.8320051">
        <ele>138.0</ele>
        <time>2021-11-25T09:30:19Z</time>
      </trkpt>
      <trkpt lat="47.55755" lon="1.8320051">
        <ele>138.0</ele>
        <time>2021-11-25T09:30:20Z</time>
      </trkpt>
      <trkpt lat="47.55755" lon="1.8320051">
        <ele>138.0</ele>
        <time>2021-11-25T09:30:21Z</time>
      </trkpt>
      <trkpt lat="47.55757" lon="1.8319982">
        <ele>138.0</ele>
        <time>2021-11-25T09:30:22Z</time>
      </trkpt>
      <trkpt lat="47.557583" lon="1.8319978">
        <ele>138.0</ele>
        <time>2021-11-25T09:30:23Z</time>
      </trkpt>
      <trkpt lat="47.557587" lon="1.8319981">
        <ele>138.0</ele>
        <time>2021-11-25T09:30:24Z</time>
      </trkpt>
      <trkpt lat="47.557594" lon="1.8319992">
        <ele>138.0</ele>
        <time>2021-11-25T09:30:25Z</time>
      </trkpt>
      <trkpt lat="47.557602" lon="1.8319988">
        <ele>138.0</ele>
        <time>2021-11-25T09:30:26Z</time>
      </trkpt>
      <trkpt lat="47.55761" lon="1.8319994">
        <ele>138.0</ele>
        <time>2021-11-25T09:30:27Z</time>
      </trkpt>
      <trkpt lat="47.557617" lon="1.8319975">
        <ele>138.0</ele>
        <time>2021-11-25T09:30:28Z</time>
      </trkpt>
      <trkpt lat="47.557632" lon="1.8319955">
        <ele>138.0</ele>
        <time>2021-11-25T09:30:29Z</time>
      </trkpt>
      <trkpt lat="47.557644" lon="1.8319875">
        <ele>138.0</ele>
        <time>2021-11-25T09:30:30Z</time>
      </trkpt>
      <trkpt lat="47.557644" lon="1.8319875">
        <ele>138.0</ele>
        <time>2021-11-25T09:30:31Z</time>
      </trkpt>
      <trkpt lat="47.557667" lon="1.8319787">
        <ele>139.0</ele>
        <time>2021-11-25T09:30:32Z</time>
      </trkpt>
      <trkpt lat="47.55768" lon="1.8319819">
        <ele>139.0</ele>
        <time>2021-11-25T09:30:33Z</time>
      </trkpt>
      <trkpt lat="47.55769" lon="1.8319879">
        <ele>139.0</ele>
        <time>2021-11-25T09:30:34Z</time>
      </trkpt>
      <trkpt lat="47.557697" lon="1.8319918">
        <ele>139.0</ele>
        <time>2021-11-25T09:30:35Z</time>
      </trkpt>
      <trkpt lat="47.557705" lon="1.8319916">
        <ele>139.0</ele>
        <time>2021-11-25T09:30:36Z</time>
      </trkpt>
      <trkpt lat="47.55771" lon="1.8319895">
        <ele>138.0</ele>
        <time>2021-11-25T09:30:37Z</time>
      </trkpt>
      <trkpt lat="47.55772" lon="1.8319893">
        <ele>138.0</ele>
        <time>2021-11-25T09:30:38Z</time>
      </trkpt>
      <trkpt lat="47.55773" lon="1.8319876">
        <ele>138.0</ele>
        <time>2021-11-25T09:30:39Z</time>
      </trkpt>
      <trkpt lat="47.55775" lon="1.8319845">
        <ele>138.0</ele>
        <time>2021-11-25T09:30:40Z</time>
      </trkpt>
      <trkpt lat="47.557762" lon="1.8319801">
        <ele>138.0</ele>
        <time>2021-11-25T09:30:41Z</time>
      </trkpt>
      <trkpt lat="47.55777" lon="1.8319728">
        <ele>138.0</ele>
        <time>2021-11-25T09:30:42Z</time>
      </trkpt>
      <trkpt lat="47.557777" lon="1.8319671">
        <ele>137.0</ele>
        <time>2021-11-25T09:30:43Z</time>
      </trkpt>
      <trkpt lat="47.557785" lon="1.8319647">
        <ele>138.0</ele>
        <time>2021-11-25T09:30:44Z</time>
      </trkpt>
      <trkpt lat="47.557796" lon="1.8319623">
        <ele>138.0</ele>
        <time>2021-11-25T09:30:45Z</time>
      </trkpt>
      <trkpt lat="47.55781" lon="1.8319631">
        <ele>137.0</ele>
        <time>2021-11-25T09:30:46Z</time>
      </trkpt>
      <trkpt lat="47.557823" lon="1.8319694">
        <ele>138.0</ele>
        <time>2021-11-25T09:30:47Z</time>
      </trkpt>
      <trkpt lat="47.55783" lon="1.8319767">
        <ele>138.0</ele>
        <time>2021-11-25T09:30:48Z</time>
      </trkpt>
      <trkpt lat="47.557842" lon="1.8319756">
        <ele>138.0</ele>
        <time>2021-11-25T09:30:49Z</time>
      </trkpt>
      <trkpt lat="47.55785" lon="1.8319756">
        <ele>137.0</ele>
        <time>2021-11-25T09:30:50Z</time>
      </trkpt>
      <trkpt lat="47.557858" lon="1.831974">
        <ele>137.0</ele>
        <time>2021-11-25T09:30:51Z</time>
      </trkpt>
      <trkpt lat="47.557865" lon="1.8319747">
        <ele>137.0</ele>
        <time>2021-11-25T09:30:52Z</time>
      </trkpt>
      <trkpt lat="47.557877" lon="1.8319757">
        <ele>136.0</ele>
        <time>2021-11-25T09:30:53Z</time>
      </trkpt>
      <trkpt lat="47.557888" lon="1.8319738">
        <ele>136.0</ele>
        <time>2021-11-25T09:30:54Z</time>
      </trkpt>
      <trkpt lat="47.5579" lon="1.8319763">
        <ele>136.0</ele>
        <time>2021-11-25T09:30:55Z</time>
      </trkpt>
      <trkpt lat="47.55791" lon="1.8319777">
        <ele>136.0</ele>
        <time>2021-11-25T09:30:56Z</time>
      </trkpt>
      <trkpt lat="47.55792" lon="1.8319771">
        <ele>136.0</ele>
        <time>2021-11-25T09:30:57Z</time>
      </trkpt>
      <trkpt lat="47.557926" lon="1.8319774">
        <ele>135.0</ele>
        <time>2021-11-25T09:30:58Z</time>
      </trkpt>
      <trkpt lat="47.557938" lon="1.8319793">
        <ele>135.0</ele>
        <time>2021-11-25T09:30:59Z</time>
      </trkpt>
      <trkpt lat="47.557953" lon="1.8319798">
        <ele>135.0</ele>
        <time>2021-11-25T09:31:00Z</time>
      </trkpt>
      <trkpt lat="47.557964" lon="1.8319782">
        <ele>134.0</ele>
        <time>2021-11-25T09:31:01Z</time>
      </trkpt>
      <trkpt lat="47.557976" lon="1.8319745">
        <ele>134.0</ele>
        <time>2021-11-25T09:31:02Z</time>
      </trkpt>
      <trkpt lat="47.557987" lon="1.8319755">
        <ele>134.0</ele>
        <time>2021-11-25T09:31:03Z</time>
      </trkpt>
      <trkpt lat="47.558002" lon="1.831976">
        <ele>134.0</ele>
        <time>2021-11-25T09:31:04Z</time>
      </trkpt>
      <trkpt lat="47.558014" lon="1.8319792">
        <ele>134.0</ele>
        <time>2021-11-25T09:31:05Z</time>
      </trkpt>
      <trkpt lat="47.55803" lon="1.8319774">
        <ele>135.0</ele>
        <time>2021-11-25T09:31:06Z</time>
      </trkpt>
      <trkpt lat="47.558044" lon="1.8319807">
        <ele>135.0</ele>
        <time>2021-11-25T09:31:07Z</time>
      </trkpt>
      <trkpt lat="47.558056" lon="1.8319784">
        <ele>134.0</ele>
        <time>2021-11-25T09:31:08Z</time>
      </trkpt>
      <trkpt lat="47.55807" lon="1.8319823">
        <ele>134.0</ele>
        <time>2021-11-25T09:31:09Z</time>
      </trkpt>
      <trkpt lat="47.558083" lon="1.8319839">
        <ele>134.0</ele>
        <time>2021-11-25T09:31:10Z</time>
      </trkpt>
      <trkpt lat="47.558094" lon="1.831984">
        <ele>134.0</ele>
        <time>2021-11-25T09:31:11Z</time>
      </trkpt>
      <trkpt lat="47.55811" lon="1.831987">
        <ele>134.0</ele>
        <time>2021-11-25T09:31:12Z</time>
      </trkpt>
      <trkpt lat="47.558125" lon="1.8319837">
        <ele>134.0</ele>
        <time>2021-11-25T09:31:13Z</time>
      </trkpt>
      <trkpt lat="47.558132" lon="1.8319794">
        <ele>134.0</ele>
        <time>2021-11-25T09:31:14Z</time>
      </trkpt>
      <trkpt lat="47.558147" lon="1.8319792">
        <ele>134.0</ele>
        <time>2021-11-25T09:31:15Z</time>
      </trkpt>
      <trkpt lat="47.55816" lon="1.8319759">
        <ele>134.0</ele>
        <time>2021-11-25T09:31:16Z</time>
      </trkpt>
      <trkpt lat="47.558174" lon="1.8319689">
        <ele>134.0</ele>
        <time>2021-11-25T09:31:17Z</time>
      </trkpt>
      <trkpt lat="47.558193" lon="1.8319602">
        <ele>134.0</ele>
        <time>2021-11-25T09:31:18Z</time>
      </trkpt>
      <trkpt lat="47.558205" lon="1.8319509">
        <ele>133.0</ele>
        <time>2021-11-25T09:31:19Z</time>
      </trkpt>
      <trkpt lat="47.558216" lon="1.8319458">
        <ele>133.0</ele>
        <time>2021-11-25T09:31:20Z</time>
      </trkpt>
      <trkpt lat="47.558228" lon="1.8319415">
        <ele>133.0</ele>
        <time>2021-11-25T09:31:21Z</time>
      </trkpt>
      <trkpt lat="47.55824" lon="1.831935">
        <ele>133.0</ele>
        <time>2021-11-25T09:31:22Z</time>
      </trkpt>
      <trkpt lat="47.55826" lon="1.8319286">
        <ele>133.0</ele>
        <time>2021-11-25T09:31:23Z</time>
      </trkpt>
      <trkpt lat="47.55828" lon="1.831928">
        <ele>134.0</ele>
        <time>2021-11-25T09:31:24Z</time>
      </trkpt>
      <trkpt lat="47.558296" lon="1.8319278">
        <ele>134.0</ele>
        <time>2021-11-25T09:31:25Z</time>
      </trkpt>
      <trkpt lat="47.55831" lon="1.831928">
        <ele>135.0</ele>
        <time>2021-11-25T09:31:26Z</time>
      </trkpt>
      <trkpt lat="47.558323" lon="1.8319277">
        <ele>135.0</ele>
        <time>2021-11-25T09:31:27Z</time>
      </trkpt>
      <trkpt lat="47.55833" lon="1.8319247">
        <ele>134.0</ele>
        <time>2021-11-25T09:31:28Z</time>
      </trkpt>
      <trkpt lat="47.558346" lon="1.831922">
        <ele>135.0</ele>
        <time>2021-11-25T09:31:29Z</time>
      </trkpt>
      <trkpt lat="47.55836" lon="1.8319213">
        <ele>135.0</ele>
        <time>2021-11-25T09:31:30Z</time>
      </trkpt>
      <trkpt lat="47.558372" lon="1.8319234">
        <ele>135.0</ele>
        <time>2021-11-25T09:31:31Z</time>
      </trkpt>
      <trkpt lat="47.558384" lon="1.8319192">
        <ele>135.0</ele>
        <time>2021-11-25T09:31:32Z</time>
      </trkpt>
      <trkpt lat="47.5584" lon="1.831914">
        <ele>135.0</ele>
        <time>2021-11-25T09:31:33Z</time>
      </trkpt>
      <trkpt lat="47.55841" lon="1.831909">
        <ele>135.0</ele>
        <time>2021-11-25T09:31:34Z</time>
      </trkpt>
      <trkpt lat="47.558426" lon="1.8319083">
        <ele>135.0</ele>
        <time>2021-11-25T09:31:35Z</time>
      </trkpt>
      <trkpt lat="47.55844" lon="1.8319094">
        <ele>135.0</ele>
        <time>2021-11-25T09:31:36Z</time>
      </trkpt>
      <trkpt lat="47.55845" lon="1.831906">
        <ele>135.0</ele>
        <time>2021-11-25T09:31:37Z</time>
      </trkpt>
      <trkpt lat="47.55846" lon="1.8319018">
        <ele>135.0</ele>
        <time>2021-11-25T09:31:38Z</time>
      </trkpt>
      <trkpt lat="47.558468" lon="1.831899">
        <ele>136.0</ele>
        <time>2021-11-25T09:31:39Z</time>
      </trkpt>
      <trkpt lat="47.55848" lon="1.8318884">
        <ele>136.0</ele>
        <time>2021-11-25T09:31:40Z</time>
      </trkpt>
      <trkpt lat="47.55849" lon="1.8318839">
        <ele>137.0</ele>
        <time>2021-11-25T09:31:41Z</time>
      </trkpt>
      <trkpt lat="47.558502" lon="1.8318783">
        <ele>137.0</ele>
        <time>2021-11-25T09:31:42Z</time>
      </trkpt>
      <trkpt lat="47.55851" lon="1.8318746">
        <ele>137.0</ele>
        <time>2021-11-25T09:31:43Z</time>
      </trkpt>
      <trkpt lat="47.55852" lon="1.8318706">
        <ele>137.0</ele>
        <time>2021-11-25T09:31:44Z</time>
      </trkpt>
      <trkpt lat="47.558537" lon="1.8318644">
        <ele>137.0</ele>
        <time>2021-11-25T09:31:45Z</time>
      </trkpt>
      <trkpt lat="47.558548" lon="1.8318628">
        <ele>137.0</ele>
        <time>2021-11-25T09:31:46Z</time>
      </trkpt>
      <trkpt lat="47.558563" lon="1.8318596">
        <ele>137.0</ele>
        <time>2021-11-25T09:31:47Z</time>
      </trkpt>
      <trkpt lat="47.55858" lon="1.8318559">
        <ele>137.0</ele>
        <time>2021-11-25T09:31:48Z</time>
      </trkpt>
      <trkpt lat="47.558586" lon="1.831855">
        <ele>137.0</ele>
        <time>2021-11-25T09:31:49Z</time>
      </trkpt>
      <trkpt lat="47.5586" lon="1.8318506">
        <ele>137.0</ele>
        <time>2021-11-25T09:31:50Z</time>
      </trkpt>
      <trkpt lat="47.558613" lon="1.8318441">
        <ele>138.0</ele>
        <time>2021-11-25T09:31:51Z</time>
      </trkpt>
      <trkpt lat="47.55862" lon="1.8318374">
        <ele>138.0</ele>
        <time>2021-11-25T09:31:52Z</time>
      </trkpt>
      <trkpt lat="47.558636" lon="1.83183">
        <ele>138.0</ele>
        <time>2021-11-25T09:31:53Z</time>
      </trkpt>
      <trkpt lat="47.558643" lon="1.8318273">
        <ele>139.0</ele>
        <time>2021-11-25T09:31:54Z</time>
      </trkpt>
      <trkpt lat="47.55866" lon="1.831825">
        <ele>138.0</ele>
        <time>2021-11-25T09:31:55Z</time>
      </trkpt>
      <trkpt lat="47.55867" lon="1.8318236">
        <ele>138.0</ele>
        <time>2021-11-25T09:31:56Z</time>
      </trkpt>
      <trkpt lat="47.558685" lon="1.8318206">
        <ele>138.0</ele>
        <time>2021-11-25T09:31:57Z</time>
      </trkpt>
      <trkpt lat="47.5587" lon="1.831816">
        <ele>139.0</ele>
        <time>2021-11-25T09:31:58Z</time>
      </trkpt>
      <trkpt lat="47.558716" lon="1.8318088">
        <ele>139.0</ele>
        <time>2021-11-25T09:31:59Z</time>
      </trkpt>
      <trkpt lat="47.558727" lon="1.8318053">
        <ele>139.0</ele>
        <time>2021-11-25T09:32:00Z</time>
      </trkpt>
      <trkpt lat="47.558743" lon="1.8318057">
        <ele>140.0</ele>
        <time>2021-11-25T09:32:01Z</time>
      </trkpt>
      <trkpt lat="47.558754" lon="1.8318067">
        <ele>140.0</ele>
        <time>2021-11-25T09:32:02Z</time>
      </trkpt>
      <trkpt lat="47.55876" lon="1.8318013">
        <ele>140.0</ele>
        <time>2021-11-25T09:32:03Z</time>
      </trkpt>
      <trkpt lat="47.55877" lon="1.8317963">
        <ele>141.0</ele>
        <time>2021-11-25T09:32:04Z</time>
      </trkpt>
      <trkpt lat="47.558784" lon="1.8317924">
        <ele>141.0</ele>
        <time>2021-11-25T09:32:05Z</time>
      </trkpt>
      <trkpt lat="47.558792" lon="1.831786">
        <ele>140.0</ele>
        <time>2021-11-25T09:32:06Z</time>
      </trkpt>
      <trkpt lat="47.558807" lon="1.8317777">
        <ele>141.0</ele>
        <time>2021-11-25T09:32:07Z</time>
      </trkpt>
      <trkpt lat="47.55882" lon="1.8317759">
        <ele>141.0</ele>
        <time>2021-11-25T09:32:08Z</time>
      </trkpt>
      <trkpt lat="47.55883" lon="1.8317801">
        <ele>141.0</ele>
        <time>2021-11-25T09:32:09Z</time>
      </trkpt>
      <trkpt lat="47.55884" lon="1.8317771">
        <ele>141.0</ele>
        <time>2021-11-25T09:32:10Z</time>
      </trkpt>
      <trkpt lat="47.558857" lon="1.8317702">
        <ele>141.0</ele>
        <time>2021-11-25T09:32:11Z</time>
      </trkpt>
      <trkpt lat="47.558872" lon="1.83176">
        <ele>142.0</ele>
        <time>2021-11-25T09:32:12Z</time>
      </trkpt>
      <trkpt lat="47.55888" lon="1.8317572">
        <ele>142.0</ele>
        <time>2021-11-25T09:32:13Z</time>
      </trkpt>
      <trkpt lat="47.558887" lon="1.8317543">
        <ele>142.0</ele>
        <time>2021-11-25T09:32:14Z</time>
      </trkpt>
      <trkpt lat="47.558903" lon="1.8317485">
        <ele>142.0</ele>
        <time>2021-11-25T09:32:15Z</time>
      </trkpt>
      <trkpt lat="47.558914" lon="1.8317436">
        <ele>142.0</ele>
        <time>2021-11-25T09:32:16Z</time>
      </trkpt>
      <trkpt lat="47.558926" lon="1.8317401">
        <ele>142.0</ele>
        <time>2021-11-25T09:32:17Z</time>
      </trkpt>
      <trkpt lat="47.558937" lon="1.8317397">
        <ele>142.0</ele>
        <time>2021-11-25T09:32:18Z</time>
      </trkpt>
      <trkpt lat="47.558945" lon="1.8317382">
        <ele>142.0</ele>
        <time>2021-11-25T09:32:19Z</time>
      </trkpt>
      <trkpt lat="47.558956" lon="1.8317376">
        <ele>142.0</ele>
        <time>2021-11-25T09:32:20Z</time>
      </trkpt>
      <trkpt lat="47.558968" lon="1.8317347">
        <ele>142.0</ele>
        <time>2021-11-25T09:32:21Z</time>
      </trkpt>
      <trkpt lat="47.55898" lon="1.8317263">
        <ele>142.0</ele>
        <time>2021-11-25T09:32:22Z</time>
      </trkpt>
      <trkpt lat="47.55899" lon="1.8317182">
        <ele>142.0</ele>
        <time>2021-11-25T09:32:23Z</time>
      </trkpt>
      <trkpt lat="47.559002" lon="1.8317109">
        <ele>141.0</ele>
        <time>2021-11-25T09:32:24Z</time>
      </trkpt>
      <trkpt lat="47.55902" lon="1.8317028">
        <ele>141.0</ele>
        <time>2021-11-25T09:32:25Z</time>
      </trkpt>
      <trkpt lat="47.55903" lon="1.8317003">
        <ele>141.0</ele>
        <time>2021-11-25T09:32:26Z</time>
      </trkpt>
      <trkpt lat="47.55904" lon="1.8316965">
        <ele>141.0</ele>
        <time>2021-11-25T09:32:27Z</time>
      </trkpt>
      <trkpt lat="47.559048" lon="1.8316888">
        <ele>141.0</ele>
        <time>2021-11-25T09:32:28Z</time>
      </trkpt>
      <trkpt lat="47.55906" lon="1.8316842">
        <ele>141.0</ele>
        <time>2021-11-25T09:32:29Z</time>
      </trkpt>
      <trkpt lat="47.55907" lon="1.8316842">
        <ele>141.0</ele>
        <time>2021-11-25T09:32:30Z</time>
      </trkpt>
      <trkpt lat="47.559082" lon="1.8316844">
        <ele>141.0</ele>
        <time>2021-11-25T09:32:31Z</time>
      </trkpt>
      <trkpt lat="47.559093" lon="1.8316883">
        <ele>141.0</ele>
        <time>2021-11-25T09:32:32Z</time>
      </trkpt>
      <trkpt lat="47.559097" lon="1.8316861">
        <ele>141.0</ele>
        <time>2021-11-25T09:32:33Z</time>
      </trkpt>
      <trkpt lat="47.559105" lon="1.8316798">
        <ele>141.0</ele>
        <time>2021-11-25T09:32:34Z</time>
      </trkpt>
      <trkpt lat="47.559113" lon="1.8316782">
        <ele>141.0</ele>
        <time>2021-11-25T09:32:35Z</time>
      </trkpt>
      <trkpt lat="47.559128" lon="1.8316786">
        <ele>142.0</ele>
        <time>2021-11-25T09:32:36Z</time>
      </trkpt>
      <trkpt lat="47.559135" lon="1.8316846">
        <ele>142.0</ele>
        <time>2021-11-25T09:32:37Z</time>
      </trkpt>
      <trkpt lat="47.559143" lon="1.8316842">
        <ele>142.0</ele>
        <time>2021-11-25T09:32:38Z</time>
      </trkpt>
      <trkpt lat="47.559155" lon="1.8316795">
        <ele>141.0</ele>
        <time>2021-11-25T09:32:39Z</time>
      </trkpt>
      <trkpt lat="47.55917" lon="1.831677">
        <ele>141.0</ele>
        <time>2021-11-25T09:32:40Z</time>
      </trkpt>
      <trkpt lat="47.559177" lon="1.8316759">
        <ele>141.0</ele>
        <time>2021-11-25T09:32:41Z</time>
      </trkpt>
      <trkpt lat="47.559193" lon="1.8316712">
        <ele>140.0</ele>
        <time>2021-11-25T09:32:42Z</time>
      </trkpt>
      <trkpt lat="47.559204" lon="1.831664">
        <ele>140.0</ele>
        <time>2021-11-25T09:32:43Z</time>
      </trkpt>
      <trkpt lat="47.55922" lon="1.8316547">
        <ele>140.0</ele>
        <time>2021-11-25T09:32:44Z</time>
      </trkpt>
      <trkpt lat="47.559235" lon="1.8316472">
        <ele>141.0</ele>
        <time>2021-11-25T09:32:45Z</time>
      </trkpt>
      <trkpt lat="47.55925" lon="1.8316413">
        <ele>141.0</ele>
        <time>2021-11-25T09:32:46Z</time>
      </trkpt>
      <trkpt lat="47.559265" lon="1.8316331">
        <ele>141.0</ele>
        <time>2021-11-25T09:32:47Z</time>
      </trkpt>
      <trkpt lat="47.559273" lon="1.8316247">
        <ele>141.0</ele>
        <time>2021-11-25T09:32:48Z</time>
      </trkpt>
      <trkpt lat="47.55928" lon="1.831621">
        <ele>141.0</ele>
        <time>2021-11-25T09:32:49Z</time>
      </trkpt>
      <trkpt lat="47.559288" lon="1.8316236">
        <ele>141.0</ele>
        <time>2021-11-25T09:32:50Z</time>
      </trkpt>
      <trkpt lat="47.559303" lon="1.8316298">
        <ele>141.0</ele>
        <time>2021-11-25T09:32:51Z</time>
      </trkpt>
      <trkpt lat="47.559315" lon="1.831627">
        <ele>141.0</ele>
        <time>2021-11-25T09:32:52Z</time>
      </trkpt>
      <trkpt lat="47.559326" lon="1.8316245">
        <ele>141.0</ele>
        <time>2021-11-25T09:32:53Z</time>
      </trkpt>
      <trkpt lat="47.559334" lon="1.8316231">
        <ele>141.0</ele>
        <time>2021-11-25T09:32:54Z</time>
      </trkpt>
      <trkpt lat="47.559345" lon="1.831618">
        <ele>141.0</ele>
        <time>2021-11-25T09:32:55Z</time>
      </trkpt>
      <trkpt lat="47.559357" lon="1.8316156">
        <ele>140.0</ele>
        <time>2021-11-25T09:32:56Z</time>
      </trkpt>
      <trkpt lat="47.55937" lon="1.8316125">
        <ele>140.0</ele>
        <time>2021-11-25T09:32:57Z</time>
      </trkpt>
      <trkpt lat="47.559383" lon="1.8316104">
        <ele>140.0</ele>
        <time>2021-11-25T09:32:58Z</time>
      </trkpt>
      <trkpt lat="47.55939" lon="1.8316047">
        <ele>140.0</ele>
        <time>2021-11-25T09:32:59Z</time>
      </trkpt>
      <trkpt lat="47.559402" lon="1.8315985">
        <ele>140.0</ele>
        <time>2021-11-25T09:33:00Z</time>
      </trkpt>
      <trkpt lat="47.559414" lon="1.8315941">
        <ele>140.0</ele>
        <time>2021-11-25T09:33:01Z</time>
      </trkpt>
      <trkpt lat="47.55942" lon="1.8315909">
        <ele>139.0</ele>
        <time>2021-11-25T09:33:02Z</time>
      </trkpt>
      <trkpt lat="47.559433" lon="1.8315914">
        <ele>139.0</ele>
        <time>2021-11-25T09:33:03Z</time>
      </trkpt>
      <trkpt lat="47.55944" lon="1.8315903">
        <ele>139.0</ele>
        <time>2021-11-25T09:33:04Z</time>
      </trkpt>
      <trkpt lat="47.559452" lon="1.8315876">
        <ele>139.0</ele>
        <time>2021-11-25T09:33:05Z</time>
      </trkpt>
      <trkpt lat="47.559464" lon="1.8315909">
        <ele>139.0</ele>
        <time>2021-11-25T09:33:06Z</time>
      </trkpt>
      <trkpt lat="47.55947" lon="1.8315876">
        <ele>139.0</ele>
        <time>2021-11-25T09:33:07Z</time>
      </trkpt>
      <trkpt lat="47.55948" lon="1.8315872">
        <ele>139.0</ele>
        <time>2021-11-25T09:33:08Z</time>
      </trkpt>
      <trkpt lat="47.559486" lon="1.831587">
        <ele>139.0</ele>
        <time>2021-11-25T09:33:09Z</time>
      </trkpt>
      <trkpt lat="47.55949" lon="1.8315886">
        <ele>140.0</ele>
        <time>2021-11-25T09:33:10Z</time>
      </trkpt>
      <trkpt lat="47.559494" lon="1.8315895">
        <ele>140.0</ele>
        <time>2021-11-25T09:33:11Z</time>
      </trkpt>
      <trkpt lat="47.5595" lon="1.8315849">
        <ele>140.0</ele>
        <time>2021-11-25T09:33:12Z</time>
      </trkpt>
      <trkpt lat="47.559505" lon="1.8315818">
        <ele>140.0</ele>
        <time>2021-11-25T09:33:13Z</time>
      </trkpt>
      <trkpt lat="47.559513" lon="1.8315791">
        <ele>140.0</ele>
        <time>2021-11-25T09:33:14Z</time>
      </trkpt>
      <trkpt lat="47.55952" lon="1.831581">
        <ele>140.0</ele>
        <time>2021-11-25T09:33:15Z</time>
      </trkpt>
      <trkpt lat="47.559532" lon="1.8315842">
        <ele>140.0</ele>
        <time>2021-11-25T09:33:16Z</time>
      </trkpt>
      <trkpt lat="47.55954" lon="1.8315816">
        <ele>140.0</ele>
        <time>2021-11-25T09:33:17Z</time>
      </trkpt>
      <trkpt lat="47.559547" lon="1.8315755">
        <ele>140.0</ele>
        <time>2021-11-25T09:33:18Z</time>
      </trkpt>
      <trkpt lat="47.559555" lon="1.8315768">
        <ele>140.0</ele>
        <time>2021-11-25T09:33:19Z</time>
      </trkpt>
      <trkpt lat="47.559563" lon="1.831574">
        <ele>140.0</ele>
        <time>2021-11-25T09:33:20Z</time>
      </trkpt>
      <trkpt lat="47.55957" lon="1.8315744">
        <ele>140.0</ele>
        <time>2021-11-25T09:33:21Z</time>
      </trkpt>
      <trkpt lat="47.559578" lon="1.8315754">
        <ele>140.0</ele>
        <time>2021-11-25T09:33:22Z</time>
      </trkpt>
      <trkpt lat="47.559586" lon="1.8315736">
        <ele>140.0</ele>
        <time>2021-11-25T09:33:23Z</time>
      </trkpt>
      <trkpt lat="47.55959" lon="1.8315706">
        <ele>140.0</ele>
        <time>2021-11-25T09:33:24Z</time>
      </trkpt>
      <trkpt lat="47.5596" lon="1.8315672">
        <ele>140.0</ele>
        <time>2021-11-25T09:33:25Z</time>
      </trkpt>
      <trkpt lat="47.5596" lon="1.8315672">
        <ele>140.0</ele>
        <time>2021-11-25T09:33:26Z</time>
      </trkpt>
      <trkpt lat="47.5596" lon="1.8315672">
        <ele>140.0</ele>
        <time>2021-11-25T09:33:27Z</time>
      </trkpt>
      <trkpt lat="47.55961" lon="1.83155">
        <ele>140.0</ele>
        <time>2021-11-25T09:33:28Z</time>
      </trkpt>
      <trkpt lat="47.559612" lon="1.831543">
        <ele>139.0</ele>
        <time>2021-11-25T09:33:29Z</time>
      </trkpt>
      <trkpt lat="47.559616" lon="1.8315371">
        <ele>139.0</ele>
        <time>2021-11-25T09:33:30Z</time>
      </trkpt>
      <trkpt lat="47.55962" lon="1.8315384">
        <ele>139.0</ele>
        <time>2021-11-25T09:33:31Z</time>
      </trkpt>
      <trkpt lat="47.55962" lon="1.8315384">
        <ele>139.0</ele>
        <time>2021-11-25T09:33:32Z</time>
      </trkpt>
      <trkpt lat="47.55962" lon="1.8315384">
        <ele>139.0</ele>
        <time>2021-11-25T09:33:33Z</time>
      </trkpt>
      <trkpt lat="47.559635" lon="1.8315382">
        <ele>139.0</ele>
        <time>2021-11-25T09:33:34Z</time>
      </trkpt>
      <trkpt lat="47.55964" lon="1.8315417">
        <ele>139.0</ele>
        <time>2021-11-25T09:33:35Z</time>
      </trkpt>
      <trkpt lat="47.559647" lon="1.831546">
        <ele>139.0</ele>
        <time>2021-11-25T09:33:36Z</time>
      </trkpt>
      <trkpt lat="47.559654" lon="1.8315451">
        <ele>139.0</ele>
        <time>2021-11-25T09:33:37Z</time>
      </trkpt>
      <trkpt lat="47.55967" lon="1.8315482">
        <ele>139.0</ele>
        <time>2021-11-25T09:33:38Z</time>
      </trkpt>
      <trkpt lat="47.55968" lon="1.8315502">
        <ele>139.0</ele>
        <time>2021-11-25T09:33:39Z</time>
      </trkpt>
      <trkpt lat="47.559696" lon="1.8315545">
        <ele>138.0</ele>
        <time>2021-11-25T09:33:40Z</time>
      </trkpt>
      <trkpt lat="47.55971" lon="1.8315502">
        <ele>138.0</ele>
        <time>2021-11-25T09:33:41Z</time>
      </trkpt>
      <trkpt lat="47.559723" lon="1.8315467">
        <ele>137.0</ele>
        <time>2021-11-25T09:33:42Z</time>
      </trkpt>
      <trkpt lat="47.55973" lon="1.8315451">
        <ele>137.0</ele>
        <time>2021-11-25T09:33:43Z</time>
      </trkpt>
      <trkpt lat="47.55974" lon="1.8315396">
        <ele>136.0</ele>
        <time>2021-11-25T09:33:44Z</time>
      </trkpt>
      <trkpt lat="47.55974" lon="1.8315396">
        <ele>136.0</ele>
        <time>2021-11-25T09:33:45Z</time>
      </trkpt>
      <trkpt lat="47.559757" lon="1.831529">
        <ele>136.0</ele>
        <time>2021-11-25T09:33:46Z</time>
      </trkpt>
      <trkpt lat="47.55977" lon="1.8315251">
        <ele>135.0</ele>
        <time>2021-11-25T09:33:47Z</time>
      </trkpt>
      <trkpt lat="47.55978" lon="1.8315119">
        <ele>134.0</ele>
        <time>2021-11-25T09:33:48Z</time>
      </trkpt>
      <trkpt lat="47.559795" lon="1.8315027">
        <ele>134.0</ele>
        <time>2021-11-25T09:33:49Z</time>
      </trkpt>
      <trkpt lat="47.559807" lon="1.8314987">
        <ele>133.0</ele>
        <time>2021-11-25T09:33:50Z</time>
      </trkpt>
      <trkpt lat="47.559822" lon="1.8314937">
        <ele>133.0</ele>
        <time>2021-11-25T09:33:51Z</time>
      </trkpt>
      <trkpt lat="47.559834" lon="1.8314976">
        <ele>133.0</ele>
        <time>2021-11-25T09:33:52Z</time>
      </trkpt>
      <trkpt lat="47.559845" lon="1.831505">
        <ele>133.0</ele>
        <time>2021-11-25T09:33:53Z</time>
      </trkpt>
      <trkpt lat="47.559856" lon="1.8315043">
        <ele>132.0</ele>
        <time>2021-11-25T09:33:54Z</time>
      </trkpt>
      <trkpt lat="47.559868" lon="1.831498">
        <ele>132.0</ele>
        <time>2021-11-25T09:33:55Z</time>
      </trkpt>
      <trkpt lat="47.559875" lon="1.8314915">
        <ele>133.0</ele>
        <time>2021-11-25T09:33:56Z</time>
      </trkpt>
      <trkpt lat="47.559887" lon="1.8314879">
        <ele>133.0</ele>
        <time>2021-11-25T09:33:57Z</time>
      </trkpt>
      <trkpt lat="47.559906" lon="1.8314856">
        <ele>133.0</ele>
        <time>2021-11-25T09:33:58Z</time>
      </trkpt>
      <trkpt lat="47.559917" lon="1.8314896">
        <ele>134.0</ele>
        <time>2021-11-25T09:33:59Z</time>
      </trkpt>
      <trkpt lat="47.559925" lon="1.8314869">
        <ele>133.0</ele>
        <time>2021-11-25T09:34:00Z</time>
      </trkpt>
      <trkpt lat="47.55994" lon="1.8314819">
        <ele>133.0</ele>
        <time>2021-11-25T09:34:01Z</time>
      </trkpt>
      <trkpt lat="47.559956" lon="1.8314782">
        <ele>133.0</ele>
        <time>2021-11-25T09:34:02Z</time>
      </trkpt>
      <trkpt lat="47.559967" lon="1.8314754">
        <ele>133.0</ele>
        <time>2021-11-25T09:34:03Z</time>
      </trkpt>
      <trkpt lat="47.55998" lon="1.8314755">
        <ele>133.0</ele>
        <time>2021-11-25T09:34:04Z</time>
      </trkpt>
      <trkpt lat="47.55999" lon="1.8314723">
        <ele>133.0</ele>
        <time>2021-11-25T09:34:05Z</time>
      </trkpt>
      <trkpt lat="47.56001" lon="1.8314728">
        <ele>132.0</ele>
        <time>2021-11-25T09:34:06Z</time>
      </trkpt>
      <trkpt lat="47.560024" lon="1.8314723">
        <ele>132.0</ele>
        <time>2021-11-25T09:34:07Z</time>
      </trkpt>
      <trkpt lat="47.56004" lon="1.8314714">
        <ele>132.0</ele>
        <time>2021-11-25T09:34:08Z</time>
      </trkpt>
      <trkpt lat="47.56006" lon="1.8314655">
        <ele>132.0</ele>
        <time>2021-11-25T09:34:09Z</time>
      </trkpt>
      <trkpt lat="47.560074" lon="1.831466">
        <ele>132.0</ele>
        <time>2021-11-25T09:34:10Z</time>
      </trkpt>
      <trkpt lat="47.560093" lon="1.831464">
        <ele>132.0</ele>
        <time>2021-11-25T09:34:11Z</time>
      </trkpt>
      <trkpt lat="47.560104" lon="1.8314607">
        <ele>132.0</ele>
        <time>2021-11-25T09:34:12Z</time>
      </trkpt>
      <trkpt lat="47.56012" lon="1.8314588">
        <ele>132.0</ele>
        <time>2021-11-25T09:34:13Z</time>
      </trkpt>
      <trkpt lat="47.56013" lon="1.8314523">
        <ele>132.0</ele>
        <time>2021-11-25T09:34:14Z</time>
      </trkpt>
      <trkpt lat="47.560143" lon="1.8314478">
        <ele>132.0</ele>
        <time>2021-11-25T09:34:15Z</time>
      </trkpt>
      <trkpt lat="47.560158" lon="1.8314406">
        <ele>132.0</ele>
        <time>2021-11-25T09:34:16Z</time>
      </trkpt>
      <trkpt lat="47.560177" lon="1.8314321">
        <ele>132.0</ele>
        <time>2021-11-25T09:34:17Z</time>
      </trkpt>
      <trkpt lat="47.56019" lon="1.8314327">
        <ele>131.0</ele>
        <time>2021-11-25T09:34:18Z</time>
      </trkpt>
      <trkpt lat="47.560204" lon="1.8314258">
        <ele>131.0</ele>
        <time>2021-11-25T09:34:19Z</time>
      </trkpt>
      <trkpt lat="47.56022" lon="1.8314176">
        <ele>131.0</ele>
        <time>2021-11-25T09:34:20Z</time>
      </trkpt>
      <trkpt lat="47.56023" lon="1.8314114">
        <ele>132.0</ele>
        <time>2021-11-25T09:34:21Z</time>
      </trkpt>
      <trkpt lat="47.560246" lon="1.8314052">
        <ele>132.0</ele>
        <time>2021-11-25T09:34:22Z</time>
      </trkpt>
      <trkpt lat="47.560265" lon="1.8313975">
        <ele>133.0</ele>
        <time>2021-11-25T09:34:23Z</time>
      </trkpt>
      <trkpt lat="47.56028" lon="1.8313893">
        <ele>134.0</ele>
        <time>2021-11-25T09:34:24Z</time>
      </trkpt>
      <trkpt lat="47.560295" lon="1.8313775">
        <ele>134.0</ele>
        <time>2021-11-25T09:34:25Z</time>
      </trkpt>
      <trkpt lat="47.560314" lon="1.8313628">
        <ele>135.0</ele>
        <time>2021-11-25T09:34:26Z</time>
      </trkpt>
      <trkpt lat="47.56033" lon="1.8313574">
        <ele>136.0</ele>
        <time>2021-11-25T09:34:27Z</time>
      </trkpt>
      <trkpt lat="47.560345" lon="1.8313501">
        <ele>136.0</ele>
        <time>2021-11-25T09:34:28Z</time>
      </trkpt>
      <trkpt lat="47.560368" lon="1.8313427">
        <ele>137.0</ele>
        <time>2021-11-25T09:34:29Z</time>
      </trkpt>
      <trkpt lat="47.560383" lon="1.8313357">
        <ele>137.0</ele>
        <time>2021-11-25T09:34:30Z</time>
      </trkpt>
      <trkpt lat="47.5604" lon="1.8313234">
        <ele>137.0</ele>
        <time>2021-11-25T09:34:31Z</time>
      </trkpt>
      <trkpt lat="47.560417" lon="1.8313128">
        <ele>138.0</ele>
        <time>2021-11-25T09:34:32Z</time>
      </trkpt>
      <trkpt lat="47.560432" lon="1.8313066">
        <ele>138.0</ele>
        <time>2021-11-25T09:34:33Z</time>
      </trkpt>
      <trkpt lat="47.560448" lon="1.8312901">
        <ele>137.0</ele>
        <time>2021-11-25T09:34:34Z</time>
      </trkpt>
      <trkpt lat="47.560463" lon="1.8312776">
        <ele>137.0</ele>
        <time>2021-11-25T09:34:35Z</time>
      </trkpt>
      <trkpt lat="47.560474" lon="1.8312702">
        <ele>137.0</ele>
        <time>2021-11-25T09:34:36Z</time>
      </trkpt>
      <trkpt lat="47.560482" lon="1.8312654">
        <ele>137.0</ele>
        <time>2021-11-25T09:34:37Z</time>
      </trkpt>
      <trkpt lat="47.560493" lon="1.8312618">
        <ele>138.0</ele>
        <time>2021-11-25T09:34:38Z</time>
      </trkpt>
      <trkpt lat="47.5605" lon="1.8312569">
        <ele>138.0</ele>
        <time>2021-11-25T09:34:39Z</time>
      </trkpt>
      <trkpt lat="47.560516" lon="1.8312519">
        <ele>138.0</ele>
        <time>2021-11-25T09:34:40Z</time>
      </trkpt>
      <trkpt lat="47.560528" lon="1.8312442">
        <ele>138.0</ele>
        <time>2021-11-25T09:34:41Z</time>
      </trkpt>
      <trkpt lat="47.56054" lon="1.8312377">
        <ele>138.0</ele>
        <time>2021-11-25T09:34:42Z</time>
      </trkpt>
      <trkpt lat="47.56055" lon="1.8312346">
        <ele>138.0</ele>
        <time>2021-11-25T09:34:43Z</time>
      </trkpt>
      <trkpt lat="47.560562" lon="1.8312298">
        <ele>139.0</ele>
        <time>2021-11-25T09:34:44Z</time>
      </trkpt>
      <trkpt lat="47.56057" lon="1.8312237">
        <ele>139.0</ele>
        <time>2021-11-25T09:34:45Z</time>
      </trkpt>
      <trkpt lat="47.560585" lon="1.8312174">
        <ele>138.0</ele>
        <time>2021-11-25T09:34:46Z</time>
      </trkpt>
      <trkpt lat="47.560596" lon="1.8312134">
        <ele>138.0</ele>
        <time>2021-11-25T09:34:47Z</time>
      </trkpt>
      <trkpt lat="47.56061" lon="1.8312021">
        <ele>138.0</ele>
        <time>2021-11-25T09:34:48Z</time>
      </trkpt>
      <trkpt lat="47.560623" lon="1.8311942">
        <ele>138.0</ele>
        <time>2021-11-25T09:34:49Z</time>
      </trkpt>
      <trkpt lat="47.560635" lon="1.831192">
        <ele>137.0</ele>
        <time>2021-11-25T09:34:50Z</time>
      </trkpt>
      <trkpt lat="47.560642" lon="1.8311889">
        <ele>137.0</ele>
        <time>2021-11-25T09:34:51Z</time>
      </trkpt>
      <trkpt lat="47.560654" lon="1.8311805">
        <ele>137.0</ele>
        <time>2021-11-25T09:34:52Z</time>
      </trkpt>
      <trkpt lat="47.56066" lon="1.8311794">
        <ele>137.0</ele>
        <time>2021-11-25T09:34:53Z</time>
      </trkpt>
      <trkpt lat="47.560677" lon="1.8311766">
        <ele>137.0</ele>
        <time>2021-11-25T09:34:54Z</time>
      </trkpt>
      <trkpt lat="47.560688" lon="1.831171">
        <ele>137.0</ele>
        <time>2021-11-25T09:34:55Z</time>
      </trkpt>
      <trkpt lat="47.5607" lon="1.8311644">
        <ele>136.0</ele>
        <time>2021-11-25T09:34:56Z</time>
      </trkpt>
      <trkpt lat="47.56071" lon="1.8311617">
        <ele>136.0</ele>
        <time>2021-11-25T09:34:57Z</time>
      </trkpt>
      <trkpt lat="47.560722" lon="1.8311572">
        <ele>137.0</ele>
        <time>2021-11-25T09:34:58Z</time>
      </trkpt>
      <trkpt lat="47.560738" lon="1.831153">
        <ele>137.0</ele>
        <time>2021-11-25T09:34:59Z</time>
      </trkpt>
      <trkpt lat="47.56075" lon="1.8311473">
        <ele>137.0</ele>
        <time>2021-11-25T09:35:00Z</time>
      </trkpt>
      <trkpt lat="47.56076" lon="1.8311434">
        <ele>137.0</ele>
        <time>2021-11-25T09:35:01Z</time>
      </trkpt>
      <trkpt lat="47.560776" lon="1.8311374">
        <ele>137.0</ele>
        <time>2021-11-25T09:35:02Z</time>
      </trkpt>
      <trkpt lat="47.560787" lon="1.831136">
        <ele>136.0</ele>
        <time>2021-11-25T09:35:03Z</time>
      </trkpt>
      <trkpt lat="47.560802" lon="1.8311309">
        <ele>136.0</ele>
        <time>2021-11-25T09:35:04Z</time>
      </trkpt>
      <trkpt lat="47.560818" lon="1.8311282">
        <ele>137.0</ele>
        <time>2021-11-25T09:35:05Z</time>
      </trkpt>
      <trkpt lat="47.560833" lon="1.8311265">
        <ele>137.0</ele>
        <time>2021-11-25T09:35:06Z</time>
      </trkpt>
      <trkpt lat="47.560844" lon="1.8311212">
        <ele>137.0</ele>
        <time>2021-11-25T09:35:07Z</time>
      </trkpt>
      <trkpt lat="47.560856" lon="1.831116">
        <ele>137.0</ele>
        <time>2021-11-25T09:35:08Z</time>
      </trkpt>
      <trkpt lat="47.560867" lon="1.8311102">
        <ele>137.0</ele>
        <time>2021-11-25T09:35:09Z</time>
      </trkpt>
      <trkpt lat="47.56088" lon="1.8311071">
        <ele>137.0</ele>
        <time>2021-11-25T09:35:10Z</time>
      </trkpt>
      <trkpt lat="47.56089" lon="1.8311073">
        <ele>137.0</ele>
        <time>2021-11-25T09:35:11Z</time>
      </trkpt>
      <trkpt lat="47.5609" lon="1.8311054">
        <ele>137.0</ele>
        <time>2021-11-25T09:35:12Z</time>
      </trkpt>
      <trkpt lat="47.560917" lon="1.8311007">
        <ele>137.0</ele>
        <time>2021-11-25T09:35:13Z</time>
      </trkpt>
      <trkpt lat="47.560932" lon="1.831098">
        <ele>137.0</ele>
        <time>2021-11-25T09:35:14Z</time>
      </trkpt>
      <trkpt lat="47.560947" lon="1.8310952">
        <ele>137.0</ele>
        <time>2021-11-25T09:35:15Z</time>
      </trkpt>
      <trkpt lat="47.56096" lon="1.8310866">
        <ele>137.0</ele>
        <time>2021-11-25T09:35:16Z</time>
      </trkpt>
      <trkpt lat="47.56097" lon="1.8310798">
        <ele>137.0</ele>
        <time>2021-11-25T09:35:17Z</time>
      </trkpt>
      <trkpt lat="47.56098" lon="1.8310748">
        <ele>138.0</ele>
        <time>2021-11-25T09:35:18Z</time>
      </trkpt>
      <trkpt lat="47.560993" lon="1.8310672">
        <ele>137.0</ele>
        <time>2021-11-25T09:35:19Z</time>
      </trkpt>
      <trkpt lat="47.561005" lon="1.8310577">
        <ele>137.0</ele>
        <time>2021-11-25T09:35:20Z</time>
      </trkpt>
      <trkpt lat="47.561016" lon="1.8310475">
        <ele>137.0</ele>
        <time>2021-11-25T09:35:21Z</time>
      </trkpt>
      <trkpt lat="47.56103" lon="1.8310378">
        <ele>137.0</ele>
        <time>2021-11-25T09:35:22Z</time>
      </trkpt>
      <trkpt lat="47.561047" lon="1.8310316">
        <ele>138.0</ele>
        <time>2021-11-25T09:35:23Z</time>
      </trkpt>
      <trkpt lat="47.561066" lon="1.8310246">
        <ele>138.0</ele>
        <time>2021-11-25T09:35:24Z</time>
      </trkpt>
      <trkpt lat="47.56108" lon="1.8310196">
        <ele>138.0</ele>
        <time>2021-11-25T09:35:25Z</time>
      </trkpt>
      <trkpt lat="47.561096" lon="1.8310134">
        <ele>139.0</ele>
        <time>2021-11-25T09:35:26Z</time>
      </trkpt>
      <trkpt lat="47.561104" lon="1.831007">
        <ele>139.0</ele>
        <time>2021-11-25T09:35:27Z</time>
      </trkpt>
      <trkpt lat="47.56112" lon="1.8310025">
        <ele>139.0</ele>
        <time>2021-11-25T09:35:28Z</time>
      </trkpt>
      <trkpt lat="47.561127" lon="1.8309956">
        <ele>140.0</ele>
        <time>2021-11-25T09:35:29Z</time>
      </trkpt>
      <trkpt lat="47.56114" lon="1.8309903">
        <ele>140.0</ele>
        <time>2021-11-25T09:35:30Z</time>
      </trkpt>
      <trkpt lat="47.56115" lon="1.8309819">
        <ele>140.0</ele>
        <time>2021-11-25T09:35:31Z</time>
      </trkpt>
      <trkpt lat="47.56116" lon="1.8309697">
        <ele>140.0</ele>
        <time>2021-11-25T09:35:32Z</time>
      </trkpt>
      <trkpt lat="47.56117" lon="1.8309602">
        <ele>140.0</ele>
        <time>2021-11-25T09:35:33Z</time>
      </trkpt>
      <trkpt lat="47.56118" lon="1.8309528">
        <ele>140.0</ele>
        <time>2021-11-25T09:35:34Z</time>
      </trkpt>
      <trkpt lat="47.561195" lon="1.8309468">
        <ele>141.0</ele>
        <time>2021-11-25T09:35:35Z</time>
      </trkpt>
      <trkpt lat="47.56121" lon="1.8309454">
        <ele>141.0</ele>
        <time>2021-11-25T09:35:36Z</time>
      </trkpt>
      <trkpt lat="47.561222" lon="1.830941">
        <ele>141.0</ele>
        <time>2021-11-25T09:35:37Z</time>
      </trkpt>
      <trkpt lat="47.56123" lon="1.8309338">
        <ele>141.0</ele>
        <time>2021-11-25T09:35:38Z</time>
      </trkpt>
      <trkpt lat="47.56124" lon="1.8309228">
        <ele>141.0</ele>
        <time>2021-11-25T09:35:39Z</time>
      </trkpt>
      <trkpt lat="47.561256" lon="1.8309133">
        <ele>141.0</ele>
        <time>2021-11-25T09:35:40Z</time>
      </trkpt>
      <trkpt lat="47.561268" lon="1.830906">
        <ele>141.0</ele>
        <time>2021-11-25T09:35:41Z</time>
      </trkpt>
      <trkpt lat="47.56128" lon="1.8308991">
        <ele>141.0</ele>
        <time>2021-11-25T09:35:42Z</time>
      </trkpt>
      <trkpt lat="47.561295" lon="1.8308926">
        <ele>141.0</ele>
        <time>2021-11-25T09:35:43Z</time>
      </trkpt>
      <trkpt lat="47.56131" lon="1.8308871">
        <ele>141.0</ele>
        <time>2021-11-25T09:35:44Z</time>
      </trkpt>
      <trkpt lat="47.561317" lon="1.8308756">
        <ele>141.0</ele>
        <time>2021-11-25T09:35:45Z</time>
      </trkpt>
      <trkpt lat="47.56132" lon="1.8308607">
        <ele>141.0</ele>
        <time>2021-11-25T09:35:46Z</time>
      </trkpt>
      <trkpt lat="47.561333" lon="1.8308454">
        <ele>141.0</ele>
        <time>2021-11-25T09:35:47Z</time>
      </trkpt>
      <trkpt lat="47.56134" lon="1.8308302">
        <ele>141.0</ele>
        <time>2021-11-25T09:35:48Z</time>
      </trkpt>
      <trkpt lat="47.56135" lon="1.8308251">
        <ele>141.0</ele>
        <time>2021-11-25T09:35:49Z</time>
      </trkpt>
      <trkpt lat="47.561363" lon="1.8308157">
        <ele>141.0</ele>
        <time>2021-11-25T09:35:50Z</time>
      </trkpt>
      <trkpt lat="47.56138" lon="1.830811">
        <ele>140.0</ele>
        <time>2021-11-25T09:35:51Z</time>
      </trkpt>
      <trkpt lat="47.561386" lon="1.8308032">
        <ele>140.0</ele>
        <time>2021-11-25T09:35:52Z</time>
      </trkpt>
      <trkpt lat="47.561398" lon="1.8307972">
        <ele>140.0</ele>
        <time>2021-11-25T09:35:53Z</time>
      </trkpt>
      <trkpt lat="47.561405" lon="1.8307968">
        <ele>139.0</ele>
        <time>2021-11-25T09:35:54Z</time>
      </trkpt>
      <trkpt lat="47.561417" lon="1.830791">
        <ele>139.0</ele>
        <time>2021-11-25T09:35:55Z</time>
      </trkpt>
      <trkpt lat="47.561424" lon="1.830789">
        <ele>139.0</ele>
        <time>2021-11-25T09:35:56Z</time>
      </trkpt>
      <trkpt lat="47.561436" lon="1.8307887">
        <ele>139.0</ele>
        <time>2021-11-25T09:35:57Z</time>
      </trkpt>
      <trkpt lat="47.561443" lon="1.8307902">
        <ele>139.0</ele>
        <time>2021-11-25T09:35:58Z</time>
      </trkpt>
      <trkpt lat="47.561455" lon="1.8307949">
        <ele>139.0</ele>
        <time>2021-11-25T09:35:59Z</time>
      </trkpt>
      <trkpt lat="47.561466" lon="1.8307908">
        <ele>139.0</ele>
        <time>2021-11-25T09:36:00Z</time>
      </trkpt>
      <trkpt lat="47.561478" lon="1.8307854">
        <ele>139.0</ele>
        <time>2021-11-25T09:36:01Z</time>
      </trkpt>
      <trkpt lat="47.561485" lon="1.8307781">
        <ele>139.0</ele>
        <time>2021-11-25T09:36:02Z</time>
      </trkpt>
      <trkpt lat="47.561497" lon="1.8307725">
        <ele>139.0</ele>
        <time>2021-11-25T09:36:03Z</time>
      </trkpt>
      <trkpt lat="47.56151" lon="1.8307693">
        <ele>139.0</ele>
        <time>2021-11-25T09:36:04Z</time>
      </trkpt>
      <trkpt lat="47.561523" lon="1.8307695">
        <ele>139.0</ele>
        <time>2021-11-25T09:36:05Z</time>
      </trkpt>
      <trkpt lat="47.561535" lon="1.830765">
        <ele>139.0</ele>
        <time>2021-11-25T09:36:06Z</time>
      </trkpt>
      <trkpt lat="47.561546" lon="1.8307573">
        <ele>139.0</ele>
        <time>2021-11-25T09:36:07Z</time>
      </trkpt>
      <trkpt lat="47.56156" lon="1.8307503">
        <ele>139.0</ele>
        <time>2021-11-25T09:36:08Z</time>
      </trkpt>
      <trkpt lat="47.561577" lon="1.8307436">
        <ele>140.0</ele>
        <time>2021-11-25T09:36:09Z</time>
      </trkpt>
      <trkpt lat="47.561592" lon="1.8307346">
        <ele>140.0</ele>
        <time>2021-11-25T09:36:10Z</time>
      </trkpt>
      <trkpt lat="47.561604" lon="1.8307272">
        <ele>140.0</ele>
        <time>2021-11-25T09:36:11Z</time>
      </trkpt>
      <trkpt lat="47.561615" lon="1.8307183">
        <ele>139.0</ele>
        <time>2021-11-25T09:36:12Z</time>
      </trkpt>
      <trkpt lat="47.561626" lon="1.8307108">
        <ele>139.0</ele>
        <time>2021-11-25T09:36:13Z</time>
      </trkpt>
      <trkpt lat="47.56164" lon="1.8307071">
        <ele>139.0</ele>
        <time>2021-11-25T09:36:14Z</time>
      </trkpt>
      <trkpt lat="47.561653" lon="1.8306988">
        <ele>140.0</ele>
        <time>2021-11-25T09:36:15Z</time>
      </trkpt>
      <trkpt lat="47.56167" lon="1.8306926">
        <ele>140.0</ele>
        <time>2021-11-25T09:36:16Z</time>
      </trkpt>
      <trkpt lat="47.56168" lon="1.8306811">
        <ele>140.0</ele>
        <time>2021-11-25T09:36:17Z</time>
      </trkpt>
      <trkpt lat="47.56169" lon="1.8306742">
        <ele>140.0</ele>
        <time>2021-11-25T09:36:18Z</time>
      </trkpt>
      <trkpt lat="47.561703" lon="1.8306682">
        <ele>140.0</ele>
        <time>2021-11-25T09:36:19Z</time>
      </trkpt>
      <trkpt lat="47.561718" lon="1.8306642">
        <ele>140.0</ele>
        <time>2021-11-25T09:36:20Z</time>
      </trkpt>
      <trkpt lat="47.56173" lon="1.8306572">
        <ele>140.0</ele>
        <time>2021-11-25T09:36:21Z</time>
      </trkpt>
      <trkpt lat="47.56174" lon="1.8306484">
        <ele>140.0</ele>
        <time>2021-11-25T09:36:22Z</time>
      </trkpt>
      <trkpt lat="47.561752" lon="1.8306389">
        <ele>140.0</ele>
        <time>2021-11-25T09:36:23Z</time>
      </trkpt>
      <trkpt lat="47.561764" lon="1.8306392">
        <ele>140.0</ele>
        <time>2021-11-25T09:36:24Z</time>
      </trkpt>
      <trkpt lat="47.561775" lon="1.8306391">
        <ele>140.0</ele>
        <time>2021-11-25T09:36:25Z</time>
      </trkpt>
      <trkpt lat="47.561787" lon="1.83064">
        <ele>140.0</ele>
        <time>2021-11-25T09:36:26Z</time>
      </trkpt>
      <trkpt lat="47.561794" lon="1.830632">
        <ele>140.0</ele>
        <time>2021-11-25T09:36:27Z</time>
      </trkpt>
      <trkpt lat="47.561806" lon="1.8306247">
        <ele>140.0</ele>
        <time>2021-11-25T09:36:28Z</time>
      </trkpt>
      <trkpt lat="47.561817" lon="1.8306166">
        <ele>140.0</ele>
        <time>2021-11-25T09:36:29Z</time>
      </trkpt>
      <trkpt lat="47.561832" lon="1.8306131">
        <ele>140.0</ele>
        <time>2021-11-25T09:36:30Z</time>
      </trkpt>
      <trkpt lat="47.561844" lon="1.83061">
        <ele>140.0</ele>
        <time>2021-11-25T09:36:31Z</time>
      </trkpt>
      <trkpt lat="47.561855" lon="1.830607">
        <ele>140.0</ele>
        <time>2021-11-25T09:36:32Z</time>
      </trkpt>
      <trkpt lat="47.56187" lon="1.8306026">
        <ele>141.0</ele>
        <time>2021-11-25T09:36:33Z</time>
      </trkpt>
      <trkpt lat="47.561882" lon="1.8305931">
        <ele>141.0</ele>
        <time>2021-11-25T09:36:34Z</time>
      </trkpt>
      <trkpt lat="47.561893" lon="1.8305864">
        <ele>141.0</ele>
        <time>2021-11-25T09:36:35Z</time>
      </trkpt>
      <trkpt lat="47.561905" lon="1.8305779">
        <ele>141.0</ele>
        <time>2021-11-25T09:36:36Z</time>
      </trkpt>
      <trkpt lat="47.561913" lon="1.8305689">
        <ele>141.0</ele>
        <time>2021-11-25T09:36:37Z</time>
      </trkpt>
      <trkpt lat="47.56192" lon="1.830562">
        <ele>141.0</ele>
        <time>2021-11-25T09:36:38Z</time>
      </trkpt>
      <trkpt lat="47.56193" lon="1.8305628">
        <ele>141.0</ele>
        <time>2021-11-25T09:36:39Z</time>
      </trkpt>
      <trkpt lat="47.561943" lon="1.8305613">
        <ele>141.0</ele>
        <time>2021-11-25T09:36:40Z</time>
      </trkpt>
      <trkpt lat="47.56196" lon="1.8305594">
        <ele>141.0</ele>
        <time>2021-11-25T09:36:41Z</time>
      </trkpt>
      <trkpt lat="47.56197" lon="1.8305532">
        <ele>141.0</ele>
        <time>2021-11-25T09:36:42Z</time>
      </trkpt>
      <trkpt lat="47.56198" lon="1.8305439">
        <ele>141.0</ele>
        <time>2021-11-25T09:36:43Z</time>
      </trkpt>
      <trkpt lat="47.561996" lon="1.8305396">
        <ele>141.0</ele>
        <time>2021-11-25T09:36:44Z</time>
      </trkpt>
      <trkpt lat="47.562008" lon="1.8305347">
        <ele>142.0</ele>
        <time>2021-11-25T09:36:45Z</time>
      </trkpt>
      <trkpt lat="47.562023" lon="1.8305327">
        <ele>142.0</ele>
        <time>2021-11-25T09:36:46Z</time>
      </trkpt>
      <trkpt lat="47.56203" lon="1.8305284">
        <ele>142.0</ele>
        <time>2021-11-25T09:36:47Z</time>
      </trkpt>
      <trkpt lat="47.562042" lon="1.8305261">
        <ele>142.0</ele>
        <time>2021-11-25T09:36:48Z</time>
      </trkpt>
      <trkpt lat="47.562054" lon="1.8305192">
        <ele>142.0</ele>
        <time>2021-11-25T09:36:49Z</time>
      </trkpt>
      <trkpt lat="47.562065" lon="1.830516">
        <ele>142.0</ele>
        <time>2021-11-25T09:36:50Z</time>
      </trkpt>
      <trkpt lat="47.562077" lon="1.8305157">
        <ele>142.0</ele>
        <time>2021-11-25T09:36:51Z</time>
      </trkpt>
      <trkpt lat="47.562084" lon="1.830514">
        <ele>142.0</ele>
        <time>2021-11-25T09:36:52Z</time>
      </trkpt>
      <trkpt lat="47.562096" lon="1.8305107">
        <ele>142.0</ele>
        <time>2021-11-25T09:36:53Z</time>
      </trkpt>
      <trkpt lat="47.562107" lon="1.8305066">
        <ele>142.0</ele>
        <time>2021-11-25T09:36:54Z</time>
      </trkpt>
      <trkpt lat="47.56212" lon="1.8304999">
        <ele>142.0</ele>
        <time>2021-11-25T09:36:55Z</time>
      </trkpt>
      <trkpt lat="47.562134" lon="1.830497">
        <ele>141.0</ele>
        <time>2021-11-25T09:36:56Z</time>
      </trkpt>
      <trkpt lat="47.56214" lon="1.8304895">
        <ele>141.0</ele>
        <time>2021-11-25T09:36:57Z</time>
      </trkpt>
      <trkpt lat="47.562153" lon="1.8304813">
        <ele>141.0</ele>
        <time>2021-11-25T09:36:58Z</time>
      </trkpt>
      <trkpt lat="47.562164" lon="1.830478">
        <ele>142.0</ele>
        <time>2021-11-25T09:36:59Z</time>
      </trkpt>
      <trkpt lat="47.562176" lon="1.8304752">
        <ele>141.0</ele>
        <time>2021-11-25T09:37:00Z</time>
      </trkpt>
      <trkpt lat="47.562183" lon="1.8304712">
        <ele>141.0</ele>
        <time>2021-11-25T09:37:01Z</time>
      </trkpt>
      <trkpt lat="47.5622" lon="1.8304669">
        <ele>141.0</ele>
        <time>2021-11-25T09:37:02Z</time>
      </trkpt>
      <trkpt lat="47.56221" lon="1.830465">
        <ele>141.0</ele>
        <time>2021-11-25T09:37:03Z</time>
      </trkpt>
      <trkpt lat="47.562225" lon="1.830462">
        <ele>141.0</ele>
        <time>2021-11-25T09:37:04Z</time>
      </trkpt>
      <trkpt lat="47.562233" lon="1.8304579">
        <ele>140.0</ele>
        <time>2021-11-25T09:37:05Z</time>
      </trkpt>
      <trkpt lat="47.56225" lon="1.8304524">
        <ele>141.0</ele>
        <time>2021-11-25T09:37:06Z</time>
      </trkpt>
      <trkpt lat="47.562252" lon="1.830443">
        <ele>141.0</ele>
        <time>2021-11-25T09:37:07Z</time>
      </trkpt>
      <trkpt lat="47.562263" lon="1.8304346">
        <ele>140.0</ele>
        <time>2021-11-25T09:37:08Z</time>
      </trkpt>
      <trkpt lat="47.562275" lon="1.8304327">
        <ele>140.0</ele>
        <time>2021-11-25T09:37:09Z</time>
      </trkpt>
      <trkpt lat="47.562286" lon="1.830425">
        <ele>141.0</ele>
        <time>2021-11-25T09:37:10Z</time>
      </trkpt>
      <trkpt lat="47.562294" lon="1.8304226">
        <ele>141.0</ele>
        <time>2021-11-25T09:37:11Z</time>
      </trkpt>
      <trkpt lat="47.56231" lon="1.830422">
        <ele>141.0</ele>
        <time>2021-11-25T09:37:12Z</time>
      </trkpt>
      <trkpt lat="47.56232" lon="1.830419">
        <ele>142.0</ele>
        <time>2021-11-25T09:37:13Z</time>
      </trkpt>
      <trkpt lat="47.562332" lon="1.830409">
        <ele>142.0</ele>
        <time>2021-11-25T09:37:14Z</time>
      </trkpt>
      <trkpt lat="47.562347" lon="1.8304058">
        <ele>142.0</ele>
        <time>2021-11-25T09:37:15Z</time>
      </trkpt>
      <trkpt lat="47.56236" lon="1.8304045">
        <ele>142.0</ele>
        <time>2021-11-25T09:37:16Z</time>
      </trkpt>
      <trkpt lat="47.56237" lon="1.8303988">
        <ele>142.0</ele>
        <time>2021-11-25T09:37:17Z</time>
      </trkpt>
      <trkpt lat="47.56238" lon="1.8303913">
        <ele>143.0</ele>
        <time>2021-11-25T09:37:18Z</time>
      </trkpt>
      <trkpt lat="47.562393" lon="1.8303875">
        <ele>143.0</ele>
        <time>2021-11-25T09:37:19Z</time>
      </trkpt>
      <trkpt lat="47.56241" lon="1.8303779">
        <ele>143.0</ele>
        <time>2021-11-25T09:37:20Z</time>
      </trkpt>
      <trkpt lat="47.562424" lon="1.8303746">
        <ele>143.0</ele>
        <time>2021-11-25T09:37:21Z</time>
      </trkpt>
      <trkpt lat="47.562435" lon="1.8303692">
        <ele>143.0</ele>
        <time>2021-11-25T09:37:22Z</time>
      </trkpt>
      <trkpt lat="47.56245" lon="1.830365">
        <ele>143.0</ele>
        <time>2021-11-25T09:37:23Z</time>
      </trkpt>
      <trkpt lat="47.56246" lon="1.8303593">
        <ele>143.0</ele>
        <time>2021-11-25T09:37:24Z</time>
      </trkpt>
      <trkpt lat="47.562477" lon="1.8303559">
        <ele>143.0</ele>
        <time>2021-11-25T09:37:25Z</time>
      </trkpt>
      <trkpt lat="47.562485" lon="1.8303524">
        <ele>144.0</ele>
        <time>2021-11-25T09:37:26Z</time>
      </trkpt>
      <trkpt lat="47.562496" lon="1.8303424">
        <ele>143.0</ele>
        <time>2021-11-25T09:37:27Z</time>
      </trkpt>
      <trkpt lat="47.562508" lon="1.830335">
        <ele>144.0</ele>
        <time>2021-11-25T09:37:28Z</time>
      </trkpt>
      <trkpt lat="47.56252" lon="1.8303316">
        <ele>144.0</ele>
        <time>2021-11-25T09:37:29Z</time>
      </trkpt>
      <trkpt lat="47.56253" lon="1.8303238">
        <ele>144.0</ele>
        <time>2021-11-25T09:37:30Z</time>
      </trkpt>
      <trkpt lat="47.562542" lon="1.8303152">
        <ele>145.0</ele>
        <time>2021-11-25T09:37:31Z</time>
      </trkpt>
      <trkpt lat="47.562553" lon="1.8303093">
        <ele>145.0</ele>
        <time>2021-11-25T09:37:32Z</time>
      </trkpt>
      <trkpt lat="47.562565" lon="1.8303057">
        <ele>146.0</ele>
        <time>2021-11-25T09:37:33Z</time>
      </trkpt>
      <trkpt lat="47.562576" lon="1.8302987">
        <ele>145.0</ele>
        <time>2021-11-25T09:37:34Z</time>
      </trkpt>
      <trkpt lat="47.562584" lon="1.8302974">
        <ele>146.0</ele>
        <time>2021-11-25T09:37:35Z</time>
      </trkpt>
      <trkpt lat="47.5626" lon="1.8302948">
        <ele>145.0</ele>
        <time>2021-11-25T09:37:36Z</time>
      </trkpt>
      <trkpt lat="47.56261" lon="1.8302913">
        <ele>145.0</ele>
        <time>2021-11-25T09:37:37Z</time>
      </trkpt>
      <trkpt lat="47.562622" lon="1.8302848">
        <ele>145.0</ele>
        <time>2021-11-25T09:37:38Z</time>
      </trkpt>
      <trkpt lat="47.562637" lon="1.8302789">
        <ele>145.0</ele>
        <time>2021-11-25T09:37:39Z</time>
      </trkpt>
      <trkpt lat="47.56265" lon="1.8302774">
        <ele>145.0</ele>
        <time>2021-11-25T09:37:40Z</time>
      </trkpt>
      <trkpt lat="47.562664" lon="1.8302683">
        <ele>146.0</ele>
        <time>2021-11-25T09:37:41Z</time>
      </trkpt>
      <trkpt lat="47.562675" lon="1.8302613">
        <ele>146.0</ele>
        <time>2021-11-25T09:37:42Z</time>
      </trkpt>
      <trkpt lat="47.56269" lon="1.8302515">
        <ele>146.0</ele>
        <time>2021-11-25T09:37:43Z</time>
      </trkpt>
      <trkpt lat="47.562702" lon="1.8302438">
        <ele>146.0</ele>
        <time>2021-11-25T09:37:44Z</time>
      </trkpt>
      <trkpt lat="47.562714" lon="1.8302368">
        <ele>145.0</ele>
        <time>2021-11-25T09:37:45Z</time>
      </trkpt>
      <trkpt lat="47.56273" lon="1.830229">
        <ele>145.0</ele>
        <time>2021-11-25T09:37:46Z</time>
      </trkpt>
      <trkpt lat="47.562744" lon="1.8302227">
        <ele>145.0</ele>
        <time>2021-11-25T09:37:47Z</time>
      </trkpt>
      <trkpt lat="47.562756" lon="1.8302191">
        <ele>145.0</ele>
        <time>2021-11-25T09:37:48Z</time>
      </trkpt>
      <trkpt lat="47.562767" lon="1.8302155">
        <ele>145.0</ele>
        <time>2021-11-25T09:37:49Z</time>
      </trkpt>
      <trkpt lat="47.56278" lon="1.8302057">
        <ele>144.0</ele>
        <time>2021-11-25T09:37:50Z</time>
      </trkpt>
      <trkpt lat="47.562786" lon="1.8301998">
        <ele>144.0</ele>
        <time>2021-11-25T09:37:51Z</time>
      </trkpt>
      <trkpt lat="47.562794" lon="1.8301969">
        <ele>145.0</ele>
        <time>2021-11-25T09:37:52Z</time>
      </trkpt>
      <trkpt lat="47.562805" lon="1.8301879">
        <ele>145.0</ele>
        <time>2021-11-25T09:37:53Z</time>
      </trkpt>
      <trkpt lat="47.562817" lon="1.83018">
        <ele>145.0</ele>
        <time>2021-11-25T09:37:54Z</time>
      </trkpt>
      <trkpt lat="47.562824" lon="1.8301741">
        <ele>145.0</ele>
        <time>2021-11-25T09:37:55Z</time>
      </trkpt>
      <trkpt lat="47.562836" lon="1.8301654">
        <ele>144.0</ele>
        <time>2021-11-25T09:37:56Z</time>
      </trkpt>
      <trkpt lat="47.56285" lon="1.8301575">
        <ele>144.0</ele>
        <time>2021-11-25T09:37:57Z</time>
      </trkpt>
      <trkpt lat="47.562866" lon="1.8301511">
        <ele>144.0</ele>
        <time>2021-11-25T09:37:58Z</time>
      </trkpt>
      <trkpt lat="47.562878" lon="1.8301464">
        <ele>144.0</ele>
        <time>2021-11-25T09:37:59Z</time>
      </trkpt>
      <trkpt lat="47.56289" lon="1.8301365">
        <ele>144.0</ele>
        <time>2021-11-25T09:38:00Z</time>
      </trkpt>
      <trkpt lat="47.562904" lon="1.8301299">
        <ele>144.0</ele>
        <time>2021-11-25T09:38:01Z</time>
      </trkpt>
      <trkpt lat="47.562916" lon="1.830121">
        <ele>144.0</ele>
        <time>2021-11-25T09:38:02Z</time>
      </trkpt>
      <trkpt lat="47.56293" lon="1.8301146">
        <ele>144.0</ele>
        <time>2021-11-25T09:38:03Z</time>
      </trkpt>
      <trkpt lat="47.562935" lon="1.8301064">
        <ele>144.0</ele>
        <time>2021-11-25T09:38:04Z</time>
      </trkpt>
      <trkpt lat="47.562943" lon="1.8300993">
        <ele>145.0</ele>
        <time>2021-11-25T09:38:05Z</time>
      </trkpt>
      <trkpt lat="47.562946" lon="1.8300889">
        <ele>145.0</ele>
        <time>2021-11-25T09:38:06Z</time>
      </trkpt>
      <trkpt lat="47.562958" lon="1.8300827">
        <ele>145.0</ele>
        <time>2021-11-25T09:38:07Z</time>
      </trkpt>
      <trkpt lat="47.56297" lon="1.8300778">
        <ele>144.0</ele>
        <time>2021-11-25T09:38:08Z</time>
      </trkpt>
      <trkpt lat="47.56298" lon="1.8300738">
        <ele>144.0</ele>
        <time>2021-11-25T09:38:09Z</time>
      </trkpt>
      <trkpt lat="47.562992" lon="1.8300663">
        <ele>144.0</ele>
        <time>2021-11-25T09:38:10Z</time>
      </trkpt>
      <trkpt lat="47.563007" lon="1.8300583">
        <ele>145.0</ele>
        <time>2021-11-25T09:38:11Z</time>
      </trkpt>
      <trkpt lat="47.56302" lon="1.8300536">
        <ele>145.0</ele>
        <time>2021-11-25T09:38:12Z</time>
      </trkpt>
      <trkpt lat="47.563034" lon="1.8300457">
        <ele>145.0</ele>
        <time>2021-11-25T09:38:13Z</time>
      </trkpt>
      <trkpt lat="47.563046" lon="1.8300406">
        <ele>146.0</ele>
        <time>2021-11-25T09:38:14Z</time>
      </trkpt>
      <trkpt lat="47.563053" lon="1.8300381">
        <ele>146.0</ele>
        <time>2021-11-25T09:38:15Z</time>
      </trkpt>
      <trkpt lat="47.563065" lon="1.8300306">
        <ele>146.0</ele>
        <time>2021-11-25T09:38:16Z</time>
      </trkpt>
      <trkpt lat="47.56308" lon="1.8300238">
        <ele>146.0</ele>
        <time>2021-11-25T09:38:17Z</time>
      </trkpt>
      <trkpt lat="47.56309" lon="1.8300133">
        <ele>145.0</ele>
        <time>2021-11-25T09:38:18Z</time>
      </trkpt>
      <trkpt lat="47.563103" lon="1.8300014">
        <ele>145.0</ele>
        <time>2021-11-25T09:38:19Z</time>
      </trkpt>
      <trkpt lat="47.563114" lon="1.829993">
        <ele>146.0</ele>
        <time>2021-11-25T09:38:20Z</time>
      </trkpt>
      <trkpt lat="47.563126" lon="1.8299828">
        <ele>145.0</ele>
        <time>2021-11-25T09:38:21Z</time>
      </trkpt>
      <trkpt lat="47.56314" lon="1.8299766">
        <ele>145.0</ele>
        <time>2021-11-25T09:38:22Z</time>
      </trkpt>
      <trkpt lat="47.563152" lon="1.8299737">
        <ele>145.0</ele>
        <time>2021-11-25T09:38:23Z</time>
      </trkpt>
      <trkpt lat="47.563168" lon="1.8299694">
        <ele>145.0</ele>
        <time>2021-11-25T09:38:24Z</time>
      </trkpt>
      <trkpt lat="47.563175" lon="1.8299638">
        <ele>145.0</ele>
        <time>2021-11-25T09:38:25Z</time>
      </trkpt>
      <trkpt lat="47.563187" lon="1.8299587">
        <ele>146.0</ele>
        <time>2021-11-25T09:38:26Z</time>
      </trkpt>
      <trkpt lat="47.563198" lon="1.8299562">
        <ele>146.0</ele>
        <time>2021-11-25T09:38:27Z</time>
      </trkpt>
      <trkpt lat="47.563213" lon="1.8299547">
        <ele>146.0</ele>
        <time>2021-11-25T09:38:28Z</time>
      </trkpt>
      <trkpt lat="47.56323" lon="1.829951">
        <ele>146.0</ele>
        <time>2021-11-25T09:38:29Z</time>
      </trkpt>
      <trkpt lat="47.56324" lon="1.8299453">
        <ele>146.0</ele>
        <time>2021-11-25T09:38:30Z</time>
      </trkpt>
      <trkpt lat="47.563255" lon="1.829942">
        <ele>146.0</ele>
        <time>2021-11-25T09:38:31Z</time>
      </trkpt>
      <trkpt lat="47.56327" lon="1.8299279">
        <ele>145.0</ele>
        <time>2021-11-25T09:38:32Z</time>
      </trkpt>
      <trkpt lat="47.563286" lon="1.8299145">
        <ele>145.0</ele>
        <time>2021-11-25T09:38:33Z</time>
      </trkpt>
      <trkpt lat="47.563293" lon="1.829909">
        <ele>145.0</ele>
        <time>2021-11-25T09:38:34Z</time>
      </trkpt>
      <trkpt lat="47.563305" lon="1.829902">
        <ele>145.0</ele>
        <time>2021-11-25T09:38:35Z</time>
      </trkpt>
      <trkpt lat="47.563316" lon="1.8298955">
        <ele>145.0</ele>
        <time>2021-11-25T09:38:36Z</time>
      </trkpt>
      <trkpt lat="47.563328" lon="1.8298928">
        <ele>145.0</ele>
        <time>2021-11-25T09:38:37Z</time>
      </trkpt>
      <trkpt lat="47.563343" lon="1.8298962">
        <ele>145.0</ele>
        <time>2021-11-25T09:38:38Z</time>
      </trkpt>
      <trkpt lat="47.563354" lon="1.8298947">
        <ele>146.0</ele>
        <time>2021-11-25T09:38:39Z</time>
      </trkpt>
      <trkpt lat="47.563362" lon="1.8298947">
        <ele>146.0</ele>
        <time>2021-11-25T09:38:40Z</time>
      </trkpt>
      <trkpt lat="47.56337" lon="1.8298913">
        <ele>146.0</ele>
        <time>2021-11-25T09:38:41Z</time>
      </trkpt>
      <trkpt lat="47.56338" lon="1.8298856">
        <ele>146.0</ele>
        <time>2021-11-25T09:38:42Z</time>
      </trkpt>
      <trkpt lat="47.563393" lon="1.8298825">
        <ele>146.0</ele>
        <time>2021-11-25T09:38:43Z</time>
      </trkpt>
      <trkpt lat="47.563404" lon="1.8298827">
        <ele>146.0</ele>
        <time>2021-11-25T09:38:44Z</time>
      </trkpt>
      <trkpt lat="47.563416" lon="1.8298771">
        <ele>147.0</ele>
        <time>2021-11-25T09:38:45Z</time>
      </trkpt>
      <trkpt lat="47.563423" lon="1.829878">
        <ele>147.0</ele>
        <time>2021-11-25T09:38:46Z</time>
      </trkpt>
      <trkpt lat="47.563435" lon="1.8298811">
        <ele>147.0</ele>
        <time>2021-11-25T09:38:47Z</time>
      </trkpt>
      <trkpt lat="47.563442" lon="1.8298794">
        <ele>147.0</ele>
        <time>2021-11-25T09:38:48Z</time>
      </trkpt>
      <trkpt lat="47.56345" lon="1.8298762">
        <ele>148.0</ele>
        <time>2021-11-25T09:38:49Z</time>
      </trkpt>
      <trkpt lat="47.56346" lon="1.8298737">
        <ele>148.0</ele>
        <time>2021-11-25T09:38:50Z</time>
      </trkpt>
      <trkpt lat="47.563473" lon="1.8298697">
        <ele>148.0</ele>
        <time>2021-11-25T09:38:51Z</time>
      </trkpt>
      <trkpt lat="47.563488" lon="1.8298695">
        <ele>148.0</ele>
        <time>2021-11-25T09:38:52Z</time>
      </trkpt>
      <trkpt lat="47.563496" lon="1.8298639">
        <ele>149.0</ele>
        <time>2021-11-25T09:38:53Z</time>
      </trkpt>
      <trkpt lat="47.563507" lon="1.8298697">
        <ele>149.0</ele>
        <time>2021-11-25T09:38:54Z</time>
      </trkpt>
      <trkpt lat="47.563515" lon="1.8298781">
        <ele>149.0</ele>
        <time>2021-11-25T09:38:55Z</time>
      </trkpt>
      <trkpt lat="47.563522" lon="1.8298825">
        <ele>149.0</ele>
        <time>2021-11-25T09:38:56Z</time>
      </trkpt>
      <trkpt lat="47.56353" lon="1.8298875">
        <ele>149.0</ele>
        <time>2021-11-25T09:38:57Z</time>
      </trkpt>
      <trkpt lat="47.563538" lon="1.8298926">
        <ele>149.0</ele>
        <time>2021-11-25T09:38:58Z</time>
      </trkpt>
      <trkpt lat="47.563545" lon="1.8298979">
        <ele>149.0</ele>
        <time>2021-11-25T09:38:59Z</time>
      </trkpt>
      <trkpt lat="47.563553" lon="1.8299034">
        <ele>148.0</ele>
        <time>2021-11-25T09:39:00Z</time>
      </trkpt>
      <trkpt lat="47.56356" lon="1.8299067">
        <ele>147.0</ele>
        <time>2021-11-25T09:39:01Z</time>
      </trkpt>
      <trkpt lat="47.563572" lon="1.8299087">
        <ele>147.0</ele>
        <time>2021-11-25T09:39:02Z</time>
      </trkpt>
      <trkpt lat="47.56358" lon="1.8299141">
        <ele>148.0</ele>
        <time>2021-11-25T09:39:03Z</time>
      </trkpt>
      <trkpt lat="47.56359" lon="1.8299195">
        <ele>147.0</ele>
        <time>2021-11-25T09:39:04Z</time>
      </trkpt>
      <trkpt lat="47.563602" lon="1.8299272">
        <ele>147.0</ele>
        <time>2021-11-25T09:39:05Z</time>
      </trkpt>
      <trkpt lat="47.563618" lon="1.8299378">
        <ele>147.0</ele>
        <time>2021-11-25T09:39:06Z</time>
      </trkpt>
      <trkpt lat="47.56363" lon="1.8299396">
        <ele>146.0</ele>
        <time>2021-11-25T09:39:07Z</time>
      </trkpt>
      <trkpt lat="47.56364" lon="1.8299438">
        <ele>146.0</ele>
        <time>2021-11-25T09:39:08Z</time>
      </trkpt>
      <trkpt lat="47.563656" lon="1.829946">
        <ele>145.0</ele>
        <time>2021-11-25T09:39:09Z</time>
      </trkpt>
      <trkpt lat="47.563663" lon="1.8299505">
        <ele>145.0</ele>
        <time>2021-11-25T09:39:10Z</time>
      </trkpt>
      <trkpt lat="47.56367" lon="1.8299567">
        <ele>145.0</ele>
        <time>2021-11-25T09:39:11Z</time>
      </trkpt>
      <trkpt lat="47.56368" lon="1.8299671">
        <ele>145.0</ele>
        <time>2021-11-25T09:39:12Z</time>
      </trkpt>
      <trkpt lat="47.563686" lon="1.8299768">
        <ele>145.0</ele>
        <time>2021-11-25T09:39:13Z</time>
      </trkpt>
      <trkpt lat="47.563694" lon="1.8299825">
        <ele>145.0</ele>
        <time>2021-11-25T09:39:14Z</time>
      </trkpt>
      <trkpt lat="47.563705" lon="1.8299869">
        <ele>145.0</ele>
        <time>2021-11-25T09:39:15Z</time>
      </trkpt>
      <trkpt lat="47.563717" lon="1.8299894">
        <ele>144.0</ele>
        <time>2021-11-25T09:39:16Z</time>
      </trkpt>
      <trkpt lat="47.56373" lon="1.829995">
        <ele>144.0</ele>
        <time>2021-11-25T09:39:17Z</time>
      </trkpt>
      <trkpt lat="47.563736" lon="1.8300037">
        <ele>144.0</ele>
        <time>2021-11-25T09:39:18Z</time>
      </trkpt>
      <trkpt lat="47.56375" lon="1.8300071">
        <ele>144.0</ele>
        <time>2021-11-25T09:39:19Z</time>
      </trkpt>
      <trkpt lat="47.563763" lon="1.8300135">
        <ele>144.0</ele>
        <time>2021-11-25T09:39:20Z</time>
      </trkpt>
      <trkpt lat="47.56377" lon="1.830018">
        <ele>144.0</ele>
        <time>2021-11-25T09:39:21Z</time>
      </trkpt>
      <trkpt lat="47.563778" lon="1.8300285">
        <ele>144.0</ele>
        <time>2021-11-25T09:39:22Z</time>
      </trkpt>
      <trkpt lat="47.56379" lon="1.8300366">
        <ele>144.0</ele>
        <time>2021-11-25T09:39:23Z</time>
      </trkpt>
      <trkpt lat="47.563793" lon="1.8300494">
        <ele>144.0</ele>
        <time>2021-11-25T09:39:24Z</time>
      </trkpt>
      <trkpt lat="47.5638" lon="1.830069">
        <ele>144.0</ele>
        <time>2021-11-25T09:39:25Z</time>
      </trkpt>
      <trkpt lat="47.563805" lon="1.8300782">
        <ele>144.0</ele>
        <time>2021-11-25T09:39:26Z</time>
      </trkpt>
      <trkpt lat="47.563812" lon="1.8300864">
        <ele>144.0</ele>
        <time>2021-11-25T09:39:27Z</time>
      </trkpt>
      <trkpt lat="47.56382" lon="1.8300983">
        <ele>144.0</ele>
        <time>2021-11-25T09:39:28Z</time>
      </trkpt>
      <trkpt lat="47.563828" lon="1.8301095">
        <ele>145.0</ele>
        <time>2021-11-25T09:39:29Z</time>
      </trkpt>
      <trkpt lat="47.563828" lon="1.830118">
        <ele>145.0</ele>
        <time>2021-11-25T09:39:30Z</time>
      </trkpt>
      <trkpt lat="47.563828" lon="1.8301295">
        <ele>146.0</ele>
        <time>2021-11-25T09:39:31Z</time>
      </trkpt>
      <trkpt lat="47.563828" lon="1.8301443">
        <ele>146.0</ele>
        <time>2021-11-25T09:39:32Z</time>
      </trkpt>
      <trkpt lat="47.563828" lon="1.8301587">
        <ele>147.0</ele>
        <time>2021-11-25T09:39:33Z</time>
      </trkpt>
      <trkpt lat="47.563828" lon="1.8301696">
        <ele>147.0</ele>
        <time>2021-11-25T09:39:34Z</time>
      </trkpt>
      <trkpt lat="47.563824" lon="1.8301803">
        <ele>148.0</ele>
        <time>2021-11-25T09:39:35Z</time>
      </trkpt>
      <trkpt lat="47.56382" lon="1.8301896">
        <ele>148.0</ele>
        <time>2021-11-25T09:39:36Z</time>
      </trkpt>
      <trkpt lat="47.563816" lon="1.8301944">
        <ele>148.0</ele>
        <time>2021-11-25T09:39:37Z</time>
      </trkpt>
      <trkpt lat="47.563812" lon="1.8302017">
        <ele>148.0</ele>
        <time>2021-11-25T09:39:38Z</time>
      </trkpt>
      <trkpt lat="47.563805" lon="1.8302106">
        <ele>148.0</ele>
        <time>2021-11-25T09:39:39Z</time>
      </trkpt>
      <trkpt lat="47.5638" lon="1.8302207">
        <ele>147.0</ele>
        <time>2021-11-25T09:39:40Z</time>
      </trkpt>
      <trkpt lat="47.563793" lon="1.8302357">
        <ele>148.0</ele>
        <time>2021-11-25T09:39:41Z</time>
      </trkpt>
      <trkpt lat="47.563786" lon="1.8302495">
        <ele>148.0</ele>
        <time>2021-11-25T09:39:42Z</time>
      </trkpt>
      <trkpt lat="47.563778" lon="1.8302634">
        <ele>149.0</ele>
        <time>2021-11-25T09:39:43Z</time>
      </trkpt>
      <trkpt lat="47.563766" lon="1.8302776">
        <ele>149.0</ele>
        <time>2021-11-25T09:39:44Z</time>
      </trkpt>
      <trkpt lat="47.56376" lon="1.8302878">
        <ele>149.0</ele>
        <time>2021-11-25T09:39:45Z</time>
      </trkpt>
      <trkpt lat="47.56375" lon="1.8302997">
        <ele>148.0</ele>
        <time>2021-11-25T09:39:46Z</time>
      </trkpt>
      <trkpt lat="47.563744" lon="1.8303158">
        <ele>148.0</ele>
        <time>2021-11-25T09:39:47Z</time>
      </trkpt>
      <trkpt lat="47.563736" lon="1.8303238">
        <ele>148.0</ele>
        <time>2021-11-25T09:39:48Z</time>
      </trkpt>
      <trkpt lat="47.56373" lon="1.8303331">
        <ele>148.0</ele>
        <time>2021-11-25T09:39:49Z</time>
      </trkpt>
      <trkpt lat="47.56372" lon="1.8303446">
        <ele>149.0</ele>
        <time>2021-11-25T09:39:50Z</time>
      </trkpt>
      <trkpt lat="47.563713" lon="1.830356">
        <ele>149.0</ele>
        <time>2021-11-25T09:39:51Z</time>
      </trkpt>
      <trkpt lat="47.563705" lon="1.8303653">
        <ele>149.0</ele>
        <time>2021-11-25T09:39:52Z</time>
      </trkpt>
      <trkpt lat="47.563698" lon="1.8303752">
        <ele>149.0</ele>
        <time>2021-11-25T09:39:53Z</time>
      </trkpt>
      <trkpt lat="47.56369" lon="1.8303839">
        <ele>149.0</ele>
        <time>2021-11-25T09:39:54Z</time>
      </trkpt>
      <trkpt lat="47.563686" lon="1.8304002">
        <ele>150.0</ele>
        <time>2021-11-25T09:39:55Z</time>
      </trkpt>
      <trkpt lat="47.563675" lon="1.8304147">
        <ele>150.0</ele>
        <time>2021-11-25T09:39:56Z</time>
      </trkpt>
      <trkpt lat="47.563667" lon="1.8304261">
        <ele>150.0</ele>
        <time>2021-11-25T09:39:57Z</time>
      </trkpt>
      <trkpt lat="47.56366" lon="1.8304347">
        <ele>151.0</ele>
        <time>2021-11-25T09:39:58Z</time>
      </trkpt>
      <trkpt lat="47.563652" lon="1.8304474">
        <ele>151.0</ele>
        <time>2021-11-25T09:39:59Z</time>
      </trkpt>
      <trkpt lat="47.56365" lon="1.8304592">
        <ele>151.0</ele>
        <time>2021-11-25T09:40:00Z</time>
      </trkpt>
      <trkpt lat="47.56364" lon="1.8304708">
        <ele>151.0</ele>
        <time>2021-11-25T09:40:01Z</time>
      </trkpt>
      <trkpt lat="47.563633" lon="1.8304806">
        <ele>151.0</ele>
        <time>2021-11-25T09:40:02Z</time>
      </trkpt>
      <trkpt lat="47.56362" lon="1.8304818">
        <ele>151.0</ele>
        <time>2021-11-25T09:40:03Z</time>
      </trkpt>
      <trkpt lat="47.563614" lon="1.830487">
        <ele>152.0</ele>
        <time>2021-11-25T09:40:04Z</time>
      </trkpt>
      <trkpt lat="47.563606" lon="1.8304962">
        <ele>152.0</ele>
        <time>2021-11-25T09:40:05Z</time>
      </trkpt>
      <trkpt lat="47.5636" lon="1.8305106">
        <ele>152.0</ele>
        <time>2021-11-25T09:40:06Z</time>
      </trkpt>
      <trkpt lat="47.563587" lon="1.8305225">
        <ele>152.0</ele>
        <time>2021-11-25T09:40:07Z</time>
      </trkpt>
      <trkpt lat="47.56358" lon="1.8305336">
        <ele>152.0</ele>
        <time>2021-11-25T09:40:08Z</time>
      </trkpt>
      <trkpt lat="47.563576" lon="1.8305475">
        <ele>152.0</ele>
        <time>2021-11-25T09:40:09Z</time>
      </trkpt>
      <trkpt lat="47.563572" lon="1.8305626">
        <ele>153.0</ele>
        <time>2021-11-25T09:40:10Z</time>
      </trkpt>
      <trkpt lat="47.56357" lon="1.8305733">
        <ele>153.0</ele>
        <time>2021-11-25T09:40:11Z</time>
      </trkpt>
      <trkpt lat="47.563564" lon="1.830584">
        <ele>153.0</ele>
        <time>2021-11-25T09:40:12Z</time>
      </trkpt>
      <trkpt lat="47.56356" lon="1.8305893">
        <ele>154.0</ele>
        <time>2021-11-25T09:40:13Z</time>
      </trkpt>
      <trkpt lat="47.56355" lon="1.8305985">
        <ele>154.0</ele>
        <time>2021-11-25T09:40:14Z</time>
      </trkpt>
      <trkpt lat="47.56354" lon="1.8306121">
        <ele>154.0</ele>
        <time>2021-11-25T09:40:15Z</time>
      </trkpt>
      <trkpt lat="47.56353" lon="1.830622">
        <ele>154.0</ele>
        <time>2021-11-25T09:40:16Z</time>
      </trkpt>
      <trkpt lat="47.563522" lon="1.8306285">
        <ele>154.0</ele>
        <time>2021-11-25T09:40:17Z</time>
      </trkpt>
      <trkpt lat="47.563515" lon="1.8306369">
        <ele>155.0</ele>
        <time>2021-11-25T09:40:18Z</time>
      </trkpt>
      <trkpt lat="47.563507" lon="1.8306459">
        <ele>155.0</ele>
        <time>2021-11-25T09:40:19Z</time>
      </trkpt>
      <trkpt lat="47.5635" lon="1.8306552">
        <ele>155.0</ele>
        <time>2021-11-25T09:40:20Z</time>
      </trkpt>
      <trkpt lat="47.563496" lon="1.8306657">
        <ele>155.0</ele>
        <time>2021-11-25T09:40:21Z</time>
      </trkpt>
      <trkpt lat="47.563484" lon="1.8306633">
        <ele>156.0</ele>
        <time>2021-11-25T09:40:22Z</time>
      </trkpt>
      <trkpt lat="47.56348" lon="1.8306648">
        <ele>157.0</ele>
        <time>2021-11-25T09:40:23Z</time>
      </trkpt>
      <trkpt lat="47.563477" lon="1.8306767">
        <ele>157.0</ele>
        <time>2021-11-25T09:40:24Z</time>
      </trkpt>
      <trkpt lat="47.563473" lon="1.8306875">
        <ele>157.0</ele>
        <time>2021-11-25T09:40:25Z</time>
      </trkpt>
      <trkpt lat="47.56346" lon="1.8307031">
        <ele>157.0</ele>
        <time>2021-11-25T09:40:26Z</time>
      </trkpt>
      <trkpt lat="47.56345" lon="1.8307126">
        <ele>158.0</ele>
        <time>2021-11-25T09:40:27Z</time>
      </trkpt>
      <trkpt lat="47.563446" lon="1.830722">
        <ele>158.0</ele>
        <time>2021-11-25T09:40:28Z</time>
      </trkpt>
      <trkpt lat="47.56344" lon="1.830729">
        <ele>158.0</ele>
        <time>2021-11-25T09:40:29Z</time>
      </trkpt>
      <trkpt lat="47.56343" lon="1.8307387">
        <ele>158.0</ele>
        <time>2021-11-25T09:40:30Z</time>
      </trkpt>
      <trkpt lat="47.563423" lon="1.8307518">
        <ele>158.0</ele>
        <time>2021-11-25T09:40:31Z</time>
      </trkpt>
      <trkpt lat="47.563416" lon="1.830768">
        <ele>158.0</ele>
        <time>2021-11-25T09:40:32Z</time>
      </trkpt>
      <trkpt lat="47.563404" lon="1.8307822">
        <ele>158.0</ele>
        <time>2021-11-25T09:40:33Z</time>
      </trkpt>
      <trkpt lat="47.563396" lon="1.8307976">
        <ele>158.0</ele>
        <time>2021-11-25T09:40:34Z</time>
      </trkpt>
      <trkpt lat="47.56339" lon="1.8308122">
        <ele>158.0</ele>
        <time>2021-11-25T09:40:35Z</time>
      </trkpt>
      <trkpt lat="47.56338" lon="1.8308247">
        <ele>159.0</ele>
        <time>2021-11-25T09:40:36Z</time>
      </trkpt>
      <trkpt lat="47.563374" lon="1.830839">
        <ele>159.0</ele>
        <time>2021-11-25T09:40:37Z</time>
      </trkpt>
      <trkpt lat="47.563362" lon="1.8308543">
        <ele>159.0</ele>
        <time>2021-11-25T09:40:38Z</time>
      </trkpt>
      <trkpt lat="47.56335" lon="1.8308685">
        <ele>159.0</ele>
        <time>2021-11-25T09:40:39Z</time>
      </trkpt>
      <trkpt lat="47.56334" lon="1.8308845">
        <ele>159.0</ele>
        <time>2021-11-25T09:40:40Z</time>
      </trkpt>
      <trkpt lat="47.56333" lon="1.8308947">
        <ele>159.0</ele>
        <time>2021-11-25T09:40:41Z</time>
      </trkpt>
      <trkpt lat="47.563324" lon="1.8309062">
        <ele>159.0</ele>
        <time>2021-11-25T09:40:42Z</time>
      </trkpt>
      <trkpt lat="47.563313" lon="1.8309174">
        <ele>159.0</ele>
        <time>2021-11-25T09:40:43Z</time>
      </trkpt>
      <trkpt lat="47.563305" lon="1.8309263">
        <ele>159.0</ele>
        <time>2021-11-25T09:40:44Z</time>
      </trkpt>
      <trkpt lat="47.563293" lon="1.8309367">
        <ele>159.0</ele>
        <time>2021-11-25T09:40:45Z</time>
      </trkpt>
      <trkpt lat="47.563282" lon="1.8309481">
        <ele>159.0</ele>
        <time>2021-11-25T09:40:46Z</time>
      </trkpt>
      <trkpt lat="47.563274" lon="1.8309624">
        <ele>159.0</ele>
        <time>2021-11-25T09:40:47Z</time>
      </trkpt>
      <trkpt lat="47.56326" lon="1.8309723">
        <ele>159.0</ele>
        <time>2021-11-25T09:40:48Z</time>
      </trkpt>
      <trkpt lat="47.56325" lon="1.8309847">
        <ele>159.0</ele>
        <time>2021-11-25T09:40:49Z</time>
      </trkpt>
      <trkpt lat="47.563244" lon="1.830995">
        <ele>159.0</ele>
        <time>2021-11-25T09:40:50Z</time>
      </trkpt>
      <trkpt lat="47.563236" lon="1.8310043">
        <ele>160.0</ele>
        <time>2021-11-25T09:40:51Z</time>
      </trkpt>
      <trkpt lat="47.56323" lon="1.8310153">
        <ele>160.0</ele>
        <time>2021-11-25T09:40:52Z</time>
      </trkpt>
      <trkpt lat="47.56322" lon="1.831029">
        <ele>160.0</ele>
        <time>2021-11-25T09:40:53Z</time>
      </trkpt>
      <trkpt lat="47.56321" lon="1.8310431">
        <ele>160.0</ele>
        <time>2021-11-25T09:40:54Z</time>
      </trkpt>
      <trkpt lat="47.5632" lon="1.8310555">
        <ele>160.0</ele>
        <time>2021-11-25T09:40:55Z</time>
      </trkpt>
      <trkpt lat="47.563194" lon="1.8310703">
        <ele>160.0</ele>
        <time>2021-11-25T09:40:56Z</time>
      </trkpt>
      <trkpt lat="47.56318" lon="1.8310846">
        <ele>160.0</ele>
        <time>2021-11-25T09:40:57Z</time>
      </trkpt>
      <trkpt lat="47.563175" lon="1.831097">
        <ele>160.0</ele>
        <time>2021-11-25T09:40:58Z</time>
      </trkpt>
      <trkpt lat="47.563168" lon="1.8311089">
        <ele>160.0</ele>
        <time>2021-11-25T09:40:59Z</time>
      </trkpt>
      <trkpt lat="47.563164" lon="1.8311156">
        <ele>160.0</ele>
        <time>2021-11-25T09:41:00Z</time>
      </trkpt>
      <trkpt lat="47.563156" lon="1.8311228">
        <ele>160.0</ele>
        <time>2021-11-25T09:41:01Z</time>
      </trkpt>
      <trkpt lat="47.56315" lon="1.8311323">
        <ele>159.0</ele>
        <time>2021-11-25T09:41:02Z</time>
      </trkpt>
      <trkpt lat="47.56314" lon="1.8311458">
        <ele>159.0</ele>
        <time>2021-11-25T09:41:03Z</time>
      </trkpt>
      <trkpt lat="47.563137" lon="1.8311592">
        <ele>159.0</ele>
        <time>2021-11-25T09:41:04Z</time>
      </trkpt>
      <trkpt lat="47.56313" lon="1.831173">
        <ele>160.0</ele>
        <time>2021-11-25T09:41:05Z</time>
      </trkpt>
      <trkpt lat="47.563126" lon="1.8311875">
        <ele>160.0</ele>
        <time>2021-11-25T09:41:06Z</time>
      </trkpt>
      <trkpt lat="47.56312" lon="1.8311987">
        <ele>160.0</ele>
        <time>2021-11-25T09:41:07Z</time>
      </trkpt>
      <trkpt lat="47.563118" lon="1.8312104">
        <ele>160.0</ele>
        <time>2021-11-25T09:41:08Z</time>
      </trkpt>
      <trkpt lat="47.56311" lon="1.8312278">
        <ele>160.0</ele>
        <time>2021-11-25T09:41:09Z</time>
      </trkpt>
      <trkpt lat="47.5631" lon="1.8312474">
        <ele>159.0</ele>
        <time>2021-11-25T09:41:10Z</time>
      </trkpt>
      <trkpt lat="47.563095" lon="1.8312624">
        <ele>159.0</ele>
        <time>2021-11-25T09:41:11Z</time>
      </trkpt>
      <trkpt lat="47.563084" lon="1.8312724">
        <ele>159.0</ele>
        <time>2021-11-25T09:41:12Z</time>
      </trkpt>
      <trkpt lat="47.563076" lon="1.8312804">
        <ele>158.0</ele>
        <time>2021-11-25T09:41:13Z</time>
      </trkpt>
      <trkpt lat="47.563065" lon="1.8312882">
        <ele>158.0</ele>
        <time>2021-11-25T09:41:14Z</time>
      </trkpt>
      <trkpt lat="47.56306" lon="1.831299">
        <ele>159.0</ele>
        <time>2021-11-25T09:41:15Z</time>
      </trkpt>
      <trkpt lat="47.563053" lon="1.831312">
        <ele>159.0</ele>
        <time>2021-11-25T09:41:16Z</time>
      </trkpt>
      <trkpt lat="47.563046" lon="1.8313231">
        <ele>158.0</ele>
        <time>2021-11-25T09:41:17Z</time>
      </trkpt>
      <trkpt lat="47.563038" lon="1.8313354">
        <ele>159.0</ele>
        <time>2021-11-25T09:41:18Z</time>
      </trkpt>
      <trkpt lat="47.56303" lon="1.8313416">
        <ele>158.0</ele>
        <time>2021-11-25T09:41:19Z</time>
      </trkpt>
      <trkpt lat="47.563023" lon="1.831349">
        <ele>158.0</ele>
        <time>2021-11-25T09:41:20Z</time>
      </trkpt>
      <trkpt lat="47.563015" lon="1.8313588">
        <ele>158.0</ele>
        <time>2021-11-25T09:41:21Z</time>
      </trkpt>
      <trkpt lat="47.563004" lon="1.8313736">
        <ele>158.0</ele>
        <time>2021-11-25T09:41:22Z</time>
      </trkpt>
      <trkpt lat="47.563" lon="1.8313911">
        <ele>158.0</ele>
        <time>2021-11-25T09:41:23Z</time>
      </trkpt>
      <trkpt lat="47.562996" lon="1.8314086">
        <ele>158.0</ele>
        <time>2021-11-25T09:41:24Z</time>
      </trkpt>
      <trkpt lat="47.56299" lon="1.8314221">
        <ele>158.0</ele>
        <time>2021-11-25T09:41:25Z</time>
      </trkpt>
      <trkpt lat="47.56298" lon="1.8314329">
        <ele>158.0</ele>
        <time>2021-11-25T09:41:26Z</time>
      </trkpt>
      <trkpt lat="47.562977" lon="1.8314481">
        <ele>158.0</ele>
        <time>2021-11-25T09:41:27Z</time>
      </trkpt>
      <trkpt lat="47.56297" lon="1.8314646">
        <ele>158.0</ele>
        <time>2021-11-25T09:41:28Z</time>
      </trkpt>
      <trkpt lat="47.562965" lon="1.8314751">
        <ele>158.0</ele>
        <time>2021-11-25T09:41:29Z</time>
      </trkpt>
      <trkpt lat="47.562954" lon="1.8314861">
        <ele>158.0</ele>
        <time>2021-11-25T09:41:30Z</time>
      </trkpt>
      <trkpt lat="47.562943" lon="1.8314936">
        <ele>158.0</ele>
        <time>2021-11-25T09:41:31Z</time>
      </trkpt>
      <trkpt lat="47.56293" lon="1.8314965">
        <ele>158.0</ele>
        <time>2021-11-25T09:41:32Z</time>
      </trkpt>
      <trkpt lat="47.562923" lon="1.8315058">
        <ele>158.0</ele>
        <time>2021-11-25T09:41:33Z</time>
      </trkpt>
      <trkpt lat="47.562916" lon="1.8315183">
        <ele>158.0</ele>
        <time>2021-11-25T09:41:34Z</time>
      </trkpt>
      <trkpt lat="47.56291" lon="1.8315321">
        <ele>158.0</ele>
        <time>2021-11-25T09:41:35Z</time>
      </trkpt>
      <trkpt lat="47.562904" lon="1.8315499">
        <ele>158.0</ele>
        <time>2021-11-25T09:41:36Z</time>
      </trkpt>
      <trkpt lat="47.5629" lon="1.8315656">
        <ele>159.0</ele>
        <time>2021-11-25T09:41:37Z</time>
      </trkpt>
      <trkpt lat="47.562893" lon="1.8315779">
        <ele>158.0</ele>
        <time>2021-11-25T09:41:38Z</time>
      </trkpt>
      <trkpt lat="47.562885" lon="1.8315915">
        <ele>158.0</ele>
        <time>2021-11-25T09:41:39Z</time>
      </trkpt>
      <trkpt lat="47.562874" lon="1.8316057">
        <ele>158.0</ele>
        <time>2021-11-25T09:41:40Z</time>
      </trkpt>
      <trkpt lat="47.562862" lon="1.8316171">
        <ele>158.0</ele>
        <time>2021-11-25T09:41:41Z</time>
      </trkpt>
      <trkpt lat="47.56285" lon="1.831629">
        <ele>158.0</ele>
        <time>2021-11-25T09:41:42Z</time>
      </trkpt>
      <trkpt lat="47.562847" lon="1.8316399">
        <ele>158.0</ele>
        <time>2021-11-25T09:41:43Z</time>
      </trkpt>
      <trkpt lat="47.562843" lon="1.831657">
        <ele>158.0</ele>
        <time>2021-11-25T09:41:44Z</time>
      </trkpt>
      <trkpt lat="47.56284" lon="1.831673">
        <ele>159.0</ele>
        <time>2021-11-25T09:41:45Z</time>
      </trkpt>
      <trkpt lat="47.56283" lon="1.8316965">
        <ele>158.0</ele>
        <time>2021-11-25T09:41:46Z</time>
      </trkpt>
      <trkpt lat="47.56283" lon="1.8317134">
        <ele>158.0</ele>
        <time>2021-11-25T09:41:47Z</time>
      </trkpt>
      <trkpt lat="47.562824" lon="1.8317267">
        <ele>158.0</ele>
        <time>2021-11-25T09:41:48Z</time>
      </trkpt>
      <trkpt lat="47.56282" lon="1.831744">
        <ele>158.0</ele>
        <time>2021-11-25T09:41:49Z</time>
      </trkpt>
      <trkpt lat="47.562817" lon="1.8317634">
        <ele>158.0</ele>
        <time>2021-11-25T09:41:50Z</time>
      </trkpt>
      <trkpt lat="47.56281" lon="1.8317815">
        <ele>157.0</ele>
        <time>2021-11-25T09:41:51Z</time>
      </trkpt>
      <trkpt lat="47.5628" lon="1.8317913">
        <ele>157.0</ele>
        <time>2021-11-25T09:41:52Z</time>
      </trkpt>
      <trkpt lat="47.562794" lon="1.8318031">
        <ele>157.0</ele>
        <time>2021-11-25T09:41:53Z</time>
      </trkpt>
      <trkpt lat="47.562786" lon="1.8318154">
        <ele>156.0</ele>
        <time>2021-11-25T09:41:54Z</time>
      </trkpt>
      <trkpt lat="47.562782" lon="1.831836">
        <ele>156.0</ele>
        <time>2021-11-25T09:41:55Z</time>
      </trkpt>
      <trkpt lat="47.562775" lon="1.8318528">
        <ele>156.0</ele>
        <time>2021-11-25T09:41:56Z</time>
      </trkpt>
      <trkpt lat="47.56277" lon="1.8318651">
        <ele>156.0</ele>
        <time>2021-11-25T09:41:57Z</time>
      </trkpt>
      <trkpt lat="47.562767" lon="1.8318797">
        <ele>156.0</ele>
        <time>2021-11-25T09:41:58Z</time>
      </trkpt>
      <trkpt lat="47.56276" lon="1.8318943">
        <ele>156.0</ele>
        <time>2021-11-25T09:41:59Z</time>
      </trkpt>
      <trkpt lat="47.56276" lon="1.8319093">
        <ele>156.0</ele>
        <time>2021-11-25T09:42:00Z</time>
      </trkpt>
      <trkpt lat="47.562756" lon="1.8319291">
        <ele>156.0</ele>
        <time>2021-11-25T09:42:01Z</time>
      </trkpt>
      <trkpt lat="47.56275" lon="1.8319483">
        <ele>155.0</ele>
        <time>2021-11-25T09:42:02Z</time>
      </trkpt>
      <trkpt lat="47.562744" lon="1.8319621">
        <ele>155.0</ele>
        <time>2021-11-25T09:42:03Z</time>
      </trkpt>
      <trkpt lat="47.56274" lon="1.831974">
        <ele>155.0</ele>
        <time>2021-11-25T09:42:04Z</time>
      </trkpt>
      <trkpt lat="47.56272" lon="1.8319851">
        <ele>155.0</ele>
        <time>2021-11-25T09:42:05Z</time>
      </trkpt>
      <trkpt lat="47.562714" lon="1.8319988">
        <ele>155.0</ele>
        <time>2021-11-25T09:42:06Z</time>
      </trkpt>
      <trkpt lat="47.562706" lon="1.832006">
        <ele>155.0</ele>
        <time>2021-11-25T09:42:07Z</time>
      </trkpt>
      <trkpt lat="47.5627" lon="1.8320183">
        <ele>155.0</ele>
        <time>2021-11-25T09:42:08Z</time>
      </trkpt>
      <trkpt lat="47.562695" lon="1.8320308">
        <ele>155.0</ele>
        <time>2021-11-25T09:42:09Z</time>
      </trkpt>
      <trkpt lat="47.562687" lon="1.8320448">
        <ele>154.0</ele>
        <time>2021-11-25T09:42:10Z</time>
      </trkpt>
      <trkpt lat="47.56268" lon="1.8320595">
        <ele>154.0</ele>
        <time>2021-11-25T09:42:11Z</time>
      </trkpt>
      <trkpt lat="47.56267" lon="1.8320702">
        <ele>154.0</ele>
        <time>2021-11-25T09:42:12Z</time>
      </trkpt>
      <trkpt lat="47.56267" lon="1.8320956">
        <ele>154.0</ele>
        <time>2021-11-25T09:42:13Z</time>
      </trkpt>
      <trkpt lat="47.562668" lon="1.8321164">
        <ele>153.0</ele>
        <time>2021-11-25T09:42:14Z</time>
      </trkpt>
      <trkpt lat="47.562664" lon="1.8321365">
        <ele>154.0</ele>
        <time>2021-11-25T09:42:15Z</time>
      </trkpt>
      <trkpt lat="47.56266" lon="1.8321517">
        <ele>153.0</ele>
        <time>2021-11-25T09:42:16Z</time>
      </trkpt>
      <trkpt lat="47.562653" lon="1.832164">
        <ele>153.0</ele>
        <time>2021-11-25T09:42:17Z</time>
      </trkpt>
      <trkpt lat="47.56264" lon="1.8321778">
        <ele>153.0</ele>
        <time>2021-11-25T09:42:18Z</time>
      </trkpt>
      <trkpt lat="47.562637" lon="1.8321937">
        <ele>153.0</ele>
        <time>2021-11-25T09:42:19Z</time>
      </trkpt>
      <trkpt lat="47.562634" lon="1.832212">
        <ele>154.0</ele>
        <time>2021-11-25T09:42:20Z</time>
      </trkpt>
      <trkpt lat="47.562626" lon="1.8322293">
        <ele>153.0</ele>
        <time>2021-11-25T09:42:21Z</time>
      </trkpt>
      <trkpt lat="47.562622" lon="1.8322476">
        <ele>153.0</ele>
        <time>2021-11-25T09:42:22Z</time>
      </trkpt>
      <trkpt lat="47.562622" lon="1.832268">
        <ele>153.0</ele>
        <time>2021-11-25T09:42:23Z</time>
      </trkpt>
      <trkpt lat="47.562622" lon="1.8322885">
        <ele>153.0</ele>
        <time>2021-11-25T09:42:24Z</time>
      </trkpt>
      <trkpt lat="47.56262" lon="1.832305">
        <ele>153.0</ele>
        <time>2021-11-25T09:42:25Z</time>
      </trkpt>
      <trkpt lat="47.562614" lon="1.8323171">
        <ele>152.0</ele>
        <time>2021-11-25T09:42:26Z</time>
      </trkpt>
      <trkpt lat="47.56261" lon="1.8323334">
        <ele>152.0</ele>
        <time>2021-11-25T09:42:27Z</time>
      </trkpt>
      <trkpt lat="47.562607" lon="1.8323518">
        <ele>152.0</ele>
        <time>2021-11-25T09:42:28Z</time>
      </trkpt>
      <trkpt lat="47.562595" lon="1.8323685">
        <ele>153.0</ele>
        <time>2021-11-25T09:42:29Z</time>
      </trkpt>
      <trkpt lat="47.562588" lon="1.8323846">
        <ele>153.0</ele>
        <time>2021-11-25T09:42:30Z</time>
      </trkpt>
      <trkpt lat="47.562576" lon="1.8323964">
        <ele>153.0</ele>
        <time>2021-11-25T09:42:31Z</time>
      </trkpt>
      <trkpt lat="47.562572" lon="1.8324102">
        <ele>153.0</ele>
        <time>2021-11-25T09:42:32Z</time>
      </trkpt>
      <trkpt lat="47.562572" lon="1.8324255">
        <ele>153.0</ele>
        <time>2021-11-25T09:42:33Z</time>
      </trkpt>
      <trkpt lat="47.562572" lon="1.8324403">
        <ele>153.0</ele>
        <time>2021-11-25T09:42:34Z</time>
      </trkpt>
      <trkpt lat="47.562572" lon="1.8324546">
        <ele>154.0</ele>
        <time>2021-11-25T09:42:35Z</time>
      </trkpt>
      <trkpt lat="47.562565" lon="1.8324705">
        <ele>154.0</ele>
        <time>2021-11-25T09:42:36Z</time>
      </trkpt>
      <trkpt lat="47.56256" lon="1.8324877">
        <ele>154.0</ele>
        <time>2021-11-25T09:42:37Z</time>
      </trkpt>
      <trkpt lat="47.562553" lon="1.8324983">
        <ele>154.0</ele>
        <time>2021-11-25T09:42:38Z</time>
      </trkpt>
      <trkpt lat="47.56255" lon="1.8325121">
        <ele>154.0</ele>
        <time>2021-11-25T09:42:39Z</time>
      </trkpt>
      <trkpt lat="47.562542" lon="1.8325292">
        <ele>155.0</ele>
        <time>2021-11-25T09:42:40Z</time>
      </trkpt>
      <trkpt lat="47.56254" lon="1.8325458">
        <ele>155.0</ele>
        <time>2021-11-25T09:42:41Z</time>
      </trkpt>
      <trkpt lat="47.562534" lon="1.832559">
        <ele>155.0</ele>
        <time>2021-11-25T09:42:42Z</time>
      </trkpt>
      <trkpt lat="47.56253" lon="1.8325698">
        <ele>155.0</ele>
        <time>2021-11-25T09:42:43Z</time>
      </trkpt>
      <trkpt lat="47.56253" lon="1.8325855">
        <ele>155.0</ele>
        <time>2021-11-25T09:42:44Z</time>
      </trkpt>
      <trkpt lat="47.56253" lon="1.832598">
        <ele>155.0</ele>
        <time>2021-11-25T09:42:45Z</time>
      </trkpt>
      <trkpt lat="47.56253" lon="1.8326163">
        <ele>155.0</ele>
        <time>2021-11-25T09:42:46Z</time>
      </trkpt>
      <trkpt lat="47.562527" lon="1.8326328">
        <ele>155.0</ele>
        <time>2021-11-25T09:42:47Z</time>
      </trkpt>
      <trkpt lat="47.562523" lon="1.8326443">
        <ele>155.0</ele>
        <time>2021-11-25T09:42:48Z</time>
      </trkpt>
      <trkpt lat="47.562515" lon="1.8326597">
        <ele>155.0</ele>
        <time>2021-11-25T09:42:49Z</time>
      </trkpt>
      <trkpt lat="47.562508" lon="1.8326682">
        <ele>155.0</ele>
        <time>2021-11-25T09:42:50Z</time>
      </trkpt>
      <trkpt lat="47.562496" lon="1.8326834">
        <ele>154.0</ele>
        <time>2021-11-25T09:42:51Z</time>
      </trkpt>
      <trkpt lat="47.562492" lon="1.8326998">
        <ele>154.0</ele>
        <time>2021-11-25T09:42:52Z</time>
      </trkpt>
      <trkpt lat="47.562492" lon="1.8327172">
        <ele>154.0</ele>
        <time>2021-11-25T09:42:53Z</time>
      </trkpt>
      <trkpt lat="47.56249" lon="1.8327317">
        <ele>154.0</ele>
        <time>2021-11-25T09:42:54Z</time>
      </trkpt>
      <trkpt lat="47.56249" lon="1.8327457">
        <ele>154.0</ele>
        <time>2021-11-25T09:42:55Z</time>
      </trkpt>
      <trkpt lat="47.562473" lon="1.8327613">
        <ele>155.0</ele>
        <time>2021-11-25T09:42:56Z</time>
      </trkpt>
      <trkpt lat="47.56247" lon="1.8327708">
        <ele>155.0</ele>
        <time>2021-11-25T09:42:57Z</time>
      </trkpt>
      <trkpt lat="47.56246" lon="1.8327893">
        <ele>155.0</ele>
        <time>2021-11-25T09:42:58Z</time>
      </trkpt>
      <trkpt lat="47.562458" lon="1.8328108">
        <ele>154.0</ele>
        <time>2021-11-25T09:42:59Z</time>
      </trkpt>
      <trkpt lat="47.562454" lon="1.8328304">
        <ele>154.0</ele>
        <time>2021-11-25T09:43:00Z</time>
      </trkpt>
      <trkpt lat="47.56244" lon="1.832851">
        <ele>154.0</ele>
        <time>2021-11-25T09:43:01Z</time>
      </trkpt>
      <trkpt lat="47.562428" lon="1.8328726">
        <ele>153.0</ele>
        <time>2021-11-25T09:43:02Z</time>
      </trkpt>
      <trkpt lat="47.562424" lon="1.8328903">
        <ele>153.0</ele>
        <time>2021-11-25T09:43:03Z</time>
      </trkpt>
      <trkpt lat="47.562424" lon="1.8328903">
        <ele>153.0</ele>
        <time>2021-11-25T09:43:03Z</time>
      </trkpt>
      <trkpt lat="47.56241" lon="1.8329257">
        <ele>153.0</ele>
        <time>2021-11-25T09:43:05Z</time>
      </trkpt>
      <trkpt lat="47.56241" lon="1.8329438">
        <ele>153.0</ele>
        <time>2021-11-25T09:43:06Z</time>
      </trkpt>
      <trkpt lat="47.562405" lon="1.8329631">
        <ele>153.0</ele>
        <time>2021-11-25T09:43:07Z</time>
      </trkpt>
      <trkpt lat="47.562397" lon="1.8329868">
        <ele>152.0</ele>
        <time>2021-11-25T09:43:08Z</time>
      </trkpt>
      <trkpt lat="47.562393" lon="1.8330092">
        <ele>152.0</ele>
        <time>2021-11-25T09:43:09Z</time>
      </trkpt>
      <trkpt lat="47.562393" lon="1.8330294">
        <ele>153.0</ele>
        <time>2021-11-25T09:43:10Z</time>
      </trkpt>
      <trkpt lat="47.562393" lon="1.8330294">
        <ele>153.0</ele>
        <time>2021-11-25T09:43:10Z</time>
      </trkpt>
      <trkpt lat="47.56238" lon="1.8330588">
        <ele>153.0</ele>
        <time>2021-11-25T09:43:12Z</time>
      </trkpt>
      <trkpt lat="47.562374" lon="1.8330704">
        <ele>153.0</ele>
        <time>2021-11-25T09:43:13Z</time>
      </trkpt>
      <trkpt lat="47.562366" lon="1.8330876">
        <ele>153.0</ele>
        <time>2021-11-25T09:43:14Z</time>
      </trkpt>
      <trkpt lat="47.56236" lon="1.8331045">
        <ele>153.0</ele>
        <time>2021-11-25T09:43:15Z</time>
      </trkpt>
      <trkpt lat="47.562355" lon="1.8331228">
        <ele>154.0</ele>
        <time>2021-11-25T09:43:16Z</time>
      </trkpt>
      <trkpt lat="47.562355" lon="1.8331407">
        <ele>154.0</ele>
        <time>2021-11-25T09:43:17Z</time>
      </trkpt>
      <trkpt lat="47.56235" lon="1.8331552">
        <ele>154.0</ele>
        <time>2021-11-25T09:43:18Z</time>
      </trkpt>
      <trkpt lat="47.56235" lon="1.8331705">
        <ele>154.0</ele>
        <time>2021-11-25T09:43:19Z</time>
      </trkpt>
      <trkpt lat="47.562347" lon="1.8331932">
        <ele>154.0</ele>
        <time>2021-11-25T09:43:20Z</time>
      </trkpt>
      <trkpt lat="47.562347" lon="1.8331932">
        <ele>154.0</ele>
        <time>2021-11-25T09:43:21Z</time>
      </trkpt>
      <trkpt lat="47.562344" lon="1.8332183">
        <ele>154.0</ele>
        <time>2021-11-25T09:43:22Z</time>
      </trkpt>
      <trkpt lat="47.56234" lon="1.8332379">
        <ele>154.0</ele>
        <time>2021-11-25T09:43:23Z</time>
      </trkpt>
      <trkpt lat="47.56233" lon="1.833264">
        <ele>153.0</ele>
        <time>2021-11-25T09:43:24Z</time>
      </trkpt>
      <trkpt lat="47.56232" lon="1.8332855">
        <ele>153.0</ele>
        <time>2021-11-25T09:43:25Z</time>
      </trkpt>
      <trkpt lat="47.562317" lon="1.8333011">
        <ele>153.0</ele>
        <time>2021-11-25T09:43:26Z</time>
      </trkpt>
      <trkpt lat="47.562317" lon="1.8333176">
        <ele>153.0</ele>
        <time>2021-11-25T09:43:27Z</time>
      </trkpt>
      <trkpt lat="47.562317" lon="1.8333323">
        <ele>153.0</ele>
        <time>2021-11-25T09:43:28Z</time>
      </trkpt>
      <trkpt lat="47.562313" lon="1.8333535">
        <ele>153.0</ele>
        <time>2021-11-25T09:43:29Z</time>
      </trkpt>
      <trkpt lat="47.562313" lon="1.8333535">
        <ele>153.0</ele>
        <time>2021-11-25T09:43:29Z</time>
      </trkpt>
      <trkpt lat="47.562298" lon="1.8333797">
        <ele>154.0</ele>
        <time>2021-11-25T09:43:31Z</time>
      </trkpt>
      <trkpt lat="47.562298" lon="1.8333797">
        <ele>154.0</ele>
        <time>2021-11-25T09:43:31Z</time>
      </trkpt>
      <trkpt lat="47.56229" lon="1.8334063">
        <ele>154.0</ele>
        <time>2021-11-25T09:43:33Z</time>
      </trkpt>
      <trkpt lat="47.562283" lon="1.8334204">
        <ele>154.0</ele>
        <time>2021-11-25T09:43:34Z</time>
      </trkpt>
      <trkpt lat="47.562275" lon="1.8334345">
        <ele>154.0</ele>
        <time>2021-11-25T09:43:35Z</time>
      </trkpt>
      <trkpt lat="47.562275" lon="1.8334345">
        <ele>154.0</ele>
        <time>2021-11-25T09:43:35Z</time>
      </trkpt>
      <trkpt lat="47.562275" lon="1.8334466">
        <ele>154.0</ele>
        <time>2021-11-25T09:43:36Z</time>
      </trkpt>
      <trkpt lat="47.562267" lon="1.8334857">
        <ele>155.0</ele>
        <time>2021-11-25T09:43:38Z</time>
      </trkpt>
      <trkpt lat="47.562267" lon="1.8334857">
        <ele>155.0</ele>
        <time>2021-11-25T09:43:38Z</time>
      </trkpt>
      <trkpt lat="47.562263" lon="1.8335052">
        <ele>155.0</ele>
        <time>2021-11-25T09:43:39Z</time>
      </trkpt>
      <trkpt lat="47.56226" lon="1.8335241">
        <ele>155.0</ele>
        <time>2021-11-25T09:43:40Z</time>
      </trkpt>
      <trkpt lat="47.562256" lon="1.8335367">
        <ele>155.0</ele>
        <time>2021-11-25T09:43:41Z</time>
      </trkpt>
      <trkpt lat="47.562252" lon="1.8335506">
        <ele>155.0</ele>
        <time>2021-11-25T09:43:42Z</time>
      </trkpt>
      <trkpt lat="47.56225" lon="1.8335594">
        <ele>154.0</ele>
        <time>2021-11-25T09:43:43Z</time>
      </trkpt>
      <trkpt lat="47.56224" lon="1.8335687">
        <ele>155.0</ele>
        <time>2021-11-25T09:43:44Z</time>
      </trkpt>
      <trkpt lat="47.56224" lon="1.8335687">
        <ele>155.0</ele>
        <time>2021-11-25T09:43:45Z</time>
      </trkpt>
      <trkpt lat="47.562237" lon="1.8335952">
        <ele>155.0</ele>
        <time>2021-11-25T09:43:46Z</time>
      </trkpt>
      <trkpt lat="47.562233" lon="1.8336091">
        <ele>155.0</ele>
        <time>2021-11-25T09:43:47Z</time>
      </trkpt>
      <trkpt lat="47.562225" lon="1.8336244">
        <ele>156.0</ele>
        <time>2021-11-25T09:43:48Z</time>
      </trkpt>
      <trkpt lat="47.562218" lon="1.8336387">
        <ele>155.0</ele>
        <time>2021-11-25T09:43:49Z</time>
      </trkpt>
      <trkpt lat="47.562214" lon="1.8336524">
        <ele>156.0</ele>
        <time>2021-11-25T09:43:50Z</time>
      </trkpt>
      <trkpt lat="47.562214" lon="1.8336735">
        <ele>155.0</ele>
        <time>2021-11-25T09:43:51Z</time>
      </trkpt>
      <trkpt lat="47.562206" lon="1.8336942">
        <ele>155.0</ele>
        <time>2021-11-25T09:43:52Z</time>
      </trkpt>
      <trkpt lat="47.562202" lon="1.8337129">
        <ele>155.0</ele>
        <time>2021-11-25T09:43:53Z</time>
      </trkpt>
      <trkpt lat="47.5622" lon="1.8337302">
        <ele>156.0</ele>
        <time>2021-11-25T09:43:54Z</time>
      </trkpt>
      <trkpt lat="47.562195" lon="1.83375">
        <ele>156.0</ele>
        <time>2021-11-25T09:43:55Z</time>
      </trkpt>
      <trkpt lat="47.562187" lon="1.8337715">
        <ele>156.0</ele>
        <time>2021-11-25T09:43:56Z</time>
      </trkpt>
      <trkpt lat="47.56218" lon="1.8337877">
        <ele>156.0</ele>
        <time>2021-11-25T09:43:57Z</time>
      </trkpt>
      <trkpt lat="47.562176" lon="1.8338047">
        <ele>156.0</ele>
        <time>2021-11-25T09:43:58Z</time>
      </trkpt>
      <trkpt lat="47.562164" lon="1.8338226">
        <ele>156.0</ele>
        <time>2021-11-25T09:43:59Z</time>
      </trkpt>
      <trkpt lat="47.562164" lon="1.8338425">
        <ele>155.0</ele>
        <time>2021-11-25T09:44:00Z</time>
      </trkpt>
      <trkpt lat="47.56216" lon="1.8338623">
        <ele>154.0</ele>
        <time>2021-11-25T09:44:01Z</time>
      </trkpt>
      <trkpt lat="47.562153" lon="1.8338852">
        <ele>154.0</ele>
        <time>2021-11-25T09:44:02Z</time>
      </trkpt>
      <trkpt lat="47.56215" lon="1.8339063">
        <ele>154.0</ele>
        <time>2021-11-25T09:44:03Z</time>
      </trkpt>
      <trkpt lat="47.562145" lon="1.8339242">
        <ele>153.0</ele>
        <time>2021-11-25T09:44:04Z</time>
      </trkpt>
      <trkpt lat="47.562145" lon="1.8339428">
        <ele>153.0</ele>
        <time>2021-11-25T09:44:05Z</time>
      </trkpt>
      <trkpt lat="47.56214" lon="1.8339622">
        <ele>152.0</ele>
        <time>2021-11-25T09:44:06Z</time>
      </trkpt>
      <trkpt lat="47.56214" lon="1.8339823">
        <ele>152.0</ele>
        <time>2021-11-25T09:44:07Z</time>
      </trkpt>
      <trkpt lat="47.562138" lon="1.8340279">
        <ele>151.0</ele>
        <time>2021-11-25T09:44:08Z</time>
      </trkpt>
      <trkpt lat="47.562138" lon="1.8340279">
        <ele>151.0</ele>
        <time>2021-11-25T09:44:08Z</time>
      </trkpt>
      <trkpt lat="47.562134" lon="1.8340597">
        <ele>151.0</ele>
        <time>2021-11-25T09:44:10Z</time>
      </trkpt>
      <trkpt lat="47.56213" lon="1.8340771">
        <ele>151.0</ele>
        <time>2021-11-25T09:44:11Z</time>
      </trkpt>
      <trkpt lat="47.56213" lon="1.8340771">
        <ele>151.0</ele>
        <time>2021-11-25T09:44:11Z</time>
      </trkpt>
      <trkpt lat="47.562126" lon="1.8341148">
        <ele>150.0</ele>
        <time>2021-11-25T09:44:13Z</time>
      </trkpt>
      <trkpt lat="47.562126" lon="1.8341148">
        <ele>150.0</ele>
        <time>2021-11-25T09:44:13Z</time>
      </trkpt>
      <trkpt lat="47.562115" lon="1.8341479">
        <ele>149.0</ele>
        <time>2021-11-25T09:44:15Z</time>
      </trkpt>
      <trkpt lat="47.562115" lon="1.8341479">
        <ele>149.0</ele>
        <time>2021-11-25T09:44:15Z</time>
      </trkpt>
      <trkpt lat="47.56211" lon="1.8341682">
        <ele>149.0</ele>
        <time>2021-11-25T09:44:17Z</time>
      </trkpt>
      <trkpt lat="47.56211" lon="1.834184">
        <ele>149.0</ele>
        <time>2021-11-25T09:44:18Z</time>
      </trkpt>
      <trkpt lat="47.5621" lon="1.8342152">
        <ele>149.0</ele>
        <time>2021-11-25T09:44:19Z</time>
      </trkpt>
      <trkpt lat="47.56209" lon="1.8342319">
        <ele>149.0</ele>
        <time>2021-11-25T09:44:20Z</time>
      </trkpt>
      <trkpt lat="47.56209" lon="1.8342319">
        <ele>149.0</ele>
        <time>2021-11-25T09:44:20Z</time>
      </trkpt>
      <trkpt lat="47.562084" lon="1.8342496">
        <ele>149.0</ele>
        <time>2021-11-25T09:44:22Z</time>
      </trkpt>
      <trkpt lat="47.56208" lon="1.8342669">
        <ele>149.0</ele>
        <time>2021-11-25T09:44:23Z</time>
      </trkpt>
      <trkpt lat="47.56208" lon="1.8342831">
        <ele>149.0</ele>
        <time>2021-11-25T09:44:24Z</time>
      </trkpt>
      <trkpt lat="47.56208" lon="1.8342991">
        <ele>149.0</ele>
        <time>2021-11-25T09:44:25Z</time>
      </trkpt>
      <trkpt lat="47.562077" lon="1.83433">
        <ele>149.0</ele>
        <time>2021-11-25T09:44:26Z</time>
      </trkpt>
      <trkpt lat="47.562077" lon="1.83433">
        <ele>149.0</ele>
        <time>2021-11-25T09:44:26Z</time>
      </trkpt>
      <trkpt lat="47.562073" lon="1.8343492">
        <ele>148.0</ele>
        <time>2021-11-25T09:44:28Z</time>
      </trkpt>
      <trkpt lat="47.56207" lon="1.8343914">
        <ele>148.0</ele>
        <time>2021-11-25T09:44:29Z</time>
      </trkpt>
      <trkpt lat="47.562065" lon="1.8344119">
        <ele>148.0</ele>
        <time>2021-11-25T09:44:30Z</time>
      </trkpt>
      <trkpt lat="47.56206" lon="1.8344293">
        <ele>148.0</ele>
        <time>2021-11-25T09:44:31Z</time>
      </trkpt>
      <trkpt lat="47.56206" lon="1.8344477">
        <ele>148.0</ele>
        <time>2021-11-25T09:44:32Z</time>
      </trkpt>
      <trkpt lat="47.56206" lon="1.8344631">
        <ele>147.0</ele>
        <time>2021-11-25T09:44:33Z</time>
      </trkpt>
      <trkpt lat="47.562057" lon="1.8344871">
        <ele>147.0</ele>
        <time>2021-11-25T09:44:34Z</time>
      </trkpt>
      <trkpt lat="47.562054" lon="1.8345098">
        <ele>147.0</ele>
        <time>2021-11-25T09:44:35Z</time>
      </trkpt>
      <trkpt lat="47.56205" lon="1.8345308">
        <ele>148.0</ele>
        <time>2021-11-25T09:44:36Z</time>
      </trkpt>
      <trkpt lat="47.562046" lon="1.8345501">
        <ele>148.0</ele>
        <time>2021-11-25T09:44:37Z</time>
      </trkpt>
      <trkpt lat="47.562046" lon="1.8345501">
        <ele>148.0</ele>
        <time>2021-11-25T09:44:37Z</time>
      </trkpt>
      <trkpt lat="47.562042" lon="1.8345945">
        <ele>149.0</ele>
        <time>2021-11-25T09:44:39Z</time>
      </trkpt>
      <trkpt lat="47.562042" lon="1.8345945">
        <ele>149.0</ele>
        <time>2021-11-25T09:44:39Z</time>
      </trkpt>
      <trkpt lat="47.562042" lon="1.8346364">
        <ele>149.0</ele>
        <time>2021-11-25T09:44:41Z</time>
      </trkpt>
      <trkpt lat="47.562042" lon="1.8346561">
        <ele>149.0</ele>
        <time>2021-11-25T09:44:42Z</time>
      </trkpt>
      <trkpt lat="47.562042" lon="1.8346788">
        <ele>149.0</ele>
        <time>2021-11-25T09:44:43Z</time>
      </trkpt>
      <trkpt lat="47.562042" lon="1.8347034">
        <ele>149.0</ele>
        <time>2021-11-25T09:44:44Z</time>
      </trkpt>
      <trkpt lat="47.562042" lon="1.8347198">
        <ele>149.0</ele>
        <time>2021-11-25T09:44:45Z</time>
      </trkpt>
      <trkpt lat="47.56204" lon="1.8347361">
        <ele>149.0</ele>
        <time>2021-11-25T09:44:46Z</time>
      </trkpt>
      <trkpt lat="47.56204" lon="1.834752">
        <ele>150.0</ele>
        <time>2021-11-25T09:44:47Z</time>
      </trkpt>
      <trkpt lat="47.56204" lon="1.8347675">
        <ele>149.0</ele>
        <time>2021-11-25T09:44:48Z</time>
      </trkpt>
      <trkpt lat="47.56204" lon="1.8347858">
        <ele>149.0</ele>
        <time>2021-11-25T09:44:49Z</time>
      </trkpt>
      <trkpt lat="47.562042" lon="1.834803">
        <ele>149.0</ele>
        <time>2021-11-25T09:44:50Z</time>
      </trkpt>
      <trkpt lat="47.56204" lon="1.8348172">
        <ele>150.0</ele>
        <time>2021-11-25T09:44:51Z</time>
      </trkpt>
      <trkpt lat="47.56204" lon="1.8348323">
        <ele>149.0</ele>
        <time>2021-11-25T09:44:52Z</time>
      </trkpt>
      <trkpt lat="47.562035" lon="1.8348505">
        <ele>150.0</ele>
        <time>2021-11-25T09:44:53Z</time>
      </trkpt>
      <trkpt lat="47.56203" lon="1.8348669">
        <ele>150.0</ele>
        <time>2021-11-25T09:44:54Z</time>
      </trkpt>
      <trkpt lat="47.56203" lon="1.8348669">
        <ele>150.0</ele>
        <time>2021-11-25T09:44:54Z</time>
      </trkpt>
      <trkpt lat="47.562027" lon="1.8348949">
        <ele>150.0</ele>
        <time>2021-11-25T09:44:56Z</time>
      </trkpt>
      <trkpt lat="47.562027" lon="1.834909">
        <ele>150.0</ele>
        <time>2021-11-25T09:44:57Z</time>
      </trkpt>
      <trkpt lat="47.562027" lon="1.8349216">
        <ele>149.0</ele>
        <time>2021-11-25T09:44:58Z</time>
      </trkpt>
      <trkpt lat="47.56202" lon="1.8349336">
        <ele>150.0</ele>
        <time>2021-11-25T09:44:59Z</time>
      </trkpt>
      <trkpt lat="47.56201" lon="1.8349459">
        <ele>150.0</ele>
        <time>2021-11-25T09:45:00Z</time>
      </trkpt>
      <trkpt lat="47.562008" lon="1.8349619">
        <ele>150.0</ele>
        <time>2021-11-25T09:45:01Z</time>
      </trkpt>
      <trkpt lat="47.56201" lon="1.8349786">
        <ele>150.0</ele>
        <time>2021-11-25T09:45:02Z</time>
      </trkpt>
      <trkpt lat="47.56201" lon="1.8349981">
        <ele>150.0</ele>
        <time>2021-11-25T09:45:03Z</time>
      </trkpt>
      <trkpt lat="47.562008" lon="1.8350188">
        <ele>150.0</ele>
        <time>2021-11-25T09:45:04Z</time>
      </trkpt>
      <trkpt lat="47.562008" lon="1.8350365">
        <ele>149.0</ele>
        <time>2021-11-25T09:45:05Z</time>
      </trkpt>
      <trkpt lat="47.562" lon="1.8350557">
        <ele>149.0</ele>
        <time>2021-11-25T09:45:06Z</time>
      </trkpt>
      <trkpt lat="47.56199" lon="1.8350701">
        <ele>149.0</ele>
        <time>2021-11-25T09:45:07Z</time>
      </trkpt>
      <trkpt lat="47.561977" lon="1.835082">
        <ele>149.0</ele>
        <time>2021-11-25T09:45:08Z</time>
      </trkpt>
      <trkpt lat="47.56197" lon="1.8350986">
        <ele>149.0</ele>
        <time>2021-11-25T09:45:09Z</time>
      </trkpt>
      <trkpt lat="47.561966" lon="1.8351134">
        <ele>149.0</ele>
        <time>2021-11-25T09:45:10Z</time>
      </trkpt>
      <trkpt lat="47.561962" lon="1.8351322">
        <ele>150.0</ele>
        <time>2021-11-25T09:45:11Z</time>
      </trkpt>
      <trkpt lat="47.56196" lon="1.8351526">
        <ele>150.0</ele>
        <time>2021-11-25T09:45:12Z</time>
      </trkpt>
      <trkpt lat="47.561954" lon="1.8351752">
        <ele>150.0</ele>
        <time>2021-11-25T09:45:13Z</time>
      </trkpt>
      <trkpt lat="47.561954" lon="1.8351952">
        <ele>150.0</ele>
        <time>2021-11-25T09:45:14Z</time>
      </trkpt>
      <trkpt lat="47.561954" lon="1.8352122">
        <ele>150.0</ele>
        <time>2021-11-25T09:45:15Z</time>
      </trkpt>
      <trkpt lat="47.56195" lon="1.8352296">
        <ele>150.0</ele>
        <time>2021-11-25T09:45:16Z</time>
      </trkpt>
      <trkpt lat="47.56195" lon="1.8352466">
        <ele>150.0</ele>
        <time>2021-11-25T09:45:17Z</time>
      </trkpt>
      <trkpt lat="47.561947" lon="1.8352616">
        <ele>150.0</ele>
        <time>2021-11-25T09:45:18Z</time>
      </trkpt>
      <trkpt lat="47.561943" lon="1.8352764">
        <ele>151.0</ele>
        <time>2021-11-25T09:45:19Z</time>
      </trkpt>
      <trkpt lat="47.56194" lon="1.8352919">
        <ele>151.0</ele>
        <time>2021-11-25T09:45:20Z</time>
      </trkpt>
      <trkpt lat="47.561935" lon="1.8353093">
        <ele>151.0</ele>
        <time>2021-11-25T09:45:21Z</time>
      </trkpt>
      <trkpt lat="47.56193" lon="1.8353257">
        <ele>151.0</ele>
        <time>2021-11-25T09:45:22Z</time>
      </trkpt>
      <trkpt lat="47.561928" lon="1.8353409">
        <ele>151.0</ele>
        <time>2021-11-25T09:45:23Z</time>
      </trkpt>
      <trkpt lat="47.561928" lon="1.8353543">
        <ele>151.0</ele>
        <time>2021-11-25T09:45:24Z</time>
      </trkpt>
      <trkpt lat="47.56193" lon="1.835368">
        <ele>152.0</ele>
        <time>2021-11-25T09:45:25Z</time>
      </trkpt>
      <trkpt lat="47.561928" lon="1.835385">
        <ele>151.0</ele>
        <time>2021-11-25T09:45:26Z</time>
      </trkpt>
      <trkpt lat="47.56193" lon="1.8354064">
        <ele>151.0</ele>
        <time>2021-11-25T09:45:27Z</time>
      </trkpt>
      <trkpt lat="47.56193" lon="1.835427">
        <ele>152.0</ele>
        <time>2021-11-25T09:45:28Z</time>
      </trkpt>
      <trkpt lat="47.56193" lon="1.835449">
        <ele>152.0</ele>
        <time>2021-11-25T09:45:29Z</time>
      </trkpt>
      <trkpt lat="47.561928" lon="1.8354677">
        <ele>152.0</ele>
        <time>2021-11-25T09:45:30Z</time>
      </trkpt>
      <trkpt lat="47.561916" lon="1.8354821">
        <ele>152.0</ele>
        <time>2021-11-25T09:45:31Z</time>
      </trkpt>
      <trkpt lat="47.561913" lon="1.8355005">
        <ele>153.0</ele>
        <time>2021-11-25T09:45:32Z</time>
      </trkpt>
      <trkpt lat="47.561905" lon="1.8355151">
        <ele>153.0</ele>
        <time>2021-11-25T09:45:33Z</time>
      </trkpt>
      <trkpt lat="47.561905" lon="1.8355316">
        <ele>153.0</ele>
        <time>2021-11-25T09:45:34Z</time>
      </trkpt>
      <trkpt lat="47.561905" lon="1.8355465">
        <ele>153.0</ele>
        <time>2021-11-25T09:45:35Z</time>
      </trkpt>
      <trkpt lat="47.5619" lon="1.8355623">
        <ele>152.0</ele>
        <time>2021-11-25T09:45:36Z</time>
      </trkpt>
      <trkpt lat="47.5619" lon="1.8355783">
        <ele>152.0</ele>
        <time>2021-11-25T09:45:37Z</time>
      </trkpt>
      <trkpt lat="47.561905" lon="1.8355973">
        <ele>153.0</ele>
        <time>2021-11-25T09:45:38Z</time>
      </trkpt>
      <trkpt lat="47.561905" lon="1.8356162">
        <ele>153.0</ele>
        <time>2021-11-25T09:45:39Z</time>
      </trkpt>
      <trkpt lat="47.5619" lon="1.8356332">
        <ele>153.0</ele>
        <time>2021-11-25T09:45:40Z</time>
      </trkpt>
      <trkpt lat="47.5619" lon="1.835647">
        <ele>153.0</ele>
        <time>2021-11-25T09:45:41Z</time>
      </trkpt>
      <trkpt lat="47.5619" lon="1.8356637">
        <ele>153.0</ele>
        <time>2021-11-25T09:45:42Z</time>
      </trkpt>
      <trkpt lat="47.5619" lon="1.8356851">
        <ele>153.0</ele>
        <time>2021-11-25T09:45:43Z</time>
      </trkpt>
      <trkpt lat="47.5619" lon="1.8357029">
        <ele>153.0</ele>
        <time>2021-11-25T09:45:44Z</time>
      </trkpt>
      <trkpt lat="47.561897" lon="1.8357198">
        <ele>153.0</ele>
        <time>2021-11-25T09:45:45Z</time>
      </trkpt>
      <trkpt lat="47.561897" lon="1.8357377">
        <ele>153.0</ele>
        <time>2021-11-25T09:45:46Z</time>
      </trkpt>
      <trkpt lat="47.561893" lon="1.8357528">
        <ele>152.0</ele>
        <time>2021-11-25T09:45:47Z</time>
      </trkpt>
      <trkpt lat="47.561893" lon="1.8357713">
        <ele>153.0</ele>
        <time>2021-11-25T09:45:48Z</time>
      </trkpt>
      <trkpt lat="47.56189" lon="1.8357885">
        <ele>153.0</ele>
        <time>2021-11-25T09:45:49Z</time>
      </trkpt>
      <trkpt lat="47.561882" lon="1.8358003">
        <ele>154.0</ele>
        <time>2021-11-25T09:45:50Z</time>
      </trkpt>
      <trkpt lat="47.56188" lon="1.8358104">
        <ele>154.0</ele>
        <time>2021-11-25T09:45:51Z</time>
      </trkpt>
      <trkpt lat="47.56188" lon="1.835823">
        <ele>154.0</ele>
        <time>2021-11-25T09:45:52Z</time>
      </trkpt>
      <trkpt lat="47.56188" lon="1.8358389">
        <ele>154.0</ele>
        <time>2021-11-25T09:45:53Z</time>
      </trkpt>
      <trkpt lat="47.56188" lon="1.8358563">
        <ele>153.0</ele>
        <time>2021-11-25T09:45:54Z</time>
      </trkpt>
      <trkpt lat="47.561874" lon="1.8358744">
        <ele>153.0</ele>
        <time>2021-11-25T09:45:55Z</time>
      </trkpt>
      <trkpt lat="47.56188" lon="1.8358943">
        <ele>152.0</ele>
        <time>2021-11-25T09:45:56Z</time>
      </trkpt>
      <trkpt lat="47.56188" lon="1.8359128">
        <ele>152.0</ele>
        <time>2021-11-25T09:45:57Z</time>
      </trkpt>
      <trkpt lat="47.56188" lon="1.8359338">
        <ele>152.0</ele>
        <time>2021-11-25T09:45:58Z</time>
      </trkpt>
      <trkpt lat="47.561874" lon="1.8359553">
        <ele>152.0</ele>
        <time>2021-11-25T09:45:59Z</time>
      </trkpt>
      <trkpt lat="47.561874" lon="1.835981">
        <ele>152.0</ele>
        <time>2021-11-25T09:46:00Z</time>
      </trkpt>
      <trkpt lat="47.561867" lon="1.8360041">
        <ele>151.0</ele>
        <time>2021-11-25T09:46:01Z</time>
      </trkpt>
      <trkpt lat="47.561863" lon="1.8360214">
        <ele>151.0</ele>
        <time>2021-11-25T09:46:02Z</time>
      </trkpt>
      <trkpt lat="47.561855" lon="1.8360453">
        <ele>151.0</ele>
        <time>2021-11-25T09:46:03Z</time>
      </trkpt>
      <trkpt lat="47.561844" lon="1.8360726">
        <ele>150.0</ele>
        <time>2021-11-25T09:46:04Z</time>
      </trkpt>
      <trkpt lat="47.561836" lon="1.836096">
        <ele>150.0</ele>
        <time>2021-11-25T09:46:05Z</time>
      </trkpt>
      <trkpt lat="47.561832" lon="1.8361173">
        <ele>150.0</ele>
        <time>2021-11-25T09:46:06Z</time>
      </trkpt>
      <trkpt lat="47.56183" lon="1.836137">
        <ele>150.0</ele>
        <time>2021-11-25T09:46:07Z</time>
      </trkpt>
      <trkpt lat="47.561825" lon="1.8361527">
        <ele>150.0</ele>
        <time>2021-11-25T09:46:08Z</time>
      </trkpt>
      <trkpt lat="47.56182" lon="1.8361661">
        <ele>150.0</ele>
        <time>2021-11-25T09:46:09Z</time>
      </trkpt>
      <trkpt lat="47.561813" lon="1.8361744">
        <ele>151.0</ele>
        <time>2021-11-25T09:46:10Z</time>
      </trkpt>
      <trkpt lat="47.56181" lon="1.836188">
        <ele>151.0</ele>
        <time>2021-11-25T09:46:11Z</time>
      </trkpt>
      <trkpt lat="47.56181" lon="1.8362004">
        <ele>152.0</ele>
        <time>2021-11-25T09:46:12Z</time>
      </trkpt>
      <trkpt lat="47.561806" lon="1.8362186">
        <ele>152.0</ele>
        <time>2021-11-25T09:46:13Z</time>
      </trkpt>
      <trkpt lat="47.561806" lon="1.8362385">
        <ele>152.0</ele>
        <time>2021-11-25T09:46:14Z</time>
      </trkpt>
      <trkpt lat="47.561802" lon="1.8362558">
        <ele>152.0</ele>
        <time>2021-11-25T09:46:15Z</time>
      </trkpt>
      <trkpt lat="47.561802" lon="1.8362796">
        <ele>153.0</ele>
        <time>2021-11-25T09:46:16Z</time>
      </trkpt>
      <trkpt lat="47.5618" lon="1.8362976">
        <ele>153.0</ele>
        <time>2021-11-25T09:46:17Z</time>
      </trkpt>
      <trkpt lat="47.561794" lon="1.8363198">
        <ele>153.0</ele>
        <time>2021-11-25T09:46:18Z</time>
      </trkpt>
      <trkpt lat="47.561794" lon="1.8363367">
        <ele>154.0</ele>
        <time>2021-11-25T09:46:19Z</time>
      </trkpt>
      <trkpt lat="47.561794" lon="1.836356">
        <ele>154.0</ele>
        <time>2021-11-25T09:46:20Z</time>
      </trkpt>
      <trkpt lat="47.5618" lon="1.836369">
        <ele>154.0</ele>
        <time>2021-11-25T09:46:21Z</time>
      </trkpt>
      <trkpt lat="47.561794" lon="1.836385">
        <ele>155.0</ele>
        <time>2021-11-25T09:46:22Z</time>
      </trkpt>
      <trkpt lat="47.56179" lon="1.8363994">
        <ele>155.0</ele>
        <time>2021-11-25T09:46:23Z</time>
      </trkpt>
      <trkpt lat="47.561787" lon="1.8364185">
        <ele>154.0</ele>
        <time>2021-11-25T09:46:24Z</time>
      </trkpt>
      <trkpt lat="47.561783" lon="1.8364329">
        <ele>154.0</ele>
        <time>2021-11-25T09:46:25Z</time>
      </trkpt>
      <trkpt lat="47.561775" lon="1.83645">
        <ele>154.0</ele>
        <time>2021-11-25T09:46:26Z</time>
      </trkpt>
      <trkpt lat="47.561768" lon="1.8364688">
        <ele>154.0</ele>
        <time>2021-11-25T09:46:27Z</time>
      </trkpt>
      <trkpt lat="47.561764" lon="1.8364823">
        <ele>154.0</ele>
        <time>2021-11-25T09:46:28Z</time>
      </trkpt>
      <trkpt lat="47.561768" lon="1.8364993">
        <ele>154.0</ele>
        <time>2021-11-25T09:46:29Z</time>
      </trkpt>
      <trkpt lat="47.561768" lon="1.8365171">
        <ele>154.0</ele>
        <time>2021-11-25T09:46:30Z</time>
      </trkpt>
      <trkpt lat="47.561764" lon="1.8365394">
        <ele>154.0</ele>
        <time>2021-11-25T09:46:31Z</time>
      </trkpt>
      <trkpt lat="47.561764" lon="1.8365586">
        <ele>153.0</ele>
        <time>2021-11-25T09:46:32Z</time>
      </trkpt>
      <trkpt lat="47.561764" lon="1.8365713">
        <ele>153.0</ele>
        <time>2021-11-25T09:46:33Z</time>
      </trkpt>
      <trkpt lat="47.561764" lon="1.8365833">
        <ele>153.0</ele>
        <time>2021-11-25T09:46:34Z</time>
      </trkpt>
      <trkpt lat="47.561764" lon="1.8365973">
        <ele>154.0</ele>
        <time>2021-11-25T09:46:35Z</time>
      </trkpt>
      <trkpt lat="47.561764" lon="1.8366151">
        <ele>153.0</ele>
        <time>2021-11-25T09:46:36Z</time>
      </trkpt>
      <trkpt lat="47.561764" lon="1.8366352">
        <ele>153.0</ele>
        <time>2021-11-25T09:46:37Z</time>
      </trkpt>
      <trkpt lat="47.561764" lon="1.8366594">
        <ele>153.0</ele>
        <time>2021-11-25T09:46:38Z</time>
      </trkpt>
      <trkpt lat="47.561764" lon="1.8366847">
        <ele>152.0</ele>
        <time>2021-11-25T09:46:39Z</time>
      </trkpt>
      <trkpt lat="47.561764" lon="1.8367105">
        <ele>152.0</ele>
        <time>2021-11-25T09:46:40Z</time>
      </trkpt>
      <trkpt lat="47.561764" lon="1.8367288">
        <ele>151.0</ele>
        <time>2021-11-25T09:46:41Z</time>
      </trkpt>
      <trkpt lat="47.561764" lon="1.8367474">
        <ele>151.0</ele>
        <time>2021-11-25T09:46:42Z</time>
      </trkpt>
      <trkpt lat="47.561768" lon="1.836771">
        <ele>151.0</ele>
        <time>2021-11-25T09:46:43Z</time>
      </trkpt>
      <trkpt lat="47.561764" lon="1.8367927">
        <ele>151.0</ele>
        <time>2021-11-25T09:46:44Z</time>
      </trkpt>
      <trkpt lat="47.561768" lon="1.8368098">
        <ele>150.0</ele>
        <time>2021-11-25T09:46:45Z</time>
      </trkpt>
      <trkpt lat="47.56177" lon="1.8368222">
        <ele>150.0</ele>
        <time>2021-11-25T09:46:46Z</time>
      </trkpt>
      <trkpt lat="47.56177" lon="1.836841">
        <ele>150.0</ele>
        <time>2021-11-25T09:46:47Z</time>
      </trkpt>
      <trkpt lat="47.56177" lon="1.8368602">
        <ele>149.0</ele>
        <time>2021-11-25T09:46:48Z</time>
      </trkpt>
      <trkpt lat="47.561768" lon="1.8368778">
        <ele>149.0</ele>
        <time>2021-11-25T09:46:49Z</time>
      </trkpt>
      <trkpt lat="47.561768" lon="1.8368928">
        <ele>149.0</ele>
        <time>2021-11-25T09:46:50Z</time>
      </trkpt>
      <trkpt lat="47.561764" lon="1.8369126">
        <ele>149.0</ele>
        <time>2021-11-25T09:46:51Z</time>
      </trkpt>
      <trkpt lat="47.561764" lon="1.8369316">
        <ele>149.0</ele>
        <time>2021-11-25T09:46:52Z</time>
      </trkpt>
      <trkpt lat="47.561764" lon="1.836952">
        <ele>150.0</ele>
        <time>2021-11-25T09:46:53Z</time>
      </trkpt>
      <trkpt lat="47.561768" lon="1.8369706">
        <ele>150.0</ele>
        <time>2021-11-25T09:46:54Z</time>
      </trkpt>
      <trkpt lat="47.561768" lon="1.8369876">
        <ele>151.0</ele>
        <time>2021-11-25T09:46:55Z</time>
      </trkpt>
      <trkpt lat="47.561768" lon="1.837008">
        <ele>151.0</ele>
        <time>2021-11-25T09:46:56Z</time>
      </trkpt>
      <trkpt lat="47.56177" lon="1.8370287">
        <ele>151.0</ele>
        <time>2021-11-25T09:46:57Z</time>
      </trkpt>
      <trkpt lat="47.561768" lon="1.8370463">
        <ele>150.0</ele>
        <time>2021-11-25T09:46:58Z</time>
      </trkpt>
      <trkpt lat="47.56177" lon="1.8370643">
        <ele>150.0</ele>
        <time>2021-11-25T09:46:59Z</time>
      </trkpt>
      <trkpt lat="47.56178" lon="1.8370776">
        <ele>149.0</ele>
        <time>2021-11-25T09:47:00Z</time>
      </trkpt>
      <trkpt lat="47.561783" lon="1.8370894">
        <ele>149.0</ele>
        <time>2021-11-25T09:47:01Z</time>
      </trkpt>
      <trkpt lat="47.561787" lon="1.8371063">
        <ele>150.0</ele>
        <time>2021-11-25T09:47:02Z</time>
      </trkpt>
      <trkpt lat="47.561794" lon="1.8371241">
        <ele>150.0</ele>
        <time>2021-11-25T09:47:03Z</time>
      </trkpt>
      <trkpt lat="47.561794" lon="1.8371406">
        <ele>150.0</ele>
        <time>2021-11-25T09:47:04Z</time>
      </trkpt>
      <trkpt lat="47.56179" lon="1.8371562">
        <ele>149.0</ele>
        <time>2021-11-25T09:47:05Z</time>
      </trkpt>
      <trkpt lat="47.56179" lon="1.837177">
        <ele>149.0</ele>
        <time>2021-11-25T09:47:06Z</time>
      </trkpt>
      <trkpt lat="47.561783" lon="1.8371948">
        <ele>149.0</ele>
        <time>2021-11-25T09:47:07Z</time>
      </trkpt>
      <trkpt lat="47.56178" lon="1.8372142">
        <ele>150.0</ele>
        <time>2021-11-25T09:47:08Z</time>
      </trkpt>
      <trkpt lat="47.56178" lon="1.8372295">
        <ele>150.0</ele>
        <time>2021-11-25T09:47:09Z</time>
      </trkpt>
      <trkpt lat="47.56178" lon="1.8372467">
        <ele>150.0</ele>
        <time>2021-11-25T09:47:10Z</time>
      </trkpt>
      <trkpt lat="47.561787" lon="1.8372692">
        <ele>150.0</ele>
        <time>2021-11-25T09:47:11Z</time>
      </trkpt>
      <trkpt lat="47.561794" lon="1.8372936">
        <ele>150.0</ele>
        <time>2021-11-25T09:47:12Z</time>
      </trkpt>
      <trkpt lat="47.561794" lon="1.8373128">
        <ele>150.0</ele>
        <time>2021-11-25T09:47:13Z</time>
      </trkpt>
      <trkpt lat="47.561802" lon="1.8373315">
        <ele>150.0</ele>
        <time>2021-11-25T09:47:14Z</time>
      </trkpt>
      <trkpt lat="47.561802" lon="1.8373458">
        <ele>150.0</ele>
        <time>2021-11-25T09:47:15Z</time>
      </trkpt>
      <trkpt lat="47.5618" lon="1.8373587">
        <ele>150.0</ele>
        <time>2021-11-25T09:47:16Z</time>
      </trkpt>
      <trkpt lat="47.561802" lon="1.8373735">
        <ele>151.0</ele>
        <time>2021-11-25T09:47:17Z</time>
      </trkpt>
      <trkpt lat="47.561802" lon="1.8373923">
        <ele>151.0</ele>
        <time>2021-11-25T09:47:18Z</time>
      </trkpt>
      <trkpt lat="47.561806" lon="1.8374128">
        <ele>150.0</ele>
        <time>2021-11-25T09:47:19Z</time>
      </trkpt>
      <trkpt lat="47.561802" lon="1.8374299">
        <ele>150.0</ele>
        <time>2021-11-25T09:47:20Z</time>
      </trkpt>
      <trkpt lat="47.561806" lon="1.8374501">
        <ele>150.0</ele>
        <time>2021-11-25T09:47:21Z</time>
      </trkpt>
      <trkpt lat="47.56181" lon="1.8374697">
        <ele>150.0</ele>
        <time>2021-11-25T09:47:22Z</time>
      </trkpt>
      <trkpt lat="47.56181" lon="1.8374939">
        <ele>150.0</ele>
        <time>2021-11-25T09:47:23Z</time>
      </trkpt>
      <trkpt lat="47.561813" lon="1.8375138">
        <ele>150.0</ele>
        <time>2021-11-25T09:47:24Z</time>
      </trkpt>
      <trkpt lat="47.561817" lon="1.83753">
        <ele>149.0</ele>
        <time>2021-11-25T09:47:25Z</time>
      </trkpt>
      <trkpt lat="47.561817" lon="1.8375466">
        <ele>149.0</ele>
        <time>2021-11-25T09:47:26Z</time>
      </trkpt>
      <trkpt lat="47.56182" lon="1.8375621">
        <ele>149.0</ele>
        <time>2021-11-25T09:47:27Z</time>
      </trkpt>
      <trkpt lat="47.561825" lon="1.8375787">
        <ele>149.0</ele>
        <time>2021-11-25T09:47:28Z</time>
      </trkpt>
      <trkpt lat="47.561825" lon="1.8375965">
        <ele>148.0</ele>
        <time>2021-11-25T09:47:29Z</time>
      </trkpt>
      <trkpt lat="47.561825" lon="1.8376162">
        <ele>148.0</ele>
        <time>2021-11-25T09:47:30Z</time>
      </trkpt>
      <trkpt lat="47.561832" lon="1.8376374">
        <ele>147.0</ele>
        <time>2021-11-25T09:47:31Z</time>
      </trkpt>
      <trkpt lat="47.561832" lon="1.8376609">
        <ele>147.0</ele>
        <time>2021-11-25T09:47:32Z</time>
      </trkpt>
      <trkpt lat="47.561836" lon="1.8376813">
        <ele>147.0</ele>
        <time>2021-11-25T09:47:33Z</time>
      </trkpt>
      <trkpt lat="47.56184" lon="1.8377007">
        <ele>148.0</ele>
        <time>2021-11-25T09:47:34Z</time>
      </trkpt>
      <trkpt lat="47.561848" lon="1.8377196">
        <ele>148.0</ele>
        <time>2021-11-25T09:47:35Z</time>
      </trkpt>
      <trkpt lat="47.561855" lon="1.8377405">
        <ele>148.0</ele>
        <time>2021-11-25T09:47:36Z</time>
      </trkpt>
      <trkpt lat="47.561855" lon="1.8377554">
        <ele>148.0</ele>
        <time>2021-11-25T09:47:37Z</time>
      </trkpt>
      <trkpt lat="47.56186" lon="1.8377696">
        <ele>148.0</ele>
        <time>2021-11-25T09:47:38Z</time>
      </trkpt>
      <trkpt lat="47.56186" lon="1.8377904">
        <ele>147.0</ele>
        <time>2021-11-25T09:47:39Z</time>
      </trkpt>
      <trkpt lat="47.561863" lon="1.8378077">
        <ele>147.0</ele>
        <time>2021-11-25T09:47:40Z</time>
      </trkpt>
      <trkpt lat="47.561867" lon="1.8378322">
        <ele>147.0</ele>
        <time>2021-11-25T09:47:41Z</time>
      </trkpt>
      <trkpt lat="47.561867" lon="1.8378474">
        <ele>147.0</ele>
        <time>2021-11-25T09:47:42Z</time>
      </trkpt>
      <trkpt lat="47.56187" lon="1.8378652">
        <ele>148.0</ele>
        <time>2021-11-25T09:47:43Z</time>
      </trkpt>
      <trkpt lat="47.56187" lon="1.837882">
        <ele>148.0</ele>
        <time>2021-11-25T09:47:44Z</time>
      </trkpt>
      <trkpt lat="47.561874" lon="1.8379028">
        <ele>148.0</ele>
        <time>2021-11-25T09:47:45Z</time>
      </trkpt>
      <trkpt lat="47.561874" lon="1.8379201">
        <ele>148.0</ele>
        <time>2021-11-25T09:47:46Z</time>
      </trkpt>
      <trkpt lat="47.561874" lon="1.8379347">
        <ele>148.0</ele>
        <time>2021-11-25T09:47:47Z</time>
      </trkpt>
      <trkpt lat="47.56188" lon="1.8379525">
        <ele>148.0</ele>
        <time>2021-11-25T09:47:48Z</time>
      </trkpt>
      <trkpt lat="47.56188" lon="1.837967">
        <ele>148.0</ele>
        <time>2021-11-25T09:47:49Z</time>
      </trkpt>
      <trkpt lat="47.561882" lon="1.8379812">
        <ele>148.0</ele>
        <time>2021-11-25T09:47:50Z</time>
      </trkpt>
      <trkpt lat="47.561886" lon="1.8379964">
        <ele>148.0</ele>
        <time>2021-11-25T09:47:51Z</time>
      </trkpt>
      <trkpt lat="47.561886" lon="1.8380108">
        <ele>148.0</ele>
        <time>2021-11-25T09:47:52Z</time>
      </trkpt>
      <trkpt lat="47.561886" lon="1.8380185">
        <ele>148.0</ele>
        <time>2021-11-25T09:47:53Z</time>
      </trkpt>
      <trkpt lat="47.56189" lon="1.8380346">
        <ele>147.0</ele>
        <time>2021-11-25T09:47:54Z</time>
      </trkpt>
      <trkpt lat="47.56189" lon="1.8380494">
        <ele>147.0</ele>
        <time>2021-11-25T09:47:55Z</time>
      </trkpt>
      <trkpt lat="47.561893" lon="1.838066">
        <ele>147.0</ele>
        <time>2021-11-25T09:47:56Z</time>
      </trkpt>
      <trkpt lat="47.561897" lon="1.8380891">
        <ele>147.0</ele>
        <time>2021-11-25T09:47:57Z</time>
      </trkpt>
      <trkpt lat="47.561897" lon="1.8381115">
        <ele>148.0</ele>
        <time>2021-11-25T09:47:58Z</time>
      </trkpt>
      <trkpt lat="47.561897" lon="1.8381317">
        <ele>149.0</ele>
        <time>2021-11-25T09:47:59Z</time>
      </trkpt>
      <trkpt lat="47.5619" lon="1.8381423">
        <ele>149.0</ele>
        <time>2021-11-25T09:48:00Z</time>
      </trkpt>
      <trkpt lat="47.5619" lon="1.8381581">
        <ele>149.0</ele>
        <time>2021-11-25T09:48:01Z</time>
      </trkpt>
      <trkpt lat="47.561905" lon="1.8381764">
        <ele>148.0</ele>
        <time>2021-11-25T09:48:02Z</time>
      </trkpt>
      <trkpt lat="47.561905" lon="1.838192">
        <ele>148.0</ele>
        <time>2021-11-25T09:48:03Z</time>
      </trkpt>
      <trkpt lat="47.56191" lon="1.8382109">
        <ele>147.0</ele>
        <time>2021-11-25T09:48:04Z</time>
      </trkpt>
      <trkpt lat="47.561905" lon="1.838231">
        <ele>147.0</ele>
        <time>2021-11-25T09:48:05Z</time>
      </trkpt>
      <trkpt lat="47.56191" lon="1.8382479">
        <ele>147.0</ele>
        <time>2021-11-25T09:48:06Z</time>
      </trkpt>
      <trkpt lat="47.561913" lon="1.8382628">
        <ele>147.0</ele>
        <time>2021-11-25T09:48:07Z</time>
      </trkpt>
      <trkpt lat="47.561913" lon="1.8382766">
        <ele>147.0</ele>
        <time>2021-11-25T09:48:08Z</time>
      </trkpt>
      <trkpt lat="47.561916" lon="1.8382933">
        <ele>146.0</ele>
        <time>2021-11-25T09:48:09Z</time>
      </trkpt>
      <trkpt lat="47.56192" lon="1.8383071">
        <ele>146.0</ele>
        <time>2021-11-25T09:48:10Z</time>
      </trkpt>
      <trkpt lat="47.56192" lon="1.8383187">
        <ele>146.0</ele>
        <time>2021-11-25T09:48:11Z</time>
      </trkpt>
      <trkpt lat="47.561924" lon="1.8383322">
        <ele>146.0</ele>
        <time>2021-11-25T09:48:12Z</time>
      </trkpt>
      <trkpt lat="47.561928" lon="1.838347">
        <ele>145.0</ele>
        <time>2021-11-25T09:48:13Z</time>
      </trkpt>
      <trkpt lat="47.561935" lon="1.838361">
        <ele>146.0</ele>
        <time>2021-11-25T09:48:14Z</time>
      </trkpt>
      <trkpt lat="47.56194" lon="1.8383759">
        <ele>145.0</ele>
        <time>2021-11-25T09:48:15Z</time>
      </trkpt>
      <trkpt lat="47.561947" lon="1.8383923">
        <ele>145.0</ele>
        <time>2021-11-25T09:48:16Z</time>
      </trkpt>
      <trkpt lat="47.561954" lon="1.8384076">
        <ele>145.0</ele>
        <time>2021-11-25T09:48:17Z</time>
      </trkpt>
      <trkpt lat="47.56196" lon="1.8384241">
        <ele>145.0</ele>
        <time>2021-11-25T09:48:18Z</time>
      </trkpt>
      <trkpt lat="47.561962" lon="1.83844">
        <ele>145.0</ele>
        <time>2021-11-25T09:48:19Z</time>
      </trkpt>
      <trkpt lat="47.561966" lon="1.8384585">
        <ele>145.0</ele>
        <time>2021-11-25T09:48:20Z</time>
      </trkpt>
      <trkpt lat="47.561974" lon="1.8384755">
        <ele>145.0</ele>
        <time>2021-11-25T09:48:21Z</time>
      </trkpt>
      <trkpt lat="47.56198" lon="1.8384917">
        <ele>145.0</ele>
        <time>2021-11-25T09:48:22Z</time>
      </trkpt>
      <trkpt lat="47.56199" lon="1.8385078">
        <ele>145.0</ele>
        <time>2021-11-25T09:48:23Z</time>
      </trkpt>
      <trkpt lat="47.56199" lon="1.8385249">
        <ele>145.0</ele>
        <time>2021-11-25T09:48:24Z</time>
      </trkpt>
      <trkpt lat="47.56199" lon="1.8385454">
        <ele>145.0</ele>
        <time>2021-11-25T09:48:25Z</time>
      </trkpt>
      <trkpt lat="47.561993" lon="1.8385628">
        <ele>145.0</ele>
        <time>2021-11-25T09:48:26Z</time>
      </trkpt>
      <trkpt lat="47.561996" lon="1.8385788">
        <ele>145.0</ele>
        <time>2021-11-25T09:48:27Z</time>
      </trkpt>
      <trkpt lat="47.562" lon="1.8385942">
        <ele>146.0</ele>
        <time>2021-11-25T09:48:28Z</time>
      </trkpt>
      <trkpt lat="47.562004" lon="1.8386087">
        <ele>146.0</ele>
        <time>2021-11-25T09:48:29Z</time>
      </trkpt>
      <trkpt lat="47.562008" lon="1.8386279">
        <ele>146.0</ele>
        <time>2021-11-25T09:48:30Z</time>
      </trkpt>
      <trkpt lat="47.562008" lon="1.8386459">
        <ele>146.0</ele>
        <time>2021-11-25T09:48:31Z</time>
      </trkpt>
      <trkpt lat="47.56201" lon="1.8386656">
        <ele>146.0</ele>
        <time>2021-11-25T09:48:32Z</time>
      </trkpt>
      <trkpt lat="47.562008" lon="1.8386834">
        <ele>145.0</ele>
        <time>2021-11-25T09:48:33Z</time>
      </trkpt>
      <trkpt lat="47.562008" lon="1.8386999">
        <ele>146.0</ele>
        <time>2021-11-25T09:48:34Z</time>
      </trkpt>
      <trkpt lat="47.562008" lon="1.8387173">
        <ele>146.0</ele>
        <time>2021-11-25T09:48:35Z</time>
      </trkpt>
      <trkpt lat="47.562008" lon="1.8387349">
        <ele>146.0</ele>
        <time>2021-11-25T09:48:36Z</time>
      </trkpt>
      <trkpt lat="47.562008" lon="1.8387567">
        <ele>146.0</ele>
        <time>2021-11-25T09:48:37Z</time>
      </trkpt>
      <trkpt lat="47.562008" lon="1.8387783">
        <ele>146.0</ele>
        <time>2021-11-25T09:48:38Z</time>
      </trkpt>
      <trkpt lat="47.562004" lon="1.8387961">
        <ele>146.0</ele>
        <time>2021-11-25T09:48:39Z</time>
      </trkpt>
      <trkpt lat="47.561996" lon="1.8388103">
        <ele>146.0</ele>
        <time>2021-11-25T09:48:40Z</time>
      </trkpt>
      <trkpt lat="47.56198" lon="1.8388236">
        <ele>147.0</ele>
        <time>2021-11-25T09:48:41Z</time>
      </trkpt>
      <trkpt lat="47.56197" lon="1.8388411">
        <ele>146.0</ele>
        <time>2021-11-25T09:48:42Z</time>
      </trkpt>
      <trkpt lat="47.56196" lon="1.8388549">
        <ele>146.0</ele>
        <time>2021-11-25T09:48:43Z</time>
      </trkpt>
      <trkpt lat="47.561943" lon="1.8388667">
        <ele>146.0</ele>
        <time>2021-11-25T09:48:44Z</time>
      </trkpt>
      <trkpt lat="47.56193" lon="1.8388824">
        <ele>146.0</ele>
        <time>2021-11-25T09:48:45Z</time>
      </trkpt>
      <trkpt lat="47.56192" lon="1.8388972">
        <ele>146.0</ele>
        <time>2021-11-25T09:48:46Z</time>
      </trkpt>
      <trkpt lat="47.56191" lon="1.838909">
        <ele>146.0</ele>
        <time>2021-11-25T09:48:47Z</time>
      </trkpt>
      <trkpt lat="47.561893" lon="1.8389214">
        <ele>146.0</ele>
        <time>2021-11-25T09:48:48Z</time>
      </trkpt>
      <trkpt lat="47.561886" lon="1.8389317">
        <ele>146.0</ele>
        <time>2021-11-25T09:48:49Z</time>
      </trkpt>
      <trkpt lat="47.561874" lon="1.8389409">
        <ele>146.0</ele>
        <time>2021-11-25T09:48:50Z</time>
      </trkpt>
      <trkpt lat="47.561867" lon="1.8389528">
        <ele>146.0</ele>
        <time>2021-11-25T09:48:51Z</time>
      </trkpt>
      <trkpt lat="47.56186" lon="1.8389641">
        <ele>146.0</ele>
        <time>2021-11-25T09:48:52Z</time>
      </trkpt>
      <trkpt lat="47.561855" lon="1.8389703">
        <ele>146.0</ele>
        <time>2021-11-25T09:48:53Z</time>
      </trkpt>
      <trkpt lat="47.56185" lon="1.8389771">
        <ele>146.0</ele>
        <time>2021-11-25T09:48:54Z</time>
      </trkpt>
      <trkpt lat="47.561844" lon="1.8389887">
        <ele>146.0</ele>
        <time>2021-11-25T09:48:55Z</time>
      </trkpt>
      <trkpt lat="47.561832" lon="1.8389981">
        <ele>146.0</ele>
        <time>2021-11-25T09:48:56Z</time>
      </trkpt>
      <trkpt lat="47.56182" lon="1.8390079">
        <ele>146.0</ele>
        <time>2021-11-25T09:48:57Z</time>
      </trkpt>
      <trkpt lat="47.561817" lon="1.8390185">
        <ele>146.0</ele>
        <time>2021-11-25T09:48:58Z</time>
      </trkpt>
      <trkpt lat="47.56181" lon="1.839025">
        <ele>146.0</ele>
        <time>2021-11-25T09:48:59Z</time>
      </trkpt>
      <trkpt lat="47.561802" lon="1.8390334">
        <ele>146.0</ele>
        <time>2021-11-25T09:49:00Z</time>
      </trkpt>
      <trkpt lat="47.561794" lon="1.8390425">
        <ele>146.0</ele>
        <time>2021-11-25T09:49:01Z</time>
      </trkpt>
      <trkpt lat="47.561787" lon="1.8390535">
        <ele>146.0</ele>
        <time>2021-11-25T09:49:02Z</time>
      </trkpt>
      <trkpt lat="47.561775" lon="1.839063">
        <ele>146.0</ele>
        <time>2021-11-25T09:49:03Z</time>
      </trkpt>
      <trkpt lat="47.561768" lon="1.8390712">
        <ele>146.0</ele>
        <time>2021-11-25T09:49:04Z</time>
      </trkpt>
      <trkpt lat="47.561756" lon="1.8390802">
        <ele>146.0</ele>
        <time>2021-11-25T09:49:05Z</time>
      </trkpt>
      <trkpt lat="47.56175" lon="1.8390875">
        <ele>145.0</ele>
        <time>2021-11-25T09:49:06Z</time>
      </trkpt>
      <trkpt lat="47.56174" lon="1.8390889">
        <ele>145.0</ele>
        <time>2021-11-25T09:49:07Z</time>
      </trkpt>
      <trkpt lat="47.561733" lon="1.839093">
        <ele>145.0</ele>
        <time>2021-11-25T09:49:08Z</time>
      </trkpt>
      <trkpt lat="47.561726" lon="1.8390901">
        <ele>145.0</ele>
        <time>2021-11-25T09:49:09Z</time>
      </trkpt>
      <trkpt lat="47.561718" lon="1.839091">
        <ele>144.0</ele>
        <time>2021-11-25T09:49:10Z</time>
      </trkpt>
      <trkpt lat="47.561714" lon="1.8391017">
        <ele>145.0</ele>
        <time>2021-11-25T09:49:11Z</time>
      </trkpt>
      <trkpt lat="47.56171" lon="1.8391112">
        <ele>145.0</ele>
        <time>2021-11-25T09:49:12Z</time>
      </trkpt>
      <trkpt lat="47.5617" lon="1.839117">
        <ele>145.0</ele>
        <time>2021-11-25T09:49:13Z</time>
      </trkpt>
      <trkpt lat="47.56169" lon="1.8391281">
        <ele>144.0</ele>
        <time>2021-11-25T09:49:14Z</time>
      </trkpt>
      <trkpt lat="47.561687" lon="1.8391366">
        <ele>144.0</ele>
        <time>2021-11-25T09:49:15Z</time>
      </trkpt>
      <trkpt lat="47.561684" lon="1.8391479">
        <ele>144.0</ele>
        <time>2021-11-25T09:49:16Z</time>
      </trkpt>
      <trkpt lat="47.561676" lon="1.8391572">
        <ele>144.0</ele>
        <time>2021-11-25T09:49:17Z</time>
      </trkpt>
      <trkpt lat="47.56167" lon="1.8391668">
        <ele>144.0</ele>
        <time>2021-11-25T09:49:18Z</time>
      </trkpt>
      <trkpt lat="47.561657" lon="1.8391818">
        <ele>144.0</ele>
        <time>2021-11-25T09:49:19Z</time>
      </trkpt>
      <trkpt lat="47.56165" lon="1.8391964">
        <ele>144.0</ele>
        <time>2021-11-25T09:49:20Z</time>
      </trkpt>
      <trkpt lat="47.561638" lon="1.8392091">
        <ele>144.0</ele>
        <time>2021-11-25T09:49:21Z</time>
      </trkpt>
      <trkpt lat="47.561634" lon="1.839216">
        <ele>144.0</ele>
        <time>2021-11-25T09:49:22Z</time>
      </trkpt>
      <trkpt lat="47.56162" lon="1.8392234">
        <ele>144.0</ele>
        <time>2021-11-25T09:49:23Z</time>
      </trkpt>
      <trkpt lat="47.561607" lon="1.839234">
        <ele>144.0</ele>
        <time>2021-11-25T09:49:24Z</time>
      </trkpt>
      <trkpt lat="47.561596" lon="1.839237">
        <ele>144.0</ele>
        <time>2021-11-25T09:49:25Z</time>
      </trkpt>
      <trkpt lat="47.56159" lon="1.8392377">
        <ele>144.0</ele>
        <time>2021-11-25T09:49:26Z</time>
      </trkpt>
      <trkpt lat="47.561573" lon="1.8392451">
        <ele>144.0</ele>
        <time>2021-11-25T09:49:27Z</time>
      </trkpt>
      <trkpt lat="47.56156" lon="1.8392525">
        <ele>143.0</ele>
        <time>2021-11-25T09:49:28Z</time>
      </trkpt>
      <trkpt lat="47.561554" lon="1.8392557">
        <ele>143.0</ele>
        <time>2021-11-25T09:49:29Z</time>
      </trkpt>
      <trkpt lat="47.561546" lon="1.839262">
        <ele>144.0</ele>
        <time>2021-11-25T09:49:30Z</time>
      </trkpt>
      <trkpt lat="47.561535" lon="1.8392693">
        <ele>144.0</ele>
        <time>2021-11-25T09:49:31Z</time>
      </trkpt>
      <trkpt lat="47.561523" lon="1.8392739">
        <ele>144.0</ele>
        <time>2021-11-25T09:49:32Z</time>
      </trkpt>
      <trkpt lat="47.561516" lon="1.8392789">
        <ele>144.0</ele>
        <time>2021-11-25T09:49:33Z</time>
      </trkpt>
      <trkpt lat="47.56151" lon="1.8392875">
        <ele>144.0</ele>
        <time>2021-11-25T09:49:34Z</time>
      </trkpt>
      <trkpt lat="47.561497" lon="1.839299">
        <ele>144.0</ele>
        <time>2021-11-25T09:49:35Z</time>
      </trkpt>
      <trkpt lat="47.561493" lon="1.839315">
        <ele>145.0</ele>
        <time>2021-11-25T09:49:36Z</time>
      </trkpt>
      <trkpt lat="47.56148" lon="1.8393292">
        <ele>144.0</ele>
        <time>2021-11-25T09:49:37Z</time>
      </trkpt>
      <trkpt lat="47.561474" lon="1.8393397">
        <ele>144.0</ele>
        <time>2021-11-25T09:49:38Z</time>
      </trkpt>
      <trkpt lat="47.561466" lon="1.8393416">
        <ele>144.0</ele>
        <time>2021-11-25T09:49:39Z</time>
      </trkpt>
      <trkpt lat="47.56146" lon="1.8393493">
        <ele>144.0</ele>
        <time>2021-11-25T09:49:40Z</time>
      </trkpt>
      <trkpt lat="47.561455" lon="1.8393629">
        <ele>144.0</ele>
        <time>2021-11-25T09:49:41Z</time>
      </trkpt>
      <trkpt lat="47.561447" lon="1.8393804">
        <ele>144.0</ele>
        <time>2021-11-25T09:49:42Z</time>
      </trkpt>
      <trkpt lat="47.561443" lon="1.839392">
        <ele>144.0</ele>
        <time>2021-11-25T09:49:43Z</time>
      </trkpt>
      <trkpt lat="47.56143" lon="1.8394003">
        <ele>144.0</ele>
        <time>2021-11-25T09:49:44Z</time>
      </trkpt>
      <trkpt lat="47.56142" lon="1.8394067">
        <ele>144.0</ele>
        <time>2021-11-25T09:49:45Z</time>
      </trkpt>
      <trkpt lat="47.561413" lon="1.8394128">
        <ele>143.0</ele>
        <time>2021-11-25T09:49:46Z</time>
      </trkpt>
      <trkpt lat="47.561405" lon="1.8394245">
        <ele>143.0</ele>
        <time>2021-11-25T09:49:47Z</time>
      </trkpt>
      <trkpt lat="47.561398" lon="1.8394353">
        <ele>143.0</ele>
        <time>2021-11-25T09:49:48Z</time>
      </trkpt>
      <trkpt lat="47.561386" lon="1.8394481">
        <ele>143.0</ele>
        <time>2021-11-25T09:49:49Z</time>
      </trkpt>
      <trkpt lat="47.561382" lon="1.8394622">
        <ele>143.0</ele>
        <time>2021-11-25T09:49:50Z</time>
      </trkpt>
      <trkpt lat="47.561382" lon="1.8394622">
        <ele>143.0</ele>
        <time>2021-11-25T09:49:51Z</time>
      </trkpt>
      <trkpt lat="47.561382" lon="1.8394622">
        <ele>143.0</ele>
        <time>2021-11-25T09:49:52Z</time>
      </trkpt>
      <trkpt lat="47.561363" lon="1.839479">
        <ele>143.0</ele>
        <time>2021-11-25T09:49:53Z</time>
      </trkpt>
      <trkpt lat="47.56135" lon="1.8394865">
        <ele>144.0</ele>
        <time>2021-11-25T09:49:54Z</time>
      </trkpt>
      <trkpt lat="47.561348" lon="1.8394964">
        <ele>144.0</ele>
        <time>2021-11-25T09:49:55Z</time>
      </trkpt>
      <trkpt lat="47.56134" lon="1.8395104">
        <ele>145.0</ele>
        <time>2021-11-25T09:49:56Z</time>
      </trkpt>
      <trkpt lat="47.56133" lon="1.8395212">
        <ele>144.0</ele>
        <time>2021-11-25T09:49:57Z</time>
      </trkpt>
      <trkpt lat="47.561317" lon="1.8395296">
        <ele>144.0</ele>
        <time>2021-11-25T09:49:58Z</time>
      </trkpt>
      <trkpt lat="47.56131" lon="1.839541">
        <ele>144.0</ele>
        <time>2021-11-25T09:49:59Z</time>
      </trkpt>
      <trkpt lat="47.561306" lon="1.8395479">
        <ele>144.0</ele>
        <time>2021-11-25T09:50:00Z</time>
      </trkpt>
      <trkpt lat="47.561302" lon="1.8395607">
        <ele>144.0</ele>
        <time>2021-11-25T09:50:01Z</time>
      </trkpt>
      <trkpt lat="47.561295" lon="1.8395699">
        <ele>144.0</ele>
        <time>2021-11-25T09:50:02Z</time>
      </trkpt>
      <trkpt lat="47.561283" lon="1.8395803">
        <ele>144.0</ele>
        <time>2021-11-25T09:50:03Z</time>
      </trkpt>
      <trkpt lat="47.561275" lon="1.8395903">
        <ele>144.0</ele>
        <time>2021-11-25T09:50:04Z</time>
      </trkpt>
      <trkpt lat="47.561264" lon="1.8395971">
        <ele>144.0</ele>
        <time>2021-11-25T09:50:05Z</time>
      </trkpt>
      <trkpt lat="47.561253" lon="1.8395995">
        <ele>144.0</ele>
        <time>2021-11-25T09:50:06Z</time>
      </trkpt>
      <trkpt lat="47.561237" lon="1.8396052">
        <ele>144.0</ele>
        <time>2021-11-25T09:50:07Z</time>
      </trkpt>
      <trkpt lat="47.56123" lon="1.8396095">
        <ele>144.0</ele>
        <time>2021-11-25T09:50:08Z</time>
      </trkpt>
      <trkpt lat="47.561222" lon="1.8396138">
        <ele>144.0</ele>
        <time>2021-11-25T09:50:09Z</time>
      </trkpt>
      <trkpt lat="47.56122" lon="1.8396282">
        <ele>144.0</ele>
        <time>2021-11-25T09:50:10Z</time>
      </trkpt>
      <trkpt lat="47.56121" lon="1.839646">
        <ele>144.0</ele>
        <time>2021-11-25T09:50:11Z</time>
      </trkpt>
      <trkpt lat="47.561203" lon="1.8396587">
        <ele>144.0</ele>
        <time>2021-11-25T09:50:12Z</time>
      </trkpt>
      <trkpt lat="47.561195" lon="1.83967">
        <ele>144.0</ele>
        <time>2021-11-25T09:50:13Z</time>
      </trkpt>
      <trkpt lat="47.561184" lon="1.8396798">
        <ele>144.0</ele>
        <time>2021-11-25T09:50:14Z</time>
      </trkpt>
      <trkpt lat="47.561176" lon="1.8396922">
        <ele>144.0</ele>
        <time>2021-11-25T09:50:15Z</time>
      </trkpt>
      <trkpt lat="47.56117" lon="1.8397081">
        <ele>144.0</ele>
        <time>2021-11-25T09:50:16Z</time>
      </trkpt>
      <trkpt lat="47.56116" lon="1.8397223">
        <ele>144.0</ele>
        <time>2021-11-25T09:50:17Z</time>
      </trkpt>
      <trkpt lat="47.561157" lon="1.8397392">
        <ele>144.0</ele>
        <time>2021-11-25T09:50:18Z</time>
      </trkpt>
      <trkpt lat="47.561146" lon="1.8397523">
        <ele>144.0</ele>
        <time>2021-11-25T09:50:19Z</time>
      </trkpt>
      <trkpt lat="47.561134" lon="1.8397646">
        <ele>144.0</ele>
        <time>2021-11-25T09:50:20Z</time>
      </trkpt>
      <trkpt lat="47.561123" lon="1.8397764">
        <ele>143.0</ele>
        <time>2021-11-25T09:50:21Z</time>
      </trkpt>
      <trkpt lat="47.56112" lon="1.8397875">
        <ele>143.0</ele>
        <time>2021-11-25T09:50:22Z</time>
      </trkpt>
      <trkpt lat="47.56111" lon="1.8398015">
        <ele>143.0</ele>
        <time>2021-11-25T09:50:23Z</time>
      </trkpt>
      <trkpt lat="47.5611" lon="1.8398168">
        <ele>143.0</ele>
        <time>2021-11-25T09:50:24Z</time>
      </trkpt>
      <trkpt lat="47.561092" lon="1.8398321">
        <ele>143.0</ele>
        <time>2021-11-25T09:50:25Z</time>
      </trkpt>
      <trkpt lat="47.56109" lon="1.8398472">
        <ele>143.0</ele>
        <time>2021-11-25T09:50:26Z</time>
      </trkpt>
      <trkpt lat="47.561077" lon="1.8398609">
        <ele>143.0</ele>
        <time>2021-11-25T09:50:27Z</time>
      </trkpt>
      <trkpt lat="47.56107" lon="1.8398708">
        <ele>142.0</ele>
        <time>2021-11-25T09:50:28Z</time>
      </trkpt>
      <trkpt lat="47.561058" lon="1.8398811">
        <ele>142.0</ele>
        <time>2021-11-25T09:50:29Z</time>
      </trkpt>
      <trkpt lat="47.561054" lon="1.8398942">
        <ele>142.0</ele>
        <time>2021-11-25T09:50:30Z</time>
      </trkpt>
      <trkpt lat="47.561047" lon="1.8399036">
        <ele>142.0</ele>
        <time>2021-11-25T09:50:31Z</time>
      </trkpt>
      <trkpt lat="47.56104" lon="1.8399127">
        <ele>141.0</ele>
        <time>2021-11-25T09:50:32Z</time>
      </trkpt>
      <trkpt lat="47.561028" lon="1.8399225">
        <ele>141.0</ele>
        <time>2021-11-25T09:50:33Z</time>
      </trkpt>
      <trkpt lat="47.561028" lon="1.8399225">
        <ele>141.0</ele>
        <time>2021-11-25T09:50:34Z</time>
      </trkpt>
      <trkpt lat="47.561028" lon="1.8399225">
        <ele>141.0</ele>
        <time>2021-11-25T09:50:35Z</time>
      </trkpt>
      <trkpt lat="47.56101" lon="1.8399391">
        <ele>141.0</ele>
        <time>2021-11-25T09:50:36Z</time>
      </trkpt>
      <trkpt lat="47.561" lon="1.8399447">
        <ele>141.0</ele>
        <time>2021-11-25T09:50:37Z</time>
      </trkpt>
      <trkpt lat="47.560993" lon="1.8399537">
        <ele>141.0</ele>
        <time>2021-11-25T09:50:38Z</time>
      </trkpt>
      <trkpt lat="47.56098" lon="1.8399647">
        <ele>141.0</ele>
        <time>2021-11-25T09:50:39Z</time>
      </trkpt>
      <trkpt lat="47.56097" lon="1.8399755">
        <ele>141.0</ele>
        <time>2021-11-25T09:50:40Z</time>
      </trkpt>
      <trkpt lat="47.56096" lon="1.8399856">
        <ele>141.0</ele>
        <time>2021-11-25T09:50:41Z</time>
      </trkpt>
      <trkpt lat="47.560947" lon="1.8399953">
        <ele>141.0</ele>
        <time>2021-11-25T09:50:42Z</time>
      </trkpt>
      <trkpt lat="47.560936" lon="1.8400018">
        <ele>141.0</ele>
        <time>2021-11-25T09:50:43Z</time>
      </trkpt>
      <trkpt lat="47.56093" lon="1.8400075">
        <ele>141.0</ele>
        <time>2021-11-25T09:50:44Z</time>
      </trkpt>
      <trkpt lat="47.560917" lon="1.8400129">
        <ele>141.0</ele>
        <time>2021-11-25T09:50:45Z</time>
      </trkpt>
      <trkpt lat="47.56091" lon="1.8400183">
        <ele>140.0</ele>
        <time>2021-11-25T09:50:46Z</time>
      </trkpt>
      <trkpt lat="47.56091" lon="1.8400186">
        <ele>140.0</ele>
        <time>2021-11-25T09:50:47Z</time>
      </trkpt>
      <trkpt lat="47.5609" lon="1.8400259">
        <ele>140.0</ele>
        <time>2021-11-25T09:50:48Z</time>
      </trkpt>
      <trkpt lat="47.560894" lon="1.8400338">
        <ele>140.0</ele>
        <time>2021-11-25T09:50:49Z</time>
      </trkpt>
      <trkpt lat="47.560886" lon="1.8400422">
        <ele>140.0</ele>
        <time>2021-11-25T09:50:50Z</time>
      </trkpt>
      <trkpt lat="47.560875" lon="1.8400568">
        <ele>140.0</ele>
        <time>2021-11-25T09:50:51Z</time>
      </trkpt>
      <trkpt lat="47.560863" lon="1.8400776">
        <ele>140.0</ele>
        <time>2021-11-25T09:50:52Z</time>
      </trkpt>
      <trkpt lat="47.560856" lon="1.8400875">
        <ele>140.0</ele>
        <time>2021-11-25T09:50:53Z</time>
      </trkpt>
      <trkpt lat="47.56085" lon="1.8400974">
        <ele>139.0</ele>
        <time>2021-11-25T09:50:54Z</time>
      </trkpt>
      <trkpt lat="47.56084" lon="1.8401141">
        <ele>139.0</ele>
        <time>2021-11-25T09:50:55Z</time>
      </trkpt>
      <trkpt lat="47.560833" lon="1.8401228">
        <ele>139.0</ele>
        <time>2021-11-25T09:50:56Z</time>
      </trkpt>
      <trkpt lat="47.56082" lon="1.8401333">
        <ele>139.0</ele>
        <time>2021-11-25T09:50:57Z</time>
      </trkpt>
      <trkpt lat="47.560818" lon="1.8401403">
        <ele>139.0</ele>
        <time>2021-11-25T09:50:58Z</time>
      </trkpt>
      <trkpt lat="47.56081" lon="1.8401585">
        <ele>140.0</ele>
        <time>2021-11-25T09:50:59Z</time>
      </trkpt>
      <trkpt lat="47.560802" lon="1.8401755">
        <ele>140.0</ele>
        <time>2021-11-25T09:51:00Z</time>
      </trkpt>
      <trkpt lat="47.56079" lon="1.8401827">
        <ele>140.0</ele>
        <time>2021-11-25T09:51:01Z</time>
      </trkpt>
      <trkpt lat="47.56078" lon="1.8401939">
        <ele>141.0</ele>
        <time>2021-11-25T09:51:02Z</time>
      </trkpt>
      <trkpt lat="47.56077" lon="1.8402064">
        <ele>141.0</ele>
        <time>2021-11-25T09:51:03Z</time>
      </trkpt>
      <trkpt lat="47.560757" lon="1.8402178">
        <ele>142.0</ele>
        <time>2021-11-25T09:51:04Z</time>
      </trkpt>
      <trkpt lat="47.56075" lon="1.8402325">
        <ele>142.0</ele>
        <time>2021-11-25T09:51:05Z</time>
      </trkpt>
      <trkpt lat="47.560738" lon="1.8402488">
        <ele>141.0</ele>
        <time>2021-11-25T09:51:06Z</time>
      </trkpt>
      <trkpt lat="47.560726" lon="1.8402653">
        <ele>141.0</ele>
        <time>2021-11-25T09:51:07Z</time>
      </trkpt>
      <trkpt lat="47.560715" lon="1.8402798">
        <ele>142.0</ele>
        <time>2021-11-25T09:51:08Z</time>
      </trkpt>
      <trkpt lat="47.560707" lon="1.8402915">
        <ele>142.0</ele>
        <time>2021-11-25T09:51:09Z</time>
      </trkpt>
      <trkpt lat="47.560696" lon="1.8403069">
        <ele>142.0</ele>
        <time>2021-11-25T09:51:10Z</time>
      </trkpt>
      <trkpt lat="47.560688" lon="1.8403211">
        <ele>142.0</ele>
        <time>2021-11-25T09:51:11Z</time>
      </trkpt>
      <trkpt lat="47.560677" lon="1.840331">
        <ele>142.0</ele>
        <time>2021-11-25T09:51:12Z</time>
      </trkpt>
      <trkpt lat="47.560665" lon="1.8403401">
        <ele>143.0</ele>
        <time>2021-11-25T09:51:13Z</time>
      </trkpt>
      <trkpt lat="47.56065" lon="1.840352">
        <ele>143.0</ele>
        <time>2021-11-25T09:51:14Z</time>
      </trkpt>
      <trkpt lat="47.560642" lon="1.8403672">
        <ele>143.0</ele>
        <time>2021-11-25T09:51:15Z</time>
      </trkpt>
      <trkpt lat="47.560635" lon="1.8403817">
        <ele>143.0</ele>
        <time>2021-11-25T09:51:16Z</time>
      </trkpt>
      <trkpt lat="47.560623" lon="1.8403925">
        <ele>143.0</ele>
        <time>2021-11-25T09:51:17Z</time>
      </trkpt>
      <trkpt lat="47.56061" lon="1.8404028">
        <ele>144.0</ele>
        <time>2021-11-25T09:51:18Z</time>
      </trkpt>
      <trkpt lat="47.560604" lon="1.8404106">
        <ele>144.0</ele>
        <time>2021-11-25T09:51:19Z</time>
      </trkpt>
      <trkpt lat="47.560604" lon="1.8404106">
        <ele>144.0</ele>
        <time>2021-11-25T09:51:20Z</time>
      </trkpt>
      <trkpt lat="47.560604" lon="1.8404106">
        <ele>144.0</ele>
        <time>2021-11-25T09:51:21Z</time>
      </trkpt>
      <trkpt lat="47.56058" lon="1.8404354">
        <ele>145.0</ele>
        <time>2021-11-25T09:51:22Z</time>
      </trkpt>
      <trkpt lat="47.56057" lon="1.8404399">
        <ele>145.0</ele>
        <time>2021-11-25T09:51:23Z</time>
      </trkpt>
      <trkpt lat="47.56056" lon="1.8404472">
        <ele>146.0</ele>
        <time>2021-11-25T09:51:24Z</time>
      </trkpt>
      <trkpt lat="47.560547" lon="1.8404557">
        <ele>145.0</ele>
        <time>2021-11-25T09:51:25Z</time>
      </trkpt>
      <trkpt lat="47.56054" lon="1.8404665">
        <ele>145.0</ele>
        <time>2021-11-25T09:51:26Z</time>
      </trkpt>
      <trkpt lat="47.56053" lon="1.8404791">
        <ele>145.0</ele>
        <time>2021-11-25T09:51:27Z</time>
      </trkpt>
      <trkpt lat="47.56052" lon="1.8404914">
        <ele>145.0</ele>
        <time>2021-11-25T09:51:28Z</time>
      </trkpt>
      <trkpt lat="47.560513" lon="1.8405024">
        <ele>145.0</ele>
        <time>2021-11-25T09:51:29Z</time>
      </trkpt>
      <trkpt lat="47.560497" lon="1.8405124">
        <ele>146.0</ele>
        <time>2021-11-25T09:51:30Z</time>
      </trkpt>
      <trkpt lat="47.560482" lon="1.8405243">
        <ele>146.0</ele>
        <time>2021-11-25T09:51:31Z</time>
      </trkpt>
      <trkpt lat="47.560474" lon="1.8405362">
        <ele>146.0</ele>
        <time>2021-11-25T09:51:32Z</time>
      </trkpt>
      <trkpt lat="47.560463" lon="1.8405408">
        <ele>146.0</ele>
        <time>2021-11-25T09:51:33Z</time>
      </trkpt>
      <trkpt lat="47.56045" lon="1.8405402">
        <ele>146.0</ele>
        <time>2021-11-25T09:51:34Z</time>
      </trkpt>
      <trkpt lat="47.56044" lon="1.8405489">
        <ele>146.0</ele>
        <time>2021-11-25T09:51:35Z</time>
      </trkpt>
      <trkpt lat="47.560425" lon="1.8405554">
        <ele>147.0</ele>
        <time>2021-11-25T09:51:36Z</time>
      </trkpt>
      <trkpt lat="47.560413" lon="1.8405585">
        <ele>147.0</ele>
        <time>2021-11-25T09:51:37Z</time>
      </trkpt>
      <trkpt lat="47.560402" lon="1.8405662">
        <ele>147.0</ele>
        <time>2021-11-25T09:51:38Z</time>
      </trkpt>
      <trkpt lat="47.56039" lon="1.8405728">
        <ele>147.0</ele>
        <time>2021-11-25T09:51:39Z</time>
      </trkpt>
      <trkpt lat="47.56038" lon="1.8405813">
        <ele>147.0</ele>
        <time>2021-11-25T09:51:40Z</time>
      </trkpt>
      <trkpt lat="47.56037" lon="1.8405918">
        <ele>147.0</ele>
        <time>2021-11-25T09:51:41Z</time>
      </trkpt>
      <trkpt lat="47.560364" lon="1.840598">
        <ele>147.0</ele>
        <time>2021-11-25T09:51:42Z</time>
      </trkpt>
      <trkpt lat="47.560352" lon="1.8406105">
        <ele>148.0</ele>
        <time>2021-11-25T09:51:43Z</time>
      </trkpt>
      <trkpt lat="47.56034" lon="1.8406196">
        <ele>148.0</ele>
        <time>2021-11-25T09:51:44Z</time>
      </trkpt>
      <trkpt lat="47.56033" lon="1.8406242">
        <ele>148.0</ele>
        <time>2021-11-25T09:51:45Z</time>
      </trkpt>
      <trkpt lat="47.560318" lon="1.8406249">
        <ele>148.0</ele>
        <time>2021-11-25T09:51:46Z</time>
      </trkpt>
      <trkpt lat="47.560307" lon="1.8406216">
        <ele>148.0</ele>
        <time>2021-11-25T09:51:47Z</time>
      </trkpt>
      <trkpt lat="47.560295" lon="1.8406205">
        <ele>148.0</ele>
        <time>2021-11-25T09:51:48Z</time>
      </trkpt>
      <trkpt lat="47.560284" lon="1.8406258">
        <ele>149.0</ele>
        <time>2021-11-25T09:51:49Z</time>
      </trkpt>
      <trkpt lat="47.560272" lon="1.8406327">
        <ele>149.0</ele>
        <time>2021-11-25T09:51:50Z</time>
      </trkpt>
      <trkpt lat="47.560265" lon="1.8406413">
        <ele>149.0</ele>
        <time>2021-11-25T09:51:51Z</time>
      </trkpt>
      <trkpt lat="47.560257" lon="1.8406467">
        <ele>149.0</ele>
        <time>2021-11-25T09:51:52Z</time>
      </trkpt>
      <trkpt lat="47.560246" lon="1.8406562">
        <ele>149.0</ele>
        <time>2021-11-25T09:51:53Z</time>
      </trkpt>
      <trkpt lat="47.560234" lon="1.8406677">
        <ele>149.0</ele>
        <time>2021-11-25T09:51:54Z</time>
      </trkpt>
      <trkpt lat="47.560226" lon="1.8406739">
        <ele>149.0</ele>
        <time>2021-11-25T09:51:55Z</time>
      </trkpt>
      <trkpt lat="47.56022" lon="1.8406792">
        <ele>149.0</ele>
        <time>2021-11-25T09:51:56Z</time>
      </trkpt>
      <trkpt lat="47.560207" lon="1.8406861">
        <ele>149.0</ele>
        <time>2021-11-25T09:51:57Z</time>
      </trkpt>
      <trkpt lat="47.560196" lon="1.8406905">
        <ele>149.0</ele>
        <time>2021-11-25T09:51:58Z</time>
      </trkpt>
      <trkpt lat="47.560184" lon="1.8407003">
        <ele>149.0</ele>
        <time>2021-11-25T09:51:59Z</time>
      </trkpt>
      <trkpt lat="47.560173" lon="1.8407087">
        <ele>149.0</ele>
        <time>2021-11-25T09:52:00Z</time>
      </trkpt>
      <trkpt lat="47.56016" lon="1.8407143">
        <ele>149.0</ele>
        <time>2021-11-25T09:52:01Z</time>
      </trkpt>
      <trkpt lat="47.560146" lon="1.8407263">
        <ele>149.0</ele>
        <time>2021-11-25T09:52:02Z</time>
      </trkpt>
      <trkpt lat="47.560127" lon="1.8407339">
        <ele>149.0</ele>
        <time>2021-11-25T09:52:03Z</time>
      </trkpt>
      <trkpt lat="47.560112" lon="1.8407438">
        <ele>149.0</ele>
        <time>2021-11-25T09:52:04Z</time>
      </trkpt>
      <trkpt lat="47.5601" lon="1.8407478">
        <ele>149.0</ele>
        <time>2021-11-25T09:52:05Z</time>
      </trkpt>
      <trkpt lat="47.56009" lon="1.840753">
        <ele>148.0</ele>
        <time>2021-11-25T09:52:06Z</time>
      </trkpt>
      <trkpt lat="47.560078" lon="1.8407618">
        <ele>148.0</ele>
        <time>2021-11-25T09:52:07Z</time>
      </trkpt>
      <trkpt lat="47.560066" lon="1.8407673">
        <ele>148.0</ele>
        <time>2021-11-25T09:52:08Z</time>
      </trkpt>
      <trkpt lat="47.560047" lon="1.8407716">
        <ele>148.0</ele>
        <time>2021-11-25T09:52:09Z</time>
      </trkpt>
      <trkpt lat="47.56003" lon="1.8407818">
        <ele>149.0</ele>
        <time>2021-11-25T09:52:10Z</time>
      </trkpt>
      <trkpt lat="47.56002" lon="1.840791">
        <ele>149.0</ele>
        <time>2021-11-25T09:52:11Z</time>
      </trkpt>
      <trkpt lat="47.560013" lon="1.8407953">
        <ele>149.0</ele>
        <time>2021-11-25T09:52:12Z</time>
      </trkpt>
      <trkpt lat="47.56" lon="1.8408015">
        <ele>149.0</ele>
        <time>2021-11-25T09:52:13Z</time>
      </trkpt>
      <trkpt lat="47.559986" lon="1.8408061">
        <ele>149.0</ele>
        <time>2021-11-25T09:52:14Z</time>
      </trkpt>
      <trkpt lat="47.55997" lon="1.8408157">
        <ele>149.0</ele>
        <time>2021-11-25T09:52:15Z</time>
      </trkpt>
      <trkpt lat="47.55996" lon="1.8408219">
        <ele>149.0</ele>
        <time>2021-11-25T09:52:16Z</time>
      </trkpt>
      <trkpt lat="47.559948" lon="1.8408282">
        <ele>149.0</ele>
        <time>2021-11-25T09:52:17Z</time>
      </trkpt>
      <trkpt lat="47.55994" lon="1.840835">
        <ele>149.0</ele>
        <time>2021-11-25T09:52:18Z</time>
      </trkpt>
      <trkpt lat="47.55993" lon="1.8408425">
        <ele>149.0</ele>
        <time>2021-11-25T09:52:19Z</time>
      </trkpt>
      <trkpt lat="47.55992" lon="1.8408494">
        <ele>149.0</ele>
        <time>2021-11-25T09:52:20Z</time>
      </trkpt>
      <trkpt lat="47.55991" lon="1.8408573">
        <ele>149.0</ele>
        <time>2021-11-25T09:52:21Z</time>
      </trkpt>
      <trkpt lat="47.559895" lon="1.8408667">
        <ele>149.0</ele>
        <time>2021-11-25T09:52:22Z</time>
      </trkpt>
      <trkpt lat="47.559883" lon="1.8408734">
        <ele>148.0</ele>
        <time>2021-11-25T09:52:23Z</time>
      </trkpt>
      <trkpt lat="47.55987" lon="1.840877">
        <ele>148.0</ele>
        <time>2021-11-25T09:52:24Z</time>
      </trkpt>
      <trkpt lat="47.559856" lon="1.8408883">
        <ele>148.0</ele>
        <time>2021-11-25T09:52:25Z</time>
      </trkpt>
      <trkpt lat="47.559845" lon="1.8408955">
        <ele>147.0</ele>
        <time>2021-11-25T09:52:26Z</time>
      </trkpt>
      <trkpt lat="47.559834" lon="1.8408983">
        <ele>147.0</ele>
        <time>2021-11-25T09:52:27Z</time>
      </trkpt>
      <trkpt lat="47.559822" lon="1.8408998">
        <ele>147.0</ele>
        <time>2021-11-25T09:52:28Z</time>
      </trkpt>
      <trkpt lat="47.559807" lon="1.8409033">
        <ele>146.0</ele>
        <time>2021-11-25T09:52:29Z</time>
      </trkpt>
      <trkpt lat="47.5598" lon="1.8409055">
        <ele>146.0</ele>
        <time>2021-11-25T09:52:30Z</time>
      </trkpt>
      <trkpt lat="47.55979" lon="1.8409114">
        <ele>146.0</ele>
        <time>2021-11-25T09:52:31Z</time>
      </trkpt>
      <trkpt lat="47.55978" lon="1.8409159">
        <ele>147.0</ele>
        <time>2021-11-25T09:52:32Z</time>
      </trkpt>
      <trkpt lat="47.55977" lon="1.8409219">
        <ele>146.0</ele>
        <time>2021-11-25T09:52:33Z</time>
      </trkpt>
      <trkpt lat="47.55976" lon="1.8409259">
        <ele>146.0</ele>
        <time>2021-11-25T09:52:34Z</time>
      </trkpt>
      <trkpt lat="47.559746" lon="1.8409324">
        <ele>147.0</ele>
        <time>2021-11-25T09:52:35Z</time>
      </trkpt>
      <trkpt lat="47.559734" lon="1.8409338">
        <ele>147.0</ele>
        <time>2021-11-25T09:52:36Z</time>
      </trkpt>
      <trkpt lat="47.559723" lon="1.8409326">
        <ele>147.0</ele>
        <time>2021-11-25T09:52:37Z</time>
      </trkpt>
      <trkpt lat="47.559708" lon="1.8409382">
        <ele>147.0</ele>
        <time>2021-11-25T09:52:38Z</time>
      </trkpt>
      <trkpt lat="47.559692" lon="1.840944">
        <ele>146.0</ele>
        <time>2021-11-25T09:52:39Z</time>
      </trkpt>
      <trkpt lat="47.55968" lon="1.84096">
        <ele>147.0</ele>
        <time>2021-11-25T09:52:40Z</time>
      </trkpt>
      <trkpt lat="47.559673" lon="1.8409704">
        <ele>147.0</ele>
        <time>2021-11-25T09:52:41Z</time>
      </trkpt>
      <trkpt lat="47.559666" lon="1.8409845">
        <ele>147.0</ele>
        <time>2021-11-25T09:52:42Z</time>
      </trkpt>
      <trkpt lat="47.559654" lon="1.841004">
        <ele>147.0</ele>
        <time>2021-11-25T09:52:43Z</time>
      </trkpt>
      <trkpt lat="47.55964" lon="1.8410145">
        <ele>146.0</ele>
        <time>2021-11-25T09:52:44Z</time>
      </trkpt>
      <trkpt lat="47.559628" lon="1.8410196">
        <ele>146.0</ele>
        <time>2021-11-25T09:52:45Z</time>
      </trkpt>
      <trkpt lat="47.55962" lon="1.8410312">
        <ele>146.0</ele>
        <time>2021-11-25T09:52:46Z</time>
      </trkpt>
      <trkpt lat="47.559612" lon="1.8410429">
        <ele>146.0</ele>
        <time>2021-11-25T09:52:47Z</time>
      </trkpt>
      <trkpt lat="47.5596" lon="1.8410535">
        <ele>146.0</ele>
        <time>2021-11-25T09:52:48Z</time>
      </trkpt>
      <trkpt lat="47.559593" lon="1.8410673">
        <ele>145.0</ele>
        <time>2021-11-25T09:52:49Z</time>
      </trkpt>
      <trkpt lat="47.55958" lon="1.8410715">
        <ele>145.0</ele>
        <time>2021-11-25T09:52:50Z</time>
      </trkpt>
      <trkpt lat="47.55957" lon="1.8410763">
        <ele>145.0</ele>
        <time>2021-11-25T09:52:51Z</time>
      </trkpt>
      <trkpt lat="47.55956" lon="1.8410755">
        <ele>145.0</ele>
        <time>2021-11-25T09:52:52Z</time>
      </trkpt>
      <trkpt lat="47.559544" lon="1.8410853">
        <ele>145.0</ele>
        <time>2021-11-25T09:52:54Z</time>
      </trkpt>
      <trkpt lat="47.55953" lon="1.8410923">
        <ele>145.0</ele>
        <time>2021-11-25T09:52:54Z</time>
      </trkpt>
      <trkpt lat="47.55952" lon="1.8411063">
        <ele>145.0</ele>
        <time>2021-11-25T09:52:56Z</time>
      </trkpt>
      <trkpt lat="47.55951" lon="1.8411188">
        <ele>145.0</ele>
        <time>2021-11-25T09:52:57Z</time>
      </trkpt>
      <trkpt lat="47.559498" lon="1.8411282">
        <ele>144.0</ele>
        <time>2021-11-25T09:52:58Z</time>
      </trkpt>
      <trkpt lat="47.559486" lon="1.8411388">
        <ele>145.0</ele>
        <time>2021-11-25T09:52:59Z</time>
      </trkpt>
      <trkpt lat="47.559475" lon="1.8411466">
        <ele>145.0</ele>
        <time>2021-11-25T09:53:00Z</time>
      </trkpt>
      <trkpt lat="47.55946" lon="1.8411577">
        <ele>146.0</ele>
        <time>2021-11-25T09:53:01Z</time>
      </trkpt>
      <trkpt lat="47.55945" lon="1.8411641">
        <ele>146.0</ele>
        <time>2021-11-25T09:53:02Z</time>
      </trkpt>
      <trkpt lat="47.559437" lon="1.8411707">
        <ele>146.0</ele>
        <time>2021-11-25T09:53:03Z</time>
      </trkpt>
      <trkpt lat="47.559425" lon="1.8411711">
        <ele>146.0</ele>
        <time>2021-11-25T09:53:04Z</time>
      </trkpt>
      <trkpt lat="47.559418" lon="1.8411778">
        <ele>146.0</ele>
        <time>2021-11-25T09:53:05Z</time>
      </trkpt>
      <trkpt lat="47.55941" lon="1.841185">
        <ele>147.0</ele>
        <time>2021-11-25T09:53:06Z</time>
      </trkpt>
      <trkpt lat="47.5594" lon="1.8411907">
        <ele>147.0</ele>
        <time>2021-11-25T09:53:07Z</time>
      </trkpt>
      <trkpt lat="47.559387" lon="1.8411919">
        <ele>147.0</ele>
        <time>2021-11-25T09:53:08Z</time>
      </trkpt>
      <trkpt lat="47.559383" lon="1.8411869">
        <ele>147.0</ele>
        <time>2021-11-25T09:53:09Z</time>
      </trkpt>
      <trkpt lat="47.559376" lon="1.8411822">
        <ele>147.0</ele>
        <time>2021-11-25T09:53:10Z</time>
      </trkpt>
      <trkpt lat="47.559364" lon="1.8411833">
        <ele>147.0</ele>
        <time>2021-11-25T09:53:11Z</time>
      </trkpt>
      <trkpt lat="47.559357" lon="1.8411876">
        <ele>147.0</ele>
        <time>2021-11-25T09:53:12Z</time>
      </trkpt>
      <trkpt lat="47.559345" lon="1.8411926">
        <ele>147.0</ele>
        <time>2021-11-25T09:53:13Z</time>
      </trkpt>
      <trkpt lat="47.55933" lon="1.8412055">
        <ele>147.0</ele>
        <time>2021-11-25T09:53:14Z</time>
      </trkpt>
      <trkpt lat="47.55932" lon="1.8412089">
        <ele>146.0</ele>
        <time>2021-11-25T09:53:15Z</time>
      </trkpt>
      <trkpt lat="47.559315" lon="1.8412106">
        <ele>147.0</ele>
        <time>2021-11-25T09:53:16Z</time>
      </trkpt>
      <trkpt lat="47.559303" lon="1.8412132">
        <ele>147.0</ele>
        <time>2021-11-25T09:53:17Z</time>
      </trkpt>
      <trkpt lat="47.559296" lon="1.8412182">
        <ele>147.0</ele>
        <time>2021-11-25T09:53:18Z</time>
      </trkpt>
      <trkpt lat="47.559284" lon="1.8412238">
        <ele>146.0</ele>
        <time>2021-11-25T09:53:19Z</time>
      </trkpt>
      <trkpt lat="47.559273" lon="1.8412297">
        <ele>146.0</ele>
        <time>2021-11-25T09:53:20Z</time>
      </trkpt>
      <trkpt lat="47.55926" lon="1.8412353">
        <ele>146.0</ele>
        <time>2021-11-25T09:53:21Z</time>
      </trkpt>
      <trkpt lat="47.559254" lon="1.8412404">
        <ele>146.0</ele>
        <time>2021-11-25T09:53:22Z</time>
      </trkpt>
      <trkpt lat="47.559242" lon="1.841244">
        <ele>146.0</ele>
        <time>2021-11-25T09:53:23Z</time>
      </trkpt>
      <trkpt lat="47.55923" lon="1.8412522">
        <ele>145.0</ele>
        <time>2021-11-25T09:53:24Z</time>
      </trkpt>
      <trkpt lat="47.559216" lon="1.8412638">
        <ele>145.0</ele>
        <time>2021-11-25T09:53:25Z</time>
      </trkpt>
      <trkpt lat="47.559204" lon="1.8412731">
        <ele>145.0</ele>
        <time>2021-11-25T09:53:26Z</time>
      </trkpt>
      <trkpt lat="47.55919" lon="1.8412875">
        <ele>145.0</ele>
        <time>2021-11-25T09:53:27Z</time>
      </trkpt>
      <trkpt lat="47.559177" lon="1.841299">
        <ele>145.0</ele>
        <time>2021-11-25T09:53:28Z</time>
      </trkpt>
      <trkpt lat="47.559162" lon="1.841309">
        <ele>145.0</ele>
        <time>2021-11-25T09:53:29Z</time>
      </trkpt>
      <trkpt lat="47.559147" lon="1.8413244">
        <ele>145.0</ele>
        <time>2021-11-25T09:53:30Z</time>
      </trkpt>
      <trkpt lat="47.55913" lon="1.8413361">
        <ele>145.0</ele>
        <time>2021-11-25T09:53:31Z</time>
      </trkpt>
      <trkpt lat="47.55912" lon="1.841346">
        <ele>145.0</ele>
        <time>2021-11-25T09:53:32Z</time>
      </trkpt>
      <trkpt lat="47.55911" lon="1.8413533">
        <ele>144.0</ele>
        <time>2021-11-25T09:53:33Z</time>
      </trkpt>
      <trkpt lat="47.559097" lon="1.8413646">
        <ele>144.0</ele>
        <time>2021-11-25T09:53:34Z</time>
      </trkpt>
      <trkpt lat="47.559082" lon="1.8413708">
        <ele>145.0</ele>
        <time>2021-11-25T09:53:35Z</time>
      </trkpt>
      <trkpt lat="47.55907" lon="1.8413745">
        <ele>145.0</ele>
        <time>2021-11-25T09:53:36Z</time>
      </trkpt>
      <trkpt lat="47.55906" lon="1.8413789">
        <ele>145.0</ele>
        <time>2021-11-25T09:53:37Z</time>
      </trkpt>
      <trkpt lat="47.55905" lon="1.8413831">
        <ele>145.0</ele>
        <time>2021-11-25T09:53:38Z</time>
      </trkpt>
      <trkpt lat="47.55904" lon="1.8413835">
        <ele>145.0</ele>
        <time>2021-11-25T09:53:39Z</time>
      </trkpt>
      <trkpt lat="47.55903" lon="1.8413837">
        <ele>145.0</ele>
        <time>2021-11-25T09:53:40Z</time>
      </trkpt>
      <trkpt lat="47.55902" lon="1.8413843">
        <ele>145.0</ele>
        <time>2021-11-25T09:53:41Z</time>
      </trkpt>
      <trkpt lat="47.559006" lon="1.8413876">
        <ele>144.0</ele>
        <time>2021-11-25T09:53:42Z</time>
      </trkpt>
      <trkpt lat="47.558994" lon="1.8413872">
        <ele>145.0</ele>
        <time>2021-11-25T09:53:43Z</time>
      </trkpt>
      <trkpt lat="47.55898" lon="1.8413913">
        <ele>145.0</ele>
        <time>2021-11-25T09:53:44Z</time>
      </trkpt>
      <trkpt lat="47.558964" lon="1.841397">
        <ele>145.0</ele>
        <time>2021-11-25T09:53:45Z</time>
      </trkpt>
      <trkpt lat="47.558956" lon="1.8414013">
        <ele>146.0</ele>
        <time>2021-11-25T09:53:46Z</time>
      </trkpt>
      <trkpt lat="47.55894" lon="1.8414036">
        <ele>146.0</ele>
        <time>2021-11-25T09:53:47Z</time>
      </trkpt>
      <trkpt lat="47.558937" lon="1.8414066">
        <ele>146.0</ele>
        <time>2021-11-25T09:53:48Z</time>
      </trkpt>
      <trkpt lat="47.55893" lon="1.8414065">
        <ele>146.0</ele>
        <time>2021-11-25T09:53:49Z</time>
      </trkpt>
      <trkpt lat="47.55892" lon="1.8414111">
        <ele>146.0</ele>
        <time>2021-11-25T09:53:50Z</time>
      </trkpt>
      <trkpt lat="47.55891" lon="1.841417">
        <ele>146.0</ele>
        <time>2021-11-25T09:53:51Z</time>
      </trkpt>
      <trkpt lat="47.5589" lon="1.8414183">
        <ele>146.0</ele>
        <time>2021-11-25T09:53:52Z</time>
      </trkpt>
      <trkpt lat="47.558884" lon="1.8414233">
        <ele>146.0</ele>
        <time>2021-11-25T09:53:53Z</time>
      </trkpt>
      <trkpt lat="47.558876" lon="1.8414323">
        <ele>146.0</ele>
        <time>2021-11-25T09:53:54Z</time>
      </trkpt>
      <trkpt lat="47.558865" lon="1.8414358">
        <ele>146.0</ele>
        <time>2021-11-25T09:53:55Z</time>
      </trkpt>
      <trkpt lat="47.55886" lon="1.8414409">
        <ele>145.0</ele>
        <time>2021-11-25T09:53:56Z</time>
      </trkpt>
      <trkpt lat="47.558853" lon="1.8414431">
        <ele>145.0</ele>
        <time>2021-11-25T09:53:57Z</time>
      </trkpt>
      <trkpt lat="47.558846" lon="1.8414518">
        <ele>145.0</ele>
        <time>2021-11-25T09:53:58Z</time>
      </trkpt>
      <trkpt lat="47.558846" lon="1.8414518">
        <ele>145.0</ele>
        <time>2021-11-25T09:53:59Z</time>
      </trkpt>
      <trkpt lat="47.55883" lon="1.8414662">
        <ele>145.0</ele>
        <time>2021-11-25T09:54:00Z</time>
      </trkpt>
      <trkpt lat="47.55882" lon="1.8414761">
        <ele>145.0</ele>
        <time>2021-11-25T09:54:01Z</time>
      </trkpt>
      <trkpt lat="47.558807" lon="1.8414862">
        <ele>145.0</ele>
        <time>2021-11-25T09:54:02Z</time>
      </trkpt>
      <trkpt lat="47.558796" lon="1.8414956">
        <ele>146.0</ele>
        <time>2021-11-25T09:54:03Z</time>
      </trkpt>
      <trkpt lat="47.558784" lon="1.8415006">
        <ele>146.0</ele>
        <time>2021-11-25T09:54:04Z</time>
      </trkpt>
      <trkpt lat="47.558777" lon="1.8415091">
        <ele>146.0</ele>
        <time>2021-11-25T09:54:05Z</time>
      </trkpt>
      <trkpt lat="47.55877" lon="1.8415204">
        <ele>146.0</ele>
        <time>2021-11-25T09:54:06Z</time>
      </trkpt>
      <trkpt lat="47.558758" lon="1.8415297">
        <ele>146.0</ele>
        <time>2021-11-25T09:54:07Z</time>
      </trkpt>
      <trkpt lat="47.55875" lon="1.8415384">
        <ele>146.0</ele>
        <time>2021-11-25T09:54:08Z</time>
      </trkpt>
      <trkpt lat="47.558743" lon="1.8415437">
        <ele>146.0</ele>
        <time>2021-11-25T09:54:09Z</time>
      </trkpt>
      <trkpt lat="47.558727" lon="1.8415518">
        <ele>147.0</ele>
        <time>2021-11-25T09:54:10Z</time>
      </trkpt>
      <trkpt lat="47.558716" lon="1.8415619">
        <ele>147.0</ele>
        <time>2021-11-25T09:54:11Z</time>
      </trkpt>
      <trkpt lat="47.558704" lon="1.8415657">
        <ele>147.0</ele>
        <time>2021-11-25T09:54:12Z</time>
      </trkpt>
      <trkpt lat="47.55869" lon="1.8415718">
        <ele>147.0</ele>
        <time>2021-11-25T09:54:13Z</time>
      </trkpt>
      <trkpt lat="47.558674" lon="1.8415815">
        <ele>147.0</ele>
        <time>2021-11-25T09:54:14Z</time>
      </trkpt>
      <trkpt lat="47.558662" lon="1.8415881">
        <ele>147.0</ele>
        <time>2021-11-25T09:54:15Z</time>
      </trkpt>
      <trkpt lat="47.55865" lon="1.8415962">
        <ele>147.0</ele>
        <time>2021-11-25T09:54:16Z</time>
      </trkpt>
      <trkpt lat="47.55864" lon="1.8415995">
        <ele>147.0</ele>
        <time>2021-11-25T09:54:17Z</time>
      </trkpt>
      <trkpt lat="47.558624" lon="1.8416063">
        <ele>146.0</ele>
        <time>2021-11-25T09:54:18Z</time>
      </trkpt>
      <trkpt lat="47.558613" lon="1.8416165">
        <ele>146.0</ele>
        <time>2021-11-25T09:54:19Z</time>
      </trkpt>
      <trkpt lat="47.5586" lon="1.8416274">
        <ele>146.0</ele>
        <time>2021-11-25T09:54:20Z</time>
      </trkpt>
      <trkpt lat="47.55859" lon="1.8416374">
        <ele>146.0</ele>
        <time>2021-11-25T09:54:21Z</time>
      </trkpt>
      <trkpt lat="47.55858" lon="1.8416419">
        <ele>146.0</ele>
        <time>2021-11-25T09:54:22Z</time>
      </trkpt>
      <trkpt lat="47.55856" lon="1.8416481">
        <ele>146.0</ele>
        <time>2021-11-25T09:54:23Z</time>
      </trkpt>
      <trkpt lat="47.558544" lon="1.8416574">
        <ele>146.0</ele>
        <time>2021-11-25T09:54:24Z</time>
      </trkpt>
      <trkpt lat="47.55853" lon="1.8416656">
        <ele>145.0</ele>
        <time>2021-11-25T09:54:25Z</time>
      </trkpt>
      <trkpt lat="47.558517" lon="1.8416743">
        <ele>145.0</ele>
        <time>2021-11-25T09:54:26Z</time>
      </trkpt>
      <trkpt lat="47.558502" lon="1.8416816">
        <ele>145.0</ele>
        <time>2021-11-25T09:54:27Z</time>
      </trkpt>
      <trkpt lat="47.55849" lon="1.8416853">
        <ele>145.0</ele>
        <time>2021-11-25T09:54:28Z</time>
      </trkpt>
      <trkpt lat="47.558475" lon="1.841693">
        <ele>145.0</ele>
        <time>2021-11-25T09:54:29Z</time>
      </trkpt>
      <trkpt lat="47.558468" lon="1.8417026">
        <ele>145.0</ele>
        <time>2021-11-25T09:54:30Z</time>
      </trkpt>
      <trkpt lat="47.558456" lon="1.8417089">
        <ele>145.0</ele>
        <time>2021-11-25T09:54:31Z</time>
      </trkpt>
      <trkpt lat="47.558445" lon="1.8417149">
        <ele>145.0</ele>
        <time>2021-11-25T09:54:32Z</time>
      </trkpt>
      <trkpt lat="47.558434" lon="1.8417203">
        <ele>145.0</ele>
        <time>2021-11-25T09:54:33Z</time>
      </trkpt>
      <trkpt lat="47.558422" lon="1.8417237">
        <ele>145.0</ele>
        <time>2021-11-25T09:54:34Z</time>
      </trkpt>
      <trkpt lat="47.558414" lon="1.8417308">
        <ele>145.0</ele>
        <time>2021-11-25T09:54:35Z</time>
      </trkpt>
      <trkpt lat="47.5584" lon="1.8417367">
        <ele>145.0</ele>
        <time>2021-11-25T09:54:36Z</time>
      </trkpt>
      <trkpt lat="47.558388" lon="1.8417444">
        <ele>145.0</ele>
        <time>2021-11-25T09:54:37Z</time>
      </trkpt>
      <trkpt lat="47.55837" lon="1.8417531">
        <ele>145.0</ele>
        <time>2021-11-25T09:54:38Z</time>
      </trkpt>
      <trkpt lat="47.558357" lon="1.841762">
        <ele>145.0</ele>
        <time>2021-11-25T09:54:39Z</time>
      </trkpt>
      <trkpt lat="47.558342" lon="1.8417692">
        <ele>145.0</ele>
        <time>2021-11-25T09:54:40Z</time>
      </trkpt>
      <trkpt lat="47.55833" lon="1.8417772">
        <ele>145.0</ele>
        <time>2021-11-25T09:54:41Z</time>
      </trkpt>
      <trkpt lat="47.55832" lon="1.8417889">
        <ele>145.0</ele>
        <time>2021-11-25T09:54:42Z</time>
      </trkpt>
      <trkpt lat="47.55831" lon="1.8418045">
        <ele>145.0</ele>
        <time>2021-11-25T09:54:43Z</time>
      </trkpt>
      <trkpt lat="47.558296" lon="1.8418127">
        <ele>145.0</ele>
        <time>2021-11-25T09:54:44Z</time>
      </trkpt>
      <trkpt lat="47.558285" lon="1.8418176">
        <ele>145.0</ele>
        <time>2021-11-25T09:54:45Z</time>
      </trkpt>
      <trkpt lat="47.558273" lon="1.8418165">
        <ele>146.0</ele>
        <time>2021-11-25T09:54:46Z</time>
      </trkpt>
      <trkpt lat="47.558258" lon="1.8418233">
        <ele>146.0</ele>
        <time>2021-11-25T09:54:47Z</time>
      </trkpt>
      <trkpt lat="47.558243" lon="1.8418274">
        <ele>146.0</ele>
        <time>2021-11-25T09:54:48Z</time>
      </trkpt>
      <trkpt lat="47.558228" lon="1.8418344">
        <ele>146.0</ele>
        <time>2021-11-25T09:54:49Z</time>
      </trkpt>
      <trkpt lat="47.558212" lon="1.8418448">
        <ele>147.0</ele>
        <time>2021-11-25T09:54:50Z</time>
      </trkpt>
      <trkpt lat="47.558197" lon="1.8418564">
        <ele>146.0</ele>
        <time>2021-11-25T09:54:51Z</time>
      </trkpt>
      <trkpt lat="47.558186" lon="1.841865">
        <ele>146.0</ele>
        <time>2021-11-25T09:54:52Z</time>
      </trkpt>
      <trkpt lat="47.558174" lon="1.8418751">
        <ele>146.0</ele>
        <time>2021-11-25T09:54:53Z</time>
      </trkpt>
      <trkpt lat="47.558167" lon="1.8418828">
        <ele>146.0</ele>
        <time>2021-11-25T09:54:54Z</time>
      </trkpt>
      <trkpt lat="47.558155" lon="1.8418912">
        <ele>147.0</ele>
        <time>2021-11-25T09:54:55Z</time>
      </trkpt>
      <trkpt lat="47.558136" lon="1.8418963">
        <ele>147.0</ele>
        <time>2021-11-25T09:54:56Z</time>
      </trkpt>
      <trkpt lat="47.558125" lon="1.8419003">
        <ele>147.0</ele>
        <time>2021-11-25T09:54:57Z</time>
      </trkpt>
      <trkpt lat="47.55811" lon="1.8418993">
        <ele>147.0</ele>
        <time>2021-11-25T09:54:58Z</time>
      </trkpt>
      <trkpt lat="47.558098" lon="1.841897">
        <ele>147.0</ele>
        <time>2021-11-25T09:54:59Z</time>
      </trkpt>
      <trkpt lat="47.558086" lon="1.8419021">
        <ele>147.0</ele>
        <time>2021-11-25T09:55:00Z</time>
      </trkpt>
      <trkpt lat="47.558075" lon="1.8419104">
        <ele>147.0</ele>
        <time>2021-11-25T09:55:01Z</time>
      </trkpt>
      <trkpt lat="47.558064" lon="1.8419167">
        <ele>147.0</ele>
        <time>2021-11-25T09:55:02Z</time>
      </trkpt>
      <trkpt lat="47.558052" lon="1.8419219">
        <ele>147.0</ele>
        <time>2021-11-25T09:55:03Z</time>
      </trkpt>
      <trkpt lat="47.55804" lon="1.8419267">
        <ele>148.0</ele>
        <time>2021-11-25T09:55:04Z</time>
      </trkpt>
      <trkpt lat="47.558025" lon="1.8419349">
        <ele>148.0</ele>
        <time>2021-11-25T09:55:05Z</time>
      </trkpt>
      <trkpt lat="47.558014" lon="1.8419424">
        <ele>148.0</ele>
        <time>2021-11-25T09:55:06Z</time>
      </trkpt>
      <trkpt lat="47.558002" lon="1.8419529">
        <ele>147.0</ele>
        <time>2021-11-25T09:55:07Z</time>
      </trkpt>
      <trkpt lat="47.55799" lon="1.841962">
        <ele>147.0</ele>
        <time>2021-11-25T09:55:08Z</time>
      </trkpt>
      <trkpt lat="47.55798" lon="1.8419676">
        <ele>147.0</ele>
        <time>2021-11-25T09:55:09Z</time>
      </trkpt>
      <trkpt lat="47.55797" lon="1.8419756">
        <ele>146.0</ele>
        <time>2021-11-25T09:55:10Z</time>
      </trkpt>
      <trkpt lat="47.557957" lon="1.8419795">
        <ele>146.0</ele>
        <time>2021-11-25T09:55:11Z</time>
      </trkpt>
      <trkpt lat="47.557945" lon="1.8419815">
        <ele>146.0</ele>
        <time>2021-11-25T09:55:12Z</time>
      </trkpt>
      <trkpt lat="47.557934" lon="1.8419855">
        <ele>146.0</ele>
        <time>2021-11-25T09:55:13Z</time>
      </trkpt>
      <trkpt lat="47.557922" lon="1.8419905">
        <ele>145.0</ele>
        <time>2021-11-25T09:55:14Z</time>
      </trkpt>
      <trkpt lat="47.557915" lon="1.8419917">
        <ele>145.0</ele>
        <time>2021-11-25T09:55:15Z</time>
      </trkpt>
      <trkpt lat="47.557903" lon="1.8419973">
        <ele>146.0</ele>
        <time>2021-11-25T09:55:16Z</time>
      </trkpt>
      <trkpt lat="47.557888" lon="1.8420051">
        <ele>146.0</ele>
        <time>2021-11-25T09:55:17Z</time>
      </trkpt>
      <trkpt lat="47.557877" lon="1.8420129">
        <ele>147.0</ele>
        <time>2021-11-25T09:55:18Z</time>
      </trkpt>
      <trkpt lat="47.55787" lon="1.8420274">
        <ele>147.0</ele>
        <time>2021-11-25T09:55:19Z</time>
      </trkpt>
      <trkpt lat="47.557858" lon="1.8420348">
        <ele>147.0</ele>
        <time>2021-11-25T09:55:20Z</time>
      </trkpt>
      <trkpt lat="47.557846" lon="1.8420434">
        <ele>148.0</ele>
        <time>2021-11-25T09:55:21Z</time>
      </trkpt>
      <trkpt lat="47.557835" lon="1.842047">
        <ele>148.0</ele>
        <time>2021-11-25T09:55:22Z</time>
      </trkpt>
      <trkpt lat="47.557823" lon="1.8420527">
        <ele>148.0</ele>
        <time>2021-11-25T09:55:23Z</time>
      </trkpt>
      <trkpt lat="47.55781" lon="1.842059">
        <ele>149.0</ele>
        <time>2021-11-25T09:55:24Z</time>
      </trkpt>
      <trkpt lat="47.557796" lon="1.8420672">
        <ele>149.0</ele>
        <time>2021-11-25T09:55:25Z</time>
      </trkpt>
      <trkpt lat="47.557785" lon="1.8420736">
        <ele>150.0</ele>
        <time>2021-11-25T09:55:26Z</time>
      </trkpt>
      <trkpt lat="47.557774" lon="1.8420824">
        <ele>150.0</ele>
        <time>2021-11-25T09:55:27Z</time>
      </trkpt>
      <trkpt lat="47.557762" lon="1.8420907">
        <ele>150.0</ele>
        <time>2021-11-25T09:55:28Z</time>
      </trkpt>
      <trkpt lat="47.557747" lon="1.8421023">
        <ele>150.0</ele>
        <time>2021-11-25T09:55:29Z</time>
      </trkpt>
      <trkpt lat="47.55773" lon="1.8421078">
        <ele>150.0</ele>
        <time>2021-11-25T09:55:30Z</time>
      </trkpt>
      <trkpt lat="47.55772" lon="1.8421098">
        <ele>150.0</ele>
        <time>2021-11-25T09:55:31Z</time>
      </trkpt>
      <trkpt lat="47.55771" lon="1.8421156">
        <ele>150.0</ele>
        <time>2021-11-25T09:55:32Z</time>
      </trkpt>
      <trkpt lat="47.557693" lon="1.8421168">
        <ele>150.0</ele>
        <time>2021-11-25T09:55:33Z</time>
      </trkpt>
      <trkpt lat="47.557682" lon="1.8421234">
        <ele>151.0</ele>
        <time>2021-11-25T09:55:34Z</time>
      </trkpt>
      <trkpt lat="47.55767" lon="1.8421329">
        <ele>151.0</ele>
        <time>2021-11-25T09:55:35Z</time>
      </trkpt>
      <trkpt lat="47.557655" lon="1.8421447">
        <ele>152.0</ele>
        <time>2021-11-25T09:55:36Z</time>
      </trkpt>
      <trkpt lat="47.55764" lon="1.8421551">
        <ele>152.0</ele>
        <time>2021-11-25T09:55:37Z</time>
      </trkpt>
      <trkpt lat="47.557625" lon="1.8421631">
        <ele>153.0</ele>
        <time>2021-11-25T09:55:38Z</time>
      </trkpt>
      <trkpt lat="47.55761" lon="1.8421695">
        <ele>153.0</ele>
        <time>2021-11-25T09:55:39Z</time>
      </trkpt>
      <trkpt lat="47.5576" lon="1.8421723">
        <ele>153.0</ele>
        <time>2021-11-25T09:55:40Z</time>
      </trkpt>
      <trkpt lat="47.557583" lon="1.8421772">
        <ele>153.0</ele>
        <time>2021-11-25T09:55:41Z</time>
      </trkpt>
      <trkpt lat="47.557568" lon="1.8421834">
        <ele>153.0</ele>
        <time>2021-11-25T09:55:42Z</time>
      </trkpt>
      <trkpt lat="47.55755" lon="1.8421893">
        <ele>153.0</ele>
        <time>2021-11-25T09:55:43Z</time>
      </trkpt>
      <trkpt lat="47.557533" lon="1.8421949">
        <ele>153.0</ele>
        <time>2021-11-25T09:55:44Z</time>
      </trkpt>
      <trkpt lat="47.55752" lon="1.8422023">
        <ele>153.0</ele>
        <time>2021-11-25T09:55:45Z</time>
      </trkpt>
      <trkpt lat="47.557507" lon="1.8422048">
        <ele>153.0</ele>
        <time>2021-11-25T09:55:46Z</time>
      </trkpt>
      <trkpt lat="47.557495" lon="1.8422116">
        <ele>153.0</ele>
        <time>2021-11-25T09:55:47Z</time>
      </trkpt>
      <trkpt lat="47.557487" lon="1.8422209">
        <ele>153.0</ele>
        <time>2021-11-25T09:55:48Z</time>
      </trkpt>
      <trkpt lat="47.557472" lon="1.8422291">
        <ele>153.0</ele>
        <time>2021-11-25T09:55:49Z</time>
      </trkpt>
      <trkpt lat="47.557457" lon="1.8422339">
        <ele>152.0</ele>
        <time>2021-11-25T09:55:50Z</time>
      </trkpt>
      <trkpt lat="47.557446" lon="1.842244">
        <ele>152.0</ele>
        <time>2021-11-25T09:55:51Z</time>
      </trkpt>
      <trkpt lat="47.557434" lon="1.842249">
        <ele>152.0</ele>
        <time>2021-11-25T09:55:52Z</time>
      </trkpt>
      <trkpt lat="47.557423" lon="1.8422543">
        <ele>153.0</ele>
        <time>2021-11-25T09:55:53Z</time>
      </trkpt>
      <trkpt lat="47.55741" lon="1.842256">
        <ele>153.0</ele>
        <time>2021-11-25T09:55:54Z</time>
      </trkpt>
      <trkpt lat="47.557396" lon="1.8422604">
        <ele>154.0</ele>
        <time>2021-11-25T09:55:55Z</time>
      </trkpt>
      <trkpt lat="47.557384" lon="1.842269">
        <ele>154.0</ele>
        <time>2021-11-25T09:55:56Z</time>
      </trkpt>
      <trkpt lat="47.557373" lon="1.8422763">
        <ele>153.0</ele>
        <time>2021-11-25T09:55:57Z</time>
      </trkpt>
      <trkpt lat="47.557358" lon="1.8422819">
        <ele>153.0</ele>
        <time>2021-11-25T09:55:58Z</time>
      </trkpt>
      <trkpt lat="47.557346" lon="1.8422867">
        <ele>153.0</ele>
        <time>2021-11-25T09:55:59Z</time>
      </trkpt>
      <trkpt lat="47.557343" lon="1.8422946">
        <ele>153.0</ele>
        <time>2021-11-25T09:56:00Z</time>
      </trkpt>
      <trkpt lat="47.55733" lon="1.8422991">
        <ele>153.0</ele>
        <time>2021-11-25T09:56:01Z</time>
      </trkpt>
      <trkpt lat="47.557316" lon="1.8423046">
        <ele>153.0</ele>
        <time>2021-11-25T09:56:02Z</time>
      </trkpt>
      <trkpt lat="47.557304" lon="1.8423096">
        <ele>153.0</ele>
        <time>2021-11-25T09:56:03Z</time>
      </trkpt>
      <trkpt lat="47.557293" lon="1.842318">
        <ele>153.0</ele>
        <time>2021-11-25T09:56:04Z</time>
      </trkpt>
      <trkpt lat="47.557285" lon="1.8423251">
        <ele>153.0</ele>
        <time>2021-11-25T09:56:05Z</time>
      </trkpt>
      <trkpt lat="47.557274" lon="1.8423271">
        <ele>153.0</ele>
        <time>2021-11-25T09:56:06Z</time>
      </trkpt>
      <trkpt lat="47.557266" lon="1.8423327">
        <ele>153.0</ele>
        <time>2021-11-25T09:56:07Z</time>
      </trkpt>
      <trkpt lat="47.557255" lon="1.8423386">
        <ele>153.0</ele>
        <time>2021-11-25T09:56:08Z</time>
      </trkpt>
      <trkpt lat="47.557243" lon="1.8423463">
        <ele>154.0</ele>
        <time>2021-11-25T09:56:09Z</time>
      </trkpt>
      <trkpt lat="47.55723" lon="1.8423533">
        <ele>154.0</ele>
        <time>2021-11-25T09:56:10Z</time>
      </trkpt>
      <trkpt lat="47.55722" lon="1.8423581">
        <ele>153.0</ele>
        <time>2021-11-25T09:56:11Z</time>
      </trkpt>
      <trkpt lat="47.55721" lon="1.8423616">
        <ele>153.0</ele>
        <time>2021-11-25T09:56:12Z</time>
      </trkpt>
      <trkpt lat="47.557198" lon="1.8423638">
        <ele>153.0</ele>
        <time>2021-11-25T09:56:13Z</time>
      </trkpt>
      <trkpt lat="47.55719" lon="1.8423716">
        <ele>153.0</ele>
        <time>2021-11-25T09:56:14Z</time>
      </trkpt>
      <trkpt lat="47.55718" lon="1.842383">
        <ele>153.0</ele>
        <time>2021-11-25T09:56:15Z</time>
      </trkpt>
      <trkpt lat="47.557167" lon="1.8423911">
        <ele>153.0</ele>
        <time>2021-11-25T09:56:16Z</time>
      </trkpt>
      <trkpt lat="47.557156" lon="1.842402">
        <ele>153.0</ele>
        <time>2021-11-25T09:56:17Z</time>
      </trkpt>
      <trkpt lat="47.557144" lon="1.842407">
        <ele>153.0</ele>
        <time>2021-11-25T09:56:18Z</time>
      </trkpt>
      <trkpt lat="47.557133" lon="1.8424124">
        <ele>153.0</ele>
        <time>2021-11-25T09:56:19Z</time>
      </trkpt>
      <trkpt lat="47.557125" lon="1.8424218">
        <ele>153.0</ele>
        <time>2021-11-25T09:56:20Z</time>
      </trkpt>
      <trkpt lat="47.557114" lon="1.8424264">
        <ele>153.0</ele>
        <time>2021-11-25T09:56:21Z</time>
      </trkpt>
      <trkpt lat="47.557102" lon="1.8424293">
        <ele>153.0</ele>
        <time>2021-11-25T09:56:22Z</time>
      </trkpt>
      <trkpt lat="47.55709" lon="1.8424329">
        <ele>152.0</ele>
        <time>2021-11-25T09:56:23Z</time>
      </trkpt>
      <trkpt lat="47.55708" lon="1.8424361">
        <ele>153.0</ele>
        <time>2021-11-25T09:56:24Z</time>
      </trkpt>
      <trkpt lat="47.557068" lon="1.8424431">
        <ele>152.0</ele>
        <time>2021-11-25T09:56:25Z</time>
      </trkpt>
      <trkpt lat="47.557056" lon="1.8424563">
        <ele>152.0</ele>
        <time>2021-11-25T09:56:26Z</time>
      </trkpt>
      <trkpt lat="47.55705" lon="1.8424629">
        <ele>152.0</ele>
        <time>2021-11-25T09:56:27Z</time>
      </trkpt>
      <trkpt lat="47.557034" lon="1.8424699">
        <ele>152.0</ele>
        <time>2021-11-25T09:56:28Z</time>
      </trkpt>
      <trkpt lat="47.557026" lon="1.8424767">
        <ele>152.0</ele>
        <time>2021-11-25T09:56:29Z</time>
      </trkpt>
      <trkpt lat="47.557014" lon="1.8424895">
        <ele>152.0</ele>
        <time>2021-11-25T09:56:30Z</time>
      </trkpt>
      <trkpt lat="47.557007" lon="1.8424956">
        <ele>152.0</ele>
        <time>2021-11-25T09:56:31Z</time>
      </trkpt>
      <trkpt lat="47.556995" lon="1.8424977">
        <ele>152.0</ele>
        <time>2021-11-25T09:56:32Z</time>
      </trkpt>
      <trkpt lat="47.556984" lon="1.8425052">
        <ele>152.0</ele>
        <time>2021-11-25T09:56:33Z</time>
      </trkpt>
      <trkpt lat="47.556976" lon="1.8425082">
        <ele>152.0</ele>
        <time>2021-11-25T09:56:34Z</time>
      </trkpt>
      <trkpt lat="47.55697" lon="1.8425146">
        <ele>152.0</ele>
        <time>2021-11-25T09:56:35Z</time>
      </trkpt>
      <trkpt lat="47.556957" lon="1.8425213">
        <ele>152.0</ele>
        <time>2021-11-25T09:56:36Z</time>
      </trkpt>
      <trkpt lat="47.556946" lon="1.8425299">
        <ele>152.0</ele>
        <time>2021-11-25T09:56:37Z</time>
      </trkpt>
      <trkpt lat="47.556927" lon="1.8425406">
        <ele>152.0</ele>
        <time>2021-11-25T09:56:38Z</time>
      </trkpt>
      <trkpt lat="47.556915" lon="1.8425473">
        <ele>152.0</ele>
        <time>2021-11-25T09:56:39Z</time>
      </trkpt>
      <trkpt lat="47.556904" lon="1.8425552">
        <ele>152.0</ele>
        <time>2021-11-25T09:56:40Z</time>
      </trkpt>
      <trkpt lat="47.556892" lon="1.8425608">
        <ele>152.0</ele>
        <time>2021-11-25T09:56:41Z</time>
      </trkpt>
      <trkpt lat="47.55688" lon="1.8425652">
        <ele>152.0</ele>
        <time>2021-11-25T09:56:42Z</time>
      </trkpt>
      <trkpt lat="47.55687" lon="1.8425705">
        <ele>152.0</ele>
        <time>2021-11-25T09:56:43Z</time>
      </trkpt>
      <trkpt lat="47.556858" lon="1.8425797">
        <ele>151.0</ele>
        <time>2021-11-25T09:56:44Z</time>
      </trkpt>
      <trkpt lat="47.556847" lon="1.8425865">
        <ele>151.0</ele>
        <time>2021-11-25T09:56:45Z</time>
      </trkpt>
      <trkpt lat="47.556835" lon="1.8425885">
        <ele>152.0</ele>
        <time>2021-11-25T09:56:46Z</time>
      </trkpt>
      <trkpt lat="47.556824" lon="1.84259">
        <ele>152.0</ele>
        <time>2021-11-25T09:56:47Z</time>
      </trkpt>
      <trkpt lat="47.556816" lon="1.8425932">
        <ele>151.0</ele>
        <time>2021-11-25T09:56:48Z</time>
      </trkpt>
      <trkpt lat="47.556805" lon="1.842597">
        <ele>151.0</ele>
        <time>2021-11-25T09:56:49Z</time>
      </trkpt>
      <trkpt lat="47.556797" lon="1.8426069">
        <ele>151.0</ele>
        <time>2021-11-25T09:56:50Z</time>
      </trkpt>
      <trkpt lat="47.556786" lon="1.8426137">
        <ele>151.0</ele>
        <time>2021-11-25T09:56:51Z</time>
      </trkpt>
      <trkpt lat="47.556774" lon="1.8426194">
        <ele>150.0</ele>
        <time>2021-11-25T09:56:52Z</time>
      </trkpt>
      <trkpt lat="47.55677" lon="1.8426257">
        <ele>150.0</ele>
        <time>2021-11-25T09:56:53Z</time>
      </trkpt>
      <trkpt lat="47.556763" lon="1.8426312">
        <ele>150.0</ele>
        <time>2021-11-25T09:56:54Z</time>
      </trkpt>
      <trkpt lat="47.55675" lon="1.8426433">
        <ele>149.0</ele>
        <time>2021-11-25T09:56:55Z</time>
      </trkpt>
      <trkpt lat="47.55674" lon="1.8426508">
        <ele>148.0</ele>
        <time>2021-11-25T09:56:56Z</time>
      </trkpt>
      <trkpt lat="47.556732" lon="1.8426565">
        <ele>148.0</ele>
        <time>2021-11-25T09:56:57Z</time>
      </trkpt>
      <trkpt lat="47.55672" lon="1.8426636">
        <ele>148.0</ele>
        <time>2021-11-25T09:56:58Z</time>
      </trkpt>
      <trkpt lat="47.556713" lon="1.8426719">
        <ele>148.0</ele>
        <time>2021-11-25T09:56:59Z</time>
      </trkpt>
      <trkpt lat="47.5567" lon="1.842681">
        <ele>148.0</ele>
        <time>2021-11-25T09:57:00Z</time>
      </trkpt>
      <trkpt lat="47.556694" lon="1.8426828">
        <ele>148.0</ele>
        <time>2021-11-25T09:57:01Z</time>
      </trkpt>
      <trkpt lat="47.55668" lon="1.8426883">
        <ele>148.0</ele>
        <time>2021-11-25T09:57:02Z</time>
      </trkpt>
      <trkpt lat="47.556664" lon="1.8426946">
        <ele>148.0</ele>
        <time>2021-11-25T09:57:03Z</time>
      </trkpt>
      <trkpt lat="47.556652" lon="1.8427027">
        <ele>149.0</ele>
        <time>2021-11-25T09:57:04Z</time>
      </trkpt>
      <trkpt lat="47.556637" lon="1.8427063">
        <ele>149.0</ele>
        <time>2021-11-25T09:57:05Z</time>
      </trkpt>
      <trkpt lat="47.55662" lon="1.8427101">
        <ele>149.0</ele>
        <time>2021-11-25T09:57:06Z</time>
      </trkpt>
      <trkpt lat="47.55661" lon="1.8427119">
        <ele>149.0</ele>
        <time>2021-11-25T09:57:07Z</time>
      </trkpt>
      <trkpt lat="47.5566" lon="1.8427175">
        <ele>149.0</ele>
        <time>2021-11-25T09:57:08Z</time>
      </trkpt>
      <trkpt lat="47.556587" lon="1.8427182">
        <ele>149.0</ele>
        <time>2021-11-25T09:57:09Z</time>
      </trkpt>
      <trkpt lat="47.55658" lon="1.8427272">
        <ele>149.0</ele>
        <time>2021-11-25T09:57:10Z</time>
      </trkpt>
      <trkpt lat="47.556564" lon="1.842732">
        <ele>148.0</ele>
        <time>2021-11-25T09:57:11Z</time>
      </trkpt>
      <trkpt lat="47.556553" lon="1.8427371">
        <ele>148.0</ele>
        <time>2021-11-25T09:57:12Z</time>
      </trkpt>
      <trkpt lat="47.556545" lon="1.8427399">
        <ele>148.0</ele>
        <time>2021-11-25T09:57:13Z</time>
      </trkpt>
      <trkpt lat="47.556534" lon="1.8427455">
        <ele>147.0</ele>
        <time>2021-11-25T09:57:14Z</time>
      </trkpt>
      <trkpt lat="47.55652" lon="1.8427478">
        <ele>147.0</ele>
        <time>2021-11-25T09:57:15Z</time>
      </trkpt>
      <trkpt lat="47.556503" lon="1.8427552">
        <ele>147.0</ele>
        <time>2021-11-25T09:57:16Z</time>
      </trkpt>
      <trkpt lat="47.556484" lon="1.8427621">
        <ele>147.0</ele>
        <time>2021-11-25T09:57:17Z</time>
      </trkpt>
      <trkpt lat="47.55647" lon="1.8427731">
        <ele>147.0</ele>
        <time>2021-11-25T09:57:18Z</time>
      </trkpt>
      <trkpt lat="47.556458" lon="1.8427824">
        <ele>147.0</ele>
        <time>2021-11-25T09:57:19Z</time>
      </trkpt>
      <trkpt lat="47.556446" lon="1.8427889">
        <ele>147.0</ele>
        <time>2021-11-25T09:57:20Z</time>
      </trkpt>
      <trkpt lat="47.556435" lon="1.8427962">
        <ele>147.0</ele>
        <time>2021-11-25T09:57:21Z</time>
      </trkpt>
      <trkpt lat="47.556423" lon="1.8428075">
        <ele>147.0</ele>
        <time>2021-11-25T09:57:22Z</time>
      </trkpt>
      <trkpt lat="47.556408" lon="1.8428143">
        <ele>147.0</ele>
        <time>2021-11-25T09:57:23Z</time>
      </trkpt>
      <trkpt lat="47.556393" lon="1.8428233">
        <ele>147.0</ele>
        <time>2021-11-25T09:57:24Z</time>
      </trkpt>
      <trkpt lat="47.556377" lon="1.8428282">
        <ele>147.0</ele>
        <time>2021-11-25T09:57:25Z</time>
      </trkpt>
      <trkpt lat="47.556366" lon="1.8428341">
        <ele>147.0</ele>
        <time>2021-11-25T09:57:26Z</time>
      </trkpt>
      <trkpt lat="47.556355" lon="1.8428419">
        <ele>146.0</ele>
        <time>2021-11-25T09:57:27Z</time>
      </trkpt>
      <trkpt lat="47.556343" lon="1.8428487">
        <ele>146.0</ele>
        <time>2021-11-25T09:57:28Z</time>
      </trkpt>
      <trkpt lat="47.55633" lon="1.8428546">
        <ele>146.0</ele>
        <time>2021-11-25T09:57:29Z</time>
      </trkpt>
      <trkpt lat="47.55632" lon="1.8428624">
        <ele>146.0</ele>
        <time>2021-11-25T09:57:30Z</time>
      </trkpt>
      <trkpt lat="47.556313" lon="1.8428729">
        <ele>146.0</ele>
        <time>2021-11-25T09:57:31Z</time>
      </trkpt>
      <trkpt lat="47.5563" lon="1.8428797">
        <ele>146.0</ele>
        <time>2021-11-25T09:57:32Z</time>
      </trkpt>
      <trkpt lat="47.55629" lon="1.8428872">
        <ele>146.0</ele>
        <time>2021-11-25T09:57:33Z</time>
      </trkpt>
      <trkpt lat="47.55628" lon="1.8428962">
        <ele>145.0</ele>
        <time>2021-11-25T09:57:34Z</time>
      </trkpt>
      <trkpt lat="47.556267" lon="1.8429056">
        <ele>145.0</ele>
        <time>2021-11-25T09:57:35Z</time>
      </trkpt>
      <trkpt lat="47.556248" lon="1.8429154">
        <ele>146.0</ele>
        <time>2021-11-25T09:57:36Z</time>
      </trkpt>
      <trkpt lat="47.55624" lon="1.8429226">
        <ele>145.0</ele>
        <time>2021-11-25T09:57:37Z</time>
      </trkpt>
      <trkpt lat="47.556225" lon="1.8429263">
        <ele>145.0</ele>
        <time>2021-11-25T09:57:38Z</time>
      </trkpt>
      <trkpt lat="47.556217" lon="1.8429313">
        <ele>145.0</ele>
        <time>2021-11-25T09:57:39Z</time>
      </trkpt>
      <trkpt lat="47.556206" lon="1.8429358">
        <ele>145.0</ele>
        <time>2021-11-25T09:57:40Z</time>
      </trkpt>
      <trkpt lat="47.55619" lon="1.84294">
        <ele>145.0</ele>
        <time>2021-11-25T09:57:41Z</time>
      </trkpt>
      <trkpt lat="47.556175" lon="1.842944">
        <ele>145.0</ele>
        <time>2021-11-25T09:57:42Z</time>
      </trkpt>
      <trkpt lat="47.556164" lon="1.8429465">
        <ele>145.0</ele>
        <time>2021-11-25T09:57:43Z</time>
      </trkpt>
      <trkpt lat="47.556156" lon="1.84295">
        <ele>145.0</ele>
        <time>2021-11-25T09:57:44Z</time>
      </trkpt>
      <trkpt lat="47.55615" lon="1.8429542">
        <ele>146.0</ele>
        <time>2021-11-25T09:57:45Z</time>
      </trkpt>
      <trkpt lat="47.556137" lon="1.8429564">
        <ele>146.0</ele>
        <time>2021-11-25T09:57:46Z</time>
      </trkpt>
      <trkpt lat="47.55613" lon="1.8429606">
        <ele>146.0</ele>
        <time>2021-11-25T09:57:47Z</time>
      </trkpt>
      <trkpt lat="47.556118" lon="1.8429655">
        <ele>147.0</ele>
        <time>2021-11-25T09:57:48Z</time>
      </trkpt>
      <trkpt lat="47.55611" lon="1.8429767">
        <ele>148.0</ele>
        <time>2021-11-25T09:57:49Z</time>
      </trkpt>
      <trkpt lat="47.556095" lon="1.8429829">
        <ele>148.0</ele>
        <time>2021-11-25T09:57:50Z</time>
      </trkpt>
      <trkpt lat="47.55608" lon="1.8429914">
        <ele>148.0</ele>
        <time>2021-11-25T09:57:51Z</time>
      </trkpt>
      <trkpt lat="47.55607" lon="1.8429962">
        <ele>148.0</ele>
        <time>2021-11-25T09:57:52Z</time>
      </trkpt>
      <trkpt lat="47.55606" lon="1.8430055">
        <ele>148.0</ele>
        <time>2021-11-25T09:57:53Z</time>
      </trkpt>
      <trkpt lat="47.55605" lon="1.8430157">
        <ele>147.0</ele>
        <time>2021-11-25T09:57:54Z</time>
      </trkpt>
      <trkpt lat="47.556038" lon="1.8430195">
        <ele>148.0</ele>
        <time>2021-11-25T09:57:55Z</time>
      </trkpt>
      <trkpt lat="47.556026" lon="1.8430245">
        <ele>148.0</ele>
        <time>2021-11-25T09:57:56Z</time>
      </trkpt>
      <trkpt lat="47.556015" lon="1.8430306">
        <ele>148.0</ele>
        <time>2021-11-25T09:57:57Z</time>
      </trkpt>
      <trkpt lat="47.556" lon="1.8430351">
        <ele>148.0</ele>
        <time>2021-11-25T09:57:58Z</time>
      </trkpt>
      <trkpt lat="47.55599" lon="1.8430398">
        <ele>148.0</ele>
        <time>2021-11-25T09:57:59Z</time>
      </trkpt>
      <trkpt lat="47.555973" lon="1.8430455">
        <ele>147.0</ele>
        <time>2021-11-25T09:58:00Z</time>
      </trkpt>
      <trkpt lat="47.55596" lon="1.8430489">
        <ele>147.0</ele>
        <time>2021-11-25T09:58:01Z</time>
      </trkpt>
      <trkpt lat="47.55595" lon="1.8430552">
        <ele>147.0</ele>
        <time>2021-11-25T09:58:02Z</time>
      </trkpt>
      <trkpt lat="47.55594" lon="1.8430619">
        <ele>148.0</ele>
        <time>2021-11-25T09:58:03Z</time>
      </trkpt>
      <trkpt lat="47.555927" lon="1.8430681">
        <ele>148.0</ele>
        <time>2021-11-25T09:58:04Z</time>
      </trkpt>
      <trkpt lat="47.555916" lon="1.8430786">
        <ele>148.0</ele>
        <time>2021-11-25T09:58:05Z</time>
      </trkpt>
      <trkpt lat="47.555904" lon="1.843088">
        <ele>148.0</ele>
        <time>2021-11-25T09:58:06Z</time>
      </trkpt>
      <trkpt lat="47.555897" lon="1.8430947">
        <ele>147.0</ele>
        <time>2021-11-25T09:58:07Z</time>
      </trkpt>
      <trkpt lat="47.555885" lon="1.843097">
        <ele>147.0</ele>
        <time>2021-11-25T09:58:08Z</time>
      </trkpt>
      <trkpt lat="47.555878" lon="1.843102">
        <ele>148.0</ele>
        <time>2021-11-25T09:58:09Z</time>
      </trkpt>
      <trkpt lat="47.55587" lon="1.8431096">
        <ele>149.0</ele>
        <time>2021-11-25T09:58:10Z</time>
      </trkpt>
      <trkpt lat="47.55586" lon="1.8431176">
        <ele>149.0</ele>
        <time>2021-11-25T09:58:11Z</time>
      </trkpt>
      <trkpt lat="47.555843" lon="1.8431264">
        <ele>148.0</ele>
        <time>2021-11-25T09:58:12Z</time>
      </trkpt>
      <trkpt lat="47.55583" lon="1.8431349">
        <ele>149.0</ele>
        <time>2021-11-25T09:58:13Z</time>
      </trkpt>
      <trkpt lat="47.555817" lon="1.8431371">
        <ele>149.0</ele>
        <time>2021-11-25T09:58:14Z</time>
      </trkpt>
      <trkpt lat="47.555805" lon="1.8431431">
        <ele>149.0</ele>
        <time>2021-11-25T09:58:15Z</time>
      </trkpt>
      <trkpt lat="47.555798" lon="1.843149">
        <ele>149.0</ele>
        <time>2021-11-25T09:58:16Z</time>
      </trkpt>
      <trkpt lat="47.555786" lon="1.8431581">
        <ele>149.0</ele>
        <time>2021-11-25T09:58:17Z</time>
      </trkpt>
      <trkpt lat="47.555767" lon="1.8431638">
        <ele>149.0</ele>
        <time>2021-11-25T09:58:18Z</time>
      </trkpt>
      <trkpt lat="47.55575" lon="1.8431761">
        <ele>150.0</ele>
        <time>2021-11-25T09:58:19Z</time>
      </trkpt>
      <trkpt lat="47.555737" lon="1.8431814">
        <ele>149.0</ele>
        <time>2021-11-25T09:58:20Z</time>
      </trkpt>
      <trkpt lat="47.555725" lon="1.8431875">
        <ele>150.0</ele>
        <time>2021-11-25T09:58:21Z</time>
      </trkpt>
      <trkpt lat="47.55571" lon="1.8431967">
        <ele>150.0</ele>
        <time>2021-11-25T09:58:22Z</time>
      </trkpt>
      <trkpt lat="47.5557" lon="1.8432049">
        <ele>150.0</ele>
        <time>2021-11-25T09:58:23Z</time>
      </trkpt>
      <trkpt lat="47.555683" lon="1.8432148">
        <ele>150.0</ele>
        <time>2021-11-25T09:58:24Z</time>
      </trkpt>
      <trkpt lat="47.55567" lon="1.843221">
        <ele>150.0</ele>
        <time>2021-11-25T09:58:25Z</time>
      </trkpt>
      <trkpt lat="47.55566" lon="1.8432277">
        <ele>150.0</ele>
        <time>2021-11-25T09:58:26Z</time>
      </trkpt>
      <trkpt lat="47.55565" lon="1.8432341">
        <ele>150.0</ele>
        <time>2021-11-25T09:58:27Z</time>
      </trkpt>
      <trkpt lat="47.555637" lon="1.8432393">
        <ele>150.0</ele>
        <time>2021-11-25T09:58:28Z</time>
      </trkpt>
      <trkpt lat="47.555626" lon="1.8432418">
        <ele>150.0</ele>
        <time>2021-11-25T09:58:29Z</time>
      </trkpt>
      <trkpt lat="47.55562" lon="1.8432474">
        <ele>150.0</ele>
        <time>2021-11-25T09:58:30Z</time>
      </trkpt>
      <trkpt lat="47.555607" lon="1.8432558">
        <ele>150.0</ele>
        <time>2021-11-25T09:58:31Z</time>
      </trkpt>
      <trkpt lat="47.5556" lon="1.843263">
        <ele>150.0</ele>
        <time>2021-11-25T09:58:32Z</time>
      </trkpt>
      <trkpt lat="47.55559" lon="1.8432703">
        <ele>150.0</ele>
        <time>2021-11-25T09:58:33Z</time>
      </trkpt>
      <trkpt lat="47.555576" lon="1.8432755">
        <ele>149.0</ele>
        <time>2021-11-25T09:58:34Z</time>
      </trkpt>
      <trkpt lat="47.55556" lon="1.8432822">
        <ele>149.0</ele>
        <time>2021-11-25T09:58:35Z</time>
      </trkpt>
      <trkpt lat="47.55555" lon="1.8432865">
        <ele>149.0</ele>
        <time>2021-11-25T09:58:36Z</time>
      </trkpt>
      <trkpt lat="47.55554" lon="1.8432944">
        <ele>149.0</ele>
        <time>2021-11-25T09:58:37Z</time>
      </trkpt>
      <trkpt lat="47.55553" lon="1.8433012">
        <ele>149.0</ele>
        <time>2021-11-25T09:58:38Z</time>
      </trkpt>
      <trkpt lat="47.55552" lon="1.8433101">
        <ele>149.0</ele>
        <time>2021-11-25T09:58:39Z</time>
      </trkpt>
      <trkpt lat="47.555508" lon="1.8433185">
        <ele>149.0</ele>
        <time>2021-11-25T09:58:40Z</time>
      </trkpt>
      <trkpt lat="47.555496" lon="1.8433208">
        <ele>149.0</ele>
        <time>2021-11-25T09:58:41Z</time>
      </trkpt>
      <trkpt lat="47.555485" lon="1.8433255">
        <ele>149.0</ele>
        <time>2021-11-25T09:58:42Z</time>
      </trkpt>
      <trkpt lat="47.555473" lon="1.8433334">
        <ele>149.0</ele>
        <time>2021-11-25T09:58:43Z</time>
      </trkpt>
      <trkpt lat="47.55546" lon="1.8433436">
        <ele>148.0</ele>
        <time>2021-11-25T09:58:44Z</time>
      </trkpt>
      <trkpt lat="47.55545" lon="1.8433484">
        <ele>148.0</ele>
        <time>2021-11-25T09:58:45Z</time>
      </trkpt>
      <trkpt lat="47.55544" lon="1.8433582">
        <ele>148.0</ele>
        <time>2021-11-25T09:58:46Z</time>
      </trkpt>
      <trkpt lat="47.55543" lon="1.8433658">
        <ele>148.0</ele>
        <time>2021-11-25T09:58:47Z</time>
      </trkpt>
      <trkpt lat="47.55542" lon="1.8433696">
        <ele>148.0</ele>
        <time>2021-11-25T09:58:48Z</time>
      </trkpt>
      <trkpt lat="47.55541" lon="1.8433751">
        <ele>148.0</ele>
        <time>2021-11-25T09:58:49Z</time>
      </trkpt>
      <trkpt lat="47.555393" lon="1.843385">
        <ele>148.0</ele>
        <time>2021-11-25T09:58:50Z</time>
      </trkpt>
      <trkpt lat="47.55538" lon="1.8433925">
        <ele>148.0</ele>
        <time>2021-11-25T09:58:51Z</time>
      </trkpt>
      <trkpt lat="47.55537" lon="1.843404">
        <ele>148.0</ele>
        <time>2021-11-25T09:58:52Z</time>
      </trkpt>
      <trkpt lat="47.55536" lon="1.8434067">
        <ele>148.0</ele>
        <time>2021-11-25T09:58:53Z</time>
      </trkpt>
      <trkpt lat="47.555344" lon="1.8434128">
        <ele>148.0</ele>
        <time>2021-11-25T09:58:54Z</time>
      </trkpt>
      <trkpt lat="47.555336" lon="1.8434141">
        <ele>148.0</ele>
        <time>2021-11-25T09:58:55Z</time>
      </trkpt>
      <trkpt lat="47.55532" lon="1.8434193">
        <ele>148.0</ele>
        <time>2021-11-25T09:58:56Z</time>
      </trkpt>
      <trkpt lat="47.55531" lon="1.8434268">
        <ele>148.0</ele>
        <time>2021-11-25T09:58:57Z</time>
      </trkpt>
      <trkpt lat="47.5553" lon="1.8434299">
        <ele>148.0</ele>
        <time>2021-11-25T09:58:58Z</time>
      </trkpt>
      <trkpt lat="47.555294" lon="1.8434296">
        <ele>148.0</ele>
        <time>2021-11-25T09:58:59Z</time>
      </trkpt>
      <trkpt lat="47.555283" lon="1.8434341">
        <ele>147.0</ele>
        <time>2021-11-25T09:59:00Z</time>
      </trkpt>
      <trkpt lat="47.55527" lon="1.8434423">
        <ele>147.0</ele>
        <time>2021-11-25T09:59:01Z</time>
      </trkpt>
      <trkpt lat="47.555264" lon="1.843446">
        <ele>147.0</ele>
        <time>2021-11-25T09:59:02Z</time>
      </trkpt>
      <trkpt lat="47.555252" lon="1.8434478">
        <ele>147.0</ele>
        <time>2021-11-25T09:59:03Z</time>
      </trkpt>
      <trkpt lat="47.55524" lon="1.8434477">
        <ele>147.0</ele>
        <time>2021-11-25T09:59:04Z</time>
      </trkpt>
      <trkpt lat="47.55523" lon="1.8434473">
        <ele>147.0</ele>
        <time>2021-11-25T09:59:05Z</time>
      </trkpt>
      <trkpt lat="47.55522" lon="1.8434539">
        <ele>147.0</ele>
        <time>2021-11-25T09:59:06Z</time>
      </trkpt>
      <trkpt lat="47.55521" lon="1.8434589">
        <ele>147.0</ele>
        <time>2021-11-25T09:59:07Z</time>
      </trkpt>
      <trkpt lat="47.555202" lon="1.8434635">
        <ele>146.0</ele>
        <time>2021-11-25T09:59:08Z</time>
      </trkpt>
      <trkpt lat="47.55519" lon="1.8434666">
        <ele>146.0</ele>
        <time>2021-11-25T09:59:09Z</time>
      </trkpt>
      <trkpt lat="47.55518" lon="1.8434696">
        <ele>146.0</ele>
        <time>2021-11-25T09:59:10Z</time>
      </trkpt>
      <trkpt lat="47.55517" lon="1.8434759">
        <ele>146.0</ele>
        <time>2021-11-25T09:59:11Z</time>
      </trkpt>
      <trkpt lat="47.555157" lon="1.8434827">
        <ele>146.0</ele>
        <time>2021-11-25T09:59:12Z</time>
      </trkpt>
      <trkpt lat="47.555138" lon="1.8434908">
        <ele>146.0</ele>
        <time>2021-11-25T09:59:13Z</time>
      </trkpt>
      <trkpt lat="47.555126" lon="1.8435028">
        <ele>146.0</ele>
        <time>2021-11-25T09:59:14Z</time>
      </trkpt>
      <trkpt lat="47.55511" lon="1.8435161">
        <ele>146.0</ele>
        <time>2021-11-25T09:59:15Z</time>
      </trkpt>
      <trkpt lat="47.55509" lon="1.8435291">
        <ele>146.0</ele>
        <time>2021-11-25T09:59:16Z</time>
      </trkpt>
      <trkpt lat="47.55508" lon="1.8435402">
        <ele>146.0</ele>
        <time>2021-11-25T09:59:17Z</time>
      </trkpt>
      <trkpt lat="47.55507" lon="1.843549">
        <ele>146.0</ele>
        <time>2021-11-25T09:59:18Z</time>
      </trkpt>
      <trkpt lat="47.555058" lon="1.8435577">
        <ele>146.0</ele>
        <time>2021-11-25T09:59:19Z</time>
      </trkpt>
      <trkpt lat="47.555042" lon="1.8435699">
        <ele>146.0</ele>
        <time>2021-11-25T09:59:20Z</time>
      </trkpt>
      <trkpt lat="47.55503" lon="1.8435826">
        <ele>146.0</ele>
        <time>2021-11-25T09:59:21Z</time>
      </trkpt>
      <trkpt lat="47.555016" lon="1.8435936">
        <ele>146.0</ele>
        <time>2021-11-25T09:59:22Z</time>
      </trkpt>
      <trkpt lat="47.555004" lon="1.843595">
        <ele>146.0</ele>
        <time>2021-11-25T09:59:23Z</time>
      </trkpt>
      <trkpt lat="47.554993" lon="1.8436033">
        <ele>147.0</ele>
        <time>2021-11-25T09:59:24Z</time>
      </trkpt>
      <trkpt lat="47.55498" lon="1.8436143">
        <ele>147.0</ele>
        <time>2021-11-25T09:59:25Z</time>
      </trkpt>
      <trkpt lat="47.55497" lon="1.8436207">
        <ele>147.0</ele>
        <time>2021-11-25T09:59:26Z</time>
      </trkpt>
      <trkpt lat="47.554962" lon="1.843627">
        <ele>147.0</ele>
        <time>2021-11-25T09:59:27Z</time>
      </trkpt>
      <trkpt lat="47.554955" lon="1.8436332">
        <ele>147.0</ele>
        <time>2021-11-25T09:59:28Z</time>
      </trkpt>
      <trkpt lat="47.554943" lon="1.8436365">
        <ele>148.0</ele>
        <time>2021-11-25T09:59:29Z</time>
      </trkpt>
      <trkpt lat="47.554928" lon="1.8436335">
        <ele>148.0</ele>
        <time>2021-11-25T09:59:30Z</time>
      </trkpt>
      <trkpt lat="47.554913" lon="1.8436328">
        <ele>149.0</ele>
        <time>2021-11-25T09:59:31Z</time>
      </trkpt>
      <trkpt lat="47.554905" lon="1.843638">
        <ele>149.0</ele>
        <time>2021-11-25T09:59:32Z</time>
      </trkpt>
      <trkpt lat="47.554893" lon="1.8436437">
        <ele>149.0</ele>
        <time>2021-11-25T09:59:33Z</time>
      </trkpt>
      <trkpt lat="47.554882" lon="1.8436543">
        <ele>150.0</ele>
        <time>2021-11-25T09:59:34Z</time>
      </trkpt>
      <trkpt lat="47.55487" lon="1.8436642">
        <ele>150.0</ele>
        <time>2021-11-25T09:59:35Z</time>
      </trkpt>
      <trkpt lat="47.55486" lon="1.8436695">
        <ele>150.0</ele>
        <time>2021-11-25T09:59:36Z</time>
      </trkpt>
      <trkpt lat="47.554848" lon="1.8436793">
        <ele>150.0</ele>
        <time>2021-11-25T09:59:37Z</time>
      </trkpt>
      <trkpt lat="47.554836" lon="1.8436859">
        <ele>149.0</ele>
        <time>2021-11-25T09:59:38Z</time>
      </trkpt>
      <trkpt lat="47.554825" lon="1.8436918">
        <ele>149.0</ele>
        <time>2021-11-25T09:59:39Z</time>
      </trkpt>
      <trkpt lat="47.554817" lon="1.8436943">
        <ele>149.0</ele>
        <time>2021-11-25T09:59:40Z</time>
      </trkpt>
      <trkpt lat="47.554806" lon="1.8436922">
        <ele>149.0</ele>
        <time>2021-11-25T09:59:41Z</time>
      </trkpt>
      <trkpt lat="47.554794" lon="1.8436953">
        <ele>150.0</ele>
        <time>2021-11-25T09:59:42Z</time>
      </trkpt>
      <trkpt lat="47.554783" lon="1.843696">
        <ele>150.0</ele>
        <time>2021-11-25T09:59:43Z</time>
      </trkpt>
      <trkpt lat="47.55477" lon="1.8436993">
        <ele>150.0</ele>
        <time>2021-11-25T09:59:44Z</time>
      </trkpt>
      <trkpt lat="47.55476" lon="1.843704">
        <ele>150.0</ele>
        <time>2021-11-25T09:59:45Z</time>
      </trkpt>
      <trkpt lat="47.55475" lon="1.8437121">
        <ele>150.0</ele>
        <time>2021-11-25T09:59:46Z</time>
      </trkpt>
      <trkpt lat="47.554737" lon="1.8437161">
        <ele>150.0</ele>
        <time>2021-11-25T09:59:47Z</time>
      </trkpt>
      <trkpt lat="47.554726" lon="1.8437227">
        <ele>150.0</ele>
        <time>2021-11-25T09:59:48Z</time>
      </trkpt>
      <trkpt lat="47.554718" lon="1.8437304">
        <ele>150.0</ele>
        <time>2021-11-25T09:59:49Z</time>
      </trkpt>
      <trkpt lat="47.554703" lon="1.8437402">
        <ele>150.0</ele>
        <time>2021-11-25T09:59:50Z</time>
      </trkpt>
      <trkpt lat="47.55469" lon="1.843747">
        <ele>150.0</ele>
        <time>2021-11-25T09:59:51Z</time>
      </trkpt>
      <trkpt lat="47.554676" lon="1.8437549">
        <ele>151.0</ele>
        <time>2021-11-25T09:59:52Z</time>
      </trkpt>
      <trkpt lat="47.554665" lon="1.8437619">
        <ele>151.0</ele>
        <time>2021-11-25T09:59:53Z</time>
      </trkpt>
      <trkpt lat="47.554653" lon="1.8437665">
        <ele>151.0</ele>
        <time>2021-11-25T09:59:54Z</time>
      </trkpt>
      <trkpt lat="47.554646" lon="1.843767">
        <ele>151.0</ele>
        <time>2021-11-25T09:59:55Z</time>
      </trkpt>
      <trkpt lat="47.554638" lon="1.8437694">
        <ele>151.0</ele>
        <time>2021-11-25T09:59:56Z</time>
      </trkpt>
      <trkpt lat="47.55463" lon="1.8437742">
        <ele>151.0</ele>
        <time>2021-11-25T09:59:57Z</time>
      </trkpt>
      <trkpt lat="47.55462" lon="1.8437766">
        <ele>151.0</ele>
        <time>2021-11-25T09:59:58Z</time>
      </trkpt>
      <trkpt lat="47.554607" lon="1.8437837">
        <ele>152.0</ele>
        <time>2021-11-25T09:59:59Z</time>
      </trkpt>
      <trkpt lat="47.554596" lon="1.8437908">
        <ele>152.0</ele>
        <time>2021-11-25T10:00:00Z</time>
      </trkpt>
      <trkpt lat="47.554585" lon="1.8437955">
        <ele>152.0</ele>
        <time>2021-11-25T10:00:01Z</time>
      </trkpt>
      <trkpt lat="47.55457" lon="1.8438065">
        <ele>152.0</ele>
        <time>2021-11-25T10:00:02Z</time>
      </trkpt>
      <trkpt lat="47.554558" lon="1.843817">
        <ele>152.0</ele>
        <time>2021-11-25T10:00:03Z</time>
      </trkpt>
      <trkpt lat="47.554543" lon="1.8438243">
        <ele>152.0</ele>
        <time>2021-11-25T10:00:04Z</time>
      </trkpt>
      <trkpt lat="47.554535" lon="1.8438282">
        <ele>151.0</ele>
        <time>2021-11-25T10:00:05Z</time>
      </trkpt>
      <trkpt lat="47.554523" lon="1.8438343">
        <ele>151.0</ele>
        <time>2021-11-25T10:00:06Z</time>
      </trkpt>
      <trkpt lat="47.55451" lon="1.8438418">
        <ele>151.0</ele>
        <time>2021-11-25T10:00:07Z</time>
      </trkpt>
      <trkpt lat="47.5545" lon="1.8438493">
        <ele>151.0</ele>
        <time>2021-11-25T10:00:08Z</time>
      </trkpt>
      <trkpt lat="47.55449" lon="1.8438556">
        <ele>151.0</ele>
        <time>2021-11-25T10:00:09Z</time>
      </trkpt>
      <trkpt lat="47.554478" lon="1.8438672">
        <ele>151.0</ele>
        <time>2021-11-25T10:00:10Z</time>
      </trkpt>
      <trkpt lat="47.554466" lon="1.843874">
        <ele>151.0</ele>
        <time>2021-11-25T10:00:11Z</time>
      </trkpt>
      <trkpt lat="47.55446" lon="1.8438781">
        <ele>151.0</ele>
        <time>2021-11-25T10:00:12Z</time>
      </trkpt>
      <trkpt lat="47.554447" lon="1.8438797">
        <ele>151.0</ele>
        <time>2021-11-25T10:00:13Z</time>
      </trkpt>
      <trkpt lat="47.55444" lon="1.8438812">
        <ele>151.0</ele>
        <time>2021-11-25T10:00:14Z</time>
      </trkpt>
      <trkpt lat="47.554432" lon="1.8438852">
        <ele>151.0</ele>
        <time>2021-11-25T10:00:15Z</time>
      </trkpt>
      <trkpt lat="47.554424" lon="1.8438847">
        <ele>150.0</ele>
        <time>2021-11-25T10:00:16Z</time>
      </trkpt>
      <trkpt lat="47.554417" lon="1.8438872">
        <ele>150.0</ele>
        <time>2021-11-25T10:00:17Z</time>
      </trkpt>
      <trkpt lat="47.5544" lon="1.8438935">
        <ele>150.0</ele>
        <time>2021-11-25T10:00:18Z</time>
      </trkpt>
      <trkpt lat="47.55439" lon="1.8438996">
        <ele>150.0</ele>
        <time>2021-11-25T10:00:19Z</time>
      </trkpt>
      <trkpt lat="47.554382" lon="1.8439059">
        <ele>151.0</ele>
        <time>2021-11-25T10:00:20Z</time>
      </trkpt>
      <trkpt lat="47.554375" lon="1.8439096">
        <ele>150.0</ele>
        <time>2021-11-25T10:00:21Z</time>
      </trkpt>
      <trkpt lat="47.554363" lon="1.843916">
        <ele>150.0</ele>
        <time>2021-11-25T10:00:22Z</time>
      </trkpt>
      <trkpt lat="47.554348" lon="1.8439237">
        <ele>150.0</ele>
        <time>2021-11-25T10:00:23Z</time>
      </trkpt>
      <trkpt lat="47.554337" lon="1.843929">
        <ele>149.0</ele>
        <time>2021-11-25T10:00:24Z</time>
      </trkpt>
      <trkpt lat="47.554325" lon="1.8439367">
        <ele>148.0</ele>
        <time>2021-11-25T10:00:25Z</time>
      </trkpt>
      <trkpt lat="47.55431" lon="1.8439465">
        <ele>149.0</ele>
        <time>2021-11-25T10:00:26Z</time>
      </trkpt>
      <trkpt lat="47.554302" lon="1.8439542">
        <ele>148.0</ele>
        <time>2021-11-25T10:00:27Z</time>
      </trkpt>
      <trkpt lat="47.554287" lon="1.8439643">
        <ele>148.0</ele>
        <time>2021-11-25T10:00:28Z</time>
      </trkpt>
      <trkpt lat="47.554276" lon="1.8439734">
        <ele>148.0</ele>
        <time>2021-11-25T10:00:29Z</time>
      </trkpt>
      <trkpt lat="47.554264" lon="1.8439763">
        <ele>148.0</ele>
        <time>2021-11-25T10:00:30Z</time>
      </trkpt>
      <trkpt lat="47.554256" lon="1.8439804">
        <ele>148.0</ele>
        <time>2021-11-25T10:00:31Z</time>
      </trkpt>
      <trkpt lat="47.554245" lon="1.8439908">
        <ele>149.0</ele>
        <time>2021-11-25T10:00:32Z</time>
      </trkpt>
      <trkpt lat="47.554234" lon="1.8440033">
        <ele>149.0</ele>
        <time>2021-11-25T10:00:33Z</time>
      </trkpt>
      <trkpt lat="47.554222" lon="1.8440161">
        <ele>149.0</ele>
        <time>2021-11-25T10:00:34Z</time>
      </trkpt>
      <trkpt lat="47.55421" lon="1.844027">
        <ele>149.0</ele>
        <time>2021-11-25T10:00:35Z</time>
      </trkpt>
      <trkpt lat="47.5542" lon="1.8440372">
        <ele>149.0</ele>
        <time>2021-11-25T10:00:36Z</time>
      </trkpt>
      <trkpt lat="47.554188" lon="1.8440475">
        <ele>149.0</ele>
        <time>2021-11-25T10:00:37Z</time>
      </trkpt>
      <trkpt lat="47.554173" lon="1.8440561">
        <ele>150.0</ele>
        <time>2021-11-25T10:00:38Z</time>
      </trkpt>
      <trkpt lat="47.55416" lon="1.8440629">
        <ele>150.0</ele>
        <time>2021-11-25T10:00:39Z</time>
      </trkpt>
      <trkpt lat="47.554153" lon="1.8440684">
        <ele>151.0</ele>
        <time>2021-11-25T10:00:40Z</time>
      </trkpt>
      <trkpt lat="47.554142" lon="1.8440737">
        <ele>150.0</ele>
        <time>2021-11-25T10:00:41Z</time>
      </trkpt>
      <trkpt lat="47.55414" lon="1.844077">
        <ele>150.0</ele>
        <time>2021-11-25T10:00:42Z</time>
      </trkpt>
      <trkpt lat="47.554127" lon="1.8440832">
        <ele>149.0</ele>
        <time>2021-11-25T10:00:43Z</time>
      </trkpt>
      <trkpt lat="47.554115" lon="1.844088">
        <ele>150.0</ele>
        <time>2021-11-25T10:00:44Z</time>
      </trkpt>
      <trkpt lat="47.554104" lon="1.8440914">
        <ele>149.0</ele>
        <time>2021-11-25T10:00:45Z</time>
      </trkpt>
      <trkpt lat="47.554092" lon="1.8440976">
        <ele>149.0</ele>
        <time>2021-11-25T10:00:46Z</time>
      </trkpt>
      <trkpt lat="47.55408" lon="1.844102">
        <ele>149.0</ele>
        <time>2021-11-25T10:00:47Z</time>
      </trkpt>
      <trkpt lat="47.554066" lon="1.8441072">
        <ele>150.0</ele>
        <time>2021-11-25T10:00:48Z</time>
      </trkpt>
      <trkpt lat="47.554058" lon="1.8441125">
        <ele>149.0</ele>
        <time>2021-11-25T10:00:49Z</time>
      </trkpt>
      <trkpt lat="47.554047" lon="1.8441179">
        <ele>149.0</ele>
        <time>2021-11-25T10:00:50Z</time>
      </trkpt>
      <trkpt lat="47.554035" lon="1.8441265">
        <ele>149.0</ele>
        <time>2021-11-25T10:00:51Z</time>
      </trkpt>
      <trkpt lat="47.55402" lon="1.8441335">
        <ele>149.0</ele>
        <time>2021-11-25T10:00:52Z</time>
      </trkpt>
      <trkpt lat="47.554005" lon="1.8441402">
        <ele>149.0</ele>
        <time>2021-11-25T10:00:53Z</time>
      </trkpt>
      <trkpt lat="47.553993" lon="1.8441478">
        <ele>148.0</ele>
        <time>2021-11-25T10:00:54Z</time>
      </trkpt>
      <trkpt lat="47.55398" lon="1.8441544">
        <ele>148.0</ele>
        <time>2021-11-25T10:00:55Z</time>
      </trkpt>
      <trkpt lat="47.55397" lon="1.8441631">
        <ele>148.0</ele>
        <time>2021-11-25T10:00:56Z</time>
      </trkpt>
      <trkpt lat="47.553955" lon="1.8441683">
        <ele>148.0</ele>
        <time>2021-11-25T10:00:57Z</time>
      </trkpt>
      <trkpt lat="47.55394" lon="1.8441733">
        <ele>148.0</ele>
        <time>2021-11-25T10:00:58Z</time>
      </trkpt>
      <trkpt lat="47.55393" lon="1.8441782">
        <ele>148.0</ele>
        <time>2021-11-25T10:00:59Z</time>
      </trkpt>
      <trkpt lat="47.553913" lon="1.8441886">
        <ele>148.0</ele>
        <time>2021-11-25T10:01:00Z</time>
      </trkpt>
      <trkpt lat="47.5539" lon="1.8441964">
        <ele>148.0</ele>
        <time>2021-11-25T10:01:01Z</time>
      </trkpt>
      <trkpt lat="47.553894" lon="1.8442032">
        <ele>148.0</ele>
        <time>2021-11-25T10:01:02Z</time>
      </trkpt>
      <trkpt lat="47.553883" lon="1.8442167">
        <ele>148.0</ele>
        <time>2021-11-25T10:01:03Z</time>
      </trkpt>
      <trkpt lat="47.55387" lon="1.8442187">
        <ele>148.0</ele>
        <time>2021-11-25T10:01:04Z</time>
      </trkpt>
      <trkpt lat="47.553864" lon="1.8442268">
        <ele>148.0</ele>
        <time>2021-11-25T10:01:05Z</time>
      </trkpt>
      <trkpt lat="47.553852" lon="1.8442318">
        <ele>148.0</ele>
        <time>2021-11-25T10:01:06Z</time>
      </trkpt>
      <trkpt lat="47.55384" lon="1.8442371">
        <ele>148.0</ele>
        <time>2021-11-25T10:01:07Z</time>
      </trkpt>
      <trkpt lat="47.553825" lon="1.8442409">
        <ele>148.0</ele>
        <time>2021-11-25T10:01:08Z</time>
      </trkpt>
      <trkpt lat="47.55381" lon="1.8442439">
        <ele>149.0</ele>
        <time>2021-11-25T10:01:09Z</time>
      </trkpt>
      <trkpt lat="47.553795" lon="1.8442509">
        <ele>149.0</ele>
        <time>2021-11-25T10:01:10Z</time>
      </trkpt>
      <trkpt lat="47.55378" lon="1.8442558">
        <ele>148.0</ele>
        <time>2021-11-25T10:01:11Z</time>
      </trkpt>
      <trkpt lat="47.553772" lon="1.8442652">
        <ele>148.0</ele>
        <time>2021-11-25T10:01:12Z</time>
      </trkpt>
      <trkpt lat="47.553757" lon="1.8442743">
        <ele>149.0</ele>
        <time>2021-11-25T10:01:13Z</time>
      </trkpt>
      <trkpt lat="47.553745" lon="1.8442808">
        <ele>149.0</ele>
        <time>2021-11-25T10:01:14Z</time>
      </trkpt>
      <trkpt lat="47.55373" lon="1.844286">
        <ele>149.0</ele>
        <time>2021-11-25T10:01:15Z</time>
      </trkpt>
      <trkpt lat="47.553715" lon="1.8442931">
        <ele>150.0</ele>
        <time>2021-11-25T10:01:16Z</time>
      </trkpt>
      <trkpt lat="47.553703" lon="1.8443043">
        <ele>150.0</ele>
        <time>2021-11-25T10:01:17Z</time>
      </trkpt>
      <trkpt lat="47.553688" lon="1.844314">
        <ele>150.0</ele>
        <time>2021-11-25T10:01:18Z</time>
      </trkpt>
      <trkpt lat="47.553677" lon="1.8443192">
        <ele>151.0</ele>
        <time>2021-11-25T10:01:19Z</time>
      </trkpt>
      <trkpt lat="47.55366" lon="1.8443193">
        <ele>151.0</ele>
        <time>2021-11-25T10:01:20Z</time>
      </trkpt>
      <trkpt lat="47.55365" lon="1.8443227">
        <ele>152.0</ele>
        <time>2021-11-25T10:01:21Z</time>
      </trkpt>
      <trkpt lat="47.55364" lon="1.8443315">
        <ele>152.0</ele>
        <time>2021-11-25T10:01:22Z</time>
      </trkpt>
      <trkpt lat="47.553627" lon="1.8443367">
        <ele>152.0</ele>
        <time>2021-11-25T10:01:23Z</time>
      </trkpt>
      <trkpt lat="47.553616" lon="1.8443456">
        <ele>152.0</ele>
        <time>2021-11-25T10:01:24Z</time>
      </trkpt>
      <trkpt lat="47.553604" lon="1.8443506">
        <ele>151.0</ele>
        <time>2021-11-25T10:01:25Z</time>
      </trkpt>
      <trkpt lat="47.553593" lon="1.844355">
        <ele>151.0</ele>
        <time>2021-11-25T10:01:26Z</time>
      </trkpt>
      <trkpt lat="47.553585" lon="1.8443606">
        <ele>151.0</ele>
        <time>2021-11-25T10:01:27Z</time>
      </trkpt>
      <trkpt lat="47.553577" lon="1.8443651">
        <ele>151.0</ele>
        <time>2021-11-25T10:01:28Z</time>
      </trkpt>
      <trkpt lat="47.55357" lon="1.8443711">
        <ele>151.0</ele>
        <time>2021-11-25T10:01:29Z</time>
      </trkpt>
      <trkpt lat="47.553555" lon="1.8443809">
        <ele>151.0</ele>
        <time>2021-11-25T10:01:30Z</time>
      </trkpt>
      <trkpt lat="47.553543" lon="1.8443856">
        <ele>152.0</ele>
        <time>2021-11-25T10:01:31Z</time>
      </trkpt>
      <trkpt lat="47.55353" lon="1.8443918">
        <ele>152.0</ele>
        <time>2021-11-25T10:01:32Z</time>
      </trkpt>
      <trkpt lat="47.55352" lon="1.8443968">
        <ele>152.0</ele>
        <time>2021-11-25T10:01:33Z</time>
      </trkpt>
      <trkpt lat="47.55351" lon="1.8444059">
        <ele>152.0</ele>
        <time>2021-11-25T10:01:34Z</time>
      </trkpt>
      <trkpt lat="47.553497" lon="1.844409">
        <ele>152.0</ele>
        <time>2021-11-25T10:01:35Z</time>
      </trkpt>
      <trkpt lat="47.553486" lon="1.8444151">
        <ele>153.0</ele>
        <time>2021-11-25T10:01:36Z</time>
      </trkpt>
      <trkpt lat="47.553474" lon="1.8444258">
        <ele>153.0</ele>
        <time>2021-11-25T10:01:37Z</time>
      </trkpt>
      <trkpt lat="47.55346" lon="1.844437">
        <ele>153.0</ele>
        <time>2021-11-25T10:01:38Z</time>
      </trkpt>
      <trkpt lat="47.553448" lon="1.8444458">
        <ele>153.0</ele>
        <time>2021-11-25T10:01:39Z</time>
      </trkpt>
      <trkpt lat="47.553436" lon="1.8444505">
        <ele>152.0</ele>
        <time>2021-11-25T10:01:40Z</time>
      </trkpt>
      <trkpt lat="47.553425" lon="1.844458">
        <ele>152.0</ele>
        <time>2021-11-25T10:01:41Z</time>
      </trkpt>
      <trkpt lat="47.553413" lon="1.84447">
        <ele>153.0</ele>
        <time>2021-11-25T10:01:42Z</time>
      </trkpt>
      <trkpt lat="47.553402" lon="1.8444822">
        <ele>153.0</ele>
        <time>2021-11-25T10:01:43Z</time>
      </trkpt>
      <trkpt lat="47.55339" lon="1.8444957">
        <ele>153.0</ele>
        <time>2021-11-25T10:01:44Z</time>
      </trkpt>
      <trkpt lat="47.553383" lon="1.8445078">
        <ele>153.0</ele>
        <time>2021-11-25T10:01:45Z</time>
      </trkpt>
      <trkpt lat="47.55337" lon="1.8445208">
        <ele>153.0</ele>
        <time>2021-11-25T10:01:46Z</time>
      </trkpt>
      <trkpt lat="47.553356" lon="1.8445307">
        <ele>153.0</ele>
        <time>2021-11-25T10:01:47Z</time>
      </trkpt>
      <trkpt lat="47.553345" lon="1.8445358">
        <ele>154.0</ele>
        <time>2021-11-25T10:01:48Z</time>
      </trkpt>
      <trkpt lat="47.553333" lon="1.8445436">
        <ele>153.0</ele>
        <time>2021-11-25T10:01:49Z</time>
      </trkpt>
      <trkpt lat="47.553318" lon="1.8445569">
        <ele>153.0</ele>
        <time>2021-11-25T10:01:50Z</time>
      </trkpt>
      <trkpt lat="47.55331" lon="1.8445675">
        <ele>153.0</ele>
        <time>2021-11-25T10:01:51Z</time>
      </trkpt>
      <trkpt lat="47.553303" lon="1.8445759">
        <ele>153.0</ele>
        <time>2021-11-25T10:01:52Z</time>
      </trkpt>
      <trkpt lat="47.55329" lon="1.8445861">
        <ele>153.0</ele>
        <time>2021-11-25T10:01:53Z</time>
      </trkpt>
      <trkpt lat="47.55328" lon="1.8445936">
        <ele>153.0</ele>
        <time>2021-11-25T10:01:54Z</time>
      </trkpt>
      <trkpt lat="47.553272" lon="1.8446033">
        <ele>153.0</ele>
        <time>2021-11-25T10:01:55Z</time>
      </trkpt>
      <trkpt lat="47.55327" lon="1.8446128">
        <ele>153.0</ele>
        <time>2021-11-25T10:01:56Z</time>
      </trkpt>
      <trkpt lat="47.553257" lon="1.8446217">
        <ele>153.0</ele>
        <time>2021-11-25T10:01:57Z</time>
      </trkpt>
      <trkpt lat="47.55325" lon="1.844635">
        <ele>153.0</ele>
        <time>2021-11-25T10:01:58Z</time>
      </trkpt>
      <trkpt lat="47.55324" lon="1.8446516">
        <ele>154.0</ele>
        <time>2021-11-25T10:01:59Z</time>
      </trkpt>
      <trkpt lat="47.553234" lon="1.8446637">
        <ele>154.0</ele>
        <time>2021-11-25T10:02:00Z</time>
      </trkpt>
      <trkpt lat="47.553223" lon="1.8446823">
        <ele>154.0</ele>
        <time>2021-11-25T10:02:01Z</time>
      </trkpt>
      <trkpt lat="47.55321" lon="1.8446914">
        <ele>154.0</ele>
        <time>2021-11-25T10:02:02Z</time>
      </trkpt>
      <trkpt lat="47.5532" lon="1.8447025">
        <ele>154.0</ele>
        <time>2021-11-25T10:02:03Z</time>
      </trkpt>
      <trkpt lat="47.55319" lon="1.8447183">
        <ele>154.0</ele>
        <time>2021-11-25T10:02:04Z</time>
      </trkpt>
      <trkpt lat="47.55318" lon="1.844729">
        <ele>154.0</ele>
        <time>2021-11-25T10:02:05Z</time>
      </trkpt>
      <trkpt lat="47.55317" lon="1.8447407">
        <ele>154.0</ele>
        <time>2021-11-25T10:02:06Z</time>
      </trkpt>
      <trkpt lat="47.55316" lon="1.8447531">
        <ele>153.0</ele>
        <time>2021-11-25T10:02:07Z</time>
      </trkpt>
      <trkpt lat="47.55315" lon="1.8447679">
        <ele>153.0</ele>
        <time>2021-11-25T10:02:08Z</time>
      </trkpt>
      <trkpt lat="47.55314" lon="1.8447778">
        <ele>153.0</ele>
        <time>2021-11-25T10:02:09Z</time>
      </trkpt>
      <trkpt lat="47.553123" lon="1.8447858">
        <ele>153.0</ele>
        <time>2021-11-25T10:02:10Z</time>
      </trkpt>
      <trkpt lat="47.553116" lon="1.844798">
        <ele>153.0</ele>
        <time>2021-11-25T10:02:11Z</time>
      </trkpt>
      <trkpt lat="47.553104" lon="1.8448035">
        <ele>152.0</ele>
        <time>2021-11-25T10:02:12Z</time>
      </trkpt>
      <trkpt lat="47.553097" lon="1.8448125">
        <ele>152.0</ele>
        <time>2021-11-25T10:02:13Z</time>
      </trkpt>
      <trkpt lat="47.553085" lon="1.8448226">
        <ele>153.0</ele>
        <time>2021-11-25T10:02:14Z</time>
      </trkpt>
      <trkpt lat="47.553078" lon="1.844834">
        <ele>153.0</ele>
        <time>2021-11-25T10:02:15Z</time>
      </trkpt>
      <trkpt lat="47.553062" lon="1.8448501">
        <ele>153.0</ele>
        <time>2021-11-25T10:02:16Z</time>
      </trkpt>
      <trkpt lat="47.55305" lon="1.8448634">
        <ele>152.0</ele>
        <time>2021-11-25T10:02:17Z</time>
      </trkpt>
      <trkpt lat="47.55304" lon="1.8448732">
        <ele>153.0</ele>
        <time>2021-11-25T10:02:18Z</time>
      </trkpt>
      <trkpt lat="47.553032" lon="1.8448839">
        <ele>153.0</ele>
        <time>2021-11-25T10:02:19Z</time>
      </trkpt>
      <trkpt lat="47.55302" lon="1.8448958">
        <ele>153.0</ele>
        <time>2021-11-25T10:02:20Z</time>
      </trkpt>
      <trkpt lat="47.55301" lon="1.8449118">
        <ele>153.0</ele>
        <time>2021-11-25T10:02:21Z</time>
      </trkpt>
      <trkpt lat="47.553" lon="1.8449274">
        <ele>153.0</ele>
        <time>2021-11-25T10:02:22Z</time>
      </trkpt>
      <trkpt lat="47.552994" lon="1.844937">
        <ele>153.0</ele>
        <time>2021-11-25T10:02:23Z</time>
      </trkpt>
      <trkpt lat="47.55299" lon="1.8449482">
        <ele>153.0</ele>
        <time>2021-11-25T10:02:24Z</time>
      </trkpt>
      <trkpt lat="47.552975" lon="1.8449621">
        <ele>153.0</ele>
        <time>2021-11-25T10:02:25Z</time>
      </trkpt>
      <trkpt lat="47.552967" lon="1.8449785">
        <ele>152.0</ele>
        <time>2021-11-25T10:02:26Z</time>
      </trkpt>
      <trkpt lat="47.55295" lon="1.8449855">
        <ele>153.0</ele>
        <time>2021-11-25T10:02:27Z</time>
      </trkpt>
      <trkpt lat="47.55294" lon="1.8449928">
        <ele>152.0</ele>
        <time>2021-11-25T10:02:28Z</time>
      </trkpt>
      <trkpt lat="47.552933" lon="1.8450042">
        <ele>152.0</ele>
        <time>2021-11-25T10:02:29Z</time>
      </trkpt>
      <trkpt lat="47.552925" lon="1.8450115">
        <ele>152.0</ele>
        <time>2021-11-25T10:02:30Z</time>
      </trkpt>
      <trkpt lat="47.552914" lon="1.8450211">
        <ele>152.0</ele>
        <time>2021-11-25T10:02:31Z</time>
      </trkpt>
      <trkpt lat="47.552906" lon="1.8450294">
        <ele>152.0</ele>
        <time>2021-11-25T10:02:32Z</time>
      </trkpt>
      <trkpt lat="47.5529" lon="1.8450395">
        <ele>152.0</ele>
        <time>2021-11-25T10:02:33Z</time>
      </trkpt>
      <trkpt lat="47.55289" lon="1.8450519">
        <ele>152.0</ele>
        <time>2021-11-25T10:02:34Z</time>
      </trkpt>
      <trkpt lat="47.55288" lon="1.8450663">
        <ele>152.0</ele>
        <time>2021-11-25T10:02:35Z</time>
      </trkpt>
      <trkpt lat="47.552868" lon="1.8450781">
        <ele>152.0</ele>
        <time>2021-11-25T10:02:36Z</time>
      </trkpt>
      <trkpt lat="47.55286" lon="1.8450863">
        <ele>152.0</ele>
        <time>2021-11-25T10:02:37Z</time>
      </trkpt>
      <trkpt lat="47.55285" lon="1.8451045">
        <ele>152.0</ele>
        <time>2021-11-25T10:02:38Z</time>
      </trkpt>
      <trkpt lat="47.55284" lon="1.8451166">
        <ele>152.0</ele>
        <time>2021-11-25T10:02:39Z</time>
      </trkpt>
      <trkpt lat="47.55283" lon="1.8451256">
        <ele>152.0</ele>
        <time>2021-11-25T10:02:40Z</time>
      </trkpt>
      <trkpt lat="47.552822" lon="1.8451381">
        <ele>152.0</ele>
        <time>2021-11-25T10:02:41Z</time>
      </trkpt>
      <trkpt lat="47.55281" lon="1.8451513">
        <ele>152.0</ele>
        <time>2021-11-25T10:02:42Z</time>
      </trkpt>
      <trkpt lat="47.552807" lon="1.8451654">
        <ele>152.0</ele>
        <time>2021-11-25T10:02:43Z</time>
      </trkpt>
      <trkpt lat="47.552795" lon="1.8451791">
        <ele>152.0</ele>
        <time>2021-11-25T10:02:44Z</time>
      </trkpt>
      <trkpt lat="47.552784" lon="1.8451918">
        <ele>152.0</ele>
        <time>2021-11-25T10:02:45Z</time>
      </trkpt>
      <trkpt lat="47.552773" lon="1.8452042">
        <ele>152.0</ele>
        <time>2021-11-25T10:02:46Z</time>
      </trkpt>
      <trkpt lat="47.552765" lon="1.845224">
        <ele>152.0</ele>
        <time>2021-11-25T10:02:47Z</time>
      </trkpt>
      <trkpt lat="47.552757" lon="1.8452375">
        <ele>152.0</ele>
        <time>2021-11-25T10:02:48Z</time>
      </trkpt>
      <trkpt lat="47.552746" lon="1.8452486">
        <ele>152.0</ele>
        <time>2021-11-25T10:02:49Z</time>
      </trkpt>
      <trkpt lat="47.55273" lon="1.8452624">
        <ele>151.0</ele>
        <time>2021-11-25T10:02:50Z</time>
      </trkpt>
      <trkpt lat="47.55272" lon="1.8452733">
        <ele>151.0</ele>
        <time>2021-11-25T10:02:51Z</time>
      </trkpt>
      <trkpt lat="47.55271" lon="1.8452797">
        <ele>150.0</ele>
        <time>2021-11-25T10:02:52Z</time>
      </trkpt>
      <trkpt lat="47.5527" lon="1.8452904">
        <ele>149.0</ele>
        <time>2021-11-25T10:02:53Z</time>
      </trkpt>
      <trkpt lat="47.552692" lon="1.8453">
        <ele>150.0</ele>
        <time>2021-11-25T10:02:54Z</time>
      </trkpt>
      <trkpt lat="47.55268" lon="1.845312">
        <ele>150.0</ele>
        <time>2021-11-25T10:02:55Z</time>
      </trkpt>
      <trkpt lat="47.55267" lon="1.8453221">
        <ele>149.0</ele>
        <time>2021-11-25T10:02:56Z</time>
      </trkpt>
      <trkpt lat="47.552658" lon="1.8453357">
        <ele>149.0</ele>
        <time>2021-11-25T10:02:57Z</time>
      </trkpt>
      <trkpt lat="47.552647" lon="1.8453497">
        <ele>149.0</ele>
        <time>2021-11-25T10:02:58Z</time>
      </trkpt>
      <trkpt lat="47.55263" lon="1.845368">
        <ele>149.0</ele>
        <time>2021-11-25T10:02:59Z</time>
      </trkpt>
      <trkpt lat="47.55262" lon="1.8453848">
        <ele>149.0</ele>
        <time>2021-11-25T10:03:00Z</time>
      </trkpt>
      <trkpt lat="47.552605" lon="1.8454008">
        <ele>149.0</ele>
        <time>2021-11-25T10:03:01Z</time>
      </trkpt>
      <trkpt lat="47.552593" lon="1.8454163">
        <ele>149.0</ele>
        <time>2021-11-25T10:03:02Z</time>
      </trkpt>
      <trkpt lat="47.552578" lon="1.8454309">
        <ele>149.0</ele>
        <time>2021-11-25T10:03:03Z</time>
      </trkpt>
      <trkpt lat="47.55257" lon="1.8454461">
        <ele>149.0</ele>
        <time>2021-11-25T10:03:04Z</time>
      </trkpt>
      <trkpt lat="47.552555" lon="1.8454596">
        <ele>149.0</ele>
        <time>2021-11-25T10:03:05Z</time>
      </trkpt>
      <trkpt lat="47.552547" lon="1.8454713">
        <ele>148.0</ele>
        <time>2021-11-25T10:03:06Z</time>
      </trkpt>
      <trkpt lat="47.552536" lon="1.8454831">
        <ele>148.0</ele>
        <time>2021-11-25T10:03:07Z</time>
      </trkpt>
      <trkpt lat="47.55253" lon="1.8454994">
        <ele>148.0</ele>
        <time>2021-11-25T10:03:08Z</time>
      </trkpt>
      <trkpt lat="47.552513" lon="1.845514">
        <ele>148.0</ele>
        <time>2021-11-25T10:03:09Z</time>
      </trkpt>
      <trkpt lat="47.552505" lon="1.8455234">
        <ele>148.0</ele>
        <time>2021-11-25T10:03:10Z</time>
      </trkpt>
      <trkpt lat="47.552498" lon="1.8455352">
        <ele>147.0</ele>
        <time>2021-11-25T10:03:11Z</time>
      </trkpt>
      <trkpt lat="47.55249" lon="1.8455466">
        <ele>147.0</ele>
        <time>2021-11-25T10:03:12Z</time>
      </trkpt>
      <trkpt lat="47.55248" lon="1.8455639">
        <ele>147.0</ele>
        <time>2021-11-25T10:03:13Z</time>
      </trkpt>
      <trkpt lat="47.552464" lon="1.8455802">
        <ele>147.0</ele>
        <time>2021-11-25T10:03:14Z</time>
      </trkpt>
      <trkpt lat="47.552452" lon="1.8455915">
        <ele>147.0</ele>
        <time>2021-11-25T10:03:15Z</time>
      </trkpt>
      <trkpt lat="47.55244" lon="1.845604">
        <ele>147.0</ele>
        <time>2021-11-25T10:03:16Z</time>
      </trkpt>
      <trkpt lat="47.552433" lon="1.8456172">
        <ele>146.0</ele>
        <time>2021-11-25T10:03:17Z</time>
      </trkpt>
      <trkpt lat="47.55242" lon="1.8456312">
        <ele>146.0</ele>
        <time>2021-11-25T10:03:18Z</time>
      </trkpt>
      <trkpt lat="47.55241" lon="1.8456501">
        <ele>146.0</ele>
        <time>2021-11-25T10:03:19Z</time>
      </trkpt>
      <trkpt lat="47.552402" lon="1.8456669">
        <ele>146.0</ele>
        <time>2021-11-25T10:03:20Z</time>
      </trkpt>
      <trkpt lat="47.552395" lon="1.8456835">
        <ele>146.0</ele>
        <time>2021-11-25T10:03:21Z</time>
      </trkpt>
      <trkpt lat="47.552383" lon="1.8457007">
        <ele>146.0</ele>
        <time>2021-11-25T10:03:22Z</time>
      </trkpt>
      <trkpt lat="47.552372" lon="1.8457137">
        <ele>146.0</ele>
        <time>2021-11-25T10:03:23Z</time>
      </trkpt>
      <trkpt lat="47.55236" lon="1.8457276">
        <ele>146.0</ele>
        <time>2021-11-25T10:03:24Z</time>
      </trkpt>
      <trkpt lat="47.552353" lon="1.845741">
        <ele>145.0</ele>
        <time>2021-11-25T10:03:25Z</time>
      </trkpt>
      <trkpt lat="47.55234" lon="1.8457527">
        <ele>146.0</ele>
        <time>2021-11-25T10:03:26Z</time>
      </trkpt>
      <trkpt lat="47.55233" lon="1.8457645">
        <ele>146.0</ele>
        <time>2021-11-25T10:03:27Z</time>
      </trkpt>
      <trkpt lat="47.552322" lon="1.8457731">
        <ele>146.0</ele>
        <time>2021-11-25T10:03:28Z</time>
      </trkpt>
      <trkpt lat="47.55231" lon="1.8457876">
        <ele>146.0</ele>
        <time>2021-11-25T10:03:29Z</time>
      </trkpt>
      <trkpt lat="47.552303" lon="1.8458047">
        <ele>146.0</ele>
        <time>2021-11-25T10:03:30Z</time>
      </trkpt>
      <trkpt lat="47.55229" lon="1.8458188">
        <ele>145.0</ele>
        <time>2021-11-25T10:03:31Z</time>
      </trkpt>
      <trkpt lat="47.55228" lon="1.8458396">
        <ele>145.0</ele>
        <time>2021-11-25T10:03:32Z</time>
      </trkpt>
      <trkpt lat="47.552273" lon="1.8458576">
        <ele>145.0</ele>
        <time>2021-11-25T10:03:33Z</time>
      </trkpt>
      <trkpt lat="47.55226" lon="1.8458757">
        <ele>145.0</ele>
        <time>2021-11-25T10:03:34Z</time>
      </trkpt>
      <trkpt lat="47.552254" lon="1.8458899">
        <ele>145.0</ele>
        <time>2021-11-25T10:03:35Z</time>
      </trkpt>
      <trkpt lat="47.552246" lon="1.8459015">
        <ele>146.0</ele>
        <time>2021-11-25T10:03:36Z</time>
      </trkpt>
      <trkpt lat="47.552235" lon="1.8459148">
        <ele>146.0</ele>
        <time>2021-11-25T10:03:37Z</time>
      </trkpt>
      <trkpt lat="47.552223" lon="1.8459275">
        <ele>146.0</ele>
        <time>2021-11-25T10:03:38Z</time>
      </trkpt>
      <trkpt lat="47.552208" lon="1.8459423">
        <ele>146.0</ele>
        <time>2021-11-25T10:03:39Z</time>
      </trkpt>
      <trkpt lat="47.5522" lon="1.8459543">
        <ele>146.0</ele>
        <time>2021-11-25T10:03:40Z</time>
      </trkpt>
      <trkpt lat="47.55219" lon="1.845964">
        <ele>146.0</ele>
        <time>2021-11-25T10:03:41Z</time>
      </trkpt>
      <trkpt lat="47.55218" lon="1.8459786">
        <ele>146.0</ele>
        <time>2021-11-25T10:03:42Z</time>
      </trkpt>
      <trkpt lat="47.552174" lon="1.8459905">
        <ele>147.0</ele>
        <time>2021-11-25T10:03:43Z</time>
      </trkpt>
      <trkpt lat="47.552162" lon="1.8460027">
        <ele>147.0</ele>
        <time>2021-11-25T10:03:44Z</time>
      </trkpt>
      <trkpt lat="47.552155" lon="1.8460144">
        <ele>147.0</ele>
        <time>2021-11-25T10:03:45Z</time>
      </trkpt>
      <trkpt lat="47.55215" lon="1.8460295">
        <ele>147.0</ele>
        <time>2021-11-25T10:03:46Z</time>
      </trkpt>
      <trkpt lat="47.552143" lon="1.84604">
        <ele>147.0</ele>
        <time>2021-11-25T10:03:47Z</time>
      </trkpt>
      <trkpt lat="47.552135" lon="1.8460513">
        <ele>147.0</ele>
        <time>2021-11-25T10:03:48Z</time>
      </trkpt>
      <trkpt lat="47.552128" lon="1.8460643">
        <ele>147.0</ele>
        <time>2021-11-25T10:03:49Z</time>
      </trkpt>
      <trkpt lat="47.552113" lon="1.8460727">
        <ele>147.0</ele>
        <time>2021-11-25T10:03:50Z</time>
      </trkpt>
      <trkpt lat="47.552105" lon="1.8460826">
        <ele>147.0</ele>
        <time>2021-11-25T10:03:51Z</time>
      </trkpt>
      <trkpt lat="47.552097" lon="1.8460902">
        <ele>148.0</ele>
        <time>2021-11-25T10:03:52Z</time>
      </trkpt>
      <trkpt lat="47.552086" lon="1.8461037">
        <ele>148.0</ele>
        <time>2021-11-25T10:03:53Z</time>
      </trkpt>
      <trkpt lat="47.552074" lon="1.8461149">
        <ele>148.0</ele>
        <time>2021-11-25T10:03:54Z</time>
      </trkpt>
      <trkpt lat="47.552067" lon="1.8461297">
        <ele>148.0</ele>
        <time>2021-11-25T10:03:55Z</time>
      </trkpt>
      <trkpt lat="47.55206" lon="1.8461401">
        <ele>148.0</ele>
        <time>2021-11-25T10:03:56Z</time>
      </trkpt>
      <trkpt lat="47.552055" lon="1.8461462">
        <ele>148.0</ele>
        <time>2021-11-25T10:03:57Z</time>
      </trkpt>
      <trkpt lat="47.552044" lon="1.8461633">
        <ele>149.0</ele>
        <time>2021-11-25T10:03:58Z</time>
      </trkpt>
      <trkpt lat="47.552036" lon="1.8461823">
        <ele>149.0</ele>
        <time>2021-11-25T10:03:59Z</time>
      </trkpt>
      <trkpt lat="47.55203" lon="1.8461994">
        <ele>149.0</ele>
        <time>2021-11-25T10:04:00Z</time>
      </trkpt>
      <trkpt lat="47.55202" lon="1.8462155">
        <ele>149.0</ele>
        <time>2021-11-25T10:04:01Z</time>
      </trkpt>
      <trkpt lat="47.55201" lon="1.8462293">
        <ele>149.0</ele>
        <time>2021-11-25T10:04:02Z</time>
      </trkpt>
      <trkpt lat="47.552" lon="1.8462433">
        <ele>150.0</ele>
        <time>2021-11-25T10:04:03Z</time>
      </trkpt>
      <trkpt lat="47.551994" lon="1.8462546">
        <ele>150.0</ele>
        <time>2021-11-25T10:04:04Z</time>
      </trkpt>
      <trkpt lat="47.551987" lon="1.8462648">
        <ele>150.0</ele>
        <time>2021-11-25T10:04:05Z</time>
      </trkpt>
      <trkpt lat="47.55197" lon="1.8462775">
        <ele>150.0</ele>
        <time>2021-11-25T10:04:06Z</time>
      </trkpt>
      <trkpt lat="47.551964" lon="1.8462925">
        <ele>150.0</ele>
        <time>2021-11-25T10:04:07Z</time>
      </trkpt>
      <trkpt lat="47.551952" lon="1.8463075">
        <ele>150.0</ele>
        <time>2021-11-25T10:04:08Z</time>
      </trkpt>
      <trkpt lat="47.55194" lon="1.8463218">
        <ele>150.0</ele>
        <time>2021-11-25T10:04:09Z</time>
      </trkpt>
      <trkpt lat="47.55193" lon="1.8463305">
        <ele>150.0</ele>
        <time>2021-11-25T10:04:10Z</time>
      </trkpt>
      <trkpt lat="47.551918" lon="1.8463398">
        <ele>150.0</ele>
        <time>2021-11-25T10:04:11Z</time>
      </trkpt>
      <trkpt lat="47.55191" lon="1.8463533">
        <ele>150.0</ele>
        <time>2021-11-25T10:04:12Z</time>
      </trkpt>
      <trkpt lat="47.551895" lon="1.8463665">
        <ele>150.0</ele>
        <time>2021-11-25T10:04:13Z</time>
      </trkpt>
      <trkpt lat="47.551884" lon="1.8463707">
        <ele>150.0</ele>
        <time>2021-11-25T10:04:14Z</time>
      </trkpt>
      <trkpt lat="47.551872" lon="1.8463799">
        <ele>150.0</ele>
        <time>2021-11-25T10:04:15Z</time>
      </trkpt>
      <trkpt lat="47.55186" lon="1.8463893">
        <ele>150.0</ele>
        <time>2021-11-25T10:04:16Z</time>
      </trkpt>
      <trkpt lat="47.551853" lon="1.8463988">
        <ele>150.0</ele>
        <time>2021-11-25T10:04:17Z</time>
      </trkpt>
      <trkpt lat="47.55184" lon="1.8464124">
        <ele>151.0</ele>
        <time>2021-11-25T10:04:18Z</time>
      </trkpt>
      <trkpt lat="47.55183" lon="1.8464243">
        <ele>151.0</ele>
        <time>2021-11-25T10:04:19Z</time>
      </trkpt>
      <trkpt lat="47.551823" lon="1.8464376">
        <ele>151.0</ele>
        <time>2021-11-25T10:04:20Z</time>
      </trkpt>
      <trkpt lat="47.551815" lon="1.846452">
        <ele>151.0</ele>
        <time>2021-11-25T10:04:21Z</time>
      </trkpt>
      <trkpt lat="47.551804" lon="1.8464625">
        <ele>150.0</ele>
        <time>2021-11-25T10:04:22Z</time>
      </trkpt>
      <trkpt lat="47.551796" lon="1.8464769">
        <ele>150.0</ele>
        <time>2021-11-25T10:04:23Z</time>
      </trkpt>
      <trkpt lat="47.55179" lon="1.8464882">
        <ele>150.0</ele>
        <time>2021-11-25T10:04:24Z</time>
      </trkpt>
      <trkpt lat="47.55178" lon="1.8465003">
        <ele>150.0</ele>
        <time>2021-11-25T10:04:25Z</time>
      </trkpt>
      <trkpt lat="47.551773" lon="1.8465152">
        <ele>150.0</ele>
        <time>2021-11-25T10:04:26Z</time>
      </trkpt>
      <trkpt lat="47.551765" lon="1.8465271">
        <ele>149.0</ele>
        <time>2021-11-25T10:04:27Z</time>
      </trkpt>
      <trkpt lat="47.551758" lon="1.8465413">
        <ele>150.0</ele>
        <time>2021-11-25T10:04:28Z</time>
      </trkpt>
      <trkpt lat="47.551746" lon="1.846555">
        <ele>150.0</ele>
        <time>2021-11-25T10:04:29Z</time>
      </trkpt>
      <trkpt lat="47.55174" lon="1.8465655">
        <ele>150.0</ele>
        <time>2021-11-25T10:04:30Z</time>
      </trkpt>
      <trkpt lat="47.551727" lon="1.8465805">
        <ele>149.0</ele>
        <time>2021-11-25T10:04:31Z</time>
      </trkpt>
      <trkpt lat="47.55172" lon="1.8465943">
        <ele>149.0</ele>
        <time>2021-11-25T10:04:32Z</time>
      </trkpt>
      <trkpt lat="47.55171" lon="1.8466079">
        <ele>149.0</ele>
        <time>2021-11-25T10:04:33Z</time>
      </trkpt>
      <trkpt lat="47.551697" lon="1.8466192">
        <ele>149.0</ele>
        <time>2021-11-25T10:04:34Z</time>
      </trkpt>
      <trkpt lat="47.55169" lon="1.8466282">
        <ele>148.0</ele>
        <time>2021-11-25T10:04:35Z</time>
      </trkpt>
      <trkpt lat="47.551678" lon="1.846637">
        <ele>148.0</ele>
        <time>2021-11-25T10:04:36Z</time>
      </trkpt>
      <trkpt lat="47.551666" lon="1.8466454">
        <ele>148.0</ele>
        <time>2021-11-25T10:04:37Z</time>
      </trkpt>
      <trkpt lat="47.551662" lon="1.846651">
        <ele>149.0</ele>
        <time>2021-11-25T10:04:38Z</time>
      </trkpt>
      <trkpt lat="47.55166" lon="1.8466648">
        <ele>149.0</ele>
        <time>2021-11-25T10:04:39Z</time>
      </trkpt>
      <trkpt lat="47.55165" lon="1.846679">
        <ele>149.0</ele>
        <time>2021-11-25T10:04:40Z</time>
      </trkpt>
      <trkpt lat="47.55164" lon="1.8466948">
        <ele>149.0</ele>
        <time>2021-11-25T10:04:41Z</time>
      </trkpt>
      <trkpt lat="47.55163" lon="1.8467106">
        <ele>149.0</ele>
        <time>2021-11-25T10:04:42Z</time>
      </trkpt>
      <trkpt lat="47.55162" lon="1.8467209">
        <ele>149.0</ele>
        <time>2021-11-25T10:04:43Z</time>
      </trkpt>
      <trkpt lat="47.551617" lon="1.8467318">
        <ele>149.0</ele>
        <time>2021-11-25T10:04:44Z</time>
      </trkpt>
      <trkpt lat="47.551605" lon="1.8467451">
        <ele>149.0</ele>
        <time>2021-11-25T10:04:45Z</time>
      </trkpt>
      <trkpt lat="47.551598" lon="1.8467592">
        <ele>149.0</ele>
        <time>2021-11-25T10:04:46Z</time>
      </trkpt>
      <trkpt lat="47.551586" lon="1.84677">
        <ele>149.0</ele>
        <time>2021-11-25T10:04:47Z</time>
      </trkpt>
      <trkpt lat="47.551575" lon="1.8467809">
        <ele>149.0</ele>
        <time>2021-11-25T10:04:48Z</time>
      </trkpt>
      <trkpt lat="47.551567" lon="1.8467891">
        <ele>149.0</ele>
        <time>2021-11-25T10:04:49Z</time>
      </trkpt>
      <trkpt lat="47.551556" lon="1.8467966">
        <ele>149.0</ele>
        <time>2021-11-25T10:04:50Z</time>
      </trkpt>
      <trkpt lat="47.551544" lon="1.8468075">
        <ele>149.0</ele>
        <time>2021-11-25T10:04:51Z</time>
      </trkpt>
      <trkpt lat="47.551533" lon="1.8468218">
        <ele>149.0</ele>
        <time>2021-11-25T10:04:52Z</time>
      </trkpt>
      <trkpt lat="47.551525" lon="1.8468369">
        <ele>149.0</ele>
        <time>2021-11-25T10:04:53Z</time>
      </trkpt>
      <trkpt lat="47.551517" lon="1.8468478">
        <ele>149.0</ele>
        <time>2021-11-25T10:04:54Z</time>
      </trkpt>
      <trkpt lat="47.551506" lon="1.84686">
        <ele>149.0</ele>
        <time>2021-11-25T10:04:55Z</time>
      </trkpt>
      <trkpt lat="47.5515" lon="1.8468744">
        <ele>149.0</ele>
        <time>2021-11-25T10:04:56Z</time>
      </trkpt>
      <trkpt lat="47.551487" lon="1.846885">
        <ele>150.0</ele>
        <time>2021-11-25T10:04:57Z</time>
      </trkpt>
      <trkpt lat="47.551476" lon="1.8468984">
        <ele>150.0</ele>
        <time>2021-11-25T10:04:58Z</time>
      </trkpt>
      <trkpt lat="47.551464" lon="1.8469105">
        <ele>149.0</ele>
        <time>2021-11-25T10:04:59Z</time>
      </trkpt>
      <trkpt lat="47.551456" lon="1.8469204">
        <ele>149.0</ele>
        <time>2021-11-25T10:05:00Z</time>
      </trkpt>
      <trkpt lat="47.55145" lon="1.846928">
        <ele>149.0</ele>
        <time>2021-11-25T10:05:01Z</time>
      </trkpt>
      <trkpt lat="47.55144" lon="1.8469416">
        <ele>149.0</ele>
        <time>2021-11-25T10:05:02Z</time>
      </trkpt>
      <trkpt lat="47.55143" lon="1.8469572">
        <ele>149.0</ele>
        <time>2021-11-25T10:05:03Z</time>
      </trkpt>
      <trkpt lat="47.55142" lon="1.8469687">
        <ele>149.0</ele>
        <time>2021-11-25T10:05:04Z</time>
      </trkpt>
      <trkpt lat="47.551403" lon="1.8469825">
        <ele>149.0</ele>
        <time>2021-11-25T10:05:05Z</time>
      </trkpt>
      <trkpt lat="47.55139" lon="1.8469948">
        <ele>149.0</ele>
        <time>2021-11-25T10:05:06Z</time>
      </trkpt>
      <trkpt lat="47.551384" lon="1.8470125">
        <ele>148.0</ele>
        <time>2021-11-25T10:05:07Z</time>
      </trkpt>
      <trkpt lat="47.551376" lon="1.8470293">
        <ele>148.0</ele>
        <time>2021-11-25T10:05:08Z</time>
      </trkpt>
      <trkpt lat="47.551365" lon="1.8470418">
        <ele>148.0</ele>
        <time>2021-11-25T10:05:09Z</time>
      </trkpt>
      <trkpt lat="47.551353" lon="1.8470522">
        <ele>148.0</ele>
        <time>2021-11-25T10:05:10Z</time>
      </trkpt>
      <trkpt lat="47.551342" lon="1.8470606">
        <ele>148.0</ele>
        <time>2021-11-25T10:05:11Z</time>
      </trkpt>
      <trkpt lat="47.55133" lon="1.8470621">
        <ele>147.0</ele>
        <time>2021-11-25T10:05:12Z</time>
      </trkpt>
      <trkpt lat="47.551315" lon="1.8470701">
        <ele>147.0</ele>
        <time>2021-11-25T10:05:13Z</time>
      </trkpt>
      <trkpt lat="47.551308" lon="1.8470788">
        <ele>147.0</ele>
        <time>2021-11-25T10:05:14Z</time>
      </trkpt>
      <trkpt lat="47.551296" lon="1.8470831">
        <ele>147.0</ele>
        <time>2021-11-25T10:05:15Z</time>
      </trkpt>
      <trkpt lat="47.551285" lon="1.847089">
        <ele>147.0</ele>
        <time>2021-11-25T10:05:16Z</time>
      </trkpt>
      <trkpt lat="47.55127" lon="1.8470954">
        <ele>147.0</ele>
        <time>2021-11-25T10:05:17Z</time>
      </trkpt>
      <trkpt lat="47.551258" lon="1.8471019">
        <ele>146.0</ele>
        <time>2021-11-25T10:05:18Z</time>
      </trkpt>
      <trkpt lat="47.551247" lon="1.8471087">
        <ele>146.0</ele>
        <time>2021-11-25T10:05:19Z</time>
      </trkpt>
      <trkpt lat="47.55123" lon="1.8471141">
        <ele>146.0</ele>
        <time>2021-11-25T10:05:20Z</time>
      </trkpt>
      <trkpt lat="47.55122" lon="1.8471198">
        <ele>147.0</ele>
        <time>2021-11-25T10:05:21Z</time>
      </trkpt>
      <trkpt lat="47.55121" lon="1.8471261">
        <ele>147.0</ele>
        <time>2021-11-25T10:05:22Z</time>
      </trkpt>
      <trkpt lat="47.551197" lon="1.8471336">
        <ele>146.0</ele>
        <time>2021-11-25T10:05:23Z</time>
      </trkpt>
      <trkpt lat="47.55118" lon="1.8471458">
        <ele>146.0</ele>
        <time>2021-11-25T10:05:24Z</time>
      </trkpt>
      <trkpt lat="47.55117" lon="1.8471506">
        <ele>146.0</ele>
        <time>2021-11-25T10:05:25Z</time>
      </trkpt>
      <trkpt lat="47.55116" lon="1.8471521">
        <ele>145.0</ele>
        <time>2021-11-25T10:05:26Z</time>
      </trkpt>
      <trkpt lat="47.551147" lon="1.8471508">
        <ele>145.0</ele>
        <time>2021-11-25T10:05:27Z</time>
      </trkpt>
      <trkpt lat="47.551136" lon="1.8471466">
        <ele>145.0</ele>
        <time>2021-11-25T10:05:28Z</time>
      </trkpt>
      <trkpt lat="47.551125" lon="1.8471396">
        <ele>145.0</ele>
        <time>2021-11-25T10:05:29Z</time>
      </trkpt>
      <trkpt lat="47.551113" lon="1.8471389">
        <ele>145.0</ele>
        <time>2021-11-25T10:05:30Z</time>
      </trkpt>
      <trkpt lat="47.551098" lon="1.8471409">
        <ele>144.0</ele>
        <time>2021-11-25T10:05:31Z</time>
      </trkpt>
      <trkpt lat="47.551086" lon="1.8471409">
        <ele>144.0</ele>
        <time>2021-11-25T10:05:32Z</time>
      </trkpt>
      <trkpt lat="47.55108" lon="1.8471379">
        <ele>144.0</ele>
        <time>2021-11-25T10:05:33Z</time>
      </trkpt>
      <trkpt lat="47.551067" lon="1.8471411">
        <ele>144.0</ele>
        <time>2021-11-25T10:05:34Z</time>
      </trkpt>
      <trkpt lat="47.551056" lon="1.8471447">
        <ele>144.0</ele>
        <time>2021-11-25T10:05:35Z</time>
      </trkpt>
      <trkpt lat="47.55105" lon="1.8471508">
        <ele>144.0</ele>
        <time>2021-11-25T10:05:36Z</time>
      </trkpt>
      <trkpt lat="47.551037" lon="1.8471541">
        <ele>144.0</ele>
        <time>2021-11-25T10:05:37Z</time>
      </trkpt>
      <trkpt lat="47.551025" lon="1.8471539">
        <ele>144.0</ele>
        <time>2021-11-25T10:05:38Z</time>
      </trkpt>
      <trkpt lat="47.55101" lon="1.847151">
        <ele>145.0</ele>
        <time>2021-11-25T10:05:39Z</time>
      </trkpt>
      <trkpt lat="47.551" lon="1.8471494">
        <ele>145.0</ele>
        <time>2021-11-25T10:05:40Z</time>
      </trkpt>
      <trkpt lat="47.550983" lon="1.8471477">
        <ele>144.0</ele>
        <time>2021-11-25T10:05:41Z</time>
      </trkpt>
      <trkpt lat="47.55097" lon="1.8471488">
        <ele>144.0</ele>
        <time>2021-11-25T10:05:42Z</time>
      </trkpt>
      <trkpt lat="47.550953" lon="1.8471514">
        <ele>144.0</ele>
        <time>2021-11-25T10:05:43Z</time>
      </trkpt>
      <trkpt lat="47.55094" lon="1.847163">
        <ele>144.0</ele>
        <time>2021-11-25T10:05:44Z</time>
      </trkpt>
      <trkpt lat="47.55093" lon="1.8471668">
        <ele>143.0</ele>
        <time>2021-11-25T10:05:45Z</time>
      </trkpt>
      <trkpt lat="47.55092" lon="1.8471692">
        <ele>143.0</ele>
        <time>2021-11-25T10:05:46Z</time>
      </trkpt>
      <trkpt lat="47.550907" lon="1.847171">
        <ele>143.0</ele>
        <time>2021-11-25T10:05:47Z</time>
      </trkpt>
      <trkpt lat="47.550896" lon="1.8471756">
        <ele>143.0</ele>
        <time>2021-11-25T10:05:48Z</time>
      </trkpt>
      <trkpt lat="47.55088" lon="1.8471823">
        <ele>144.0</ele>
        <time>2021-11-25T10:05:49Z</time>
      </trkpt>
      <trkpt lat="47.55087" lon="1.8471845">
        <ele>144.0</ele>
        <time>2021-11-25T10:05:50Z</time>
      </trkpt>
      <trkpt lat="47.550858" lon="1.8471884">
        <ele>144.0</ele>
        <time>2021-11-25T10:05:51Z</time>
      </trkpt>
      <trkpt lat="47.550842" lon="1.84719">
        <ele>144.0</ele>
        <time>2021-11-25T10:05:52Z</time>
      </trkpt>
      <trkpt lat="47.55083" lon="1.8471911">
        <ele>144.0</ele>
        <time>2021-11-25T10:05:53Z</time>
      </trkpt>
      <trkpt lat="47.550823" lon="1.8471909">
        <ele>144.0</ele>
        <time>2021-11-25T10:05:54Z</time>
      </trkpt>
      <trkpt lat="47.55081" lon="1.8471924">
        <ele>144.0</ele>
        <time>2021-11-25T10:05:55Z</time>
      </trkpt>
      <trkpt lat="47.5508" lon="1.8471901">
        <ele>144.0</ele>
        <time>2021-11-25T10:05:56Z</time>
      </trkpt>
      <trkpt lat="47.550793" lon="1.8471942">
        <ele>144.0</ele>
        <time>2021-11-25T10:05:57Z</time>
      </trkpt>
      <trkpt lat="47.550777" lon="1.8471982">
        <ele>143.0</ele>
        <time>2021-11-25T10:05:58Z</time>
      </trkpt>
      <trkpt lat="47.550762" lon="1.847206">
        <ele>143.0</ele>
        <time>2021-11-25T10:05:59Z</time>
      </trkpt>
      <trkpt lat="47.55075" lon="1.8472109">
        <ele>143.0</ele>
        <time>2021-11-25T10:06:00Z</time>
      </trkpt>
      <trkpt lat="47.550735" lon="1.8472152">
        <ele>143.0</ele>
        <time>2021-11-25T10:06:01Z</time>
      </trkpt>
      <trkpt lat="47.55072" lon="1.8472185">
        <ele>143.0</ele>
        <time>2021-11-25T10:06:02Z</time>
      </trkpt>
      <trkpt lat="47.550705" lon="1.8472263">
        <ele>143.0</ele>
        <time>2021-11-25T10:06:03Z</time>
      </trkpt>
      <trkpt lat="47.550694" lon="1.8472285">
        <ele>144.0</ele>
        <time>2021-11-25T10:06:04Z</time>
      </trkpt>
      <trkpt lat="47.55068" lon="1.8472285">
        <ele>144.0</ele>
        <time>2021-11-25T10:06:05Z</time>
      </trkpt>
      <trkpt lat="47.550663" lon="1.8472322">
        <ele>144.0</ele>
        <time>2021-11-25T10:06:06Z</time>
      </trkpt>
      <trkpt lat="47.55065" lon="1.8472329">
        <ele>144.0</ele>
        <time>2021-11-25T10:06:07Z</time>
      </trkpt>
      <trkpt lat="47.550636" lon="1.8472359">
        <ele>144.0</ele>
        <time>2021-11-25T10:06:08Z</time>
      </trkpt>
      <trkpt lat="47.550625" lon="1.8472372">
        <ele>144.0</ele>
        <time>2021-11-25T10:06:09Z</time>
      </trkpt>
      <trkpt lat="47.55061" lon="1.8472396">
        <ele>145.0</ele>
        <time>2021-11-25T10:06:10Z</time>
      </trkpt>
      <trkpt lat="47.550594" lon="1.8472389">
        <ele>145.0</ele>
        <time>2021-11-25T10:06:11Z</time>
      </trkpt>
      <trkpt lat="47.55058" lon="1.8472369">
        <ele>145.0</ele>
        <time>2021-11-25T10:06:12Z</time>
      </trkpt>
      <trkpt lat="47.55057" lon="1.8472356">
        <ele>145.0</ele>
        <time>2021-11-25T10:06:13Z</time>
      </trkpt>
      <trkpt lat="47.550564" lon="1.8472304">
        <ele>145.0</ele>
        <time>2021-11-25T10:06:14Z</time>
      </trkpt>
      <trkpt lat="47.550552" lon="1.8472279">
        <ele>145.0</ele>
        <time>2021-11-25T10:06:15Z</time>
      </trkpt>
      <trkpt lat="47.550537" lon="1.8472235">
        <ele>144.0</ele>
        <time>2021-11-25T10:06:16Z</time>
      </trkpt>
      <trkpt lat="47.55052" lon="1.8472253">
        <ele>144.0</ele>
        <time>2021-11-25T10:06:17Z</time>
      </trkpt>
      <trkpt lat="47.550507" lon="1.8472319">
        <ele>144.0</ele>
        <time>2021-11-25T10:06:18Z</time>
      </trkpt>
      <trkpt lat="47.550495" lon="1.8472372">
        <ele>143.0</ele>
        <time>2021-11-25T10:06:19Z</time>
      </trkpt>
      <trkpt lat="47.550484" lon="1.8472443">
        <ele>143.0</ele>
        <time>2021-11-25T10:06:20Z</time>
      </trkpt>
      <trkpt lat="47.55047" lon="1.8472465">
        <ele>142.0</ele>
        <time>2021-11-25T10:06:21Z</time>
      </trkpt>
      <trkpt lat="47.550457" lon="1.8472497">
        <ele>142.0</ele>
        <time>2021-11-25T10:06:22Z</time>
      </trkpt>
      <trkpt lat="47.55044" lon="1.8472544">
        <ele>142.0</ele>
        <time>2021-11-25T10:06:23Z</time>
      </trkpt>
      <trkpt lat="47.550426" lon="1.8472606">
        <ele>142.0</ele>
        <time>2021-11-25T10:06:24Z</time>
      </trkpt>
      <trkpt lat="47.550415" lon="1.8472685">
        <ele>142.0</ele>
        <time>2021-11-25T10:06:25Z</time>
      </trkpt>
      <trkpt lat="47.550404" lon="1.8472742">
        <ele>142.0</ele>
        <time>2021-11-25T10:06:26Z</time>
      </trkpt>
      <trkpt lat="47.550392" lon="1.8472794">
        <ele>142.0</ele>
        <time>2021-11-25T10:06:27Z</time>
      </trkpt>
      <trkpt lat="47.55038" lon="1.8472832">
        <ele>142.0</ele>
        <time>2021-11-25T10:06:28Z</time>
      </trkpt>
      <trkpt lat="47.550377" lon="1.8472887">
        <ele>142.0</ele>
        <time>2021-11-25T10:06:29Z</time>
      </trkpt>
      <trkpt lat="47.550365" lon="1.8472975">
        <ele>142.0</ele>
        <time>2021-11-25T10:06:30Z</time>
      </trkpt>
      <trkpt lat="47.550354" lon="1.8473084">
        <ele>143.0</ele>
        <time>2021-11-25T10:06:31Z</time>
      </trkpt>
      <trkpt lat="47.550343" lon="1.8473188">
        <ele>143.0</ele>
        <time>2021-11-25T10:06:32Z</time>
      </trkpt>
      <trkpt lat="47.55033" lon="1.8473258">
        <ele>142.0</ele>
        <time>2021-11-25T10:06:33Z</time>
      </trkpt>
      <trkpt lat="47.550323" lon="1.8473313">
        <ele>142.0</ele>
        <time>2021-11-25T10:06:34Z</time>
      </trkpt>
      <trkpt lat="47.550316" lon="1.8473392">
        <ele>142.0</ele>
        <time>2021-11-25T10:06:35Z</time>
      </trkpt>
      <trkpt lat="47.550304" lon="1.847346">
        <ele>141.0</ele>
        <time>2021-11-25T10:06:36Z</time>
      </trkpt>
      <trkpt lat="47.550293" lon="1.8473464">
        <ele>141.0</ele>
        <time>2021-11-25T10:06:37Z</time>
      </trkpt>
      <trkpt lat="47.55028" lon="1.8473495">
        <ele>141.0</ele>
        <time>2021-11-25T10:06:38Z</time>
      </trkpt>
      <trkpt lat="47.55027" lon="1.8473519">
        <ele>141.0</ele>
        <time>2021-11-25T10:06:39Z</time>
      </trkpt>
      <trkpt lat="47.550262" lon="1.8473577">
        <ele>142.0</ele>
        <time>2021-11-25T10:06:40Z</time>
      </trkpt>
      <trkpt lat="47.55025" lon="1.8473681">
        <ele>142.0</ele>
        <time>2021-11-25T10:06:41Z</time>
      </trkpt>
      <trkpt lat="47.550236" lon="1.8473785">
        <ele>142.0</ele>
        <time>2021-11-25T10:06:42Z</time>
      </trkpt>
      <trkpt lat="47.55023" lon="1.8473853">
        <ele>142.0</ele>
        <time>2021-11-25T10:06:43Z</time>
      </trkpt>
      <trkpt lat="47.550213" lon="1.8473946">
        <ele>142.0</ele>
        <time>2021-11-25T10:06:44Z</time>
      </trkpt>
      <trkpt lat="47.550198" lon="1.847403">
        <ele>142.0</ele>
        <time>2021-11-25T10:06:45Z</time>
      </trkpt>
      <trkpt lat="47.550182" lon="1.8474075">
        <ele>143.0</ele>
        <time>2021-11-25T10:06:46Z</time>
      </trkpt>
      <trkpt lat="47.550167" lon="1.8474098">
        <ele>142.0</ele>
        <time>2021-11-25T10:06:47Z</time>
      </trkpt>
      <trkpt lat="47.550156" lon="1.8474153">
        <ele>142.0</ele>
        <time>2021-11-25T10:06:48Z</time>
      </trkpt>
      <trkpt lat="47.55014" lon="1.8474208">
        <ele>143.0</ele>
        <time>2021-11-25T10:06:49Z</time>
      </trkpt>
      <trkpt lat="47.55013" lon="1.847428">
        <ele>143.0</ele>
        <time>2021-11-25T10:06:50Z</time>
      </trkpt>
      <trkpt lat="47.550117" lon="1.8474314">
        <ele>143.0</ele>
        <time>2021-11-25T10:06:51Z</time>
      </trkpt>
      <trkpt lat="47.550102" lon="1.84743">
        <ele>142.0</ele>
        <time>2021-11-25T10:06:52Z</time>
      </trkpt>
      <trkpt lat="47.550087" lon="1.847433">
        <ele>142.0</ele>
        <time>2021-11-25T10:06:53Z</time>
      </trkpt>
      <trkpt lat="47.550076" lon="1.8474416">
        <ele>142.0</ele>
        <time>2021-11-25T10:06:54Z</time>
      </trkpt>
      <trkpt lat="47.55006" lon="1.8474485">
        <ele>142.0</ele>
        <time>2021-11-25T10:06:55Z</time>
      </trkpt>
      <trkpt lat="47.55005" lon="1.8474505">
        <ele>142.0</ele>
        <time>2021-11-25T10:06:56Z</time>
      </trkpt>
      <trkpt lat="47.550034" lon="1.847454">
        <ele>143.0</ele>
        <time>2021-11-25T10:06:57Z</time>
      </trkpt>
      <trkpt lat="47.550022" lon="1.8474575">
        <ele>143.0</ele>
        <time>2021-11-25T10:06:58Z</time>
      </trkpt>
      <trkpt lat="47.550007" lon="1.847457">
        <ele>143.0</ele>
        <time>2021-11-25T10:06:59Z</time>
      </trkpt>
      <trkpt lat="47.54999" lon="1.8474596">
        <ele>143.0</ele>
        <time>2021-11-25T10:07:00Z</time>
      </trkpt>
      <trkpt lat="47.54998" lon="1.8474586">
        <ele>143.0</ele>
        <time>2021-11-25T10:07:01Z</time>
      </trkpt>
      <trkpt lat="47.549965" lon="1.8474605">
        <ele>143.0</ele>
        <time>2021-11-25T10:07:02Z</time>
      </trkpt>
      <trkpt lat="47.54995" lon="1.8474623">
        <ele>144.0</ele>
        <time>2021-11-25T10:07:03Z</time>
      </trkpt>
      <trkpt lat="47.549934" lon="1.8474631">
        <ele>144.0</ele>
        <time>2021-11-25T10:07:04Z</time>
      </trkpt>
      <trkpt lat="47.54992" lon="1.8474628">
        <ele>144.0</ele>
        <time>2021-11-25T10:07:05Z</time>
      </trkpt>
      <trkpt lat="47.549904" lon="1.8474591">
        <ele>144.0</ele>
        <time>2021-11-25T10:07:06Z</time>
      </trkpt>
      <trkpt lat="47.549896" lon="1.847452">
        <ele>143.0</ele>
        <time>2021-11-25T10:07:07Z</time>
      </trkpt>
      <trkpt lat="47.549885" lon="1.8474506">
        <ele>143.0</ele>
        <time>2021-11-25T10:07:08Z</time>
      </trkpt>
      <trkpt lat="47.549873" lon="1.8474537">
        <ele>143.0</ele>
        <time>2021-11-25T10:07:09Z</time>
      </trkpt>
      <trkpt lat="47.549866" lon="1.8474509">
        <ele>143.0</ele>
        <time>2021-11-25T10:07:10Z</time>
      </trkpt>
      <trkpt lat="47.54985" lon="1.8474488">
        <ele>142.0</ele>
        <time>2021-11-25T10:07:11Z</time>
      </trkpt>
      <trkpt lat="47.549843" lon="1.8474437">
        <ele>142.0</ele>
        <time>2021-11-25T10:07:12Z</time>
      </trkpt>
      <trkpt lat="47.549835" lon="1.8474364">
        <ele>142.0</ele>
        <time>2021-11-25T10:07:13Z</time>
      </trkpt>
      <trkpt lat="47.549828" lon="1.8474365">
        <ele>142.0</ele>
        <time>2021-11-25T10:07:14Z</time>
      </trkpt>
      <trkpt lat="47.549816" lon="1.847428">
        <ele>142.0</ele>
        <time>2021-11-25T10:07:15Z</time>
      </trkpt>
      <trkpt lat="47.5498" lon="1.8474283">
        <ele>141.0</ele>
        <time>2021-11-25T10:07:16Z</time>
      </trkpt>
      <trkpt lat="47.54979" lon="1.8474317">
        <ele>141.0</ele>
        <time>2021-11-25T10:07:17Z</time>
      </trkpt>
      <trkpt lat="47.549778" lon="1.8474318">
        <ele>141.0</ele>
        <time>2021-11-25T10:07:18Z</time>
      </trkpt>
      <trkpt lat="47.549763" lon="1.8474295">
        <ele>140.0</ele>
        <time>2021-11-25T10:07:19Z</time>
      </trkpt>
      <trkpt lat="47.549755" lon="1.8474272">
        <ele>140.0</ele>
        <time>2021-11-25T10:07:20Z</time>
      </trkpt>
      <trkpt lat="47.549744" lon="1.8474271">
        <ele>139.0</ele>
        <time>2021-11-25T10:07:21Z</time>
      </trkpt>
      <trkpt lat="47.549732" lon="1.847425">
        <ele>139.0</ele>
        <time>2021-11-25T10:07:22Z</time>
      </trkpt>
      <trkpt lat="47.54972" lon="1.8474269">
        <ele>138.0</ele>
        <time>2021-11-25T10:07:23Z</time>
      </trkpt>
      <trkpt lat="47.549706" lon="1.8474287">
        <ele>138.0</ele>
        <time>2021-11-25T10:07:24Z</time>
      </trkpt>
      <trkpt lat="47.549694" lon="1.8474244">
        <ele>138.0</ele>
        <time>2021-11-25T10:07:25Z</time>
      </trkpt>
      <trkpt lat="47.54968" lon="1.8474196">
        <ele>138.0</ele>
        <time>2021-11-25T10:07:26Z</time>
      </trkpt>
      <trkpt lat="47.549664" lon="1.8474143">
        <ele>137.0</ele>
        <time>2021-11-25T10:07:27Z</time>
      </trkpt>
      <trkpt lat="47.549644" lon="1.8474145">
        <ele>137.0</ele>
        <time>2021-11-25T10:07:28Z</time>
      </trkpt>
      <trkpt lat="47.549633" lon="1.8474139">
        <ele>138.0</ele>
        <time>2021-11-25T10:07:29Z</time>
      </trkpt>
      <trkpt lat="47.549625" lon="1.847415">
        <ele>139.0</ele>
        <time>2021-11-25T10:07:30Z</time>
      </trkpt>
      <trkpt lat="47.54961" lon="1.8474157">
        <ele>139.0</ele>
        <time>2021-11-25T10:07:31Z</time>
      </trkpt>
      <trkpt lat="47.549595" lon="1.8474151">
        <ele>139.0</ele>
        <time>2021-11-25T10:07:32Z</time>
      </trkpt>
      <trkpt lat="47.54958" lon="1.8474165">
        <ele>138.0</ele>
        <time>2021-11-25T10:07:33Z</time>
      </trkpt>
      <trkpt lat="47.54957" lon="1.8474126">
        <ele>138.0</ele>
        <time>2021-11-25T10:07:34Z</time>
      </trkpt>
      <trkpt lat="47.549553" lon="1.8474133">
        <ele>138.0</ele>
        <time>2021-11-25T10:07:35Z</time>
      </trkpt>
      <trkpt lat="47.54954" lon="1.8474174">
        <ele>138.0</ele>
        <time>2021-11-25T10:07:36Z</time>
      </trkpt>
      <trkpt lat="47.549526" lon="1.847415">
        <ele>138.0</ele>
        <time>2021-11-25T10:07:37Z</time>
      </trkpt>
      <trkpt lat="47.54951" lon="1.8474131">
        <ele>138.0</ele>
        <time>2021-11-25T10:07:38Z</time>
      </trkpt>
      <trkpt lat="47.5495" lon="1.8474125">
        <ele>137.0</ele>
        <time>2021-11-25T10:07:39Z</time>
      </trkpt>
      <trkpt lat="47.549488" lon="1.8474114">
        <ele>137.0</ele>
        <time>2021-11-25T10:07:40Z</time>
      </trkpt>
      <trkpt lat="47.549473" lon="1.8474112">
        <ele>137.0</ele>
        <time>2021-11-25T10:07:41Z</time>
      </trkpt>
      <trkpt lat="47.549465" lon="1.8474121">
        <ele>137.0</ele>
        <time>2021-11-25T10:07:42Z</time>
      </trkpt>
      <trkpt lat="47.549454" lon="1.8474162">
        <ele>138.0</ele>
        <time>2021-11-25T10:07:43Z</time>
      </trkpt>
      <trkpt lat="47.549442" lon="1.84742">
        <ele>138.0</ele>
        <time>2021-11-25T10:07:44Z</time>
      </trkpt>
      <trkpt lat="47.54943" lon="1.8474184">
        <ele>138.0</ele>
        <time>2021-11-25T10:07:45Z</time>
      </trkpt>
      <trkpt lat="47.54942" lon="1.8474207">
        <ele>138.0</ele>
        <time>2021-11-25T10:07:46Z</time>
      </trkpt>
      <trkpt lat="47.549408" lon="1.847426">
        <ele>138.0</ele>
        <time>2021-11-25T10:07:47Z</time>
      </trkpt>
      <trkpt lat="47.549393" lon="1.8474308">
        <ele>138.0</ele>
        <time>2021-11-25T10:07:48Z</time>
      </trkpt>
      <trkpt lat="47.54938" lon="1.8474325">
        <ele>139.0</ele>
        <time>2021-11-25T10:07:49Z</time>
      </trkpt>
      <trkpt lat="47.54937" lon="1.8474362">
        <ele>139.0</ele>
        <time>2021-11-25T10:07:50Z</time>
      </trkpt>
      <trkpt lat="47.549355" lon="1.847438">
        <ele>139.0</ele>
        <time>2021-11-25T10:07:51Z</time>
      </trkpt>
      <trkpt lat="47.54934" lon="1.8474463">
        <ele>139.0</ele>
        <time>2021-11-25T10:07:52Z</time>
      </trkpt>
      <trkpt lat="47.549328" lon="1.8474497">
        <ele>139.0</ele>
        <time>2021-11-25T10:07:53Z</time>
      </trkpt>
      <trkpt lat="47.549313" lon="1.8474526">
        <ele>139.0</ele>
        <time>2021-11-25T10:07:54Z</time>
      </trkpt>
      <trkpt lat="47.549297" lon="1.8474522">
        <ele>139.0</ele>
        <time>2021-11-25T10:07:55Z</time>
      </trkpt>
      <trkpt lat="47.549282" lon="1.8474578">
        <ele>139.0</ele>
        <time>2021-11-25T10:07:56Z</time>
      </trkpt>
      <trkpt lat="47.549267" lon="1.8474613">
        <ele>139.0</ele>
        <time>2021-11-25T10:07:57Z</time>
      </trkpt>
      <trkpt lat="47.54925" lon="1.8474612">
        <ele>139.0</ele>
        <time>2021-11-25T10:07:58Z</time>
      </trkpt>
      <trkpt lat="47.549236" lon="1.8474579">
        <ele>139.0</ele>
        <time>2021-11-25T10:07:59Z</time>
      </trkpt>
      <trkpt lat="47.549225" lon="1.8474526">
        <ele>139.0</ele>
        <time>2021-11-25T10:08:00Z</time>
      </trkpt>
      <trkpt lat="47.54921" lon="1.8474503">
        <ele>139.0</ele>
        <time>2021-11-25T10:08:01Z</time>
      </trkpt>
      <trkpt lat="47.549202" lon="1.8474493">
        <ele>139.0</ele>
        <time>2021-11-25T10:08:02Z</time>
      </trkpt>
      <trkpt lat="47.549187" lon="1.8474481">
        <ele>139.0</ele>
        <time>2021-11-25T10:08:03Z</time>
      </trkpt>
      <trkpt lat="47.549175" lon="1.8474503">
        <ele>139.0</ele>
        <time>2021-11-25T10:08:04Z</time>
      </trkpt>
      <trkpt lat="47.54916" lon="1.8474524">
        <ele>139.0</ele>
        <time>2021-11-25T10:08:05Z</time>
      </trkpt>
      <trkpt lat="47.549145" lon="1.8474553">
        <ele>139.0</ele>
        <time>2021-11-25T10:08:06Z</time>
      </trkpt>
      <trkpt lat="47.54913" lon="1.847462">
        <ele>139.0</ele>
        <time>2021-11-25T10:08:07Z</time>
      </trkpt>
      <trkpt lat="47.549114" lon="1.8474667">
        <ele>139.0</ele>
        <time>2021-11-25T10:08:08Z</time>
      </trkpt>
      <trkpt lat="47.549103" lon="1.8474697">
        <ele>139.0</ele>
        <time>2021-11-25T10:08:09Z</time>
      </trkpt>
      <trkpt lat="47.549088" lon="1.8474689">
        <ele>139.0</ele>
        <time>2021-11-25T10:08:10Z</time>
      </trkpt>
      <trkpt lat="47.549076" lon="1.8474698">
        <ele>140.0</ele>
        <time>2021-11-25T10:08:11Z</time>
      </trkpt>
      <trkpt lat="47.549065" lon="1.8474702">
        <ele>139.0</ele>
        <time>2021-11-25T10:08:12Z</time>
      </trkpt>
      <trkpt lat="47.54905" lon="1.8474727">
        <ele>139.0</ele>
        <time>2021-11-25T10:08:13Z</time>
      </trkpt>
      <trkpt lat="47.54904" lon="1.847471">
        <ele>139.0</ele>
        <time>2021-11-25T10:08:14Z</time>
      </trkpt>
      <trkpt lat="47.549026" lon="1.8474741">
        <ele>140.0</ele>
        <time>2021-11-25T10:08:15Z</time>
      </trkpt>
      <trkpt lat="47.54901" lon="1.8474754">
        <ele>140.0</ele>
        <time>2021-11-25T10:08:16Z</time>
      </trkpt>
      <trkpt lat="47.549" lon="1.8474743">
        <ele>140.0</ele>
        <time>2021-11-25T10:08:17Z</time>
      </trkpt>
      <trkpt lat="47.54899" lon="1.8474672">
        <ele>140.0</ele>
        <time>2021-11-25T10:08:18Z</time>
      </trkpt>
      <trkpt lat="47.548977" lon="1.8474627">
        <ele>139.0</ele>
        <time>2021-11-25T10:08:19Z</time>
      </trkpt>
      <trkpt lat="47.54896" lon="1.8474599">
        <ele>139.0</ele>
        <time>2021-11-25T10:08:20Z</time>
      </trkpt>
      <trkpt lat="47.54895" lon="1.8474578">
        <ele>139.0</ele>
        <time>2021-11-25T10:08:21Z</time>
      </trkpt>
      <trkpt lat="47.548935" lon="1.8474572">
        <ele>139.0</ele>
        <time>2021-11-25T10:08:22Z</time>
      </trkpt>
      <trkpt lat="47.54892" lon="1.8474663">
        <ele>139.0</ele>
        <time>2021-11-25T10:08:23Z</time>
      </trkpt>
      <trkpt lat="47.548904" lon="1.8474721">
        <ele>139.0</ele>
        <time>2021-11-25T10:08:24Z</time>
      </trkpt>
      <trkpt lat="47.548893" lon="1.8474749">
        <ele>139.0</ele>
        <time>2021-11-25T10:08:25Z</time>
      </trkpt>
      <trkpt lat="47.54888" lon="1.8474739">
        <ele>139.0</ele>
        <time>2021-11-25T10:08:26Z</time>
      </trkpt>
      <trkpt lat="47.54887" lon="1.847471">
        <ele>139.0</ele>
        <time>2021-11-25T10:08:27Z</time>
      </trkpt>
      <trkpt lat="47.548855" lon="1.8474702">
        <ele>138.0</ele>
        <time>2021-11-25T10:08:28Z</time>
      </trkpt>
      <trkpt lat="47.54884" lon="1.8474727">
        <ele>138.0</ele>
        <time>2021-11-25T10:08:29Z</time>
      </trkpt>
      <trkpt lat="47.548824" lon="1.8474698">
        <ele>138.0</ele>
        <time>2021-11-25T10:08:30Z</time>
      </trkpt>
      <trkpt lat="47.548813" lon="1.8474665">
        <ele>138.0</ele>
        <time>2021-11-25T10:08:31Z</time>
      </trkpt>
      <trkpt lat="47.5488" lon="1.8474617">
        <ele>138.0</ele>
        <time>2021-11-25T10:08:32Z</time>
      </trkpt>
      <trkpt lat="47.54879" lon="1.8474561">
        <ele>138.0</ele>
        <time>2021-11-25T10:08:33Z</time>
      </trkpt>
      <trkpt lat="47.548782" lon="1.847456">
        <ele>137.0</ele>
        <time>2021-11-25T10:08:34Z</time>
      </trkpt>
      <trkpt lat="47.548775" lon="1.8474563">
        <ele>137.0</ele>
        <time>2021-11-25T10:08:35Z</time>
      </trkpt>
      <trkpt lat="47.548763" lon="1.847453">
        <ele>137.0</ele>
        <time>2021-11-25T10:08:36Z</time>
      </trkpt>
      <trkpt lat="47.548748" lon="1.8474535">
        <ele>137.0</ele>
        <time>2021-11-25T10:08:37Z</time>
      </trkpt>
      <trkpt lat="47.548733" lon="1.8474505">
        <ele>136.0</ele>
        <time>2021-11-25T10:08:38Z</time>
      </trkpt>
      <trkpt lat="47.54872" lon="1.8474467">
        <ele>136.0</ele>
        <time>2021-11-25T10:08:39Z</time>
      </trkpt>
      <trkpt lat="47.54871" lon="1.8474458">
        <ele>136.0</ele>
        <time>2021-11-25T10:08:40Z</time>
      </trkpt>
      <trkpt lat="47.5487" lon="1.8474367">
        <ele>136.0</ele>
        <time>2021-11-25T10:08:41Z</time>
      </trkpt>
      <trkpt lat="47.548687" lon="1.8474314">
        <ele>136.0</ele>
        <time>2021-11-25T10:08:42Z</time>
      </trkpt>
      <trkpt lat="47.54867" lon="1.8474275">
        <ele>136.0</ele>
        <time>2021-11-25T10:08:43Z</time>
      </trkpt>
      <trkpt lat="47.548656" lon="1.8474271">
        <ele>136.0</ele>
        <time>2021-11-25T10:08:44Z</time>
      </trkpt>
      <trkpt lat="47.548645" lon="1.8474305">
        <ele>136.0</ele>
        <time>2021-11-25T10:08:45Z</time>
      </trkpt>
      <trkpt lat="47.54863" lon="1.8474343">
        <ele>136.0</ele>
        <time>2021-11-25T10:08:46Z</time>
      </trkpt>
      <trkpt lat="47.548615" lon="1.8474362">
        <ele>136.0</ele>
        <time>2021-11-25T10:08:47Z</time>
      </trkpt>
      <trkpt lat="47.548603" lon="1.8474379">
        <ele>136.0</ele>
        <time>2021-11-25T10:08:48Z</time>
      </trkpt>
      <trkpt lat="47.54859" lon="1.8474425">
        <ele>136.0</ele>
        <time>2021-11-25T10:08:49Z</time>
      </trkpt>
      <trkpt lat="47.54858" lon="1.8474451">
        <ele>136.0</ele>
        <time>2021-11-25T10:08:50Z</time>
      </trkpt>
      <trkpt lat="47.54857" lon="1.8474466">
        <ele>135.0</ele>
        <time>2021-11-25T10:08:51Z</time>
      </trkpt>
      <trkpt lat="47.54856" lon="1.8474498">
        <ele>135.0</ele>
        <time>2021-11-25T10:08:52Z</time>
      </trkpt>
      <trkpt lat="47.548546" lon="1.8474553">
        <ele>135.0</ele>
        <time>2021-11-25T10:08:53Z</time>
      </trkpt>
      <trkpt lat="47.54853" lon="1.8474578">
        <ele>135.0</ele>
        <time>2021-11-25T10:08:54Z</time>
      </trkpt>
      <trkpt lat="47.54852" lon="1.8474575">
        <ele>134.0</ele>
        <time>2021-11-25T10:08:55Z</time>
      </trkpt>
      <trkpt lat="47.54851" lon="1.847455">
        <ele>134.0</ele>
        <time>2021-11-25T10:08:56Z</time>
      </trkpt>
      <trkpt lat="47.5485" lon="1.8474501">
        <ele>134.0</ele>
        <time>2021-11-25T10:08:57Z</time>
      </trkpt>
      <trkpt lat="47.54849" lon="1.8474461">
        <ele>134.0</ele>
        <time>2021-11-25T10:08:58Z</time>
      </trkpt>
      <trkpt lat="47.548477" lon="1.8474445">
        <ele>134.0</ele>
        <time>2021-11-25T10:08:59Z</time>
      </trkpt>
      <trkpt lat="47.548466" lon="1.8474463">
        <ele>134.0</ele>
        <time>2021-11-25T10:09:00Z</time>
      </trkpt>
      <trkpt lat="47.548454" lon="1.8474528">
        <ele>134.0</ele>
        <time>2021-11-25T10:09:01Z</time>
      </trkpt>
      <trkpt lat="47.548443" lon="1.8474586">
        <ele>133.0</ele>
        <time>2021-11-25T10:09:02Z</time>
      </trkpt>
      <trkpt lat="47.548428" lon="1.8474572">
        <ele>133.0</ele>
        <time>2021-11-25T10:09:03Z</time>
      </trkpt>
      <trkpt lat="47.548416" lon="1.8474617">
        <ele>133.0</ele>
        <time>2021-11-25T10:09:04Z</time>
      </trkpt>
      <trkpt lat="47.548405" lon="1.8474656">
        <ele>133.0</ele>
        <time>2021-11-25T10:09:05Z</time>
      </trkpt>
      <trkpt lat="47.548393" lon="1.8474578">
        <ele>133.0</ele>
        <time>2021-11-25T10:09:06Z</time>
      </trkpt>
      <trkpt lat="47.54838" lon="1.8474529">
        <ele>132.0</ele>
        <time>2021-11-25T10:09:07Z</time>
      </trkpt>
      <trkpt lat="47.548374" lon="1.8474522">
        <ele>132.0</ele>
        <time>2021-11-25T10:09:08Z</time>
      </trkpt>
      <trkpt lat="47.548363" lon="1.8474513">
        <ele>132.0</ele>
        <time>2021-11-25T10:09:09Z</time>
      </trkpt>
      <trkpt lat="47.54835" lon="1.8474483">
        <ele>132.0</ele>
        <time>2021-11-25T10:09:10Z</time>
      </trkpt>
      <trkpt lat="47.54834" lon="1.8474498">
        <ele>132.0</ele>
        <time>2021-11-25T10:09:11Z</time>
      </trkpt>
      <trkpt lat="47.548332" lon="1.8474473">
        <ele>132.0</ele>
        <time>2021-11-25T10:09:12Z</time>
      </trkpt>
      <trkpt lat="47.54832" lon="1.8474435">
        <ele>132.0</ele>
        <time>2021-11-25T10:09:13Z</time>
      </trkpt>
      <trkpt lat="47.548313" lon="1.8474439">
        <ele>132.0</ele>
        <time>2021-11-25T10:09:14Z</time>
      </trkpt>
      <trkpt lat="47.548298" lon="1.8474452">
        <ele>132.0</ele>
        <time>2021-11-25T10:09:15Z</time>
      </trkpt>
      <trkpt lat="47.548286" lon="1.8474467">
        <ele>132.0</ele>
        <time>2021-11-25T10:09:16Z</time>
      </trkpt>
      <trkpt lat="47.54828" lon="1.8474483">
        <ele>132.0</ele>
        <time>2021-11-25T10:09:17Z</time>
      </trkpt>
      <trkpt lat="47.548267" lon="1.8474487">
        <ele>132.0</ele>
        <time>2021-11-25T10:09:18Z</time>
      </trkpt>
      <trkpt lat="47.548252" lon="1.8474461">
        <ele>131.0</ele>
        <time>2021-11-25T10:09:19Z</time>
      </trkpt>
      <trkpt lat="47.548237" lon="1.8474501">
        <ele>131.0</ele>
        <time>2021-11-25T10:09:20Z</time>
      </trkpt>
      <trkpt lat="47.54822" lon="1.8474486">
        <ele>131.0</ele>
        <time>2021-11-25T10:09:21Z</time>
      </trkpt>
      <trkpt lat="47.548206" lon="1.8474479">
        <ele>131.0</ele>
        <time>2021-11-25T10:09:22Z</time>
      </trkpt>
      <trkpt lat="47.548195" lon="1.8474443">
        <ele>131.0</ele>
        <time>2021-11-25T10:09:23Z</time>
      </trkpt>
      <trkpt lat="47.548187" lon="1.8474411">
        <ele>131.0</ele>
        <time>2021-11-25T10:09:24Z</time>
      </trkpt>
      <trkpt lat="47.548176" lon="1.8474424">
        <ele>131.0</ele>
        <time>2021-11-25T10:09:25Z</time>
      </trkpt>
      <trkpt lat="47.54816" lon="1.8474349">
        <ele>131.0</ele>
        <time>2021-11-25T10:09:26Z</time>
      </trkpt>
      <trkpt lat="47.54815" lon="1.8474343">
        <ele>132.0</ele>
        <time>2021-11-25T10:09:27Z</time>
      </trkpt>
      <trkpt lat="47.548138" lon="1.8474375">
        <ele>131.0</ele>
        <time>2021-11-25T10:09:28Z</time>
      </trkpt>
      <trkpt lat="47.548122" lon="1.8474398">
        <ele>131.0</ele>
        <time>2021-11-25T10:09:29Z</time>
      </trkpt>
      <trkpt lat="47.54811" lon="1.8474367">
        <ele>132.0</ele>
        <time>2021-11-25T10:09:30Z</time>
      </trkpt>
      <trkpt lat="47.548096" lon="1.8474375">
        <ele>131.0</ele>
        <time>2021-11-25T10:09:31Z</time>
      </trkpt>
      <trkpt lat="47.54808" lon="1.8474368">
        <ele>131.0</ele>
        <time>2021-11-25T10:09:32Z</time>
      </trkpt>
      <trkpt lat="47.548065" lon="1.8474376">
        <ele>131.0</ele>
        <time>2021-11-25T10:09:33Z</time>
      </trkpt>
      <trkpt lat="47.548058" lon="1.8474388">
        <ele>131.0</ele>
        <time>2021-11-25T10:09:34Z</time>
      </trkpt>
      <trkpt lat="47.548046" lon="1.8474371">
        <ele>131.0</ele>
        <time>2021-11-25T10:09:35Z</time>
      </trkpt>
      <trkpt lat="47.548035" lon="1.847434">
        <ele>131.0</ele>
        <time>2021-11-25T10:09:36Z</time>
      </trkpt>
      <trkpt lat="47.548027" lon="1.8474352">
        <ele>130.0</ele>
        <time>2021-11-25T10:09:37Z</time>
      </trkpt>
      <trkpt lat="47.548016" lon="1.8474306">
        <ele>130.0</ele>
        <time>2021-11-25T10:09:38Z</time>
      </trkpt>
      <trkpt lat="47.548004" lon="1.8474281">
        <ele>130.0</ele>
        <time>2021-11-25T10:09:39Z</time>
      </trkpt>
      <trkpt lat="47.547997" lon="1.8474265">
        <ele>129.0</ele>
        <time>2021-11-25T10:09:40Z</time>
      </trkpt>
      <trkpt lat="47.547985" lon="1.8474256">
        <ele>129.0</ele>
        <time>2021-11-25T10:09:41Z</time>
      </trkpt>
      <trkpt lat="47.547974" lon="1.8474227">
        <ele>128.0</ele>
        <time>2021-11-25T10:09:42Z</time>
      </trkpt>
      <trkpt lat="47.547962" lon="1.8474228">
        <ele>128.0</ele>
        <time>2021-11-25T10:09:43Z</time>
      </trkpt>
      <trkpt lat="47.547947" lon="1.8474246">
        <ele>128.0</ele>
        <time>2021-11-25T10:09:44Z</time>
      </trkpt>
      <trkpt lat="47.547935" lon="1.8474269">
        <ele>128.0</ele>
        <time>2021-11-25T10:09:45Z</time>
      </trkpt>
      <trkpt lat="47.54792" lon="1.8474283">
        <ele>128.0</ele>
        <time>2021-11-25T10:09:46Z</time>
      </trkpt>
      <trkpt lat="47.547905" lon="1.8474307">
        <ele>128.0</ele>
        <time>2021-11-25T10:09:47Z</time>
      </trkpt>
      <trkpt lat="47.54789" lon="1.8474292">
        <ele>128.0</ele>
        <time>2021-11-25T10:09:48Z</time>
      </trkpt>
      <trkpt lat="47.547874" lon="1.8474225">
        <ele>128.0</ele>
        <time>2021-11-25T10:09:49Z</time>
      </trkpt>
      <trkpt lat="47.54786" lon="1.8474202">
        <ele>128.0</ele>
        <time>2021-11-25T10:09:50Z</time>
      </trkpt>
      <trkpt lat="47.547848" lon="1.8474203">
        <ele>128.0</ele>
        <time>2021-11-25T10:09:51Z</time>
      </trkpt>
      <trkpt lat="47.547832" lon="1.8474224">
        <ele>128.0</ele>
        <time>2021-11-25T10:09:52Z</time>
      </trkpt>
      <trkpt lat="47.547817" lon="1.847425">
        <ele>128.0</ele>
        <time>2021-11-25T10:09:53Z</time>
      </trkpt>
      <trkpt lat="47.547802" lon="1.847426">
        <ele>129.0</ele>
        <time>2021-11-25T10:09:54Z</time>
      </trkpt>
      <trkpt lat="47.547787" lon="1.847421">
        <ele>129.0</ele>
        <time>2021-11-25T10:09:55Z</time>
      </trkpt>
      <trkpt lat="47.54777" lon="1.8474231">
        <ele>129.0</ele>
        <time>2021-11-25T10:09:56Z</time>
      </trkpt>
      <trkpt lat="47.547752" lon="1.8474215">
        <ele>130.0</ele>
        <time>2021-11-25T10:09:57Z</time>
      </trkpt>
      <trkpt lat="47.547733" lon="1.8474252">
        <ele>131.0</ele>
        <time>2021-11-25T10:09:58Z</time>
      </trkpt>
      <trkpt lat="47.54772" lon="1.8474263">
        <ele>131.0</ele>
        <time>2021-11-25T10:09:59Z</time>
      </trkpt>
      <trkpt lat="47.54771" lon="1.8474232">
        <ele>131.0</ele>
        <time>2021-11-25T10:10:00Z</time>
      </trkpt>
      <trkpt lat="47.547695" lon="1.8474236">
        <ele>131.0</ele>
        <time>2021-11-25T10:10:01Z</time>
      </trkpt>
      <trkpt lat="47.547684" lon="1.847422">
        <ele>131.0</ele>
        <time>2021-11-25T10:10:02Z</time>
      </trkpt>
      <trkpt lat="47.547672" lon="1.8474213">
        <ele>131.0</ele>
        <time>2021-11-25T10:10:03Z</time>
      </trkpt>
      <trkpt lat="47.547657" lon="1.8474228">
        <ele>131.0</ele>
        <time>2021-11-25T10:10:04Z</time>
      </trkpt>
      <trkpt lat="47.547646" lon="1.8474224">
        <ele>131.0</ele>
        <time>2021-11-25T10:10:05Z</time>
      </trkpt>
      <trkpt lat="47.547634" lon="1.8474196">
        <ele>131.0</ele>
        <time>2021-11-25T10:10:06Z</time>
      </trkpt>
      <trkpt lat="47.547623" lon="1.8474187">
        <ele>131.0</ele>
        <time>2021-11-25T10:10:07Z</time>
      </trkpt>
      <trkpt lat="47.547607" lon="1.8474205">
        <ele>131.0</ele>
        <time>2021-11-25T10:10:08Z</time>
      </trkpt>
      <trkpt lat="47.547596" lon="1.8474208">
        <ele>131.0</ele>
        <time>2021-11-25T10:10:09Z</time>
      </trkpt>
      <trkpt lat="47.54759" lon="1.8474232">
        <ele>131.0</ele>
        <time>2021-11-25T10:10:10Z</time>
      </trkpt>
      <trkpt lat="47.547577" lon="1.8474259">
        <ele>131.0</ele>
        <time>2021-11-25T10:10:11Z</time>
      </trkpt>
      <trkpt lat="47.54756" lon="1.8474244">
        <ele>131.0</ele>
        <time>2021-11-25T10:10:12Z</time>
      </trkpt>
      <trkpt lat="47.547546" lon="1.8474194">
        <ele>131.0</ele>
        <time>2021-11-25T10:10:13Z</time>
      </trkpt>
      <trkpt lat="47.547535" lon="1.8474151">
        <ele>131.0</ele>
        <time>2021-11-25T10:10:14Z</time>
      </trkpt>
      <trkpt lat="47.547523" lon="1.8474131">
        <ele>131.0</ele>
        <time>2021-11-25T10:10:15Z</time>
      </trkpt>
      <trkpt lat="47.547516" lon="1.8474113">
        <ele>130.0</ele>
        <time>2021-11-25T10:10:16Z</time>
      </trkpt>
      <trkpt lat="47.5475" lon="1.8474157">
        <ele>131.0</ele>
        <time>2021-11-25T10:10:17Z</time>
      </trkpt>
      <trkpt lat="47.54749" lon="1.8474172">
        <ele>131.0</ele>
        <time>2021-11-25T10:10:18Z</time>
      </trkpt>
      <trkpt lat="47.547478" lon="1.8474208">
        <ele>130.0</ele>
        <time>2021-11-25T10:10:19Z</time>
      </trkpt>
      <trkpt lat="47.54747" lon="1.8474196">
        <ele>131.0</ele>
        <time>2021-11-25T10:10:20Z</time>
      </trkpt>
      <trkpt lat="47.547455" lon="1.8474146">
        <ele>131.0</ele>
        <time>2021-11-25T10:10:21Z</time>
      </trkpt>
      <trkpt lat="47.547443" lon="1.8474177">
        <ele>131.0</ele>
        <time>2021-11-25T10:10:22Z</time>
      </trkpt>
      <trkpt lat="47.54743" lon="1.8474193">
        <ele>131.0</ele>
        <time>2021-11-25T10:10:23Z</time>
      </trkpt>
      <trkpt lat="47.547417" lon="1.8474149">
        <ele>131.0</ele>
        <time>2021-11-25T10:10:24Z</time>
      </trkpt>
      <trkpt lat="47.547405" lon="1.84741">
        <ele>132.0</ele>
        <time>2021-11-25T10:10:25Z</time>
      </trkpt>
      <trkpt lat="47.547394" lon="1.847405">
        <ele>132.0</ele>
        <time>2021-11-25T10:10:26Z</time>
      </trkpt>
      <trkpt lat="47.54738" lon="1.8474075">
        <ele>133.0</ele>
        <time>2021-11-25T10:10:27Z</time>
      </trkpt>
      <trkpt lat="47.547367" lon="1.8474091">
        <ele>133.0</ele>
        <time>2021-11-25T10:10:28Z</time>
      </trkpt>
      <trkpt lat="47.547356" lon="1.8474066">
        <ele>132.0</ele>
        <time>2021-11-25T10:10:29Z</time>
      </trkpt>
      <trkpt lat="47.547344" lon="1.8474058">
        <ele>132.0</ele>
        <time>2021-11-25T10:10:30Z</time>
      </trkpt>
      <trkpt lat="47.547333" lon="1.8474032">
        <ele>132.0</ele>
        <time>2021-11-25T10:10:31Z</time>
      </trkpt>
      <trkpt lat="47.547325" lon="1.8473973">
        <ele>132.0</ele>
        <time>2021-11-25T10:10:32Z</time>
      </trkpt>
      <trkpt lat="47.547314" lon="1.8473953">
        <ele>132.0</ele>
        <time>2021-11-25T10:10:33Z</time>
      </trkpt>
      <trkpt lat="47.547306" lon="1.847391">
        <ele>132.0</ele>
        <time>2021-11-25T10:10:34Z</time>
      </trkpt>
      <trkpt lat="47.547295" lon="1.8473877">
        <ele>132.0</ele>
        <time>2021-11-25T10:10:35Z</time>
      </trkpt>
      <trkpt lat="47.547283" lon="1.8473852">
        <ele>132.0</ele>
        <time>2021-11-25T10:10:36Z</time>
      </trkpt>
      <trkpt lat="47.547276" lon="1.8473899">
        <ele>133.0</ele>
        <time>2021-11-25T10:10:37Z</time>
      </trkpt>
      <trkpt lat="47.547268" lon="1.8473972">
        <ele>133.0</ele>
        <time>2021-11-25T10:10:38Z</time>
      </trkpt>
      <trkpt lat="47.547256" lon="1.847406">
        <ele>133.0</ele>
        <time>2021-11-25T10:10:39Z</time>
      </trkpt>
      <trkpt lat="47.54724" lon="1.8474171">
        <ele>133.0</ele>
        <time>2021-11-25T10:10:40Z</time>
      </trkpt>
      <trkpt lat="47.547226" lon="1.8474272">
        <ele>133.0</ele>
        <time>2021-11-25T10:10:41Z</time>
      </trkpt>
      <trkpt lat="47.547215" lon="1.8474349">
        <ele>133.0</ele>
        <time>2021-11-25T10:10:42Z</time>
      </trkpt>
      <trkpt lat="47.547203" lon="1.8474445">
        <ele>134.0</ele>
        <time>2021-11-25T10:10:43Z</time>
      </trkpt>
      <trkpt lat="47.547195" lon="1.8474551">
        <ele>134.0</ele>
        <time>2021-11-25T10:10:44Z</time>
      </trkpt>
      <trkpt lat="47.547188" lon="1.8474646">
        <ele>134.0</ele>
        <time>2021-11-25T10:10:45Z</time>
      </trkpt>
      <trkpt lat="47.547176" lon="1.847482">
        <ele>134.0</ele>
        <time>2021-11-25T10:10:46Z</time>
      </trkpt>
      <trkpt lat="47.54717" lon="1.8475018">
        <ele>134.0</ele>
        <time>2021-11-25T10:10:47Z</time>
      </trkpt>
      <trkpt lat="47.547157" lon="1.847521">
        <ele>134.0</ele>
        <time>2021-11-25T10:10:48Z</time>
      </trkpt>
      <trkpt lat="47.547153" lon="1.8475425">
        <ele>134.0</ele>
        <time>2021-11-25T10:10:49Z</time>
      </trkpt>
      <trkpt lat="47.547146" lon="1.8475685">
        <ele>134.0</ele>
        <time>2021-11-25T10:10:50Z</time>
      </trkpt>
      <trkpt lat="47.547142" lon="1.8475909">
        <ele>134.0</ele>
        <time>2021-11-25T10:10:51Z</time>
      </trkpt>
      <trkpt lat="47.54714" lon="1.8476084">
        <ele>134.0</ele>
        <time>2021-11-25T10:10:52Z</time>
      </trkpt>
      <trkpt lat="47.54713" lon="1.8476298">
        <ele>134.0</ele>
        <time>2021-11-25T10:10:53Z</time>
      </trkpt>
      <trkpt lat="47.547127" lon="1.8476497">
        <ele>134.0</ele>
        <time>2021-11-25T10:10:54Z</time>
      </trkpt>
      <trkpt lat="47.547127" lon="1.8476655">
        <ele>134.0</ele>
        <time>2021-11-25T10:10:55Z</time>
      </trkpt>
      <trkpt lat="47.547123" lon="1.8476897">
        <ele>134.0</ele>
        <time>2021-11-25T10:10:56Z</time>
      </trkpt>
      <trkpt lat="47.54712" lon="1.847712">
        <ele>134.0</ele>
        <time>2021-11-25T10:10:57Z</time>
      </trkpt>
      <trkpt lat="47.547115" lon="1.847739">
        <ele>134.0</ele>
        <time>2021-11-25T10:10:58Z</time>
      </trkpt>
      <trkpt lat="47.54711" lon="1.8477638">
        <ele>134.0</ele>
        <time>2021-11-25T10:10:59Z</time>
      </trkpt>
      <trkpt lat="47.547104" lon="1.8477869">
        <ele>134.0</ele>
        <time>2021-11-25T10:11:00Z</time>
      </trkpt>
      <trkpt lat="47.547096" lon="1.8478086">
        <ele>135.0</ele>
        <time>2021-11-25T10:11:01Z</time>
      </trkpt>
      <trkpt lat="47.54709" lon="1.8478296">
        <ele>135.0</ele>
        <time>2021-11-25T10:11:02Z</time>
      </trkpt>
      <trkpt lat="47.54708" lon="1.8478527">
        <ele>135.0</ele>
        <time>2021-11-25T10:11:03Z</time>
      </trkpt>
      <trkpt lat="47.547077" lon="1.8478726">
        <ele>135.0</ele>
        <time>2021-11-25T10:11:04Z</time>
      </trkpt>
      <trkpt lat="47.547073" lon="1.8478925">
        <ele>135.0</ele>
        <time>2021-11-25T10:11:05Z</time>
      </trkpt>
      <trkpt lat="47.547062" lon="1.8479137">
        <ele>136.0</ele>
        <time>2021-11-25T10:11:06Z</time>
      </trkpt>
      <trkpt lat="47.547054" lon="1.8479333">
        <ele>135.0</ele>
        <time>2021-11-25T10:11:07Z</time>
      </trkpt>
      <trkpt lat="47.547054" lon="1.8479521">
        <ele>136.0</ele>
        <time>2021-11-25T10:11:08Z</time>
      </trkpt>
      <trkpt lat="47.54705" lon="1.847973">
        <ele>137.0</ele>
        <time>2021-11-25T10:11:09Z</time>
      </trkpt>
      <trkpt lat="47.547047" lon="1.8479917">
        <ele>136.0</ele>
        <time>2021-11-25T10:11:10Z</time>
      </trkpt>
      <trkpt lat="47.547043" lon="1.8480068">
        <ele>136.0</ele>
        <time>2021-11-25T10:11:11Z</time>
      </trkpt>
      <trkpt lat="47.547035" lon="1.8480242">
        <ele>136.0</ele>
        <time>2021-11-25T10:11:12Z</time>
      </trkpt>
      <trkpt lat="47.54703" lon="1.84804">
        <ele>136.0</ele>
        <time>2021-11-25T10:11:13Z</time>
      </trkpt>
      <trkpt lat="47.547024" lon="1.8480538">
        <ele>136.0</ele>
        <time>2021-11-25T10:11:14Z</time>
      </trkpt>
      <trkpt lat="47.547016" lon="1.8480692">
        <ele>136.0</ele>
        <time>2021-11-25T10:11:15Z</time>
      </trkpt>
      <trkpt lat="47.547016" lon="1.8480909">
        <ele>135.0</ele>
        <time>2021-11-25T10:11:16Z</time>
      </trkpt>
      <trkpt lat="47.547012" lon="1.8481082">
        <ele>136.0</ele>
        <time>2021-11-25T10:11:17Z</time>
      </trkpt>
      <trkpt lat="47.54701" lon="1.8481251">
        <ele>136.0</ele>
        <time>2021-11-25T10:11:18Z</time>
      </trkpt>
      <trkpt lat="47.547005" lon="1.8481417">
        <ele>136.0</ele>
        <time>2021-11-25T10:11:19Z</time>
      </trkpt>
      <trkpt lat="47.547" lon="1.848154">
        <ele>136.0</ele>
        <time>2021-11-25T10:11:20Z</time>
      </trkpt>
      <trkpt lat="47.546993" lon="1.8481698">
        <ele>137.0</ele>
        <time>2021-11-25T10:11:21Z</time>
      </trkpt>
      <trkpt lat="47.546986" lon="1.848189">
        <ele>136.0</ele>
        <time>2021-11-25T10:11:22Z</time>
      </trkpt>
      <trkpt lat="47.54698" lon="1.8482049">
        <ele>136.0</ele>
        <time>2021-11-25T10:11:23Z</time>
      </trkpt>
      <trkpt lat="47.546974" lon="1.848219">
        <ele>136.0</ele>
        <time>2021-11-25T10:11:24Z</time>
      </trkpt>
      <trkpt lat="47.54697" lon="1.8482312">
        <ele>136.0</ele>
        <time>2021-11-25T10:11:25Z</time>
      </trkpt>
      <trkpt lat="47.54696" lon="1.8482474">
        <ele>136.0</ele>
        <time>2021-11-25T10:11:26Z</time>
      </trkpt>
      <trkpt lat="47.546955" lon="1.8482685">
        <ele>137.0</ele>
        <time>2021-11-25T10:11:27Z</time>
      </trkpt>
      <trkpt lat="47.546947" lon="1.8482852">
        <ele>137.0</ele>
        <time>2021-11-25T10:11:28Z</time>
      </trkpt>
      <trkpt lat="47.54694" lon="1.8483036">
        <ele>137.0</ele>
        <time>2021-11-25T10:11:29Z</time>
      </trkpt>
      <trkpt lat="47.546932" lon="1.848325">
        <ele>137.0</ele>
        <time>2021-11-25T10:11:30Z</time>
      </trkpt>
      <trkpt lat="47.546925" lon="1.848344">
        <ele>137.0</ele>
        <time>2021-11-25T10:11:31Z</time>
      </trkpt>
      <trkpt lat="47.546913" lon="1.8483622">
        <ele>137.0</ele>
        <time>2021-11-25T10:11:32Z</time>
      </trkpt>
      <trkpt lat="47.5469" lon="1.8483851">
        <ele>137.0</ele>
        <time>2021-11-25T10:11:33Z</time>
      </trkpt>
      <trkpt lat="47.54689" lon="1.8484066">
        <ele>138.0</ele>
        <time>2021-11-25T10:11:34Z</time>
      </trkpt>
      <trkpt lat="47.546883" lon="1.848425">
        <ele>138.0</ele>
        <time>2021-11-25T10:11:35Z</time>
      </trkpt>
      <trkpt lat="47.54688" lon="1.848444">
        <ele>138.0</ele>
        <time>2021-11-25T10:11:36Z</time>
      </trkpt>
      <trkpt lat="47.54687" lon="1.8484651">
        <ele>139.0</ele>
        <time>2021-11-25T10:11:37Z</time>
      </trkpt>
      <trkpt lat="47.546867" lon="1.8484815">
        <ele>139.0</ele>
        <time>2021-11-25T10:11:38Z</time>
      </trkpt>
      <trkpt lat="47.54686" lon="1.8484993">
        <ele>139.0</ele>
        <time>2021-11-25T10:11:39Z</time>
      </trkpt>
      <trkpt lat="47.546852" lon="1.8485138">
        <ele>139.0</ele>
        <time>2021-11-25T10:11:40Z</time>
      </trkpt>
      <trkpt lat="47.546844" lon="1.8485291">
        <ele>139.0</ele>
        <time>2021-11-25T10:11:41Z</time>
      </trkpt>
      <trkpt lat="47.546837" lon="1.8485472">
        <ele>140.0</ele>
        <time>2021-11-25T10:11:42Z</time>
      </trkpt>
      <trkpt lat="47.54683" lon="1.848565">
        <ele>140.0</ele>
        <time>2021-11-25T10:11:43Z</time>
      </trkpt>
      <trkpt lat="47.546818" lon="1.848578">
        <ele>140.0</ele>
        <time>2021-11-25T10:11:44Z</time>
      </trkpt>
      <trkpt lat="47.54681" lon="1.848594">
        <ele>140.0</ele>
        <time>2021-11-25T10:11:45Z</time>
      </trkpt>
      <trkpt lat="47.546803" lon="1.8486059">
        <ele>140.0</ele>
        <time>2021-11-25T10:11:46Z</time>
      </trkpt>
      <trkpt lat="47.54679" lon="1.8486162">
        <ele>140.0</ele>
        <time>2021-11-25T10:11:47Z</time>
      </trkpt>
      <trkpt lat="47.54678" lon="1.8486278">
        <ele>140.0</ele>
        <time>2021-11-25T10:11:48Z</time>
      </trkpt>
      <trkpt lat="47.546772" lon="1.8486408">
        <ele>140.0</ele>
        <time>2021-11-25T10:11:49Z</time>
      </trkpt>
      <trkpt lat="47.54677" lon="1.8486574">
        <ele>140.0</ele>
        <time>2021-11-25T10:11:50Z</time>
      </trkpt>
      <trkpt lat="47.546764" lon="1.8486737">
        <ele>140.0</ele>
        <time>2021-11-25T10:11:51Z</time>
      </trkpt>
      <trkpt lat="47.54676" lon="1.8486911">
        <ele>140.0</ele>
        <time>2021-11-25T10:11:52Z</time>
      </trkpt>
      <trkpt lat="47.546757" lon="1.8487073">
        <ele>140.0</ele>
        <time>2021-11-25T10:11:53Z</time>
      </trkpt>
      <trkpt lat="47.54675" lon="1.8487253">
        <ele>140.0</ele>
        <time>2021-11-25T10:11:54Z</time>
      </trkpt>
      <trkpt lat="47.546745" lon="1.8487471">
        <ele>140.0</ele>
        <time>2021-11-25T10:11:55Z</time>
      </trkpt>
      <trkpt lat="47.54674" lon="1.8487653">
        <ele>141.0</ele>
        <time>2021-11-25T10:11:56Z</time>
      </trkpt>
      <trkpt lat="47.546738" lon="1.8487824">
        <ele>141.0</ele>
        <time>2021-11-25T10:11:57Z</time>
      </trkpt>
      <trkpt lat="47.54673" lon="1.8487988">
        <ele>141.0</ele>
        <time>2021-11-25T10:11:58Z</time>
      </trkpt>
      <trkpt lat="47.546722" lon="1.8488146">
        <ele>141.0</ele>
        <time>2021-11-25T10:11:59Z</time>
      </trkpt>
      <trkpt lat="47.54672" lon="1.8488302">
        <ele>141.0</ele>
        <time>2021-11-25T10:12:00Z</time>
      </trkpt>
      <trkpt lat="47.546707" lon="1.8488424">
        <ele>141.0</ele>
        <time>2021-11-25T10:12:01Z</time>
      </trkpt>
      <trkpt lat="47.546703" lon="1.8488579">
        <ele>141.0</ele>
        <time>2021-11-25T10:12:02Z</time>
      </trkpt>
      <trkpt lat="47.546696" lon="1.8488666">
        <ele>140.0</ele>
        <time>2021-11-25T10:12:03Z</time>
      </trkpt>
      <trkpt lat="47.54669" lon="1.8488803">
        <ele>141.0</ele>
        <time>2021-11-25T10:12:04Z</time>
      </trkpt>
      <trkpt lat="47.546688" lon="1.848895">
        <ele>141.0</ele>
        <time>2021-11-25T10:12:05Z</time>
      </trkpt>
      <trkpt lat="47.54668" lon="1.84891">
        <ele>141.0</ele>
        <time>2021-11-25T10:12:06Z</time>
      </trkpt>
      <trkpt lat="47.54667" lon="1.8489248">
        <ele>141.0</ele>
        <time>2021-11-25T10:12:07Z</time>
      </trkpt>
      <trkpt lat="47.54666" lon="1.8489419">
        <ele>141.0</ele>
        <time>2021-11-25T10:12:08Z</time>
      </trkpt>
      <trkpt lat="47.546658" lon="1.8489562">
        <ele>141.0</ele>
        <time>2021-11-25T10:12:09Z</time>
      </trkpt>
      <trkpt lat="47.546654" lon="1.8489745">
        <ele>141.0</ele>
        <time>2021-11-25T10:12:10Z</time>
      </trkpt>
      <trkpt lat="47.546642" lon="1.8489937">
        <ele>141.0</ele>
        <time>2021-11-25T10:12:11Z</time>
      </trkpt>
      <trkpt lat="47.54663" lon="1.8490117">
        <ele>142.0</ele>
        <time>2021-11-25T10:12:12Z</time>
      </trkpt>
      <trkpt lat="47.54662" lon="1.8490274">
        <ele>142.0</ele>
        <time>2021-11-25T10:12:13Z</time>
      </trkpt>
      <trkpt lat="47.54661" lon="1.8490429">
        <ele>142.0</ele>
        <time>2021-11-25T10:12:14Z</time>
      </trkpt>
      <trkpt lat="47.546604" lon="1.8490615">
        <ele>141.0</ele>
        <time>2021-11-25T10:12:15Z</time>
      </trkpt>
      <trkpt lat="47.546597" lon="1.8490773">
        <ele>142.0</ele>
        <time>2021-11-25T10:12:16Z</time>
      </trkpt>
      <trkpt lat="47.546593" lon="1.8490939">
        <ele>142.0</ele>
        <time>2021-11-25T10:12:17Z</time>
      </trkpt>
      <trkpt lat="47.546585" lon="1.8491093">
        <ele>141.0</ele>
        <time>2021-11-25T10:12:18Z</time>
      </trkpt>
      <trkpt lat="47.546577" lon="1.8491254">
        <ele>141.0</ele>
        <time>2021-11-25T10:12:19Z</time>
      </trkpt>
      <trkpt lat="47.54657" lon="1.849144">
        <ele>141.0</ele>
        <time>2021-11-25T10:12:20Z</time>
      </trkpt>
      <trkpt lat="47.546562" lon="1.8491579">
        <ele>141.0</ele>
        <time>2021-11-25T10:12:21Z</time>
      </trkpt>
      <trkpt lat="47.54656" lon="1.8491715">
        <ele>141.0</ele>
        <time>2021-11-25T10:12:22Z</time>
      </trkpt>
      <trkpt lat="47.54655" lon="1.8491874">
        <ele>141.0</ele>
        <time>2021-11-25T10:12:23Z</time>
      </trkpt>
      <trkpt lat="47.546547" lon="1.849202">
        <ele>141.0</ele>
        <time>2021-11-25T10:12:24Z</time>
      </trkpt>
      <trkpt lat="47.546543" lon="1.8492143">
        <ele>141.0</ele>
        <time>2021-11-25T10:12:25Z</time>
      </trkpt>
      <trkpt lat="47.54654" lon="1.8492295">
        <ele>141.0</ele>
        <time>2021-11-25T10:12:26Z</time>
      </trkpt>
      <trkpt lat="47.54654" lon="1.8492473">
        <ele>141.0</ele>
        <time>2021-11-25T10:12:27Z</time>
      </trkpt>
      <trkpt lat="47.54653" lon="1.8492593">
        <ele>142.0</ele>
        <time>2021-11-25T10:12:28Z</time>
      </trkpt>
      <trkpt lat="47.546524" lon="1.8492752">
        <ele>143.0</ele>
        <time>2021-11-25T10:12:29Z</time>
      </trkpt>
      <trkpt lat="47.546513" lon="1.8492888">
        <ele>143.0</ele>
        <time>2021-11-25T10:12:30Z</time>
      </trkpt>
      <trkpt lat="47.546505" lon="1.8492924">
        <ele>144.0</ele>
        <time>2021-11-25T10:12:31Z</time>
      </trkpt>
      <trkpt lat="47.546494" lon="1.8493041">
        <ele>144.0</ele>
        <time>2021-11-25T10:12:32Z</time>
      </trkpt>
      <trkpt lat="47.546486" lon="1.8493155">
        <ele>144.0</ele>
        <time>2021-11-25T10:12:33Z</time>
      </trkpt>
      <trkpt lat="47.546474" lon="1.8493268">
        <ele>145.0</ele>
        <time>2021-11-25T10:12:34Z</time>
      </trkpt>
      <trkpt lat="47.546467" lon="1.8493294">
        <ele>145.0</ele>
        <time>2021-11-25T10:12:35Z</time>
      </trkpt>
      <trkpt lat="47.54645" lon="1.8493434">
        <ele>145.0</ele>
        <time>2021-11-25T10:12:36Z</time>
      </trkpt>
      <trkpt lat="47.546444" lon="1.8493539">
        <ele>144.0</ele>
        <time>2021-11-25T10:12:37Z</time>
      </trkpt>
      <trkpt lat="47.54643" lon="1.8493521">
        <ele>144.0</ele>
        <time>2021-11-25T10:12:38Z</time>
      </trkpt>
      <trkpt lat="47.54641" lon="1.8493308">
        <ele>144.0</ele>
        <time>2021-11-25T10:12:39Z</time>
      </trkpt>
      <trkpt lat="47.5464" lon="1.8493127">
        <ele>144.0</ele>
        <time>2021-11-25T10:12:40Z</time>
      </trkpt>
      <trkpt lat="47.5464" lon="1.8493127">
        <ele>144.0</ele>
        <time>2021-11-25T10:12:40Z</time>
      </trkpt>
      <trkpt lat="47.546387" lon="1.8493009">
        <ele>143.0</ele>
        <time>2021-11-25T10:12:42Z</time>
      </trkpt>
      <trkpt lat="47.54638" lon="1.8492914">
        <ele>143.0</ele>
        <time>2021-11-25T10:12:43Z</time>
      </trkpt>
      <trkpt lat="47.54637" lon="1.8492796">
        <ele>143.0</ele>
        <time>2021-11-25T10:12:44Z</time>
      </trkpt>
      <trkpt lat="47.546364" lon="1.8492659">
        <ele>142.0</ele>
        <time>2021-11-25T10:12:45Z</time>
      </trkpt>
      <trkpt lat="47.546356" lon="1.8492599">
        <ele>142.0</ele>
        <time>2021-11-25T10:12:46Z</time>
      </trkpt>
      <trkpt lat="47.54635" lon="1.8492519">
        <ele>142.0</ele>
        <time>2021-11-25T10:12:47Z</time>
      </trkpt>
      <trkpt lat="47.54634" lon="1.8492423">
        <ele>142.0</ele>
        <time>2021-11-25T10:12:48Z</time>
      </trkpt>
      <trkpt lat="47.54633" lon="1.8492309">
        <ele>143.0</ele>
        <time>2021-11-25T10:12:49Z</time>
      </trkpt>
      <trkpt lat="47.546314" lon="1.8492237">
        <ele>142.0</ele>
        <time>2021-11-25T10:12:50Z</time>
      </trkpt>
      <trkpt lat="47.546307" lon="1.8492122">
        <ele>142.0</ele>
        <time>2021-11-25T10:12:51Z</time>
      </trkpt>
      <trkpt lat="47.546295" lon="1.8492024">
        <ele>142.0</ele>
        <time>2021-11-25T10:12:52Z</time>
      </trkpt>
      <trkpt lat="47.546288" lon="1.8491983">
        <ele>142.0</ele>
        <time>2021-11-25T10:12:53Z</time>
      </trkpt>
      <trkpt lat="47.546276" lon="1.8491981">
        <ele>142.0</ele>
        <time>2021-11-25T10:12:54Z</time>
      </trkpt>
      <trkpt lat="47.546253" lon="1.8491843">
        <ele>143.0</ele>
        <time>2021-11-25T10:12:55Z</time>
      </trkpt>
      <trkpt lat="47.546253" lon="1.8491843">
        <ele>143.0</ele>
        <time>2021-11-25T10:12:55Z</time>
      </trkpt>
      <trkpt lat="47.546246" lon="1.8491788">
        <ele>142.0</ele>
        <time>2021-11-25T10:12:57Z</time>
      </trkpt>
      <trkpt lat="47.546238" lon="1.8491741">
        <ele>143.0</ele>
        <time>2021-11-25T10:12:58Z</time>
      </trkpt>
      <trkpt lat="47.546227" lon="1.8491629">
        <ele>143.0</ele>
        <time>2021-11-25T10:12:59Z</time>
      </trkpt>
      <trkpt lat="47.546215" lon="1.8491527">
        <ele>142.0</ele>
        <time>2021-11-25T10:13:00Z</time>
      </trkpt>
      <trkpt lat="47.546196" lon="1.8491297">
        <ele>143.0</ele>
        <time>2021-11-25T10:13:01Z</time>
      </trkpt>
      <trkpt lat="47.54618" lon="1.8491211">
        <ele>143.0</ele>
        <time>2021-11-25T10:13:02Z</time>
      </trkpt>
      <trkpt lat="47.54617" lon="1.8491077">
        <ele>143.0</ele>
        <time>2021-11-25T10:13:03Z</time>
      </trkpt>
      <trkpt lat="47.54617" lon="1.8491077">
        <ele>143.0</ele>
        <time>2021-11-25T10:13:03Z</time>
      </trkpt>
      <trkpt lat="47.546158" lon="1.8491005">
        <ele>143.0</ele>
        <time>2021-11-25T10:13:05Z</time>
      </trkpt>
      <trkpt lat="47.54615" lon="1.8490973">
        <ele>143.0</ele>
        <time>2021-11-25T10:13:06Z</time>
      </trkpt>
      <trkpt lat="47.54614" lon="1.8490908">
        <ele>143.0</ele>
        <time>2021-11-25T10:13:07Z</time>
      </trkpt>
      <trkpt lat="47.546124" lon="1.8490837">
        <ele>143.0</ele>
        <time>2021-11-25T10:13:08Z</time>
      </trkpt>
      <trkpt lat="47.546116" lon="1.8490826">
        <ele>143.0</ele>
        <time>2021-11-25T10:13:09Z</time>
      </trkpt>
      <trkpt lat="47.5461" lon="1.8490773">
        <ele>143.0</ele>
        <time>2021-11-25T10:13:10Z</time>
      </trkpt>
      <trkpt lat="47.546093" lon="1.8490739">
        <ele>143.0</ele>
        <time>2021-11-25T10:13:11Z</time>
      </trkpt>
      <trkpt lat="47.54608" lon="1.8490689">
        <ele>142.0</ele>
        <time>2021-11-25T10:13:12Z</time>
      </trkpt>
      <trkpt lat="47.54607" lon="1.8490621">
        <ele>142.0</ele>
        <time>2021-11-25T10:13:13Z</time>
      </trkpt>
      <trkpt lat="47.546055" lon="1.8490546">
        <ele>141.0</ele>
        <time>2021-11-25T10:13:14Z</time>
      </trkpt>
      <trkpt lat="47.54604" lon="1.8490461">
        <ele>141.0</ele>
        <time>2021-11-25T10:13:15Z</time>
      </trkpt>
      <trkpt lat="47.546024" lon="1.8490423">
        <ele>141.0</ele>
        <time>2021-11-25T10:13:16Z</time>
      </trkpt>
      <trkpt lat="47.546013" lon="1.8490412">
        <ele>141.0</ele>
        <time>2021-11-25T10:13:17Z</time>
      </trkpt>
      <trkpt lat="47.546" lon="1.8490381">
        <ele>141.0</ele>
        <time>2021-11-25T10:13:18Z</time>
      </trkpt>
      <trkpt lat="47.545994" lon="1.8490335">
        <ele>141.0</ele>
        <time>2021-11-25T10:13:19Z</time>
      </trkpt>
      <trkpt lat="47.54598" lon="1.8490306">
        <ele>141.0</ele>
        <time>2021-11-25T10:13:20Z</time>
      </trkpt>
      <trkpt lat="47.54596" lon="1.8490261">
        <ele>140.0</ele>
        <time>2021-11-25T10:13:21Z</time>
      </trkpt>
      <trkpt lat="47.54596" lon="1.8490261">
        <ele>140.0</ele>
        <time>2021-11-25T10:13:21Z</time>
      </trkpt>
      <trkpt lat="47.545948" lon="1.849022">
        <ele>140.0</ele>
        <time>2021-11-25T10:13:23Z</time>
      </trkpt>
      <trkpt lat="47.545925" lon="1.849012">
        <ele>140.0</ele>
        <time>2021-11-25T10:13:24Z</time>
      </trkpt>
      <trkpt lat="47.545925" lon="1.849012">
        <ele>140.0</ele>
        <time>2021-11-25T10:13:24Z</time>
      </trkpt>
      <trkpt lat="47.545902" lon="1.8490025">
        <ele>140.0</ele>
        <time>2021-11-25T10:13:26Z</time>
      </trkpt>
      <trkpt lat="47.54589" lon="1.8490008">
        <ele>140.0</ele>
        <time>2021-11-25T10:13:27Z</time>
      </trkpt>
      <trkpt lat="47.54588" lon="1.8489983">
        <ele>140.0</ele>
        <time>2021-11-25T10:13:28Z</time>
      </trkpt>
      <trkpt lat="47.54588" lon="1.8489983">
        <ele>140.0</ele>
        <time>2021-11-25T10:13:28Z</time>
      </trkpt>
      <trkpt lat="47.545856" lon="1.8489958">
        <ele>140.0</ele>
        <time>2021-11-25T10:13:30Z</time>
      </trkpt>
      <trkpt lat="47.545856" lon="1.8489958">
        <ele>140.0</ele>
        <time>2021-11-25T10:13:30Z</time>
      </trkpt>
      <trkpt lat="47.54583" lon="1.8489826">
        <ele>140.0</ele>
        <time>2021-11-25T10:13:32Z</time>
      </trkpt>
      <trkpt lat="47.545815" lon="1.848977">
        <ele>140.0</ele>
        <time>2021-11-25T10:13:33Z</time>
      </trkpt>
      <trkpt lat="47.545803" lon="1.8489736">
        <ele>140.0</ele>
        <time>2021-11-25T10:13:34Z</time>
      </trkpt>
      <trkpt lat="47.54579" lon="1.8489716">
        <ele>140.0</ele>
        <time>2021-11-25T10:13:35Z</time>
      </trkpt>
      <trkpt lat="47.545784" lon="1.8489625">
        <ele>140.0</ele>
        <time>2021-11-25T10:13:36Z</time>
      </trkpt>
      <trkpt lat="47.545773" lon="1.8489556">
        <ele>140.0</ele>
        <time>2021-11-25T10:13:37Z</time>
      </trkpt>
      <trkpt lat="47.545765" lon="1.8489583">
        <ele>140.0</ele>
        <time>2021-11-25T10:13:38Z</time>
      </trkpt>
      <trkpt lat="47.545753" lon="1.8489594">
        <ele>141.0</ele>
        <time>2021-11-25T10:13:39Z</time>
      </trkpt>
      <trkpt lat="47.545753" lon="1.8489594">
        <ele>141.0</ele>
        <time>2021-11-25T10:13:39Z</time>
      </trkpt>
      <trkpt lat="47.54573" lon="1.8489462">
        <ele>141.0</ele>
        <time>2021-11-25T10:13:41Z</time>
      </trkpt>
      <trkpt lat="47.54572" lon="1.8489383">
        <ele>141.0</ele>
        <time>2021-11-25T10:13:42Z</time>
      </trkpt>
      <trkpt lat="47.54571" lon="1.8489345">
        <ele>141.0</ele>
        <time>2021-11-25T10:13:43Z</time>
      </trkpt>
      <trkpt lat="47.545696" lon="1.8489311">
        <ele>141.0</ele>
        <time>2021-11-25T10:13:44Z</time>
      </trkpt>
      <trkpt lat="47.54569" lon="1.8489294">
        <ele>141.0</ele>
        <time>2021-11-25T10:13:45Z</time>
      </trkpt>
      <trkpt lat="47.54568" lon="1.8489277">
        <ele>141.0</ele>
        <time>2021-11-25T10:13:46Z</time>
      </trkpt>
      <trkpt lat="47.54567" lon="1.8489254">
        <ele>141.0</ele>
        <time>2021-11-25T10:13:47Z</time>
      </trkpt>
      <trkpt lat="47.54566" lon="1.8489244">
        <ele>141.0</ele>
        <time>2021-11-25T10:13:48Z</time>
      </trkpt>
      <trkpt lat="47.54564" lon="1.8489211">
        <ele>140.0</ele>
        <time>2021-11-25T10:13:49Z</time>
      </trkpt>
      <trkpt lat="47.545628" lon="1.848919">
        <ele>140.0</ele>
        <time>2021-11-25T10:13:50Z</time>
      </trkpt>
      <trkpt lat="47.545612" lon="1.8489183">
        <ele>139.0</ele>
        <time>2021-11-25T10:13:51Z</time>
      </trkpt>
      <trkpt lat="47.545612" lon="1.8489183">
        <ele>139.0</ele>
        <time>2021-11-25T10:13:51Z</time>
      </trkpt>
      <trkpt lat="47.54559" lon="1.8489094">
        <ele>140.0</ele>
        <time>2021-11-25T10:13:53Z</time>
      </trkpt>
      <trkpt lat="47.545574" lon="1.8489072">
        <ele>140.0</ele>
        <time>2021-11-25T10:13:54Z</time>
      </trkpt>
      <trkpt lat="47.545563" lon="1.8489056">
        <ele>140.0</ele>
        <time>2021-11-25T10:13:55Z</time>
      </trkpt>
      <trkpt lat="47.54555" lon="1.8489058">
        <ele>141.0</ele>
        <time>2021-11-25T10:13:56Z</time>
      </trkpt>
      <trkpt lat="47.545536" lon="1.8489026">
        <ele>140.0</ele>
        <time>2021-11-25T10:13:57Z</time>
      </trkpt>
      <trkpt lat="47.54552" lon="1.8489057">
        <ele>140.0</ele>
        <time>2021-11-25T10:13:58Z</time>
      </trkpt>
      <trkpt lat="47.545513" lon="1.8489057">
        <ele>140.0</ele>
        <time>2021-11-25T10:13:59Z</time>
      </trkpt>
      <trkpt lat="47.545506" lon="1.8488998">
        <ele>140.0</ele>
        <time>2021-11-25T10:14:00Z</time>
      </trkpt>
      <trkpt lat="47.545494" lon="1.8488942">
        <ele>140.0</ele>
        <time>2021-11-25T10:14:01Z</time>
      </trkpt>
      <trkpt lat="47.545483" lon="1.8488879">
        <ele>139.0</ele>
        <time>2021-11-25T10:14:02Z</time>
      </trkpt>
      <trkpt lat="47.54547" lon="1.8488864">
        <ele>140.0</ele>
        <time>2021-11-25T10:14:03Z</time>
      </trkpt>
      <trkpt lat="47.54546" lon="1.8488826">
        <ele>140.0</ele>
        <time>2021-11-25T10:14:04Z</time>
      </trkpt>
      <trkpt lat="47.545452" lon="1.8488812">
        <ele>141.0</ele>
        <time>2021-11-25T10:14:05Z</time>
      </trkpt>
      <trkpt lat="47.545437" lon="1.8488795">
        <ele>141.0</ele>
        <time>2021-11-25T10:14:06Z</time>
      </trkpt>
      <trkpt lat="47.545425" lon="1.8488759">
        <ele>141.0</ele>
        <time>2021-11-25T10:14:07Z</time>
      </trkpt>
      <trkpt lat="47.545414" lon="1.8488752">
        <ele>141.0</ele>
        <time>2021-11-25T10:14:08Z</time>
      </trkpt>
      <trkpt lat="47.5454" lon="1.8488736">
        <ele>141.0</ele>
        <time>2021-11-25T10:14:09Z</time>
      </trkpt>
      <trkpt lat="47.545387" lon="1.8488733">
        <ele>141.0</ele>
        <time>2021-11-25T10:14:10Z</time>
      </trkpt>
      <trkpt lat="47.545376" lon="1.848879">
        <ele>142.0</ele>
        <time>2021-11-25T10:14:11Z</time>
      </trkpt>
      <trkpt lat="47.54537" lon="1.848884">
        <ele>142.0</ele>
        <time>2021-11-25T10:14:12Z</time>
      </trkpt>
      <trkpt lat="47.545357" lon="1.8488791">
        <ele>142.0</ele>
        <time>2021-11-25T10:14:13Z</time>
      </trkpt>
      <trkpt lat="47.545345" lon="1.8488747">
        <ele>142.0</ele>
        <time>2021-11-25T10:14:14Z</time>
      </trkpt>
      <trkpt lat="47.545334" lon="1.8488698">
        <ele>142.0</ele>
        <time>2021-11-25T10:14:15Z</time>
      </trkpt>
      <trkpt lat="47.545322" lon="1.848867">
        <ele>141.0</ele>
        <time>2021-11-25T10:14:16Z</time>
      </trkpt>
      <trkpt lat="47.54531" lon="1.8488579">
        <ele>141.0</ele>
        <time>2021-11-25T10:14:17Z</time>
      </trkpt>
      <trkpt lat="47.5453" lon="1.8488553">
        <ele>142.0</ele>
        <time>2021-11-25T10:14:18Z</time>
      </trkpt>
      <trkpt lat="47.54529" lon="1.8488482">
        <ele>142.0</ele>
        <time>2021-11-25T10:14:19Z</time>
      </trkpt>
      <trkpt lat="47.54528" lon="1.8488466">
        <ele>141.0</ele>
        <time>2021-11-25T10:14:20Z</time>
      </trkpt>
      <trkpt lat="47.54527" lon="1.8488417">
        <ele>141.0</ele>
        <time>2021-11-25T10:14:21Z</time>
      </trkpt>
      <trkpt lat="47.545258" lon="1.848835">
        <ele>141.0</ele>
        <time>2021-11-25T10:14:22Z</time>
      </trkpt>
      <trkpt lat="47.54525" lon="1.8488325">
        <ele>141.0</ele>
        <time>2021-11-25T10:14:23Z</time>
      </trkpt>
      <trkpt lat="47.545235" lon="1.8488286">
        <ele>140.0</ele>
        <time>2021-11-25T10:14:24Z</time>
      </trkpt>
      <trkpt lat="47.545227" lon="1.8488274">
        <ele>141.0</ele>
        <time>2021-11-25T10:14:25Z</time>
      </trkpt>
      <trkpt lat="47.54522" lon="1.8488191">
        <ele>140.0</ele>
        <time>2021-11-25T10:14:26Z</time>
      </trkpt>
      <trkpt lat="47.54521" lon="1.8488138">
        <ele>141.0</ele>
        <time>2021-11-25T10:14:27Z</time>
      </trkpt>
      <trkpt lat="47.5452" lon="1.8488086">
        <ele>141.0</ele>
        <time>2021-11-25T10:14:28Z</time>
      </trkpt>
      <trkpt lat="47.54519" lon="1.848807">
        <ele>141.0</ele>
        <time>2021-11-25T10:14:29Z</time>
      </trkpt>
      <trkpt lat="47.545177" lon="1.8488134">
        <ele>141.0</ele>
        <time>2021-11-25T10:14:30Z</time>
      </trkpt>
      <trkpt lat="47.545166" lon="1.8488226">
        <ele>142.0</ele>
        <time>2021-11-25T10:14:31Z</time>
      </trkpt>
      <trkpt lat="47.545155" lon="1.8488244">
        <ele>142.0</ele>
        <time>2021-11-25T10:14:32Z</time>
      </trkpt>
      <trkpt lat="47.545147" lon="1.8488283">
        <ele>141.0</ele>
        <time>2021-11-25T10:14:33Z</time>
      </trkpt>
      <trkpt lat="47.54514" lon="1.8488369">
        <ele>141.0</ele>
        <time>2021-11-25T10:14:34Z</time>
      </trkpt>
      <trkpt lat="47.54513" lon="1.848846">
        <ele>141.0</ele>
        <time>2021-11-25T10:14:35Z</time>
      </trkpt>
      <trkpt lat="47.545124" lon="1.848854">
        <ele>140.0</ele>
        <time>2021-11-25T10:14:36Z</time>
      </trkpt>
      <trkpt lat="47.545116" lon="1.848862">
        <ele>140.0</ele>
        <time>2021-11-25T10:14:37Z</time>
      </trkpt>
      <trkpt lat="47.54511" lon="1.8488722">
        <ele>140.0</ele>
        <time>2021-11-25T10:14:38Z</time>
      </trkpt>
      <trkpt lat="47.545097" lon="1.8488799">
        <ele>140.0</ele>
        <time>2021-11-25T10:14:39Z</time>
      </trkpt>
      <trkpt lat="47.545086" lon="1.848887">
        <ele>140.0</ele>
        <time>2021-11-25T10:14:40Z</time>
      </trkpt>
      <trkpt lat="47.545074" lon="1.8488935">
        <ele>139.0</ele>
        <time>2021-11-25T10:14:41Z</time>
      </trkpt>
      <trkpt lat="47.545063" lon="1.8488888">
        <ele>139.0</ele>
        <time>2021-11-25T10:14:42Z</time>
      </trkpt>
      <trkpt lat="47.545055" lon="1.8488846">
        <ele>139.0</ele>
        <time>2021-11-25T10:14:43Z</time>
      </trkpt>
      <trkpt lat="47.545048" lon="1.8488858">
        <ele>139.0</ele>
        <time>2021-11-25T10:14:44Z</time>
      </trkpt>
      <trkpt lat="47.545036" lon="1.848892">
        <ele>139.0</ele>
        <time>2021-11-25T10:14:45Z</time>
      </trkpt>
      <trkpt lat="47.545025" lon="1.8488996">
        <ele>139.0</ele>
        <time>2021-11-25T10:14:46Z</time>
      </trkpt>
      <trkpt lat="47.545013" lon="1.8489045">
        <ele>139.0</ele>
        <time>2021-11-25T10:14:47Z</time>
      </trkpt>
      <trkpt lat="47.545002" lon="1.8489112">
        <ele>140.0</ele>
        <time>2021-11-25T10:14:48Z</time>
      </trkpt>
      <trkpt lat="47.544983" lon="1.8489156">
        <ele>140.0</ele>
        <time>2021-11-25T10:14:49Z</time>
      </trkpt>
      <trkpt lat="47.544968" lon="1.8489213">
        <ele>141.0</ele>
        <time>2021-11-25T10:14:50Z</time>
      </trkpt>
      <trkpt lat="47.544952" lon="1.848925">
        <ele>141.0</ele>
        <time>2021-11-25T10:14:51Z</time>
      </trkpt>
      <trkpt lat="47.544937" lon="1.848927">
        <ele>141.0</ele>
        <time>2021-11-25T10:14:52Z</time>
      </trkpt>
      <trkpt lat="47.544926" lon="1.8489257">
        <ele>141.0</ele>
        <time>2021-11-25T10:14:53Z</time>
      </trkpt>
      <trkpt lat="47.544914" lon="1.848933">
        <ele>141.0</ele>
        <time>2021-11-25T10:14:54Z</time>
      </trkpt>
      <trkpt lat="47.544907" lon="1.8489295">
        <ele>141.0</ele>
        <time>2021-11-25T10:14:55Z</time>
      </trkpt>
      <trkpt lat="47.544895" lon="1.8489296">
        <ele>141.0</ele>
        <time>2021-11-25T10:14:56Z</time>
      </trkpt>
      <trkpt lat="47.544884" lon="1.8489267">
        <ele>140.0</ele>
        <time>2021-11-25T10:14:57Z</time>
      </trkpt>
      <trkpt lat="47.54487" lon="1.8489201">
        <ele>140.0</ele>
        <time>2021-11-25T10:14:58Z</time>
      </trkpt>
      <trkpt lat="47.544857" lon="1.8489132">
        <ele>140.0</ele>
        <time>2021-11-25T10:14:59Z</time>
      </trkpt>
      <trkpt lat="47.544857" lon="1.8489132">
        <ele>140.0</ele>
        <time>2021-11-25T10:14:59Z</time>
      </trkpt>
      <trkpt lat="47.54483" lon="1.8489081">
        <ele>140.0</ele>
        <time>2021-11-25T10:15:01Z</time>
      </trkpt>
      <trkpt lat="47.544823" lon="1.8489062">
        <ele>141.0</ele>
        <time>2021-11-25T10:15:02Z</time>
      </trkpt>
      <trkpt lat="47.544815" lon="1.8489037">
        <ele>141.0</ele>
        <time>2021-11-25T10:15:03Z</time>
      </trkpt>
      <trkpt lat="47.544807" lon="1.8489008">
        <ele>141.0</ele>
        <time>2021-11-25T10:15:04Z</time>
      </trkpt>
      <trkpt lat="47.544804" lon="1.8489041">
        <ele>141.0</ele>
        <time>2021-11-25T10:15:05Z</time>
      </trkpt>
      <trkpt lat="47.5448" lon="1.8489035">
        <ele>141.0</ele>
        <time>2021-11-25T10:15:06Z</time>
      </trkpt>
      <trkpt lat="47.5448" lon="1.8489035">
        <ele>141.0</ele>
        <time>2021-11-25T10:15:07Z</time>
      </trkpt>
      <trkpt lat="47.5448" lon="1.8489035">
        <ele>141.0</ele>
        <time>2021-11-25T10:15:08Z</time>
      </trkpt>
      <trkpt lat="47.5448" lon="1.8489035">
        <ele>141.0</ele>
        <time>2021-11-25T10:15:08Z</time>
      </trkpt>
    </trkseg>
    <trkseg>
      <trkpt lat="47.5448" lon="1.8489035">
        <ele>141.0</ele>
        <time>2021-11-25T10:15:08Z</time>
      </trkpt>
      <trkpt lat="47.54475" lon="1.848907">
        <ele>138.0</ele>
        <time>2021-11-25T10:15:42Z</time>
      </trkpt>
      <trkpt lat="47.544743" lon="1.8489059">
        <ele>138.0</ele>
        <time>2021-11-25T10:15:43Z</time>
      </trkpt>
      <trkpt lat="47.544735" lon="1.8489072">
        <ele>138.0</ele>
        <time>2021-11-25T10:15:44Z</time>
      </trkpt>
      <trkpt lat="47.54473" lon="1.8489066">
        <ele>139.0</ele>
        <time>2021-11-25T10:15:45Z</time>
      </trkpt>
      <trkpt lat="47.544727" lon="1.8489014">
        <ele>139.0</ele>
        <time>2021-11-25T10:15:46Z</time>
      </trkpt>
      <trkpt lat="47.54472" lon="1.8488988">
        <ele>139.0</ele>
        <time>2021-11-25T10:15:47Z</time>
      </trkpt>
      <trkpt lat="47.544712" lon="1.8489004">
        <ele>139.0</ele>
        <time>2021-11-25T10:15:48Z</time>
      </trkpt>
      <trkpt lat="47.54471" lon="1.8489035">
        <ele>139.0</ele>
        <time>2021-11-25T10:15:49Z</time>
      </trkpt>
      <trkpt lat="47.544697" lon="1.8489022">
        <ele>139.0</ele>
        <time>2021-11-25T10:15:50Z</time>
      </trkpt>
      <trkpt lat="47.54469" lon="1.848899">
        <ele>139.0</ele>
        <time>2021-11-25T10:15:51Z</time>
      </trkpt>
      <trkpt lat="47.54468" lon="1.8488948">
        <ele>139.0</ele>
        <time>2021-11-25T10:15:52Z</time>
      </trkpt>
      <trkpt lat="47.54467" lon="1.8488896">
        <ele>139.0</ele>
        <time>2021-11-25T10:15:53Z</time>
      </trkpt>
      <trkpt lat="47.54466" lon="1.8488876">
        <ele>139.0</ele>
        <time>2021-11-25T10:15:54Z</time>
      </trkpt>
      <trkpt lat="47.54465" lon="1.8488853">
        <ele>139.0</ele>
        <time>2021-11-25T10:15:55Z</time>
      </trkpt>
      <trkpt lat="47.544643" lon="1.8488843">
        <ele>139.0</ele>
        <time>2021-11-25T10:15:56Z</time>
      </trkpt>
      <trkpt lat="47.544632" lon="1.848884">
        <ele>139.0</ele>
        <time>2021-11-25T10:15:57Z</time>
      </trkpt>
      <trkpt lat="47.544624" lon="1.8488796">
        <ele>139.0</ele>
        <time>2021-11-25T10:15:58Z</time>
      </trkpt>
      <trkpt lat="47.544613" lon="1.848879">
        <ele>139.0</ele>
        <time>2021-11-25T10:15:59Z</time>
      </trkpt>
      <trkpt lat="47.544605" lon="1.8488852">
        <ele>139.0</ele>
        <time>2021-11-25T10:16:00Z</time>
      </trkpt>
      <trkpt lat="47.5446" lon="1.848889">
        <ele>139.0</ele>
        <time>2021-11-25T10:16:01Z</time>
      </trkpt>
      <trkpt lat="47.544598" lon="1.8488936">
        <ele>140.0</ele>
        <time>2021-11-25T10:16:02Z</time>
      </trkpt>
      <trkpt lat="47.54459" lon="1.8488953">
        <ele>140.0</ele>
        <time>2021-11-25T10:16:03Z</time>
      </trkpt>
      <trkpt lat="47.54459" lon="1.8488953">
        <ele>140.0</ele>
        <time>2021-11-25T10:16:04Z</time>
      </trkpt>
      <trkpt lat="47.54459" lon="1.8488953">
        <ele>140.0</ele>
        <time>2021-11-25T10:16:05Z</time>
      </trkpt>
      <trkpt lat="47.544575" lon="1.8488886">
        <ele>140.0</ele>
        <time>2021-11-25T10:16:06Z</time>
      </trkpt>
      <trkpt lat="47.544567" lon="1.8488865">
        <ele>140.0</ele>
        <time>2021-11-25T10:16:07Z</time>
      </trkpt>
      <trkpt lat="47.544556" lon="1.8488857">
        <ele>139.0</ele>
        <time>2021-11-25T10:16:08Z</time>
      </trkpt>
      <trkpt lat="47.544548" lon="1.8488837">
        <ele>139.0</ele>
        <time>2021-11-25T10:16:09Z</time>
      </trkpt>
      <trkpt lat="47.54454" lon="1.8488818">
        <ele>139.0</ele>
        <time>2021-11-25T10:16:10Z</time>
      </trkpt>
      <trkpt lat="47.54453" lon="1.8488798">
        <ele>139.0</ele>
        <time>2021-11-25T10:16:11Z</time>
      </trkpt>
      <trkpt lat="47.544518" lon="1.848877">
        <ele>139.0</ele>
        <time>2021-11-25T10:16:12Z</time>
      </trkpt>
      <trkpt lat="47.544518" lon="1.8488687">
        <ele>139.0</ele>
        <time>2021-11-25T10:16:13Z</time>
      </trkpt>
      <trkpt lat="47.54452" lon="1.8488629">
        <ele>140.0</ele>
        <time>2021-11-25T10:16:14Z</time>
      </trkpt>
      <trkpt lat="47.544525" lon="1.848861">
        <ele>140.0</ele>
        <time>2021-11-25T10:16:15Z</time>
      </trkpt>
      <trkpt lat="47.544525" lon="1.8488606">
        <ele>140.0</ele>
        <time>2021-11-25T10:16:16Z</time>
      </trkpt>
      <trkpt lat="47.544525" lon="1.8488606">
        <ele>140.0</ele>
        <time>2021-11-25T10:16:17Z</time>
      </trkpt>
      <trkpt lat="47.544525" lon="1.8488606">
        <ele>140.0</ele>
        <time>2021-11-25T10:16:17Z</time>
      </trkpt>
    </trkseg>
    <trkseg>
      <trkpt lat="47.544525" lon="1.8488606">
        <ele>140.0</ele>
        <time>2021-11-25T10:16:17Z</time>
      </trkpt>
      <trkpt lat="47.544502" lon="1.8488587">
        <ele>139.0</ele>
        <time>2021-11-25T10:16:43Z</time>
      </trkpt>
      <trkpt lat="47.544502" lon="1.8488587">
        <ele>139.0</ele>
        <time>2021-11-25T10:16:44Z</time>
      </trkpt>
      <trkpt lat="47.544502" lon="1.8488587">
        <ele>139.0</ele>
        <time>2021-11-25T10:16:45Z</time>
      </trkpt>
      <trkpt lat="47.544502" lon="1.8488587">
        <ele>139.0</ele>
        <time>2021-11-25T10:16:45Z</time>
      </trkpt>
    </trkseg>
    <trkseg>
      <trkpt lat="47.544502" lon="1.8488587">
        <ele>139.0</ele>
        <time>2021-11-25T10:16:45Z</time>
      </trkpt>
    </trkseg>
  </trk>
  <exerciseinfo>
    <exercisetype>1001</exercisetype>
    <distance>9649.66</distance>
    <elevationgain>0.0</elevationgain>
    <avggradient>-0.05117612280558441</avggradient>
    <duration>7159329</duration>
    <avgspeed>1.3480954</avgspeed>
  </exerciseinfo>
</gpx>